<?xml version='1.0' encoding='UTF-8'?><gpx version="1.1" creator="JPX - https://github.com/jenetics/jpx" xmlns="http://www.topografix.com/GPX/1/1"><trk><trkseg><trkpt lat="45.3741284" lon="8.1648746"><ele>190.0</ele><time>2026-04-19T08:53:40.963Z</time></trkpt><trkpt lat="45.3740372" lon="8.1648273"><ele>190.0</ele><time>2026-04-19T08:53:41.963Z</time></trkpt><trkpt lat="45.3739467" lon="8.1647689"><ele>190.0</ele><time>2026-04-19T08:53:43.963Z</time></trkpt><trkpt lat="45.3738625" lon="8.1647362"><ele>190.0</ele><time>2026-04-19T08:53:45.963Z</time></trkpt><trkpt lat="45.373768" lon="8.1647178"><ele>190.0</ele><time>2026-04-19T08:55:16.964Z</time></trkpt><trkpt lat="45.3737038" lon="8.1647043"><ele>190.0</ele><time>2026-04-19T08:55:20.964Z</time></trkpt><trkpt lat="45.3736418" lon="8.1647324"><ele>189.8</ele><time>2026-04-19T08:55:33.964Z</time></trkpt><trkpt lat="45.373586" lon="8.1648054"><ele>189.6</ele><time>2026-04-19T08:55:35.963Z</time></trkpt><trkpt lat="45.3735302" lon="8.164977"><ele>189.39999999999998</ele><time>2026-04-19T08:55:37.964Z</time></trkpt><trkpt lat="45.373501" lon="8.1650934"><ele>189.2</ele><time>2026-04-19T08:55:38.963Z</time></trkpt><trkpt lat="45.3734755" lon="8.1652091"><ele>189.0</ele><time>2026-04-19T08:55:39.964Z</time></trkpt><trkpt lat="45.3734498" lon="8.1653353"><ele>188.6</ele><time>2026-04-19T08:55:40.963Z</time></trkpt><trkpt lat="45.3734222" lon="8.1654705"><ele>188.2</ele><time>2026-04-19T08:55:41.963Z</time></trkpt><trkpt lat="45.3733909" lon="8.1656168"><ele>187.79999999999998</ele><time>2026-04-19T08:55:42.964Z</time></trkpt><trkpt lat="45.373361" lon="8.165771"><ele>187.39999999999998</ele><time>2026-04-19T08:55:43.964Z</time></trkpt><trkpt lat="45.3733238" lon="8.1659251"><ele>187.0</ele><time>2026-04-19T08:55:44.963Z</time></trkpt><trkpt lat="45.3732899" lon="8.166078"><ele>187.0</ele><time>2026-04-19T08:55:45.964Z</time></trkpt><trkpt lat="45.3732561" lon="8.1662293"><ele>187.0</ele><time>2026-04-19T08:55:46.963Z</time></trkpt><trkpt lat="45.3732243" lon="8.1663771"><ele>187.0</ele><time>2026-04-19T08:55:47.964Z</time></trkpt><trkpt lat="45.3731938" lon="8.1665249"><ele>187.0</ele><time>2026-04-19T08:55:48.963Z</time></trkpt><trkpt lat="45.37317" lon="8.1666757"><ele>187.0</ele><time>2026-04-19T08:55:49.963Z</time></trkpt><trkpt lat="45.373147" lon="8.1668218"><ele>187.0</ele><time>2026-04-19T08:55:50.964Z</time></trkpt><trkpt lat="45.373126" lon="8.166951"><ele>187.0</ele><time>2026-04-19T08:55:51.963Z</time></trkpt><trkpt lat="45.3731063" lon="8.1670717"><ele>187.0</ele><time>2026-04-19T08:55:52.964Z</time></trkpt><trkpt lat="45.3730842" lon="8.1671799"><ele>187.0</ele><time>2026-04-19T08:55:53.964Z</time></trkpt><trkpt lat="45.3730625" lon="8.1672767"><ele>187.0</ele><time>2026-04-19T08:55:54.963Z</time></trkpt><trkpt lat="45.3730576" lon="8.1674357"><ele>187.0</ele><time>2026-04-19T08:55:56.963Z</time></trkpt><trkpt lat="45.3731268" lon="8.1675387"><ele>186.6</ele><time>2026-04-19T08:55:58.963Z</time></trkpt><trkpt lat="45.3732312" lon="8.167601"><ele>186.2</ele><time>2026-04-19T08:56:00.964Z</time></trkpt><trkpt lat="45.3733444" lon="8.167677"><ele>185.8</ele><time>2026-04-19T08:56:02.963Z</time></trkpt><trkpt lat="45.3734087" lon="8.1677181"><ele>185.4</ele><time>2026-04-19T08:56:03.963Z</time></trkpt><trkpt lat="45.3734773" lon="8.1677604"><ele>185.0</ele><time>2026-04-19T08:56:04.963Z</time></trkpt><trkpt lat="45.3735543" lon="8.1678032"><ele>185.0</ele><time>2026-04-19T08:56:05.964Z</time></trkpt><trkpt lat="45.3736248" lon="8.1678595"><ele>185.0</ele><time>2026-04-19T08:56:06.963Z</time></trkpt><trkpt lat="45.3736996" lon="8.1679208"><ele>185.0</ele><time>2026-04-19T08:56:07.963Z</time></trkpt><trkpt lat="45.3737735" lon="8.167978"><ele>185.0</ele><time>2026-04-19T08:56:08.963Z</time></trkpt><trkpt lat="45.3738478" lon="8.1680273"><ele>185.0</ele><time>2026-04-19T08:56:09.963Z</time></trkpt><trkpt lat="45.3739157" lon="8.1680724"><ele>185.0</ele><time>2026-04-19T08:56:10.964Z</time></trkpt><trkpt lat="45.3739895" lon="8.1681168"><ele>185.0</ele><time>2026-04-19T08:56:11.965Z</time></trkpt><trkpt lat="45.3740659" lon="8.1681559"><ele>185.0</ele><time>2026-04-19T08:56:12.963Z</time></trkpt><trkpt lat="45.3741405" lon="8.1681973"><ele>185.0</ele><time>2026-04-19T08:56:13.963Z</time></trkpt><trkpt lat="45.3742053" lon="8.1682346"><ele>185.0</ele><time>2026-04-19T08:56:14.964Z</time></trkpt><trkpt lat="45.3742641" lon="8.1682676"><ele>185.0</ele><time>2026-04-19T08:56:15.963Z</time></trkpt><trkpt lat="45.3743235" lon="8.168299"><ele>185.0</ele><time>2026-04-19T08:56:16.963Z</time></trkpt><trkpt lat="45.3744237" lon="8.1683617"><ele>185.0</ele><time>2026-04-19T08:56:18.963Z</time></trkpt><trkpt lat="45.3744758" lon="8.1684568"><ele>185.0</ele><time>2026-04-19T08:56:20.964Z</time></trkpt><trkpt lat="45.3744641" lon="8.1686011"><ele>185.0</ele><time>2026-04-19T08:56:22.964Z</time></trkpt><trkpt lat="45.3744367" lon="8.1686969"><ele>185.0</ele><time>2026-04-19T08:56:23.963Z</time></trkpt><trkpt lat="45.3743954" lon="8.1688408"><ele>185.0</ele><time>2026-04-19T08:56:25.964Z</time></trkpt><trkpt lat="45.3744178" lon="8.1689785"><ele>185.0</ele><time>2026-04-19T08:56:27.963Z</time></trkpt><trkpt lat="45.3745327" lon="8.1690923"><ele>185.0</ele><time>2026-04-19T08:56:29.963Z</time></trkpt><trkpt lat="45.3746096" lon="8.1691385"><ele>185.0</ele><time>2026-04-19T08:56:30.964Z</time></trkpt><trkpt lat="45.3746884" lon="8.1691911"><ele>185.0</ele><time>2026-04-19T08:56:31.963Z</time></trkpt><trkpt lat="45.3747713" lon="8.169239"><ele>185.0</ele><time>2026-04-19T08:56:32.963Z</time></trkpt><trkpt lat="45.3748594" lon="8.169286"><ele>184.83333333333331</ele><time>2026-04-19T08:56:33.963Z</time></trkpt><trkpt lat="45.3749434" lon="8.169336"><ele>184.66666666666666</ele><time>2026-04-19T08:56:34.963Z</time></trkpt><trkpt lat="45.3750246" lon="8.1693814"><ele>184.5</ele><time>2026-04-19T08:56:35.964Z</time></trkpt><trkpt lat="45.3751049" lon="8.1694249"><ele>184.33333333333334</ele><time>2026-04-19T08:56:36.963Z</time></trkpt><trkpt lat="45.3751684" lon="8.1694625"><ele>184.16666666666669</ele><time>2026-04-19T08:56:37.964Z</time></trkpt><trkpt lat="45.3752332" lon="8.1694966"><ele>184.0</ele><time>2026-04-19T08:56:38.963Z</time></trkpt><trkpt lat="45.3753544" lon="8.1694942"><ele>184.0</ele><time>2026-04-19T08:56:40.963Z</time></trkpt><trkpt lat="45.3754134" lon="8.169461"><ele>184.0</ele><time>2026-04-19T08:56:41.963Z</time></trkpt><trkpt lat="45.3754664" lon="8.1693983"><ele>184.0</ele><time>2026-04-19T08:56:42.964Z</time></trkpt><trkpt lat="45.3755197" lon="8.1693164"><ele>184.0</ele><time>2026-04-19T08:56:43.963Z</time></trkpt><trkpt lat="45.3755773" lon="8.1692263"><ele>184.0</ele><time>2026-04-19T08:56:44.963Z</time></trkpt><trkpt lat="45.3756421" lon="8.169139"><ele>184.0</ele><time>2026-04-19T08:56:45.964Z</time></trkpt><trkpt lat="45.3757021" lon="8.1690711"><ele>184.16666666666669</ele><time>2026-04-19T08:56:46.964Z</time></trkpt><trkpt lat="45.3757686" lon="8.1690094"><ele>184.33333333333334</ele><time>2026-04-19T08:56:47.963Z</time></trkpt><trkpt lat="45.3758327" lon="8.168966"><ele>184.5</ele><time>2026-04-19T08:56:48.963Z</time></trkpt><trkpt lat="45.3759032" lon="8.1689209"><ele>184.66666666666666</ele><time>2026-04-19T08:56:49.965Z</time></trkpt><trkpt lat="45.3759818" lon="8.1688768"><ele>184.83333333333331</ele><time>2026-04-19T08:56:50.963Z</time></trkpt><trkpt lat="45.3760627" lon="8.168822"><ele>185.0</ele><time>2026-04-19T08:56:51.964Z</time></trkpt><trkpt lat="45.3761399" lon="8.1687714"><ele>185.0</ele><time>2026-04-19T08:56:52.965Z</time></trkpt><trkpt lat="45.3762219" lon="8.1687167"><ele>185.0</ele><time>2026-04-19T08:56:53.963Z</time></trkpt><trkpt lat="45.3763098" lon="8.1686598"><ele>185.0</ele><time>2026-04-19T08:56:54.963Z</time></trkpt><trkpt lat="45.3764065" lon="8.1685938"><ele>185.0</ele><time>2026-04-19T08:56:55.964Z</time></trkpt><trkpt lat="45.3765002" lon="8.1685307"><ele>185.0</ele><time>2026-04-19T08:56:56.964Z</time></trkpt><trkpt lat="45.3765965" lon="8.1684684"><ele>185.0</ele><time>2026-04-19T08:56:57.963Z</time></trkpt><trkpt lat="45.3766995" lon="8.1683993"><ele>185.0</ele><time>2026-04-19T08:56:58.963Z</time></trkpt><trkpt lat="45.3768002" lon="8.1683319"><ele>185.0</ele><time>2026-04-19T08:56:59.963Z</time></trkpt><trkpt lat="45.3768974" lon="8.1682681"><ele>185.0</ele><time>2026-04-19T08:57:00.964Z</time></trkpt><trkpt lat="45.3769976" lon="8.1682024"><ele>185.0</ele><time>2026-04-19T08:57:01.963Z</time></trkpt><trkpt lat="45.3770928" lon="8.1681385"><ele>185.0</ele><time>2026-04-19T08:57:02.964Z</time></trkpt><trkpt lat="45.3771813" lon="8.1680747"><ele>185.0</ele><time>2026-04-19T08:57:03.964Z</time></trkpt><trkpt lat="45.3772749" lon="8.168012"><ele>185.0</ele><time>2026-04-19T08:57:04.963Z</time></trkpt><trkpt lat="45.3773712" lon="8.1679619"><ele>185.0</ele><time>2026-04-19T08:57:05.963Z</time></trkpt><trkpt lat="45.3774753" lon="8.1679247"><ele>185.0</ele><time>2026-04-19T08:57:06.963Z</time></trkpt><trkpt lat="45.3775795" lon="8.1678838"><ele>185.25</ele><time>2026-04-19T08:57:07.963Z</time></trkpt><trkpt lat="45.3776804" lon="8.1678315"><ele>185.5</ele><time>2026-04-19T08:57:08.964Z</time></trkpt><trkpt lat="45.3777828" lon="8.1677718"><ele>185.75</ele><time>2026-04-19T08:57:09.964Z</time></trkpt><trkpt lat="45.3778881" lon="8.1677005"><ele>186.0</ele><time>2026-04-19T08:57:10.963Z</time></trkpt><trkpt lat="45.3779877" lon="8.1676112"><ele>185.75</ele><time>2026-04-19T08:57:11.964Z</time></trkpt><trkpt lat="45.3780898" lon="8.1675156"><ele>185.5</ele><time>2026-04-19T08:57:12.963Z</time></trkpt><trkpt lat="45.3781922" lon="8.1674176"><ele>185.25</ele><time>2026-04-19T08:57:13.963Z</time></trkpt><trkpt lat="45.3782973" lon="8.1673167"><ele>185.0</ele><time>2026-04-19T08:57:14.963Z</time></trkpt><trkpt lat="45.3784003" lon="8.1672165"><ele>185.4</ele><time>2026-04-19T08:57:15.964Z</time></trkpt><trkpt lat="45.3784967" lon="8.1671226"><ele>185.8</ele><time>2026-04-19T08:57:16.963Z</time></trkpt><trkpt lat="45.3785897" lon="8.1670265"><ele>186.2</ele><time>2026-04-19T08:57:17.964Z</time></trkpt><trkpt lat="45.3786773" lon="8.1669336"><ele>186.6</ele><time>2026-04-19T08:57:18.963Z</time></trkpt><trkpt lat="45.3787599" lon="8.1668446"><ele>187.0</ele><time>2026-04-19T08:57:19.964Z</time></trkpt><trkpt lat="45.3788457" lon="8.166753"><ele>186.8</ele><time>2026-04-19T08:57:20.964Z</time></trkpt><trkpt lat="45.3789302" lon="8.1666578"><ele>186.6</ele><time>2026-04-19T08:57:21.964Z</time></trkpt><trkpt lat="45.3790084" lon="8.1665734"><ele>186.4</ele><time>2026-04-19T08:57:22.964Z</time></trkpt><trkpt lat="45.3790837" lon="8.1664919"><ele>186.20000000000002</ele><time>2026-04-19T08:57:23.964Z</time></trkpt><trkpt lat="45.3791551" lon="8.1664045"><ele>186.0</ele><time>2026-04-19T08:57:24.964Z</time></trkpt><trkpt lat="45.3792214" lon="8.1663102"><ele>186.0</ele><time>2026-04-19T08:57:25.963Z</time></trkpt><trkpt lat="45.3792789" lon="8.1662143"><ele>186.0</ele><time>2026-04-19T08:57:26.964Z</time></trkpt><trkpt lat="45.3793295" lon="8.1661271"><ele>186.0</ele><time>2026-04-19T08:57:27.964Z</time></trkpt><trkpt lat="45.3793748" lon="8.1660502"><ele>186.0</ele><time>2026-04-19T08:57:28.963Z</time></trkpt><trkpt lat="45.3794515" lon="8.1659178"><ele>186.0</ele><time>2026-04-19T08:57:30.964Z</time></trkpt><trkpt lat="45.379564" lon="8.1658447"><ele>186.0</ele><time>2026-04-19T08:57:32.963Z</time></trkpt><trkpt lat="45.3796391" lon="8.1658572"><ele>186.0</ele><time>2026-04-19T08:57:33.963Z</time></trkpt><trkpt lat="45.3797166" lon="8.1658938"><ele>186.0</ele><time>2026-04-19T08:57:34.963Z</time></trkpt><trkpt lat="45.3797939" lon="8.165942"><ele>186.0</ele><time>2026-04-19T08:57:35.965Z</time></trkpt><trkpt lat="45.3798745" lon="8.1659981"><ele>186.0</ele><time>2026-04-19T08:57:36.963Z</time></trkpt><trkpt lat="45.3799584" lon="8.1660573"><ele>186.0</ele><time>2026-04-19T08:57:37.963Z</time></trkpt><trkpt lat="45.3800411" lon="8.1661126"><ele>186.16666666666666</ele><time>2026-04-19T08:57:38.963Z</time></trkpt><trkpt lat="45.3801205" lon="8.1661559"><ele>186.33333333333334</ele><time>2026-04-19T08:57:39.964Z</time></trkpt><trkpt lat="45.3801938" lon="8.1661932"><ele>186.5</ele><time>2026-04-19T08:57:40.963Z</time></trkpt><trkpt lat="45.3802595" lon="8.1662239"><ele>186.66666666666669</ele><time>2026-04-19T08:57:41.964Z</time></trkpt><trkpt lat="45.3803211" lon="8.166247"><ele>186.83333333333334</ele><time>2026-04-19T08:57:42.963Z</time></trkpt><trkpt lat="45.3804359" lon="8.1661883"><ele>187.0</ele><time>2026-04-19T08:57:44.963Z</time></trkpt><trkpt lat="45.3804805" lon="8.166101"><ele>186.8</ele><time>2026-04-19T08:57:45.963Z</time></trkpt><trkpt lat="45.3805218" lon="8.1659909"><ele>186.6</ele><time>2026-04-19T08:57:46.964Z</time></trkpt><trkpt lat="45.3805719" lon="8.165871"><ele>186.4</ele><time>2026-04-19T08:57:47.963Z</time></trkpt><trkpt lat="45.3806263" lon="8.1657475"><ele>186.20000000000002</ele><time>2026-04-19T08:57:48.964Z</time></trkpt><trkpt lat="45.3806793" lon="8.1656228"><ele>186.0</ele><time>2026-04-19T08:57:49.964Z</time></trkpt><trkpt lat="45.380737" lon="8.1654925"><ele>186.4</ele><time>2026-04-19T08:57:50.963Z</time></trkpt><trkpt lat="45.3807967" lon="8.1653655"><ele>186.8</ele><time>2026-04-19T08:57:51.963Z</time></trkpt><trkpt lat="45.3808493" lon="8.1652502"><ele>187.20000000000002</ele><time>2026-04-19T08:57:52.963Z</time></trkpt><trkpt lat="45.3808928" lon="8.16513"><ele>187.60000000000002</ele><time>2026-04-19T08:57:53.964Z</time></trkpt><trkpt lat="45.3809257" lon="8.1650008"><ele>188.0</ele><time>2026-04-19T08:57:54.965Z</time></trkpt><trkpt lat="45.3809501" lon="8.1648583"><ele>188.2</ele><time>2026-04-19T08:57:55.964Z</time></trkpt><trkpt lat="45.3809823" lon="8.1647087"><ele>188.4</ele><time>2026-04-19T08:57:56.963Z</time></trkpt><trkpt lat="45.3810274" lon="8.1645596"><ele>188.6</ele><time>2026-04-19T08:57:57.964Z</time></trkpt><trkpt lat="45.3810756" lon="8.164415"><ele>188.79999999999998</ele><time>2026-04-19T08:57:58.964Z</time></trkpt><trkpt lat="45.3811244" lon="8.164275"><ele>189.0</ele><time>2026-04-19T08:57:59.964Z</time></trkpt><trkpt lat="45.3811746" lon="8.1641401"><ele>189.0</ele><time>2026-04-19T08:58:00.965Z</time></trkpt><trkpt lat="45.3812272" lon="8.1639973"><ele>189.0</ele><time>2026-04-19T08:58:01.963Z</time></trkpt><trkpt lat="45.381279" lon="8.1638454"><ele>189.0</ele><time>2026-04-19T08:58:02.964Z</time></trkpt><trkpt lat="45.3813317" lon="8.1636901"><ele>189.0</ele><time>2026-04-19T08:58:03.963Z</time></trkpt><trkpt lat="45.3813821" lon="8.1635373"><ele>189.0</ele><time>2026-04-19T08:58:04.963Z</time></trkpt><trkpt lat="45.3814275" lon="8.1633948"><ele>189.0</ele><time>2026-04-19T08:58:05.964Z</time></trkpt><trkpt lat="45.3814696" lon="8.163272"><ele>189.0</ele><time>2026-04-19T08:58:06.964Z</time></trkpt><trkpt lat="45.3815204" lon="8.163178"><ele>189.0</ele><time>2026-04-19T08:58:07.963Z</time></trkpt><trkpt lat="45.3815903" lon="8.1631221"><ele>189.0</ele><time>2026-04-19T08:58:08.963Z</time></trkpt><trkpt lat="45.3816932" lon="8.1630946"><ele>189.0</ele><time>2026-04-19T08:58:09.964Z</time></trkpt><trkpt lat="45.3818251" lon="8.1630709"><ele>189.0</ele><time>2026-04-19T08:58:10.964Z</time></trkpt><trkpt lat="45.3819501" lon="8.1630454"><ele>189.0</ele><time>2026-04-19T08:58:11.964Z</time></trkpt><trkpt lat="45.3820561" lon="8.1630221"><ele>189.0</ele><time>2026-04-19T08:58:12.964Z</time></trkpt><trkpt lat="45.3821485" lon="8.1630002"><ele>188.83333333333334</ele><time>2026-04-19T08:58:13.963Z</time></trkpt><trkpt lat="45.3822324" lon="8.1629777"><ele>188.66666666666666</ele><time>2026-04-19T08:58:14.964Z</time></trkpt><trkpt lat="45.3823116" lon="8.1629548"><ele>188.5</ele><time>2026-04-19T08:58:15.963Z</time></trkpt><trkpt lat="45.3823877" lon="8.162934"><ele>188.33333333333331</ele><time>2026-04-19T08:58:16.964Z</time></trkpt><trkpt lat="45.3824602" lon="8.1629203"><ele>188.16666666666666</ele><time>2026-04-19T08:58:17.963Z</time></trkpt><trkpt lat="45.3825283" lon="8.1629147"><ele>188.0</ele><time>2026-04-19T08:58:18.964Z</time></trkpt><trkpt lat="45.3825953" lon="8.1629058"><ele>188.0</ele><time>2026-04-19T08:58:19.963Z</time></trkpt><trkpt lat="45.3826604" lon="8.1628932"><ele>188.0</ele><time>2026-04-19T08:58:20.963Z</time></trkpt><trkpt lat="45.3827262" lon="8.1628809"><ele>188.0</ele><time>2026-04-19T08:58:21.964Z</time></trkpt><trkpt lat="45.3827902" lon="8.1628681"><ele>188.0</ele><time>2026-04-19T08:58:22.963Z</time></trkpt><trkpt lat="45.3828539" lon="8.1628588"><ele>188.0</ele><time>2026-04-19T08:58:23.964Z</time></trkpt><trkpt lat="45.3829211" lon="8.1628491"><ele>188.0</ele><time>2026-04-19T08:58:24.965Z</time></trkpt><trkpt lat="45.3829895" lon="8.1628378"><ele>188.0</ele><time>2026-04-19T08:58:25.963Z</time></trkpt><trkpt lat="45.383055" lon="8.1628264"><ele>188.28571428571428</ele><time>2026-04-19T08:58:26.963Z</time></trkpt><trkpt lat="45.3831182" lon="8.1628121"><ele>188.57142857142856</ele><time>2026-04-19T08:58:27.963Z</time></trkpt><trkpt lat="45.3831829" lon="8.1627959"><ele>188.85714285714286</ele><time>2026-04-19T08:58:28.964Z</time></trkpt><trkpt lat="45.3832461" lon="8.1627834"><ele>189.14285714285714</ele><time>2026-04-19T08:58:29.963Z</time></trkpt><trkpt lat="45.3833094" lon="8.1627692"><ele>189.42857142857144</ele><time>2026-04-19T08:58:30.963Z</time></trkpt><trkpt lat="45.3834277" lon="8.1627522"><ele>189.71428571428572</ele><time>2026-04-19T08:58:32.963Z</time></trkpt><trkpt lat="45.3834915" lon="8.1627392"><ele>190.0</ele><time>2026-04-19T08:58:33.963Z</time></trkpt><trkpt lat="45.3835608" lon="8.1627275"><ele>190.0</ele><time>2026-04-19T08:58:34.963Z</time></trkpt><trkpt lat="45.3836319" lon="8.1627082"><ele>190.0</ele><time>2026-04-19T08:58:35.963Z</time></trkpt><trkpt lat="45.3837079" lon="8.1626825"><ele>190.0</ele><time>2026-04-19T08:58:36.964Z</time></trkpt><trkpt lat="45.3837875" lon="8.1626491"><ele>190.0</ele><time>2026-04-19T08:58:37.963Z</time></trkpt><trkpt lat="45.3838681" lon="8.1626173"><ele>190.0</ele><time>2026-04-19T08:58:38.965Z</time></trkpt><trkpt lat="45.3839441" lon="8.1625852"><ele>190.0</ele><time>2026-04-19T08:58:39.963Z</time></trkpt><trkpt lat="45.3840237" lon="8.1625507"><ele>189.83333333333334</ele><time>2026-04-19T08:58:40.965Z</time></trkpt><trkpt lat="45.3841038" lon="8.162514"><ele>189.66666666666669</ele><time>2026-04-19T08:58:41.963Z</time></trkpt><trkpt lat="45.3841818" lon="8.1624744"><ele>189.5</ele><time>2026-04-19T08:58:42.963Z</time></trkpt><trkpt lat="45.3842597" lon="8.1624254"><ele>189.33333333333334</ele><time>2026-04-19T08:58:43.963Z</time></trkpt><trkpt lat="45.3843356" lon="8.1623637"><ele>189.16666666666666</ele><time>2026-04-19T08:58:44.964Z</time></trkpt><trkpt lat="45.3844077" lon="8.1622995"><ele>189.0</ele><time>2026-04-19T08:58:45.964Z</time></trkpt><trkpt lat="45.3844801" lon="8.1622328"><ele>189.0</ele><time>2026-04-19T08:58:46.964Z</time></trkpt><trkpt lat="45.3845553" lon="8.1621636"><ele>189.0</ele><time>2026-04-19T08:58:47.963Z</time></trkpt><trkpt lat="45.3846271" lon="8.1621013"><ele>189.0</ele><time>2026-04-19T08:58:48.963Z</time></trkpt><trkpt lat="45.3847005" lon="8.1620343"><ele>189.0</ele><time>2026-04-19T08:58:49.964Z</time></trkpt><trkpt lat="45.3847831" lon="8.161965"><ele>189.0</ele><time>2026-04-19T08:58:50.963Z</time></trkpt><trkpt lat="45.3848683" lon="8.1618995"><ele>189.0</ele><time>2026-04-19T08:58:51.965Z</time></trkpt><trkpt lat="45.3849575" lon="8.1618263"><ele>189.0</ele><time>2026-04-19T08:58:52.963Z</time></trkpt><trkpt lat="45.3850444" lon="8.1617571"><ele>189.0</ele><time>2026-04-19T08:58:53.963Z</time></trkpt><trkpt lat="45.3851301" lon="8.1616858"><ele>189.0</ele><time>2026-04-19T08:58:54.963Z</time></trkpt><trkpt lat="45.3852189" lon="8.1616144"><ele>189.0</ele><time>2026-04-19T08:58:55.965Z</time></trkpt><trkpt lat="45.3853172" lon="8.1615466"><ele>189.0</ele><time>2026-04-19T08:58:56.963Z</time></trkpt><trkpt lat="45.3854122" lon="8.1614798"><ele>189.0</ele><time>2026-04-19T08:58:57.963Z</time></trkpt><trkpt lat="45.3855056" lon="8.1614117"><ele>189.0</ele><time>2026-04-19T08:58:58.964Z</time></trkpt><trkpt lat="45.3855986" lon="8.161348"><ele>189.0</ele><time>2026-04-19T08:58:59.963Z</time></trkpt><trkpt lat="45.3856906" lon="8.1612821"><ele>189.0</ele><time>2026-04-19T08:59:00.964Z</time></trkpt><trkpt lat="45.3857859" lon="8.1612171"><ele>189.39999999999998</ele><time>2026-04-19T08:59:01.964Z</time></trkpt><trkpt lat="45.3858789" lon="8.1611543"><ele>189.8</ele><time>2026-04-19T08:59:02.964Z</time></trkpt><trkpt lat="45.3859688" lon="8.1610888"><ele>190.2</ele><time>2026-04-19T08:59:03.964Z</time></trkpt><trkpt lat="45.3860476" lon="8.1610249"><ele>190.60000000000002</ele><time>2026-04-19T08:59:04.963Z</time></trkpt><trkpt lat="45.3861191" lon="8.1609565"><ele>191.0</ele><time>2026-04-19T08:59:05.963Z</time></trkpt><trkpt lat="45.3861878" lon="8.1608895"><ele>191.0</ele><time>2026-04-19T08:59:06.964Z</time></trkpt><trkpt lat="45.3862491" lon="8.1608297"><ele>191.0</ele><time>2026-04-19T08:59:07.964Z</time></trkpt><trkpt lat="45.3863052" lon="8.1607748"><ele>191.0</ele><time>2026-04-19T08:59:08.963Z</time></trkpt><trkpt lat="45.3864076" lon="8.1606751"><ele>191.0</ele><time>2026-04-19T08:59:10.964Z</time></trkpt><trkpt lat="45.3865048" lon="8.1605765"><ele>191.0</ele><time>2026-04-19T08:59:12.963Z</time></trkpt><trkpt lat="45.3865804" lon="8.1604968"><ele>191.0</ele><time>2026-04-19T08:59:14.964Z</time></trkpt><trkpt lat="45.3866338" lon="8.1604439"><ele>191.0</ele><time>2026-04-19T08:59:18.964Z</time></trkpt><trkpt lat="45.386699" lon="8.1603826"><ele>191.0</ele><time>2026-04-19T08:59:26.964Z</time></trkpt><trkpt lat="45.3867692" lon="8.1603548"><ele>191.0</ele><time>2026-04-19T08:59:29.963Z</time></trkpt><trkpt lat="45.3867991" lon="8.1602124"><ele>191.0</ele><time>2026-04-19T09:00:16.963Z</time></trkpt><trkpt lat="45.3868088" lon="8.1601107"><ele>191.0</ele><time>2026-04-19T09:00:17.963Z</time></trkpt><trkpt lat="45.3868203" lon="8.1599932"><ele>191.0</ele><time>2026-04-19T09:00:18.962Z</time></trkpt><trkpt lat="45.3868332" lon="8.1598562"><ele>191.0</ele><time>2026-04-19T09:00:19.963Z</time></trkpt><trkpt lat="45.3868475" lon="8.1597065"><ele>191.0</ele><time>2026-04-19T09:00:20.963Z</time></trkpt><trkpt lat="45.3868633" lon="8.159543"><ele>191.0</ele><time>2026-04-19T09:00:21.963Z</time></trkpt><trkpt lat="45.38688" lon="8.1593806"><ele>191.0</ele><time>2026-04-19T09:00:22.962Z</time></trkpt><trkpt lat="45.386896" lon="8.1592246"><ele>191.0</ele><time>2026-04-19T09:00:23.963Z</time></trkpt><trkpt lat="45.3869113" lon="8.1590641"><ele>191.0</ele><time>2026-04-19T09:00:24.964Z</time></trkpt><trkpt lat="45.3869271" lon="8.1589019"><ele>191.0</ele><time>2026-04-19T09:00:25.962Z</time></trkpt><trkpt lat="45.3869476" lon="8.1587272"><ele>191.0</ele><time>2026-04-19T09:00:26.963Z</time></trkpt><trkpt lat="45.3869646" lon="8.1585701"><ele>191.20000000000002</ele><time>2026-04-19T09:00:27.963Z</time></trkpt><trkpt lat="45.3869807" lon="8.1584272"><ele>191.4</ele><time>2026-04-19T09:00:28.963Z</time></trkpt><trkpt lat="45.3869954" lon="8.1582798"><ele>191.6</ele><time>2026-04-19T09:00:29.963Z</time></trkpt><trkpt lat="45.3870096" lon="8.1581276"><ele>191.8</ele><time>2026-04-19T09:00:30.963Z</time></trkpt><trkpt lat="45.3870231" lon="8.1579706"><ele>192.0</ele><time>2026-04-19T09:00:31.962Z</time></trkpt><trkpt lat="45.3870397" lon="8.1578113"><ele>192.0</ele><time>2026-04-19T09:00:32.962Z</time></trkpt><trkpt lat="45.3870537" lon="8.1576453"><ele>192.0</ele><time>2026-04-19T09:00:33.962Z</time></trkpt><trkpt lat="45.3870692" lon="8.1574801"><ele>192.0</ele><time>2026-04-19T09:00:34.963Z</time></trkpt><trkpt lat="45.3870892" lon="8.1573237"><ele>192.0</ele><time>2026-04-19T09:00:35.962Z</time></trkpt><trkpt lat="45.3871131" lon="8.1571649"><ele>192.39999999999998</ele><time>2026-04-19T09:00:36.962Z</time></trkpt><trkpt lat="45.3871287" lon="8.1569994"><ele>192.79999999999998</ele><time>2026-04-19T09:00:37.962Z</time></trkpt><trkpt lat="45.3871486" lon="8.156852"><ele>193.2</ele><time>2026-04-19T09:00:38.963Z</time></trkpt><trkpt lat="45.3871741" lon="8.1567041"><ele>193.6</ele><time>2026-04-19T09:00:39.962Z</time></trkpt><trkpt lat="45.3872019" lon="8.1565534"><ele>194.0</ele><time>2026-04-19T09:00:40.963Z</time></trkpt><trkpt lat="45.3872293" lon="8.1564166"><ele>194.39999999999998</ele><time>2026-04-19T09:00:41.962Z</time></trkpt><trkpt lat="45.3872605" lon="8.1562791"><ele>194.8</ele><time>2026-04-19T09:00:42.964Z</time></trkpt><trkpt lat="45.3872848" lon="8.1561391"><ele>195.2</ele><time>2026-04-19T09:00:43.962Z</time></trkpt><trkpt lat="45.3873125" lon="8.1560031"><ele>195.60000000000002</ele><time>2026-04-19T09:00:44.963Z</time></trkpt><trkpt lat="45.3873455" lon="8.1558475"><ele>196.0</ele><time>2026-04-19T09:00:45.962Z</time></trkpt><trkpt lat="45.3873787" lon="8.1556844"><ele>196.0</ele><time>2026-04-19T09:00:46.962Z</time></trkpt><trkpt lat="45.3874104" lon="8.1555385"><ele>196.0</ele><time>2026-04-19T09:00:47.963Z</time></trkpt><trkpt lat="45.3874398" lon="8.1554017"><ele>196.0</ele><time>2026-04-19T09:00:48.962Z</time></trkpt><trkpt lat="45.3874706" lon="8.155253"><ele>196.0</ele><time>2026-04-19T09:00:49.963Z</time></trkpt><trkpt lat="45.3875038" lon="8.1550943"><ele>196.0</ele><time>2026-04-19T09:00:50.963Z</time></trkpt><trkpt lat="45.3875345" lon="8.1549269"><ele>196.0</ele><time>2026-04-19T09:00:51.963Z</time></trkpt><trkpt lat="45.3875672" lon="8.1547591"><ele>196.0</ele><time>2026-04-19T09:00:52.962Z</time></trkpt><trkpt lat="45.3876012" lon="8.1545888"><ele>196.0</ele><time>2026-04-19T09:00:53.962Z</time></trkpt><trkpt lat="45.3876385" lon="8.1544178"><ele>196.0</ele><time>2026-04-19T09:00:54.964Z</time></trkpt><trkpt lat="45.3876751" lon="8.1542448"><ele>196.0</ele><time>2026-04-19T09:00:55.963Z</time></trkpt><trkpt lat="45.3877103" lon="8.1540772"><ele>196.0</ele><time>2026-04-19T09:00:56.963Z</time></trkpt><trkpt lat="45.3877409" lon="8.1539193"><ele>196.0</ele><time>2026-04-19T09:00:57.963Z</time></trkpt><trkpt lat="45.3877751" lon="8.1537617"><ele>196.0</ele><time>2026-04-19T09:00:58.963Z</time></trkpt><trkpt lat="45.3878091" lon="8.153599"><ele>196.25</ele><time>2026-04-19T09:00:59.962Z</time></trkpt><trkpt lat="45.3878398" lon="8.1534523"><ele>196.5</ele><time>2026-04-19T09:01:00.963Z</time></trkpt><trkpt lat="45.3878727" lon="8.1533032"><ele>196.75</ele><time>2026-04-19T09:01:01.962Z</time></trkpt><trkpt lat="45.3879075" lon="8.1531484"><ele>197.0</ele><time>2026-04-19T09:01:02.962Z</time></trkpt><trkpt lat="45.387943" lon="8.1529837"><ele>197.25</ele><time>2026-04-19T09:01:03.962Z</time></trkpt><trkpt lat="45.3879809" lon="8.1528038"><ele>197.5</ele><time>2026-04-19T09:01:04.963Z</time></trkpt><trkpt lat="45.3880187" lon="8.1526148"><ele>197.75</ele><time>2026-04-19T09:01:05.962Z</time></trkpt><trkpt lat="45.3880547" lon="8.1524355"><ele>198.0</ele><time>2026-04-19T09:01:06.962Z</time></trkpt><trkpt lat="45.3880885" lon="8.1522629"><ele>198.0</ele><time>2026-04-19T09:01:07.962Z</time></trkpt><trkpt lat="45.3881217" lon="8.152088"><ele>198.0</ele><time>2026-04-19T09:01:08.963Z</time></trkpt><trkpt lat="45.3881569" lon="8.1519142"><ele>198.0</ele><time>2026-04-19T09:01:09.963Z</time></trkpt><trkpt lat="45.3881916" lon="8.1517501"><ele>198.0</ele><time>2026-04-19T09:01:10.962Z</time></trkpt><trkpt lat="45.3882225" lon="8.1515926"><ele>198.2</ele><time>2026-04-19T09:01:11.962Z</time></trkpt><trkpt lat="45.3882539" lon="8.1514421"><ele>198.4</ele><time>2026-04-19T09:01:12.964Z</time></trkpt><trkpt lat="45.3882825" lon="8.1512928"><ele>198.6</ele><time>2026-04-19T09:01:13.962Z</time></trkpt><trkpt lat="45.3883136" lon="8.1511369"><ele>198.79999999999998</ele><time>2026-04-19T09:01:14.962Z</time></trkpt><trkpt lat="45.3883451" lon="8.1509792"><ele>199.0</ele><time>2026-04-19T09:01:15.963Z</time></trkpt><trkpt lat="45.3883779" lon="8.1508137"><ele>199.0</ele><time>2026-04-19T09:01:16.962Z</time></trkpt><trkpt lat="45.3884115" lon="8.1506434"><ele>199.0</ele><time>2026-04-19T09:01:17.962Z</time></trkpt><trkpt lat="45.3884452" lon="8.150477"><ele>199.0</ele><time>2026-04-19T09:01:18.963Z</time></trkpt><trkpt lat="45.3884764" lon="8.1503236"><ele>199.0</ele><time>2026-04-19T09:01:19.964Z</time></trkpt><trkpt lat="45.3885059" lon="8.1501782"><ele>199.0</ele><time>2026-04-19T09:01:20.963Z</time></trkpt><trkpt lat="45.3885324" lon="8.1500355"><ele>199.0</ele><time>2026-04-19T09:01:21.963Z</time></trkpt><trkpt lat="45.3885588" lon="8.1498946"><ele>199.0</ele><time>2026-04-19T09:01:22.962Z</time></trkpt><trkpt lat="45.3885859" lon="8.1497554"><ele>199.0</ele><time>2026-04-19T09:01:23.962Z</time></trkpt><trkpt lat="45.3886145" lon="8.1496151"><ele>199.0</ele><time>2026-04-19T09:01:24.962Z</time></trkpt><trkpt lat="45.3886473" lon="8.1494734"><ele>199.5</ele><time>2026-04-19T09:01:25.963Z</time></trkpt><trkpt lat="45.3886836" lon="8.1493303"><ele>200.0</ele><time>2026-04-19T09:01:26.963Z</time></trkpt><trkpt lat="45.3887085" lon="8.1491765"><ele>200.5</ele><time>2026-04-19T09:01:27.963Z</time></trkpt><trkpt lat="45.3887356" lon="8.1490118"><ele>201.0</ele><time>2026-04-19T09:01:28.963Z</time></trkpt><trkpt lat="45.3887641" lon="8.148851"><ele>201.20000000000002</ele><time>2026-04-19T09:01:29.962Z</time></trkpt><trkpt lat="45.3887907" lon="8.1486937"><ele>201.4</ele><time>2026-04-19T09:01:30.963Z</time></trkpt><trkpt lat="45.3888178" lon="8.1485576"><ele>201.6</ele><time>2026-04-19T09:01:31.962Z</time></trkpt><trkpt lat="45.3888404" lon="8.1484331"><ele>201.8</ele><time>2026-04-19T09:01:32.963Z</time></trkpt><trkpt lat="45.3888604" lon="8.1483209"><ele>202.0</ele><time>2026-04-19T09:01:33.964Z</time></trkpt><trkpt lat="45.3888713" lon="8.148217"><ele>201.8</ele><time>2026-04-19T09:01:34.963Z</time></trkpt><trkpt lat="45.3889376" lon="8.1480618"><ele>201.6</ele><time>2026-04-19T09:01:36.963Z</time></trkpt><trkpt lat="45.3890007" lon="8.148006"><ele>201.4</ele><time>2026-04-19T09:01:37.962Z</time></trkpt><trkpt lat="45.3890767" lon="8.1479761"><ele>201.20000000000002</ele><time>2026-04-19T09:01:38.962Z</time></trkpt><trkpt lat="45.3891586" lon="8.147976"><ele>201.0</ele><time>2026-04-19T09:01:39.963Z</time></trkpt><trkpt lat="45.3892474" lon="8.1479991"><ele>201.0</ele><time>2026-04-19T09:01:40.962Z</time></trkpt><trkpt lat="45.3893428" lon="8.1480372"><ele>201.0</ele><time>2026-04-19T09:01:41.962Z</time></trkpt><trkpt lat="45.3894333" lon="8.1480768"><ele>201.0</ele><time>2026-04-19T09:01:42.962Z</time></trkpt><trkpt lat="45.389524" lon="8.1481156"><ele>201.0</ele><time>2026-04-19T09:01:43.962Z</time></trkpt><trkpt lat="45.3896228" lon="8.1481582"><ele>201.0</ele><time>2026-04-19T09:01:44.963Z</time></trkpt><trkpt lat="45.3897282" lon="8.1482036"><ele>201.0</ele><time>2026-04-19T09:01:45.962Z</time></trkpt><trkpt lat="45.3898312" lon="8.1482489"><ele>201.0</ele><time>2026-04-19T09:01:46.962Z</time></trkpt><trkpt lat="45.3899356" lon="8.1482924"><ele>201.0</ele><time>2026-04-19T09:01:47.962Z</time></trkpt><trkpt lat="45.3900438" lon="8.1483337"><ele>201.0</ele><time>2026-04-19T09:01:48.963Z</time></trkpt><trkpt lat="45.390151" lon="8.148374"><ele>201.0</ele><time>2026-04-19T09:01:49.963Z</time></trkpt><trkpt lat="45.3902489" lon="8.1484149"><ele>201.0</ele><time>2026-04-19T09:01:50.964Z</time></trkpt><trkpt lat="45.3903478" lon="8.1484529"><ele>201.0</ele><time>2026-04-19T09:01:51.962Z</time></trkpt><trkpt lat="45.3904433" lon="8.1484883"><ele>201.0</ele><time>2026-04-19T09:01:52.962Z</time></trkpt><trkpt lat="45.3905401" lon="8.1485269"><ele>201.0</ele><time>2026-04-19T09:01:53.963Z</time></trkpt><trkpt lat="45.3906321" lon="8.1485626"><ele>201.0</ele><time>2026-04-19T09:01:54.963Z</time></trkpt><trkpt lat="45.3907125" lon="8.1485899"><ele>201.20000000000002</ele><time>2026-04-19T09:01:55.963Z</time></trkpt><trkpt lat="45.3907931" lon="8.1486142"><ele>201.4</ele><time>2026-04-19T09:01:56.962Z</time></trkpt><trkpt lat="45.3908793" lon="8.1486515"><ele>201.6</ele><time>2026-04-19T09:01:57.963Z</time></trkpt><trkpt lat="45.3909625" lon="8.1487174"><ele>201.8</ele><time>2026-04-19T09:01:58.962Z</time></trkpt><trkpt lat="45.3910414" lon="8.1488095"><ele>202.0</ele><time>2026-04-19T09:01:59.962Z</time></trkpt><trkpt lat="45.391122" lon="8.1489047"><ele>202.0</ele><time>2026-04-19T09:02:00.962Z</time></trkpt><trkpt lat="45.3912063" lon="8.1489971"><ele>202.0</ele><time>2026-04-19T09:02:01.962Z</time></trkpt><trkpt lat="45.391292" lon="8.1490934"><ele>202.0</ele><time>2026-04-19T09:02:02.963Z</time></trkpt><trkpt lat="45.3913825" lon="8.1491939"><ele>202.0</ele><time>2026-04-19T09:02:03.962Z</time></trkpt><trkpt lat="45.3914781" lon="8.149297"><ele>201.75</ele><time>2026-04-19T09:02:04.963Z</time></trkpt><trkpt lat="45.391577" lon="8.1494046"><ele>201.5</ele><time>2026-04-19T09:02:05.962Z</time></trkpt><trkpt lat="45.3916783" lon="8.1495148"><ele>201.25</ele><time>2026-04-19T09:02:06.963Z</time></trkpt><trkpt lat="45.391782" lon="8.1496282"><ele>201.0</ele><time>2026-04-19T09:02:07.962Z</time></trkpt><trkpt lat="45.3918882" lon="8.1497442"><ele>201.0</ele><time>2026-04-19T09:02:08.963Z</time></trkpt><trkpt lat="45.3919954" lon="8.1498611"><ele>201.0</ele><time>2026-04-19T09:02:09.963Z</time></trkpt><trkpt lat="45.392105" lon="8.1499808"><ele>201.0</ele><time>2026-04-19T09:02:10.964Z</time></trkpt><trkpt lat="45.3922227" lon="8.1501088"><ele>201.0</ele><time>2026-04-19T09:02:11.962Z</time></trkpt><trkpt lat="45.3923558" lon="8.1502527"><ele>200.66666666666669</ele><time>2026-04-19T09:02:12.963Z</time></trkpt><trkpt lat="45.3925032" lon="8.1504117"><ele>200.33333333333334</ele><time>2026-04-19T09:02:13.963Z</time></trkpt><trkpt lat="45.3926449" lon="8.150563"><ele>200.0</ele><time>2026-04-19T09:02:14.963Z</time></trkpt><trkpt lat="45.3927696" lon="8.1506936"><ele>200.0</ele><time>2026-04-19T09:02:15.962Z</time></trkpt><trkpt lat="45.3928837" lon="8.1508168"><ele>200.0</ele><time>2026-04-19T09:02:16.962Z</time></trkpt><trkpt lat="45.3929904" lon="8.1509319"><ele>200.0</ele><time>2026-04-19T09:02:17.962Z</time></trkpt><trkpt lat="45.3930938" lon="8.1510436"><ele>200.0</ele><time>2026-04-19T09:02:18.963Z</time></trkpt><trkpt lat="45.3931932" lon="8.1511503"><ele>200.0</ele><time>2026-04-19T09:02:19.964Z</time></trkpt><trkpt lat="45.3932904" lon="8.1512546"><ele>200.0</ele><time>2026-04-19T09:02:20.963Z</time></trkpt><trkpt lat="45.3933857" lon="8.1513588"><ele>200.0</ele><time>2026-04-19T09:02:21.962Z</time></trkpt><trkpt lat="45.3934843" lon="8.1514669"><ele>200.0</ele><time>2026-04-19T09:02:22.963Z</time></trkpt><trkpt lat="45.3935874" lon="8.1515748"><ele>199.75</ele><time>2026-04-19T09:02:23.962Z</time></trkpt><trkpt lat="45.3936915" lon="8.1516877"><ele>199.5</ele><time>2026-04-19T09:02:24.962Z</time></trkpt><trkpt lat="45.3937969" lon="8.1518027"><ele>199.25</ele><time>2026-04-19T09:02:25.964Z</time></trkpt><trkpt lat="45.3938996" lon="8.1519163"><ele>199.0</ele><time>2026-04-19T09:02:26.963Z</time></trkpt><trkpt lat="45.3940009" lon="8.1520351"><ele>199.0</ele><time>2026-04-19T09:02:27.963Z</time></trkpt><trkpt lat="45.3941072" lon="8.1521574"><ele>199.0</ele><time>2026-04-19T09:02:28.962Z</time></trkpt><trkpt lat="45.3942139" lon="8.1522772"><ele>199.0</ele><time>2026-04-19T09:02:29.962Z</time></trkpt><trkpt lat="45.3943206" lon="8.1523985"><ele>199.0</ele><time>2026-04-19T09:02:30.963Z</time></trkpt><trkpt lat="45.394426" lon="8.1525202"><ele>199.0</ele><time>2026-04-19T09:02:31.963Z</time></trkpt><trkpt lat="45.3945323" lon="8.152639"><ele>199.0</ele><time>2026-04-19T09:02:32.962Z</time></trkpt><trkpt lat="45.3946382" lon="8.1527563"><ele>199.0</ele><time>2026-04-19T09:02:33.963Z</time></trkpt><trkpt lat="45.3947472" lon="8.1528734"><ele>199.0</ele><time>2026-04-19T09:02:34.963Z</time></trkpt><trkpt lat="45.3948557" lon="8.1529904"><ele>199.0</ele><time>2026-04-19T09:02:35.964Z</time></trkpt><trkpt lat="45.3949611" lon="8.1531044"><ele>199.0</ele><time>2026-04-19T09:02:36.962Z</time></trkpt><trkpt lat="45.3950668" lon="8.1532205"><ele>199.0</ele><time>2026-04-19T09:02:37.963Z</time></trkpt><trkpt lat="45.3951691" lon="8.1533351"><ele>199.0</ele><time>2026-04-19T09:02:38.962Z</time></trkpt><trkpt lat="45.3952644" lon="8.1534393"><ele>199.0</ele><time>2026-04-19T09:02:39.962Z</time></trkpt><trkpt lat="45.3953592" lon="8.1535458"><ele>199.0</ele><time>2026-04-19T09:02:40.962Z</time></trkpt><trkpt lat="45.3954578" lon="8.1536551"><ele>199.0</ele><time>2026-04-19T09:02:41.962Z</time></trkpt><trkpt lat="45.3955555" lon="8.1537619"><ele>199.0</ele><time>2026-04-19T09:02:42.962Z</time></trkpt><trkpt lat="45.3956577" lon="8.1538704"><ele>199.0</ele><time>2026-04-19T09:02:43.962Z</time></trkpt><trkpt lat="45.3957568" lon="8.1539843"><ele>199.0</ele><time>2026-04-19T09:02:44.962Z</time></trkpt><trkpt lat="45.3958612" lon="8.1540989"><ele>199.0</ele><time>2026-04-19T09:02:45.962Z</time></trkpt><trkpt lat="45.3959696" lon="8.1542145"><ele>199.0</ele><time>2026-04-19T09:02:46.964Z</time></trkpt><trkpt lat="45.3960724" lon="8.1543315"><ele>198.5</ele><time>2026-04-19T09:02:47.962Z</time></trkpt><trkpt lat="45.396173" lon="8.1544491"><ele>198.0</ele><time>2026-04-19T09:02:48.963Z</time></trkpt><trkpt lat="45.3962714" lon="8.1545666"><ele>197.5</ele><time>2026-04-19T09:02:49.963Z</time></trkpt><trkpt lat="45.3963566" lon="8.1546825"><ele>197.0</ele><time>2026-04-19T09:02:50.964Z</time></trkpt><trkpt lat="45.3964419" lon="8.1548128"><ele>197.75</ele><time>2026-04-19T09:02:51.962Z</time></trkpt><trkpt lat="45.3965325" lon="8.154944"><ele>198.5</ele><time>2026-04-19T09:02:52.963Z</time></trkpt><trkpt lat="45.3966343" lon="8.155073"><ele>199.25</ele><time>2026-04-19T09:02:53.962Z</time></trkpt><trkpt lat="45.3967355" lon="8.1551995"><ele>200.0</ele><time>2026-04-19T09:02:54.962Z</time></trkpt><trkpt lat="45.396838" lon="8.155327"><ele>200.0</ele><time>2026-04-19T09:02:55.963Z</time></trkpt><trkpt lat="45.3969431" lon="8.1554524"><ele>200.0</ele><time>2026-04-19T09:02:56.962Z</time></trkpt><trkpt lat="45.3970419" lon="8.1555686"><ele>200.0</ele><time>2026-04-19T09:02:57.962Z</time></trkpt><trkpt lat="45.3971386" lon="8.1556838"><ele>200.0</ele><time>2026-04-19T09:02:58.963Z</time></trkpt><trkpt lat="45.3972306" lon="8.1557953"><ele>199.8</ele><time>2026-04-19T09:02:59.963Z</time></trkpt><trkpt lat="45.3973151" lon="8.1559005"><ele>199.6</ele><time>2026-04-19T09:03:00.962Z</time></trkpt><trkpt lat="45.3973955" lon="8.1559961"><ele>199.39999999999998</ele><time>2026-04-19T09:03:01.962Z</time></trkpt><trkpt lat="45.397467" lon="8.1560823"><ele>199.2</ele><time>2026-04-19T09:03:02.963Z</time></trkpt><trkpt lat="45.3975316" lon="8.1561618"><ele>199.0</ele><time>2026-04-19T09:03:03.963Z</time></trkpt><trkpt lat="45.3975924" lon="8.1562306"><ele>198.99999999999997</ele><time>2026-04-19T09:03:04.964Z</time></trkpt><trkpt lat="45.3976459" lon="8.1562892"><ele>199.0</ele><time>2026-04-19T09:03:05.962Z</time></trkpt><trkpt lat="45.3977388" lon="8.1563567"><ele>199.0</ele><time>2026-04-19T09:03:07.962Z</time></trkpt><trkpt lat="45.3978" lon="8.1563856"><ele>199.0</ele><time>2026-04-19T09:03:09.963Z</time></trkpt><trkpt lat="45.3978815" lon="8.1563657"><ele>198.99999999999997</ele><time>2026-04-19T09:03:11.962Z</time></trkpt><trkpt lat="45.3979628" lon="8.1562269"><ele>199.0</ele><time>2026-04-19T09:03:13.963Z</time></trkpt><trkpt lat="45.3980089" lon="8.1561413"><ele>198.99999999999997</ele><time>2026-04-19T09:03:14.963Z</time></trkpt><trkpt lat="45.398063" lon="8.1560468"><ele>199.0</ele><time>2026-04-19T09:03:15.962Z</time></trkpt><trkpt lat="45.3981205" lon="8.1559404"><ele>199.0</ele><time>2026-04-19T09:03:16.964Z</time></trkpt><trkpt lat="45.3981896" lon="8.1558508"><ele>199.0</ele><time>2026-04-19T09:03:17.962Z</time></trkpt><trkpt lat="45.3982224" lon="8.1557468"><ele>198.99999999999997</ele><time>2026-04-19T09:03:18.962Z</time></trkpt><trkpt lat="45.3982835" lon="8.1556469"><ele>199.0</ele><time>2026-04-19T09:03:19.962Z</time></trkpt><trkpt lat="45.3983088" lon="8.1555453"><ele>198.99999999999997</ele><time>2026-04-19T09:03:21.962Z</time></trkpt><trkpt lat="45.3982888" lon="8.1554523"><ele>199.0</ele><time>2026-04-19T09:03:23.963Z</time></trkpt><trkpt lat="45.398239" lon="8.1553579"><ele>199.0</ele><time>2026-04-19T09:03:26.962Z</time></trkpt><trkpt lat="45.3982334" lon="8.1552298"><ele>199.0</ele><time>2026-04-19T09:03:30.963Z</time></trkpt><trkpt lat="45.3982111" lon="8.1551169"><ele>198.99999999999997</ele><time>2026-04-19T09:03:33.962Z</time></trkpt><trkpt lat="45.3981738" lon="8.1550183"><ele>199.0</ele><time>2026-04-19T09:03:36.963Z</time></trkpt><trkpt lat="45.3981192" lon="8.1549275"><ele>198.99999999999997</ele><time>2026-04-19T09:03:39.962Z</time></trkpt><trkpt lat="45.3980583" lon="8.1548613"><ele>199.0</ele><time>2026-04-19T09:03:42.962Z</time></trkpt><trkpt lat="45.3979995" lon="8.1547945"><ele>199.0</ele><time>2026-04-19T09:03:45.962Z</time></trkpt><trkpt lat="45.3979348" lon="8.154739"><ele>199.0</ele><time>2026-04-19T09:03:48.962Z</time></trkpt><trkpt lat="45.3978828" lon="8.1546838"><ele>199.0</ele><time>2026-04-19T09:03:52.963Z</time></trkpt><trkpt lat="45.397863" lon="8.1547701"><ele>198.99999999999997</ele><time>2026-04-19T09:04:25.963Z</time></trkpt><trkpt lat="45.3979303" lon="8.1548266"><ele>199.0</ele><time>2026-04-19T09:04:27.962Z</time></trkpt><trkpt lat="45.3980436" lon="8.154917"><ele>198.99999999999997</ele><time>2026-04-19T09:04:29.962Z</time></trkpt><trkpt lat="45.3980916" lon="8.1549756"><ele>199.0</ele><time>2026-04-19T09:04:30.962Z</time></trkpt><trkpt lat="45.3981409" lon="8.1550319"><ele>199.0</ele><time>2026-04-19T09:04:31.962Z</time></trkpt><trkpt lat="45.3982213" lon="8.1551135"><ele>199.0</ele><time>2026-04-19T09:04:33.963Z</time></trkpt><trkpt lat="45.39829" lon="8.1551476"><ele>198.99999999999997</ele><time>2026-04-19T09:04:36.962Z</time></trkpt><trkpt lat="45.3983596" lon="8.1550417"><ele>199.0</ele><time>2026-04-19T09:04:39.963Z</time></trkpt><trkpt lat="45.3983904" lon="8.1548831"><ele>198.79999999999998</ele><time>2026-04-19T09:04:41.963Z</time></trkpt><trkpt lat="45.3984241" lon="8.1547779"><ele>198.6</ele><time>2026-04-19T09:04:42.962Z</time></trkpt><trkpt lat="45.3984809" lon="8.1546521"><ele>198.4</ele><time>2026-04-19T09:04:43.962Z</time></trkpt><trkpt lat="45.3985516" lon="8.1545088"><ele>198.2</ele><time>2026-04-19T09:04:44.962Z</time></trkpt><trkpt lat="45.3986175" lon="8.1543897"><ele>198.0</ele><time>2026-04-19T09:04:45.963Z</time></trkpt><trkpt lat="45.3986687" lon="8.1542849"><ele>198.0</ele><time>2026-04-19T09:04:46.962Z</time></trkpt><trkpt lat="45.3987131" lon="8.1542172"><ele>198.0</ele><time>2026-04-19T09:04:47.962Z</time></trkpt><trkpt lat="45.3987928" lon="8.1541147"><ele>198.0</ele><time>2026-04-19T09:04:49.962Z</time></trkpt><trkpt lat="45.3988013" lon="8.1539951"><ele>198.0</ele><time>2026-04-19T09:04:51.962Z</time></trkpt><trkpt lat="45.3986922" lon="8.1539888"><ele>198.0</ele><time>2026-04-19T09:04:53.962Z</time></trkpt><trkpt lat="45.398613" lon="8.1540681"><ele>198.0</ele><time>2026-04-19T09:04:54.963Z</time></trkpt><trkpt lat="45.3985285" lon="8.1541899"><ele>198.0</ele><time>2026-04-19T09:04:55.962Z</time></trkpt><trkpt lat="45.3984705" lon="8.1542697"><ele>198.0</ele><time>2026-04-19T09:04:56.962Z</time></trkpt><trkpt lat="45.3983901" lon="8.1543577"><ele>198.0</ele><time>2026-04-19T09:04:58.963Z</time></trkpt><trkpt lat="45.3983523" lon="8.1542712"><ele>198.0</ele><time>2026-04-19T09:05:02.963Z</time></trkpt><trkpt lat="45.3984588" lon="8.1541435"><ele>199.2</ele><time>2026-04-19T09:05:04.962Z</time></trkpt><trkpt lat="45.3985522" lon="8.1540365"><ele>200.4</ele><time>2026-04-19T09:05:06.962Z</time></trkpt><trkpt lat="45.3986262" lon="8.1539742"><ele>201.6</ele><time>2026-04-19T09:05:07.962Z</time></trkpt><trkpt lat="45.3987089" lon="8.1539242"><ele>202.79999999999998</ele><time>2026-04-19T09:05:08.963Z</time></trkpt><trkpt lat="45.3987864" lon="8.153893"><ele>204.0</ele><time>2026-04-19T09:05:09.962Z</time></trkpt><trkpt lat="45.398858" lon="8.1538682"><ele>204.16666666666666</ele><time>2026-04-19T09:05:10.962Z</time></trkpt><trkpt lat="45.3989226" lon="8.1538281"><ele>204.33333333333331</ele><time>2026-04-19T09:05:11.962Z</time></trkpt><trkpt lat="45.3990069" lon="8.1536887"><ele>204.5</ele><time>2026-04-19T09:05:13.962Z</time></trkpt><trkpt lat="45.3990367" lon="8.1535579"><ele>204.66666666666666</ele><time>2026-04-19T09:05:14.962Z</time></trkpt><trkpt lat="45.3990454" lon="8.1534478"><ele>204.83333333333331</ele><time>2026-04-19T09:05:15.962Z</time></trkpt><trkpt lat="45.3990521" lon="8.1533428"><ele>205.0</ele><time>2026-04-19T09:05:16.963Z</time></trkpt><trkpt lat="45.3990614" lon="8.1532366"><ele>205.49999999999997</ele><time>2026-04-19T09:05:17.963Z</time></trkpt><trkpt lat="45.3990626" lon="8.1531051"><ele>206.0</ele><time>2026-04-19T09:05:18.962Z</time></trkpt><trkpt lat="45.3990627" lon="8.1529736"><ele>206.5</ele><time>2026-04-19T09:05:19.963Z</time></trkpt><trkpt lat="45.3990478" lon="8.1528678"><ele>207.0</ele><time>2026-04-19T09:05:20.963Z</time></trkpt><trkpt lat="45.398985" lon="8.1528579"><ele>207.49999999999997</ele><time>2026-04-19T09:05:22.963Z</time></trkpt><trkpt lat="45.3989546" lon="8.1529448"><ele>208.0</ele><time>2026-04-19T09:05:23.962Z</time></trkpt><trkpt lat="45.3989361" lon="8.1530431"><ele>207.49999999999997</ele><time>2026-04-19T09:05:24.963Z</time></trkpt><trkpt lat="45.3989489" lon="8.1532133"><ele>207.0</ele><time>2026-04-19T09:05:25.962Z</time></trkpt><trkpt lat="45.3989383" lon="8.1533164"><ele>206.5</ele><time>2026-04-19T09:05:26.962Z</time></trkpt><trkpt lat="45.3989282" lon="8.1534388"><ele>206.0</ele><time>2026-04-19T09:05:27.963Z</time></trkpt><trkpt lat="45.3989125" lon="8.1535627"><ele>205.49999999999997</ele><time>2026-04-19T09:05:28.963Z</time></trkpt><trkpt lat="45.3988957" lon="8.1536699"><ele>205.0</ele><time>2026-04-19T09:05:29.962Z</time></trkpt><trkpt lat="45.3988126" lon="8.1537641"><ele>204.83333333333331</ele><time>2026-04-19T09:05:31.962Z</time></trkpt><trkpt lat="45.3987497" lon="8.1537286"><ele>204.66666666666666</ele><time>2026-04-19T09:05:32.962Z</time></trkpt><trkpt lat="45.3987105" lon="8.1536524"><ele>204.5</ele><time>2026-04-19T09:05:33.962Z</time></trkpt><trkpt lat="45.3987041" lon="8.1535379"><ele>204.33333333333331</ele><time>2026-04-19T09:05:34.963Z</time></trkpt><trkpt lat="45.3987271" lon="8.153416"><ele>204.16666666666666</ele><time>2026-04-19T09:05:35.962Z</time></trkpt><trkpt lat="45.3987596" lon="8.1533073"><ele>204.0</ele><time>2026-04-19T09:05:36.962Z</time></trkpt><trkpt lat="45.3987959" lon="8.153176"><ele>204.66666666666666</ele><time>2026-04-19T09:05:37.964Z</time></trkpt><trkpt lat="45.3988306" lon="8.1530215"><ele>205.33333333333331</ele><time>2026-04-19T09:05:38.962Z</time></trkpt><trkpt lat="45.3988426" lon="8.1529192"><ele>206.0</ele><time>2026-04-19T09:05:39.963Z</time></trkpt><trkpt lat="45.3988355" lon="8.1527765"><ele>206.66666666666666</ele><time>2026-04-19T09:05:41.963Z</time></trkpt><trkpt lat="45.3987723" lon="8.1528229"><ele>207.33333333333331</ele><time>2026-04-19T09:05:42.963Z</time></trkpt><trkpt lat="45.3987145" lon="8.1529049"><ele>208.0</ele><time>2026-04-19T09:05:44.962Z</time></trkpt><trkpt lat="45.3987083" lon="8.1530101"><ele>207.99999999999997</ele><time>2026-04-19T09:05:45.962Z</time></trkpt><trkpt lat="45.3986987" lon="8.1531196"><ele>208.0</ele><time>2026-04-19T09:05:46.963Z</time></trkpt><trkpt lat="45.3986618" lon="8.1532644"><ele>208.0</ele><time>2026-04-19T09:05:47.962Z</time></trkpt><trkpt lat="45.398637" lon="8.1533917"><ele>208.0</ele><time>2026-04-19T09:05:48.962Z</time></trkpt><trkpt lat="45.3986128" lon="8.1535072"><ele>207.99999999999997</ele><time>2026-04-19T09:05:49.962Z</time></trkpt><trkpt lat="45.3985978" lon="8.153608"><ele>208.0</ele><time>2026-04-19T09:05:50.962Z</time></trkpt><trkpt lat="45.3985712" lon="8.1537338"><ele>207.2</ele><time>2026-04-19T09:05:51.963Z</time></trkpt><trkpt lat="45.3985456" lon="8.1538263"><ele>206.4</ele><time>2026-04-19T09:05:52.962Z</time></trkpt><trkpt lat="45.3984665" lon="8.1538971"><ele>205.6</ele><time>2026-04-19T09:05:54.963Z</time></trkpt><trkpt lat="45.3984296" lon="8.1537568"><ele>204.79999999999998</ele><time>2026-04-19T09:05:56.962Z</time></trkpt><trkpt lat="45.3983979" lon="8.1536014"><ele>204.0</ele><time>2026-04-19T09:05:57.962Z</time></trkpt><trkpt lat="45.3983537" lon="8.1534446"><ele>204.0</ele><time>2026-04-19T09:05:58.964Z</time></trkpt><trkpt lat="45.398313" lon="8.1533216"><ele>204.0</ele><time>2026-04-19T09:05:59.963Z</time></trkpt><trkpt lat="45.3982234" lon="8.1531896"><ele>204.0</ele><time>2026-04-19T09:06:01.962Z</time></trkpt><trkpt lat="45.398168" lon="8.1531466"><ele>204.0</ele><time>2026-04-19T09:06:02.962Z</time></trkpt><trkpt lat="45.3980726" lon="8.1532054"><ele>204.0</ele><time>2026-04-19T09:06:04.962Z</time></trkpt><trkpt lat="45.3981054" lon="8.1533075"><ele>204.0</ele><time>2026-04-19T09:06:08.963Z</time></trkpt><trkpt lat="45.3981752" lon="8.153345"><ele>204.0</ele><time>2026-04-19T09:06:10.963Z</time></trkpt><trkpt lat="45.3982256" lon="8.1534032"><ele>204.0</ele><time>2026-04-19T09:06:11.962Z</time></trkpt><trkpt lat="45.3982905" lon="8.153479"><ele>204.0</ele><time>2026-04-19T09:06:12.963Z</time></trkpt><trkpt lat="45.3983345" lon="8.1536538"><ele>204.0</ele><time>2026-04-19T09:06:13.962Z</time></trkpt><trkpt lat="45.3983658" lon="8.1537731"><ele>204.0</ele><time>2026-04-19T09:06:14.963Z</time></trkpt><trkpt lat="45.3983879" lon="8.1538622"><ele>204.0</ele><time>2026-04-19T09:06:15.964Z</time></trkpt><trkpt lat="45.3983423" lon="8.1539609"><ele>204.0</ele><time>2026-04-19T09:06:17.963Z</time></trkpt><trkpt lat="45.3982591" lon="8.1538455"><ele>204.0</ele><time>2026-04-19T09:06:19.962Z</time></trkpt><trkpt lat="45.3982089" lon="8.1537127"><ele>204.0</ele><time>2026-04-19T09:06:20.962Z</time></trkpt><trkpt lat="45.3981264" lon="8.1536199"><ele>204.0</ele><time>2026-04-19T09:06:22.962Z</time></trkpt><trkpt lat="45.3981354" lon="8.1537287"><ele>204.0</ele><time>2026-04-19T09:06:23.962Z</time></trkpt><trkpt lat="45.3981983" lon="8.1538858"><ele>204.0</ele><time>2026-04-19T09:06:25.963Z</time></trkpt><trkpt lat="45.398251" lon="8.1540214"><ele>204.0</ele><time>2026-04-19T09:06:26.962Z</time></trkpt><trkpt lat="45.398278" lon="8.1541065"><ele>204.0</ele><time>2026-04-19T09:06:27.963Z</time></trkpt><trkpt lat="45.398251" lon="8.1542347"><ele>204.0</ele><time>2026-04-19T09:06:29.962Z</time></trkpt><trkpt lat="45.3981526" lon="8.1541889"><ele>204.0</ele><time>2026-04-19T09:06:31.962Z</time></trkpt><trkpt lat="45.3981236" lon="8.1540206"><ele>204.0</ele><time>2026-04-19T09:06:32.961Z</time></trkpt><trkpt lat="45.3981009" lon="8.153931"><ele>204.0</ele><time>2026-04-19T09:06:33.961Z</time></trkpt><trkpt lat="45.3980726" lon="8.1538066"><ele>204.0</ele><time>2026-04-19T09:06:34.963Z</time></trkpt><trkpt lat="45.3980117" lon="8.1536377"><ele>204.0</ele><time>2026-04-19T09:06:35.962Z</time></trkpt><trkpt lat="45.3979604" lon="8.1534884"><ele>204.6</ele><time>2026-04-19T09:06:36.961Z</time></trkpt><trkpt lat="45.3978886" lon="8.153412"><ele>205.2</ele><time>2026-04-19T09:06:37.961Z</time></trkpt><trkpt lat="45.3978247" lon="8.1534452"><ele>205.79999999999998</ele><time>2026-04-19T09:06:39.961Z</time></trkpt><trkpt lat="45.3978065" lon="8.1535587"><ele>206.39999999999998</ele><time>2026-04-19T09:06:41.962Z</time></trkpt><trkpt lat="45.397859" lon="8.1536716"><ele>207.0</ele><time>2026-04-19T09:06:43.962Z</time></trkpt><trkpt lat="45.3979292" lon="8.1538127"><ele>207.0</ele><time>2026-04-19T09:06:44.961Z</time></trkpt><trkpt lat="45.397986" lon="8.1539384"><ele>207.0</ele><time>2026-04-19T09:06:45.961Z</time></trkpt><trkpt lat="45.3980422" lon="8.1540585"><ele>207.0</ele><time>2026-04-19T09:06:46.962Z</time></trkpt><trkpt lat="45.3980853" lon="8.1541715"><ele>207.0</ele><time>2026-04-19T09:06:47.962Z</time></trkpt><trkpt lat="45.3981251" lon="8.1542612"><ele>207.0</ele><time>2026-04-19T09:06:48.961Z</time></trkpt><trkpt lat="45.3981303" lon="8.1543828"><ele>207.0</ele><time>2026-04-19T09:06:50.962Z</time></trkpt><trkpt lat="45.3980347" lon="8.1544051"><ele>207.0</ele><time>2026-04-19T09:06:52.961Z</time></trkpt><trkpt lat="45.3980066" lon="8.1542652"><ele>207.0</ele><time>2026-04-19T09:06:53.961Z</time></trkpt><trkpt lat="45.3979738" lon="8.1541635"><ele>207.0</ele><time>2026-04-19T09:06:54.962Z</time></trkpt><trkpt lat="45.3979297" lon="8.1540408"><ele>207.0</ele><time>2026-04-19T09:06:55.961Z</time></trkpt><trkpt lat="45.3979003" lon="8.153948"><ele>207.0</ele><time>2026-04-19T09:06:56.961Z</time></trkpt><trkpt lat="45.3978443" lon="8.1538382"><ele>207.0</ele><time>2026-04-19T09:06:57.961Z</time></trkpt><trkpt lat="45.3977589" lon="8.1537325"><ele>207.0</ele><time>2026-04-19T09:06:59.961Z</time></trkpt><trkpt lat="45.3976564" lon="8.1537452"><ele>207.0</ele><time>2026-04-19T09:07:01.961Z</time></trkpt><trkpt lat="45.3975964" lon="8.1538029"><ele>207.0</ele><time>2026-04-19T09:07:02.961Z</time></trkpt><trkpt lat="45.3975413" lon="8.1538794"><ele>207.0</ele><time>2026-04-19T09:07:03.961Z</time></trkpt><trkpt lat="45.3974458" lon="8.1540159"><ele>206.6</ele><time>2026-04-19T09:07:05.961Z</time></trkpt><trkpt lat="45.3974115" lon="8.1540979"><ele>206.2</ele><time>2026-04-19T09:07:06.962Z</time></trkpt><trkpt lat="45.3973863" lon="8.1542439"><ele>205.8</ele><time>2026-04-19T09:07:08.961Z</time></trkpt><trkpt lat="45.3974718" lon="8.1542768"><ele>205.4</ele><time>2026-04-19T09:07:11.961Z</time></trkpt><trkpt lat="45.3975714" lon="8.154274"><ele>205.0</ele><time>2026-04-19T09:07:13.961Z</time></trkpt><trkpt lat="45.397678" lon="8.1543349"><ele>204.99999999999997</ele><time>2026-04-19T09:07:15.961Z</time></trkpt><trkpt lat="45.3977431" lon="8.154378"><ele>205.0</ele><time>2026-04-19T09:07:16.961Z</time></trkpt><trkpt lat="45.3978369" lon="8.1544749"><ele>205.0</ele><time>2026-04-19T09:07:17.962Z</time></trkpt><trkpt lat="45.3979046" lon="8.1545262"><ele>205.0</ele><time>2026-04-19T09:07:18.962Z</time></trkpt><trkpt lat="45.3979596" lon="8.1545841"><ele>204.99999999999997</ele><time>2026-04-19T09:07:19.961Z</time></trkpt><trkpt lat="45.3980288" lon="8.1546313"><ele>205.0</ele><time>2026-04-19T09:07:20.961Z</time></trkpt><trkpt lat="45.3981178" lon="8.1546926"><ele>203.99999999999997</ele><time>2026-04-19T09:07:21.962Z</time></trkpt><trkpt lat="45.398191" lon="8.1547536"><ele>203.0</ele><time>2026-04-19T09:07:22.962Z</time></trkpt><trkpt lat="45.398253" lon="8.1548085"><ele>202.0</ele><time>2026-04-19T09:07:23.961Z</time></trkpt><trkpt lat="45.3983347" lon="8.1548915"><ele>201.0</ele><time>2026-04-19T09:07:25.962Z</time></trkpt><trkpt lat="45.3983638" lon="8.1549849"><ele>199.99999999999997</ele><time>2026-04-19T09:07:27.962Z</time></trkpt><trkpt lat="45.3983362" lon="8.1550805"><ele>199.0</ele><time>2026-04-19T09:07:29.962Z</time></trkpt><trkpt lat="45.3982801" lon="8.1551586"><ele>199.0</ele><time>2026-04-19T09:07:31.962Z</time></trkpt><trkpt lat="45.39819" lon="8.1550832"><ele>199.0</ele><time>2026-04-19T09:07:33.961Z</time></trkpt><trkpt lat="45.3981064" lon="8.1549632"><ele>199.0</ele><time>2026-04-19T09:07:35.961Z</time></trkpt><trkpt lat="45.3980273" lon="8.1548581"><ele>199.0</ele><time>2026-04-19T09:07:37.961Z</time></trkpt><trkpt lat="45.3979682" lon="8.1547704"><ele>199.0</ele><time>2026-04-19T09:07:39.962Z</time></trkpt><trkpt lat="45.3979004" lon="8.154789"><ele>198.99999999999997</ele><time>2026-04-19T09:09:25.961Z</time></trkpt><trkpt lat="45.3979772" lon="8.1548817"><ele>199.0</ele><time>2026-04-19T09:09:27.961Z</time></trkpt><trkpt lat="45.3980394" lon="8.1549395"><ele>199.0</ele><time>2026-04-19T09:09:28.963Z</time></trkpt><trkpt lat="45.3980968" lon="8.1549937"><ele>199.0</ele><time>2026-04-19T09:09:29.963Z</time></trkpt><trkpt lat="45.3981504" lon="8.1550422"><ele>198.99999999999997</ele><time>2026-04-19T09:09:30.961Z</time></trkpt><trkpt lat="45.3982462" lon="8.1551273"><ele>199.0</ele><time>2026-04-19T09:09:32.961Z</time></trkpt><trkpt lat="45.3983359" lon="8.1551189"><ele>199.0</ele><time>2026-04-19T09:09:34.961Z</time></trkpt><trkpt lat="45.3983737" lon="8.1550306"><ele>199.0</ele><time>2026-04-19T09:09:36.962Z</time></trkpt><trkpt lat="45.3983878" lon="8.1549215"><ele>199.0</ele><time>2026-04-19T09:09:38.961Z</time></trkpt><trkpt lat="45.3984547" lon="8.1547425"><ele>199.0</ele><time>2026-04-19T09:09:40.961Z</time></trkpt><trkpt lat="45.3985215" lon="8.1545999"><ele>199.0</ele><time>2026-04-19T09:09:41.962Z</time></trkpt><trkpt lat="45.3986018" lon="8.1544372"><ele>198.79999999999998</ele><time>2026-04-19T09:09:42.961Z</time></trkpt><trkpt lat="45.3986756" lon="8.1543096"><ele>198.6</ele><time>2026-04-19T09:09:43.96Z</time></trkpt><trkpt lat="45.3987467" lon="8.1541926"><ele>198.4</ele><time>2026-04-19T09:09:44.961Z</time></trkpt><trkpt lat="45.3988124" lon="8.154094"><ele>198.2</ele><time>2026-04-19T09:09:45.96Z</time></trkpt><trkpt lat="45.3987795" lon="8.153966"><ele>198.0</ele><time>2026-04-19T09:09:47.96Z</time></trkpt><trkpt lat="45.3986323" lon="8.1540518"><ele>198.0</ele><time>2026-04-19T09:09:49.961Z</time></trkpt><trkpt lat="45.3985338" lon="8.154182"><ele>198.0</ele><time>2026-04-19T09:09:50.96Z</time></trkpt><trkpt lat="45.3984544" lon="8.1543007"><ele>198.0</ele><time>2026-04-19T09:09:51.961Z</time></trkpt><trkpt lat="45.3983988" lon="8.1543764"><ele>198.0</ele><time>2026-04-19T09:09:52.96Z</time></trkpt><trkpt lat="45.3983346" lon="8.1544308"><ele>198.0</ele><time>2026-04-19T09:09:53.962Z</time></trkpt><trkpt lat="45.3982593" lon="8.154368"><ele>198.0</ele><time>2026-04-19T09:09:55.96Z</time></trkpt><trkpt lat="45.398412" lon="8.1541773"><ele>198.0</ele><time>2026-04-19T09:09:57.961Z</time></trkpt><trkpt lat="45.3984918" lon="8.1541011"><ele>198.0</ele><time>2026-04-19T09:09:58.961Z</time></trkpt><trkpt lat="45.39856" lon="8.1540238"><ele>198.0</ele><time>2026-04-19T09:09:59.96Z</time></trkpt><trkpt lat="45.3986664" lon="8.1539508"><ele>199.2</ele><time>2026-04-19T09:10:00.96Z</time></trkpt><trkpt lat="45.3987776" lon="8.1538948"><ele>200.4</ele><time>2026-04-19T09:10:01.96Z</time></trkpt><trkpt lat="45.3988798" lon="8.1538607"><ele>201.6</ele><time>2026-04-19T09:10:02.96Z</time></trkpt><trkpt lat="45.3989488" lon="8.153801"><ele>202.79999999999998</ele><time>2026-04-19T09:10:03.961Z</time></trkpt><trkpt lat="45.3990088" lon="8.1537038"><ele>204.0</ele><time>2026-04-19T09:10:04.961Z</time></trkpt><trkpt lat="45.3990546" lon="8.1535635"><ele>204.2</ele><time>2026-04-19T09:10:05.96Z</time></trkpt><trkpt lat="45.3990734" lon="8.1533988"><ele>204.39999999999998</ele><time>2026-04-19T09:10:06.96Z</time></trkpt><trkpt lat="45.3990837" lon="8.1532368"><ele>204.6</ele><time>2026-04-19T09:10:07.961Z</time></trkpt><trkpt lat="45.3990791" lon="8.1531153"><ele>204.8</ele><time>2026-04-19T09:10:08.96Z</time></trkpt><trkpt lat="45.3990753" lon="8.1529767"><ele>205.0</ele><time>2026-04-19T09:10:09.961Z</time></trkpt><trkpt lat="45.3990602" lon="8.1528802"><ele>205.0</ele><time>2026-04-19T09:10:10.96Z</time></trkpt><trkpt lat="45.3989858" lon="8.1528679"><ele>205.0</ele><time>2026-04-19T09:10:12.96Z</time></trkpt><trkpt lat="45.3989451" lon="8.1530385"><ele>205.0</ele><time>2026-04-19T09:10:14.96Z</time></trkpt><trkpt lat="45.398947" lon="8.1531763"><ele>205.0</ele><time>2026-04-19T09:10:15.96Z</time></trkpt><trkpt lat="45.398943" lon="8.1532983"><ele>205.0</ele><time>2026-04-19T09:10:16.96Z</time></trkpt><trkpt lat="45.3989334" lon="8.1534349"><ele>205.0</ele><time>2026-04-19T09:10:17.961Z</time></trkpt><trkpt lat="45.3989142" lon="8.1535713"><ele>205.0</ele><time>2026-04-19T09:10:18.96Z</time></trkpt><trkpt lat="45.3988967" lon="8.1536827"><ele>205.0</ele><time>2026-04-19T09:10:19.96Z</time></trkpt><trkpt lat="45.3987912" lon="8.1537437"><ele>205.0</ele><time>2026-04-19T09:10:21.96Z</time></trkpt><trkpt lat="45.3987104" lon="8.1535782"><ele>205.0</ele><time>2026-04-19T09:10:23.961Z</time></trkpt><trkpt lat="45.3987374" lon="8.1534456"><ele>204.8</ele><time>2026-04-19T09:10:24.961Z</time></trkpt><trkpt lat="45.3987575" lon="8.1533172"><ele>204.6</ele><time>2026-04-19T09:10:25.96Z</time></trkpt><trkpt lat="45.3987845" lon="8.1531839"><ele>204.39999999999998</ele><time>2026-04-19T09:10:26.961Z</time></trkpt><trkpt lat="45.3988347" lon="8.1530074"><ele>204.2</ele><time>2026-04-19T09:10:27.961Z</time></trkpt><trkpt lat="45.3988533" lon="8.1529021"><ele>204.0</ele><time>2026-04-19T09:10:28.961Z</time></trkpt><trkpt lat="45.3988728" lon="8.1528027"><ele>204.0</ele><time>2026-04-19T09:10:29.96Z</time></trkpt><trkpt lat="45.3988147" lon="8.1527017"><ele>204.0</ele><time>2026-04-19T09:10:31.961Z</time></trkpt><trkpt lat="45.3987613" lon="8.15284"><ele>204.0</ele><time>2026-04-19T09:10:32.96Z</time></trkpt><trkpt lat="45.398706" lon="8.1529857"><ele>204.0</ele><time>2026-04-19T09:10:34.961Z</time></trkpt><trkpt lat="45.3987004" lon="8.1531136"><ele>204.0</ele><time>2026-04-19T09:10:35.962Z</time></trkpt><trkpt lat="45.3986488" lon="8.1533125"><ele>204.0</ele><time>2026-04-19T09:10:36.961Z</time></trkpt><trkpt lat="45.3986244" lon="8.1534442"><ele>204.0</ele><time>2026-04-19T09:10:37.96Z</time></trkpt><trkpt lat="45.3986028" lon="8.1535662"><ele>204.0</ele><time>2026-04-19T09:10:38.96Z</time></trkpt><trkpt lat="45.3985866" lon="8.1536693"><ele>204.0</ele><time>2026-04-19T09:10:39.961Z</time></trkpt><trkpt lat="45.3985638" lon="8.1537879"><ele>204.0</ele><time>2026-04-19T09:10:40.96Z</time></trkpt><trkpt lat="45.3985319" lon="8.1538666"><ele>204.0</ele><time>2026-04-19T09:10:41.961Z</time></trkpt><trkpt lat="45.3984585" lon="8.1538406"><ele>204.0</ele><time>2026-04-19T09:10:43.961Z</time></trkpt><trkpt lat="45.3984126" lon="8.1536722"><ele>204.0</ele><time>2026-04-19T09:10:45.96Z</time></trkpt><trkpt lat="45.3983752" lon="8.1535335"><ele>204.0</ele><time>2026-04-19T09:10:46.961Z</time></trkpt><trkpt lat="45.3983265" lon="8.1533674"><ele>204.0</ele><time>2026-04-19T09:10:47.961Z</time></trkpt><trkpt lat="45.3982896" lon="8.1532438"><ele>204.0</ele><time>2026-04-19T09:10:48.962Z</time></trkpt><trkpt lat="45.3982416" lon="8.1531479"><ele>204.0</ele><time>2026-04-19T09:10:49.96Z</time></trkpt><trkpt lat="45.3981773" lon="8.1531843"><ele>204.0</ele><time>2026-04-19T09:10:50.96Z</time></trkpt><trkpt lat="45.3980826" lon="8.1532204"><ele>204.0</ele><time>2026-04-19T09:10:52.961Z</time></trkpt><trkpt lat="45.3980926" lon="8.153312"><ele>204.0</ele><time>2026-04-19T09:10:55.96Z</time></trkpt><trkpt lat="45.3981821" lon="8.1533244"><ele>204.0</ele><time>2026-04-19T09:10:57.96Z</time></trkpt><trkpt lat="45.3982403" lon="8.1533854"><ele>204.0</ele><time>2026-04-19T09:10:58.96Z</time></trkpt><trkpt lat="45.3982938" lon="8.1535061"><ele>204.0</ele><time>2026-04-19T09:10:59.961Z</time></trkpt><trkpt lat="45.3983456" lon="8.1536582"><ele>204.0</ele><time>2026-04-19T09:11:00.96Z</time></trkpt><trkpt lat="45.3983764" lon="8.1537797"><ele>204.0</ele><time>2026-04-19T09:11:01.96Z</time></trkpt><trkpt lat="45.3984017" lon="8.1538818"><ele>204.0</ele><time>2026-04-19T09:11:02.96Z</time></trkpt><trkpt lat="45.3983733" lon="8.1539873"><ele>204.0</ele><time>2026-04-19T09:11:04.96Z</time></trkpt><trkpt lat="45.3983058" lon="8.1539646"><ele>204.0</ele><time>2026-04-19T09:11:06.961Z</time></trkpt><trkpt lat="45.3982825" lon="8.1538709"><ele>204.0</ele><time>2026-04-19T09:11:07.96Z</time></trkpt><trkpt lat="45.3982213" lon="8.1537644"><ele>204.0</ele><time>2026-04-19T09:11:08.96Z</time></trkpt><trkpt lat="45.3981571" lon="8.1536728"><ele>204.0</ele><time>2026-04-19T09:11:09.96Z</time></trkpt><trkpt lat="45.3981576" lon="8.1538217"><ele>204.0</ele><time>2026-04-19T09:11:11.96Z</time></trkpt><trkpt lat="45.3981868" lon="8.1539116"><ele>204.0</ele><time>2026-04-19T09:11:12.961Z</time></trkpt><trkpt lat="45.3982567" lon="8.154054"><ele>204.0</ele><time>2026-04-19T09:11:13.961Z</time></trkpt><trkpt lat="45.3982877" lon="8.1541941"><ele>204.0</ele><time>2026-04-19T09:11:15.961Z</time></trkpt><trkpt lat="45.3982087" lon="8.1542363"><ele>204.0</ele><time>2026-04-19T09:11:17.961Z</time></trkpt><trkpt lat="45.3981493" lon="8.1540795"><ele>204.0</ele><time>2026-04-19T09:11:19.96Z</time></trkpt><trkpt lat="45.3981069" lon="8.1539863"><ele>204.0</ele><time>2026-04-19T09:11:20.96Z</time></trkpt><trkpt lat="45.3980773" lon="8.1538731"><ele>204.0</ele><time>2026-04-19T09:11:21.961Z</time></trkpt><trkpt lat="45.3980289" lon="8.1537262"><ele>204.0</ele><time>2026-04-19T09:11:22.96Z</time></trkpt><trkpt lat="45.3979839" lon="8.1535912"><ele>204.0</ele><time>2026-04-19T09:11:23.961Z</time></trkpt><trkpt lat="45.3979306" lon="8.1534874"><ele>204.0</ele><time>2026-04-19T09:11:24.96Z</time></trkpt><trkpt lat="45.3978615" lon="8.1534127"><ele>204.6</ele><time>2026-04-19T09:11:25.961Z</time></trkpt><trkpt lat="45.3978061" lon="8.1534561"><ele>205.2</ele><time>2026-04-19T09:11:27.961Z</time></trkpt><trkpt lat="45.3978288" lon="8.1536071"><ele>205.79999999999998</ele><time>2026-04-19T09:11:29.961Z</time></trkpt><trkpt lat="45.3978883" lon="8.1537832"><ele>206.39999999999998</ele><time>2026-04-19T09:11:31.96Z</time></trkpt><trkpt lat="45.3979759" lon="8.1539375"><ele>207.0</ele><time>2026-04-19T09:11:32.961Z</time></trkpt><trkpt lat="45.3980366" lon="8.1540669"><ele>206.6</ele><time>2026-04-19T09:11:33.96Z</time></trkpt><trkpt lat="45.3980846" lon="8.1541831"><ele>206.2</ele><time>2026-04-19T09:11:34.962Z</time></trkpt><trkpt lat="45.3981216" lon="8.1542765"><ele>205.8</ele><time>2026-04-19T09:11:35.96Z</time></trkpt><trkpt lat="45.3981429" lon="8.1544264"><ele>205.4</ele><time>2026-04-19T09:11:37.962Z</time></trkpt><trkpt lat="45.3980195" lon="8.15437"><ele>205.0</ele><time>2026-04-19T09:11:39.961Z</time></trkpt><trkpt lat="45.3979813" lon="8.1542728"><ele>205.0</ele><time>2026-04-19T09:11:40.961Z</time></trkpt><trkpt lat="45.3979452" lon="8.1540931"><ele>205.0</ele><time>2026-04-19T09:11:41.96Z</time></trkpt><trkpt lat="45.3979072" lon="8.154002"><ele>205.0</ele><time>2026-04-19T09:11:42.96Z</time></trkpt><trkpt lat="45.3978354" lon="8.1538604"><ele>205.0</ele><time>2026-04-19T09:11:43.96Z</time></trkpt><trkpt lat="45.3977759" lon="8.1537602"><ele>205.0</ele><time>2026-04-19T09:11:44.962Z</time></trkpt><trkpt lat="45.3977312" lon="8.1536786"><ele>205.0</ele><time>2026-04-19T09:11:45.96Z</time></trkpt><trkpt lat="45.3975857" lon="8.1538044"><ele>205.0</ele><time>2026-04-19T09:11:47.962Z</time></trkpt><trkpt lat="45.3975295" lon="8.153874"><ele>205.0</ele><time>2026-04-19T09:11:48.96Z</time></trkpt><trkpt lat="45.3974868" lon="8.1539474"><ele>205.0</ele><time>2026-04-19T09:11:49.962Z</time></trkpt><trkpt lat="45.3974312" lon="8.1540452"><ele>205.0</ele><time>2026-04-19T09:11:50.96Z</time></trkpt><trkpt lat="45.3973991" lon="8.1541445"><ele>205.0</ele><time>2026-04-19T09:11:51.96Z</time></trkpt><trkpt lat="45.3973795" lon="8.1543083"><ele>205.0</ele><time>2026-04-19T09:11:53.96Z</time></trkpt><trkpt lat="45.3974513" lon="8.1542957"><ele>205.0</ele><time>2026-04-19T09:11:54.961Z</time></trkpt><trkpt lat="45.3975433" lon="8.1542735"><ele>205.0</ele><time>2026-04-19T09:11:56.961Z</time></trkpt><trkpt lat="45.3976381" lon="8.154312"><ele>205.0</ele><time>2026-04-19T09:11:58.961Z</time></trkpt><trkpt lat="45.3977223" lon="8.154402"><ele>204.99999999999997</ele><time>2026-04-19T09:11:59.96Z</time></trkpt><trkpt lat="45.3978387" lon="8.1544954"><ele>205.0</ele><time>2026-04-19T09:12:00.961Z</time></trkpt><trkpt lat="45.3979184" lon="8.1545727"><ele>205.0</ele><time>2026-04-19T09:12:01.961Z</time></trkpt><trkpt lat="45.3979802" lon="8.1546095"><ele>205.0</ele><time>2026-04-19T09:12:02.96Z</time></trkpt><trkpt lat="45.3980447" lon="8.1546601"><ele>204.99999999999997</ele><time>2026-04-19T09:12:03.96Z</time></trkpt><trkpt lat="45.398117" lon="8.1546949"><ele>205.0</ele><time>2026-04-19T09:12:04.961Z</time></trkpt><trkpt lat="45.3981869" lon="8.1547222"><ele>203.6</ele><time>2026-04-19T09:12:05.961Z</time></trkpt><trkpt lat="45.3982514" lon="8.154734"><ele>202.2</ele><time>2026-04-19T09:12:06.96Z</time></trkpt><trkpt lat="45.398336" lon="8.154713"><ele>200.8</ele><time>2026-04-19T09:12:07.962Z</time></trkpt><trkpt lat="45.398426" lon="8.1546477"><ele>199.4</ele><time>2026-04-19T09:12:08.96Z</time></trkpt><trkpt lat="45.3985222" lon="8.1545372"><ele>198.0</ele><time>2026-04-19T09:12:09.96Z</time></trkpt><trkpt lat="45.3986112" lon="8.154402"><ele>198.0</ele><time>2026-04-19T09:12:10.961Z</time></trkpt><trkpt lat="45.3986937" lon="8.154269"><ele>198.0</ele><time>2026-04-19T09:12:11.96Z</time></trkpt><trkpt lat="45.3987675" lon="8.1541629"><ele>198.0</ele><time>2026-04-19T09:12:12.961Z</time></trkpt><trkpt lat="45.3988103" lon="8.1540941"><ele>198.0</ele><time>2026-04-19T09:12:13.96Z</time></trkpt><trkpt lat="45.398766" lon="8.1539713"><ele>198.0</ele><time>2026-04-19T09:12:15.962Z</time></trkpt><trkpt lat="45.3986982" lon="8.1540055"><ele>198.0</ele><time>2026-04-19T09:12:16.961Z</time></trkpt><trkpt lat="45.3986058" lon="8.1540873"><ele>198.0</ele><time>2026-04-19T09:12:17.961Z</time></trkpt><trkpt lat="45.3985217" lon="8.1541985"><ele>198.0</ele><time>2026-04-19T09:12:18.96Z</time></trkpt><trkpt lat="45.3984451" lon="8.1543202"><ele>198.0</ele><time>2026-04-19T09:12:19.96Z</time></trkpt><trkpt lat="45.3983849" lon="8.1543931"><ele>198.0</ele><time>2026-04-19T09:12:20.961Z</time></trkpt><trkpt lat="45.3982972" lon="8.1543744"><ele>198.0</ele><time>2026-04-19T09:12:22.96Z</time></trkpt><trkpt lat="45.3982697" lon="8.1542719"><ele>198.0</ele><time>2026-04-19T09:12:24.96Z</time></trkpt><trkpt lat="45.3983367" lon="8.1542046"><ele>198.0</ele><time>2026-04-19T09:12:25.961Z</time></trkpt><trkpt lat="45.3984696" lon="8.1540875"><ele>198.0</ele><time>2026-04-19T09:12:26.96Z</time></trkpt><trkpt lat="45.3985537" lon="8.1540043"><ele>198.0</ele><time>2026-04-19T09:12:27.96Z</time></trkpt><trkpt lat="45.3986691" lon="8.1539342"><ele>199.2</ele><time>2026-04-19T09:12:28.961Z</time></trkpt><trkpt lat="45.3987909" lon="8.1538904"><ele>200.4</ele><time>2026-04-19T09:12:29.96Z</time></trkpt><trkpt lat="45.3988863" lon="8.1538474"><ele>201.6</ele><time>2026-04-19T09:12:30.961Z</time></trkpt><trkpt lat="45.3989533" lon="8.1537691"><ele>202.79999999999998</ele><time>2026-04-19T09:12:31.961Z</time></trkpt><trkpt lat="45.3990115" lon="8.1536557"><ele>204.0</ele><time>2026-04-19T09:12:32.961Z</time></trkpt><trkpt lat="45.3990445" lon="8.1535007"><ele>204.2</ele><time>2026-04-19T09:12:33.96Z</time></trkpt><trkpt lat="45.3990583" lon="8.1533519"><ele>204.39999999999998</ele><time>2026-04-19T09:12:34.96Z</time></trkpt><trkpt lat="45.3990601" lon="8.1532318"><ele>204.6</ele><time>2026-04-19T09:12:35.962Z</time></trkpt><trkpt lat="45.3990691" lon="8.1530746"><ele>204.8</ele><time>2026-04-19T09:12:36.96Z</time></trkpt><trkpt lat="45.3990732" lon="8.1529463"><ele>205.0</ele><time>2026-04-19T09:12:37.961Z</time></trkpt><trkpt lat="45.3990572" lon="8.1528501"><ele>205.0</ele><time>2026-04-19T09:12:38.961Z</time></trkpt><trkpt lat="45.398977" lon="8.1528367"><ele>205.0</ele><time>2026-04-19T09:12:40.96Z</time></trkpt><trkpt lat="45.3989145" lon="8.1529995"><ele>205.0</ele><time>2026-04-19T09:12:42.96Z</time></trkpt><trkpt lat="45.3989582" lon="8.1532304"><ele>205.0</ele><time>2026-04-19T09:12:43.961Z</time></trkpt><trkpt lat="45.3989503" lon="8.1533479"><ele>204.99999999999997</ele><time>2026-04-19T09:12:44.961Z</time></trkpt><trkpt lat="45.3989396" lon="8.1534822"><ele>205.0</ele><time>2026-04-19T09:12:45.962Z</time></trkpt><trkpt lat="45.3989141" lon="8.1536216"><ele>205.0</ele><time>2026-04-19T09:12:46.96Z</time></trkpt><trkpt lat="45.3988934" lon="8.153711"><ele>205.0</ele><time>2026-04-19T09:12:47.961Z</time></trkpt><trkpt lat="45.3988471" lon="8.1537867"><ele>204.99999999999997</ele><time>2026-04-19T09:12:48.96Z</time></trkpt><trkpt lat="45.398784" lon="8.1537954"><ele>205.0</ele><time>2026-04-19T09:12:49.96Z</time></trkpt><trkpt lat="45.3987261" lon="8.1536706"><ele>204.8</ele><time>2026-04-19T09:12:50.961Z</time></trkpt><trkpt lat="45.3987088" lon="8.1535675"><ele>204.6</ele><time>2026-04-19T09:12:51.961Z</time></trkpt><trkpt lat="45.3987222" lon="8.1534433"><ele>204.39999999999998</ele><time>2026-04-19T09:12:52.961Z</time></trkpt><trkpt lat="45.398753" lon="8.1533252"><ele>204.2</ele><time>2026-04-19T09:12:53.96Z</time></trkpt><trkpt lat="45.3987914" lon="8.1531868"><ele>204.0</ele><time>2026-04-19T09:12:54.96Z</time></trkpt><trkpt lat="45.3988379" lon="8.1530184"><ele>205.0</ele><time>2026-04-19T09:12:55.96Z</time></trkpt><trkpt lat="45.3988818" lon="8.1528768"><ele>206.0</ele><time>2026-04-19T09:12:56.96Z</time></trkpt><trkpt lat="45.3988438" lon="8.1527452"><ele>207.0</ele><time>2026-04-19T09:12:58.96Z</time></trkpt><trkpt lat="45.3987221" lon="8.1528751"><ele>208.0</ele><time>2026-04-19T09:13:00.961Z</time></trkpt><trkpt lat="45.3987237" lon="8.1530017"><ele>208.0</ele><time>2026-04-19T09:13:01.96Z</time></trkpt><trkpt lat="45.3987179" lon="8.1531508"><ele>208.0</ele><time>2026-04-19T09:13:02.961Z</time></trkpt><trkpt lat="45.3986806" lon="8.153295"><ele>208.0</ele><time>2026-04-19T09:13:03.961Z</time></trkpt><trkpt lat="45.398649" lon="8.1534069"><ele>208.0</ele><time>2026-04-19T09:13:04.96Z</time></trkpt><trkpt lat="45.3986299" lon="8.1535059"><ele>208.0</ele><time>2026-04-19T09:13:05.961Z</time></trkpt><trkpt lat="45.3986072" lon="8.1536249"><ele>207.0</ele><time>2026-04-19T09:13:06.96Z</time></trkpt><trkpt lat="45.3985848" lon="8.1537429"><ele>206.0</ele><time>2026-04-19T09:13:07.961Z</time></trkpt><trkpt lat="45.3985591" lon="8.1538307"><ele>205.0</ele><time>2026-04-19T09:13:08.96Z</time></trkpt><trkpt lat="45.3984681" lon="8.1539318"><ele>204.0</ele><time>2026-04-19T09:13:10.96Z</time></trkpt><trkpt lat="45.3983985" lon="8.1536802"><ele>204.0</ele><time>2026-04-19T09:13:12.96Z</time></trkpt><trkpt lat="45.3983517" lon="8.1534984"><ele>204.0</ele><time>2026-04-19T09:13:13.961Z</time></trkpt><trkpt lat="45.398319" lon="8.1533448"><ele>204.0</ele><time>2026-04-19T09:13:14.96Z</time></trkpt><trkpt lat="45.398287" lon="8.1532085"><ele>204.0</ele><time>2026-04-19T09:13:15.961Z</time></trkpt><trkpt lat="45.3982397" lon="8.1531351"><ele>204.0</ele><time>2026-04-19T09:13:16.96Z</time></trkpt><trkpt lat="45.3981194" lon="8.1531879"><ele>204.0</ele><time>2026-04-19T09:13:18.961Z</time></trkpt><trkpt lat="45.3980488" lon="8.1532549"><ele>204.0</ele><time>2026-04-19T09:13:20.962Z</time></trkpt><trkpt lat="45.398128" lon="8.1533351"><ele>204.0</ele><time>2026-04-19T09:13:23.961Z</time></trkpt><trkpt lat="45.3982456" lon="8.1534007"><ele>204.0</ele><time>2026-04-19T09:13:25.961Z</time></trkpt><trkpt lat="45.3983068" lon="8.153493"><ele>204.0</ele><time>2026-04-19T09:13:26.962Z</time></trkpt><trkpt lat="45.3983423" lon="8.1536861"><ele>204.0</ele><time>2026-04-19T09:13:27.96Z</time></trkpt><trkpt lat="45.3983759" lon="8.1537991"><ele>204.0</ele><time>2026-04-19T09:13:28.961Z</time></trkpt><trkpt lat="45.3983971" lon="8.153889"><ele>204.0</ele><time>2026-04-19T09:13:29.961Z</time></trkpt><trkpt lat="45.398364" lon="8.1540245"><ele>204.0</ele><time>2026-04-19T09:13:31.96Z</time></trkpt><trkpt lat="45.3983149" lon="8.1539422"><ele>204.0</ele><time>2026-04-19T09:13:32.961Z</time></trkpt><trkpt lat="45.3982259" lon="8.1537576"><ele>204.0</ele><time>2026-04-19T09:13:34.96Z</time></trkpt><trkpt lat="45.3981764" lon="8.1536759"><ele>204.0</ele><time>2026-04-19T09:13:35.96Z</time></trkpt><trkpt lat="45.3981263" lon="8.1536162"><ele>204.0</ele><time>2026-04-19T09:13:36.961Z</time></trkpt><trkpt lat="45.3981566" lon="8.1537905"><ele>204.0</ele><time>2026-04-19T09:13:37.96Z</time></trkpt><trkpt lat="45.3982425" lon="8.1539906"><ele>204.0</ele><time>2026-04-19T09:13:39.961Z</time></trkpt><trkpt lat="45.3982802" lon="8.1540938"><ele>204.0</ele><time>2026-04-19T09:13:40.961Z</time></trkpt><trkpt lat="45.3982888" lon="8.1542158"><ele>204.0</ele><time>2026-04-19T09:13:42.96Z</time></trkpt><trkpt lat="45.3981865" lon="8.154219"><ele>204.0</ele><time>2026-04-19T09:13:44.961Z</time></trkpt><trkpt lat="45.3981363" lon="8.1541584"><ele>204.0</ele><time>2026-04-19T09:13:45.961Z</time></trkpt><trkpt lat="45.3981165" lon="8.1540298"><ele>204.0</ele><time>2026-04-19T09:13:46.961Z</time></trkpt><trkpt lat="45.3980736" lon="8.153871"><ele>204.0</ele><time>2026-04-19T09:13:47.961Z</time></trkpt><trkpt lat="45.3980394" lon="8.1537243"><ele>204.0</ele><time>2026-04-19T09:13:48.96Z</time></trkpt><trkpt lat="45.3979839" lon="8.1535686"><ele>204.0</ele><time>2026-04-19T09:13:49.961Z</time></trkpt><trkpt lat="45.3979175" lon="8.1534696"><ele>204.0</ele><time>2026-04-19T09:13:50.961Z</time></trkpt><trkpt lat="45.3978735" lon="8.1533552"><ele>204.0</ele><time>2026-04-19T09:13:51.96Z</time></trkpt><trkpt lat="45.3978036" lon="8.1534387"><ele>204.6</ele><time>2026-04-19T09:13:53.96Z</time></trkpt><trkpt lat="45.3978026" lon="8.1535323"><ele>205.2</ele><time>2026-04-19T09:13:54.96Z</time></trkpt><trkpt lat="45.3978489" lon="8.1537019"><ele>205.79999999999998</ele><time>2026-04-19T09:13:56.96Z</time></trkpt><trkpt lat="45.3979133" lon="8.1538266"><ele>206.39999999999998</ele><time>2026-04-19T09:13:57.961Z</time></trkpt><trkpt lat="45.3979765" lon="8.1539794"><ele>207.0</ele><time>2026-04-19T09:13:58.961Z</time></trkpt><trkpt lat="45.398042" lon="8.1541014"><ele>206.6</ele><time>2026-04-19T09:13:59.96Z</time></trkpt><trkpt lat="45.3980921" lon="8.1542179"><ele>206.2</ele><time>2026-04-19T09:14:00.96Z</time></trkpt><trkpt lat="45.3981203" lon="8.1543078"><ele>205.8</ele><time>2026-04-19T09:14:01.96Z</time></trkpt><trkpt lat="45.3980832" lon="8.1544116"><ele>205.4</ele><time>2026-04-19T09:14:03.961Z</time></trkpt><trkpt lat="45.3980023" lon="8.154322"><ele>205.0</ele><time>2026-04-19T09:14:06.961Z</time></trkpt><trkpt lat="45.3979421" lon="8.1541526"><ele>205.4</ele><time>2026-04-19T09:14:07.96Z</time></trkpt><trkpt lat="45.3978825" lon="8.1539766"><ele>205.8</ele><time>2026-04-19T09:14:08.962Z</time></trkpt><trkpt lat="45.3978072" lon="8.1538072"><ele>206.2</ele><time>2026-04-19T09:14:09.96Z</time></trkpt><trkpt lat="45.3977487" lon="8.1537013"><ele>206.6</ele><time>2026-04-19T09:14:10.961Z</time></trkpt><trkpt lat="45.3976847" lon="8.1536435"><ele>207.0</ele><time>2026-04-19T09:14:11.96Z</time></trkpt><trkpt lat="45.3975974" lon="8.1538009"><ele>207.0</ele><time>2026-04-19T09:14:12.96Z</time></trkpt><trkpt lat="45.3975265" lon="8.153878"><ele>207.0</ele><time>2026-04-19T09:14:13.961Z</time></trkpt><trkpt lat="45.3974734" lon="8.1539517"><ele>207.0</ele><time>2026-04-19T09:14:14.96Z</time></trkpt><trkpt lat="45.3974271" lon="8.1540589"><ele>207.0</ele><time>2026-04-19T09:14:15.96Z</time></trkpt><trkpt lat="45.3973946" lon="8.1541634"><ele>207.0</ele><time>2026-04-19T09:14:16.96Z</time></trkpt><trkpt lat="45.3973778" lon="8.1543278"><ele>207.0</ele><time>2026-04-19T09:14:18.96Z</time></trkpt><trkpt lat="45.3974555" lon="8.1542706"><ele>206.6</ele><time>2026-04-19T09:14:19.96Z</time></trkpt><trkpt lat="45.397568" lon="8.1542851"><ele>206.2</ele><time>2026-04-19T09:14:21.961Z</time></trkpt><trkpt lat="45.3976373" lon="8.1542933"><ele>205.8</ele><time>2026-04-19T09:14:22.961Z</time></trkpt><trkpt lat="45.3977276" lon="8.1543928"><ele>205.4</ele><time>2026-04-19T09:14:23.96Z</time></trkpt><trkpt lat="45.3978394" lon="8.1544882"><ele>205.0</ele><time>2026-04-19T09:14:24.96Z</time></trkpt><trkpt lat="45.3979319" lon="8.1545806"><ele>205.0</ele><time>2026-04-19T09:14:25.96Z</time></trkpt><trkpt lat="45.3979885" lon="8.1546283"><ele>205.0</ele><time>2026-04-19T09:14:26.961Z</time></trkpt><trkpt lat="45.398114" lon="8.1547123"><ele>205.0</ele><time>2026-04-19T09:14:28.96Z</time></trkpt><trkpt lat="45.3981741" lon="8.1547572"><ele>205.0</ele><time>2026-04-19T09:14:29.96Z</time></trkpt><trkpt lat="45.3982798" lon="8.1548312"><ele>205.0</ele><time>2026-04-19T09:14:31.962Z</time></trkpt><trkpt lat="45.3983583" lon="8.1548644"><ele>203.8</ele><time>2026-04-19T09:14:33.961Z</time></trkpt><trkpt lat="45.3983816" lon="8.1549653"><ele>202.6</ele><time>2026-04-19T09:15:00.96Z</time></trkpt><trkpt lat="45.3983437" lon="8.1550811"><ele>201.39999999999998</ele><time>2026-04-19T09:15:02.96Z</time></trkpt><trkpt lat="45.3982871" lon="8.1551577"><ele>200.2</ele><time>2026-04-19T09:15:04.962Z</time></trkpt><trkpt lat="45.3982052" lon="8.1550681"><ele>199.0</ele><time>2026-04-19T09:15:06.962Z</time></trkpt><trkpt lat="45.3981064" lon="8.154959"><ele>198.99999999999997</ele><time>2026-04-19T09:15:08.961Z</time></trkpt><trkpt lat="45.3980535" lon="8.1549006"><ele>199.0</ele><time>2026-04-19T09:15:09.961Z</time></trkpt><trkpt lat="45.3979601" lon="8.1548025"><ele>199.0</ele><time>2026-04-19T09:15:11.961Z</time></trkpt><trkpt lat="45.3978927" lon="8.1547052"><ele>199.0</ele><time>2026-04-19T09:15:13.961Z</time></trkpt><trkpt lat="45.3978399" lon="8.1546369"><ele>198.99999999999997</ele><time>2026-04-19T09:15:15.961Z</time></trkpt><trkpt lat="45.3977693" lon="8.1545711"><ele>199.0</ele><time>2026-04-19T09:25:57.959Z</time></trkpt><trkpt lat="45.3978036" lon="8.1546625"><ele>198.99999999999997</ele><time>2026-04-19T09:26:01.958Z</time></trkpt><trkpt lat="45.3978718" lon="8.1547475"><ele>199.0</ele><time>2026-04-19T09:26:04.959Z</time></trkpt><trkpt lat="45.3979138" lon="8.1548466"><ele>199.0</ele><time>2026-04-19T09:26:07.958Z</time></trkpt><trkpt lat="45.3979587" lon="8.1549287"><ele>199.0</ele><time>2026-04-19T09:26:10.958Z</time></trkpt><trkpt lat="45.398014" lon="8.1549929"><ele>198.99999999999997</ele><time>2026-04-19T09:26:38.958Z</time></trkpt><trkpt lat="45.3981162" lon="8.1550554"><ele>199.0</ele><time>2026-04-19T09:26:40.958Z</time></trkpt><trkpt lat="45.3981661" lon="8.155112"><ele>198.99999999999997</ele><time>2026-04-19T09:26:41.958Z</time></trkpt><trkpt lat="45.3982286" lon="8.15523"><ele>199.0</ele><time>2026-04-19T09:26:43.959Z</time></trkpt><trkpt lat="45.3982386" lon="8.1553355"><ele>199.0</ele><time>2026-04-19T09:26:46.959Z</time></trkpt><trkpt lat="45.3981428" lon="8.1553124"><ele>199.0</ele><time>2026-04-19T09:26:49.959Z</time></trkpt><trkpt lat="45.3980802" lon="8.1552503"><ele>198.99999999999997</ele><time>2026-04-19T09:26:50.958Z</time></trkpt><trkpt lat="45.3980057" lon="8.1551745"><ele>199.0</ele><time>2026-04-19T09:26:51.958Z</time></trkpt><trkpt lat="45.3979194" lon="8.1550836"><ele>199.5</ele><time>2026-04-19T09:26:52.958Z</time></trkpt><trkpt lat="45.3978276" lon="8.1549829"><ele>200.0</ele><time>2026-04-19T09:26:53.959Z</time></trkpt><trkpt lat="45.3977296" lon="8.1548937"><ele>200.5</ele><time>2026-04-19T09:26:54.959Z</time></trkpt><trkpt lat="45.397627" lon="8.1548167"><ele>201.0</ele><time>2026-04-19T09:26:55.958Z</time></trkpt><trkpt lat="45.397514" lon="8.1547478"><ele>201.5</ele><time>2026-04-19T09:26:56.958Z</time></trkpt><trkpt lat="45.3973992" lon="8.1546692"><ele>202.0</ele><time>2026-04-19T09:26:57.959Z</time></trkpt><trkpt lat="45.3972887" lon="8.1545752"><ele>202.5</ele><time>2026-04-19T09:26:58.958Z</time></trkpt><trkpt lat="45.3971745" lon="8.1544556"><ele>203.0</ele><time>2026-04-19T09:26:59.958Z</time></trkpt><trkpt lat="45.3970585" lon="8.1543359"><ele>203.0</ele><time>2026-04-19T09:27:00.958Z</time></trkpt><trkpt lat="45.3969432" lon="8.154214"><ele>203.0</ele><time>2026-04-19T09:27:01.96Z</time></trkpt><trkpt lat="45.3968341" lon="8.1541027"><ele>203.0</ele><time>2026-04-19T09:27:02.959Z</time></trkpt><trkpt lat="45.3967266" lon="8.1539962"><ele>203.0</ele><time>2026-04-19T09:27:03.958Z</time></trkpt><trkpt lat="45.3966266" lon="8.1539002"><ele>203.5</ele><time>2026-04-19T09:27:04.958Z</time></trkpt><trkpt lat="45.396533" lon="8.1538035"><ele>204.0</ele><time>2026-04-19T09:27:05.958Z</time></trkpt><trkpt lat="45.3964381" lon="8.1537033"><ele>204.5</ele><time>2026-04-19T09:27:06.958Z</time></trkpt><trkpt lat="45.3963369" lon="8.1535892"><ele>205.0</ele><time>2026-04-19T09:27:07.96Z</time></trkpt><trkpt lat="45.3962316" lon="8.1534778"><ele>203.8</ele><time>2026-04-19T09:27:08.958Z</time></trkpt><trkpt lat="45.3961413" lon="8.1533697"><ele>202.6</ele><time>2026-04-19T09:27:09.96Z</time></trkpt><trkpt lat="45.3960536" lon="8.1532719"><ele>201.39999999999998</ele><time>2026-04-19T09:27:10.958Z</time></trkpt><trkpt lat="45.3959683" lon="8.1531805"><ele>200.2</ele><time>2026-04-19T09:27:11.958Z</time></trkpt><trkpt lat="45.3958797" lon="8.1530888"><ele>199.0</ele><time>2026-04-19T09:27:12.958Z</time></trkpt><trkpt lat="45.3957976" lon="8.1529994"><ele>198.99999999999997</ele><time>2026-04-19T09:27:13.958Z</time></trkpt><trkpt lat="45.3957274" lon="8.1529171"><ele>199.0</ele><time>2026-04-19T09:27:14.959Z</time></trkpt><trkpt lat="45.3956655" lon="8.1528362"><ele>199.0</ele><time>2026-04-19T09:27:15.958Z</time></trkpt><trkpt lat="45.3956241" lon="8.152754"><ele>199.0</ele><time>2026-04-19T09:27:16.958Z</time></trkpt><trkpt lat="45.3956082" lon="8.1526557"><ele>198.99999999999997</ele><time>2026-04-19T09:27:17.958Z</time></trkpt><trkpt lat="45.3956114" lon="8.1525392"><ele>199.0</ele><time>2026-04-19T09:27:18.959Z</time></trkpt><trkpt lat="45.3956249" lon="8.1524042"><ele>199.0</ele><time>2026-04-19T09:27:19.959Z</time></trkpt><trkpt lat="45.3956399" lon="8.152272"><ele>199.0</ele><time>2026-04-19T09:27:20.958Z</time></trkpt><trkpt lat="45.3956556" lon="8.1521542"><ele>199.0</ele><time>2026-04-19T09:27:21.959Z</time></trkpt><trkpt lat="45.3956678" lon="8.152041"><ele>199.0</ele><time>2026-04-19T09:27:22.958Z</time></trkpt><trkpt lat="45.3956734" lon="8.1519354"><ele>199.0</ele><time>2026-04-19T09:27:23.96Z</time></trkpt><trkpt lat="45.395638" lon="8.1517758"><ele>199.0</ele><time>2026-04-19T09:27:25.959Z</time></trkpt><trkpt lat="45.395513" lon="8.1517106"><ele>199.0</ele><time>2026-04-19T09:27:27.958Z</time></trkpt><trkpt lat="45.3954236" lon="8.1517126"><ele>199.0</ele><time>2026-04-19T09:27:28.959Z</time></trkpt><trkpt lat="45.3953222" lon="8.1517249"><ele>199.0</ele><time>2026-04-19T09:27:29.958Z</time></trkpt><trkpt lat="45.3952248" lon="8.1517205"><ele>199.0</ele><time>2026-04-19T09:27:30.959Z</time></trkpt><trkpt lat="45.3951282" lon="8.1517044"><ele>199.0</ele><time>2026-04-19T09:27:31.958Z</time></trkpt><trkpt lat="45.3950291" lon="8.1516763"><ele>199.0</ele><time>2026-04-19T09:27:32.959Z</time></trkpt><trkpt lat="45.3949345" lon="8.1516296"><ele>199.0</ele><time>2026-04-19T09:27:33.959Z</time></trkpt><trkpt lat="45.3948437" lon="8.1515785"><ele>199.0</ele><time>2026-04-19T09:27:34.958Z</time></trkpt><trkpt lat="45.3947625" lon="8.1515297"><ele>199.0</ele><time>2026-04-19T09:27:35.959Z</time></trkpt><trkpt lat="45.3946916" lon="8.1514846"><ele>199.16666666666666</ele><time>2026-04-19T09:27:36.958Z</time></trkpt><trkpt lat="45.3946262" lon="8.151445"><ele>199.33333333333331</ele><time>2026-04-19T09:27:37.958Z</time></trkpt><trkpt lat="45.394568" lon="8.1514055"><ele>199.5</ele><time>2026-04-19T09:27:38.958Z</time></trkpt><trkpt lat="45.3944828" lon="8.151342"><ele>199.66666666666669</ele><time>2026-04-19T09:27:40.959Z</time></trkpt><trkpt lat="45.3944688" lon="8.1512146"><ele>199.83333333333334</ele><time>2026-04-19T09:27:42.959Z</time></trkpt><trkpt lat="45.3945466" lon="8.1510773"><ele>200.0</ele><time>2026-04-19T09:27:44.959Z</time></trkpt><trkpt lat="45.394605" lon="8.1510223"><ele>200.00000000000003</ele><time>2026-04-19T09:27:45.958Z</time></trkpt><trkpt lat="45.394672" lon="8.1509686"><ele>200.0</ele><time>2026-04-19T09:27:46.958Z</time></trkpt><trkpt lat="45.3947356" lon="8.1509044"><ele>200.0</ele><time>2026-04-19T09:27:47.958Z</time></trkpt><trkpt lat="45.3947988" lon="8.1508337"><ele>200.0</ele><time>2026-04-19T09:27:48.958Z</time></trkpt><trkpt lat="45.3948546" lon="8.1507505"><ele>200.00000000000003</ele><time>2026-04-19T09:27:49.959Z</time></trkpt><trkpt lat="45.3948994" lon="8.1506452"><ele>200.0</ele><time>2026-04-19T09:27:50.959Z</time></trkpt><trkpt lat="45.3949354" lon="8.1505331"><ele>200.00000000000003</ele><time>2026-04-19T09:27:51.958Z</time></trkpt><trkpt lat="45.3949701" lon="8.1504329"><ele>200.0</ele><time>2026-04-19T09:27:52.959Z</time></trkpt><trkpt lat="45.3949962" lon="8.1503341"><ele>200.0</ele><time>2026-04-19T09:27:53.96Z</time></trkpt><trkpt lat="45.3950197" lon="8.1502413"><ele>200.0</ele><time>2026-04-19T09:27:54.959Z</time></trkpt><trkpt lat="45.3950452" lon="8.1501526"><ele>200.00000000000003</ele><time>2026-04-19T09:27:55.958Z</time></trkpt><trkpt lat="45.3950595" lon="8.1500152"><ele>200.0</ele><time>2026-04-19T09:27:57.958Z</time></trkpt><trkpt lat="45.3949729" lon="8.1499421"><ele>200.0</ele><time>2026-04-19T09:27:59.959Z</time></trkpt><trkpt lat="45.3948969" lon="8.1499402"><ele>200.0</ele><time>2026-04-19T09:28:00.959Z</time></trkpt><trkpt lat="45.3947996" lon="8.1499343"><ele>200.0</ele><time>2026-04-19T09:28:01.958Z</time></trkpt><trkpt lat="45.3946979" lon="8.1499249"><ele>200.0</ele><time>2026-04-19T09:28:02.958Z</time></trkpt><trkpt lat="45.3946086" lon="8.1499157"><ele>200.0</ele><time>2026-04-19T09:28:03.959Z</time></trkpt><trkpt lat="45.3945205" lon="8.1499013"><ele>200.0</ele><time>2026-04-19T09:28:04.958Z</time></trkpt><trkpt lat="45.3944293" lon="8.1498811"><ele>200.0</ele><time>2026-04-19T09:28:05.959Z</time></trkpt><trkpt lat="45.3943398" lon="8.149843"><ele>200.0</ele><time>2026-04-19T09:28:06.959Z</time></trkpt><trkpt lat="45.3942474" lon="8.1497914"><ele>200.0</ele><time>2026-04-19T09:28:07.959Z</time></trkpt><trkpt lat="45.3941537" lon="8.1497336"><ele>200.0</ele><time>2026-04-19T09:28:08.958Z</time></trkpt><trkpt lat="45.3940582" lon="8.1496801"><ele>200.0</ele><time>2026-04-19T09:28:09.958Z</time></trkpt><trkpt lat="45.3939552" lon="8.1496314"><ele>200.0</ele><time>2026-04-19T09:28:10.958Z</time></trkpt><trkpt lat="45.3938436" lon="8.1495848"><ele>200.0</ele><time>2026-04-19T09:28:11.958Z</time></trkpt><trkpt lat="45.3937291" lon="8.1495392"><ele>200.0</ele><time>2026-04-19T09:28:12.959Z</time></trkpt><trkpt lat="45.3936138" lon="8.1495015"><ele>200.0</ele><time>2026-04-19T09:28:13.959Z</time></trkpt><trkpt lat="45.3935019" lon="8.1494687"><ele>200.0</ele><time>2026-04-19T09:28:14.958Z</time></trkpt><trkpt lat="45.3933868" lon="8.1494406"><ele>200.0</ele><time>2026-04-19T09:28:15.959Z</time></trkpt><trkpt lat="45.3932701" lon="8.1494169"><ele>200.0</ele><time>2026-04-19T09:28:16.958Z</time></trkpt><trkpt lat="45.3931498" lon="8.1493938"><ele>200.0</ele><time>2026-04-19T09:28:17.958Z</time></trkpt><trkpt lat="45.3930304" lon="8.1493713"><ele>200.0</ele><time>2026-04-19T09:28:18.958Z</time></trkpt><trkpt lat="45.3929105" lon="8.1493513"><ele>200.0</ele><time>2026-04-19T09:28:19.958Z</time></trkpt><trkpt lat="45.3927958" lon="8.1493341"><ele>200.0</ele><time>2026-04-19T09:28:20.958Z</time></trkpt><trkpt lat="45.3926884" lon="8.1493225"><ele>200.0</ele><time>2026-04-19T09:28:21.96Z</time></trkpt><trkpt lat="45.3925886" lon="8.1493142"><ele>200.0</ele><time>2026-04-19T09:28:22.958Z</time></trkpt><trkpt lat="45.3924861" lon="8.1493118"><ele>200.0</ele><time>2026-04-19T09:28:23.959Z</time></trkpt><trkpt lat="45.3923906" lon="8.1492879"><ele>200.0</ele><time>2026-04-19T09:28:24.959Z</time></trkpt><trkpt lat="45.3922994" lon="8.1492307"><ele>200.0</ele><time>2026-04-19T09:28:25.959Z</time></trkpt><trkpt lat="45.3922089" lon="8.149135"><ele>200.33333333333334</ele><time>2026-04-19T09:28:26.958Z</time></trkpt><trkpt lat="45.3921019" lon="8.1490172"><ele>200.66666666666669</ele><time>2026-04-19T09:28:27.958Z</time></trkpt><trkpt lat="45.3919803" lon="8.1488815"><ele>201.0</ele><time>2026-04-19T09:28:28.959Z</time></trkpt><trkpt lat="45.3918433" lon="8.1487306"><ele>201.0</ele><time>2026-04-19T09:28:29.958Z</time></trkpt><trkpt lat="45.3917024" lon="8.1485773"><ele>201.0</ele><time>2026-04-19T09:28:30.958Z</time></trkpt><trkpt lat="45.3915755" lon="8.1484376"><ele>201.0</ele><time>2026-04-19T09:28:31.959Z</time></trkpt><trkpt lat="45.3914443" lon="8.1482935"><ele>201.66666666666669</ele><time>2026-04-19T09:28:32.958Z</time></trkpt><trkpt lat="45.3913149" lon="8.1481539"><ele>202.33333333333334</ele><time>2026-04-19T09:28:33.958Z</time></trkpt><trkpt lat="45.3911875" lon="8.1480148"><ele>203.0</ele><time>2026-04-19T09:28:34.959Z</time></trkpt><trkpt lat="45.3910678" lon="8.1478845"><ele>203.0</ele><time>2026-04-19T09:28:35.959Z</time></trkpt><trkpt lat="45.3909466" lon="8.1477551"><ele>203.0</ele><time>2026-04-19T09:28:36.958Z</time></trkpt><trkpt lat="45.3908297" lon="8.1476209"><ele>203.0</ele><time>2026-04-19T09:28:37.959Z</time></trkpt><trkpt lat="45.3907109" lon="8.1474877"><ele>203.0</ele><time>2026-04-19T09:28:38.958Z</time></trkpt><trkpt lat="45.3905908" lon="8.1473546"><ele>203.0</ele><time>2026-04-19T09:28:39.958Z</time></trkpt><trkpt lat="45.3904698" lon="8.1472226"><ele>203.0</ele><time>2026-04-19T09:28:40.959Z</time></trkpt><trkpt lat="45.3903487" lon="8.1470911"><ele>203.25</ele><time>2026-04-19T09:28:41.958Z</time></trkpt><trkpt lat="45.3902345" lon="8.146966"><ele>203.5</ele><time>2026-04-19T09:28:42.958Z</time></trkpt><trkpt lat="45.3901185" lon="8.1468402"><ele>203.75</ele><time>2026-04-19T09:28:43.959Z</time></trkpt><trkpt lat="45.3900132" lon="8.1467101"><ele>204.0</ele><time>2026-04-19T09:28:44.959Z</time></trkpt><trkpt lat="45.3899207" lon="8.1465846"><ele>204.0</ele><time>2026-04-19T09:28:45.959Z</time></trkpt><trkpt lat="45.3898242" lon="8.1464633"><ele>204.0</ele><time>2026-04-19T09:28:46.959Z</time></trkpt><trkpt lat="45.3897309" lon="8.1463501"><ele>204.0</ele><time>2026-04-19T09:28:47.958Z</time></trkpt><trkpt lat="45.3896308" lon="8.1462821"><ele>204.0</ele><time>2026-04-19T09:28:48.959Z</time></trkpt><trkpt lat="45.38955" lon="8.1462116"><ele>204.0</ele><time>2026-04-19T09:28:49.958Z</time></trkpt><trkpt lat="45.3894749" lon="8.1461462"><ele>204.0</ele><time>2026-04-19T09:28:50.958Z</time></trkpt><trkpt lat="45.3894207" lon="8.1460769"><ele>204.0</ele><time>2026-04-19T09:28:51.958Z</time></trkpt><trkpt lat="45.3893844" lon="8.145998"><ele>204.0</ele><time>2026-04-19T09:28:52.958Z</time></trkpt><trkpt lat="45.3893654" lon="8.1459066"><ele>204.0</ele><time>2026-04-19T09:28:53.959Z</time></trkpt><trkpt lat="45.3893646" lon="8.1458103"><ele>204.0</ele><time>2026-04-19T09:28:54.958Z</time></trkpt><trkpt lat="45.3893895" lon="8.1456518"><ele>204.16666666666666</ele><time>2026-04-19T09:28:56.958Z</time></trkpt><trkpt lat="45.389414" lon="8.1455138"><ele>204.33333333333331</ele><time>2026-04-19T09:28:58.958Z</time></trkpt><trkpt lat="45.3894425" lon="8.145393"><ele>204.5</ele><time>2026-04-19T09:29:00.96Z</time></trkpt><trkpt lat="45.3894622" lon="8.145299"><ele>204.66666666666666</ele><time>2026-04-19T09:29:02.958Z</time></trkpt><trkpt lat="45.3894823" lon="8.1452036"><ele>204.83333333333331</ele><time>2026-04-19T09:29:05.958Z</time></trkpt><trkpt lat="45.3895014" lon="8.1451125"><ele>205.0</ele><time>2026-04-19T09:29:09.958Z</time></trkpt><trkpt lat="45.3895196" lon="8.1450141"><ele>204.8</ele><time>2026-04-19T09:29:13.959Z</time></trkpt><trkpt lat="45.3895518" lon="8.1448204"><ele>204.6</ele><time>2026-04-19T09:29:39.957Z</time></trkpt><trkpt lat="45.3895816" lon="8.1446828"><ele>204.39999999999998</ele><time>2026-04-19T09:29:41.957Z</time></trkpt><trkpt lat="45.3896186" lon="8.1445103"><ele>204.2</ele><time>2026-04-19T09:29:43.957Z</time></trkpt><trkpt lat="45.3896377" lon="8.1444123"><ele>204.0</ele><time>2026-04-19T09:29:44.958Z</time></trkpt><trkpt lat="45.3896567" lon="8.1443181"><ele>204.16666666666666</ele><time>2026-04-19T09:29:45.957Z</time></trkpt><trkpt lat="45.3896923" lon="8.144141"><ele>204.33333333333331</ele><time>2026-04-19T09:29:47.958Z</time></trkpt><trkpt lat="45.3897117" lon="8.1440486"><ele>204.5</ele><time>2026-04-19T09:29:48.958Z</time></trkpt><trkpt lat="45.3897312" lon="8.1439472"><ele>204.66666666666666</ele><time>2026-04-19T09:29:49.958Z</time></trkpt><trkpt lat="45.3897518" lon="8.1438438"><ele>204.83333333333331</ele><time>2026-04-19T09:29:50.957Z</time></trkpt><trkpt lat="45.3897711" lon="8.1437331"><ele>205.0</ele><time>2026-04-19T09:29:51.958Z</time></trkpt><trkpt lat="45.3897916" lon="8.143618"><ele>205.16666666666666</ele><time>2026-04-19T09:29:52.957Z</time></trkpt><trkpt lat="45.3898132" lon="8.1435013"><ele>205.33333333333331</ele><time>2026-04-19T09:29:53.957Z</time></trkpt><trkpt lat="45.3898342" lon="8.1433853"><ele>205.5</ele><time>2026-04-19T09:29:54.958Z</time></trkpt><trkpt lat="45.3898529" lon="8.143284"><ele>205.66666666666669</ele><time>2026-04-19T09:29:55.957Z</time></trkpt><trkpt lat="45.3898717" lon="8.1431866"><ele>205.83333333333334</ele><time>2026-04-19T09:29:56.957Z</time></trkpt><trkpt lat="45.3898897" lon="8.1430866"><ele>206.0</ele><time>2026-04-19T09:29:57.957Z</time></trkpt><trkpt lat="45.3899092" lon="8.1429916"><ele>206.20000000000002</ele><time>2026-04-19T09:29:58.958Z</time></trkpt><trkpt lat="45.3899285" lon="8.1428952"><ele>206.4</ele><time>2026-04-19T09:29:59.957Z</time></trkpt><trkpt lat="45.3899627" lon="8.1427181"><ele>206.6</ele><time>2026-04-19T09:30:01.957Z</time></trkpt><trkpt lat="45.389982" lon="8.1426217"><ele>206.8</ele><time>2026-04-19T09:30:02.958Z</time></trkpt><trkpt lat="45.389999" lon="8.1425301"><ele>207.0</ele><time>2026-04-19T09:30:03.957Z</time></trkpt><trkpt lat="45.3900325" lon="8.1423607"><ele>207.14285714285717</ele><time>2026-04-19T09:30:05.958Z</time></trkpt><trkpt lat="45.3900504" lon="8.1422723"><ele>207.28571428571428</ele><time>2026-04-19T09:30:06.957Z</time></trkpt><trkpt lat="45.3900671" lon="8.1421834"><ele>207.42857142857144</ele><time>2026-04-19T09:30:07.958Z</time></trkpt><trkpt lat="45.3900848" lon="8.1420946"><ele>207.57142857142858</ele><time>2026-04-19T09:30:08.957Z</time></trkpt><trkpt lat="45.3901031" lon="8.1420066"><ele>207.71428571428572</ele><time>2026-04-19T09:30:09.957Z</time></trkpt><trkpt lat="45.3901179" lon="8.1419182"><ele>207.85714285714286</ele><time>2026-04-19T09:30:10.958Z</time></trkpt><trkpt lat="45.3901364" lon="8.1418305"><ele>208.0</ele><time>2026-04-19T09:30:11.958Z</time></trkpt><trkpt lat="45.3901538" lon="8.1417398"><ele>208.0</ele><time>2026-04-19T09:30:12.957Z</time></trkpt><trkpt lat="45.3901714" lon="8.1416512"><ele>208.0</ele><time>2026-04-19T09:30:13.957Z</time></trkpt><trkpt lat="45.3901882" lon="8.141561"><ele>208.0</ele><time>2026-04-19T09:30:14.957Z</time></trkpt><trkpt lat="45.3902074" lon="8.1414684"><ele>208.0</ele><time>2026-04-19T09:30:15.958Z</time></trkpt><trkpt lat="45.3902288" lon="8.1413718"><ele>208.0</ele><time>2026-04-19T09:30:16.957Z</time></trkpt><trkpt lat="45.3902492" lon="8.1412678"><ele>208.0</ele><time>2026-04-19T09:30:17.958Z</time></trkpt><trkpt lat="45.3902688" lon="8.1411552"><ele>208.0</ele><time>2026-04-19T09:30:18.958Z</time></trkpt><trkpt lat="45.39029" lon="8.1410337"><ele>208.16666666666666</ele><time>2026-04-19T09:30:19.957Z</time></trkpt><trkpt lat="45.3903185" lon="8.1409032"><ele>208.33333333333331</ele><time>2026-04-19T09:30:20.958Z</time></trkpt><trkpt lat="45.390347" lon="8.1407739"><ele>208.5</ele><time>2026-04-19T09:30:21.958Z</time></trkpt><trkpt lat="45.3903704" lon="8.1406571"><ele>208.66666666666669</ele><time>2026-04-19T09:30:22.958Z</time></trkpt><trkpt lat="45.3903924" lon="8.1405459"><ele>208.83333333333334</ele><time>2026-04-19T09:30:23.959Z</time></trkpt><trkpt lat="45.3904132" lon="8.1404389"><ele>209.0</ele><time>2026-04-19T09:30:24.957Z</time></trkpt><trkpt lat="45.3904319" lon="8.1403405"><ele>209.0</ele><time>2026-04-19T09:30:25.958Z</time></trkpt><trkpt lat="45.3904516" lon="8.1402381"><ele>209.0</ele><time>2026-04-19T09:30:26.959Z</time></trkpt><trkpt lat="45.3904749" lon="8.140131"><ele>209.0</ele><time>2026-04-19T09:30:27.958Z</time></trkpt><trkpt lat="45.390496" lon="8.140026"><ele>209.0</ele><time>2026-04-19T09:30:28.959Z</time></trkpt><trkpt lat="45.3905176" lon="8.1399237"><ele>209.0</ele><time>2026-04-19T09:30:29.957Z</time></trkpt><trkpt lat="45.390539" lon="8.1398168"><ele>209.0</ele><time>2026-04-19T09:30:30.958Z</time></trkpt><trkpt lat="45.3905567" lon="8.1397263"><ele>209.0</ele><time>2026-04-19T09:30:31.957Z</time></trkpt><trkpt lat="45.3905716" lon="8.1396341"><ele>209.28571428571428</ele><time>2026-04-19T09:30:32.957Z</time></trkpt><trkpt lat="45.3905899" lon="8.1395355"><ele>209.57142857142856</ele><time>2026-04-19T09:30:33.958Z</time></trkpt><trkpt lat="45.3906084" lon="8.139439"><ele>209.85714285714286</ele><time>2026-04-19T09:30:34.957Z</time></trkpt><trkpt lat="45.3906286" lon="8.1393511"><ele>210.14285714285714</ele><time>2026-04-19T09:30:35.958Z</time></trkpt><trkpt lat="45.3906474" lon="8.1392574"><ele>210.42857142857144</ele><time>2026-04-19T09:30:36.958Z</time></trkpt><trkpt lat="45.3906674" lon="8.1391571"><ele>210.71428571428572</ele><time>2026-04-19T09:30:37.957Z</time></trkpt><trkpt lat="45.3906879" lon="8.1390539"><ele>211.0</ele><time>2026-04-19T09:30:38.957Z</time></trkpt><trkpt lat="45.3907102" lon="8.1389519"><ele>210.99999999999997</ele><time>2026-04-19T09:30:39.958Z</time></trkpt><trkpt lat="45.3907331" lon="8.1388514"><ele>211.0</ele><time>2026-04-19T09:30:40.958Z</time></trkpt><trkpt lat="45.3907553" lon="8.1387457"><ele>211.0</ele><time>2026-04-19T09:30:41.957Z</time></trkpt><trkpt lat="45.390777" lon="8.1386391"><ele>211.0</ele><time>2026-04-19T09:30:42.957Z</time></trkpt><trkpt lat="45.3907959" lon="8.1385372"><ele>210.99999999999997</ele><time>2026-04-19T09:30:43.957Z</time></trkpt><trkpt lat="45.3908178" lon="8.1384274"><ele>211.0</ele><time>2026-04-19T09:30:44.959Z</time></trkpt><trkpt lat="45.3908382" lon="8.1383142"><ele>211.4</ele><time>2026-04-19T09:30:45.957Z</time></trkpt><trkpt lat="45.3908648" lon="8.1381918"><ele>211.8</ele><time>2026-04-19T09:30:46.958Z</time></trkpt><trkpt lat="45.3908893" lon="8.1380723"><ele>212.20000000000002</ele><time>2026-04-19T09:30:47.959Z</time></trkpt><trkpt lat="45.3909133" lon="8.1379496"><ele>212.60000000000002</ele><time>2026-04-19T09:30:48.957Z</time></trkpt><trkpt lat="45.3909404" lon="8.1378211"><ele>213.0</ele><time>2026-04-19T09:30:49.958Z</time></trkpt><trkpt lat="45.3909673" lon="8.1376842"><ele>213.0</ele><time>2026-04-19T09:30:50.958Z</time></trkpt><trkpt lat="45.3909975" lon="8.137541"><ele>213.0</ele><time>2026-04-19T09:30:51.958Z</time></trkpt><trkpt lat="45.3910275" lon="8.1373856"><ele>213.0</ele><time>2026-04-19T09:30:52.958Z</time></trkpt><trkpt lat="45.3910579" lon="8.1372263"><ele>213.0</ele><time>2026-04-19T09:30:53.958Z</time></trkpt><trkpt lat="45.3910895" lon="8.1370575"><ele>213.0</ele><time>2026-04-19T09:30:54.957Z</time></trkpt><trkpt lat="45.391127" lon="8.1368721"><ele>213.0</ele><time>2026-04-19T09:30:55.958Z</time></trkpt><trkpt lat="45.3911703" lon="8.1366673"><ele>213.0</ele><time>2026-04-19T09:30:56.958Z</time></trkpt><trkpt lat="45.391212" lon="8.1364553"><ele>213.0</ele><time>2026-04-19T09:30:57.958Z</time></trkpt><trkpt lat="45.3912504" lon="8.1362574"><ele>213.5</ele><time>2026-04-19T09:30:58.957Z</time></trkpt><trkpt lat="45.3912869" lon="8.1360603"><ele>214.0</ele><time>2026-04-19T09:30:59.957Z</time></trkpt><trkpt lat="45.3913221" lon="8.1358756"><ele>214.5</ele><time>2026-04-19T09:31:00.958Z</time></trkpt><trkpt lat="45.391356" lon="8.135708"><ele>215.0</ele><time>2026-04-19T09:31:01.957Z</time></trkpt><trkpt lat="45.391386" lon="8.1355528"><ele>215.2</ele><time>2026-04-19T09:31:02.957Z</time></trkpt><trkpt lat="45.3914116" lon="8.1354147"><ele>215.4</ele><time>2026-04-19T09:31:03.958Z</time></trkpt><trkpt lat="45.3914345" lon="8.1352989"><ele>215.60000000000002</ele><time>2026-04-19T09:31:04.957Z</time></trkpt><trkpt lat="45.3914537" lon="8.1352095"><ele>215.8</ele><time>2026-04-19T09:31:05.957Z</time></trkpt><trkpt lat="45.391441" lon="8.1350313"><ele>216.0</ele><time>2026-04-19T09:31:07.957Z</time></trkpt><trkpt lat="45.3913907" lon="8.1349357"><ele>216.25</ele><time>2026-04-19T09:31:08.959Z</time></trkpt><trkpt lat="45.3913303" lon="8.1348209"><ele>216.5</ele><time>2026-04-19T09:31:09.957Z</time></trkpt><trkpt lat="45.3912612" lon="8.1346919"><ele>216.75</ele><time>2026-04-19T09:31:10.958Z</time></trkpt><trkpt lat="45.3911836" lon="8.1345617"><ele>217.0</ele><time>2026-04-19T09:31:11.958Z</time></trkpt><trkpt lat="45.3911099" lon="8.1344248"><ele>217.0</ele><time>2026-04-19T09:31:12.957Z</time></trkpt><trkpt lat="45.3910377" lon="8.1342884"><ele>217.0</ele><time>2026-04-19T09:31:13.957Z</time></trkpt><trkpt lat="45.3909628" lon="8.1341501"><ele>217.0</ele><time>2026-04-19T09:31:14.958Z</time></trkpt><trkpt lat="45.3908882" lon="8.1340152"><ele>217.0</ele><time>2026-04-19T09:31:15.957Z</time></trkpt><trkpt lat="45.3908106" lon="8.133882"><ele>217.25</ele><time>2026-04-19T09:31:16.958Z</time></trkpt><trkpt lat="45.3907339" lon="8.1337493"><ele>217.5</ele><time>2026-04-19T09:31:17.957Z</time></trkpt><trkpt lat="45.3906546" lon="8.1336141"><ele>217.75</ele><time>2026-04-19T09:31:18.958Z</time></trkpt><trkpt lat="45.3905785" lon="8.1334817"><ele>218.0</ele><time>2026-04-19T09:31:19.957Z</time></trkpt><trkpt lat="45.3905053" lon="8.1333558"><ele>217.60000000000002</ele><time>2026-04-19T09:31:20.957Z</time></trkpt><trkpt lat="45.3904342" lon="8.1332275"><ele>217.20000000000002</ele><time>2026-04-19T09:31:21.959Z</time></trkpt><trkpt lat="45.3903685" lon="8.1331077"><ele>216.8</ele><time>2026-04-19T09:31:22.958Z</time></trkpt><trkpt lat="45.3903003" lon="8.1329853"><ele>216.4</ele><time>2026-04-19T09:31:23.957Z</time></trkpt><trkpt lat="45.3902399" lon="8.1328726"><ele>216.0</ele><time>2026-04-19T09:31:24.958Z</time></trkpt><trkpt lat="45.3901771" lon="8.132755"><ele>216.0</ele><time>2026-04-19T09:31:25.957Z</time></trkpt><trkpt lat="45.3901105" lon="8.1326301"><ele>216.00000000000003</ele><time>2026-04-19T09:31:26.958Z</time></trkpt><trkpt lat="45.3900416" lon="8.1325014"><ele>216.00000000000003</ele><time>2026-04-19T09:31:27.958Z</time></trkpt><trkpt lat="45.3899769" lon="8.1323853"><ele>216.0</ele><time>2026-04-19T09:31:28.957Z</time></trkpt><trkpt lat="45.3899085" lon="8.1322632"><ele>216.0</ele><time>2026-04-19T09:31:29.958Z</time></trkpt><trkpt lat="45.3898423" lon="8.1321521"><ele>216.0</ele><time>2026-04-19T09:31:30.957Z</time></trkpt><trkpt lat="45.3897795" lon="8.132043"><ele>216.00000000000003</ele><time>2026-04-19T09:31:31.957Z</time></trkpt><trkpt lat="45.3897222" lon="8.1319329"><ele>216.00000000000003</ele><time>2026-04-19T09:31:32.958Z</time></trkpt><trkpt lat="45.3896591" lon="8.1318223"><ele>216.0</ele><time>2026-04-19T09:31:33.957Z</time></trkpt><trkpt lat="45.3896003" lon="8.1317131"><ele>216.0</ele><time>2026-04-19T09:31:34.957Z</time></trkpt><trkpt lat="45.3895434" lon="8.131607"><ele>217.20000000000002</ele><time>2026-04-19T09:31:35.957Z</time></trkpt><trkpt lat="45.3894883" lon="8.131501"><ele>218.40000000000003</ele><time>2026-04-19T09:31:36.958Z</time></trkpt><trkpt lat="45.3894286" lon="8.1313965"><ele>219.6</ele><time>2026-04-19T09:31:37.959Z</time></trkpt><trkpt lat="45.3893693" lon="8.1312885"><ele>220.8</ele><time>2026-04-19T09:31:38.957Z</time></trkpt><trkpt lat="45.389307" lon="8.1311832"><ele>222.0</ele><time>2026-04-19T09:31:39.958Z</time></trkpt><trkpt lat="45.3892448" lon="8.1310911"><ele>222.0</ele><time>2026-04-19T09:31:40.957Z</time></trkpt><trkpt lat="45.3891851" lon="8.131"><ele>222.0</ele><time>2026-04-19T09:31:41.957Z</time></trkpt><trkpt lat="45.3891283" lon="8.1309161"><ele>222.0</ele><time>2026-04-19T09:31:42.957Z</time></trkpt><trkpt lat="45.3890816" lon="8.1308337"><ele>222.0</ele><time>2026-04-19T09:31:43.957Z</time></trkpt><trkpt lat="45.3890346" lon="8.1307617"><ele>222.0</ele><time>2026-04-19T09:31:44.957Z</time></trkpt><trkpt lat="45.388967" lon="8.1306408"><ele>222.0</ele><time>2026-04-19T09:31:46.958Z</time></trkpt><trkpt lat="45.3889156" lon="8.1305619"><ele>221.66666666666666</ele><time>2026-04-19T09:31:48.957Z</time></trkpt><trkpt lat="45.3888915" lon="8.1304518"><ele>221.33333333333331</ele><time>2026-04-19T09:32:30.958Z</time></trkpt><trkpt lat="45.3888466" lon="8.1303782"><ele>221.0</ele><time>2026-04-19T09:32:33.957Z</time></trkpt><trkpt lat="45.388826" lon="8.1302288"><ele>220.66666666666666</ele><time>2026-04-19T09:32:45.957Z</time></trkpt><trkpt lat="45.3888085" lon="8.1301107"><ele>220.33333333333331</ele><time>2026-04-19T09:32:47.958Z</time></trkpt><trkpt lat="45.388728" lon="8.1300271"><ele>220.0</ele><time>2026-04-19T09:32:49.957Z</time></trkpt><trkpt lat="45.3886644" lon="8.1299969"><ele>220.0</ele><time>2026-04-19T09:32:50.957Z</time></trkpt><trkpt lat="45.3885867" lon="8.1299487"><ele>220.0</ele><time>2026-04-19T09:32:51.958Z</time></trkpt><trkpt lat="45.3884893" lon="8.1298911"><ele>220.0</ele><time>2026-04-19T09:32:52.957Z</time></trkpt><trkpt lat="45.3883719" lon="8.1298225"><ele>220.0</ele><time>2026-04-19T09:32:53.957Z</time></trkpt><trkpt lat="45.3882394" lon="8.1297433"><ele>220.66666666666666</ele><time>2026-04-19T09:32:54.958Z</time></trkpt><trkpt lat="45.3880849" lon="8.1296505"><ele>221.33333333333331</ele><time>2026-04-19T09:32:55.957Z</time></trkpt><trkpt lat="45.3879205" lon="8.1295481"><ele>222.0</ele><time>2026-04-19T09:32:56.957Z</time></trkpt><trkpt lat="45.3877629" lon="8.129454"><ele>222.0</ele><time>2026-04-19T09:32:57.958Z</time></trkpt><trkpt lat="45.3876149" lon="8.1293689"><ele>222.0</ele><time>2026-04-19T09:32:58.957Z</time></trkpt><trkpt lat="45.3874793" lon="8.1292902"><ele>222.0</ele><time>2026-04-19T09:32:59.957Z</time></trkpt><trkpt lat="45.387349" lon="8.1292114"><ele>222.0</ele><time>2026-04-19T09:33:00.957Z</time></trkpt><trkpt lat="45.3872245" lon="8.1291344"><ele>221.75</ele><time>2026-04-19T09:33:01.957Z</time></trkpt><trkpt lat="45.3871059" lon="8.1290633"><ele>221.5</ele><time>2026-04-19T09:33:02.958Z</time></trkpt><trkpt lat="45.3869911" lon="8.1289959"><ele>221.25</ele><time>2026-04-19T09:33:03.958Z</time></trkpt><trkpt lat="45.3868817" lon="8.1289306"><ele>221.0</ele><time>2026-04-19T09:33:04.958Z</time></trkpt><trkpt lat="45.3867785" lon="8.1288666"><ele>221.0</ele><time>2026-04-19T09:33:05.957Z</time></trkpt><trkpt lat="45.3866823" lon="8.1288092"><ele>221.00000000000003</ele><time>2026-04-19T09:33:06.958Z</time></trkpt><trkpt lat="45.3865835" lon="8.1287555"><ele>221.00000000000003</ele><time>2026-04-19T09:33:07.957Z</time></trkpt><trkpt lat="45.3864916" lon="8.1287024"><ele>221.0</ele><time>2026-04-19T09:33:08.957Z</time></trkpt><trkpt lat="45.3864004" lon="8.1286473"><ele>221.0</ele><time>2026-04-19T09:33:09.957Z</time></trkpt><trkpt lat="45.3863152" lon="8.1285975"><ele>220.83333333333334</ele><time>2026-04-19T09:33:10.957Z</time></trkpt><trkpt lat="45.3862346" lon="8.12855"><ele>220.66666666666669</ele><time>2026-04-19T09:33:11.957Z</time></trkpt><trkpt lat="45.3861597" lon="8.1285034"><ele>220.5</ele><time>2026-04-19T09:33:12.957Z</time></trkpt><trkpt lat="45.3860814" lon="8.1284648"><ele>220.33333333333331</ele><time>2026-04-19T09:33:13.958Z</time></trkpt><trkpt lat="45.386002" lon="8.1284265"><ele>220.16666666666666</ele><time>2026-04-19T09:33:14.958Z</time></trkpt><trkpt lat="45.3859244" lon="8.1283853"><ele>220.0</ele><time>2026-04-19T09:33:15.957Z</time></trkpt><trkpt lat="45.3858483" lon="8.1283514"><ele>219.99999999999997</ele><time>2026-04-19T09:33:16.958Z</time></trkpt><trkpt lat="45.3857702" lon="8.1283107"><ele>220.0</ele><time>2026-04-19T09:33:17.958Z</time></trkpt><trkpt lat="45.3856913" lon="8.1282687"><ele>220.0</ele><time>2026-04-19T09:33:18.958Z</time></trkpt><trkpt lat="45.3856126" lon="8.1282273"><ele>220.0</ele><time>2026-04-19T09:33:19.958Z</time></trkpt><trkpt lat="45.3855336" lon="8.1281816"><ele>219.99999999999997</ele><time>2026-04-19T09:33:20.958Z</time></trkpt><trkpt lat="45.3854556" lon="8.1281379"><ele>220.0</ele><time>2026-04-19T09:33:21.958Z</time></trkpt><trkpt lat="45.3853784" lon="8.1280945"><ele>219.99999999999997</ele><time>2026-04-19T09:33:22.957Z</time></trkpt><trkpt lat="45.3853011" lon="8.1280515"><ele>220.0</ele><time>2026-04-19T09:33:23.958Z</time></trkpt><trkpt lat="45.3852221" lon="8.1280017"><ele>220.0</ele><time>2026-04-19T09:33:24.958Z</time></trkpt><trkpt lat="45.3851439" lon="8.1279518"><ele>220.0</ele><time>2026-04-19T09:33:25.957Z</time></trkpt><trkpt lat="45.3850623" lon="8.1278995"><ele>219.99999999999997</ele><time>2026-04-19T09:33:26.957Z</time></trkpt><trkpt lat="45.3849775" lon="8.1278487"><ele>220.0</ele><time>2026-04-19T09:33:27.959Z</time></trkpt><trkpt lat="45.3848922" lon="8.1277947"><ele>220.0</ele><time>2026-04-19T09:33:28.957Z</time></trkpt><trkpt lat="45.3848063" lon="8.1277394"><ele>220.0</ele><time>2026-04-19T09:33:29.957Z</time></trkpt><trkpt lat="45.38472" lon="8.1276806"><ele>220.0</ele><time>2026-04-19T09:33:30.957Z</time></trkpt><trkpt lat="45.384634" lon="8.1276242"><ele>220.0</ele><time>2026-04-19T09:33:31.958Z</time></trkpt><trkpt lat="45.3845422" lon="8.1275706"><ele>220.0</ele><time>2026-04-19T09:33:32.958Z</time></trkpt><trkpt lat="45.3844598" lon="8.1275123"><ele>220.0</ele><time>2026-04-19T09:33:33.957Z</time></trkpt><trkpt lat="45.3843719" lon="8.1274605"><ele>220.0</ele><time>2026-04-19T09:33:34.958Z</time></trkpt><trkpt lat="45.3842836" lon="8.1274076"><ele>220.0</ele><time>2026-04-19T09:33:35.958Z</time></trkpt><trkpt lat="45.3841951" lon="8.1273561"><ele>220.0</ele><time>2026-04-19T09:33:36.958Z</time></trkpt><trkpt lat="45.38411" lon="8.1273058"><ele>220.0</ele><time>2026-04-19T09:33:37.957Z</time></trkpt><trkpt lat="45.3840229" lon="8.1272567"><ele>219.83333333333331</ele><time>2026-04-19T09:33:38.958Z</time></trkpt><trkpt lat="45.3839381" lon="8.1272075"><ele>219.66666666666666</ele><time>2026-04-19T09:33:39.957Z</time></trkpt><trkpt lat="45.3838545" lon="8.1271607"><ele>219.5</ele><time>2026-04-19T09:33:40.958Z</time></trkpt><trkpt lat="45.383774" lon="8.1271129"><ele>219.33333333333331</ele><time>2026-04-19T09:33:41.958Z</time></trkpt><trkpt lat="45.3836913" lon="8.1270641"><ele>219.16666666666666</ele><time>2026-04-19T09:33:42.959Z</time></trkpt><trkpt lat="45.3836124" lon="8.1270174"><ele>219.0</ele><time>2026-04-19T09:33:43.957Z</time></trkpt><trkpt lat="45.3835382" lon="8.1269754"><ele>219.0</ele><time>2026-04-19T09:33:44.957Z</time></trkpt><trkpt lat="45.383465" lon="8.1269359"><ele>219.0</ele><time>2026-04-19T09:33:45.957Z</time></trkpt><trkpt lat="45.3833899" lon="8.1268909"><ele>219.0</ele><time>2026-04-19T09:33:46.958Z</time></trkpt><trkpt lat="45.3833141" lon="8.1268444"><ele>219.0</ele><time>2026-04-19T09:33:47.957Z</time></trkpt><trkpt lat="45.3832345" lon="8.1268017"><ele>219.0</ele><time>2026-04-19T09:33:48.959Z</time></trkpt><trkpt lat="45.3831556" lon="8.126753"><ele>219.0</ele><time>2026-04-19T09:33:49.957Z</time></trkpt><trkpt lat="45.3830724" lon="8.1267034"><ele>219.0</ele><time>2026-04-19T09:33:50.957Z</time></trkpt><trkpt lat="45.3829866" lon="8.126653"><ele>219.0</ele><time>2026-04-19T09:33:51.957Z</time></trkpt><trkpt lat="45.3829012" lon="8.126602"><ele>219.0</ele><time>2026-04-19T09:33:52.958Z</time></trkpt><trkpt lat="45.3828153" lon="8.126553"><ele>219.0</ele><time>2026-04-19T09:33:53.958Z</time></trkpt><trkpt lat="45.3827367" lon="8.1265105"><ele>219.0</ele><time>2026-04-19T09:33:54.957Z</time></trkpt><trkpt lat="45.3826611" lon="8.1264637"><ele>219.0</ele><time>2026-04-19T09:33:55.959Z</time></trkpt><trkpt lat="45.3825864" lon="8.1264169"><ele>219.0</ele><time>2026-04-19T09:33:56.958Z</time></trkpt><trkpt lat="45.3825095" lon="8.1263719"><ele>219.0</ele><time>2026-04-19T09:33:57.958Z</time></trkpt><trkpt lat="45.3824313" lon="8.1263268"><ele>219.0</ele><time>2026-04-19T09:33:58.958Z</time></trkpt><trkpt lat="45.382354" lon="8.1262823"><ele>219.0</ele><time>2026-04-19T09:33:59.958Z</time></trkpt><trkpt lat="45.3822835" lon="8.1262421"><ele>219.0</ele><time>2026-04-19T09:34:00.957Z</time></trkpt><trkpt lat="45.38222" lon="8.1262071"><ele>219.0</ele><time>2026-04-19T09:34:01.958Z</time></trkpt><trkpt lat="45.3821604" lon="8.1261739"><ele>219.2</ele><time>2026-04-19T09:34:02.957Z</time></trkpt><trkpt lat="45.3820587" lon="8.1261178"><ele>219.39999999999998</ele><time>2026-04-19T09:34:04.958Z</time></trkpt><trkpt lat="45.3819617" lon="8.126054"><ele>219.6</ele><time>2026-04-19T09:34:06.958Z</time></trkpt><trkpt lat="45.3818672" lon="8.1259973"><ele>219.8</ele><time>2026-04-19T09:34:08.957Z</time></trkpt><trkpt lat="45.3817613" lon="8.1259317"><ele>220.0</ele><time>2026-04-19T09:34:10.957Z</time></trkpt><trkpt lat="45.3817014" lon="8.1258977"><ele>219.99999999999997</ele><time>2026-04-19T09:34:11.957Z</time></trkpt><trkpt lat="45.3816384" lon="8.1258647"><ele>220.0</ele><time>2026-04-19T09:34:12.959Z</time></trkpt><trkpt lat="45.3815785" lon="8.1258314"><ele>220.0</ele><time>2026-04-19T09:34:13.957Z</time></trkpt><trkpt lat="45.3814728" lon="8.125768"><ele>220.0</ele><time>2026-04-19T09:34:15.958Z</time></trkpt><trkpt lat="45.3813772" lon="8.125721"><ele>219.99999999999997</ele><time>2026-04-19T09:34:17.958Z</time></trkpt><trkpt lat="45.3812856" lon="8.1256626"><ele>220.0</ele><time>2026-04-19T09:34:19.957Z</time></trkpt><trkpt lat="45.3811948" lon="8.1256133"><ele>220.0</ele><time>2026-04-19T09:34:21.957Z</time></trkpt><trkpt lat="45.3811005" lon="8.125537"><ele>220.0</ele><time>2026-04-19T09:34:23.957Z</time></trkpt><trkpt lat="45.3810008" lon="8.1254186"><ele>220.0</ele><time>2026-04-19T09:34:25.958Z</time></trkpt><trkpt lat="45.380958" lon="8.1253353"><ele>220.0</ele><time>2026-04-19T09:34:26.957Z</time></trkpt><trkpt lat="45.3809109" lon="8.1252352"><ele>220.0</ele><time>2026-04-19T09:34:27.958Z</time></trkpt><trkpt lat="45.3808696" lon="8.12514"><ele>219.99999999999997</ele><time>2026-04-19T09:34:28.958Z</time></trkpt><trkpt lat="45.3808326" lon="8.1250553"><ele>220.0</ele><time>2026-04-19T09:34:29.958Z</time></trkpt><trkpt lat="45.3807942" lon="8.1249682"><ele>220.0</ele><time>2026-04-19T09:34:30.959Z</time></trkpt><trkpt lat="45.3807472" lon="8.1248769"><ele>220.0</ele><time>2026-04-19T09:34:31.958Z</time></trkpt><trkpt lat="45.3807014" lon="8.1247714"><ele>219.99999999999997</ele><time>2026-04-19T09:34:32.958Z</time></trkpt><trkpt lat="45.3806511" lon="8.1246565"><ele>220.0</ele><time>2026-04-19T09:34:33.957Z</time></trkpt><trkpt lat="45.3805984" lon="8.1245436"><ele>219.8</ele><time>2026-04-19T09:34:34.957Z</time></trkpt><trkpt lat="45.3805425" lon="8.1244196"><ele>219.6</ele><time>2026-04-19T09:34:35.958Z</time></trkpt><trkpt lat="45.3804798" lon="8.1242857"><ele>219.39999999999998</ele><time>2026-04-19T09:34:36.957Z</time></trkpt><trkpt lat="45.380418" lon="8.1241475"><ele>219.2</ele><time>2026-04-19T09:34:37.957Z</time></trkpt><trkpt lat="45.3803607" lon="8.1240216"><ele>219.0</ele><time>2026-04-19T09:34:38.957Z</time></trkpt><trkpt lat="45.3803048" lon="8.1238981"><ele>219.6</ele><time>2026-04-19T09:34:39.958Z</time></trkpt><trkpt lat="45.3802484" lon="8.1237717"><ele>220.2</ele><time>2026-04-19T09:34:40.958Z</time></trkpt><trkpt lat="45.3801923" lon="8.1236422"><ele>220.79999999999998</ele><time>2026-04-19T09:34:41.957Z</time></trkpt><trkpt lat="45.3801296" lon="8.1235079"><ele>221.39999999999998</ele><time>2026-04-19T09:34:42.958Z</time></trkpt><trkpt lat="45.380071" lon="8.1233717"><ele>222.0</ele><time>2026-04-19T09:34:43.957Z</time></trkpt><trkpt lat="45.3800157" lon="8.1232307"><ele>221.5</ele><time>2026-04-19T09:34:44.958Z</time></trkpt><trkpt lat="45.3799615" lon="8.1230892"><ele>221.0</ele><time>2026-04-19T09:34:45.958Z</time></trkpt><trkpt lat="45.3799109" lon="8.1229461"><ele>220.5</ele><time>2026-04-19T09:34:46.957Z</time></trkpt><trkpt lat="45.3798585" lon="8.1227989"><ele>220.0</ele><time>2026-04-19T09:34:47.957Z</time></trkpt><trkpt lat="45.3797982" lon="8.12266"><ele>220.0</ele><time>2026-04-19T09:34:48.957Z</time></trkpt><trkpt lat="45.3797332" lon="8.1225228"><ele>220.0</ele><time>2026-04-19T09:34:49.958Z</time></trkpt><trkpt lat="45.3796628" lon="8.1223872"><ele>220.0</ele><time>2026-04-19T09:34:50.957Z</time></trkpt><trkpt lat="45.3795874" lon="8.1222535"><ele>220.0</ele><time>2026-04-19T09:34:51.958Z</time></trkpt><trkpt lat="45.3795024" lon="8.1221291"><ele>220.5</ele><time>2026-04-19T09:34:52.957Z</time></trkpt><trkpt lat="45.3794092" lon="8.1220156"><ele>221.0</ele><time>2026-04-19T09:34:53.956Z</time></trkpt><trkpt lat="45.3793146" lon="8.121915"><ele>221.5</ele><time>2026-04-19T09:34:54.956Z</time></trkpt><trkpt lat="45.3792185" lon="8.1218248"><ele>222.0</ele><time>2026-04-19T09:34:55.957Z</time></trkpt><trkpt lat="45.3791323" lon="8.1217451"><ele>222.0</ele><time>2026-04-19T09:34:56.956Z</time></trkpt><trkpt lat="45.3790532" lon="8.1216756"><ele>222.0</ele><time>2026-04-19T09:34:57.957Z</time></trkpt><trkpt lat="45.3789832" lon="8.1216118"><ele>222.0</ele><time>2026-04-19T09:34:58.956Z</time></trkpt><trkpt lat="45.3789204" lon="8.1215632"><ele>222.0</ele><time>2026-04-19T09:34:59.956Z</time></trkpt><trkpt lat="45.3788227" lon="8.1214855"><ele>222.0</ele><time>2026-04-19T09:35:01.956Z</time></trkpt><trkpt lat="45.3787476" lon="8.1214276"><ele>222.0</ele><time>2026-04-19T09:35:03.956Z</time></trkpt><trkpt lat="45.37868" lon="8.1213683"><ele>221.8</ele><time>2026-04-19T09:35:05.956Z</time></trkpt><trkpt lat="45.3786129" lon="8.1213171"><ele>221.6</ele><time>2026-04-19T09:35:07.956Z</time></trkpt><trkpt lat="45.3785415" lon="8.121257"><ele>221.40000000000003</ele><time>2026-04-19T09:35:09.957Z</time></trkpt><trkpt lat="45.3784617" lon="8.1211894"><ele>221.20000000000002</ele><time>2026-04-19T09:35:11.956Z</time></trkpt><trkpt lat="45.378356" lon="8.1210944"><ele>221.0</ele><time>2026-04-19T09:35:13.956Z</time></trkpt><trkpt lat="45.3782955" lon="8.1210344"><ele>221.0</ele><time>2026-04-19T09:35:14.958Z</time></trkpt><trkpt lat="45.3782229" lon="8.1209675"><ele>221.00000000000003</ele><time>2026-04-19T09:35:15.957Z</time></trkpt><trkpt lat="45.3781376" lon="8.1208967"><ele>221.00000000000003</ele><time>2026-04-19T09:35:16.956Z</time></trkpt><trkpt lat="45.3780487" lon="8.120816"><ele>221.0</ele><time>2026-04-19T09:35:17.957Z</time></trkpt><trkpt lat="45.3779481" lon="8.1207228"><ele>221.0</ele><time>2026-04-19T09:35:18.958Z</time></trkpt><trkpt lat="45.3778364" lon="8.1206241"><ele>220.75</ele><time>2026-04-19T09:35:19.956Z</time></trkpt><trkpt lat="45.377734" lon="8.1205326"><ele>220.5</ele><time>2026-04-19T09:35:20.958Z</time></trkpt><trkpt lat="45.3776314" lon="8.1204383"><ele>220.25</ele><time>2026-04-19T09:35:21.957Z</time></trkpt><trkpt lat="45.377524" lon="8.1203519"><ele>220.0</ele><time>2026-04-19T09:35:22.957Z</time></trkpt><trkpt lat="45.3774134" lon="8.1202624"><ele>220.0</ele><time>2026-04-19T09:35:23.957Z</time></trkpt><trkpt lat="45.3772956" lon="8.1201873"><ele>220.0</ele><time>2026-04-19T09:35:24.956Z</time></trkpt><trkpt lat="45.3771739" lon="8.1200961"><ele>220.0</ele><time>2026-04-19T09:35:25.956Z</time></trkpt><trkpt lat="45.377057" lon="8.11999"><ele>220.0</ele><time>2026-04-19T09:35:26.956Z</time></trkpt><trkpt lat="45.3769428" lon="8.1198834"><ele>220.0</ele><time>2026-04-19T09:35:27.957Z</time></trkpt><trkpt lat="45.3768335" lon="8.1197839"><ele>220.0</ele><time>2026-04-19T09:35:28.957Z</time></trkpt><trkpt lat="45.3767256" lon="8.1196803"><ele>220.0</ele><time>2026-04-19T09:35:29.957Z</time></trkpt><trkpt lat="45.3766153" lon="8.1195853"><ele>220.0</ele><time>2026-04-19T09:35:30.956Z</time></trkpt><trkpt lat="45.3765066" lon="8.1194874"><ele>220.0</ele><time>2026-04-19T09:35:31.957Z</time></trkpt><trkpt lat="45.3764069" lon="8.1193965"><ele>220.0</ele><time>2026-04-19T09:35:32.956Z</time></trkpt><trkpt lat="45.3763063" lon="8.1193005"><ele>220.0</ele><time>2026-04-19T09:35:33.956Z</time></trkpt><trkpt lat="45.3761955" lon="8.1191987"><ele>220.0</ele><time>2026-04-19T09:35:34.956Z</time></trkpt><trkpt lat="45.3760908" lon="8.1191053"><ele>219.8</ele><time>2026-04-19T09:35:35.957Z</time></trkpt><trkpt lat="45.3760011" lon="8.1190303"><ele>219.6</ele><time>2026-04-19T09:35:36.958Z</time></trkpt><trkpt lat="45.3759128" lon="8.1189648"><ele>219.39999999999998</ele><time>2026-04-19T09:35:37.956Z</time></trkpt><trkpt lat="45.3758219" lon="8.1189215"><ele>219.2</ele><time>2026-04-19T09:35:38.957Z</time></trkpt><trkpt lat="45.3757203" lon="8.1188698"><ele>219.0</ele><time>2026-04-19T09:35:39.956Z</time></trkpt><trkpt lat="45.3756138" lon="8.1188207"><ele>219.25</ele><time>2026-04-19T09:35:40.956Z</time></trkpt><trkpt lat="45.3755071" lon="8.1187657"><ele>219.5</ele><time>2026-04-19T09:35:41.957Z</time></trkpt><trkpt lat="45.3753949" lon="8.1187035"><ele>219.75</ele><time>2026-04-19T09:35:42.956Z</time></trkpt><trkpt lat="45.375291" lon="8.1186186"><ele>220.0</ele><time>2026-04-19T09:35:43.957Z</time></trkpt><trkpt lat="45.3751952" lon="8.1185101"><ele>220.0</ele><time>2026-04-19T09:35:44.957Z</time></trkpt><trkpt lat="45.3750996" lon="8.1183964"><ele>220.0</ele><time>2026-04-19T09:35:45.957Z</time></trkpt><trkpt lat="45.3750043" lon="8.1182729"><ele>220.0</ele><time>2026-04-19T09:35:46.956Z</time></trkpt><trkpt lat="45.3749106" lon="8.1181463"><ele>220.0</ele><time>2026-04-19T09:35:47.956Z</time></trkpt><trkpt lat="45.3748148" lon="8.1180132"><ele>220.0</ele><time>2026-04-19T09:35:48.957Z</time></trkpt><trkpt lat="45.374715" lon="8.117883"><ele>220.0</ele><time>2026-04-19T09:35:49.956Z</time></trkpt><trkpt lat="45.374614" lon="8.1177483"><ele>220.0</ele><time>2026-04-19T09:35:50.956Z</time></trkpt><trkpt lat="45.37451" lon="8.1176099"><ele>220.0</ele><time>2026-04-19T09:35:51.957Z</time></trkpt><trkpt lat="45.3743976" lon="8.1174617"><ele>220.0</ele><time>2026-04-19T09:35:52.957Z</time></trkpt><trkpt lat="45.374284" lon="8.1172994"><ele>220.0</ele><time>2026-04-19T09:35:53.957Z</time></trkpt><trkpt lat="45.3741798" lon="8.1171572"><ele>220.0</ele><time>2026-04-19T09:35:54.957Z</time></trkpt><trkpt lat="45.3740841" lon="8.1170296"><ele>220.0</ele><time>2026-04-19T09:35:55.957Z</time></trkpt><trkpt lat="45.3739987" lon="8.1169139"><ele>219.99999999999997</ele><time>2026-04-19T09:35:56.956Z</time></trkpt><trkpt lat="45.3739262" lon="8.1168142"><ele>220.0</ele><time>2026-04-19T09:35:57.956Z</time></trkpt><trkpt lat="45.3738649" lon="8.1167208"><ele>220.0</ele><time>2026-04-19T09:35:58.956Z</time></trkpt><trkpt lat="45.3738238" lon="8.116632"><ele>220.0</ele><time>2026-04-19T09:35:59.957Z</time></trkpt><trkpt lat="45.3737555" lon="8.1165493"><ele>219.99999999999997</ele><time>2026-04-19T09:36:01.957Z</time></trkpt><trkpt lat="45.3736982" lon="8.1165058"><ele>220.0</ele><time>2026-04-19T09:38:08.957Z</time></trkpt><trkpt lat="45.3736014" lon="8.1165583"><ele>219.8</ele><time>2026-04-19T09:38:12.956Z</time></trkpt><trkpt lat="45.3735283" lon="8.1166445"><ele>219.6</ele><time>2026-04-19T09:38:14.957Z</time></trkpt><trkpt lat="45.3734361" lon="8.1166558"><ele>219.39999999999998</ele><time>2026-04-19T09:38:16.956Z</time></trkpt><trkpt lat="45.3733209" lon="8.1165547"><ele>219.2</ele><time>2026-04-19T09:38:18.957Z</time></trkpt><trkpt lat="45.3732559" lon="8.1164578"><ele>219.0</ele><time>2026-04-19T09:38:19.956Z</time></trkpt><trkpt lat="45.373178" lon="8.1163442"><ele>219.0</ele><time>2026-04-19T09:38:20.957Z</time></trkpt><trkpt lat="45.3730892" lon="8.1162131"><ele>219.0</ele><time>2026-04-19T09:38:21.957Z</time></trkpt><trkpt lat="45.3729877" lon="8.1160641"><ele>219.0</ele><time>2026-04-19T09:38:22.956Z</time></trkpt><trkpt lat="45.3728862" lon="8.1159083"><ele>219.0</ele><time>2026-04-19T09:38:23.956Z</time></trkpt><trkpt lat="45.3727892" lon="8.1157598"><ele>218.75</ele><time>2026-04-19T09:38:24.957Z</time></trkpt><trkpt lat="45.3726911" lon="8.1156117"><ele>218.5</ele><time>2026-04-19T09:38:25.956Z</time></trkpt><trkpt lat="45.372595" lon="8.1154678"><ele>218.25</ele><time>2026-04-19T09:38:26.957Z</time></trkpt><trkpt lat="45.3724997" lon="8.1153286"><ele>218.0</ele><time>2026-04-19T09:38:27.956Z</time></trkpt><trkpt lat="45.3724028" lon="8.1152025"><ele>218.0</ele><time>2026-04-19T09:38:28.956Z</time></trkpt><trkpt lat="45.3723089" lon="8.1150903"><ele>218.0</ele><time>2026-04-19T09:38:29.958Z</time></trkpt><trkpt lat="45.3722062" lon="8.1149994"><ele>218.0</ele><time>2026-04-19T09:38:30.957Z</time></trkpt><trkpt lat="45.3720924" lon="8.1149243"><ele>218.0</ele><time>2026-04-19T09:38:31.956Z</time></trkpt><trkpt lat="45.3719766" lon="8.1148587"><ele>218.25</ele><time>2026-04-19T09:38:32.956Z</time></trkpt><trkpt lat="45.3718578" lon="8.1147988"><ele>218.5</ele><time>2026-04-19T09:38:33.957Z</time></trkpt><trkpt lat="45.3717417" lon="8.1147385"><ele>218.75</ele><time>2026-04-19T09:38:34.956Z</time></trkpt><trkpt lat="45.3716277" lon="8.1146824"><ele>219.0</ele><time>2026-04-19T09:38:35.957Z</time></trkpt><trkpt lat="45.3715233" lon="8.1146297"><ele>219.0</ele><time>2026-04-19T09:38:36.956Z</time></trkpt><trkpt lat="45.3714118" lon="8.1145742"><ele>219.0</ele><time>2026-04-19T09:38:37.957Z</time></trkpt><trkpt lat="45.3712913" lon="8.1145155"><ele>219.0</ele><time>2026-04-19T09:38:38.956Z</time></trkpt><trkpt lat="45.3711653" lon="8.1144484"><ele>219.0</ele><time>2026-04-19T09:38:39.956Z</time></trkpt><trkpt lat="45.3710352" lon="8.1143811"><ele>219.0</ele><time>2026-04-19T09:38:40.956Z</time></trkpt><trkpt lat="45.3709009" lon="8.1143107"><ele>219.0</ele><time>2026-04-19T09:38:41.957Z</time></trkpt><trkpt lat="45.3707649" lon="8.1142429"><ele>219.0</ele><time>2026-04-19T09:38:42.957Z</time></trkpt><trkpt lat="45.3706339" lon="8.1141697"><ele>219.0</ele><time>2026-04-19T09:38:43.957Z</time></trkpt><trkpt lat="45.370507" lon="8.1140966"><ele>218.75</ele><time>2026-04-19T09:38:44.956Z</time></trkpt><trkpt lat="45.3703859" lon="8.1140207"><ele>218.5</ele><time>2026-04-19T09:38:45.956Z</time></trkpt><trkpt lat="45.3702719" lon="8.113932"><ele>218.25</ele><time>2026-04-19T09:38:46.956Z</time></trkpt><trkpt lat="45.3701653" lon="8.1138167"><ele>218.0</ele><time>2026-04-19T09:38:47.956Z</time></trkpt><trkpt lat="45.3700635" lon="8.1136785"><ele>218.0</ele><time>2026-04-19T09:38:48.956Z</time></trkpt><trkpt lat="45.3699725" lon="8.113519"><ele>218.0</ele><time>2026-04-19T09:38:49.956Z</time></trkpt><trkpt lat="45.3698871" lon="8.1133398"><ele>218.0</ele><time>2026-04-19T09:38:50.957Z</time></trkpt><trkpt lat="45.3698049" lon="8.1131696"><ele>218.0</ele><time>2026-04-19T09:38:51.956Z</time></trkpt><trkpt lat="45.3697286" lon="8.1130091"><ele>218.25</ele><time>2026-04-19T09:38:52.956Z</time></trkpt><trkpt lat="45.3696579" lon="8.1128574"><ele>218.5</ele><time>2026-04-19T09:38:53.958Z</time></trkpt><trkpt lat="45.3695928" lon="8.1127118"><ele>218.75</ele><time>2026-04-19T09:38:54.956Z</time></trkpt><trkpt lat="45.3695464" lon="8.1125625"><ele>219.0</ele><time>2026-04-19T09:38:55.956Z</time></trkpt><trkpt lat="45.3695201" lon="8.1123948"><ele>219.25</ele><time>2026-04-19T09:38:56.957Z</time></trkpt><trkpt lat="45.3695059" lon="8.112214"><ele>219.5</ele><time>2026-04-19T09:38:57.957Z</time></trkpt><trkpt lat="45.3694978" lon="8.1120241"><ele>219.75</ele><time>2026-04-19T09:38:58.956Z</time></trkpt><trkpt lat="45.3694885" lon="8.1118384"><ele>220.0</ele><time>2026-04-19T09:38:59.956Z</time></trkpt><trkpt lat="45.369468" lon="8.1116607"><ele>220.0</ele><time>2026-04-19T09:39:00.957Z</time></trkpt><trkpt lat="45.3694362" lon="8.1114881"><ele>220.0</ele><time>2026-04-19T09:39:01.956Z</time></trkpt><trkpt lat="45.3693934" lon="8.1113214"><ele>220.0</ele><time>2026-04-19T09:39:02.956Z</time></trkpt><trkpt lat="45.3693471" lon="8.1111684"><ele>220.0</ele><time>2026-04-19T09:39:03.958Z</time></trkpt><trkpt lat="45.369305" lon="8.1110247"><ele>220.0</ele><time>2026-04-19T09:39:04.956Z</time></trkpt><trkpt lat="45.3692881" lon="8.1108922"><ele>220.0</ele><time>2026-04-19T09:39:05.956Z</time></trkpt><trkpt lat="45.3693216" lon="8.1107822"><ele>220.0</ele><time>2026-04-19T09:39:06.957Z</time></trkpt><trkpt lat="45.3693712" lon="8.1106687"><ele>220.0</ele><time>2026-04-19T09:39:07.957Z</time></trkpt><trkpt lat="45.3694305" lon="8.1105279"><ele>220.0</ele><time>2026-04-19T09:39:08.956Z</time></trkpt><trkpt lat="45.3695021" lon="8.1103796"><ele>220.25</ele><time>2026-04-19T09:39:09.958Z</time></trkpt><trkpt lat="45.3695826" lon="8.1102172"><ele>220.5</ele><time>2026-04-19T09:39:10.956Z</time></trkpt><trkpt lat="45.3696636" lon="8.1100457"><ele>220.75</ele><time>2026-04-19T09:39:11.956Z</time></trkpt><trkpt lat="45.3697496" lon="8.1098758"><ele>221.0</ele><time>2026-04-19T09:39:12.957Z</time></trkpt><trkpt lat="45.3698364" lon="8.1097026"><ele>221.25</ele><time>2026-04-19T09:39:13.956Z</time></trkpt><trkpt lat="45.3699241" lon="8.1095319"><ele>221.5</ele><time>2026-04-19T09:39:14.957Z</time></trkpt><trkpt lat="45.3700084" lon="8.1093603"><ele>221.75</ele><time>2026-04-19T09:39:15.956Z</time></trkpt><trkpt lat="45.3700889" lon="8.1092003"><ele>222.0</ele><time>2026-04-19T09:39:16.956Z</time></trkpt><trkpt lat="45.370172" lon="8.1090373"><ele>222.0</ele><time>2026-04-19T09:39:17.956Z</time></trkpt><trkpt lat="45.3702567" lon="8.1088722"><ele>222.0</ele><time>2026-04-19T09:39:18.956Z</time></trkpt><trkpt lat="45.370343" lon="8.1087042"><ele>222.0</ele><time>2026-04-19T09:39:19.956Z</time></trkpt><trkpt lat="45.3704255" lon="8.1085368"><ele>222.0</ele><time>2026-04-19T09:39:20.956Z</time></trkpt><trkpt lat="45.3705121" lon="8.1083695"><ele>221.75</ele><time>2026-04-19T09:39:21.956Z</time></trkpt><trkpt lat="45.3705957" lon="8.1082053"><ele>221.5</ele><time>2026-04-19T09:39:22.956Z</time></trkpt><trkpt lat="45.3706704" lon="8.1080539"><ele>221.25</ele><time>2026-04-19T09:39:23.957Z</time></trkpt><trkpt lat="45.3707364" lon="8.1079182"><ele>221.0</ele><time>2026-04-19T09:39:24.956Z</time></trkpt><trkpt lat="45.3707881" lon="8.1077948"><ele>221.00000000000003</ele><time>2026-04-19T09:39:25.956Z</time></trkpt><trkpt lat="45.3708227" lon="8.1076785"><ele>221.0</ele><time>2026-04-19T09:39:26.957Z</time></trkpt><trkpt lat="45.3708418" lon="8.1075738"><ele>221.0</ele><time>2026-04-19T09:39:27.956Z</time></trkpt><trkpt lat="45.3708644" lon="8.1074779"><ele>221.0</ele><time>2026-04-19T09:39:28.956Z</time></trkpt><trkpt lat="45.3708996" lon="8.1073896"><ele>221.00000000000003</ele><time>2026-04-19T09:39:29.957Z</time></trkpt><trkpt lat="45.3709404" lon="8.1073071"><ele>221.0</ele><time>2026-04-19T09:39:30.956Z</time></trkpt><trkpt lat="45.3709832" lon="8.1072223"><ele>221.33333333333334</ele><time>2026-04-19T09:39:31.957Z</time></trkpt><trkpt lat="45.3710284" lon="8.1071296"><ele>221.66666666666669</ele><time>2026-04-19T09:39:32.957Z</time></trkpt><trkpt lat="45.3710738" lon="8.1070256"><ele>222.0</ele><time>2026-04-19T09:39:33.956Z</time></trkpt><trkpt lat="45.3711265" lon="8.1069275"><ele>222.33333333333331</ele><time>2026-04-19T09:39:34.957Z</time></trkpt><trkpt lat="45.3711749" lon="8.1068247"><ele>222.66666666666666</ele><time>2026-04-19T09:39:35.956Z</time></trkpt><trkpt lat="45.3712271" lon="8.1067164"><ele>223.0</ele><time>2026-04-19T09:39:36.956Z</time></trkpt><trkpt lat="45.3712817" lon="8.1066043"><ele>223.60000000000002</ele><time>2026-04-19T09:39:37.956Z</time></trkpt><trkpt lat="45.3713319" lon="8.1065087"><ele>224.20000000000002</ele><time>2026-04-19T09:39:38.956Z</time></trkpt><trkpt lat="45.3713884" lon="8.1064102"><ele>224.8</ele><time>2026-04-19T09:39:39.956Z</time></trkpt><trkpt lat="45.3714611" lon="8.106319"><ele>225.4</ele><time>2026-04-19T09:39:40.956Z</time></trkpt><trkpt lat="45.3715331" lon="8.1062156"><ele>226.0</ele><time>2026-04-19T09:39:41.956Z</time></trkpt><trkpt lat="45.3716266" lon="8.1061091"><ele>226.20000000000002</ele><time>2026-04-19T09:39:42.956Z</time></trkpt><trkpt lat="45.3717024" lon="8.1059818"><ele>226.40000000000003</ele><time>2026-04-19T09:39:43.958Z</time></trkpt><trkpt lat="45.3717609" lon="8.1058626"><ele>226.6</ele><time>2026-04-19T09:39:44.956Z</time></trkpt><trkpt lat="45.3718254" lon="8.1057495"><ele>226.8</ele><time>2026-04-19T09:39:45.958Z</time></trkpt><trkpt lat="45.371893" lon="8.1056248"><ele>227.0</ele><time>2026-04-19T09:39:46.956Z</time></trkpt><trkpt lat="45.3719599" lon="8.1054905"><ele>227.0</ele><time>2026-04-19T09:39:47.956Z</time></trkpt><trkpt lat="45.3720251" lon="8.1053551"><ele>227.0</ele><time>2026-04-19T09:39:48.956Z</time></trkpt><trkpt lat="45.3720883" lon="8.1052171"><ele>227.0</ele><time>2026-04-19T09:39:49.957Z</time></trkpt><trkpt lat="45.3721466" lon="8.1050821"><ele>227.0</ele><time>2026-04-19T09:39:50.957Z</time></trkpt><trkpt lat="45.3722004" lon="8.1049381"><ele>227.5</ele><time>2026-04-19T09:39:51.956Z</time></trkpt><trkpt lat="45.3722592" lon="8.104798"><ele>228.0</ele><time>2026-04-19T09:39:52.957Z</time></trkpt><trkpt lat="45.3723285" lon="8.1046535"><ele>228.5</ele><time>2026-04-19T09:39:53.956Z</time></trkpt><trkpt lat="45.3723987" lon="8.10451"><ele>229.0</ele><time>2026-04-19T09:39:54.956Z</time></trkpt><trkpt lat="45.3724657" lon="8.1043732"><ele>229.0</ele><time>2026-04-19T09:39:55.957Z</time></trkpt><trkpt lat="45.3725331" lon="8.1042385"><ele>229.0</ele><time>2026-04-19T09:39:56.956Z</time></trkpt><trkpt lat="45.3726039" lon="8.104107"><ele>229.0</ele><time>2026-04-19T09:39:57.956Z</time></trkpt><trkpt lat="45.372668" lon="8.103981"><ele>229.0</ele><time>2026-04-19T09:39:58.956Z</time></trkpt><trkpt lat="45.372727" lon="8.1038454"><ele>228.75</ele><time>2026-04-19T09:39:59.956Z</time></trkpt><trkpt lat="45.3727754" lon="8.1036974"><ele>228.5</ele><time>2026-04-19T09:40:00.956Z</time></trkpt><trkpt lat="45.3728041" lon="8.1035325"><ele>228.25</ele><time>2026-04-19T09:40:01.956Z</time></trkpt><trkpt lat="45.3728277" lon="8.1033715"><ele>228.0</ele><time>2026-04-19T09:40:02.956Z</time></trkpt><trkpt lat="45.3728517" lon="8.1032041"><ele>228.0</ele><time>2026-04-19T09:40:03.957Z</time></trkpt><trkpt lat="45.3728776" lon="8.1030368"><ele>228.0</ele><time>2026-04-19T09:40:04.957Z</time></trkpt><trkpt lat="45.3729053" lon="8.1028744"><ele>228.0</ele><time>2026-04-19T09:40:05.957Z</time></trkpt><trkpt lat="45.3729305" lon="8.1027083"><ele>228.0</ele><time>2026-04-19T09:40:06.957Z</time></trkpt><trkpt lat="45.3729572" lon="8.1025388"><ele>228.25</ele><time>2026-04-19T09:40:07.956Z</time></trkpt><trkpt lat="45.3729863" lon="8.1023703"><ele>228.5</ele><time>2026-04-19T09:40:08.956Z</time></trkpt><trkpt lat="45.3730185" lon="8.1022031"><ele>228.75</ele><time>2026-04-19T09:40:09.956Z</time></trkpt><trkpt lat="45.3730474" lon="8.1020459"><ele>229.0</ele><time>2026-04-19T09:40:10.956Z</time></trkpt><trkpt lat="45.3730753" lon="8.1018841"><ele>229.75</ele><time>2026-04-19T09:40:11.957Z</time></trkpt><trkpt lat="45.3731043" lon="8.1017195"><ele>230.5</ele><time>2026-04-19T09:40:12.956Z</time></trkpt><trkpt lat="45.3731357" lon="8.101551"><ele>231.25</ele><time>2026-04-19T09:40:13.957Z</time></trkpt><trkpt lat="45.3731727" lon="8.1013789"><ele>232.0</ele><time>2026-04-19T09:40:14.957Z</time></trkpt><trkpt lat="45.3732087" lon="8.1012073"><ele>232.25</ele><time>2026-04-19T09:40:15.956Z</time></trkpt><trkpt lat="45.3732462" lon="8.1010349"><ele>232.5</ele><time>2026-04-19T09:40:16.957Z</time></trkpt><trkpt lat="45.373285" lon="8.1008769"><ele>232.75</ele><time>2026-04-19T09:40:17.957Z</time></trkpt><trkpt lat="45.3733161" lon="8.1007258"><ele>233.0</ele><time>2026-04-19T09:40:18.956Z</time></trkpt><trkpt lat="45.373352" lon="8.1005891"><ele>233.00000000000003</ele><time>2026-04-19T09:40:19.957Z</time></trkpt><trkpt lat="45.3733795" lon="8.1004648"><ele>233.0</ele><time>2026-04-19T09:40:20.957Z</time></trkpt><trkpt lat="45.3733997" lon="8.1003573"><ele>233.0</ele><time>2026-04-19T09:40:21.956Z</time></trkpt><trkpt lat="45.3734007" lon="8.1002442"><ele>233.0</ele><time>2026-04-19T09:40:22.956Z</time></trkpt><trkpt lat="45.3733829" lon="8.1001192"><ele>233.00000000000003</ele><time>2026-04-19T09:40:23.957Z</time></trkpt><trkpt lat="45.3733615" lon="8.09999"><ele>233.0</ele><time>2026-04-19T09:40:24.956Z</time></trkpt><trkpt lat="45.373335" lon="8.0998527"><ele>233.0</ele><time>2026-04-19T09:40:25.955Z</time></trkpt><trkpt lat="45.3733152" lon="8.0996973"><ele>233.0</ele><time>2026-04-19T09:40:26.955Z</time></trkpt><trkpt lat="45.3732917" lon="8.0995477"><ele>233.0</ele><time>2026-04-19T09:40:27.955Z</time></trkpt><trkpt lat="45.3732699" lon="8.0994126"><ele>233.0</ele><time>2026-04-19T09:40:28.955Z</time></trkpt><trkpt lat="45.373251" lon="8.0992816"><ele>233.0</ele><time>2026-04-19T09:40:29.956Z</time></trkpt><trkpt lat="45.3732463" lon="8.0991533"><ele>232.75</ele><time>2026-04-19T09:40:30.956Z</time></trkpt><trkpt lat="45.3732641" lon="8.0990142"><ele>232.5</ele><time>2026-04-19T09:40:31.956Z</time></trkpt><trkpt lat="45.3732936" lon="8.0988644"><ele>232.25</ele><time>2026-04-19T09:40:32.955Z</time></trkpt><trkpt lat="45.3733288" lon="8.0986988"><ele>232.0</ele><time>2026-04-19T09:40:33.956Z</time></trkpt><trkpt lat="45.3733723" lon="8.0985053"><ele>232.0</ele><time>2026-04-19T09:40:34.956Z</time></trkpt><trkpt lat="45.3734131" lon="8.0983105"><ele>232.0</ele><time>2026-04-19T09:40:35.955Z</time></trkpt><trkpt lat="45.3734507" lon="8.0981377"><ele>232.0</ele><time>2026-04-19T09:40:36.957Z</time></trkpt><trkpt lat="45.373488" lon="8.0979751"><ele>232.0</ele><time>2026-04-19T09:40:37.956Z</time></trkpt><trkpt lat="45.3735215" lon="8.0978288"><ele>232.2</ele><time>2026-04-19T09:40:38.956Z</time></trkpt><trkpt lat="45.3735559" lon="8.097684"><ele>232.39999999999998</ele><time>2026-04-19T09:40:39.956Z</time></trkpt><trkpt lat="45.3735857" lon="8.0975462"><ele>232.60000000000002</ele><time>2026-04-19T09:40:40.955Z</time></trkpt><trkpt lat="45.3736126" lon="8.0974272"><ele>232.8</ele><time>2026-04-19T09:40:41.956Z</time></trkpt><trkpt lat="45.3736421" lon="8.0973182"><ele>233.0</ele><time>2026-04-19T09:40:42.956Z</time></trkpt><trkpt lat="45.3736973" lon="8.0972113"><ele>233.60000000000002</ele><time>2026-04-19T09:40:43.956Z</time></trkpt><trkpt lat="45.3737729" lon="8.0971134"><ele>234.20000000000002</ele><time>2026-04-19T09:40:44.956Z</time></trkpt><trkpt lat="45.3738508" lon="8.0970054"><ele>234.8</ele><time>2026-04-19T09:40:45.955Z</time></trkpt><trkpt lat="45.3739302" lon="8.09691"><ele>235.4</ele><time>2026-04-19T09:40:46.956Z</time></trkpt><trkpt lat="45.3740022" lon="8.0968152"><ele>236.0</ele><time>2026-04-19T09:40:47.955Z</time></trkpt><trkpt lat="45.3740548" lon="8.0967064"><ele>236.20000000000002</ele><time>2026-04-19T09:40:48.956Z</time></trkpt><trkpt lat="45.3741051" lon="8.0965823"><ele>236.40000000000003</ele><time>2026-04-19T09:40:49.955Z</time></trkpt><trkpt lat="45.3741525" lon="8.0964487"><ele>236.6</ele><time>2026-04-19T09:40:50.956Z</time></trkpt><trkpt lat="45.3741917" lon="8.0963084"><ele>236.8</ele><time>2026-04-19T09:40:51.956Z</time></trkpt><trkpt lat="45.3742285" lon="8.0961732"><ele>237.0</ele><time>2026-04-19T09:40:52.956Z</time></trkpt><trkpt lat="45.3742648" lon="8.096036"><ele>237.0</ele><time>2026-04-19T09:40:53.955Z</time></trkpt><trkpt lat="45.3743007" lon="8.0959072"><ele>237.0</ele><time>2026-04-19T09:40:54.956Z</time></trkpt><trkpt lat="45.3743315" lon="8.0957775"><ele>237.0</ele><time>2026-04-19T09:40:55.955Z</time></trkpt><trkpt lat="45.3743609" lon="8.0956522"><ele>237.0</ele><time>2026-04-19T09:40:56.956Z</time></trkpt><trkpt lat="45.3743926" lon="8.0955241"><ele>237.0</ele><time>2026-04-19T09:40:57.955Z</time></trkpt><trkpt lat="45.3744276" lon="8.0953964"><ele>237.39999999999998</ele><time>2026-04-19T09:40:58.956Z</time></trkpt><trkpt lat="45.3744612" lon="8.0952563"><ele>237.79999999999998</ele><time>2026-04-19T09:40:59.955Z</time></trkpt><trkpt lat="45.3744997" lon="8.0951198"><ele>238.2</ele><time>2026-04-19T09:41:00.955Z</time></trkpt><trkpt lat="45.3745379" lon="8.094983"><ele>238.6</ele><time>2026-04-19T09:41:01.956Z</time></trkpt><trkpt lat="45.3745748" lon="8.0948477"><ele>239.0</ele><time>2026-04-19T09:41:02.955Z</time></trkpt><trkpt lat="45.3746095" lon="8.0947146"><ele>239.2</ele><time>2026-04-19T09:41:03.955Z</time></trkpt><trkpt lat="45.3746438" lon="8.0945835"><ele>239.39999999999998</ele><time>2026-04-19T09:41:04.955Z</time></trkpt><trkpt lat="45.3746808" lon="8.0944449"><ele>239.6</ele><time>2026-04-19T09:41:05.956Z</time></trkpt><trkpt lat="45.3747123" lon="8.094312"><ele>239.8</ele><time>2026-04-19T09:41:06.955Z</time></trkpt><trkpt lat="45.374744" lon="8.0941837"><ele>240.0</ele><time>2026-04-19T09:41:07.956Z</time></trkpt><trkpt lat="45.3747697" lon="8.0940541"><ele>240.0</ele><time>2026-04-19T09:41:08.956Z</time></trkpt><trkpt lat="45.3747915" lon="8.0939144"><ele>240.0</ele><time>2026-04-19T09:41:09.956Z</time></trkpt><trkpt lat="45.374817" lon="8.0937728"><ele>240.0</ele><time>2026-04-19T09:41:10.956Z</time></trkpt><trkpt lat="45.3748483" lon="8.0936253"><ele>240.0</ele><time>2026-04-19T09:41:11.955Z</time></trkpt><trkpt lat="45.3748797" lon="8.0934752"><ele>240.0</ele><time>2026-04-19T09:41:12.955Z</time></trkpt><trkpt lat="45.3749132" lon="8.0933253"><ele>240.25</ele><time>2026-04-19T09:41:13.955Z</time></trkpt><trkpt lat="45.3749451" lon="8.0931703"><ele>240.5</ele><time>2026-04-19T09:41:14.957Z</time></trkpt><trkpt lat="45.3749805" lon="8.0930114"><ele>240.75</ele><time>2026-04-19T09:41:15.955Z</time></trkpt><trkpt lat="45.3750157" lon="8.0928517"><ele>241.0</ele><time>2026-04-19T09:41:16.956Z</time></trkpt><trkpt lat="45.375047" lon="8.0926872"><ele>241.0</ele><time>2026-04-19T09:41:17.955Z</time></trkpt><trkpt lat="45.3750849" lon="8.0925222"><ele>241.0</ele><time>2026-04-19T09:41:18.957Z</time></trkpt><trkpt lat="45.3751199" lon="8.0923559"><ele>241.0</ele><time>2026-04-19T09:41:19.956Z</time></trkpt><trkpt lat="45.3751548" lon="8.0921893"><ele>241.0</ele><time>2026-04-19T09:41:20.955Z</time></trkpt><trkpt lat="45.3751908" lon="8.0920244"><ele>241.25</ele><time>2026-04-19T09:41:21.956Z</time></trkpt><trkpt lat="45.3752256" lon="8.0918594"><ele>241.5</ele><time>2026-04-19T09:41:22.956Z</time></trkpt><trkpt lat="45.3752627" lon="8.0916922"><ele>241.75</ele><time>2026-04-19T09:41:23.955Z</time></trkpt><trkpt lat="45.3752971" lon="8.0915253"><ele>242.0</ele><time>2026-04-19T09:41:24.956Z</time></trkpt><trkpt lat="45.3753275" lon="8.0913676"><ele>242.39999999999998</ele><time>2026-04-19T09:41:25.955Z</time></trkpt><trkpt lat="45.3753589" lon="8.0912298"><ele>242.79999999999998</ele><time>2026-04-19T09:41:26.956Z</time></trkpt><trkpt lat="45.3753867" lon="8.0911014"><ele>243.2</ele><time>2026-04-19T09:41:27.955Z</time></trkpt><trkpt lat="45.3754142" lon="8.0909874"><ele>243.6</ele><time>2026-04-19T09:41:28.955Z</time></trkpt><trkpt lat="45.3754372" lon="8.0908822"><ele>244.0</ele><time>2026-04-19T09:41:29.956Z</time></trkpt><trkpt lat="45.3754602" lon="8.0907357"><ele>244.0</ele><time>2026-04-19T09:41:31.955Z</time></trkpt><trkpt lat="45.3753987" lon="8.0906535"><ele>243.99999999999997</ele><time>2026-04-19T09:41:33.955Z</time></trkpt><trkpt lat="45.37528" lon="8.0905965"><ele>243.99999999999997</ele><time>2026-04-19T09:41:35.955Z</time></trkpt><trkpt lat="45.3751969" lon="8.0905529"><ele>244.0</ele><time>2026-04-19T09:41:36.956Z</time></trkpt><trkpt lat="45.3751009" lon="8.0905048"><ele>244.0</ele><time>2026-04-19T09:41:37.956Z</time></trkpt><trkpt lat="45.3749998" lon="8.0904554"><ele>244.0</ele><time>2026-04-19T09:41:38.955Z</time></trkpt><trkpt lat="45.374907" lon="8.0904095"><ele>243.99999999999997</ele><time>2026-04-19T09:41:39.956Z</time></trkpt><trkpt lat="45.3748042" lon="8.0903599"><ele>243.99999999999997</ele><time>2026-04-19T09:41:40.955Z</time></trkpt><trkpt lat="45.3747007" lon="8.0903014"><ele>244.0</ele><time>2026-04-19T09:41:41.955Z</time></trkpt><trkpt lat="45.3745906" lon="8.0902453"><ele>244.0</ele><time>2026-04-19T09:41:42.957Z</time></trkpt><trkpt lat="45.3744863" lon="8.0901866"><ele>243.75</ele><time>2026-04-19T09:41:43.955Z</time></trkpt><trkpt lat="45.3743768" lon="8.0901243"><ele>243.5</ele><time>2026-04-19T09:41:44.956Z</time></trkpt><trkpt lat="45.3742664" lon="8.0900656"><ele>243.25</ele><time>2026-04-19T09:41:45.956Z</time></trkpt><trkpt lat="45.3741589" lon="8.0900067"><ele>243.0</ele><time>2026-04-19T09:41:46.955Z</time></trkpt><trkpt lat="45.3740563" lon="8.089957"><ele>242.83333333333334</ele><time>2026-04-19T09:41:47.956Z</time></trkpt><trkpt lat="45.3739651" lon="8.0899162"><ele>242.66666666666669</ele><time>2026-04-19T09:41:48.955Z</time></trkpt><trkpt lat="45.3738906" lon="8.0898887"><ele>242.5</ele><time>2026-04-19T09:41:49.955Z</time></trkpt><trkpt lat="45.3738264" lon="8.0898583"><ele>242.33333333333334</ele><time>2026-04-19T09:41:50.956Z</time></trkpt><trkpt lat="45.3737503" lon="8.0898094"><ele>242.16666666666669</ele><time>2026-04-19T09:41:52.956Z</time></trkpt><trkpt lat="45.3737249" lon="8.0897203"><ele>242.0</ele><time>2026-04-19T09:41:55.955Z</time></trkpt><trkpt lat="45.3737475" lon="8.0896156"><ele>241.83333333333334</ele><time>2026-04-19T09:41:58.957Z</time></trkpt><trkpt lat="45.373787" lon="8.0894636"><ele>241.66666666666669</ele><time>2026-04-19T09:42:00.955Z</time></trkpt><trkpt lat="45.3738042" lon="8.089369"><ele>241.5</ele><time>2026-04-19T09:42:01.956Z</time></trkpt><trkpt lat="45.3738206" lon="8.0892679"><ele>241.33333333333331</ele><time>2026-04-19T09:42:02.957Z</time></trkpt><trkpt lat="45.3738402" lon="8.0891588"><ele>241.16666666666666</ele><time>2026-04-19T09:42:03.956Z</time></trkpt><trkpt lat="45.3738688" lon="8.0890356"><ele>241.0</ele><time>2026-04-19T09:42:04.955Z</time></trkpt><trkpt lat="45.373899" lon="8.0888932"><ele>241.4</ele><time>2026-04-19T09:42:05.956Z</time></trkpt><trkpt lat="45.3739271" lon="8.0887553"><ele>241.8</ele><time>2026-04-19T09:42:06.956Z</time></trkpt><trkpt lat="45.3739577" lon="8.0886063"><ele>242.20000000000002</ele><time>2026-04-19T09:42:07.956Z</time></trkpt><trkpt lat="45.3739916" lon="8.0884463"><ele>242.60000000000002</ele><time>2026-04-19T09:42:08.956Z</time></trkpt><trkpt lat="45.3740246" lon="8.0882884"><ele>243.0</ele><time>2026-04-19T09:42:09.955Z</time></trkpt><trkpt lat="45.3740569" lon="8.0881325"><ele>243.25</ele><time>2026-04-19T09:42:10.956Z</time></trkpt><trkpt lat="45.3740923" lon="8.0879767"><ele>243.5</ele><time>2026-04-19T09:42:11.956Z</time></trkpt><trkpt lat="45.3741295" lon="8.0878226"><ele>243.75</ele><time>2026-04-19T09:42:12.955Z</time></trkpt><trkpt lat="45.3741721" lon="8.0876649"><ele>244.0</ele><time>2026-04-19T09:42:13.955Z</time></trkpt><trkpt lat="45.3742169" lon="8.087505"><ele>244.25</ele><time>2026-04-19T09:42:14.956Z</time></trkpt><trkpt lat="45.3742609" lon="8.0873405"><ele>244.5</ele><time>2026-04-19T09:42:15.956Z</time></trkpt><trkpt lat="45.3743033" lon="8.0871757"><ele>244.75</ele><time>2026-04-19T09:42:16.956Z</time></trkpt><trkpt lat="45.3743382" lon="8.0870224"><ele>245.0</ele><time>2026-04-19T09:42:17.955Z</time></trkpt><trkpt lat="45.3743716" lon="8.0868646"><ele>245.0</ele><time>2026-04-19T09:42:18.956Z</time></trkpt><trkpt lat="45.3743997" lon="8.0866932"><ele>245.0</ele><time>2026-04-19T09:42:19.955Z</time></trkpt><trkpt lat="45.3744247" lon="8.0865214"><ele>245.0</ele><time>2026-04-19T09:42:20.955Z</time></trkpt><trkpt lat="45.3744462" lon="8.0863373"><ele>245.0</ele><time>2026-04-19T09:42:21.955Z</time></trkpt><trkpt lat="45.3744607" lon="8.0861591"><ele>245.0</ele><time>2026-04-19T09:42:22.955Z</time></trkpt><trkpt lat="45.3744736" lon="8.0859796"><ele>245.0</ele><time>2026-04-19T09:42:23.957Z</time></trkpt><trkpt lat="45.374486" lon="8.0858017"><ele>245.0</ele><time>2026-04-19T09:42:24.956Z</time></trkpt><trkpt lat="45.3744958" lon="8.0856239"><ele>245.0</ele><time>2026-04-19T09:42:25.955Z</time></trkpt><trkpt lat="45.3745009" lon="8.0854398"><ele>245.25</ele><time>2026-04-19T09:42:26.956Z</time></trkpt><trkpt lat="45.3745027" lon="8.0852528"><ele>245.5</ele><time>2026-04-19T09:42:27.955Z</time></trkpt><trkpt lat="45.3745044" lon="8.0850764"><ele>245.75</ele><time>2026-04-19T09:42:28.955Z</time></trkpt><trkpt lat="45.3745091" lon="8.0849048"><ele>246.0</ele><time>2026-04-19T09:42:29.955Z</time></trkpt><trkpt lat="45.3745156" lon="8.0847293"><ele>246.0</ele><time>2026-04-19T09:42:30.956Z</time></trkpt><trkpt lat="45.3745208" lon="8.0845596"><ele>246.0</ele><time>2026-04-19T09:42:31.955Z</time></trkpt><trkpt lat="45.3745244" lon="8.0844028"><ele>246.0</ele><time>2026-04-19T09:42:32.955Z</time></trkpt><trkpt lat="45.3745242" lon="8.0842464"><ele>246.0</ele><time>2026-04-19T09:42:33.956Z</time></trkpt><trkpt lat="45.3745191" lon="8.0840826"><ele>246.25</ele><time>2026-04-19T09:42:34.955Z</time></trkpt><trkpt lat="45.3745036" lon="8.0839123"><ele>246.5</ele><time>2026-04-19T09:42:35.956Z</time></trkpt><trkpt lat="45.374482" lon="8.0837469"><ele>246.75</ele><time>2026-04-19T09:42:36.956Z</time></trkpt><trkpt lat="45.3744636" lon="8.0835908"><ele>247.0</ele><time>2026-04-19T09:42:37.955Z</time></trkpt><trkpt lat="45.3744476" lon="8.0834497"><ele>246.99999999999997</ele><time>2026-04-19T09:42:38.956Z</time></trkpt><trkpt lat="45.3744404" lon="8.0833213"><ele>247.0</ele><time>2026-04-19T09:42:39.955Z</time></trkpt><trkpt lat="45.3744398" lon="8.0832054"><ele>247.0</ele><time>2026-04-19T09:42:40.956Z</time></trkpt><trkpt lat="45.3744422" lon="8.0831054"><ele>247.0</ele><time>2026-04-19T09:42:41.956Z</time></trkpt><trkpt lat="45.3744561" lon="8.0829418"><ele>246.99999999999997</ele><time>2026-04-19T09:42:43.955Z</time></trkpt><trkpt lat="45.3744688" lon="8.0828479"><ele>247.0</ele><time>2026-04-19T09:42:45.955Z</time></trkpt><trkpt lat="45.3744878" lon="8.0827113"><ele>247.6</ele><time>2026-04-19T09:43:09.955Z</time></trkpt><trkpt lat="45.3745041" lon="8.0825496"><ele>248.2</ele><time>2026-04-19T09:43:11.956Z</time></trkpt><trkpt lat="45.3745175" lon="8.0823632"><ele>248.8</ele><time>2026-04-19T09:43:13.955Z</time></trkpt><trkpt lat="45.3745198" lon="8.0822678"><ele>249.4</ele><time>2026-04-19T09:43:14.956Z</time></trkpt><trkpt lat="45.3745222" lon="8.0821725"><ele>250.0</ele><time>2026-04-19T09:43:15.956Z</time></trkpt><trkpt lat="45.3745229" lon="8.0820725"><ele>250.16666666666666</ele><time>2026-04-19T09:43:16.956Z</time></trkpt><trkpt lat="45.3745273" lon="8.081965"><ele>250.33333333333331</ele><time>2026-04-19T09:43:17.957Z</time></trkpt><trkpt lat="45.3745393" lon="8.0818616"><ele>250.5</ele><time>2026-04-19T09:43:18.956Z</time></trkpt><trkpt lat="45.3745561" lon="8.0817623"><ele>250.66666666666669</ele><time>2026-04-19T09:43:19.955Z</time></trkpt><trkpt lat="45.3745739" lon="8.0816553"><ele>250.83333333333334</ele><time>2026-04-19T09:43:20.955Z</time></trkpt><trkpt lat="45.3745945" lon="8.0815459"><ele>251.0</ele><time>2026-04-19T09:43:21.956Z</time></trkpt><trkpt lat="45.3746148" lon="8.0814349"><ele>251.00000000000003</ele><time>2026-04-19T09:43:22.955Z</time></trkpt><trkpt lat="45.3746379" lon="8.0813165"><ele>251.0</ele><time>2026-04-19T09:43:23.956Z</time></trkpt><trkpt lat="45.3746619" lon="8.0811951"><ele>251.0</ele><time>2026-04-19T09:43:24.956Z</time></trkpt><trkpt lat="45.3746794" lon="8.0810676"><ele>251.0</ele><time>2026-04-19T09:43:25.956Z</time></trkpt><trkpt lat="45.3746908" lon="8.0809378"><ele>251.00000000000003</ele><time>2026-04-19T09:43:26.956Z</time></trkpt><trkpt lat="45.3746973" lon="8.0808171"><ele>251.0</ele><time>2026-04-19T09:43:27.956Z</time></trkpt><trkpt lat="45.3747053" lon="8.0807023"><ele>251.4</ele><time>2026-04-19T09:43:28.955Z</time></trkpt><trkpt lat="45.3747224" lon="8.0805818"><ele>251.8</ele><time>2026-04-19T09:43:29.957Z</time></trkpt><trkpt lat="45.3747492" lon="8.0804581"><ele>252.20000000000002</ele><time>2026-04-19T09:43:30.956Z</time></trkpt><trkpt lat="45.3747871" lon="8.0803309"><ele>252.60000000000002</ele><time>2026-04-19T09:43:31.955Z</time></trkpt><trkpt lat="45.3748261" lon="8.0802072"><ele>253.0</ele><time>2026-04-19T09:43:32.956Z</time></trkpt><trkpt lat="45.3748648" lon="8.0800891"><ele>252.99999999999997</ele><time>2026-04-19T09:43:33.955Z</time></trkpt><trkpt lat="45.3749022" lon="8.0799752"><ele>253.0</ele><time>2026-04-19T09:43:34.955Z</time></trkpt><trkpt lat="45.3749345" lon="8.0798736"><ele>253.0</ele><time>2026-04-19T09:43:35.956Z</time></trkpt><trkpt lat="45.3749622" lon="8.0797848"><ele>253.0</ele><time>2026-04-19T09:43:36.955Z</time></trkpt><trkpt lat="45.3750047" lon="8.0796348"><ele>252.99999999999997</ele><time>2026-04-19T09:43:38.955Z</time></trkpt><trkpt lat="45.3750324" lon="8.0795244"><ele>253.0</ele><time>2026-04-19T09:43:40.957Z</time></trkpt><trkpt lat="45.3750981" lon="8.0794453"><ele>253.5</ele><time>2026-04-19T09:43:43.955Z</time></trkpt><trkpt lat="45.3752278" lon="8.0795133"><ele>254.0</ele><time>2026-04-19T09:43:45.955Z</time></trkpt><trkpt lat="45.3753151" lon="8.0795647"><ele>254.5</ele><time>2026-04-19T09:43:46.956Z</time></trkpt><trkpt lat="45.3754199" lon="8.0796225"><ele>255.0</ele><time>2026-04-19T09:43:47.955Z</time></trkpt><trkpt lat="45.3755379" lon="8.079687"><ele>255.0</ele><time>2026-04-19T09:43:48.956Z</time></trkpt><trkpt lat="45.3756653" lon="8.0797593"><ele>255.0</ele><time>2026-04-19T09:43:49.955Z</time></trkpt><trkpt lat="45.3757965" lon="8.0798295"><ele>255.0</ele><time>2026-04-19T09:43:50.956Z</time></trkpt><trkpt lat="45.3759244" lon="8.0799028"><ele>255.0</ele><time>2026-04-19T09:43:51.955Z</time></trkpt><trkpt lat="45.3760552" lon="8.0799737"><ele>255.0</ele><time>2026-04-19T09:43:52.956Z</time></trkpt><trkpt lat="45.3761928" lon="8.0800476"><ele>255.0</ele><time>2026-04-19T09:43:53.955Z</time></trkpt><trkpt lat="45.3763327" lon="8.080128"><ele>255.0</ele><time>2026-04-19T09:43:54.956Z</time></trkpt><trkpt lat="45.3764789" lon="8.0802092"><ele>255.33333333333331</ele><time>2026-04-19T09:43:55.956Z</time></trkpt><trkpt lat="45.3766272" lon="8.0802941"><ele>255.66666666666666</ele><time>2026-04-19T09:43:56.955Z</time></trkpt><trkpt lat="45.3767783" lon="8.0803791"><ele>256.0</ele><time>2026-04-19T09:43:57.957Z</time></trkpt><trkpt lat="45.3769306" lon="8.080462"><ele>256.0</ele><time>2026-04-19T09:43:58.956Z</time></trkpt><trkpt lat="45.3770841" lon="8.0805489"><ele>256.0</ele><time>2026-04-19T09:43:59.956Z</time></trkpt><trkpt lat="45.3772351" lon="8.080633"><ele>256.0</ele><time>2026-04-19T09:44:00.955Z</time></trkpt><trkpt lat="45.37738" lon="8.0807143"><ele>257.0</ele><time>2026-04-19T09:44:01.956Z</time></trkpt><trkpt lat="45.3775227" lon="8.0807961"><ele>258.0</ele><time>2026-04-19T09:44:02.956Z</time></trkpt><trkpt lat="45.3776639" lon="8.0808748"><ele>259.0</ele><time>2026-04-19T09:44:03.955Z</time></trkpt><trkpt lat="45.3778056" lon="8.0809564"><ele>259.0</ele><time>2026-04-19T09:44:04.956Z</time></trkpt><trkpt lat="45.3779442" lon="8.081037"><ele>259.0</ele><time>2026-04-19T09:44:05.956Z</time></trkpt><trkpt lat="45.3780817" lon="8.0811143"><ele>259.0</ele><time>2026-04-19T09:44:06.955Z</time></trkpt><trkpt lat="45.3782197" lon="8.081193"><ele>259.0</ele><time>2026-04-19T09:44:07.955Z</time></trkpt><trkpt lat="45.3783596" lon="8.0812737"><ele>258.66666666666663</ele><time>2026-04-19T09:44:08.956Z</time></trkpt><trkpt lat="45.3784985" lon="8.081354"><ele>258.3333333333333</ele><time>2026-04-19T09:44:09.956Z</time></trkpt><trkpt lat="45.3786411" lon="8.0814367"><ele>258.0</ele><time>2026-04-19T09:44:10.955Z</time></trkpt><trkpt lat="45.3787847" lon="8.0815186"><ele>257.6666666666667</ele><time>2026-04-19T09:44:11.955Z</time></trkpt><trkpt lat="45.3789302" lon="8.0816026"><ele>257.33333333333337</ele><time>2026-04-19T09:44:12.957Z</time></trkpt><trkpt lat="45.3790778" lon="8.0816896"><ele>257.0</ele><time>2026-04-19T09:44:13.955Z</time></trkpt><trkpt lat="45.3792305" lon="8.0817779"><ele>257.0</ele><time>2026-04-19T09:44:14.956Z</time></trkpt><trkpt lat="45.379387" lon="8.0818691"><ele>257.0</ele><time>2026-04-19T09:44:15.956Z</time></trkpt><trkpt lat="45.3795372" lon="8.0819566"><ele>257.0</ele><time>2026-04-19T09:44:16.955Z</time></trkpt><trkpt lat="45.3796799" lon="8.0820391"><ele>257.25</ele><time>2026-04-19T09:44:17.955Z</time></trkpt><trkpt lat="45.3798189" lon="8.082118"><ele>257.5</ele><time>2026-04-19T09:44:18.956Z</time></trkpt><trkpt lat="45.3799574" lon="8.0821975"><ele>257.75</ele><time>2026-04-19T09:44:19.956Z</time></trkpt><trkpt lat="45.3800925" lon="8.0822733"><ele>258.0</ele><time>2026-04-19T09:44:20.955Z</time></trkpt><trkpt lat="45.3802298" lon="8.0823492"><ele>258.0</ele><time>2026-04-19T09:44:21.956Z</time></trkpt><trkpt lat="45.3803604" lon="8.0824215"><ele>258.0</ele><time>2026-04-19T09:44:22.956Z</time></trkpt><trkpt lat="45.3804923" lon="8.0824941"><ele>258.0</ele><time>2026-04-19T09:44:23.955Z</time></trkpt><trkpt lat="45.3806272" lon="8.0825652"><ele>258.0</ele><time>2026-04-19T09:44:24.955Z</time></trkpt><trkpt lat="45.3807581" lon="8.0826336"><ele>257.5</ele><time>2026-04-19T09:44:25.955Z</time></trkpt><trkpt lat="45.3808796" lon="8.0827014"><ele>257.0</ele><time>2026-04-19T09:44:26.956Z</time></trkpt><trkpt lat="45.3809931" lon="8.0827643"><ele>256.5</ele><time>2026-04-19T09:44:27.955Z</time></trkpt><trkpt lat="45.3810991" lon="8.0828249"><ele>256.0</ele><time>2026-04-19T09:44:28.955Z</time></trkpt><trkpt lat="45.3812002" lon="8.0828835"><ele>256.0</ele><time>2026-04-19T09:44:29.956Z</time></trkpt><trkpt lat="45.3813007" lon="8.082941"><ele>256.0</ele><time>2026-04-19T09:44:30.955Z</time></trkpt><trkpt lat="45.3813943" lon="8.0829961"><ele>256.0</ele><time>2026-04-19T09:44:31.955Z</time></trkpt><trkpt lat="45.3814818" lon="8.0830468"><ele>256.0</ele><time>2026-04-19T09:44:32.955Z</time></trkpt><trkpt lat="45.3815623" lon="8.0830961"><ele>256.0</ele><time>2026-04-19T09:44:33.956Z</time></trkpt><trkpt lat="45.3816415" lon="8.0831394"><ele>256.3333333333333</ele><time>2026-04-19T09:44:34.956Z</time></trkpt><trkpt lat="45.3817194" lon="8.0831688"><ele>256.66666666666663</ele><time>2026-04-19T09:44:35.956Z</time></trkpt><trkpt lat="45.3817872" lon="8.0831875"><ele>257.0</ele><time>2026-04-19T09:44:36.955Z</time></trkpt><trkpt lat="45.3818832" lon="8.0832094"><ele>257.3333333333333</ele><time>2026-04-19T09:44:38.955Z</time></trkpt><trkpt lat="45.3819668" lon="8.0832105"><ele>257.6666666666667</ele><time>2026-04-19T09:44:41.955Z</time></trkpt><trkpt lat="45.3820457" lon="8.0831113"><ele>258.0</ele><time>2026-04-19T09:44:44.957Z</time></trkpt><trkpt lat="45.3821132" lon="8.0829605"><ele>258.0</ele><time>2026-04-19T09:44:46.955Z</time></trkpt><trkpt lat="45.3821441" lon="8.0828731"><ele>258.0</ele><time>2026-04-19T09:44:47.955Z</time></trkpt><trkpt lat="45.3821833" lon="8.0827943"><ele>258.0</ele><time>2026-04-19T09:44:48.955Z</time></trkpt><trkpt lat="45.3822333" lon="8.0827129"><ele>258.0</ele><time>2026-04-19T09:44:49.956Z</time></trkpt><trkpt lat="45.3822912" lon="8.0826449"><ele>258.0</ele><time>2026-04-19T09:44:50.956Z</time></trkpt><trkpt lat="45.3823752" lon="8.0826221"><ele>258.0</ele><time>2026-04-19T09:44:51.955Z</time></trkpt><trkpt lat="45.3824549" lon="8.0825946"><ele>258.4</ele><time>2026-04-19T09:44:52.956Z</time></trkpt><trkpt lat="45.3825343" lon="8.0825702"><ele>258.8</ele><time>2026-04-19T09:44:53.956Z</time></trkpt><trkpt lat="45.3826181" lon="8.0825385"><ele>259.2</ele><time>2026-04-19T09:44:54.957Z</time></trkpt><trkpt lat="45.382718" lon="8.0825264"><ele>259.6</ele><time>2026-04-19T09:44:55.955Z</time></trkpt><trkpt lat="45.382814" lon="8.0824791"><ele>260.0</ele><time>2026-04-19T09:44:56.955Z</time></trkpt><trkpt lat="45.3829034" lon="8.0824221"><ele>260.1666666666667</ele><time>2026-04-19T09:44:57.955Z</time></trkpt><trkpt lat="45.3829924" lon="8.0823589"><ele>260.33333333333337</ele><time>2026-04-19T09:44:58.956Z</time></trkpt><trkpt lat="45.3830444" lon="8.0822881"><ele>260.5</ele><time>2026-04-19T09:44:59.956Z</time></trkpt><trkpt lat="45.3831138" lon="8.0822062"><ele>260.6666666666667</ele><time>2026-04-19T09:45:00.955Z</time></trkpt><trkpt lat="45.3831841" lon="8.082134"><ele>260.8333333333333</ele><time>2026-04-19T09:45:01.955Z</time></trkpt><trkpt lat="45.3832598" lon="8.0820655"><ele>261.0</ele><time>2026-04-19T09:45:02.955Z</time></trkpt><trkpt lat="45.3833198" lon="8.0820011"><ele>261.0</ele><time>2026-04-19T09:45:03.955Z</time></trkpt><trkpt lat="45.3833859" lon="8.0819443"><ele>261.0</ele><time>2026-04-19T09:45:04.955Z</time></trkpt><trkpt lat="45.3834458" lon="8.0818873"><ele>261.0</ele><time>2026-04-19T09:45:05.956Z</time></trkpt><trkpt lat="45.3835066" lon="8.0818365"><ele>261.0</ele><time>2026-04-19T09:45:06.955Z</time></trkpt><trkpt lat="45.3835673" lon="8.0817803"><ele>261.0</ele><time>2026-04-19T09:45:07.955Z</time></trkpt><trkpt lat="45.3836294" lon="8.0817189"><ele>261.0</ele><time>2026-04-19T09:45:08.956Z</time></trkpt><trkpt lat="45.3836835" lon="8.0816513"><ele>261.0</ele><time>2026-04-19T09:45:09.955Z</time></trkpt><trkpt lat="45.3837355" lon="8.0815817"><ele>261.1666666666667</ele><time>2026-04-19T09:45:10.956Z</time></trkpt><trkpt lat="45.3837936" lon="8.0815126"><ele>261.3333333333333</ele><time>2026-04-19T09:45:11.955Z</time></trkpt><trkpt lat="45.3838522" lon="8.0814479"><ele>261.5</ele><time>2026-04-19T09:45:12.956Z</time></trkpt><trkpt lat="45.3839041" lon="8.0813918"><ele>261.66666666666663</ele><time>2026-04-19T09:45:13.956Z</time></trkpt><trkpt lat="45.3840138" lon="8.081278"><ele>261.8333333333333</ele><time>2026-04-19T09:45:15.956Z</time></trkpt><trkpt lat="45.3840759" lon="8.0812125"><ele>262.0</ele><time>2026-04-19T09:45:16.956Z</time></trkpt><trkpt lat="45.3841419" lon="8.0811486"><ele>262.14285714285717</ele><time>2026-04-19T09:45:17.955Z</time></trkpt><trkpt lat="45.384209" lon="8.0810809"><ele>262.28571428571433</ele><time>2026-04-19T09:45:18.955Z</time></trkpt><trkpt lat="45.3842704" lon="8.0810225"><ele>262.42857142857144</ele><time>2026-04-19T09:45:19.956Z</time></trkpt><trkpt lat="45.3843309" lon="8.0809677"><ele>262.57142857142856</ele><time>2026-04-19T09:45:20.955Z</time></trkpt><trkpt lat="45.3843966" lon="8.0809093"><ele>262.71428571428567</ele><time>2026-04-19T09:45:21.955Z</time></trkpt><trkpt lat="45.3844539" lon="8.0808593"><ele>262.85714285714283</ele><time>2026-04-19T09:45:22.955Z</time></trkpt><trkpt lat="45.3845106" lon="8.0808062"><ele>263.0</ele><time>2026-04-19T09:45:23.955Z</time></trkpt><trkpt lat="45.3845913" lon="8.0806745"><ele>263.33333333333337</ele><time>2026-04-19T09:45:25.955Z</time></trkpt><trkpt lat="45.3846279" lon="8.0805523"><ele>263.6666666666667</ele><time>2026-04-19T09:45:27.955Z</time></trkpt><trkpt lat="45.3846517" lon="8.0804371"><ele>264.0</ele><time>2026-04-19T09:45:30.955Z</time></trkpt><trkpt lat="45.3846799" lon="8.0803549"><ele>264.3333333333333</ele><time>2026-04-19T09:45:35.955Z</time></trkpt><trkpt lat="45.3847512" lon="8.0802874"><ele>264.66666666666663</ele><time>2026-04-19T09:45:39.957Z</time></trkpt><trkpt lat="45.3848172" lon="8.0802022"><ele>265.0</ele><time>2026-04-19T09:45:42.956Z</time></trkpt><trkpt lat="45.384869" lon="8.0801109"><ele>265.2857142857143</ele><time>2026-04-19T09:45:44.955Z</time></trkpt><trkpt lat="45.3849051" lon="8.080006"><ele>265.57142857142856</ele><time>2026-04-19T09:45:46.955Z</time></trkpt><trkpt lat="45.3849328" lon="8.0799203"><ele>265.8571428571429</ele><time>2026-04-19T09:45:48.956Z</time></trkpt><trkpt lat="45.3849611" lon="8.0798229"><ele>266.1428571428571</ele><time>2026-04-19T09:46:22.955Z</time></trkpt><trkpt lat="45.3849682" lon="8.0797234"><ele>266.42857142857144</ele><time>2026-04-19T09:46:24.954Z</time></trkpt><trkpt lat="45.3849861" lon="8.0796345"><ele>266.7142857142857</ele><time>2026-04-19T09:46:43.954Z</time></trkpt><trkpt lat="45.3850321" lon="8.0795435"><ele>267.0</ele><time>2026-04-19T09:46:46.954Z</time></trkpt><trkpt lat="45.3850783" lon="8.0794383"><ele>267.5</ele><time>2026-04-19T09:46:49.954Z</time></trkpt><trkpt lat="45.3850393" lon="8.0793631"><ele>268.0</ele><time>2026-04-19T09:46:54.954Z</time></trkpt><trkpt lat="45.3850605" lon="8.0792786"><ele>268.5</ele><time>2026-04-19T09:46:55.954Z</time></trkpt><trkpt lat="45.3850866" lon="8.0791862"><ele>269.0</ele><time>2026-04-19T09:46:56.954Z</time></trkpt><trkpt lat="45.3851054" lon="8.0790763"><ele>269.5</ele><time>2026-04-19T09:46:57.954Z</time></trkpt><trkpt lat="45.3851205" lon="8.078911"><ele>270.0</ele><time>2026-04-19T09:46:59.954Z</time></trkpt><trkpt lat="45.3851321" lon="8.0788197"><ele>270.0</ele><time>2026-04-19T09:47:00.954Z</time></trkpt><trkpt lat="45.3851343" lon="8.0787175"><ele>270.0</ele><time>2026-04-19T09:47:01.955Z</time></trkpt><trkpt lat="45.3851546" lon="8.0786261"><ele>270.0</ele><time>2026-04-19T09:47:02.954Z</time></trkpt><trkpt lat="45.3851814" lon="8.078535"><ele>270.0</ele><time>2026-04-19T09:47:03.954Z</time></trkpt><trkpt lat="45.385217" lon="8.0784547"><ele>270.0</ele><time>2026-04-19T09:47:04.954Z</time></trkpt><trkpt lat="45.3852493" lon="8.0783717"><ele>270.0</ele><time>2026-04-19T09:47:05.954Z</time></trkpt><trkpt lat="45.3852867" lon="8.0782324"><ele>270.0</ele><time>2026-04-19T09:47:07.955Z</time></trkpt><trkpt lat="45.3853051" lon="8.078099"><ele>270.0</ele><time>2026-04-19T09:47:09.954Z</time></trkpt><trkpt lat="45.3853293" lon="8.0779534"><ele>270.0</ele><time>2026-04-19T09:47:11.955Z</time></trkpt><trkpt lat="45.3853515" lon="8.0778419"><ele>270.0</ele><time>2026-04-19T09:47:14.954Z</time></trkpt><trkpt lat="45.3853769" lon="8.0777266"><ele>270.0</ele><time>2026-04-19T09:47:16.954Z</time></trkpt><trkpt lat="45.3854017" lon="8.0775676"><ele>270.0</ele><time>2026-04-19T09:47:18.954Z</time></trkpt><trkpt lat="45.3854171" lon="8.0774776"><ele>270.1666666666667</ele><time>2026-04-19T09:47:19.954Z</time></trkpt><trkpt lat="45.3854266" lon="8.077327"><ele>270.3333333333333</ele><time>2026-04-19T09:47:21.955Z</time></trkpt><trkpt lat="45.3854479" lon="8.0772077"><ele>270.5</ele><time>2026-04-19T09:47:23.955Z</time></trkpt><trkpt lat="45.3854648" lon="8.0771186"><ele>270.66666666666663</ele><time>2026-04-19T09:47:25.954Z</time></trkpt><trkpt lat="45.3854723" lon="8.076993"><ele>270.8333333333333</ele><time>2026-04-19T09:47:28.954Z</time></trkpt><trkpt lat="45.3854799" lon="8.0768962"><ele>271.0</ele><time>2026-04-19T09:47:30.954Z</time></trkpt><trkpt lat="45.3854795" lon="8.0767902"><ele>271.0</ele><time>2026-04-19T09:47:32.955Z</time></trkpt><trkpt lat="45.3854919" lon="8.0766783"><ele>271.0</ele><time>2026-04-19T09:47:34.954Z</time></trkpt><trkpt lat="45.3855063" lon="8.0765565"><ele>271.0</ele><time>2026-04-19T09:47:36.955Z</time></trkpt><trkpt lat="45.38552" lon="8.076453"><ele>271.0</ele><time>2026-04-19T09:47:38.954Z</time></trkpt><trkpt lat="45.3855296" lon="8.0763544"><ele>271.0</ele><time>2026-04-19T09:47:40.954Z</time></trkpt><trkpt lat="45.3855429" lon="8.0762353"><ele>271.0</ele><time>2026-04-19T09:47:42.954Z</time></trkpt><trkpt lat="45.3855581" lon="8.0761429"><ele>271.5</ele><time>2026-04-19T09:47:43.954Z</time></trkpt><trkpt lat="45.3855884" lon="8.0759954"><ele>272.0</ele><time>2026-04-19T09:47:45.955Z</time></trkpt><trkpt lat="45.3855932" lon="8.07589"><ele>272.5</ele><time>2026-04-19T09:47:46.954Z</time></trkpt><trkpt lat="45.3856059" lon="8.0757755"><ele>273.0</ele><time>2026-04-19T09:47:47.954Z</time></trkpt><trkpt lat="45.3856185" lon="8.0756447"><ele>273.5</ele><time>2026-04-19T09:47:48.954Z</time></trkpt><trkpt lat="45.3856348" lon="8.0755232"><ele>274.0</ele><time>2026-04-19T09:47:49.955Z</time></trkpt><trkpt lat="45.3856443" lon="8.075397"><ele>274.0</ele><time>2026-04-19T09:47:50.954Z</time></trkpt><trkpt lat="45.3856644" lon="8.0752877"><ele>274.0</ele><time>2026-04-19T09:47:51.954Z</time></trkpt><trkpt lat="45.3856723" lon="8.0751876"><ele>274.0</ele><time>2026-04-19T09:47:52.955Z</time></trkpt><trkpt lat="45.3856778" lon="8.075083"><ele>274.0</ele><time>2026-04-19T09:47:53.956Z</time></trkpt><trkpt lat="45.3856917" lon="8.0749346"><ele>274.0</ele><time>2026-04-19T09:47:55.955Z</time></trkpt><trkpt lat="45.3857102" lon="8.0748056"><ele>274.0</ele><time>2026-04-19T09:47:58.954Z</time></trkpt><trkpt lat="45.385722" lon="8.0746827"><ele>274.2</ele><time>2026-04-19T09:48:01.954Z</time></trkpt><trkpt lat="45.3857442" lon="8.0745751"><ele>274.4</ele><time>2026-04-19T09:48:03.955Z</time></trkpt><trkpt lat="45.3857771" lon="8.0743896"><ele>274.6</ele><time>2026-04-19T09:48:05.954Z</time></trkpt><trkpt lat="45.3858321" lon="8.074218"><ele>274.8</ele><time>2026-04-19T09:48:07.954Z</time></trkpt><trkpt lat="45.3858604" lon="8.0741105"><ele>275.0</ele><time>2026-04-19T09:48:08.954Z</time></trkpt><trkpt lat="45.3858825" lon="8.0739995"><ele>275.1666666666667</ele><time>2026-04-19T09:48:09.954Z</time></trkpt><trkpt lat="45.3858977" lon="8.0738839"><ele>275.33333333333337</ele><time>2026-04-19T09:48:10.955Z</time></trkpt><trkpt lat="45.3859061" lon="8.0737698"><ele>275.5</ele><time>2026-04-19T09:48:11.954Z</time></trkpt><trkpt lat="45.3859132" lon="8.0736651"><ele>275.6666666666667</ele><time>2026-04-19T09:48:12.954Z</time></trkpt><trkpt lat="45.3859223" lon="8.0735714"><ele>275.8333333333333</ele><time>2026-04-19T09:48:13.955Z</time></trkpt><trkpt lat="45.3859461" lon="8.073419"><ele>276.0</ele><time>2026-04-19T09:48:15.955Z</time></trkpt><trkpt lat="45.3859465" lon="8.0733109"><ele>276.2</ele><time>2026-04-19T09:48:17.955Z</time></trkpt><trkpt lat="45.3859461" lon="8.0732096"><ele>276.40000000000003</ele><time>2026-04-19T09:48:19.955Z</time></trkpt><trkpt lat="45.3859638" lon="8.0730814"><ele>276.6</ele><time>2026-04-19T09:48:22.955Z</time></trkpt><trkpt lat="45.3859816" lon="8.0729622"><ele>276.8</ele><time>2026-04-19T09:48:24.954Z</time></trkpt><trkpt lat="45.3860196" lon="8.0728043"><ele>277.0</ele><time>2026-04-19T09:48:26.955Z</time></trkpt><trkpt lat="45.3860769" lon="8.0726779"><ele>277.0</ele><time>2026-04-19T09:48:28.954Z</time></trkpt><trkpt lat="45.3861164" lon="8.0726006"><ele>277.0</ele><time>2026-04-19T09:48:29.954Z</time></trkpt><trkpt lat="45.3861443" lon="8.0725102"><ele>277.0</ele><time>2026-04-19T09:48:30.954Z</time></trkpt><trkpt lat="45.3861555" lon="8.0723398"><ele>277.0</ele><time>2026-04-19T09:48:32.954Z</time></trkpt><trkpt lat="45.3861545" lon="8.0722038"><ele>277.0</ele><time>2026-04-19T09:48:34.954Z</time></trkpt><trkpt lat="45.3861678" lon="8.0720875"><ele>277.0</ele><time>2026-04-19T09:48:36.954Z</time></trkpt><trkpt lat="45.3861982" lon="8.0719583"><ele>277.3333333333333</ele><time>2026-04-19T09:48:38.954Z</time></trkpt><trkpt lat="45.3862009" lon="8.0718601"><ele>277.66666666666663</ele><time>2026-04-19T09:48:40.955Z</time></trkpt><trkpt lat="45.3862089" lon="8.0717426"><ele>278.0</ele><time>2026-04-19T09:48:42.955Z</time></trkpt><trkpt lat="45.3862333" lon="8.0716257"><ele>278.3333333333333</ele><time>2026-04-19T09:48:44.954Z</time></trkpt><trkpt lat="45.3862576" lon="8.0715213"><ele>278.6666666666667</ele><time>2026-04-19T09:48:46.954Z</time></trkpt><trkpt lat="45.3862629" lon="8.0714059"><ele>279.0</ele><time>2026-04-19T09:48:48.954Z</time></trkpt><trkpt lat="45.3862467" lon="8.0712734"><ele>279.2</ele><time>2026-04-19T09:48:50.954Z</time></trkpt><trkpt lat="45.3862349" lon="8.0711579"><ele>279.4</ele><time>2026-04-19T09:48:52.954Z</time></trkpt><trkpt lat="45.3862292" lon="8.0710326"><ele>279.6</ele><time>2026-04-19T09:48:54.954Z</time></trkpt><trkpt lat="45.3862395" lon="8.0709029"><ele>279.8</ele><time>2026-04-19T09:48:56.955Z</time></trkpt><trkpt lat="45.3862608" lon="8.0707443"><ele>280.0</ele><time>2026-04-19T09:48:58.954Z</time></trkpt><trkpt lat="45.3863109" lon="8.0705987"><ele>280.4</ele><time>2026-04-19T09:49:00.954Z</time></trkpt><trkpt lat="45.3863563" lon="8.0704581"><ele>280.8</ele><time>2026-04-19T09:49:02.954Z</time></trkpt><trkpt lat="45.3863906" lon="8.070328"><ele>281.2</ele><time>2026-04-19T09:49:04.954Z</time></trkpt><trkpt lat="45.3864281" lon="8.070207"><ele>281.6</ele><time>2026-04-19T09:49:06.955Z</time></trkpt><trkpt lat="45.3864761" lon="8.0700589"><ele>282.0</ele><time>2026-04-19T09:49:08.955Z</time></trkpt><trkpt lat="45.3864924" lon="8.0699345"><ele>282.4</ele><time>2026-04-19T09:49:10.955Z</time></trkpt><trkpt lat="45.3864924" lon="8.0698192"><ele>282.79999999999995</ele><time>2026-04-19T09:49:12.954Z</time></trkpt><trkpt lat="45.3864746" lon="8.0696802"><ele>283.2</ele><time>2026-04-19T09:49:14.954Z</time></trkpt><trkpt lat="45.3864606" lon="8.0695265"><ele>283.59999999999997</ele><time>2026-04-19T09:49:16.955Z</time></trkpt><trkpt lat="45.3864588" lon="8.0693725"><ele>284.0</ele><time>2026-04-19T09:49:18.955Z</time></trkpt><trkpt lat="45.3864693" lon="8.0692274"><ele>284.0</ele><time>2026-04-19T09:49:20.954Z</time></trkpt><trkpt lat="45.3864813" lon="8.0691108"><ele>284.0</ele><time>2026-04-19T09:49:22.955Z</time></trkpt><trkpt lat="45.3865119" lon="8.0689757"><ele>284.0</ele><time>2026-04-19T09:49:24.955Z</time></trkpt><trkpt lat="45.3865631" lon="8.0688472"><ele>284.0</ele><time>2026-04-19T09:49:26.956Z</time></trkpt><trkpt lat="45.3866102" lon="8.0687337"><ele>284.0</ele><time>2026-04-19T09:49:28.954Z</time></trkpt><trkpt lat="45.3866335" lon="8.0686079"><ele>284.5</ele><time>2026-04-19T09:49:30.954Z</time></trkpt><trkpt lat="45.3866071" lon="8.0684853"><ele>285.0</ele><time>2026-04-19T09:49:32.954Z</time></trkpt><trkpt lat="45.3865761" lon="8.0683682"><ele>285.5</ele><time>2026-04-19T09:49:35.954Z</time></trkpt><trkpt lat="45.386547" lon="8.0682874"><ele>286.0</ele><time>2026-04-19T09:49:39.955Z</time></trkpt><trkpt lat="45.3865299" lon="8.0681968"><ele>286.5</ele><time>2026-04-19T09:49:51.955Z</time></trkpt><trkpt lat="45.3866178" lon="8.0682171"><ele>287.0</ele><time>2026-04-19T09:49:53.955Z</time></trkpt><trkpt lat="45.3867288" lon="8.0682418"><ele>287.0</ele><time>2026-04-19T09:49:55.955Z</time></trkpt><trkpt lat="45.3868409" lon="8.0683178"><ele>287.0</ele><time>2026-04-19T09:49:57.954Z</time></trkpt><trkpt lat="45.3869197" lon="8.0684138"><ele>287.0</ele><time>2026-04-19T09:49:59.954Z</time></trkpt><trkpt lat="45.3870017" lon="8.0685631"><ele>287.0</ele><time>2026-04-19T09:50:01.955Z</time></trkpt><trkpt lat="45.3870734" lon="8.0687063"><ele>287.0</ele><time>2026-04-19T09:50:03.955Z</time></trkpt><trkpt lat="45.3871229" lon="8.0687686"><ele>287.0</ele><time>2026-04-19T09:50:04.954Z</time></trkpt><trkpt lat="45.3871756" lon="8.068836"><ele>287.0</ele><time>2026-04-19T09:50:05.954Z</time></trkpt><trkpt lat="45.3872398" lon="8.0689113"><ele>287.0</ele><time>2026-04-19T09:50:06.954Z</time></trkpt><trkpt lat="45.3873165" lon="8.0689857"><ele>287.0</ele><time>2026-04-19T09:50:07.954Z</time></trkpt><trkpt lat="45.3873938" lon="8.0690655"><ele>287.0</ele><time>2026-04-19T09:50:08.954Z</time></trkpt><trkpt lat="45.3874792" lon="8.0691374"><ele>286.6666666666667</ele><time>2026-04-19T09:50:09.954Z</time></trkpt><trkpt lat="45.3875553" lon="8.0691878"><ele>286.33333333333337</ele><time>2026-04-19T09:50:10.954Z</time></trkpt><trkpt lat="45.3876401" lon="8.0692177"><ele>286.0</ele><time>2026-04-19T09:50:11.955Z</time></trkpt><trkpt lat="45.3877169" lon="8.0692301"><ele>285.6666666666667</ele><time>2026-04-19T09:50:12.955Z</time></trkpt><trkpt lat="45.3878048" lon="8.0692255"><ele>285.3333333333333</ele><time>2026-04-19T09:50:13.954Z</time></trkpt><trkpt lat="45.3878966" lon="8.0692058"><ele>285.0</ele><time>2026-04-19T09:50:14.954Z</time></trkpt><trkpt lat="45.3879808" lon="8.0691815"><ele>284.6</ele><time>2026-04-19T09:50:15.954Z</time></trkpt><trkpt lat="45.3880663" lon="8.0691602"><ele>284.2</ele><time>2026-04-19T09:50:16.956Z</time></trkpt><trkpt lat="45.3881595" lon="8.0691898"><ele>283.8</ele><time>2026-04-19T09:50:17.954Z</time></trkpt><trkpt lat="45.3882455" lon="8.0691963"><ele>283.4</ele><time>2026-04-19T09:50:18.954Z</time></trkpt><trkpt lat="45.3883384" lon="8.069229"><ele>283.0</ele><time>2026-04-19T09:50:19.955Z</time></trkpt><trkpt lat="45.3884233" lon="8.0692501"><ele>283.0</ele><time>2026-04-19T09:50:20.954Z</time></trkpt><trkpt lat="45.3884946" lon="8.0692451"><ele>283.0</ele><time>2026-04-19T09:50:21.954Z</time></trkpt><trkpt lat="45.3885694" lon="8.0692475"><ele>283.0</ele><time>2026-04-19T09:50:22.954Z</time></trkpt><trkpt lat="45.3886447" lon="8.0692659"><ele>283.0</ele><time>2026-04-19T09:50:23.955Z</time></trkpt><trkpt lat="45.3887158" lon="8.0692842"><ele>283.0</ele><time>2026-04-19T09:50:24.954Z</time></trkpt><trkpt lat="45.3887893" lon="8.0693132"><ele>283.0</ele><time>2026-04-19T09:50:25.954Z</time></trkpt><trkpt lat="45.3888661" lon="8.0693499"><ele>283.5</ele><time>2026-04-19T09:50:26.954Z</time></trkpt><trkpt lat="45.3889072" lon="8.0694217"><ele>284.0</ele><time>2026-04-19T09:50:27.955Z</time></trkpt><trkpt lat="45.388961" lon="8.0694736"><ele>284.5</ele><time>2026-04-19T09:50:28.954Z</time></trkpt><trkpt lat="45.3890327" lon="8.069485"><ele>285.0</ele><time>2026-04-19T09:50:29.954Z</time></trkpt><trkpt lat="45.3891524" lon="8.0694795"><ele>285.5</ele><time>2026-04-19T09:50:31.954Z</time></trkpt><trkpt lat="45.389276" lon="8.0694995"><ele>286.0</ele><time>2026-04-19T09:50:33.955Z</time></trkpt><trkpt lat="45.3893198" lon="8.0695847"><ele>286.0</ele><time>2026-04-19T09:50:34.954Z</time></trkpt><trkpt lat="45.3894095" lon="8.0696649"><ele>286.0</ele><time>2026-04-19T09:50:36.954Z</time></trkpt><trkpt lat="45.3894701" lon="8.0697074"><ele>286.0</ele><time>2026-04-19T09:50:37.954Z</time></trkpt><trkpt lat="45.3895319" lon="8.0697575"><ele>286.0</ele><time>2026-04-19T09:50:38.954Z</time></trkpt><trkpt lat="45.3895893" lon="8.0698121"><ele>286.0</ele><time>2026-04-19T09:50:39.955Z</time></trkpt><trkpt lat="45.3896224" lon="8.0699114"><ele>286.0</ele><time>2026-04-19T09:50:40.956Z</time></trkpt><trkpt lat="45.3896557" lon="8.070006"><ele>286.16666666666663</ele><time>2026-04-19T09:50:41.955Z</time></trkpt><trkpt lat="45.3896789" lon="8.0700965"><ele>286.3333333333333</ele><time>2026-04-19T09:50:42.954Z</time></trkpt><trkpt lat="45.3896963" lon="8.0701845"><ele>286.5</ele><time>2026-04-19T09:50:43.954Z</time></trkpt><trkpt lat="45.3897142" lon="8.0702739"><ele>286.6666666666667</ele><time>2026-04-19T09:50:44.954Z</time></trkpt><trkpt lat="45.3897302" lon="8.0703633"><ele>286.83333333333337</ele><time>2026-04-19T09:50:45.955Z</time></trkpt><trkpt lat="45.3897828" lon="8.0705047"><ele>287.0</ele><time>2026-04-19T09:50:47.956Z</time></trkpt><trkpt lat="45.3898417" lon="8.0706376"><ele>286.5</ele><time>2026-04-19T09:50:49.956Z</time></trkpt><trkpt lat="45.3898495" lon="8.0707792"><ele>286.0</ele><time>2026-04-19T09:50:51.954Z</time></trkpt><trkpt lat="45.3898322" lon="8.0708708"><ele>285.5</ele><time>2026-04-19T09:50:52.954Z</time></trkpt><trkpt lat="45.3898179" lon="8.0709617"><ele>285.0</ele><time>2026-04-19T09:50:53.955Z</time></trkpt><trkpt lat="45.3898091" lon="8.0710572"><ele>284.5</ele><time>2026-04-19T09:50:54.954Z</time></trkpt><trkpt lat="45.389804" lon="8.0712224"><ele>284.0</ele><time>2026-04-19T09:50:56.954Z</time></trkpt><trkpt lat="45.3898546" lon="8.0713587"><ele>284.0</ele><time>2026-04-19T09:50:58.955Z</time></trkpt><trkpt lat="45.3899315" lon="8.0714572"><ele>284.0</ele><time>2026-04-19T09:51:00.954Z</time></trkpt><trkpt lat="45.3900106" lon="8.0715087"><ele>284.0</ele><time>2026-04-19T09:51:02.955Z</time></trkpt><trkpt lat="45.3900666" lon="8.0715586"><ele>284.0</ele><time>2026-04-19T09:51:04.955Z</time></trkpt><trkpt lat="45.3901444" lon="8.0715083"><ele>284.0</ele><time>2026-04-19T09:51:07.955Z</time></trkpt><trkpt lat="45.3902103" lon="8.0714226"><ele>284.0</ele><time>2026-04-19T09:51:09.955Z</time></trkpt><trkpt lat="45.390271" lon="8.0713845"><ele>284.0</ele><time>2026-04-19T09:51:11.954Z</time></trkpt><trkpt lat="45.3903363" lon="8.0713302"><ele>284.0</ele><time>2026-04-19T09:51:13.954Z</time></trkpt><trkpt lat="45.3904009" lon="8.07121"><ele>284.0</ele><time>2026-04-19T09:51:15.954Z</time></trkpt><trkpt lat="45.3904674" lon="8.0710537"><ele>284.0</ele><time>2026-04-19T09:51:17.954Z</time></trkpt><trkpt lat="45.3905406" lon="8.0708992"><ele>284.0</ele><time>2026-04-19T09:51:19.954Z</time></trkpt><trkpt lat="45.3905887" lon="8.0708225"><ele>284.6666666666667</ele><time>2026-04-19T09:51:20.955Z</time></trkpt><trkpt lat="45.3906417" lon="8.0707532"><ele>285.33333333333337</ele><time>2026-04-19T09:51:21.955Z</time></trkpt><trkpt lat="45.3907171" lon="8.0706446"><ele>286.0</ele><time>2026-04-19T09:51:23.954Z</time></trkpt><trkpt lat="45.3907672" lon="8.0705859"><ele>286.6666666666667</ele><time>2026-04-19T09:51:24.955Z</time></trkpt><trkpt lat="45.3908491" lon="8.0704712"><ele>287.3333333333333</ele><time>2026-04-19T09:51:26.955Z</time></trkpt><trkpt lat="45.390897" lon="8.0703874"><ele>288.0</ele><time>2026-04-19T09:51:27.955Z</time></trkpt><trkpt lat="45.3909533" lon="8.0702851"><ele>288.00000000000006</ele><time>2026-04-19T09:51:28.956Z</time></trkpt><trkpt lat="45.3909978" lon="8.0701964"><ele>288.0</ele><time>2026-04-19T09:51:29.954Z</time></trkpt><trkpt lat="45.3910409" lon="8.0701116"><ele>288.0</ele><time>2026-04-19T09:51:30.954Z</time></trkpt><trkpt lat="45.3910754" lon="8.0700351"><ele>288.0</ele><time>2026-04-19T09:51:31.955Z</time></trkpt><trkpt lat="45.3911082" lon="8.0699563"><ele>288.0</ele><time>2026-04-19T09:51:32.954Z</time></trkpt><trkpt lat="45.3911381" lon="8.0698627"><ele>288.00000000000006</ele><time>2026-04-19T09:51:33.954Z</time></trkpt><trkpt lat="45.3911706" lon="8.0697615"><ele>288.0</ele><time>2026-04-19T09:51:34.955Z</time></trkpt><trkpt lat="45.3912084" lon="8.0696464"><ele>289.0</ele><time>2026-04-19T09:51:35.953Z</time></trkpt><trkpt lat="45.3912456" lon="8.0695324"><ele>290.0</ele><time>2026-04-19T09:51:36.954Z</time></trkpt><trkpt lat="45.3912625" lon="8.0694116"><ele>291.0</ele><time>2026-04-19T09:51:37.954Z</time></trkpt><trkpt lat="45.3912797" lon="8.0692874"><ele>292.0</ele><time>2026-04-19T09:51:38.953Z</time></trkpt><trkpt lat="45.3912868" lon="8.0691526"><ele>293.0</ele><time>2026-04-19T09:51:39.954Z</time></trkpt><trkpt lat="45.3912985" lon="8.0690296"><ele>294.0</ele><time>2026-04-19T09:51:40.953Z</time></trkpt><trkpt lat="45.3913155" lon="8.0688842"><ele>293.8</ele><time>2026-04-19T09:51:41.953Z</time></trkpt><trkpt lat="45.3913435" lon="8.0687354"><ele>293.59999999999997</ele><time>2026-04-19T09:51:42.954Z</time></trkpt><trkpt lat="45.39137" lon="8.068601"><ele>293.4</ele><time>2026-04-19T09:51:43.953Z</time></trkpt><trkpt lat="45.3913987" lon="8.0684682"><ele>293.2</ele><time>2026-04-19T09:51:44.953Z</time></trkpt><trkpt lat="45.3914365" lon="8.068327"><ele>293.0</ele><time>2026-04-19T09:51:45.954Z</time></trkpt><trkpt lat="45.3914672" lon="8.0682108"><ele>293.0</ele><time>2026-04-19T09:51:46.954Z</time></trkpt><trkpt lat="45.3914866" lon="8.0680716"><ele>293.0</ele><time>2026-04-19T09:51:47.953Z</time></trkpt><trkpt lat="45.3914983" lon="8.0679426"><ele>293.0</ele><time>2026-04-19T09:51:48.953Z</time></trkpt><trkpt lat="45.3915164" lon="8.0678082"><ele>293.0</ele><time>2026-04-19T09:51:49.953Z</time></trkpt><trkpt lat="45.3915347" lon="8.0676757"><ele>293.0</ele><time>2026-04-19T09:51:50.954Z</time></trkpt><trkpt lat="45.3915479" lon="8.0675463"><ele>293.5</ele><time>2026-04-19T09:51:51.954Z</time></trkpt><trkpt lat="45.3915613" lon="8.0674269"><ele>294.0</ele><time>2026-04-19T09:51:52.953Z</time></trkpt><trkpt lat="45.391566" lon="8.0673078"><ele>294.5</ele><time>2026-04-19T09:51:53.953Z</time></trkpt><trkpt lat="45.3915742" lon="8.0671916"><ele>295.0</ele><time>2026-04-19T09:51:54.953Z</time></trkpt><trkpt lat="45.3915785" lon="8.0670833"><ele>295.5</ele><time>2026-04-19T09:51:55.953Z</time></trkpt><trkpt lat="45.3915348" lon="8.0669596"><ele>296.0</ele><time>2026-04-19T09:51:56.953Z</time></trkpt><trkpt lat="45.3915159" lon="8.0668114"><ele>296.0</ele><time>2026-04-19T09:51:57.955Z</time></trkpt><trkpt lat="45.3914986" lon="8.0666668"><ele>296.0</ele><time>2026-04-19T09:51:58.953Z</time></trkpt><trkpt lat="45.3914756" lon="8.0665027"><ele>296.0</ele><time>2026-04-19T09:51:59.954Z</time></trkpt><trkpt lat="45.3914887" lon="8.0663439"><ele>296.0</ele><time>2026-04-19T09:52:00.953Z</time></trkpt><trkpt lat="45.3914811" lon="8.0662235"><ele>296.0</ele><time>2026-04-19T09:52:01.953Z</time></trkpt><trkpt lat="45.3914528" lon="8.0661353"><ele>296.75</ele><time>2026-04-19T09:52:02.953Z</time></trkpt><trkpt lat="45.3914271" lon="8.0659971"><ele>297.5</ele><time>2026-04-19T09:52:03.954Z</time></trkpt><trkpt lat="45.3913946" lon="8.0658759"><ele>298.25</ele><time>2026-04-19T09:52:04.953Z</time></trkpt><trkpt lat="45.3913148" lon="8.0657092"><ele>299.0</ele><time>2026-04-19T09:52:05.953Z</time></trkpt><trkpt lat="45.3912589" lon="8.065553"><ele>299.25</ele><time>2026-04-19T09:52:06.953Z</time></trkpt><trkpt lat="45.3911802" lon="8.0654204"><ele>299.5</ele><time>2026-04-19T09:52:07.953Z</time></trkpt><trkpt lat="45.3911112" lon="8.0652808"><ele>299.75</ele><time>2026-04-19T09:52:08.954Z</time></trkpt><trkpt lat="45.3910389" lon="8.0651294"><ele>300.0</ele><time>2026-04-19T09:52:09.954Z</time></trkpt><trkpt lat="45.3909927" lon="8.0649671"><ele>300.2</ele><time>2026-04-19T09:52:10.954Z</time></trkpt><trkpt lat="45.3909252" lon="8.0648061"><ele>300.4</ele><time>2026-04-19T09:52:11.953Z</time></trkpt><trkpt lat="45.3908718" lon="8.0646639"><ele>300.6</ele><time>2026-04-19T09:52:12.953Z</time></trkpt><trkpt lat="45.3908477" lon="8.0645431"><ele>300.8</ele><time>2026-04-19T09:52:13.954Z</time></trkpt><trkpt lat="45.3908045" lon="8.064465"><ele>301.0</ele><time>2026-04-19T09:52:14.955Z</time></trkpt><trkpt lat="45.3907537" lon="8.0643919"><ele>301.0</ele><time>2026-04-19T09:52:15.954Z</time></trkpt><trkpt lat="45.3906462" lon="8.0643211"><ele>301.0</ele><time>2026-04-19T09:52:17.953Z</time></trkpt><trkpt lat="45.3905314" lon="8.0642578"><ele>301.0</ele><time>2026-04-19T09:52:19.954Z</time></trkpt><trkpt lat="45.3904882" lon="8.0641922"><ele>301.0</ele><time>2026-04-19T09:52:20.953Z</time></trkpt><trkpt lat="45.3904315" lon="8.0641119"><ele>301.0</ele><time>2026-04-19T09:52:21.954Z</time></trkpt><trkpt lat="45.3904094" lon="8.0639795"><ele>300.3333333333333</ele><time>2026-04-19T09:52:22.954Z</time></trkpt><trkpt lat="45.3903657" lon="8.0638726"><ele>299.66666666666663</ele><time>2026-04-19T09:52:23.954Z</time></trkpt><trkpt lat="45.3903994" lon="8.0637395"><ele>299.0</ele><time>2026-04-19T09:52:25.953Z</time></trkpt><trkpt lat="45.3904347" lon="8.0636605"><ele>298.3333333333333</ele><time>2026-04-19T09:52:29.953Z</time></trkpt><trkpt lat="45.390473" lon="8.0635839"><ele>297.6666666666667</ele><time>2026-04-19T09:54:15.954Z</time></trkpt><trkpt lat="45.3905985" lon="8.063549"><ele>297.0</ele><time>2026-04-19T09:54:17.953Z</time></trkpt><trkpt lat="45.3906802" lon="8.0635263"><ele>297.0</ele><time>2026-04-19T09:54:18.953Z</time></trkpt><trkpt lat="45.3907781" lon="8.0634852"><ele>297.0</ele><time>2026-04-19T09:54:19.954Z</time></trkpt><trkpt lat="45.3908879" lon="8.0634416"><ele>297.0</ele><time>2026-04-19T09:54:20.954Z</time></trkpt><trkpt lat="45.3910091" lon="8.0633751"><ele>297.0</ele><time>2026-04-19T09:54:21.954Z</time></trkpt><trkpt lat="45.3911251" lon="8.0632936"><ele>297.75</ele><time>2026-04-19T09:54:22.954Z</time></trkpt><trkpt lat="45.3912336" lon="8.0632079"><ele>298.5</ele><time>2026-04-19T09:54:23.953Z</time></trkpt><trkpt lat="45.3913388" lon="8.06312"><ele>299.25</ele><time>2026-04-19T09:54:24.953Z</time></trkpt><trkpt lat="45.3914376" lon="8.0630461"><ele>300.0</ele><time>2026-04-19T09:54:25.954Z</time></trkpt><trkpt lat="45.391538" lon="8.0629603"><ele>301.0</ele><time>2026-04-19T09:54:26.953Z</time></trkpt><trkpt lat="45.3916327" lon="8.0628506"><ele>302.0</ele><time>2026-04-19T09:54:27.956Z</time></trkpt><trkpt lat="45.3917206" lon="8.062719"><ele>303.0</ele><time>2026-04-19T09:54:28.953Z</time></trkpt><trkpt lat="45.3918014" lon="8.0625617"><ele>304.0</ele><time>2026-04-19T09:54:29.953Z</time></trkpt><trkpt lat="45.3918679" lon="8.0623905"><ele>304.5</ele><time>2026-04-19T09:54:30.953Z</time></trkpt><trkpt lat="45.3919253" lon="8.0622036"><ele>305.0</ele><time>2026-04-19T09:54:31.953Z</time></trkpt><trkpt lat="45.39197" lon="8.0620213"><ele>305.5</ele><time>2026-04-19T09:54:32.953Z</time></trkpt><trkpt lat="45.3920182" lon="8.0618438"><ele>306.0</ele><time>2026-04-19T09:54:33.954Z</time></trkpt><trkpt lat="45.3920687" lon="8.0616669"><ele>305.75</ele><time>2026-04-19T09:54:34.955Z</time></trkpt><trkpt lat="45.3921251" lon="8.0614975"><ele>305.5</ele><time>2026-04-19T09:54:35.954Z</time></trkpt><trkpt lat="45.3921817" lon="8.061337"><ele>305.25</ele><time>2026-04-19T09:54:36.953Z</time></trkpt><trkpt lat="45.3922507" lon="8.061195"><ele>305.0</ele><time>2026-04-19T09:54:37.954Z</time></trkpt><trkpt lat="45.3923175" lon="8.061055"><ele>305.0</ele><time>2026-04-19T09:54:38.953Z</time></trkpt><trkpt lat="45.3923812" lon="8.0609302"><ele>305.0</ele><time>2026-04-19T09:54:39.953Z</time></trkpt><trkpt lat="45.3924421" lon="8.0608149"><ele>305.0</ele><time>2026-04-19T09:54:40.953Z</time></trkpt><trkpt lat="45.3924989" lon="8.0607161"><ele>305.0</ele><time>2026-04-19T09:54:41.954Z</time></trkpt><trkpt lat="45.3925597" lon="8.0606299"><ele>305.0</ele><time>2026-04-19T09:54:42.954Z</time></trkpt><trkpt lat="45.392623" lon="8.0605593"><ele>304.83333333333337</ele><time>2026-04-19T09:54:43.954Z</time></trkpt><trkpt lat="45.3926867" lon="8.0605019"><ele>304.6666666666667</ele><time>2026-04-19T09:54:44.954Z</time></trkpt><trkpt lat="45.3927478" lon="8.0604617"><ele>304.5</ele><time>2026-04-19T09:54:45.953Z</time></trkpt><trkpt lat="45.3928279" lon="8.0604099"><ele>304.3333333333333</ele><time>2026-04-19T09:54:47.952Z</time></trkpt><trkpt lat="45.3928116" lon="8.0603068"><ele>304.16666666666663</ele><time>2026-04-19T09:54:50.953Z</time></trkpt><trkpt lat="45.3927229" lon="8.0603103"><ele>304.0</ele><time>2026-04-19T09:54:52.952Z</time></trkpt><trkpt lat="45.392626" lon="8.0603019"><ele>304.0</ele><time>2026-04-19T09:54:54.953Z</time></trkpt><trkpt lat="45.3925723" lon="8.0602493"><ele>304.0</ele><time>2026-04-19T09:54:56.953Z</time></trkpt><trkpt lat="45.3925297" lon="8.0601748"><ele>304.0</ele><time>2026-04-19T09:54:59.952Z</time></trkpt><trkpt lat="45.3924876" lon="8.0600124"><ele>304.0</ele><time>2026-04-19T09:55:44.952Z</time></trkpt><trkpt lat="45.3924229" lon="8.0598486"><ele>304.0</ele><time>2026-04-19T09:55:46.953Z</time></trkpt><trkpt lat="45.3923916" lon="8.0597526"><ele>303.66666666666663</ele><time>2026-04-19T09:55:47.952Z</time></trkpt><trkpt lat="45.3923441" lon="8.0596653"><ele>303.3333333333333</ele><time>2026-04-19T09:55:48.953Z</time></trkpt><trkpt lat="45.3922996" lon="8.0595623"><ele>303.0</ele><time>2026-04-19T09:55:49.952Z</time></trkpt><trkpt lat="45.392254" lon="8.0594631"><ele>302.6666666666667</ele><time>2026-04-19T09:55:50.952Z</time></trkpt><trkpt lat="45.3922127" lon="8.0593588"><ele>302.33333333333337</ele><time>2026-04-19T09:55:51.953Z</time></trkpt><trkpt lat="45.3921668" lon="8.0592532"><ele>302.0</ele><time>2026-04-19T09:55:52.954Z</time></trkpt><trkpt lat="45.3921264" lon="8.0591472"><ele>304.0</ele><time>2026-04-19T09:55:53.953Z</time></trkpt><trkpt lat="45.3920776" lon="8.059038"><ele>306.0</ele><time>2026-04-19T09:55:54.952Z</time></trkpt><trkpt lat="45.3920336" lon="8.0589269"><ele>308.0</ele><time>2026-04-19T09:55:55.953Z</time></trkpt><trkpt lat="45.3919868" lon="8.0588133"><ele>310.0</ele><time>2026-04-19T09:55:56.952Z</time></trkpt><trkpt lat="45.3919316" lon="8.0586996"><ele>312.0</ele><time>2026-04-19T09:55:57.953Z</time></trkpt><trkpt lat="45.3918784" lon="8.0585723"><ele>312.0</ele><time>2026-04-19T09:55:58.953Z</time></trkpt><trkpt lat="45.3918329" lon="8.0584608"><ele>312.0</ele><time>2026-04-19T09:55:59.953Z</time></trkpt><trkpt lat="45.3917935" lon="8.0583404"><ele>312.0</ele><time>2026-04-19T09:56:00.953Z</time></trkpt><trkpt lat="45.3917557" lon="8.0582128"><ele>312.0</ele><time>2026-04-19T09:56:01.953Z</time></trkpt><trkpt lat="45.391745" lon="8.0580357"><ele>312.0</ele><time>2026-04-19T09:56:02.953Z</time></trkpt><trkpt lat="45.3917397" lon="8.057863"><ele>310.5</ele><time>2026-04-19T09:56:03.952Z</time></trkpt><trkpt lat="45.3917319" lon="8.0577032"><ele>309.0</ele><time>2026-04-19T09:56:04.953Z</time></trkpt><trkpt lat="45.3917104" lon="8.057543"><ele>307.5</ele><time>2026-04-19T09:56:05.953Z</time></trkpt><trkpt lat="45.3916806" lon="8.0573741"><ele>306.0</ele><time>2026-04-19T09:56:06.952Z</time></trkpt><trkpt lat="45.3916629" lon="8.0571979"><ele>305.25</ele><time>2026-04-19T09:56:07.952Z</time></trkpt><trkpt lat="45.3916433" lon="8.0570192"><ele>304.5</ele><time>2026-04-19T09:56:08.953Z</time></trkpt><trkpt lat="45.3916225" lon="8.0568533"><ele>303.75</ele><time>2026-04-19T09:56:09.953Z</time></trkpt><trkpt lat="45.3915934" lon="8.0566868"><ele>303.0</ele><time>2026-04-19T09:56:10.952Z</time></trkpt><trkpt lat="45.3915494" lon="8.056518"><ele>302.25</ele><time>2026-04-19T09:56:11.952Z</time></trkpt><trkpt lat="45.3915153" lon="8.0563637"><ele>301.5</ele><time>2026-04-19T09:56:12.953Z</time></trkpt><trkpt lat="45.3914714" lon="8.056223"><ele>300.75</ele><time>2026-04-19T09:56:13.952Z</time></trkpt><trkpt lat="45.3914123" lon="8.0560787"><ele>300.0</ele><time>2026-04-19T09:56:14.953Z</time></trkpt><trkpt lat="45.3913661" lon="8.0559249"><ele>304.25</ele><time>2026-04-19T09:56:15.953Z</time></trkpt><trkpt lat="45.3913096" lon="8.0557744"><ele>308.5</ele><time>2026-04-19T09:56:16.952Z</time></trkpt><trkpt lat="45.3912706" lon="8.0556197"><ele>312.75</ele><time>2026-04-19T09:56:17.952Z</time></trkpt><trkpt lat="45.3912229" lon="8.0554661"><ele>317.0</ele><time>2026-04-19T09:56:18.954Z</time></trkpt><trkpt lat="45.39118" lon="8.0553115"><ele>317.0</ele><time>2026-04-19T09:56:19.952Z</time></trkpt><trkpt lat="45.3911639" lon="8.0551557"><ele>317.0</ele><time>2026-04-19T09:56:20.952Z</time></trkpt><trkpt lat="45.3911147" lon="8.0550059"><ele>317.0</ele><time>2026-04-19T09:56:21.952Z</time></trkpt><trkpt lat="45.3911164" lon="8.0548731"><ele>317.0</ele><time>2026-04-19T09:56:22.953Z</time></trkpt><trkpt lat="45.3911015" lon="8.0547082"><ele>317.0</ele><time>2026-04-19T09:56:23.953Z</time></trkpt><trkpt lat="45.3911028" lon="8.0545764"><ele>317.6</ele><time>2026-04-19T09:56:24.952Z</time></trkpt><trkpt lat="45.3911254" lon="8.054465"><ele>318.2</ele><time>2026-04-19T09:56:25.953Z</time></trkpt><trkpt lat="45.3911483" lon="8.05433"><ele>318.8</ele><time>2026-04-19T09:56:26.954Z</time></trkpt><trkpt lat="45.3911544" lon="8.054211"><ele>319.4</ele><time>2026-04-19T09:56:27.952Z</time></trkpt><trkpt lat="45.3911724" lon="8.0540755"><ele>320.0</ele><time>2026-04-19T09:56:28.952Z</time></trkpt><trkpt lat="45.3912057" lon="8.0539169"><ele>321.0</ele><time>2026-04-19T09:56:29.952Z</time></trkpt><trkpt lat="45.3912358" lon="8.0537867"><ele>322.0</ele><time>2026-04-19T09:56:30.952Z</time></trkpt><trkpt lat="45.3912568" lon="8.0536563"><ele>323.0</ele><time>2026-04-19T09:56:31.952Z</time></trkpt><trkpt lat="45.3912739" lon="8.0535346"><ele>324.0</ele><time>2026-04-19T09:56:32.952Z</time></trkpt><trkpt lat="45.3912928" lon="8.0534101"><ele>325.0</ele><time>2026-04-19T09:56:33.954Z</time></trkpt><trkpt lat="45.3913036" lon="8.053269"><ele>325.3333333333333</ele><time>2026-04-19T09:56:34.952Z</time></trkpt><trkpt lat="45.3913029" lon="8.053132"><ele>325.66666666666663</ele><time>2026-04-19T09:56:35.953Z</time></trkpt><trkpt lat="45.3913072" lon="8.0530127"><ele>326.0</ele><time>2026-04-19T09:56:36.953Z</time></trkpt><trkpt lat="45.3913115" lon="8.052889"><ele>326.3333333333333</ele><time>2026-04-19T09:56:37.952Z</time></trkpt><trkpt lat="45.3913198" lon="8.0527677"><ele>326.6666666666667</ele><time>2026-04-19T09:56:38.952Z</time></trkpt><trkpt lat="45.3913086" lon="8.0526454"><ele>327.0</ele><time>2026-04-19T09:56:39.952Z</time></trkpt><trkpt lat="45.3912855" lon="8.0525162"><ele>326.0</ele><time>2026-04-19T09:56:40.953Z</time></trkpt><trkpt lat="45.3912629" lon="8.0523866"><ele>325.0</ele><time>2026-04-19T09:56:41.953Z</time></trkpt><trkpt lat="45.3912413" lon="8.0522566"><ele>324.0</ele><time>2026-04-19T09:56:42.953Z</time></trkpt><trkpt lat="45.3912122" lon="8.052134"><ele>323.0</ele><time>2026-04-19T09:56:43.952Z</time></trkpt><trkpt lat="45.3911856" lon="8.0520059"><ele>322.0</ele><time>2026-04-19T09:56:44.952Z</time></trkpt><trkpt lat="45.3911636" lon="8.0518807"><ele>322.0</ele><time>2026-04-19T09:56:45.952Z</time></trkpt><trkpt lat="45.3911469" lon="8.0517533"><ele>322.0</ele><time>2026-04-19T09:56:46.953Z</time></trkpt><trkpt lat="45.3911332" lon="8.0516298"><ele>322.0</ele><time>2026-04-19T09:56:47.953Z</time></trkpt><trkpt lat="45.3911294" lon="8.0515186"><ele>322.0</ele><time>2026-04-19T09:56:48.952Z</time></trkpt><trkpt lat="45.3911148" lon="8.0513854"><ele>322.0</ele><time>2026-04-19T09:56:49.953Z</time></trkpt><trkpt lat="45.3910915" lon="8.0512422"><ele>321.40000000000003</ele><time>2026-04-19T09:56:50.952Z</time></trkpt><trkpt lat="45.3910768" lon="8.0511177"><ele>320.8</ele><time>2026-04-19T09:56:51.953Z</time></trkpt><trkpt lat="45.391068" lon="8.0509935"><ele>320.2</ele><time>2026-04-19T09:56:52.952Z</time></trkpt><trkpt lat="45.3910556" lon="8.0508891"><ele>319.6</ele><time>2026-04-19T09:56:53.952Z</time></trkpt><trkpt lat="45.3910336" lon="8.0507472"><ele>319.0</ele><time>2026-04-19T09:56:54.952Z</time></trkpt><trkpt lat="45.3910575" lon="8.0505894"><ele>319.0</ele><time>2026-04-19T09:56:55.952Z</time></trkpt><trkpt lat="45.3910582" lon="8.0504559"><ele>319.0</ele><time>2026-04-19T09:56:56.953Z</time></trkpt><trkpt lat="45.39107" lon="8.050321"><ele>319.0</ele><time>2026-04-19T09:56:57.952Z</time></trkpt><trkpt lat="45.3911172" lon="8.0501865"><ele>319.0</ele><time>2026-04-19T09:56:58.952Z</time></trkpt><trkpt lat="45.3912211" lon="8.0500985"><ele>319.0</ele><time>2026-04-19T09:56:59.954Z</time></trkpt><trkpt lat="45.3913072" lon="8.0499859"><ele>315.59999999999997</ele><time>2026-04-19T09:57:00.952Z</time></trkpt><trkpt lat="45.391387" lon="8.0498914"><ele>312.2</ele><time>2026-04-19T09:57:01.952Z</time></trkpt><trkpt lat="45.3914493" lon="8.0497727"><ele>308.79999999999995</ele><time>2026-04-19T09:57:02.954Z</time></trkpt><trkpt lat="45.3915097" lon="8.0496629"><ele>305.4</ele><time>2026-04-19T09:57:03.952Z</time></trkpt><trkpt lat="45.3915737" lon="8.0495499"><ele>302.0</ele><time>2026-04-19T09:57:04.953Z</time></trkpt><trkpt lat="45.3915833" lon="8.0494435"><ele>302.00000000000006</ele><time>2026-04-19T09:57:05.954Z</time></trkpt><trkpt lat="45.3915824" lon="8.0493529"><ele>302.0</ele><time>2026-04-19T09:57:06.952Z</time></trkpt><trkpt lat="45.3915439" lon="8.0492552"><ele>302.0</ele><time>2026-04-19T09:57:07.952Z</time></trkpt><trkpt lat="45.3915129" lon="8.0491535"><ele>302.0</ele><time>2026-04-19T09:57:09.952Z</time></trkpt><trkpt lat="45.3914577" lon="8.0490986"><ele>302.0</ele><time>2026-04-19T09:57:12.952Z</time></trkpt><trkpt lat="45.3914076" lon="8.0490279"><ele>302.00000000000006</ele><time>2026-04-19T09:57:31.953Z</time></trkpt><trkpt lat="45.3913306" lon="8.0490533"><ele>302.0</ele><time>2026-04-19T09:57:34.952Z</time></trkpt><trkpt lat="45.3912577" lon="8.0491115"><ele>303.6</ele><time>2026-04-19T09:57:35.952Z</time></trkpt><trkpt lat="45.3911681" lon="8.0491877"><ele>305.2</ele><time>2026-04-19T09:57:37.953Z</time></trkpt><trkpt lat="45.391065" lon="8.0491603"><ele>306.8</ele><time>2026-04-19T09:57:39.953Z</time></trkpt><trkpt lat="45.3909572" lon="8.0491268"><ele>308.4</ele><time>2026-04-19T09:57:41.953Z</time></trkpt><trkpt lat="45.3908533" lon="8.0491244"><ele>310.0</ele><time>2026-04-19T09:57:43.953Z</time></trkpt><trkpt lat="45.3907872" lon="8.0491374"><ele>311.8</ele><time>2026-04-19T09:57:44.952Z</time></trkpt><trkpt lat="45.3907228" lon="8.0492243"><ele>313.6</ele><time>2026-04-19T09:57:47.952Z</time></trkpt><trkpt lat="45.3907104" lon="8.049365"><ele>315.4</ele><time>2026-04-19T09:57:49.952Z</time></trkpt><trkpt lat="45.390668" lon="8.0495123"><ele>317.2</ele><time>2026-04-19T09:57:51.953Z</time></trkpt><trkpt lat="45.3906336" lon="8.0496107"><ele>319.0</ele><time>2026-04-19T09:57:52.952Z</time></trkpt><trkpt lat="45.3905559" lon="8.0497068"><ele>321.4</ele><time>2026-04-19T09:57:54.952Z</time></trkpt><trkpt lat="45.3904577" lon="8.0497684"><ele>323.79999999999995</ele><time>2026-04-19T09:57:56.952Z</time></trkpt><trkpt lat="45.3903728" lon="8.0497616"><ele>326.20000000000005</ele><time>2026-04-19T09:57:58.952Z</time></trkpt><trkpt lat="45.3902636" lon="8.0497572"><ele>328.6</ele><time>2026-04-19T09:58:00.952Z</time></trkpt><trkpt lat="45.3901385" lon="8.0498005"><ele>331.0</ele><time>2026-04-19T09:58:02.952Z</time></trkpt><trkpt lat="45.3900407" lon="8.0497949"><ele>331.0</ele><time>2026-04-19T09:58:04.952Z</time></trkpt><trkpt lat="45.3899526" lon="8.0497508"><ele>331.0</ele><time>2026-04-19T09:58:06.952Z</time></trkpt><trkpt lat="45.3898742" lon="8.0496991"><ele>331.0</ele><time>2026-04-19T09:58:08.952Z</time></trkpt><trkpt lat="45.3897526" lon="8.0496896"><ele>331.0</ele><time>2026-04-19T09:58:10.952Z</time></trkpt><trkpt lat="45.3896117" lon="8.0496901"><ele>331.0</ele><time>2026-04-19T09:58:12.952Z</time></trkpt><trkpt lat="45.3895241" lon="8.0496873"><ele>332.0</ele><time>2026-04-19T09:58:13.952Z</time></trkpt><trkpt lat="45.3894325" lon="8.0496899"><ele>333.0</ele><time>2026-04-19T09:58:14.953Z</time></trkpt><trkpt lat="45.3893492" lon="8.0496782"><ele>334.0</ele><time>2026-04-19T09:58:15.952Z</time></trkpt><trkpt lat="45.3892178" lon="8.0496406"><ele>335.0</ele><time>2026-04-19T09:58:17.953Z</time></trkpt><trkpt lat="45.3891434" lon="8.0496309"><ele>336.0</ele><time>2026-04-19T09:58:18.953Z</time></trkpt><trkpt lat="45.3890014" lon="8.0496611"><ele>336.0</ele><time>2026-04-19T09:58:20.953Z</time></trkpt><trkpt lat="45.3889282" lon="8.0496607"><ele>336.0</ele><time>2026-04-19T09:58:21.953Z</time></trkpt><trkpt lat="45.3888528" lon="8.0496698"><ele>336.0</ele><time>2026-04-19T09:58:22.953Z</time></trkpt><trkpt lat="45.3887507" lon="8.0496236"><ele>336.0</ele><time>2026-04-19T09:58:24.952Z</time></trkpt><trkpt lat="45.388655" lon="8.0495403"><ele>336.0</ele><time>2026-04-19T09:58:30.953Z</time></trkpt><trkpt lat="45.3885805" lon="8.0495046"><ele>336.0</ele><time>2026-04-19T09:58:32.952Z</time></trkpt><trkpt lat="45.3884877" lon="8.0494851"><ele>336.0</ele><time>2026-04-19T09:58:35.953Z</time></trkpt><trkpt lat="45.3884188" lon="8.049459"><ele>336.0</ele><time>2026-04-19T09:58:36.952Z</time></trkpt><trkpt lat="45.388341" lon="8.0493856"><ele>336.0</ele><time>2026-04-19T09:58:37.952Z</time></trkpt><trkpt lat="45.3882783" lon="8.0493369"><ele>336.0</ele><time>2026-04-19T09:58:38.953Z</time></trkpt><trkpt lat="45.388153" lon="8.0492776"><ele>336.0</ele><time>2026-04-19T09:58:40.952Z</time></trkpt><trkpt lat="45.3880293" lon="8.0492247"><ele>336.6666666666667</ele><time>2026-04-19T09:58:42.952Z</time></trkpt><trkpt lat="45.387946" lon="8.0491884"><ele>337.3333333333333</ele><time>2026-04-19T09:58:43.952Z</time></trkpt><trkpt lat="45.3878614" lon="8.0491395"><ele>338.0</ele><time>2026-04-19T09:58:44.952Z</time></trkpt><trkpt lat="45.3877772" lon="8.0491069"><ele>338.66666666666663</ele><time>2026-04-19T09:58:45.953Z</time></trkpt><trkpt lat="45.3877028" lon="8.0490544"><ele>339.3333333333333</ele><time>2026-04-19T09:58:46.952Z</time></trkpt><trkpt lat="45.3876399" lon="8.0489958"><ele>340.0</ele><time>2026-04-19T09:58:47.953Z</time></trkpt><trkpt lat="45.3875569" lon="8.0489018"><ele>338.4</ele><time>2026-04-19T09:58:49.953Z</time></trkpt><trkpt lat="45.3874935" lon="8.0488031"><ele>336.8</ele><time>2026-04-19T09:58:51.952Z</time></trkpt><trkpt lat="45.3874435" lon="8.0487018"><ele>335.20000000000005</ele><time>2026-04-19T09:58:53.952Z</time></trkpt><trkpt lat="45.387375" lon="8.0486253"><ele>333.6</ele><time>2026-04-19T09:58:55.952Z</time></trkpt><trkpt lat="45.3873119" lon="8.0485135"><ele>332.0</ele><time>2026-04-19T09:58:57.952Z</time></trkpt><trkpt lat="45.3872563" lon="8.0483949"><ele>332.0</ele><time>2026-04-19T09:58:59.952Z</time></trkpt><trkpt lat="45.3872028" lon="8.0483144"><ele>332.0</ele><time>2026-04-19T09:59:01.953Z</time></trkpt><trkpt lat="45.3871404" lon="8.0482709"><ele>332.0</ele><time>2026-04-19T09:59:03.952Z</time></trkpt><trkpt lat="45.3870759" lon="8.0482373"><ele>332.0</ele><time>2026-04-19T09:59:05.953Z</time></trkpt><trkpt lat="45.3870382" lon="8.0481404"><ele>332.0</ele><time>2026-04-19T09:59:08.953Z</time></trkpt><trkpt lat="45.3870859" lon="8.047982"><ele>332.0</ele><time>2026-04-19T09:59:10.953Z</time></trkpt><trkpt lat="45.387118" lon="8.0478207"><ele>333.6</ele><time>2026-04-19T09:59:12.953Z</time></trkpt><trkpt lat="45.3871213" lon="8.0477238"><ele>335.20000000000005</ele><time>2026-04-19T09:59:13.952Z</time></trkpt><trkpt lat="45.3871379" lon="8.0475648"><ele>336.8</ele><time>2026-04-19T09:59:15.953Z</time></trkpt><trkpt lat="45.387147" lon="8.0474632"><ele>338.4</ele><time>2026-04-19T09:59:16.953Z</time></trkpt><trkpt lat="45.3872047" lon="8.0472796"><ele>340.0</ele><time>2026-04-19T09:59:18.953Z</time></trkpt><trkpt lat="45.3872293" lon="8.0471959"><ele>340.0</ele><time>2026-04-19T09:59:19.952Z</time></trkpt><trkpt lat="45.3872716" lon="8.0470857"><ele>340.0</ele><time>2026-04-19T09:59:20.952Z</time></trkpt><trkpt lat="45.3873143" lon="8.046979"><ele>340.0</ele><time>2026-04-19T09:59:21.952Z</time></trkpt><trkpt lat="45.3873375" lon="8.0468935"><ele>340.0</ele><time>2026-04-19T09:59:22.952Z</time></trkpt><trkpt lat="45.387352" lon="8.0468049"><ele>340.0</ele><time>2026-04-19T09:59:23.952Z</time></trkpt><trkpt lat="45.3873542" lon="8.0466352"><ele>340.0</ele><time>2026-04-19T09:59:25.953Z</time></trkpt><trkpt lat="45.387358" lon="8.0465278"><ele>340.3333333333333</ele><time>2026-04-19T09:59:27.953Z</time></trkpt><trkpt lat="45.3873307" lon="8.04641"><ele>340.66666666666663</ele><time>2026-04-19T09:59:30.952Z</time></trkpt><trkpt lat="45.3872803" lon="8.0463547"><ele>341.0</ele><time>2026-04-19T09:59:33.953Z</time></trkpt><trkpt lat="45.3872356" lon="8.0462914"><ele>341.3333333333333</ele><time>2026-04-19T10:00:15.952Z</time></trkpt><trkpt lat="45.3872492" lon="8.046162"><ele>341.6666666666667</ele><time>2026-04-19T10:00:18.952Z</time></trkpt><trkpt lat="45.3872594" lon="8.0460477"><ele>342.0</ele><time>2026-04-19T10:00:20.952Z</time></trkpt><trkpt lat="45.3872393" lon="8.0459434"><ele>342.0</ele><time>2026-04-19T10:00:46.952Z</time></trkpt><trkpt lat="45.387269" lon="8.0458505"><ele>342.0</ele><time>2026-04-19T10:01:00.952Z</time></trkpt><trkpt lat="45.3872897" lon="8.0457107"><ele>342.0</ele><time>2026-04-19T10:01:02.951Z</time></trkpt><trkpt lat="45.3873218" lon="8.0455465"><ele>342.0</ele><time>2026-04-19T10:01:04.952Z</time></trkpt><trkpt lat="45.3873552" lon="8.0453917"><ele>342.0</ele><time>2026-04-19T10:01:06.953Z</time></trkpt><trkpt lat="45.3873561" lon="8.0452925"><ele>341.6</ele><time>2026-04-19T10:01:07.952Z</time></trkpt><trkpt lat="45.3873616" lon="8.0451467"><ele>341.20000000000005</ele><time>2026-04-19T10:01:09.952Z</time></trkpt><trkpt lat="45.3873785" lon="8.0450326"><ele>340.8</ele><time>2026-04-19T10:01:11.952Z</time></trkpt><trkpt lat="45.3874276" lon="8.0448741"><ele>340.4</ele><time>2026-04-19T10:01:13.952Z</time></trkpt><trkpt lat="45.3874746" lon="8.0447848"><ele>340.0</ele><time>2026-04-19T10:01:14.952Z</time></trkpt><trkpt lat="45.3875221" lon="8.0446916"><ele>341.4</ele><time>2026-04-19T10:01:15.952Z</time></trkpt><trkpt lat="45.3875743" lon="8.044603"><ele>342.8</ele><time>2026-04-19T10:01:16.952Z</time></trkpt><trkpt lat="45.3876432" lon="8.0445196"><ele>344.20000000000005</ele><time>2026-04-19T10:01:17.951Z</time></trkpt><trkpt lat="45.3877243" lon="8.0444079"><ele>345.6</ele><time>2026-04-19T10:01:19.951Z</time></trkpt><trkpt lat="45.3877656" lon="8.0443387"><ele>347.0</ele><time>2026-04-19T10:01:20.952Z</time></trkpt><trkpt lat="45.3878484" lon="8.0442347"><ele>347.0</ele><time>2026-04-19T10:01:22.952Z</time></trkpt><trkpt lat="45.387889" lon="8.0441466"><ele>347.0</ele><time>2026-04-19T10:01:25.952Z</time></trkpt><trkpt lat="45.3879383" lon="8.0439332"><ele>347.0</ele><time>2026-04-19T10:01:34.951Z</time></trkpt><trkpt lat="45.3879805" lon="8.0437167"><ele>347.0</ele><time>2026-04-19T10:01:36.952Z</time></trkpt><trkpt lat="45.3880436" lon="8.0435858"><ele>344.83333333333337</ele><time>2026-04-19T10:01:37.952Z</time></trkpt><trkpt lat="45.3880721" lon="8.0434466"><ele>342.6666666666667</ele><time>2026-04-19T10:01:38.951Z</time></trkpt><trkpt lat="45.3880802" lon="8.0433365"><ele>340.5</ele><time>2026-04-19T10:01:39.951Z</time></trkpt><trkpt lat="45.3881055" lon="8.0432155"><ele>338.3333333333333</ele><time>2026-04-19T10:01:40.951Z</time></trkpt><trkpt lat="45.3881295" lon="8.0431082"><ele>336.16666666666663</ele><time>2026-04-19T10:01:41.952Z</time></trkpt><trkpt lat="45.3881236" lon="8.0430059"><ele>334.0</ele><time>2026-04-19T10:01:42.951Z</time></trkpt><trkpt lat="45.388085" lon="8.0429121"><ele>333.0</ele><time>2026-04-19T10:01:43.951Z</time></trkpt><trkpt lat="45.3880504" lon="8.0428062"><ele>332.0</ele><time>2026-04-19T10:01:44.951Z</time></trkpt><trkpt lat="45.3880158" lon="8.0426831"><ele>331.0</ele><time>2026-04-19T10:01:45.951Z</time></trkpt><trkpt lat="45.3879857" lon="8.0425507"><ele>330.0</ele><time>2026-04-19T10:01:46.95Z</time></trkpt><trkpt lat="45.3879404" lon="8.0424367"><ele>329.0</ele><time>2026-04-19T10:01:47.951Z</time></trkpt><trkpt lat="45.3879104" lon="8.0423379"><ele>328.0</ele><time>2026-04-19T10:01:48.952Z</time></trkpt><trkpt lat="45.3879076" lon="8.0422286"><ele>331.8333333333333</ele><time>2026-04-19T10:01:49.951Z</time></trkpt><trkpt lat="45.3878995" lon="8.042124"><ele>335.66666666666663</ele><time>2026-04-19T10:01:50.951Z</time></trkpt><trkpt lat="45.3878817" lon="8.0420181"><ele>339.5</ele><time>2026-04-19T10:01:51.951Z</time></trkpt><trkpt lat="45.3878552" lon="8.0418399"><ele>343.3333333333333</ele><time>2026-04-19T10:01:53.951Z</time></trkpt><trkpt lat="45.3878339" lon="8.0417493"><ele>347.1666666666667</ele><time>2026-04-19T10:01:54.952Z</time></trkpt><trkpt lat="45.3877922" lon="8.0416601"><ele>351.0</ele><time>2026-04-19T10:01:55.952Z</time></trkpt><trkpt lat="45.3877427" lon="8.04156"><ele>351.0</ele><time>2026-04-19T10:01:56.951Z</time></trkpt><trkpt lat="45.3877159" lon="8.0414694"><ele>351.0</ele><time>2026-04-19T10:01:57.951Z</time></trkpt><trkpt lat="45.3876685" lon="8.0413696"><ele>351.0</ele><time>2026-04-19T10:01:58.951Z</time></trkpt><trkpt lat="45.3876228" lon="8.0412415"><ele>351.0</ele><time>2026-04-19T10:01:59.953Z</time></trkpt><trkpt lat="45.3875885" lon="8.0411095"><ele>351.0</ele><time>2026-04-19T10:02:00.951Z</time></trkpt><trkpt lat="45.3875609" lon="8.0410032"><ele>351.0</ele><time>2026-04-19T10:02:01.951Z</time></trkpt><trkpt lat="45.3875374" lon="8.0408919"><ele>352.0</ele><time>2026-04-19T10:02:02.951Z</time></trkpt><trkpt lat="45.3875021" lon="8.0407761"><ele>353.0</ele><time>2026-04-19T10:02:03.951Z</time></trkpt><trkpt lat="45.3874834" lon="8.0406564"><ele>354.0</ele><time>2026-04-19T10:02:04.951Z</time></trkpt><trkpt lat="45.3874922" lon="8.0405268"><ele>355.0</ele><time>2026-04-19T10:02:05.951Z</time></trkpt><trkpt lat="45.3874949" lon="8.0403884"><ele>356.0</ele><time>2026-04-19T10:02:06.951Z</time></trkpt><trkpt lat="45.3875198" lon="8.0402827"><ele>357.0</ele><time>2026-04-19T10:02:07.951Z</time></trkpt><trkpt lat="45.3875873" lon="8.0401287"><ele>357.0</ele><time>2026-04-19T10:02:09.951Z</time></trkpt><trkpt lat="45.3876071" lon="8.0399951"><ele>357.0</ele><time>2026-04-19T10:02:12.952Z</time></trkpt><trkpt lat="45.3876282" lon="8.0398879"><ele>357.0</ele><time>2026-04-19T10:02:14.952Z</time></trkpt><trkpt lat="45.3876413" lon="8.0397789"><ele>357.0</ele><time>2026-04-19T10:02:16.951Z</time></trkpt><trkpt lat="45.3877086" lon="8.0396424"><ele>357.0</ele><time>2026-04-19T10:02:18.953Z</time></trkpt><trkpt lat="45.3877349" lon="8.0395572"><ele>357.0</ele><time>2026-04-19T10:02:19.952Z</time></trkpt><trkpt lat="45.3878021" lon="8.0393848"><ele>358.3333333333333</ele><time>2026-04-19T10:02:21.951Z</time></trkpt><trkpt lat="45.3878388" lon="8.0392996"><ele>359.6666666666667</ele><time>2026-04-19T10:02:22.953Z</time></trkpt><trkpt lat="45.3878764" lon="8.0391817"><ele>361.0</ele><time>2026-04-19T10:02:23.953Z</time></trkpt><trkpt lat="45.3879162" lon="8.0390763"><ele>362.33333333333337</ele><time>2026-04-19T10:02:24.952Z</time></trkpt><trkpt lat="45.3879524" lon="8.0389592"><ele>363.6666666666667</ele><time>2026-04-19T10:02:25.951Z</time></trkpt><trkpt lat="45.387985" lon="8.038851"><ele>365.0</ele><time>2026-04-19T10:02:26.952Z</time></trkpt><trkpt lat="45.3880199" lon="8.0387403"><ele>365.8</ele><time>2026-04-19T10:02:27.952Z</time></trkpt><trkpt lat="45.3880466" lon="8.038624"><ele>366.6</ele><time>2026-04-19T10:02:28.952Z</time></trkpt><trkpt lat="45.3880554" lon="8.0384869"><ele>367.4</ele><time>2026-04-19T10:02:29.951Z</time></trkpt><trkpt lat="45.3880016" lon="8.0383711"><ele>368.2</ele><time>2026-04-19T10:02:30.951Z</time></trkpt><trkpt lat="45.3879994" lon="8.0382429"><ele>369.0</ele><time>2026-04-19T10:02:31.952Z</time></trkpt><trkpt lat="45.3879901" lon="8.0381019"><ele>369.0</ele><time>2026-04-19T10:02:32.952Z</time></trkpt><trkpt lat="45.3879939" lon="8.0379708"><ele>369.0</ele><time>2026-04-19T10:02:33.952Z</time></trkpt><trkpt lat="45.3880077" lon="8.03787"><ele>369.0</ele><time>2026-04-19T10:02:34.952Z</time></trkpt><trkpt lat="45.3880335" lon="8.0377624"><ele>369.0</ele><time>2026-04-19T10:02:35.951Z</time></trkpt><trkpt lat="45.3880644" lon="8.0376665"><ele>369.0</ele><time>2026-04-19T10:02:36.952Z</time></trkpt><trkpt lat="45.3880963" lon="8.0375782"><ele>369.0</ele><time>2026-04-19T10:02:37.951Z</time></trkpt><trkpt lat="45.388143" lon="8.03739"><ele>366.6666666666667</ele><time>2026-04-19T10:02:39.952Z</time></trkpt><trkpt lat="45.3881608" lon="8.0372867"><ele>364.3333333333333</ele><time>2026-04-19T10:02:40.951Z</time></trkpt><trkpt lat="45.3881875" lon="8.0371801"><ele>362.0</ele><time>2026-04-19T10:02:41.951Z</time></trkpt><trkpt lat="45.3882321" lon="8.0370845"><ele>359.66666666666663</ele><time>2026-04-19T10:02:42.951Z</time></trkpt><trkpt lat="45.3882499" lon="8.0369834"><ele>357.3333333333333</ele><time>2026-04-19T10:02:43.952Z</time></trkpt><trkpt lat="45.3883174" lon="8.0368328"><ele>355.0</ele><time>2026-04-19T10:02:45.952Z</time></trkpt><trkpt lat="45.3883976" lon="8.0366999"><ele>357.3333333333333</ele><time>2026-04-19T10:02:47.953Z</time></trkpt><trkpt lat="45.3884674" lon="8.0366258"><ele>359.66666666666663</ele><time>2026-04-19T10:02:48.951Z</time></trkpt><trkpt lat="45.3885328" lon="8.0365347"><ele>362.0</ele><time>2026-04-19T10:02:49.951Z</time></trkpt><trkpt lat="45.3885926" lon="8.0364565"><ele>364.3333333333333</ele><time>2026-04-19T10:02:50.951Z</time></trkpt><trkpt lat="45.3886473" lon="8.0363841"><ele>366.6666666666667</ele><time>2026-04-19T10:02:51.951Z</time></trkpt><trkpt lat="45.3886976" lon="8.0363089"><ele>369.0</ele><time>2026-04-19T10:02:52.952Z</time></trkpt><trkpt lat="45.38875" lon="8.0362487"><ele>369.0</ele><time>2026-04-19T10:02:53.952Z</time></trkpt><trkpt lat="45.3888101" lon="8.0361761"><ele>369.0</ele><time>2026-04-19T10:02:54.952Z</time></trkpt><trkpt lat="45.3888597" lon="8.0361079"><ele>369.0</ele><time>2026-04-19T10:02:55.952Z</time></trkpt><trkpt lat="45.3889561" lon="8.0359747"><ele>369.0</ele><time>2026-04-19T10:02:57.952Z</time></trkpt><trkpt lat="45.3890047" lon="8.0359001"><ele>369.0</ele><time>2026-04-19T10:02:58.951Z</time></trkpt><trkpt lat="45.38906" lon="8.0358111"><ele>369.0</ele><time>2026-04-19T10:02:59.952Z</time></trkpt><trkpt lat="45.3890925" lon="8.0357031"><ele>365.1666666666667</ele><time>2026-04-19T10:03:00.952Z</time></trkpt><trkpt lat="45.3891204" lon="8.0356193"><ele>361.3333333333333</ele><time>2026-04-19T10:03:01.951Z</time></trkpt><trkpt lat="45.3891467" lon="8.0355089"><ele>357.5</ele><time>2026-04-19T10:03:02.951Z</time></trkpt><trkpt lat="45.3891773" lon="8.0354108"><ele>353.66666666666663</ele><time>2026-04-19T10:03:03.952Z</time></trkpt><trkpt lat="45.3891955" lon="8.0353191"><ele>349.8333333333333</ele><time>2026-04-19T10:03:04.951Z</time></trkpt><trkpt lat="45.3892167" lon="8.0352162"><ele>346.0</ele><time>2026-04-19T10:03:05.952Z</time></trkpt><trkpt lat="45.389237" lon="8.0350967"><ele>346.0</ele><time>2026-04-19T10:03:06.951Z</time></trkpt><trkpt lat="45.3892355" lon="8.0349799"><ele>346.0</ele><time>2026-04-19T10:03:07.952Z</time></trkpt><trkpt lat="45.3892538" lon="8.0348382"><ele>346.0</ele><time>2026-04-19T10:03:08.951Z</time></trkpt><trkpt lat="45.3892644" lon="8.0346925"><ele>346.0</ele><time>2026-04-19T10:03:09.951Z</time></trkpt><trkpt lat="45.3892733" lon="8.034577"><ele>346.0</ele><time>2026-04-19T10:03:10.951Z</time></trkpt><trkpt lat="45.389284" lon="8.0344601"><ele>346.66666666666663</ele><time>2026-04-19T10:03:11.952Z</time></trkpt><trkpt lat="45.3892977" lon="8.0343518"><ele>347.3333333333333</ele><time>2026-04-19T10:03:12.953Z</time></trkpt><trkpt lat="45.3893158" lon="8.034231"><ele>348.0</ele><time>2026-04-19T10:03:13.951Z</time></trkpt><trkpt lat="45.3893407" lon="8.034116"><ele>348.6666666666667</ele><time>2026-04-19T10:03:14.952Z</time></trkpt><trkpt lat="45.38937" lon="8.0340253"><ele>349.33333333333337</ele><time>2026-04-19T10:03:15.952Z</time></trkpt><trkpt lat="45.3893755" lon="8.0339307"><ele>350.0</ele><time>2026-04-19T10:03:16.951Z</time></trkpt><trkpt lat="45.3894153" lon="8.033826"><ele>352.0</ele><time>2026-04-19T10:03:17.952Z</time></trkpt><trkpt lat="45.3894277" lon="8.0336945"><ele>354.0</ele><time>2026-04-19T10:03:18.951Z</time></trkpt><trkpt lat="45.3894583" lon="8.0335696"><ele>356.0</ele><time>2026-04-19T10:03:19.952Z</time></trkpt><trkpt lat="45.3894603" lon="8.0334532"><ele>358.0</ele><time>2026-04-19T10:03:20.951Z</time></trkpt><trkpt lat="45.3894848" lon="8.0333312"><ele>360.0</ele><time>2026-04-19T10:03:21.952Z</time></trkpt><trkpt lat="45.3895415" lon="8.0332015"><ele>360.8333333333333</ele><time>2026-04-19T10:03:22.952Z</time></trkpt><trkpt lat="45.3896045" lon="8.0330849"><ele>361.6666666666667</ele><time>2026-04-19T10:03:23.951Z</time></trkpt><trkpt lat="45.3896499" lon="8.0329766"><ele>362.5</ele><time>2026-04-19T10:03:24.952Z</time></trkpt><trkpt lat="45.3896955" lon="8.0328781"><ele>363.33333333333337</ele><time>2026-04-19T10:03:25.952Z</time></trkpt><trkpt lat="45.389727" lon="8.0327863"><ele>364.1666666666667</ele><time>2026-04-19T10:03:26.951Z</time></trkpt><trkpt lat="45.3897575" lon="8.0326976"><ele>365.0</ele><time>2026-04-19T10:03:27.951Z</time></trkpt><trkpt lat="45.3897645" lon="8.0325971"><ele>359.8</ele><time>2026-04-19T10:03:28.951Z</time></trkpt><trkpt lat="45.3897452" lon="8.03242"><ele>354.6</ele><time>2026-04-19T10:03:30.952Z</time></trkpt><trkpt lat="45.3897413" lon="8.0322948"><ele>349.4</ele><time>2026-04-19T10:03:32.952Z</time></trkpt><trkpt lat="45.3897694" lon="8.0321159"><ele>344.2</ele><time>2026-04-19T10:03:34.951Z</time></trkpt><trkpt lat="45.3898101" lon="8.0320344"><ele>339.0</ele><time>2026-04-19T10:03:35.952Z</time></trkpt><trkpt lat="45.3898269" lon="8.0318523"><ele>339.0</ele><time>2026-04-19T10:03:37.951Z</time></trkpt><trkpt lat="45.3897963" lon="8.0317442"><ele>339.0</ele><time>2026-04-19T10:03:38.952Z</time></trkpt><trkpt lat="45.3897545" lon="8.0316258"><ele>339.0</ele><time>2026-04-19T10:03:39.953Z</time></trkpt><trkpt lat="45.3897322" lon="8.0315019"><ele>339.0</ele><time>2026-04-19T10:03:40.951Z</time></trkpt><trkpt lat="45.3896926" lon="8.0313796"><ele>339.0</ele><time>2026-04-19T10:03:41.951Z</time></trkpt><trkpt lat="45.3896867" lon="8.031266"><ele>339.0</ele><time>2026-04-19T10:03:42.951Z</time></trkpt><trkpt lat="45.3896645" lon="8.0311219"><ele>340.0</ele><time>2026-04-19T10:03:43.952Z</time></trkpt><trkpt lat="45.3896442" lon="8.0309927"><ele>341.0</ele><time>2026-04-19T10:03:44.951Z</time></trkpt><trkpt lat="45.3895987" lon="8.0308374"><ele>342.0</ele><time>2026-04-19T10:03:45.952Z</time></trkpt><trkpt lat="45.3895887" lon="8.0306833"><ele>343.0</ele><time>2026-04-19T10:03:47.952Z</time></trkpt><trkpt lat="45.3895904" lon="8.0305803"><ele>344.0</ele><time>2026-04-19T10:09:22.951Z</time></trkpt><trkpt lat="45.3896772" lon="8.0304987"><ele>346.33333333333337</ele><time>2026-04-19T10:09:25.951Z</time></trkpt><trkpt lat="45.3897955" lon="8.0305049"><ele>348.6666666666667</ele><time>2026-04-19T10:09:27.951Z</time></trkpt><trkpt lat="45.3899197" lon="8.0304949"><ele>351.0</ele><time>2026-04-19T10:09:29.951Z</time></trkpt><trkpt lat="45.3899894" lon="8.0304907"><ele>353.3333333333333</ele><time>2026-04-19T10:09:30.95Z</time></trkpt><trkpt lat="45.3900571" lon="8.0304887"><ele>355.66666666666663</ele><time>2026-04-19T10:09:31.95Z</time></trkpt><trkpt lat="45.3901244" lon="8.0304871"><ele>358.0</ele><time>2026-04-19T10:09:32.95Z</time></trkpt><trkpt lat="45.3901972" lon="8.0304677"><ele>358.0</ele><time>2026-04-19T10:09:33.95Z</time></trkpt><trkpt lat="45.3903021" lon="8.0304107"><ele>358.0</ele><time>2026-04-19T10:09:35.95Z</time></trkpt><trkpt lat="45.3904006" lon="8.0304079"><ele>358.0</ele><time>2026-04-19T10:09:37.95Z</time></trkpt><trkpt lat="45.3904961" lon="8.0304211"><ele>358.0</ele><time>2026-04-19T10:09:39.95Z</time></trkpt><trkpt lat="45.3905955" lon="8.030432"><ele>358.0</ele><time>2026-04-19T10:09:41.951Z</time></trkpt><trkpt lat="45.3906819" lon="8.0304543"><ele>360.0</ele><time>2026-04-19T10:09:43.95Z</time></trkpt><trkpt lat="45.3907629" lon="8.0304729"><ele>362.0</ele><time>2026-04-19T10:10:01.95Z</time></trkpt><trkpt lat="45.390844" lon="8.0304909"><ele>364.0</ele><time>2026-04-19T10:10:03.95Z</time></trkpt><trkpt lat="45.3909271" lon="8.0304896"><ele>366.0</ele><time>2026-04-19T10:10:05.95Z</time></trkpt><trkpt lat="45.3910163" lon="8.0304739"><ele>368.0</ele><time>2026-04-19T10:10:07.952Z</time></trkpt><trkpt lat="45.3911098" lon="8.0304381"><ele>370.0</ele><time>2026-04-19T10:10:08.951Z</time></trkpt><trkpt lat="45.3912204" lon="8.0303708"><ele>370.0</ele><time>2026-04-19T10:10:10.95Z</time></trkpt><trkpt lat="45.3913342" lon="8.0303123"><ele>370.0</ele><time>2026-04-19T10:10:12.95Z</time></trkpt><trkpt lat="45.3914495" lon="8.0302501"><ele>370.0</ele><time>2026-04-19T10:10:14.95Z</time></trkpt><trkpt lat="45.3915612" lon="8.0301699"><ele>370.0</ele><time>2026-04-19T10:10:16.95Z</time></trkpt><trkpt lat="45.391648" lon="8.0300965"><ele>370.16666666666663</ele><time>2026-04-19T10:10:18.95Z</time></trkpt><trkpt lat="45.3917538" lon="8.0300203"><ele>370.3333333333333</ele><time>2026-04-19T10:10:20.95Z</time></trkpt><trkpt lat="45.3917999" lon="8.0299584"><ele>370.5</ele><time>2026-04-19T10:10:21.951Z</time></trkpt><trkpt lat="45.3918401" lon="8.0298796"><ele>370.6666666666667</ele><time>2026-04-19T10:10:22.95Z</time></trkpt><trkpt lat="45.3918972" lon="8.02979"><ele>370.83333333333337</ele><time>2026-04-19T10:10:23.95Z</time></trkpt><trkpt lat="45.391977" lon="8.0296842"><ele>371.0</ele><time>2026-04-19T10:10:24.951Z</time></trkpt><trkpt lat="45.3920354" lon="8.0296083"><ele>371.0</ele><time>2026-04-19T10:10:25.95Z</time></trkpt><trkpt lat="45.3920778" lon="8.0295313"><ele>371.0</ele><time>2026-04-19T10:10:26.95Z</time></trkpt><trkpt lat="45.3921273" lon="8.0294682"><ele>371.0</ele><time>2026-04-19T10:10:27.951Z</time></trkpt><trkpt lat="45.3922138" lon="8.0293316"><ele>371.0</ele><time>2026-04-19T10:10:29.95Z</time></trkpt><trkpt lat="45.3922645" lon="8.0292516"><ele>371.0</ele><time>2026-04-19T10:10:30.95Z</time></trkpt><trkpt lat="45.3923178" lon="8.0291702"><ele>371.0</ele><time>2026-04-19T10:10:31.951Z</time></trkpt><trkpt lat="45.3923718" lon="8.0290901"><ele>368.1666666666667</ele><time>2026-04-19T10:10:32.95Z</time></trkpt><trkpt lat="45.3924129" lon="8.0290184"><ele>365.33333333333337</ele><time>2026-04-19T10:10:33.95Z</time></trkpt><trkpt lat="45.392476" lon="8.0288539"><ele>362.5</ele><time>2026-04-19T10:10:35.951Z</time></trkpt><trkpt lat="45.3924987" lon="8.0287613"><ele>359.6666666666667</ele><time>2026-04-19T10:10:36.95Z</time></trkpt><trkpt lat="45.3925216" lon="8.0286586"><ele>356.8333333333333</ele><time>2026-04-19T10:10:37.951Z</time></trkpt><trkpt lat="45.3925378" lon="8.0285573"><ele>354.0</ele><time>2026-04-19T10:10:38.95Z</time></trkpt><trkpt lat="45.3925553" lon="8.0284601"><ele>354.0</ele><time>2026-04-19T10:10:39.951Z</time></trkpt><trkpt lat="45.3925896" lon="8.0283688"><ele>354.0</ele><time>2026-04-19T10:10:40.95Z</time></trkpt><trkpt lat="45.3926329" lon="8.0282867"><ele>354.0</ele><time>2026-04-19T10:10:41.951Z</time></trkpt><trkpt lat="45.3926723" lon="8.028214"><ele>354.0</ele><time>2026-04-19T10:10:42.951Z</time></trkpt><trkpt lat="45.3927345" lon="8.028102"><ele>354.0</ele><time>2026-04-19T10:10:44.95Z</time></trkpt><trkpt lat="45.392797" lon="8.0279788"><ele>354.0</ele><time>2026-04-19T10:10:46.95Z</time></trkpt><trkpt lat="45.3928378" lon="8.0278999"><ele>354.4</ele><time>2026-04-19T10:10:47.951Z</time></trkpt><trkpt lat="45.3928998" lon="8.0277654"><ele>354.79999999999995</ele><time>2026-04-19T10:10:49.95Z</time></trkpt><trkpt lat="45.3929405" lon="8.0276123"><ele>355.20000000000005</ele><time>2026-04-19T10:10:51.951Z</time></trkpt><trkpt lat="45.3929727" lon="8.0274728"><ele>355.6</ele><time>2026-04-19T10:10:53.951Z</time></trkpt><trkpt lat="45.3930459" lon="8.0273548"><ele>356.0</ele><time>2026-04-19T10:10:55.95Z</time></trkpt><trkpt lat="45.3930593" lon="8.0272506"><ele>356.0</ele><time>2026-04-19T10:10:57.951Z</time></trkpt><trkpt lat="45.3931077" lon="8.027114"><ele>356.0</ele><time>2026-04-19T10:10:59.95Z</time></trkpt><trkpt lat="45.3931831" lon="8.0269956"><ele>356.0</ele><time>2026-04-19T10:11:00.95Z</time></trkpt><trkpt lat="45.3932113" lon="8.0268837"><ele>356.0</ele><time>2026-04-19T10:11:01.951Z</time></trkpt><trkpt lat="45.3932442" lon="8.0267609"><ele>356.0</ele><time>2026-04-19T10:11:02.951Z</time></trkpt><trkpt lat="45.3932561" lon="8.0266466"><ele>356.0</ele><time>2026-04-19T10:11:03.95Z</time></trkpt><trkpt lat="45.3932811" lon="8.0265484"><ele>356.0</ele><time>2026-04-19T10:11:04.95Z</time></trkpt><trkpt lat="45.3933247" lon="8.0264276"><ele>356.0</ele><time>2026-04-19T10:11:05.951Z</time></trkpt><trkpt lat="45.3933558" lon="8.0263151"><ele>356.0</ele><time>2026-04-19T10:11:06.95Z</time></trkpt><trkpt lat="45.3934001" lon="8.0261277"><ele>356.0</ele><time>2026-04-19T10:11:08.951Z</time></trkpt><trkpt lat="45.3934129" lon="8.0260012"><ele>356.0</ele><time>2026-04-19T10:11:09.951Z</time></trkpt><trkpt lat="45.3933783" lon="8.0258443"><ele>356.0</ele><time>2026-04-19T10:11:10.951Z</time></trkpt><trkpt lat="45.3933286" lon="8.0257797"><ele>356.0</ele><time>2026-04-19T10:11:11.951Z</time></trkpt><trkpt lat="45.3932912" lon="8.0256714"><ele>356.0</ele><time>2026-04-19T10:11:12.95Z</time></trkpt><trkpt lat="45.3932526" lon="8.0255472"><ele>356.0</ele><time>2026-04-19T10:11:13.95Z</time></trkpt><trkpt lat="45.3933295" lon="8.02542"><ele>357.20000000000005</ele><time>2026-04-19T10:11:14.95Z</time></trkpt><trkpt lat="45.3933651" lon="8.0252974"><ele>358.40000000000003</ele><time>2026-04-19T10:11:15.951Z</time></trkpt><trkpt lat="45.3934003" lon="8.0251647"><ele>359.6</ele><time>2026-04-19T10:11:16.951Z</time></trkpt><trkpt lat="45.3934684" lon="8.0250323"><ele>360.8</ele><time>2026-04-19T10:11:17.95Z</time></trkpt><trkpt lat="45.3935181" lon="8.024934"><ele>362.0</ele><time>2026-04-19T10:11:18.95Z</time></trkpt><trkpt lat="45.3935899" lon="8.0248212"><ele>361.6</ele><time>2026-04-19T10:11:19.95Z</time></trkpt><trkpt lat="45.3936555" lon="8.0247215"><ele>361.20000000000005</ele><time>2026-04-19T10:11:20.951Z</time></trkpt><trkpt lat="45.3937984" lon="8.0246312"><ele>360.8</ele><time>2026-04-19T10:11:21.951Z</time></trkpt><trkpt lat="45.3939062" lon="8.0245406"><ele>360.4</ele><time>2026-04-19T10:11:22.95Z</time></trkpt><trkpt lat="45.3939662" lon="8.0244946"><ele>360.0</ele><time>2026-04-19T10:11:23.951Z</time></trkpt><trkpt lat="45.3940357" lon="8.0244254"><ele>360.0</ele><time>2026-04-19T10:11:24.95Z</time></trkpt><trkpt lat="45.394092" lon="8.0243611"><ele>360.0</ele><time>2026-04-19T10:11:25.951Z</time></trkpt><trkpt lat="45.3941258" lon="8.0242495"><ele>360.0</ele><time>2026-04-19T10:11:27.951Z</time></trkpt><trkpt lat="45.3941675" lon="8.0241696"><ele>360.0</ele><time>2026-04-19T10:11:28.951Z</time></trkpt><trkpt lat="45.3941913" lon="8.0240864"><ele>360.0</ele><time>2026-04-19T10:11:29.95Z</time></trkpt><trkpt lat="45.3942304" lon="8.0239364"><ele>360.0</ele><time>2026-04-19T10:11:31.95Z</time></trkpt><trkpt lat="45.3942617" lon="8.0237833"><ele>362.1666666666667</ele><time>2026-04-19T10:11:33.951Z</time></trkpt><trkpt lat="45.3942957" lon="8.0236902"><ele>364.3333333333333</ele><time>2026-04-19T10:11:34.951Z</time></trkpt><trkpt lat="45.3943279" lon="8.0235924"><ele>366.5</ele><time>2026-04-19T10:11:35.951Z</time></trkpt><trkpt lat="45.3943558" lon="8.0235043"><ele>368.66666666666663</ele><time>2026-04-19T10:11:36.95Z</time></trkpt><trkpt lat="45.3943843" lon="8.0234189"><ele>370.8333333333333</ele><time>2026-04-19T10:11:37.952Z</time></trkpt><trkpt lat="45.3944452" lon="8.0232795"><ele>373.0</ele><time>2026-04-19T10:11:39.95Z</time></trkpt><trkpt lat="45.3945106" lon="8.0232335"><ele>371.5</ele><time>2026-04-19T10:11:40.951Z</time></trkpt><trkpt lat="45.3945791" lon="8.0232119"><ele>370.0</ele><time>2026-04-19T10:11:41.95Z</time></trkpt><trkpt lat="45.3946461" lon="8.0232006"><ele>368.5</ele><time>2026-04-19T10:11:42.951Z</time></trkpt><trkpt lat="45.3947331" lon="8.0232189"><ele>367.0</ele><time>2026-04-19T10:11:44.95Z</time></trkpt><trkpt lat="45.3948455" lon="8.0231248"><ele>365.5</ele><time>2026-04-19T10:11:46.95Z</time></trkpt><trkpt lat="45.3949061" lon="8.0230605"><ele>364.0</ele><time>2026-04-19T10:11:47.951Z</time></trkpt><trkpt lat="45.3949554" lon="8.0229963"><ele>364.0</ele><time>2026-04-19T10:11:48.95Z</time></trkpt><trkpt lat="45.3950149" lon="8.0228947"><ele>364.0</ele><time>2026-04-19T10:11:49.95Z</time></trkpt><trkpt lat="45.3950594" lon="8.0228061"><ele>364.0</ele><time>2026-04-19T10:11:50.95Z</time></trkpt><trkpt lat="45.3951145" lon="8.0227149"><ele>364.0</ele><time>2026-04-19T10:11:51.95Z</time></trkpt><trkpt lat="45.3951599" lon="8.0226293"><ele>364.0</ele><time>2026-04-19T10:11:52.951Z</time></trkpt><trkpt lat="45.3952625" lon="8.0225271"><ele>363.2</ele><time>2026-04-19T10:11:54.95Z</time></trkpt><trkpt lat="45.3953418" lon="8.022447"><ele>362.4</ele><time>2026-04-19T10:11:56.951Z</time></trkpt><trkpt lat="45.3954104" lon="8.0223711"><ele>361.6</ele><time>2026-04-19T10:11:58.951Z</time></trkpt><trkpt lat="45.3954842" lon="8.0222886"><ele>360.8</ele><time>2026-04-19T10:12:00.951Z</time></trkpt><trkpt lat="45.3955883" lon="8.022218"><ele>360.0</ele><time>2026-04-19T10:12:02.951Z</time></trkpt><trkpt lat="45.3956843" lon="8.0221751"><ele>360.0</ele><time>2026-04-19T10:12:03.952Z</time></trkpt><trkpt lat="45.3957601" lon="8.0221377"><ele>360.0</ele><time>2026-04-19T10:12:04.949Z</time></trkpt><trkpt lat="45.3958568" lon="8.0220468"><ele>360.0</ele><time>2026-04-19T10:12:06.95Z</time></trkpt><trkpt lat="45.3959678" lon="8.0219473"><ele>360.0</ele><time>2026-04-19T10:12:08.951Z</time></trkpt><trkpt lat="45.3960174" lon="8.021879"><ele>360.0</ele><time>2026-04-19T10:12:09.949Z</time></trkpt><trkpt lat="45.3960818" lon="8.021826"><ele>360.0</ele><time>2026-04-19T10:12:10.951Z</time></trkpt><trkpt lat="45.3961418" lon="8.0217704"><ele>360.0</ele><time>2026-04-19T10:12:11.949Z</time></trkpt><trkpt lat="45.3961894" lon="8.0216281"><ele>360.0</ele><time>2026-04-19T10:12:13.95Z</time></trkpt><trkpt lat="45.3962499" lon="8.0215201"><ele>360.0</ele><time>2026-04-19T10:12:15.949Z</time></trkpt><trkpt lat="45.3962915" lon="8.0213793"><ele>360.0</ele><time>2026-04-19T10:12:17.95Z</time></trkpt><trkpt lat="45.3963675" lon="8.0212308"><ele>358.8</ele><time>2026-04-19T10:12:19.949Z</time></trkpt><trkpt lat="45.396418" lon="8.0211519"><ele>357.6</ele><time>2026-04-19T10:12:20.95Z</time></trkpt><trkpt lat="45.3964899" lon="8.0210525"><ele>356.4</ele><time>2026-04-19T10:12:22.949Z</time></trkpt><trkpt lat="45.3965695" lon="8.020919"><ele>355.2</ele><time>2026-04-19T10:12:24.949Z</time></trkpt><trkpt lat="45.3965924" lon="8.0208196"><ele>354.0</ele><time>2026-04-19T10:12:26.949Z</time></trkpt><trkpt lat="45.3966258" lon="8.0206915"><ele>354.0</ele><time>2026-04-19T10:12:28.949Z</time></trkpt><trkpt lat="45.3966749" lon="8.0205918"><ele>354.0</ele><time>2026-04-19T10:12:29.95Z</time></trkpt><trkpt lat="45.3967201" lon="8.0204698"><ele>354.0</ele><time>2026-04-19T10:12:31.95Z</time></trkpt><trkpt lat="45.3968031" lon="8.0203523"><ele>354.0</ele><time>2026-04-19T10:12:33.949Z</time></trkpt><trkpt lat="45.3968725" lon="8.0202489"><ele>354.0</ele><time>2026-04-19T10:12:36.95Z</time></trkpt><trkpt lat="45.3969414" lon="8.0201439"><ele>354.0</ele><time>2026-04-19T10:12:38.95Z</time></trkpt><trkpt lat="45.3970348" lon="8.0200593"><ele>354.0</ele><time>2026-04-19T10:12:40.949Z</time></trkpt><trkpt lat="45.3971102" lon="8.0199955"><ele>354.0</ele><time>2026-04-19T10:12:42.949Z</time></trkpt><trkpt lat="45.3971941" lon="8.0198902"><ele>354.0</ele><time>2026-04-19T10:12:44.949Z</time></trkpt><trkpt lat="45.3972409" lon="8.0198226"><ele>354.0</ele><time>2026-04-19T10:12:45.949Z</time></trkpt><trkpt lat="45.39734" lon="8.0197529"><ele>352.0</ele><time>2026-04-19T10:12:47.95Z</time></trkpt><trkpt lat="45.3974389" lon="8.0197027"><ele>350.0</ele><time>2026-04-19T10:12:49.95Z</time></trkpt><trkpt lat="45.3975443" lon="8.019646"><ele>348.0</ele><time>2026-04-19T10:12:51.949Z</time></trkpt><trkpt lat="45.3976687" lon="8.0196208"><ele>346.0</ele><time>2026-04-19T10:12:53.949Z</time></trkpt><trkpt lat="45.3977856" lon="8.019546"><ele>346.0</ele><time>2026-04-19T10:12:55.949Z</time></trkpt><trkpt lat="45.3978497" lon="8.0194992"><ele>346.0</ele><time>2026-04-19T10:12:56.949Z</time></trkpt><trkpt lat="45.3978928" lon="8.0194225"><ele>346.0</ele><time>2026-04-19T10:12:57.949Z</time></trkpt><trkpt lat="45.3979556" lon="8.0192818"><ele>346.0</ele><time>2026-04-19T10:12:59.949Z</time></trkpt><trkpt lat="45.3979908" lon="8.0191966"><ele>346.0</ele><time>2026-04-19T10:13:00.949Z</time></trkpt><trkpt lat="45.3980578" lon="8.0190631"><ele>346.0</ele><time>2026-04-19T10:13:02.949Z</time></trkpt><trkpt lat="45.3981047" lon="8.0189351"><ele>344.8333333333333</ele><time>2026-04-19T10:13:04.95Z</time></trkpt><trkpt lat="45.3981644" lon="8.0188426"><ele>343.66666666666663</ele><time>2026-04-19T10:13:05.95Z</time></trkpt><trkpt lat="45.3982169" lon="8.0187119"><ele>342.5</ele><time>2026-04-19T10:13:06.95Z</time></trkpt><trkpt lat="45.3982591" lon="8.0186103"><ele>341.3333333333333</ele><time>2026-04-19T10:13:07.949Z</time></trkpt><trkpt lat="45.3983145" lon="8.0185144"><ele>340.1666666666667</ele><time>2026-04-19T10:13:08.95Z</time></trkpt><trkpt lat="45.3983495" lon="8.0184273"><ele>339.0</ele><time>2026-04-19T10:13:09.949Z</time></trkpt><trkpt lat="45.3984006" lon="8.0183378"><ele>340.0</ele><time>2026-04-19T10:13:10.949Z</time></trkpt><trkpt lat="45.3984464" lon="8.0182536"><ele>341.0</ele><time>2026-04-19T10:13:11.95Z</time></trkpt><trkpt lat="45.3984951" lon="8.0181664"><ele>342.0</ele><time>2026-04-19T10:13:12.949Z</time></trkpt><trkpt lat="45.3985428" lon="8.0180743"><ele>343.0</ele><time>2026-04-19T10:13:13.95Z</time></trkpt><trkpt lat="45.3985846" lon="8.0179761"><ele>344.0</ele><time>2026-04-19T10:13:14.95Z</time></trkpt><trkpt lat="45.3986313" lon="8.0178843"><ele>345.0</ele><time>2026-04-19T10:13:15.949Z</time></trkpt><trkpt lat="45.3986867" lon="8.0177927"><ele>345.0</ele><time>2026-04-19T10:13:16.95Z</time></trkpt><trkpt lat="45.3987312" lon="8.0176889"><ele>345.0</ele><time>2026-04-19T10:13:17.95Z</time></trkpt><trkpt lat="45.398771" lon="8.0175827"><ele>345.0</ele><time>2026-04-19T10:13:18.95Z</time></trkpt><trkpt lat="45.3988042" lon="8.0174966"><ele>345.0</ele><time>2026-04-19T10:13:19.949Z</time></trkpt><trkpt lat="45.3988472" lon="8.0174034"><ele>345.0</ele><time>2026-04-19T10:13:20.95Z</time></trkpt><trkpt lat="45.3989194" lon="8.0172401"><ele>343.0</ele><time>2026-04-19T10:13:22.95Z</time></trkpt><trkpt lat="45.3989536" lon="8.0171505"><ele>341.0</ele><time>2026-04-19T10:13:23.95Z</time></trkpt><trkpt lat="45.3989869" lon="8.0170578"><ele>339.0</ele><time>2026-04-19T10:13:24.949Z</time></trkpt><trkpt lat="45.3990738" lon="8.0170161"><ele>337.0</ele><time>2026-04-19T10:13:25.95Z</time></trkpt><trkpt lat="45.3991983" lon="8.0169245"><ele>335.0</ele><time>2026-04-19T10:13:27.949Z</time></trkpt><trkpt lat="45.3992879" lon="8.0168866"><ele>335.0</ele><time>2026-04-19T10:13:28.949Z</time></trkpt><trkpt lat="45.3993639" lon="8.0168347"><ele>335.0</ele><time>2026-04-19T10:13:29.95Z</time></trkpt><trkpt lat="45.3994476" lon="8.0167774"><ele>335.0</ele><time>2026-04-19T10:13:30.95Z</time></trkpt><trkpt lat="45.3995584" lon="8.0166728"><ele>335.0</ele><time>2026-04-19T10:13:32.95Z</time></trkpt><trkpt lat="45.3996264" lon="8.0166163"><ele>335.0</ele><time>2026-04-19T10:13:33.949Z</time></trkpt><trkpt lat="45.3997122" lon="8.0165398"><ele>332.0</ele><time>2026-04-19T10:13:35.95Z</time></trkpt><trkpt lat="45.399786" lon="8.016512"><ele>329.0</ele><time>2026-04-19T10:13:57.95Z</time></trkpt><trkpt lat="45.3998247" lon="8.016362"><ele>326.0</ele><time>2026-04-19T10:14:00.949Z</time></trkpt><trkpt lat="45.3998031" lon="8.0162167"><ele>323.0</ele><time>2026-04-19T10:14:02.949Z</time></trkpt><trkpt lat="45.3997882" lon="8.0160624"><ele>320.0</ele><time>2026-04-19T10:14:04.95Z</time></trkpt><trkpt lat="45.3997708" lon="8.0159253"><ele>320.2</ele><time>2026-04-19T10:14:06.95Z</time></trkpt><trkpt lat="45.3997405" lon="8.0158004"><ele>320.4</ele><time>2026-04-19T10:14:08.949Z</time></trkpt><trkpt lat="45.3996912" lon="8.0156774"><ele>320.6</ele><time>2026-04-19T10:14:10.95Z</time></trkpt><trkpt lat="45.3996323" lon="8.0155773"><ele>320.8</ele><time>2026-04-19T10:14:12.951Z</time></trkpt><trkpt lat="45.3995273" lon="8.0154616"><ele>321.0</ele><time>2026-04-19T10:14:14.95Z</time></trkpt><trkpt lat="45.3994663" lon="8.0154049"><ele>323.75</ele><time>2026-04-19T10:14:15.949Z</time></trkpt><trkpt lat="45.3993916" lon="8.015296"><ele>326.5</ele><time>2026-04-19T10:14:16.95Z</time></trkpt><trkpt lat="45.3992951" lon="8.0152231"><ele>329.25</ele><time>2026-04-19T10:14:17.949Z</time></trkpt><trkpt lat="45.3992044" lon="8.015144"><ele>332.0</ele><time>2026-04-19T10:14:18.949Z</time></trkpt><trkpt lat="45.3990812" lon="8.0150342"><ele>332.0</ele><time>2026-04-19T10:14:19.95Z</time></trkpt><trkpt lat="45.3989823" lon="8.0149304"><ele>332.0</ele><time>2026-04-19T10:14:20.949Z</time></trkpt><trkpt lat="45.3988681" lon="8.0148292"><ele>332.0</ele><time>2026-04-19T10:14:21.95Z</time></trkpt><trkpt lat="45.398759" lon="8.0147634"><ele>332.0</ele><time>2026-04-19T10:14:22.95Z</time></trkpt><trkpt lat="45.3986434" lon="8.0147011"><ele>333.25</ele><time>2026-04-19T10:14:23.949Z</time></trkpt><trkpt lat="45.3985296" lon="8.0146566"><ele>334.5</ele><time>2026-04-19T10:14:24.95Z</time></trkpt><trkpt lat="45.3984071" lon="8.0146216"><ele>335.75</ele><time>2026-04-19T10:14:25.95Z</time></trkpt><trkpt lat="45.3982987" lon="8.014569"><ele>337.0</ele><time>2026-04-19T10:14:26.949Z</time></trkpt><trkpt lat="45.3981969" lon="8.0144951"><ele>337.0</ele><time>2026-04-19T10:14:27.949Z</time></trkpt><trkpt lat="45.3980864" lon="8.0143543"><ele>337.0</ele><time>2026-04-19T10:14:28.949Z</time></trkpt><trkpt lat="45.3979887" lon="8.0142414"><ele>337.0</ele><time>2026-04-19T10:14:29.95Z</time></trkpt><trkpt lat="45.397909" lon="8.014126"><ele>337.0</ele><time>2026-04-19T10:14:30.949Z</time></trkpt><trkpt lat="45.3978193" lon="8.0140097"><ele>338.5</ele><time>2026-04-19T10:14:31.95Z</time></trkpt><trkpt lat="45.3977389" lon="8.0138887"><ele>340.0</ele><time>2026-04-19T10:14:32.949Z</time></trkpt><trkpt lat="45.3976674" lon="8.0137677"><ele>341.5</ele><time>2026-04-19T10:14:33.95Z</time></trkpt><trkpt lat="45.397596" lon="8.0136509"><ele>343.0</ele><time>2026-04-19T10:14:34.949Z</time></trkpt><trkpt lat="45.3975134" lon="8.0135194"><ele>343.0</ele><time>2026-04-19T10:14:35.95Z</time></trkpt><trkpt lat="45.3974314" lon="8.0134441"><ele>343.0</ele><time>2026-04-19T10:14:36.95Z</time></trkpt><trkpt lat="45.3973563" lon="8.013373"><ele>343.0</ele><time>2026-04-19T10:14:37.95Z</time></trkpt><trkpt lat="45.3972666" lon="8.0133371"><ele>343.0</ele><time>2026-04-19T10:14:38.949Z</time></trkpt><trkpt lat="45.3971821" lon="8.0133552"><ele>343.0</ele><time>2026-04-19T10:14:39.95Z</time></trkpt><trkpt lat="45.3971031" lon="8.0133773"><ele>343.0</ele><time>2026-04-19T10:14:40.949Z</time></trkpt><trkpt lat="45.3970298" lon="8.0134141"><ele>343.8333333333333</ele><time>2026-04-19T10:14:41.95Z</time></trkpt><trkpt lat="45.3969422" lon="8.0134393"><ele>344.66666666666663</ele><time>2026-04-19T10:14:42.949Z</time></trkpt><trkpt lat="45.3968446" lon="8.0134592"><ele>345.5</ele><time>2026-04-19T10:14:43.949Z</time></trkpt><trkpt lat="45.3967549" lon="8.013472"><ele>346.3333333333333</ele><time>2026-04-19T10:14:44.949Z</time></trkpt><trkpt lat="45.3966657" lon="8.013467"><ele>347.1666666666667</ele><time>2026-04-19T10:14:45.95Z</time></trkpt><trkpt lat="45.3965847" lon="8.0134549"><ele>348.0</ele><time>2026-04-19T10:14:46.949Z</time></trkpt><trkpt lat="45.3964991" lon="8.0134062"><ele>348.0</ele><time>2026-04-19T10:14:47.95Z</time></trkpt><trkpt lat="45.3964136" lon="8.0133812"><ele>348.0</ele><time>2026-04-19T10:14:48.949Z</time></trkpt><trkpt lat="45.3963076" lon="8.0133456"><ele>348.0</ele><time>2026-04-19T10:14:49.949Z</time></trkpt><trkpt lat="45.396206" lon="8.0133048"><ele>348.0</ele><time>2026-04-19T10:14:50.951Z</time></trkpt><trkpt lat="45.3960972" lon="8.013281"><ele>348.0</ele><time>2026-04-19T10:14:51.949Z</time></trkpt><trkpt lat="45.3960155" lon="8.0132857"><ele>348.6666666666667</ele><time>2026-04-19T10:14:52.949Z</time></trkpt><trkpt lat="45.39593" lon="8.0133142"><ele>349.3333333333333</ele><time>2026-04-19T10:14:53.949Z</time></trkpt><trkpt lat="45.3958546" lon="8.0133558"><ele>350.0</ele><time>2026-04-19T10:14:54.949Z</time></trkpt><trkpt lat="45.3957808" lon="8.013426"><ele>350.66666666666663</ele><time>2026-04-19T10:14:55.95Z</time></trkpt><trkpt lat="45.3957084" lon="8.0134953"><ele>351.3333333333333</ele><time>2026-04-19T10:14:56.95Z</time></trkpt><trkpt lat="45.3956458" lon="8.0135549"><ele>352.0</ele><time>2026-04-19T10:14:57.95Z</time></trkpt><trkpt lat="45.3955871" lon="8.0135958"><ele>351.66666666666663</ele><time>2026-04-19T10:14:58.949Z</time></trkpt><trkpt lat="45.3954798" lon="8.0136575"><ele>351.3333333333333</ele><time>2026-04-19T10:15:00.95Z</time></trkpt><trkpt lat="45.3953564" lon="8.0136843"><ele>351.0</ele><time>2026-04-19T10:15:02.95Z</time></trkpt><trkpt lat="45.3952933" lon="8.0136801"><ele>350.6666666666667</ele><time>2026-04-19T10:15:03.949Z</time></trkpt><trkpt lat="45.3952233" lon="8.0136619"><ele>350.33333333333337</ele><time>2026-04-19T10:15:04.949Z</time></trkpt><trkpt lat="45.3951523" lon="8.0136489"><ele>350.0</ele><time>2026-04-19T10:15:05.949Z</time></trkpt><trkpt lat="45.3950806" lon="8.0136317"><ele>350.0</ele><time>2026-04-19T10:15:06.95Z</time></trkpt><trkpt lat="45.3950146" lon="8.0136189"><ele>350.0</ele><time>2026-04-19T10:15:07.95Z</time></trkpt><trkpt lat="45.394947" lon="8.0136031"><ele>350.0</ele><time>2026-04-19T10:15:08.95Z</time></trkpt><trkpt lat="45.394875" lon="8.0135889"><ele>350.0</ele><time>2026-04-19T10:15:09.949Z</time></trkpt><trkpt lat="45.3948063" lon="8.0135771"><ele>350.0</ele><time>2026-04-19T10:15:10.95Z</time></trkpt><trkpt lat="45.3947282" lon="8.013574"><ele>350.0</ele><time>2026-04-19T10:15:11.95Z</time></trkpt><trkpt lat="45.394652" lon="8.0135622"><ele>350.0</ele><time>2026-04-19T10:15:12.949Z</time></trkpt><trkpt lat="45.3945728" lon="8.013561"><ele>350.0</ele><time>2026-04-19T10:15:13.95Z</time></trkpt><trkpt lat="45.3945016" lon="8.0135646"><ele>350.0</ele><time>2026-04-19T10:15:14.95Z</time></trkpt><trkpt lat="45.3944209" lon="8.0135698"><ele>350.0</ele><time>2026-04-19T10:15:15.95Z</time></trkpt><trkpt lat="45.3943383" lon="8.0135863"><ele>350.0</ele><time>2026-04-19T10:15:16.95Z</time></trkpt><trkpt lat="45.3942545" lon="8.013618"><ele>350.0</ele><time>2026-04-19T10:15:17.949Z</time></trkpt><trkpt lat="45.3941695" lon="8.0136658"><ele>350.0</ele><time>2026-04-19T10:15:18.949Z</time></trkpt><trkpt lat="45.394089" lon="8.0137169"><ele>350.0</ele><time>2026-04-19T10:15:19.949Z</time></trkpt><trkpt lat="45.394014" lon="8.0137619"><ele>350.0</ele><time>2026-04-19T10:15:20.951Z</time></trkpt><trkpt lat="45.3939455" lon="8.0138046"><ele>350.0</ele><time>2026-04-19T10:15:21.951Z</time></trkpt><trkpt lat="45.3938721" lon="8.0138272"><ele>350.0</ele><time>2026-04-19T10:15:22.949Z</time></trkpt><trkpt lat="45.3937983" lon="8.0138407"><ele>350.0</ele><time>2026-04-19T10:15:23.95Z</time></trkpt><trkpt lat="45.3937329" lon="8.0138347"><ele>350.0</ele><time>2026-04-19T10:15:24.949Z</time></trkpt><trkpt lat="45.3936275" lon="8.0138244"><ele>350.0</ele><time>2026-04-19T10:15:26.95Z</time></trkpt><trkpt lat="45.3935492" lon="8.0138108"><ele>350.0</ele><time>2026-04-19T10:15:28.949Z</time></trkpt><trkpt lat="45.3934821" lon="8.0137974"><ele>350.0</ele><time>2026-04-19T10:15:30.95Z</time></trkpt><trkpt lat="45.3933994" lon="8.0137845"><ele>350.0</ele><time>2026-04-19T10:15:33.949Z</time></trkpt><trkpt lat="45.3933165" lon="8.0137739"><ele>350.0</ele><time>2026-04-19T10:15:35.949Z</time></trkpt><trkpt lat="45.3932145" lon="8.0137982"><ele>350.0</ele><time>2026-04-19T10:15:37.949Z</time></trkpt><trkpt lat="45.3930833" lon="8.0138386"><ele>351.2</ele><time>2026-04-19T10:15:39.949Z</time></trkpt><trkpt lat="45.3929961" lon="8.0138565"><ele>352.4</ele><time>2026-04-19T10:15:40.95Z</time></trkpt><trkpt lat="45.3928968" lon="8.0138675"><ele>353.6</ele><time>2026-04-19T10:15:41.95Z</time></trkpt><trkpt lat="45.3927828" lon="8.0138851"><ele>354.8</ele><time>2026-04-19T10:15:42.95Z</time></trkpt><trkpt lat="45.3926771" lon="8.0139147"><ele>356.0</ele><time>2026-04-19T10:15:43.949Z</time></trkpt><trkpt lat="45.3925811" lon="8.0139526"><ele>356.0</ele><time>2026-04-19T10:15:44.949Z</time></trkpt><trkpt lat="45.3924917" lon="8.0139868"><ele>356.0</ele><time>2026-04-19T10:15:45.95Z</time></trkpt><trkpt lat="45.3924309" lon="8.014037"><ele>356.0</ele><time>2026-04-19T10:15:46.95Z</time></trkpt><trkpt lat="45.3923616" lon="8.0140862"><ele>356.0</ele><time>2026-04-19T10:15:47.949Z</time></trkpt><trkpt lat="45.3923045" lon="8.0141321"><ele>356.0</ele><time>2026-04-19T10:15:48.95Z</time></trkpt><trkpt lat="45.3922097" lon="8.0142084"><ele>356.0</ele><time>2026-04-19T10:15:50.95Z</time></trkpt><trkpt lat="45.3921467" lon="8.0142957"><ele>356.6</ele><time>2026-04-19T10:15:52.949Z</time></trkpt><trkpt lat="45.392137" lon="8.0144515"><ele>357.20000000000005</ele><time>2026-04-19T10:15:54.951Z</time></trkpt><trkpt lat="45.3921606" lon="8.014611"><ele>357.79999999999995</ele><time>2026-04-19T10:15:56.95Z</time></trkpt><trkpt lat="45.3922345" lon="8.0147131"><ele>358.4</ele><time>2026-04-19T10:15:58.951Z</time></trkpt><trkpt lat="45.3923028" lon="8.0147417"><ele>359.0</ele><time>2026-04-19T10:16:00.95Z</time></trkpt><trkpt lat="45.3923644" lon="8.0147607"><ele>359.0</ele><time>2026-04-19T10:16:03.949Z</time></trkpt><trkpt lat="45.3925142" lon="8.0147676"><ele>359.0</ele><time>2026-04-19T10:16:10.949Z</time></trkpt><trkpt lat="45.3925948" lon="8.0147223"><ele>359.0</ele><time>2026-04-19T10:16:13.951Z</time></trkpt><trkpt lat="45.3926676" lon="8.0147186"><ele>359.0</ele><time>2026-04-19T10:16:15.949Z</time></trkpt><trkpt lat="45.3927357" lon="8.0147331"><ele>359.0</ele><time>2026-04-19T10:16:17.949Z</time></trkpt><trkpt lat="45.3928072" lon="8.0147618"><ele>359.0</ele><time>2026-04-19T10:16:19.949Z</time></trkpt><trkpt lat="45.3928882" lon="8.014776"><ele>359.0</ele><time>2026-04-19T10:16:21.95Z</time></trkpt><trkpt lat="45.3929767" lon="8.0147765"><ele>359.0</ele><time>2026-04-19T10:16:23.949Z</time></trkpt><trkpt lat="45.3930397" lon="8.0147739"><ele>359.0</ele><time>2026-04-19T10:16:24.95Z</time></trkpt><trkpt lat="45.3931772" lon="8.0148059"><ele>359.0</ele><time>2026-04-19T10:16:26.949Z</time></trkpt><trkpt lat="45.39326" lon="8.014822"><ele>358.79999999999995</ele><time>2026-04-19T10:16:27.949Z</time></trkpt><trkpt lat="45.3933271" lon="8.0148419"><ele>358.59999999999997</ele><time>2026-04-19T10:16:28.949Z</time></trkpt><trkpt lat="45.3934226" lon="8.0148857"><ele>358.4</ele><time>2026-04-19T10:16:30.949Z</time></trkpt><trkpt lat="45.3934812" lon="8.0149195"><ele>358.2</ele><time>2026-04-19T10:16:31.95Z</time></trkpt><trkpt lat="45.3935996" lon="8.0149608"><ele>358.0</ele><time>2026-04-19T10:16:33.95Z</time></trkpt><trkpt lat="45.3937164" lon="8.0149854"><ele>358.0</ele><time>2026-04-19T10:16:35.951Z</time></trkpt><trkpt lat="45.3937866" lon="8.0149796"><ele>358.0</ele><time>2026-04-19T10:16:36.95Z</time></trkpt><trkpt lat="45.3939148" lon="8.0150194"><ele>358.0</ele><time>2026-04-19T10:16:38.949Z</time></trkpt><trkpt lat="45.3940398" lon="8.0150396"><ele>358.0</ele><time>2026-04-19T10:16:40.95Z</time></trkpt><trkpt lat="45.3941079" lon="8.0150418"><ele>358.0</ele><time>2026-04-19T10:16:41.951Z</time></trkpt><trkpt lat="45.3941816" lon="8.0150381"><ele>361.5</ele><time>2026-04-19T10:16:42.949Z</time></trkpt><trkpt lat="45.3942532" lon="8.0150223"><ele>365.0</ele><time>2026-04-19T10:16:43.95Z</time></trkpt><trkpt lat="45.3943187" lon="8.0150065"><ele>368.5</ele><time>2026-04-19T10:16:44.95Z</time></trkpt><trkpt lat="45.3944382" lon="8.0150231"><ele>372.0</ele><time>2026-04-19T10:16:46.949Z</time></trkpt><trkpt lat="45.3945091" lon="8.0150871"><ele>375.5</ele><time>2026-04-19T10:16:47.949Z</time></trkpt><trkpt lat="45.3945773" lon="8.0151235"><ele>379.0</ele><time>2026-04-19T10:16:48.949Z</time></trkpt><trkpt lat="45.3946687" lon="8.0151832"><ele>379.79999999999995</ele><time>2026-04-19T10:16:50.95Z</time></trkpt><trkpt lat="45.3947443" lon="8.0152114"><ele>380.59999999999997</ele><time>2026-04-19T10:16:52.949Z</time></trkpt><trkpt lat="45.3948637" lon="8.0152362"><ele>381.4</ele><time>2026-04-19T10:16:54.949Z</time></trkpt><trkpt lat="45.3949686" lon="8.0152633"><ele>382.2</ele><time>2026-04-19T10:16:56.949Z</time></trkpt><trkpt lat="45.3950533" lon="8.0153261"><ele>383.0</ele><time>2026-04-19T10:16:58.949Z</time></trkpt><trkpt lat="45.395131" lon="8.0153982"><ele>383.0</ele><time>2026-04-19T10:17:00.949Z</time></trkpt><trkpt lat="45.3952063" lon="8.0154762"><ele>383.0</ele><time>2026-04-19T10:17:02.949Z</time></trkpt><trkpt lat="45.3952586" lon="8.0155528"><ele>383.0</ele><time>2026-04-19T10:17:05.951Z</time></trkpt><trkpt lat="45.3953267" lon="8.015608"><ele>383.0</ele><time>2026-04-19T10:17:08.95Z</time></trkpt><trkpt lat="45.3954154" lon="8.0156469"><ele>383.0</ele><time>2026-04-19T10:17:11.949Z</time></trkpt><trkpt lat="45.3954948" lon="8.0156898"><ele>383.0</ele><time>2026-04-19T10:17:13.951Z</time></trkpt><trkpt lat="45.3956055" lon="8.0157786"><ele>383.83333333333337</ele><time>2026-04-19T10:17:15.95Z</time></trkpt><trkpt lat="45.3956736" lon="8.0158401"><ele>384.6666666666667</ele><time>2026-04-19T10:17:17.949Z</time></trkpt><trkpt lat="45.3957405" lon="8.0158793"><ele>385.5</ele><time>2026-04-19T10:17:19.949Z</time></trkpt><trkpt lat="45.3958268" lon="8.0159396"><ele>386.33333333333337</ele><time>2026-04-19T10:17:21.949Z</time></trkpt><trkpt lat="45.3959159" lon="8.0159847"><ele>387.1666666666667</ele><time>2026-04-19T10:17:23.949Z</time></trkpt><trkpt lat="45.3959986" lon="8.0160458"><ele>388.0</ele><time>2026-04-19T10:17:25.949Z</time></trkpt><trkpt lat="45.3960667" lon="8.0161185"><ele>388.00000000000006</ele><time>2026-04-19T10:17:27.949Z</time></trkpt><trkpt lat="45.3961602" lon="8.0161845"><ele>388.0</ele><time>2026-04-19T10:17:29.949Z</time></trkpt><trkpt lat="45.3962263" lon="8.0162755"><ele>388.0</ele><time>2026-04-19T10:17:31.95Z</time></trkpt><trkpt lat="45.3962909" lon="8.0163268"><ele>388.0</ele><time>2026-04-19T10:17:36.949Z</time></trkpt><trkpt lat="45.3963593" lon="8.0163071"><ele>388.00000000000006</ele><time>2026-04-19T10:17:41.949Z</time></trkpt><trkpt lat="45.3964142" lon="8.0163689"><ele>388.0</ele><time>2026-04-19T10:17:46.95Z</time></trkpt><trkpt lat="45.3964074" lon="8.0164624"><ele>387.83333333333337</ele><time>2026-04-19T10:17:50.95Z</time></trkpt><trkpt lat="45.3963742" lon="8.0165417"><ele>387.6666666666667</ele><time>2026-04-19T10:17:53.95Z</time></trkpt><trkpt lat="45.3964199" lon="8.0166582"><ele>387.5</ele><time>2026-04-19T10:17:56.949Z</time></trkpt><trkpt lat="45.3964738" lon="8.0167299"><ele>387.33333333333337</ele><time>2026-04-19T10:17:57.95Z</time></trkpt><trkpt lat="45.3965256" lon="8.016831"><ele>387.1666666666667</ele><time>2026-04-19T10:17:59.949Z</time></trkpt><trkpt lat="45.3965869" lon="8.0168741"><ele>387.0</ele><time>2026-04-19T10:18:02.948Z</time></trkpt><trkpt lat="45.3966703" lon="8.0168758"><ele>387.0</ele><time>2026-04-19T10:18:05.949Z</time></trkpt><trkpt lat="45.3967364" lon="8.0168506"><ele>387.0</ele><time>2026-04-19T10:18:07.948Z</time></trkpt><trkpt lat="45.3968154" lon="8.0167739"><ele>387.0</ele><time>2026-04-19T10:18:09.948Z</time></trkpt><trkpt lat="45.3968732" lon="8.0167234"><ele>387.0</ele><time>2026-04-19T10:18:10.949Z</time></trkpt><trkpt lat="45.3969403" lon="8.0167115"><ele>387.0</ele><time>2026-04-19T10:18:11.948Z</time></trkpt><trkpt lat="45.3970099" lon="8.0166651"><ele>387.0</ele><time>2026-04-19T10:18:13.949Z</time></trkpt><trkpt lat="45.3970884" lon="8.016624"><ele>385.6666666666667</ele><time>2026-04-19T10:18:15.948Z</time></trkpt><trkpt lat="45.3971679" lon="8.0165883"><ele>384.3333333333333</ele><time>2026-04-19T10:18:17.949Z</time></trkpt><trkpt lat="45.3972306" lon="8.0165204"><ele>383.0</ele><time>2026-04-19T10:18:19.948Z</time></trkpt><trkpt lat="45.3972861" lon="8.0164419"><ele>381.66666666666663</ele><time>2026-04-19T10:18:21.949Z</time></trkpt><trkpt lat="45.397347" lon="8.0163919"><ele>380.3333333333333</ele><time>2026-04-19T10:18:23.95Z</time></trkpt><trkpt lat="45.3974223" lon="8.0163378"><ele>379.0</ele><time>2026-04-19T10:18:25.949Z</time></trkpt><trkpt lat="45.3975015" lon="8.0162583"><ele>377.3333333333333</ele><time>2026-04-19T10:18:28.948Z</time></trkpt><trkpt lat="45.3975492" lon="8.0161858"><ele>375.66666666666663</ele><time>2026-04-19T10:18:32.949Z</time></trkpt><trkpt lat="45.3975788" lon="8.0160994"><ele>374.0</ele><time>2026-04-19T10:18:35.949Z</time></trkpt><trkpt lat="45.3976083" lon="8.0159829"><ele>372.3333333333333</ele><time>2026-04-19T10:18:38.949Z</time></trkpt><trkpt lat="45.397619" lon="8.015847"><ele>370.6666666666667</ele><time>2026-04-19T10:18:41.948Z</time></trkpt><trkpt lat="45.3976221" lon="8.0157458"><ele>369.0</ele><time>2026-04-19T10:18:43.949Z</time></trkpt><trkpt lat="45.397632" lon="8.015654"><ele>368.0</ele><time>2026-04-19T10:18:45.949Z</time></trkpt><trkpt lat="45.3976363" lon="8.015559"><ele>367.0</ele><time>2026-04-19T10:18:48.948Z</time></trkpt><trkpt lat="45.3977157" lon="8.0154426"><ele>366.0</ele><time>2026-04-19T10:19:17.948Z</time></trkpt><trkpt lat="45.397787" lon="8.0154367"><ele>365.0</ele><time>2026-04-19T10:19:23.949Z</time></trkpt><trkpt lat="45.3979294" lon="8.0154393"><ele>364.0</ele><time>2026-04-19T10:20:24.949Z</time></trkpt><trkpt lat="45.3980232" lon="8.0154406"><ele>360.0</ele><time>2026-04-19T10:20:27.949Z</time></trkpt><trkpt lat="45.3981271" lon="8.0154701"><ele>356.0</ele><time>2026-04-19T10:20:29.949Z</time></trkpt><trkpt lat="45.3982018" lon="8.015506"><ele>352.0</ele><time>2026-04-19T10:20:31.948Z</time></trkpt><trkpt lat="45.3983697" lon="8.015542"><ele>348.0</ele><time>2026-04-19T10:20:42.948Z</time></trkpt><trkpt lat="45.3984369" lon="8.0155783"><ele>344.0</ele><time>2026-04-19T10:20:43.949Z</time></trkpt><trkpt lat="45.3985036" lon="8.0156396"><ele>344.0</ele><time>2026-04-19T10:20:45.948Z</time></trkpt><trkpt lat="45.3985485" lon="8.0157279"><ele>344.0</ele><time>2026-04-19T10:20:47.949Z</time></trkpt><trkpt lat="45.3985728" lon="8.0158288"><ele>344.0</ele><time>2026-04-19T10:20:49.949Z</time></trkpt><trkpt lat="45.3986049" lon="8.0159253"><ele>344.0</ele><time>2026-04-19T10:20:53.949Z</time></trkpt><trkpt lat="45.3986306" lon="8.0160222"><ele>344.0</ele><time>2026-04-19T10:21:03.949Z</time></trkpt><trkpt lat="45.3986463" lon="8.0161135"><ele>344.0</ele><time>2026-04-19T10:21:07.948Z</time></trkpt><trkpt lat="45.3986866" lon="8.0162247"><ele>344.7142857142857</ele><time>2026-04-19T10:21:11.948Z</time></trkpt><trkpt lat="45.3987401" lon="8.0162982"><ele>345.42857142857144</ele><time>2026-04-19T10:21:51.948Z</time></trkpt><trkpt lat="45.3988047" lon="8.0162737"><ele>346.1428571428571</ele><time>2026-04-19T10:21:54.949Z</time></trkpt><trkpt lat="45.3988834" lon="8.0162785"><ele>346.8571428571429</ele><time>2026-04-19T10:21:57.949Z</time></trkpt><trkpt lat="45.3989586" lon="8.0162405"><ele>347.57142857142856</ele><time>2026-04-19T10:22:00.949Z</time></trkpt><trkpt lat="45.3990284" lon="8.016201"><ele>348.2857142857143</ele><time>2026-04-19T10:22:03.949Z</time></trkpt><trkpt lat="45.3990978" lon="8.0161815"><ele>349.0</ele><time>2026-04-19T10:22:07.948Z</time></trkpt><trkpt lat="45.3991844" lon="8.0161909"><ele>346.3333333333333</ele><time>2026-04-19T10:23:04.948Z</time></trkpt><trkpt lat="45.3992383" lon="8.0162375"><ele>343.66666666666663</ele><time>2026-04-19T10:23:06.948Z</time></trkpt><trkpt lat="45.3992908" lon="8.0163034"><ele>341.0</ele><time>2026-04-19T10:23:09.948Z</time></trkpt><trkpt lat="45.3993748" lon="8.0163357"><ele>338.3333333333333</ele><time>2026-04-19T10:23:12.949Z</time></trkpt><trkpt lat="45.3994663" lon="8.0163527"><ele>335.6666666666667</ele><time>2026-04-19T10:23:15.948Z</time></trkpt><trkpt lat="45.3995374" lon="8.0163539"><ele>333.0</ele><time>2026-04-19T10:23:17.948Z</time></trkpt><trkpt lat="45.3996088" lon="8.0163675"><ele>333.0</ele><time>2026-04-19T10:23:19.95Z</time></trkpt><trkpt lat="45.399672" lon="8.0164237"><ele>333.0</ele><time>2026-04-19T10:23:21.948Z</time></trkpt><trkpt lat="45.399738" lon="8.0164796"><ele>333.0</ele><time>2026-04-19T10:23:24.948Z</time></trkpt><trkpt lat="45.3996748" lon="8.0165512"><ele>333.0</ele><time>2026-04-19T10:24:17.947Z</time></trkpt><trkpt lat="45.3995883" lon="8.0166193"><ele>333.0</ele><time>2026-04-19T10:24:19.948Z</time></trkpt><trkpt lat="45.3994734" lon="8.0167329"><ele>333.3333333333333</ele><time>2026-04-19T10:24:21.947Z</time></trkpt><trkpt lat="45.3994234" lon="8.0167949"><ele>333.6666666666667</ele><time>2026-04-19T10:24:22.948Z</time></trkpt><trkpt lat="45.399369" lon="8.0168432"><ele>334.0</ele><time>2026-04-19T10:24:23.949Z</time></trkpt><trkpt lat="45.3992725" lon="8.0169024"><ele>334.33333333333337</ele><time>2026-04-19T10:24:25.948Z</time></trkpt><trkpt lat="45.3992" lon="8.0169431"><ele>334.6666666666667</ele><time>2026-04-19T10:24:27.948Z</time></trkpt><trkpt lat="45.3991144" lon="8.0169925"><ele>335.0</ele><time>2026-04-19T10:24:29.948Z</time></trkpt><trkpt lat="45.3990538" lon="8.0170351"><ele>335.0</ele><time>2026-04-19T10:24:30.948Z</time></trkpt><trkpt lat="45.398959" lon="8.0171757"><ele>335.0</ele><time>2026-04-19T10:24:32.947Z</time></trkpt><trkpt lat="45.3989198" lon="8.0172459"><ele>335.0</ele><time>2026-04-19T10:24:33.948Z</time></trkpt><trkpt lat="45.3988876" lon="8.0173308"><ele>335.0</ele><time>2026-04-19T10:24:34.947Z</time></trkpt><trkpt lat="45.3988512" lon="8.0174105"><ele>335.0</ele><time>2026-04-19T10:24:35.948Z</time></trkpt><trkpt lat="45.3987828" lon="8.0175513"><ele>336.6666666666667</ele><time>2026-04-19T10:24:37.948Z</time></trkpt><trkpt lat="45.3987495" lon="8.0176472"><ele>338.33333333333337</ele><time>2026-04-19T10:24:38.948Z</time></trkpt><trkpt lat="45.3987135" lon="8.0177307"><ele>340.0</ele><time>2026-04-19T10:24:39.947Z</time></trkpt><trkpt lat="45.3986737" lon="8.0178235"><ele>341.6666666666667</ele><time>2026-04-19T10:24:40.948Z</time></trkpt><trkpt lat="45.3986407" lon="8.0179077"><ele>343.3333333333333</ele><time>2026-04-19T10:24:41.947Z</time></trkpt><trkpt lat="45.3985612" lon="8.0180628"><ele>345.0</ele><time>2026-04-19T10:24:43.948Z</time></trkpt><trkpt lat="45.3985199" lon="8.0181482"><ele>345.0</ele><time>2026-04-19T10:24:44.948Z</time></trkpt><trkpt lat="45.3984854" lon="8.018235"><ele>345.0</ele><time>2026-04-19T10:24:45.947Z</time></trkpt><trkpt lat="45.3984444" lon="8.0183125"><ele>345.0</ele><time>2026-04-19T10:24:46.947Z</time></trkpt><trkpt lat="45.3983993" lon="8.0183989"><ele>345.0</ele><time>2026-04-19T10:24:47.947Z</time></trkpt><trkpt lat="45.3983573" lon="8.0184979"><ele>345.0</ele><time>2026-04-19T10:24:48.947Z</time></trkpt><trkpt lat="45.3982918" lon="8.0186094"><ele>345.0</ele><time>2026-04-19T10:24:49.947Z</time></trkpt><trkpt lat="45.3982457" lon="8.0187029"><ele>345.1666666666667</ele><time>2026-04-19T10:24:50.947Z</time></trkpt><trkpt lat="45.3981926" lon="8.0188088"><ele>345.3333333333333</ele><time>2026-04-19T10:24:51.949Z</time></trkpt><trkpt lat="45.3981455" lon="8.0188997"><ele>345.5</ele><time>2026-04-19T10:24:52.947Z</time></trkpt><trkpt lat="45.398097" lon="8.0189726"><ele>345.66666666666663</ele><time>2026-04-19T10:24:53.947Z</time></trkpt><trkpt lat="45.3980474" lon="8.0190652"><ele>345.8333333333333</ele><time>2026-04-19T10:24:54.948Z</time></trkpt><trkpt lat="45.398001" lon="8.0191427"><ele>346.0</ele><time>2026-04-19T10:24:55.948Z</time></trkpt><trkpt lat="45.3979312" lon="8.0193147"><ele>346.0</ele><time>2026-04-19T10:24:57.947Z</time></trkpt><trkpt lat="45.3978712" lon="8.019392"><ele>346.0</ele><time>2026-04-19T10:24:58.947Z</time></trkpt><trkpt lat="45.3978272" lon="8.0194687"><ele>346.0</ele><time>2026-04-19T10:24:59.947Z</time></trkpt><trkpt lat="45.3977787" lon="8.0195629"><ele>346.0</ele><time>2026-04-19T10:25:00.948Z</time></trkpt><trkpt lat="45.3976694" lon="8.0196128"><ele>346.0</ele><time>2026-04-19T10:25:02.947Z</time></trkpt><trkpt lat="45.3975855" lon="8.0196297"><ele>346.0</ele><time>2026-04-19T10:25:03.947Z</time></trkpt><trkpt lat="45.397515" lon="8.0196563"><ele>346.0</ele><time>2026-04-19T10:25:04.947Z</time></trkpt><trkpt lat="45.3974519" lon="8.0196912"><ele>346.0</ele><time>2026-04-19T10:25:05.948Z</time></trkpt><trkpt lat="45.397383" lon="8.0197293"><ele>346.0</ele><time>2026-04-19T10:25:06.947Z</time></trkpt><trkpt lat="45.3973177" lon="8.0197748"><ele>346.0</ele><time>2026-04-19T10:25:07.947Z</time></trkpt><trkpt lat="45.3972639" lon="8.0198265"><ele>346.0</ele><time>2026-04-19T10:25:08.947Z</time></trkpt><trkpt lat="45.3972035" lon="8.0198834"><ele>346.0</ele><time>2026-04-19T10:25:09.947Z</time></trkpt><trkpt lat="45.3971303" lon="8.0199516"><ele>346.0</ele><time>2026-04-19T10:25:10.949Z</time></trkpt><trkpt lat="45.3970598" lon="8.020013"><ele>347.6</ele><time>2026-04-19T10:25:11.947Z</time></trkpt><trkpt lat="45.3969907" lon="8.020078"><ele>349.20000000000005</ele><time>2026-04-19T10:25:12.948Z</time></trkpt><trkpt lat="45.3968855" lon="8.020206"><ele>350.79999999999995</ele><time>2026-04-19T10:25:14.947Z</time></trkpt><trkpt lat="45.396818" lon="8.0202688"><ele>352.4</ele><time>2026-04-19T10:25:15.948Z</time></trkpt><trkpt lat="45.3967089" lon="8.0203831"><ele>354.0</ele><time>2026-04-19T10:25:17.949Z</time></trkpt><trkpt lat="45.3966942" lon="8.0205205"><ele>354.0</ele><time>2026-04-19T10:25:19.949Z</time></trkpt><trkpt lat="45.3966618" lon="8.0206548"><ele>354.0</ele><time>2026-04-19T10:25:21.947Z</time></trkpt><trkpt lat="45.3966458" lon="8.0207747"><ele>354.0</ele><time>2026-04-19T10:25:22.947Z</time></trkpt><trkpt lat="45.3966202" lon="8.0209025"><ele>354.0</ele><time>2026-04-19T10:25:24.948Z</time></trkpt><trkpt lat="45.3965407" lon="8.0210542"><ele>354.0</ele><time>2026-04-19T10:25:26.948Z</time></trkpt><trkpt lat="45.3964936" lon="8.0211219"><ele>351.79999999999995</ele><time>2026-04-19T10:25:27.948Z</time></trkpt><trkpt lat="45.3964398" lon="8.0211778"><ele>349.59999999999997</ele><time>2026-04-19T10:25:28.947Z</time></trkpt><trkpt lat="45.396345" lon="8.0213416"><ele>347.4</ele><time>2026-04-19T10:25:30.947Z</time></trkpt><trkpt lat="45.3963042" lon="8.021425"><ele>345.2</ele><time>2026-04-19T10:25:31.949Z</time></trkpt><trkpt lat="45.3962792" lon="8.0215078"><ele>343.0</ele><time>2026-04-19T10:25:32.947Z</time></trkpt><trkpt lat="45.3962142" lon="8.0216459"><ele>345.42857142857144</ele><time>2026-04-19T10:25:34.947Z</time></trkpt><trkpt lat="45.3961623" lon="8.021729"><ele>347.8571428571429</ele><time>2026-04-19T10:25:35.947Z</time></trkpt><trkpt lat="45.3961083" lon="8.0217941"><ele>350.2857142857143</ele><time>2026-04-19T10:25:36.948Z</time></trkpt><trkpt lat="45.3960445" lon="8.0218446"><ele>352.7142857142857</ele><time>2026-04-19T10:25:37.948Z</time></trkpt><trkpt lat="45.3959983" lon="8.0219065"><ele>355.14285714285717</ele><time>2026-04-19T10:25:38.947Z</time></trkpt><trkpt lat="45.3959483" lon="8.0219655"><ele>357.57142857142856</ele><time>2026-04-19T10:25:39.949Z</time></trkpt><trkpt lat="45.3958758" lon="8.0220307"><ele>360.0</ele><time>2026-04-19T10:25:40.947Z</time></trkpt><trkpt lat="45.3957392" lon="8.0221024"><ele>360.0</ele><time>2026-04-19T10:25:42.947Z</time></trkpt><trkpt lat="45.3956441" lon="8.0221445"><ele>360.0</ele><time>2026-04-19T10:25:43.947Z</time></trkpt><trkpt lat="45.3955711" lon="8.0221804"><ele>360.0</ele><time>2026-04-19T10:25:44.947Z</time></trkpt><trkpt lat="45.3955372" lon="8.0222569"><ele>360.0</ele><time>2026-04-19T10:25:45.948Z</time></trkpt><trkpt lat="45.3954743" lon="8.0223152"><ele>360.0</ele><time>2026-04-19T10:25:46.947Z</time></trkpt><trkpt lat="45.3954171" lon="8.0223788"><ele>360.0</ele><time>2026-04-19T10:25:47.948Z</time></trkpt><trkpt lat="45.3953305" lon="8.0224783"><ele>360.6666666666667</ele><time>2026-04-19T10:25:49.948Z</time></trkpt><trkpt lat="45.3952735" lon="8.0225291"><ele>361.3333333333333</ele><time>2026-04-19T10:25:50.947Z</time></trkpt><trkpt lat="45.3951994" lon="8.0225874"><ele>362.0</ele><time>2026-04-19T10:25:51.947Z</time></trkpt><trkpt lat="45.3951466" lon="8.0226839"><ele>362.66666666666663</ele><time>2026-04-19T10:25:52.948Z</time></trkpt><trkpt lat="45.3950914" lon="8.0227796"><ele>363.3333333333333</ele><time>2026-04-19T10:25:53.948Z</time></trkpt><trkpt lat="45.3950392" lon="8.0228755"><ele>364.0</ele><time>2026-04-19T10:25:54.948Z</time></trkpt><trkpt lat="45.3949827" lon="8.0229729"><ele>364.0</ele><time>2026-04-19T10:25:55.947Z</time></trkpt><trkpt lat="45.3949176" lon="8.023035"><ele>364.0</ele><time>2026-04-19T10:25:56.948Z</time></trkpt><trkpt lat="45.394864" lon="8.0231111"><ele>364.0</ele><time>2026-04-19T10:25:57.948Z</time></trkpt><trkpt lat="45.3948067" lon="8.0231592"><ele>364.0</ele><time>2026-04-19T10:25:58.947Z</time></trkpt><trkpt lat="45.3947275" lon="8.0232019"><ele>364.0</ele><time>2026-04-19T10:26:00.948Z</time></trkpt><trkpt lat="45.3946002" lon="8.0232091"><ele>364.0</ele><time>2026-04-19T10:26:02.947Z</time></trkpt><trkpt lat="45.3944841" lon="8.0232801"><ele>365.5</ele><time>2026-04-19T10:26:04.947Z</time></trkpt><trkpt lat="45.3944025" lon="8.0234336"><ele>367.0</ele><time>2026-04-19T10:26:06.947Z</time></trkpt><trkpt lat="45.3943721" lon="8.023517"><ele>368.5</ele><time>2026-04-19T10:26:07.947Z</time></trkpt><trkpt lat="45.3943462" lon="8.0235999"><ele>370.0</ele><time>2026-04-19T10:26:08.948Z</time></trkpt><trkpt lat="45.3943025" lon="8.0237502"><ele>371.5</ele><time>2026-04-19T10:26:10.948Z</time></trkpt><trkpt lat="45.3942812" lon="8.0238374"><ele>373.0</ele><time>2026-04-19T10:26:11.948Z</time></trkpt><trkpt lat="45.3942298" lon="8.0240488"><ele>373.0</ele><time>2026-04-19T10:26:13.948Z</time></trkpt><trkpt lat="45.3941929" lon="8.0241432"><ele>373.0</ele><time>2026-04-19T10:26:14.947Z</time></trkpt><trkpt lat="45.394166" lon="8.0242461"><ele>373.0</ele><time>2026-04-19T10:26:15.947Z</time></trkpt><trkpt lat="45.3941363" lon="8.0243335"><ele>373.0</ele><time>2026-04-19T10:26:16.948Z</time></trkpt><trkpt lat="45.3940852" lon="8.0243901"><ele>373.0</ele><time>2026-04-19T10:26:17.948Z</time></trkpt><trkpt lat="45.3940298" lon="8.0244645"><ele>373.0</ele><time>2026-04-19T10:26:18.947Z</time></trkpt><trkpt lat="45.3939682" lon="8.0245035"><ele>373.0</ele><time>2026-04-19T10:26:19.948Z</time></trkpt><trkpt lat="45.3938979" lon="8.024571"><ele>374.16666666666663</ele><time>2026-04-19T10:26:20.948Z</time></trkpt><trkpt lat="45.3938384" lon="8.0246127"><ele>375.3333333333333</ele><time>2026-04-19T10:26:21.948Z</time></trkpt><trkpt lat="45.3937625" lon="8.0246934"><ele>376.5</ele><time>2026-04-19T10:26:22.947Z</time></trkpt><trkpt lat="45.3936946" lon="8.0247739"><ele>377.6666666666667</ele><time>2026-04-19T10:26:23.947Z</time></trkpt><trkpt lat="45.3936263" lon="8.024832"><ele>378.83333333333337</ele><time>2026-04-19T10:26:24.948Z</time></trkpt><trkpt lat="45.3935645" lon="8.0249122"><ele>380.0</ele><time>2026-04-19T10:26:25.948Z</time></trkpt><trkpt lat="45.3935093" lon="8.0249981"><ele>376.4</ele><time>2026-04-19T10:26:26.948Z</time></trkpt><trkpt lat="45.3934762" lon="8.0250882"><ele>372.8</ele><time>2026-04-19T10:26:27.947Z</time></trkpt><trkpt lat="45.3934229" lon="8.0252385"><ele>369.20000000000005</ele><time>2026-04-19T10:26:29.947Z</time></trkpt><trkpt lat="45.3933888" lon="8.0253886"><ele>365.6</ele><time>2026-04-19T10:26:31.947Z</time></trkpt><trkpt lat="45.3933652" lon="8.0254861"><ele>362.0</ele><time>2026-04-19T10:26:33.948Z</time></trkpt><trkpt lat="45.3933762" lon="8.0256157"><ele>362.0</ele><time>2026-04-19T10:26:35.947Z</time></trkpt><trkpt lat="45.3934264" lon="8.0257441"><ele>362.0</ele><time>2026-04-19T10:26:36.947Z</time></trkpt><trkpt lat="45.3934389" lon="8.0258481"><ele>362.0</ele><time>2026-04-19T10:26:37.947Z</time></trkpt><trkpt lat="45.3934555" lon="8.0259579"><ele>362.0</ele><time>2026-04-19T10:26:38.948Z</time></trkpt><trkpt lat="45.3934657" lon="8.0260471"><ele>362.0</ele><time>2026-04-19T10:26:39.947Z</time></trkpt><trkpt lat="45.3934569" lon="8.0261797"><ele>362.0</ele><time>2026-04-19T10:26:41.947Z</time></trkpt><trkpt lat="45.3934174" lon="8.0262836"><ele>361.0</ele><time>2026-04-19T10:26:42.947Z</time></trkpt><trkpt lat="45.3933926" lon="8.0263759"><ele>360.0</ele><time>2026-04-19T10:26:43.947Z</time></trkpt><trkpt lat="45.3933649" lon="8.0264882"><ele>359.0</ele><time>2026-04-19T10:26:44.948Z</time></trkpt><trkpt lat="45.3933309" lon="8.0266135"><ele>358.0</ele><time>2026-04-19T10:26:45.947Z</time></trkpt><trkpt lat="45.3933102" lon="8.0267197"><ele>357.0</ele><time>2026-04-19T10:26:46.948Z</time></trkpt><trkpt lat="45.3932873" lon="8.0268301"><ele>356.0</ele><time>2026-04-19T10:26:47.949Z</time></trkpt><trkpt lat="45.3932654" lon="8.0269206"><ele>356.0</ele><time>2026-04-19T10:26:48.948Z</time></trkpt><trkpt lat="45.393225" lon="8.0270102"><ele>356.0</ele><time>2026-04-19T10:26:49.948Z</time></trkpt><trkpt lat="45.3931872" lon="8.0271003"><ele>356.0</ele><time>2026-04-19T10:26:50.947Z</time></trkpt><trkpt lat="45.3931374" lon="8.0272023"><ele>356.0</ele><time>2026-04-19T10:26:51.947Z</time></trkpt><trkpt lat="45.3930942" lon="8.027287"><ele>356.0</ele><time>2026-04-19T10:26:52.948Z</time></trkpt><trkpt lat="45.3930276" lon="8.0274187"><ele>356.0</ele><time>2026-04-19T10:26:54.947Z</time></trkpt><trkpt lat="45.3929953" lon="8.027521"><ele>358.33333333333337</ele><time>2026-04-19T10:26:55.948Z</time></trkpt><trkpt lat="45.3929736" lon="8.0276095"><ele>360.6666666666667</ele><time>2026-04-19T10:26:56.947Z</time></trkpt><trkpt lat="45.392908" lon="8.027774"><ele>363.0</ele><time>2026-04-19T10:26:58.947Z</time></trkpt><trkpt lat="45.3928686" lon="8.0278512"><ele>365.3333333333333</ele><time>2026-04-19T10:26:59.947Z</time></trkpt><trkpt lat="45.3928198" lon="8.0279439"><ele>367.66666666666663</ele><time>2026-04-19T10:27:00.947Z</time></trkpt><trkpt lat="45.3927778" lon="8.0280209"><ele>370.0</ele><time>2026-04-19T10:27:01.947Z</time></trkpt><trkpt lat="45.3927168" lon="8.028126"><ele>370.0</ele><time>2026-04-19T10:27:03.948Z</time></trkpt><trkpt lat="45.3926515" lon="8.0282532"><ele>370.0</ele><time>2026-04-19T10:27:05.947Z</time></trkpt><trkpt lat="45.3926122" lon="8.0283257"><ele>370.0</ele><time>2026-04-19T10:27:06.947Z</time></trkpt><trkpt lat="45.3925813" lon="8.0284069"><ele>370.0</ele><time>2026-04-19T10:27:07.947Z</time></trkpt><trkpt lat="45.3925591" lon="8.0284916"><ele>370.0</ele><time>2026-04-19T10:27:08.948Z</time></trkpt><trkpt lat="45.3925194" lon="8.0286772"><ele>370.0</ele><time>2026-04-19T10:27:10.947Z</time></trkpt><trkpt lat="45.3924738" lon="8.0288593"><ele>370.16666666666663</ele><time>2026-04-19T10:27:12.947Z</time></trkpt><trkpt lat="45.3924484" lon="8.0289463"><ele>370.3333333333333</ele><time>2026-04-19T10:27:13.947Z</time></trkpt><trkpt lat="45.3924057" lon="8.0290481"><ele>370.5</ele><time>2026-04-19T10:27:14.947Z</time></trkpt><trkpt lat="45.3923301" lon="8.0291335"><ele>370.6666666666667</ele><time>2026-04-19T10:27:15.948Z</time></trkpt><trkpt lat="45.3922701" lon="8.029226"><ele>370.83333333333337</ele><time>2026-04-19T10:27:16.949Z</time></trkpt><trkpt lat="45.3922086" lon="8.0293264"><ele>371.0</ele><time>2026-04-19T10:27:17.947Z</time></trkpt><trkpt lat="45.3921466" lon="8.029425"><ele>371.0</ele><time>2026-04-19T10:27:18.948Z</time></trkpt><trkpt lat="45.3920758" lon="8.0295266"><ele>371.0</ele><time>2026-04-19T10:27:19.947Z</time></trkpt><trkpt lat="45.3920106" lon="8.0296213"><ele>371.0</ele><time>2026-04-19T10:27:20.948Z</time></trkpt><trkpt lat="45.3919563" lon="8.0297125"><ele>371.0</ele><time>2026-04-19T10:27:21.948Z</time></trkpt><trkpt lat="45.3918909" lon="8.0298064"><ele>371.0</ele><time>2026-04-19T10:27:22.948Z</time></trkpt><trkpt lat="45.3918459" lon="8.0299003"><ele>368.6</ele><time>2026-04-19T10:27:23.948Z</time></trkpt><trkpt lat="45.3917547" lon="8.0300381"><ele>366.20000000000005</ele><time>2026-04-19T10:27:25.947Z</time></trkpt><trkpt lat="45.3916724" lon="8.03009"><ele>363.79999999999995</ele><time>2026-04-19T10:27:26.947Z</time></trkpt><trkpt lat="45.3915915" lon="8.0301293"><ele>361.4</ele><time>2026-04-19T10:27:28.947Z</time></trkpt><trkpt lat="45.3914987" lon="8.0302289"><ele>359.0</ele><time>2026-04-19T10:27:30.947Z</time></trkpt><trkpt lat="45.3914237" lon="8.0302692"><ele>361.2</ele><time>2026-04-19T10:27:31.947Z</time></trkpt><trkpt lat="45.3913246" lon="8.0303081"><ele>363.4</ele><time>2026-04-19T10:27:32.948Z</time></trkpt><trkpt lat="45.3912587" lon="8.0303401"><ele>365.6</ele><time>2026-04-19T10:27:33.948Z</time></trkpt><trkpt lat="45.3911732" lon="8.0303715"><ele>367.8</ele><time>2026-04-19T10:27:34.948Z</time></trkpt><trkpt lat="45.3910842" lon="8.0304027"><ele>370.0</ele><time>2026-04-19T10:27:35.948Z</time></trkpt><trkpt lat="45.3909616" lon="8.0304257"><ele>370.0</ele><time>2026-04-19T10:27:37.947Z</time></trkpt><trkpt lat="45.3908955" lon="8.0304456"><ele>370.0</ele><time>2026-04-19T10:27:38.949Z</time></trkpt><trkpt lat="45.3908324" lon="8.0304534"><ele>370.0</ele><time>2026-04-19T10:27:39.948Z</time></trkpt><trkpt lat="45.3907227" lon="8.0304372"><ele>370.0</ele><time>2026-04-19T10:27:41.948Z</time></trkpt><trkpt lat="45.3906508" lon="8.0304215"><ele>370.0</ele><time>2026-04-19T10:28:06.947Z</time></trkpt><trkpt lat="45.39058" lon="8.030389"><ele>370.0</ele><time>2026-04-19T10:28:10.948Z</time></trkpt><trkpt lat="45.3905047" lon="8.0303974"><ele>368.0</ele><time>2026-04-19T10:28:12.947Z</time></trkpt><trkpt lat="45.3904334" lon="8.030414"><ele>366.0</ele><time>2026-04-19T10:28:14.948Z</time></trkpt><trkpt lat="45.3903699" lon="8.0304326"><ele>364.0</ele><time>2026-04-19T10:28:16.948Z</time></trkpt><trkpt lat="45.3902776" lon="8.0304342"><ele>362.0</ele><time>2026-04-19T10:28:19.948Z</time></trkpt><trkpt lat="45.3902047" lon="8.030454"><ele>360.0</ele><time>2026-04-19T10:28:20.948Z</time></trkpt><trkpt lat="45.3901055" lon="8.0304994"><ele>358.0</ele><time>2026-04-19T10:28:22.948Z</time></trkpt><trkpt lat="45.3900167" lon="8.0305093"><ele>358.0</ele><time>2026-04-19T10:28:24.947Z</time></trkpt><trkpt lat="45.3899372" lon="8.0305127"><ele>358.0</ele><time>2026-04-19T10:28:26.948Z</time></trkpt><trkpt lat="45.3898576" lon="8.0304926"><ele>358.0</ele><time>2026-04-19T10:28:28.948Z</time></trkpt><trkpt lat="45.3897867" lon="8.0305215"><ele>358.0</ele><time>2026-04-19T10:28:30.947Z</time></trkpt><trkpt lat="45.3897086" lon="8.0305437"><ele>358.0</ele><time>2026-04-19T10:28:32.947Z</time></trkpt><trkpt lat="45.389601" lon="8.0305404"><ele>358.0</ele><time>2026-04-19T10:31:12.946Z</time></trkpt><trkpt lat="45.3895069" lon="8.0305407"><ele>355.66666666666663</ele><time>2026-04-19T10:31:13.946Z</time></trkpt><trkpt lat="45.3894183" lon="8.0304962"><ele>353.3333333333333</ele><time>2026-04-19T10:31:15.946Z</time></trkpt><trkpt lat="45.3893356" lon="8.0304508"><ele>351.0</ele><time>2026-04-19T10:31:17.947Z</time></trkpt><trkpt lat="45.3892543" lon="8.03044"><ele>348.6666666666667</ele><time>2026-04-19T10:31:19.947Z</time></trkpt><trkpt lat="45.3891981" lon="8.0303794"><ele>346.33333333333337</ele><time>2026-04-19T10:31:21.946Z</time></trkpt><trkpt lat="45.3891372" lon="8.0303048"><ele>344.0</ele><time>2026-04-19T10:31:23.946Z</time></trkpt><trkpt lat="45.3890742" lon="8.0302589"><ele>344.0</ele><time>2026-04-19T10:31:24.947Z</time></trkpt><trkpt lat="45.3890199" lon="8.0301998"><ele>344.0</ele><time>2026-04-19T10:31:25.946Z</time></trkpt><trkpt lat="45.3889703" lon="8.0301387"><ele>344.0</ele><time>2026-04-19T10:31:26.948Z</time></trkpt><trkpt lat="45.388913" lon="8.0300713"><ele>344.0</ele><time>2026-04-19T10:31:27.947Z</time></trkpt><trkpt lat="45.3888263" lon="8.0299845"><ele>344.0</ele><time>2026-04-19T10:31:28.947Z</time></trkpt><trkpt lat="45.3887537" lon="8.029915"><ele>344.0</ele><time>2026-04-19T10:31:29.947Z</time></trkpt><trkpt lat="45.388677" lon="8.029835"><ele>342.4</ele><time>2026-04-19T10:31:30.946Z</time></trkpt><trkpt lat="45.3886051" lon="8.02975"><ele>340.79999999999995</ele><time>2026-04-19T10:31:31.946Z</time></trkpt><trkpt lat="45.3885492" lon="8.0296855"><ele>339.20000000000005</ele><time>2026-04-19T10:31:32.946Z</time></trkpt><trkpt lat="45.3884425" lon="8.0295561"><ele>337.6</ele><time>2026-04-19T10:31:34.946Z</time></trkpt><trkpt lat="45.3883688" lon="8.0294857"><ele>336.0</ele><time>2026-04-19T10:31:35.947Z</time></trkpt><trkpt lat="45.3882849" lon="8.0293848"><ele>336.0</ele><time>2026-04-19T10:31:36.946Z</time></trkpt><trkpt lat="45.3882129" lon="8.0293104"><ele>336.0</ele><time>2026-04-19T10:31:37.946Z</time></trkpt><trkpt lat="45.3881391" lon="8.0292437"><ele>336.0</ele><time>2026-04-19T10:31:38.946Z</time></trkpt><trkpt lat="45.3880476" lon="8.0291301"><ele>336.0</ele><time>2026-04-19T10:31:39.947Z</time></trkpt><trkpt lat="45.3879671" lon="8.0290119"><ele>336.0</ele><time>2026-04-19T10:31:40.946Z</time></trkpt><trkpt lat="45.3878888" lon="8.028909"><ele>335.3333333333333</ele><time>2026-04-19T10:31:41.947Z</time></trkpt><trkpt lat="45.387816" lon="8.0288384"><ele>334.6666666666667</ele><time>2026-04-19T10:31:42.947Z</time></trkpt><trkpt lat="45.3877465" lon="8.0287845"><ele>334.0</ele><time>2026-04-19T10:31:43.946Z</time></trkpt><trkpt lat="45.3876471" lon="8.028746"><ele>333.33333333333337</ele><time>2026-04-19T10:31:45.946Z</time></trkpt><trkpt lat="45.3876101" lon="8.0286637"><ele>332.6666666666667</ele><time>2026-04-19T10:31:47.947Z</time></trkpt><trkpt lat="45.3876097" lon="8.0285459"><ele>332.0</ele><time>2026-04-19T10:31:49.946Z</time></trkpt><trkpt lat="45.387617" lon="8.0284511"><ele>332.0</ele><time>2026-04-19T10:31:51.948Z</time></trkpt><trkpt lat="45.3876304" lon="8.028351"><ele>332.0</ele><time>2026-04-19T10:31:53.947Z</time></trkpt><trkpt lat="45.3876329" lon="8.0282529"><ele>332.0</ele><time>2026-04-19T10:31:54.946Z</time></trkpt><trkpt lat="45.3876152" lon="8.0280952"><ele>332.0</ele><time>2026-04-19T10:31:56.947Z</time></trkpt><trkpt lat="45.3875763" lon="8.0279952"><ele>332.0</ele><time>2026-04-19T10:31:57.948Z</time></trkpt><trkpt lat="45.387525" lon="8.0278281"><ele>332.0</ele><time>2026-04-19T10:31:59.946Z</time></trkpt><trkpt lat="45.3874772" lon="8.0277446"><ele>332.0</ele><time>2026-04-19T10:32:00.946Z</time></trkpt><trkpt lat="45.3874184" lon="8.0276182"><ele>332.0</ele><time>2026-04-19T10:32:02.946Z</time></trkpt><trkpt lat="45.3873635" lon="8.0275198"><ele>332.0</ele><time>2026-04-19T10:32:03.947Z</time></trkpt><trkpt lat="45.3873142" lon="8.0274426"><ele>332.0</ele><time>2026-04-19T10:32:04.946Z</time></trkpt><trkpt lat="45.387263" lon="8.0273565"><ele>332.0</ele><time>2026-04-19T10:32:05.947Z</time></trkpt><trkpt lat="45.3872345" lon="8.0272601"><ele>332.0</ele><time>2026-04-19T10:32:06.946Z</time></trkpt><trkpt lat="45.387218" lon="8.0271498"><ele>332.0</ele><time>2026-04-19T10:32:07.947Z</time></trkpt><trkpt lat="45.3872158" lon="8.0270356"><ele>332.0</ele><time>2026-04-19T10:32:08.946Z</time></trkpt><trkpt lat="45.3872275" lon="8.0269124"><ele>332.0</ele><time>2026-04-19T10:32:09.946Z</time></trkpt><trkpt lat="45.3872415" lon="8.0267809"><ele>332.0</ele><time>2026-04-19T10:32:10.946Z</time></trkpt><trkpt lat="45.3872408" lon="8.0266486"><ele>332.0</ele><time>2026-04-19T10:32:11.946Z</time></trkpt><trkpt lat="45.3872522" lon="8.0265045"><ele>332.20000000000005</ele><time>2026-04-19T10:32:12.947Z</time></trkpt><trkpt lat="45.3872588" lon="8.0263568"><ele>332.4</ele><time>2026-04-19T10:32:13.947Z</time></trkpt><trkpt lat="45.3872537" lon="8.0262282"><ele>332.6</ele><time>2026-04-19T10:32:14.948Z</time></trkpt><trkpt lat="45.3872584" lon="8.0260839"><ele>332.79999999999995</ele><time>2026-04-19T10:32:15.946Z</time></trkpt><trkpt lat="45.3872681" lon="8.0259438"><ele>333.0</ele><time>2026-04-19T10:32:16.946Z</time></trkpt><trkpt lat="45.3872879" lon="8.025772"><ele>333.3333333333333</ele><time>2026-04-19T10:32:17.946Z</time></trkpt><trkpt lat="45.3873098" lon="8.0255888"><ele>333.66666666666663</ele><time>2026-04-19T10:32:18.947Z</time></trkpt><trkpt lat="45.3873434" lon="8.0253684"><ele>334.0</ele><time>2026-04-19T10:32:19.946Z</time></trkpt><trkpt lat="45.3873794" lon="8.0251355"><ele>335.75</ele><time>2026-04-19T10:32:20.947Z</time></trkpt><trkpt lat="45.3874162" lon="8.0249328"><ele>337.5</ele><time>2026-04-19T10:32:21.947Z</time></trkpt><trkpt lat="45.3874508" lon="8.024746"><ele>339.25</ele><time>2026-04-19T10:32:22.947Z</time></trkpt><trkpt lat="45.387473" lon="8.0246226"><ele>341.0</ele><time>2026-04-19T10:32:23.947Z</time></trkpt><trkpt lat="45.387489" lon="8.0244858"><ele>341.0</ele><time>2026-04-19T10:32:24.947Z</time></trkpt><trkpt lat="45.3874881" lon="8.0243318"><ele>341.0</ele><time>2026-04-19T10:32:25.946Z</time></trkpt><trkpt lat="45.3874884" lon="8.0241945"><ele>341.0</ele><time>2026-04-19T10:32:26.946Z</time></trkpt><trkpt lat="45.3874966" lon="8.0240715"><ele>341.0</ele><time>2026-04-19T10:32:27.947Z</time></trkpt><trkpt lat="45.387497" lon="8.0239682"><ele>341.0</ele><time>2026-04-19T10:32:28.947Z</time></trkpt><trkpt lat="45.3874858" lon="8.0238596"><ele>341.0</ele><time>2026-04-19T10:32:29.946Z</time></trkpt><trkpt lat="45.3873898" lon="8.0237173"><ele>341.33333333333337</ele><time>2026-04-19T10:32:31.947Z</time></trkpt><trkpt lat="45.3873448" lon="8.0236285"><ele>341.6666666666667</ele><time>2026-04-19T10:32:32.946Z</time></trkpt><trkpt lat="45.3872758" lon="8.0235341"><ele>342.0</ele><time>2026-04-19T10:32:33.946Z</time></trkpt><trkpt lat="45.387231" lon="8.0234381"><ele>342.3333333333333</ele><time>2026-04-19T10:32:34.947Z</time></trkpt><trkpt lat="45.3871763" lon="8.023336"><ele>342.66666666666663</ele><time>2026-04-19T10:32:35.947Z</time></trkpt><trkpt lat="45.3871222" lon="8.0232454"><ele>343.0</ele><time>2026-04-19T10:32:36.947Z</time></trkpt><trkpt lat="45.3870532" lon="8.0231531"><ele>344.2</ele><time>2026-04-19T10:32:37.948Z</time></trkpt><trkpt lat="45.3869933" lon="8.0230452"><ele>345.4</ele><time>2026-04-19T10:32:38.948Z</time></trkpt><trkpt lat="45.3869281" lon="8.0229414"><ele>346.59999999999997</ele><time>2026-04-19T10:32:39.947Z</time></trkpt><trkpt lat="45.3868525" lon="8.0228286"><ele>347.79999999999995</ele><time>2026-04-19T10:32:40.946Z</time></trkpt><trkpt lat="45.3867758" lon="8.0227183"><ele>349.0</ele><time>2026-04-19T10:32:41.947Z</time></trkpt><trkpt lat="45.3866966" lon="8.0225993"><ele>350.0</ele><time>2026-04-19T10:32:42.946Z</time></trkpt><trkpt lat="45.3866184" lon="8.0224799"><ele>351.0</ele><time>2026-04-19T10:32:43.946Z</time></trkpt><trkpt lat="45.3865389" lon="8.0223538"><ele>352.0</ele><time>2026-04-19T10:32:44.946Z</time></trkpt><trkpt lat="45.3864534" lon="8.0222317"><ele>353.0</ele><time>2026-04-19T10:32:45.946Z</time></trkpt><trkpt lat="45.3863712" lon="8.0221131"><ele>353.0</ele><time>2026-04-19T10:32:46.946Z</time></trkpt><trkpt lat="45.3862598" lon="8.0219579"><ele>353.0</ele><time>2026-04-19T10:32:47.946Z</time></trkpt><trkpt lat="45.3861486" lon="8.0218026"><ele>353.0</ele><time>2026-04-19T10:32:48.946Z</time></trkpt><trkpt lat="45.3860168" lon="8.021654"><ele>353.75</ele><time>2026-04-19T10:32:49.946Z</time></trkpt><trkpt lat="45.3858726" lon="8.021536"><ele>354.5</ele><time>2026-04-19T10:32:50.947Z</time></trkpt><trkpt lat="45.385759" lon="8.0214238"><ele>355.25</ele><time>2026-04-19T10:32:51.946Z</time></trkpt><trkpt lat="45.3856399" lon="8.0213333"><ele>356.0</ele><time>2026-04-19T10:32:52.946Z</time></trkpt><trkpt lat="45.3855222" lon="8.0212363"><ele>355.5</ele><time>2026-04-19T10:32:53.946Z</time></trkpt><trkpt lat="45.3854094" lon="8.0211384"><ele>355.0</ele><time>2026-04-19T10:32:54.946Z</time></trkpt><trkpt lat="45.3853049" lon="8.021029"><ele>354.5</ele><time>2026-04-19T10:32:55.946Z</time></trkpt><trkpt lat="45.3852117" lon="8.0209075"><ele>354.0</ele><time>2026-04-19T10:32:56.946Z</time></trkpt><trkpt lat="45.3851312" lon="8.0207747"><ele>354.0</ele><time>2026-04-19T10:32:57.946Z</time></trkpt><trkpt lat="45.3850457" lon="8.020628"><ele>354.0</ele><time>2026-04-19T10:32:58.947Z</time></trkpt><trkpt lat="45.3849663" lon="8.0204916"><ele>354.0</ele><time>2026-04-19T10:32:59.946Z</time></trkpt><trkpt lat="45.3848721" lon="8.0203337"><ele>354.0</ele><time>2026-04-19T10:33:00.946Z</time></trkpt><trkpt lat="45.3847327" lon="8.0201354"><ele>354.6666666666667</ele><time>2026-04-19T10:33:01.947Z</time></trkpt><trkpt lat="45.3845987" lon="8.0199493"><ele>355.33333333333337</ele><time>2026-04-19T10:33:02.946Z</time></trkpt><trkpt lat="45.3844755" lon="8.0197739"><ele>356.0</ele><time>2026-04-19T10:33:03.946Z</time></trkpt><trkpt lat="45.384368" lon="8.0196171"><ele>356.0</ele><time>2026-04-19T10:33:04.947Z</time></trkpt><trkpt lat="45.38427" lon="8.0194746"><ele>356.0</ele><time>2026-04-19T10:33:05.947Z</time></trkpt><trkpt lat="45.3841771" lon="8.0193368"><ele>356.0</ele><time>2026-04-19T10:33:06.947Z</time></trkpt><trkpt lat="45.384105" lon="8.0192083"><ele>356.0</ele><time>2026-04-19T10:33:07.946Z</time></trkpt><trkpt lat="45.3840355" lon="8.0190913"><ele>356.33333333333337</ele><time>2026-04-19T10:33:08.947Z</time></trkpt><trkpt lat="45.3839736" lon="8.0189845"><ele>356.6666666666667</ele><time>2026-04-19T10:33:09.947Z</time></trkpt><trkpt lat="45.3839205" lon="8.0188795"><ele>357.0</ele><time>2026-04-19T10:33:10.946Z</time></trkpt><trkpt lat="45.3838759" lon="8.0187968"><ele>357.3333333333333</ele><time>2026-04-19T10:33:11.946Z</time></trkpt><trkpt lat="45.3838483" lon="8.0187069"><ele>357.66666666666663</ele><time>2026-04-19T10:33:12.946Z</time></trkpt><trkpt lat="45.3838429" lon="8.0186165"><ele>358.0</ele><time>2026-04-19T10:33:13.947Z</time></trkpt><trkpt lat="45.3838313" lon="8.0185257"><ele>356.79999999999995</ele><time>2026-04-19T10:33:14.946Z</time></trkpt><trkpt lat="45.3838038" lon="8.01844"><ele>355.6</ele><time>2026-04-19T10:33:15.947Z</time></trkpt><trkpt lat="45.3837816" lon="8.018342"><ele>354.4</ele><time>2026-04-19T10:33:16.947Z</time></trkpt><trkpt lat="45.3836502" lon="8.018215"><ele>353.20000000000005</ele><time>2026-04-19T10:33:17.946Z</time></trkpt><trkpt lat="45.3835616" lon="8.0180702"><ele>352.0</ele><time>2026-04-19T10:33:18.946Z</time></trkpt><trkpt lat="45.3834803" lon="8.0179347"><ele>351.8</ele><time>2026-04-19T10:33:19.947Z</time></trkpt><trkpt lat="45.3833958" lon="8.0178031"><ele>351.6</ele><time>2026-04-19T10:33:20.946Z</time></trkpt><trkpt lat="45.3833227" lon="8.0176802"><ele>351.40000000000003</ele><time>2026-04-19T10:33:21.947Z</time></trkpt><trkpt lat="45.383249" lon="8.0175581"><ele>351.20000000000005</ele><time>2026-04-19T10:33:22.946Z</time></trkpt><trkpt lat="45.3831863" lon="8.0174539"><ele>351.0</ele><time>2026-04-19T10:33:23.946Z</time></trkpt><trkpt lat="45.3831165" lon="8.0173287"><ele>350.5</ele><time>2026-04-19T10:33:24.946Z</time></trkpt><trkpt lat="45.3830449" lon="8.017205"><ele>350.0</ele><time>2026-04-19T10:33:25.947Z</time></trkpt><trkpt lat="45.3829709" lon="8.0170628"><ele>349.5</ele><time>2026-04-19T10:33:26.947Z</time></trkpt><trkpt lat="45.3828961" lon="8.0169093"><ele>349.0</ele><time>2026-04-19T10:33:27.946Z</time></trkpt><trkpt lat="45.3828295" lon="8.0167599"><ele>350.5</ele><time>2026-04-19T10:33:28.946Z</time></trkpt><trkpt lat="45.3827686" lon="8.0166074"><ele>352.0</ele><time>2026-04-19T10:33:29.946Z</time></trkpt><trkpt lat="45.3827124" lon="8.0164429"><ele>353.5</ele><time>2026-04-19T10:33:30.947Z</time></trkpt><trkpt lat="45.3826603" lon="8.0162864"><ele>355.0</ele><time>2026-04-19T10:33:31.947Z</time></trkpt><trkpt lat="45.3826166" lon="8.0161158"><ele>355.0</ele><time>2026-04-19T10:33:32.947Z</time></trkpt><trkpt lat="45.3825755" lon="8.0159567"><ele>355.0</ele><time>2026-04-19T10:33:33.946Z</time></trkpt><trkpt lat="45.3825405" lon="8.0157992"><ele>355.0</ele><time>2026-04-19T10:33:34.946Z</time></trkpt><trkpt lat="45.3825353" lon="8.0156341"><ele>355.0</ele><time>2026-04-19T10:33:35.947Z</time></trkpt><trkpt lat="45.382517" lon="8.0154635"><ele>355.5</ele><time>2026-04-19T10:33:36.948Z</time></trkpt><trkpt lat="45.382508" lon="8.0152951"><ele>356.0</ele><time>2026-04-19T10:33:37.946Z</time></trkpt><trkpt lat="45.3825138" lon="8.0151271"><ele>356.5</ele><time>2026-04-19T10:33:38.946Z</time></trkpt><trkpt lat="45.382501" lon="8.0149577"><ele>357.0</ele><time>2026-04-19T10:33:39.947Z</time></trkpt><trkpt lat="45.3824578" lon="8.0148007"><ele>357.25</ele><time>2026-04-19T10:33:40.947Z</time></trkpt><trkpt lat="45.3824057" lon="8.0146483"><ele>357.5</ele><time>2026-04-19T10:33:41.947Z</time></trkpt><trkpt lat="45.3823444" lon="8.0145122"><ele>357.75</ele><time>2026-04-19T10:33:42.948Z</time></trkpt><trkpt lat="45.382271" lon="8.0143716"><ele>358.0</ele><time>2026-04-19T10:33:43.948Z</time></trkpt><trkpt lat="45.3822068" lon="8.01423"><ele>357.0</ele><time>2026-04-19T10:33:44.946Z</time></trkpt><trkpt lat="45.3821467" lon="8.014091"><ele>356.0</ele><time>2026-04-19T10:33:45.946Z</time></trkpt><trkpt lat="45.3821044" lon="8.0139536"><ele>355.0</ele><time>2026-04-19T10:33:46.946Z</time></trkpt><trkpt lat="45.3820742" lon="8.0138191"><ele>354.0</ele><time>2026-04-19T10:33:47.946Z</time></trkpt><trkpt lat="45.3820605" lon="8.0136822"><ele>353.0</ele><time>2026-04-19T10:33:48.946Z</time></trkpt><trkpt lat="45.3820583" lon="8.0135351"><ele>353.0</ele><time>2026-04-19T10:33:49.947Z</time></trkpt><trkpt lat="45.3820507" lon="8.0133851"><ele>353.0</ele><time>2026-04-19T10:33:50.946Z</time></trkpt><trkpt lat="45.3820332" lon="8.0132179"><ele>353.0</ele><time>2026-04-19T10:33:51.947Z</time></trkpt><trkpt lat="45.3820137" lon="8.0130482"><ele>353.0</ele><time>2026-04-19T10:33:52.946Z</time></trkpt><trkpt lat="45.381992" lon="8.0128829"><ele>352.75</ele><time>2026-04-19T10:33:53.946Z</time></trkpt><trkpt lat="45.381968" lon="8.0127218"><ele>352.5</ele><time>2026-04-19T10:33:54.946Z</time></trkpt><trkpt lat="45.3819375" lon="8.0125669"><ele>352.25</ele><time>2026-04-19T10:33:55.947Z</time></trkpt><trkpt lat="45.3818881" lon="8.0124307"><ele>352.0</ele><time>2026-04-19T10:33:56.947Z</time></trkpt><trkpt lat="45.3818249" lon="8.0122937"><ele>353.0</ele><time>2026-04-19T10:33:57.948Z</time></trkpt><trkpt lat="45.3817308" lon="8.0121476"><ele>354.0</ele><time>2026-04-19T10:33:58.946Z</time></trkpt><trkpt lat="45.381676" lon="8.0120151"><ele>355.0</ele><time>2026-04-19T10:33:59.947Z</time></trkpt><trkpt lat="45.3816285" lon="8.011874"><ele>356.0</ele><time>2026-04-19T10:34:00.946Z</time></trkpt><trkpt lat="45.3815816" lon="8.0117271"><ele>356.5</ele><time>2026-04-19T10:34:01.946Z</time></trkpt><trkpt lat="45.3815369" lon="8.0115613"><ele>357.0</ele><time>2026-04-19T10:34:02.947Z</time></trkpt><trkpt lat="45.3814873" lon="8.0113965"><ele>357.5</ele><time>2026-04-19T10:34:03.947Z</time></trkpt><trkpt lat="45.3814341" lon="8.0112291"><ele>358.0</ele><time>2026-04-19T10:34:04.947Z</time></trkpt><trkpt lat="45.381374" lon="8.0110515"><ele>357.0</ele><time>2026-04-19T10:34:05.946Z</time></trkpt><trkpt lat="45.3813076" lon="8.0108752"><ele>356.0</ele><time>2026-04-19T10:34:06.946Z</time></trkpt><trkpt lat="45.3812481" lon="8.0107024"><ele>355.0</ele><time>2026-04-19T10:34:07.947Z</time></trkpt><trkpt lat="45.3811925" lon="8.0105352"><ele>354.0</ele><time>2026-04-19T10:34:08.946Z</time></trkpt><trkpt lat="45.3811474" lon="8.0103782"><ele>354.0</ele><time>2026-04-19T10:34:09.947Z</time></trkpt><trkpt lat="45.38111" lon="8.0102445"><ele>354.0</ele><time>2026-04-19T10:34:10.946Z</time></trkpt><trkpt lat="45.3810834" lon="8.0101443"><ele>354.0</ele><time>2026-04-19T10:34:11.946Z</time></trkpt><trkpt lat="45.3810628" lon="8.0100582"><ele>354.0</ele><time>2026-04-19T10:34:12.946Z</time></trkpt><trkpt lat="45.3810409" lon="8.0099432"><ele>354.0</ele><time>2026-04-19T10:34:14.946Z</time></trkpt><trkpt lat="45.3810251" lon="8.0098472"><ele>354.0</ele><time>2026-04-19T10:34:17.946Z</time></trkpt><trkpt lat="45.3810125" lon="8.0097476"><ele>353.79999999999995</ele><time>2026-04-19T10:35:42.945Z</time></trkpt><trkpt lat="45.3809677" lon="8.0096498"><ele>353.59999999999997</ele><time>2026-04-19T10:35:45.946Z</time></trkpt><trkpt lat="45.3808537" lon="8.0096904"><ele>353.4</ele><time>2026-04-19T10:35:47.945Z</time></trkpt><trkpt lat="45.3807753" lon="8.0097603"><ele>353.2</ele><time>2026-04-19T10:35:48.945Z</time></trkpt><trkpt lat="45.3806788" lon="8.0098591"><ele>353.0</ele><time>2026-04-19T10:35:49.945Z</time></trkpt><trkpt lat="45.3805773" lon="8.0099523"><ele>351.75</ele><time>2026-04-19T10:35:50.945Z</time></trkpt><trkpt lat="45.380474" lon="8.0100513"><ele>350.5</ele><time>2026-04-19T10:35:51.946Z</time></trkpt><trkpt lat="45.3803709" lon="8.0101612"><ele>349.25</ele><time>2026-04-19T10:35:52.946Z</time></trkpt><trkpt lat="45.3802629" lon="8.0102748"><ele>348.0</ele><time>2026-04-19T10:35:53.945Z</time></trkpt><trkpt lat="45.3801492" lon="8.0103845"><ele>348.0</ele><time>2026-04-19T10:35:54.945Z</time></trkpt><trkpt lat="45.3800369" lon="8.0105019"><ele>348.0</ele><time>2026-04-19T10:35:55.948Z</time></trkpt><trkpt lat="45.3799195" lon="8.0106214"><ele>348.0</ele><time>2026-04-19T10:35:56.946Z</time></trkpt><trkpt lat="45.379798" lon="8.0107396"><ele>348.0</ele><time>2026-04-19T10:35:57.946Z</time></trkpt><trkpt lat="45.3796733" lon="8.010859"><ele>347.3333333333333</ele><time>2026-04-19T10:35:58.946Z</time></trkpt><trkpt lat="45.3795457" lon="8.0109884"><ele>346.66666666666663</ele><time>2026-04-19T10:35:59.946Z</time></trkpt><trkpt lat="45.3794148" lon="8.0111213"><ele>346.0</ele><time>2026-04-19T10:36:00.947Z</time></trkpt><trkpt lat="45.3792814" lon="8.0112549"><ele>346.0</ele><time>2026-04-19T10:36:01.946Z</time></trkpt><trkpt lat="45.3791498" lon="8.0113865"><ele>346.0</ele><time>2026-04-19T10:36:02.946Z</time></trkpt><trkpt lat="45.3790189" lon="8.0115159"><ele>346.0</ele><time>2026-04-19T10:36:03.946Z</time></trkpt><trkpt lat="45.3788918" lon="8.0116395"><ele>345.75</ele><time>2026-04-19T10:36:04.947Z</time></trkpt><trkpt lat="45.3787665" lon="8.0117623"><ele>345.5</ele><time>2026-04-19T10:36:05.947Z</time></trkpt><trkpt lat="45.378644" lon="8.0118894"><ele>345.25</ele><time>2026-04-19T10:36:06.947Z</time></trkpt><trkpt lat="45.3785276" lon="8.0120099"><ele>345.0</ele><time>2026-04-19T10:36:07.947Z</time></trkpt><trkpt lat="45.3784156" lon="8.0121429"><ele>345.0</ele><time>2026-04-19T10:36:08.946Z</time></trkpt><trkpt lat="45.3783131" lon="8.0122896"><ele>345.0</ele><time>2026-04-19T10:36:09.946Z</time></trkpt><trkpt lat="45.3782133" lon="8.0124458"><ele>345.0</ele><time>2026-04-19T10:36:10.947Z</time></trkpt><trkpt lat="45.378119" lon="8.012606"><ele>345.0</ele><time>2026-04-19T10:36:11.947Z</time></trkpt><trkpt lat="45.3780275" lon="8.0127649"><ele>343.75</ele><time>2026-04-19T10:36:12.947Z</time></trkpt><trkpt lat="45.3779328" lon="8.0129259"><ele>342.5</ele><time>2026-04-19T10:36:13.947Z</time></trkpt><trkpt lat="45.3778417" lon="8.0130798"><ele>341.25</ele><time>2026-04-19T10:36:14.947Z</time></trkpt><trkpt lat="45.3777497" lon="8.0132327"><ele>340.0</ele><time>2026-04-19T10:36:15.946Z</time></trkpt><trkpt lat="45.3776571" lon="8.0133958"><ele>339.25</ele><time>2026-04-19T10:36:16.946Z</time></trkpt><trkpt lat="45.3775643" lon="8.0135615"><ele>338.5</ele><time>2026-04-19T10:36:17.946Z</time></trkpt><trkpt lat="45.3774748" lon="8.0137283"><ele>337.75</ele><time>2026-04-19T10:36:18.947Z</time></trkpt><trkpt lat="45.3773922" lon="8.0139008"><ele>337.0</ele><time>2026-04-19T10:36:19.946Z</time></trkpt><trkpt lat="45.3773163" lon="8.0140774"><ele>336.25</ele><time>2026-04-19T10:36:20.946Z</time></trkpt><trkpt lat="45.3772493" lon="8.0142531"><ele>335.5</ele><time>2026-04-19T10:36:21.947Z</time></trkpt><trkpt lat="45.3771873" lon="8.0144389"><ele>334.75</ele><time>2026-04-19T10:36:22.947Z</time></trkpt><trkpt lat="45.377135" lon="8.0146267"><ele>334.0</ele><time>2026-04-19T10:36:23.946Z</time></trkpt><trkpt lat="45.377078" lon="8.0148106"><ele>332.3333333333333</ele><time>2026-04-19T10:36:24.947Z</time></trkpt><trkpt lat="45.3770117" lon="8.0150015"><ele>330.6666666666667</ele><time>2026-04-19T10:36:25.947Z</time></trkpt><trkpt lat="45.3769343" lon="8.0151882"><ele>329.0</ele><time>2026-04-19T10:36:26.946Z</time></trkpt><trkpt lat="45.3768407" lon="8.0153633"><ele>329.0</ele><time>2026-04-19T10:36:27.946Z</time></trkpt><trkpt lat="45.3767326" lon="8.0155274"><ele>329.0</ele><time>2026-04-19T10:36:28.946Z</time></trkpt><trkpt lat="45.3766171" lon="8.0156853"><ele>329.0</ele><time>2026-04-19T10:36:29.947Z</time></trkpt><trkpt lat="45.3765044" lon="8.0158407"><ele>330.33333333333337</ele><time>2026-04-19T10:36:30.947Z</time></trkpt><trkpt lat="45.3763993" lon="8.0159978"><ele>331.6666666666667</ele><time>2026-04-19T10:36:31.946Z</time></trkpt><trkpt lat="45.3762967" lon="8.0161698"><ele>333.0</ele><time>2026-04-19T10:36:32.946Z</time></trkpt><trkpt lat="45.3761917" lon="8.0163488"><ele>330.0</ele><time>2026-04-19T10:36:33.946Z</time></trkpt><trkpt lat="45.3760914" lon="8.0165348"><ele>327.0</ele><time>2026-04-19T10:36:34.946Z</time></trkpt><trkpt lat="45.3760011" lon="8.0167213"><ele>324.0</ele><time>2026-04-19T10:36:35.948Z</time></trkpt><trkpt lat="45.3759131" lon="8.016911"><ele>324.0</ele><time>2026-04-19T10:36:36.947Z</time></trkpt><trkpt lat="45.3758259" lon="8.0171024"><ele>324.0</ele><time>2026-04-19T10:36:37.947Z</time></trkpt><trkpt lat="45.375738" lon="8.0172934"><ele>324.0</ele><time>2026-04-19T10:36:38.946Z</time></trkpt><trkpt lat="45.3756508" lon="8.0174867"><ele>324.3333333333333</ele><time>2026-04-19T10:36:39.947Z</time></trkpt><trkpt lat="45.3755634" lon="8.017677"><ele>324.66666666666663</ele><time>2026-04-19T10:36:40.946Z</time></trkpt><trkpt lat="45.3754741" lon="8.0178629"><ele>325.0</ele><time>2026-04-19T10:36:41.946Z</time></trkpt><trkpt lat="45.375384" lon="8.0180564"><ele>325.0</ele><time>2026-04-19T10:36:42.947Z</time></trkpt><trkpt lat="45.3752978" lon="8.0182497"><ele>325.0</ele><time>2026-04-19T10:36:43.946Z</time></trkpt><trkpt lat="45.3752204" lon="8.0184395"><ele>325.0</ele><time>2026-04-19T10:36:44.947Z</time></trkpt><trkpt lat="45.3751536" lon="8.0186444"><ele>323.0</ele><time>2026-04-19T10:36:45.947Z</time></trkpt><trkpt lat="45.3750996" lon="8.0188647"><ele>321.0</ele><time>2026-04-19T10:36:46.946Z</time></trkpt><trkpt lat="45.3750584" lon="8.0190916"><ele>319.0</ele><time>2026-04-19T10:36:47.946Z</time></trkpt><trkpt lat="45.3750335" lon="8.0193285"><ele>318.0</ele><time>2026-04-19T10:36:48.946Z</time></trkpt><trkpt lat="45.3750278" lon="8.0195619"><ele>317.0</ele><time>2026-04-19T10:36:49.946Z</time></trkpt><trkpt lat="45.3750279" lon="8.0197905"><ele>316.0</ele><time>2026-04-19T10:36:50.947Z</time></trkpt><trkpt lat="45.375026" lon="8.020015"><ele>315.3333333333333</ele><time>2026-04-19T10:36:51.947Z</time></trkpt><trkpt lat="45.3750269" lon="8.0202443"><ele>314.6666666666667</ele><time>2026-04-19T10:36:52.947Z</time></trkpt><trkpt lat="45.3750305" lon="8.0204816"><ele>314.0</ele><time>2026-04-19T10:36:53.947Z</time></trkpt><trkpt lat="45.375031" lon="8.0207237"><ele>313.33333333333337</ele><time>2026-04-19T10:36:54.946Z</time></trkpt><trkpt lat="45.3750231" lon="8.0209784"><ele>312.6666666666667</ele><time>2026-04-19T10:36:55.946Z</time></trkpt><trkpt lat="45.3750066" lon="8.0212414"><ele>312.0</ele><time>2026-04-19T10:36:56.946Z</time></trkpt><trkpt lat="45.3749889" lon="8.0215096"><ele>311.0</ele><time>2026-04-19T10:36:57.946Z</time></trkpt><trkpt lat="45.37497" lon="8.0217848"><ele>310.0</ele><time>2026-04-19T10:36:58.946Z</time></trkpt><trkpt lat="45.3749521" lon="8.0220683"><ele>309.0</ele><time>2026-04-19T10:36:59.946Z</time></trkpt><trkpt lat="45.3749307" lon="8.0223593"><ele>308.3333333333333</ele><time>2026-04-19T10:37:00.947Z</time></trkpt><trkpt lat="45.3749086" lon="8.0226605"><ele>307.66666666666663</ele><time>2026-04-19T10:37:01.946Z</time></trkpt><trkpt lat="45.3748922" lon="8.0229678"><ele>307.0</ele><time>2026-04-19T10:37:02.946Z</time></trkpt><trkpt lat="45.3748696" lon="8.023281"><ele>305.5</ele><time>2026-04-19T10:37:03.947Z</time></trkpt><trkpt lat="45.3748486" lon="8.0235993"><ele>304.0</ele><time>2026-04-19T10:37:04.947Z</time></trkpt><trkpt lat="45.3748263" lon="8.0239239"><ele>303.0</ele><time>2026-04-19T10:37:05.946Z</time></trkpt><trkpt lat="45.3748053" lon="8.0242518"><ele>302.0</ele><time>2026-04-19T10:37:06.946Z</time></trkpt><trkpt lat="45.3747854" lon="8.0245817"><ele>302.0</ele><time>2026-04-19T10:37:07.946Z</time></trkpt><trkpt lat="45.374763" lon="8.0249262"><ele>302.0</ele><time>2026-04-19T10:37:08.947Z</time></trkpt><trkpt lat="45.3747442" lon="8.0252647"><ele>301.6666666666667</ele><time>2026-04-19T10:37:09.946Z</time></trkpt><trkpt lat="45.3747164" lon="8.025587"><ele>301.3333333333333</ele><time>2026-04-19T10:37:10.946Z</time></trkpt><trkpt lat="45.3746716" lon="8.0258774"><ele>301.0</ele><time>2026-04-19T10:37:11.946Z</time></trkpt><trkpt lat="45.3746085" lon="8.0261124"><ele>301.25</ele><time>2026-04-19T10:37:12.947Z</time></trkpt><trkpt lat="45.374538" lon="8.0263089"><ele>301.5</ele><time>2026-04-19T10:37:13.946Z</time></trkpt><trkpt lat="45.3744679" lon="8.0264564"><ele>301.75</ele><time>2026-04-19T10:37:14.947Z</time></trkpt><trkpt lat="45.3744016" lon="8.0265771"><ele>302.0</ele><time>2026-04-19T10:37:15.946Z</time></trkpt><trkpt lat="45.3743587" lon="8.0266877"><ele>302.0</ele><time>2026-04-19T10:37:16.947Z</time></trkpt><trkpt lat="45.3743362" lon="8.0267748"><ele>302.0</ele><time>2026-04-19T10:37:17.945Z</time></trkpt><trkpt lat="45.3743375" lon="8.026908"><ele>302.0</ele><time>2026-04-19T10:37:19.946Z</time></trkpt><trkpt lat="45.374381" lon="8.027016"><ele>302.0</ele><time>2026-04-19T10:37:22.946Z</time></trkpt><trkpt lat="45.3744474" lon="8.0271053"><ele>302.0</ele><time>2026-04-19T10:37:24.945Z</time></trkpt><trkpt lat="45.374546" lon="8.0272429"><ele>302.0</ele><time>2026-04-19T10:37:26.945Z</time></trkpt><trkpt lat="45.3746141" lon="8.0273405"><ele>302.0</ele><time>2026-04-19T10:37:27.946Z</time></trkpt><trkpt lat="45.3746924" lon="8.0274574"><ele>302.0</ele><time>2026-04-19T10:37:28.945Z</time></trkpt><trkpt lat="45.3747791" lon="8.0275855"><ele>302.0</ele><time>2026-04-19T10:37:29.947Z</time></trkpt><trkpt lat="45.3748677" lon="8.0277038"><ele>302.25</ele><time>2026-04-19T10:37:30.945Z</time></trkpt><trkpt lat="45.3749653" lon="8.0278145"><ele>302.5</ele><time>2026-04-19T10:37:31.945Z</time></trkpt><trkpt lat="45.3750686" lon="8.0279193"><ele>302.75</ele><time>2026-04-19T10:37:32.945Z</time></trkpt><trkpt lat="45.3751804" lon="8.0280166"><ele>303.0</ele><time>2026-04-19T10:37:33.945Z</time></trkpt><trkpt lat="45.3752932" lon="8.0280947"><ele>303.0</ele><time>2026-04-19T10:37:34.945Z</time></trkpt><trkpt lat="45.3754023" lon="8.0281592"><ele>303.0</ele><time>2026-04-19T10:37:35.946Z</time></trkpt><trkpt lat="45.3755136" lon="8.0282148"><ele>303.0</ele><time>2026-04-19T10:37:36.945Z</time></trkpt><trkpt lat="45.3756182" lon="8.028261"><ele>303.0</ele><time>2026-04-19T10:37:37.945Z</time></trkpt><trkpt lat="45.3757257" lon="8.0282958"><ele>303.4</ele><time>2026-04-19T10:37:38.946Z</time></trkpt><trkpt lat="45.375828" lon="8.0283408"><ele>303.8</ele><time>2026-04-19T10:37:39.945Z</time></trkpt><trkpt lat="45.3759299" lon="8.0283874"><ele>304.2</ele><time>2026-04-19T10:37:40.946Z</time></trkpt><trkpt lat="45.3760344" lon="8.0284364"><ele>304.6</ele><time>2026-04-19T10:37:41.946Z</time></trkpt><trkpt lat="45.3761376" lon="8.0284801"><ele>305.0</ele><time>2026-04-19T10:37:42.945Z</time></trkpt><trkpt lat="45.3762425" lon="8.0285256"><ele>305.0</ele><time>2026-04-19T10:37:43.945Z</time></trkpt><trkpt lat="45.3763463" lon="8.0285716"><ele>305.0</ele><time>2026-04-19T10:37:44.945Z</time></trkpt><trkpt lat="45.3764557" lon="8.0286181"><ele>305.0</ele><time>2026-04-19T10:37:45.945Z</time></trkpt><trkpt lat="45.376567" lon="8.0286622"><ele>305.0</ele><time>2026-04-19T10:37:46.946Z</time></trkpt><trkpt lat="45.3766796" lon="8.0287087"><ele>305.6</ele><time>2026-04-19T10:37:47.947Z</time></trkpt><trkpt lat="45.3767958" lon="8.0287569"><ele>306.2</ele><time>2026-04-19T10:37:48.945Z</time></trkpt><trkpt lat="45.3768925" lon="8.0287979"><ele>306.8</ele><time>2026-04-19T10:37:49.945Z</time></trkpt><trkpt lat="45.3769993" lon="8.0288506"><ele>307.4</ele><time>2026-04-19T10:37:50.946Z</time></trkpt><trkpt lat="45.3770987" lon="8.0289015"><ele>308.0</ele><time>2026-04-19T10:37:51.945Z</time></trkpt><trkpt lat="45.3771969" lon="8.0289642"><ele>308.6</ele><time>2026-04-19T10:37:52.945Z</time></trkpt><trkpt lat="45.3772938" lon="8.0290401"><ele>309.20000000000005</ele><time>2026-04-19T10:37:53.946Z</time></trkpt><trkpt lat="45.3773819" lon="8.0291307"><ele>309.8</ele><time>2026-04-19T10:37:54.945Z</time></trkpt><trkpt lat="45.3774678" lon="8.0292244"><ele>310.40000000000003</ele><time>2026-04-19T10:37:55.945Z</time></trkpt><trkpt lat="45.3775511" lon="8.0293233"><ele>311.0</ele><time>2026-04-19T10:37:56.947Z</time></trkpt><trkpt lat="45.3776356" lon="8.0294247"><ele>311.0</ele><time>2026-04-19T10:37:57.945Z</time></trkpt><trkpt lat="45.3777165" lon="8.0295263"><ele>311.0</ele><time>2026-04-19T10:37:58.945Z</time></trkpt><trkpt lat="45.3777956" lon="8.0296309"><ele>311.0</ele><time>2026-04-19T10:37:59.946Z</time></trkpt><trkpt lat="45.3778751" lon="8.0297407"><ele>311.0</ele><time>2026-04-19T10:38:00.945Z</time></trkpt><trkpt lat="45.3779538" lon="8.0298502"><ele>311.0</ele><time>2026-04-19T10:38:01.946Z</time></trkpt><trkpt lat="45.378033" lon="8.0299572"><ele>311.0</ele><time>2026-04-19T10:38:02.946Z</time></trkpt><trkpt lat="45.3781127" lon="8.0300698"><ele>311.0</ele><time>2026-04-19T10:38:03.945Z</time></trkpt><trkpt lat="45.3781916" lon="8.0301846"><ele>311.0</ele><time>2026-04-19T10:38:04.946Z</time></trkpt><trkpt lat="45.3782759" lon="8.0302949"><ele>311.0</ele><time>2026-04-19T10:38:05.946Z</time></trkpt><trkpt lat="45.3783565" lon="8.030408"><ele>311.0</ele><time>2026-04-19T10:38:06.945Z</time></trkpt><trkpt lat="45.3784422" lon="8.0305234"><ele>311.0</ele><time>2026-04-19T10:38:07.945Z</time></trkpt><trkpt lat="45.3785299" lon="8.0306352"><ele>311.0</ele><time>2026-04-19T10:38:08.946Z</time></trkpt><trkpt lat="45.3786196" lon="8.0307516"><ele>311.0</ele><time>2026-04-19T10:38:09.945Z</time></trkpt><trkpt lat="45.3787133" lon="8.0308652"><ele>310.25</ele><time>2026-04-19T10:38:10.945Z</time></trkpt><trkpt lat="45.3788122" lon="8.0309787"><ele>309.5</ele><time>2026-04-19T10:38:11.945Z</time></trkpt><trkpt lat="45.3789213" lon="8.0310854"><ele>308.75</ele><time>2026-04-19T10:38:12.945Z</time></trkpt><trkpt lat="45.3790342" lon="8.0311874"><ele>308.0</ele><time>2026-04-19T10:38:13.946Z</time></trkpt><trkpt lat="45.3791564" lon="8.0312787"><ele>307.75</ele><time>2026-04-19T10:38:14.945Z</time></trkpt><trkpt lat="45.3792822" lon="8.0313677"><ele>307.5</ele><time>2026-04-19T10:38:15.946Z</time></trkpt><trkpt lat="45.3794105" lon="8.0314455"><ele>307.25</ele><time>2026-04-19T10:38:16.946Z</time></trkpt><trkpt lat="45.3795348" lon="8.0315371"><ele>307.0</ele><time>2026-04-19T10:38:17.946Z</time></trkpt><trkpt lat="45.3796671" lon="8.0316144"><ele>309.25</ele><time>2026-04-19T10:38:18.946Z</time></trkpt><trkpt lat="45.3797977" lon="8.0316998"><ele>311.5</ele><time>2026-04-19T10:38:19.946Z</time></trkpt><trkpt lat="45.3799364" lon="8.0317802"><ele>313.75</ele><time>2026-04-19T10:38:20.945Z</time></trkpt><trkpt lat="45.3800708" lon="8.0318627"><ele>316.0</ele><time>2026-04-19T10:38:21.946Z</time></trkpt><trkpt lat="45.3802057" lon="8.0319552"><ele>316.0</ele><time>2026-04-19T10:38:22.946Z</time></trkpt><trkpt lat="45.3803411" lon="8.032064"><ele>316.0</ele><time>2026-04-19T10:38:23.946Z</time></trkpt><trkpt lat="45.3804772" lon="8.0321749"><ele>316.0</ele><time>2026-04-19T10:38:24.945Z</time></trkpt><trkpt lat="45.3806084" lon="8.0322789"><ele>315.75</ele><time>2026-04-19T10:38:25.947Z</time></trkpt><trkpt lat="45.3807295" lon="8.0323864"><ele>315.5</ele><time>2026-04-19T10:38:26.946Z</time></trkpt><trkpt lat="45.3808434" lon="8.0325017"><ele>315.25</ele><time>2026-04-19T10:38:27.946Z</time></trkpt><trkpt lat="45.3809433" lon="8.0326124"><ele>315.0</ele><time>2026-04-19T10:38:28.946Z</time></trkpt><trkpt lat="45.381045" lon="8.0327341"><ele>315.75</ele><time>2026-04-19T10:38:29.946Z</time></trkpt><trkpt lat="45.3811386" lon="8.032847"><ele>316.5</ele><time>2026-04-19T10:38:30.945Z</time></trkpt><trkpt lat="45.3812308" lon="8.032962"><ele>317.25</ele><time>2026-04-19T10:38:31.945Z</time></trkpt><trkpt lat="45.3813237" lon="8.0330677"><ele>318.0</ele><time>2026-04-19T10:38:32.947Z</time></trkpt><trkpt lat="45.3814041" lon="8.0331715"><ele>317.1666666666667</ele><time>2026-04-19T10:38:33.945Z</time></trkpt><trkpt lat="45.3814705" lon="8.0332641"><ele>316.3333333333333</ele><time>2026-04-19T10:38:34.945Z</time></trkpt><trkpt lat="45.3815264" lon="8.0333419"><ele>315.5</ele><time>2026-04-19T10:38:35.946Z</time></trkpt><trkpt lat="45.3815762" lon="8.0334035"><ele>314.66666666666663</ele><time>2026-04-19T10:38:36.946Z</time></trkpt><trkpt lat="45.3816559" lon="8.0334927"><ele>313.8333333333333</ele><time>2026-04-19T10:38:38.946Z</time></trkpt><trkpt lat="45.3817146" lon="8.0335568"><ele>313.0</ele><time>2026-04-19T10:38:40.945Z</time></trkpt><trkpt lat="45.3817698" lon="8.0336119"><ele>313.0</ele><time>2026-04-19T10:38:43.946Z</time></trkpt><trkpt lat="45.3818439" lon="8.0336757"><ele>313.0</ele><time>2026-04-19T10:43:52.945Z</time></trkpt><trkpt lat="45.381957" lon="8.0337814"><ele>313.0</ele><time>2026-04-19T10:43:54.944Z</time></trkpt><trkpt lat="45.3820122" lon="8.0338306"><ele>313.0</ele><time>2026-04-19T10:43:55.944Z</time></trkpt><trkpt lat="45.3820864" lon="8.0339369"><ele>313.0</ele><time>2026-04-19T10:43:57.944Z</time></trkpt><trkpt lat="45.3821473" lon="8.0340519"><ele>313.6</ele><time>2026-04-19T10:43:59.945Z</time></trkpt><trkpt lat="45.3822194" lon="8.0341567"><ele>314.20000000000005</ele><time>2026-04-19T10:44:01.945Z</time></trkpt><trkpt lat="45.3823056" lon="8.034217"><ele>314.8</ele><time>2026-04-19T10:44:03.946Z</time></trkpt><trkpt lat="45.3823946" lon="8.0342562"><ele>315.40000000000003</ele><time>2026-04-19T10:44:05.944Z</time></trkpt><trkpt lat="45.3824997" lon="8.0342959"><ele>316.0</ele><time>2026-04-19T10:44:07.945Z</time></trkpt><trkpt lat="45.3825722" lon="8.0343236"><ele>316.0</ele><time>2026-04-19T10:44:08.944Z</time></trkpt><trkpt lat="45.3826476" lon="8.0343451"><ele>316.0</ele><time>2026-04-19T10:44:09.944Z</time></trkpt><trkpt lat="45.3827224" lon="8.0343612"><ele>316.0</ele><time>2026-04-19T10:44:10.944Z</time></trkpt><trkpt lat="45.3828101" lon="8.0343291"><ele>316.0</ele><time>2026-04-19T10:44:11.944Z</time></trkpt><trkpt lat="45.3829087" lon="8.0343008"><ele>316.0</ele><time>2026-04-19T10:44:12.945Z</time></trkpt><trkpt lat="45.3829893" lon="8.0342762"><ele>316.0</ele><time>2026-04-19T10:44:13.944Z</time></trkpt><trkpt lat="45.3831084" lon="8.0343156"><ele>316.40000000000003</ele><time>2026-04-19T10:44:14.945Z</time></trkpt><trkpt lat="45.3832034" lon="8.0343231"><ele>316.8</ele><time>2026-04-19T10:44:15.944Z</time></trkpt><trkpt lat="45.3833028" lon="8.0342897"><ele>317.20000000000005</ele><time>2026-04-19T10:44:16.944Z</time></trkpt><trkpt lat="45.3833831" lon="8.0342215"><ele>317.6</ele><time>2026-04-19T10:44:17.944Z</time></trkpt><trkpt lat="45.3834631" lon="8.0341088"><ele>318.0</ele><time>2026-04-19T10:44:18.944Z</time></trkpt><trkpt lat="45.3835449" lon="8.0339779"><ele>318.0</ele><time>2026-04-19T10:44:19.944Z</time></trkpt><trkpt lat="45.3836324" lon="8.0338619"><ele>318.0</ele><time>2026-04-19T10:44:20.945Z</time></trkpt><trkpt lat="45.3837001" lon="8.0337799"><ele>318.0</ele><time>2026-04-19T10:44:21.945Z</time></trkpt><trkpt lat="45.3837857" lon="8.0336913"><ele>318.0</ele><time>2026-04-19T10:44:22.944Z</time></trkpt><trkpt lat="45.3838624" lon="8.0335867"><ele>318.0</ele><time>2026-04-19T10:44:23.944Z</time></trkpt><trkpt lat="45.3839236" lon="8.0334887"><ele>318.4</ele><time>2026-04-19T10:44:24.945Z</time></trkpt><trkpt lat="45.3839818" lon="8.0333662"><ele>318.8</ele><time>2026-04-19T10:44:25.946Z</time></trkpt><trkpt lat="45.3840141" lon="8.0332315"><ele>319.2</ele><time>2026-04-19T10:44:26.944Z</time></trkpt><trkpt lat="45.3840583" lon="8.0330998"><ele>319.6</ele><time>2026-04-19T10:44:27.944Z</time></trkpt><trkpt lat="45.3840917" lon="8.0329634"><ele>320.0</ele><time>2026-04-19T10:44:28.946Z</time></trkpt><trkpt lat="45.3841356" lon="8.0328268"><ele>320.0</ele><time>2026-04-19T10:44:29.945Z</time></trkpt><trkpt lat="45.3841975" lon="8.0326719"><ele>320.0</ele><time>2026-04-19T10:44:30.944Z</time></trkpt><trkpt lat="45.3842556" lon="8.0325289"><ele>320.0</ele><time>2026-04-19T10:44:31.945Z</time></trkpt><trkpt lat="45.3843159" lon="8.0323925"><ele>320.0</ele><time>2026-04-19T10:44:32.945Z</time></trkpt><trkpt lat="45.3843717" lon="8.032263"><ele>319.8</ele><time>2026-04-19T10:44:33.945Z</time></trkpt><trkpt lat="45.3844269" lon="8.0321303"><ele>319.6</ele><time>2026-04-19T10:44:34.945Z</time></trkpt><trkpt lat="45.3844881" lon="8.0319923"><ele>319.4</ele><time>2026-04-19T10:44:35.944Z</time></trkpt><trkpt lat="45.3845548" lon="8.0318692"><ele>319.2</ele><time>2026-04-19T10:44:36.945Z</time></trkpt><trkpt lat="45.3846218" lon="8.0317685"><ele>319.0</ele><time>2026-04-19T10:44:37.945Z</time></trkpt><trkpt lat="45.3846877" lon="8.0316645"><ele>319.2</ele><time>2026-04-19T10:44:38.945Z</time></trkpt><trkpt lat="45.3847708" lon="8.0315583"><ele>319.4</ele><time>2026-04-19T10:44:39.945Z</time></trkpt><trkpt lat="45.3848491" lon="8.0314506"><ele>319.6</ele><time>2026-04-19T10:44:40.944Z</time></trkpt><trkpt lat="45.3849268" lon="8.031342"><ele>319.8</ele><time>2026-04-19T10:44:41.944Z</time></trkpt><trkpt lat="45.3850011" lon="8.0312368"><ele>320.0</ele><time>2026-04-19T10:44:42.944Z</time></trkpt><trkpt lat="45.3850741" lon="8.0311308"><ele>320.0</ele><time>2026-04-19T10:44:43.945Z</time></trkpt><trkpt lat="45.3851438" lon="8.0310268"><ele>320.0</ele><time>2026-04-19T10:44:44.944Z</time></trkpt><trkpt lat="45.38522" lon="8.0309287"><ele>320.0</ele><time>2026-04-19T10:44:45.945Z</time></trkpt><trkpt lat="45.3852864" lon="8.0308347"><ele>320.0</ele><time>2026-04-19T10:44:46.945Z</time></trkpt><trkpt lat="45.3853499" lon="8.0307448"><ele>320.0</ele><time>2026-04-19T10:44:47.945Z</time></trkpt><trkpt lat="45.385412" lon="8.0306687"><ele>320.0</ele><time>2026-04-19T10:44:48.945Z</time></trkpt><trkpt lat="45.3854788" lon="8.0306131"><ele>320.0</ele><time>2026-04-19T10:44:49.944Z</time></trkpt><trkpt lat="45.3855399" lon="8.0305631"><ele>320.0</ele><time>2026-04-19T10:44:50.944Z</time></trkpt><trkpt lat="45.3856026" lon="8.0305142"><ele>320.0</ele><time>2026-04-19T10:44:51.944Z</time></trkpt><trkpt lat="45.3856719" lon="8.030523"><ele>320.0</ele><time>2026-04-19T10:44:52.944Z</time></trkpt><trkpt lat="45.3857564" lon="8.0305033"><ele>320.0</ele><time>2026-04-19T10:44:53.944Z</time></trkpt><trkpt lat="45.3858347" lon="8.0304862"><ele>320.83333333333337</ele><time>2026-04-19T10:44:54.945Z</time></trkpt><trkpt lat="45.385896" lon="8.03043"><ele>321.6666666666667</ele><time>2026-04-19T10:44:55.944Z</time></trkpt><trkpt lat="45.3859445" lon="8.0303618"><ele>322.5</ele><time>2026-04-19T10:44:56.944Z</time></trkpt><trkpt lat="45.3859951" lon="8.0302723"><ele>323.3333333333333</ele><time>2026-04-19T10:44:57.944Z</time></trkpt><trkpt lat="45.386055" lon="8.0302049"><ele>324.16666666666663</ele><time>2026-04-19T10:44:58.945Z</time></trkpt><trkpt lat="45.3861251" lon="8.0301272"><ele>325.0</ele><time>2026-04-19T10:44:59.944Z</time></trkpt><trkpt lat="45.3862014" lon="8.0300508"><ele>324.8</ele><time>2026-04-19T10:45:00.944Z</time></trkpt><trkpt lat="45.3862765" lon="8.029963"><ele>324.6</ele><time>2026-04-19T10:45:01.944Z</time></trkpt><trkpt lat="45.3863468" lon="8.0298646"><ele>324.4</ele><time>2026-04-19T10:45:02.944Z</time></trkpt><trkpt lat="45.3864036" lon="8.0297665"><ele>324.2</ele><time>2026-04-19T10:45:03.945Z</time></trkpt><trkpt lat="45.3864825" lon="8.0296643"><ele>324.0</ele><time>2026-04-19T10:45:04.944Z</time></trkpt><trkpt lat="45.386549" lon="8.0295688"><ele>325.6</ele><time>2026-04-19T10:45:05.946Z</time></trkpt><trkpt lat="45.3866222" lon="8.0294787"><ele>327.2</ele><time>2026-04-19T10:45:06.945Z</time></trkpt><trkpt lat="45.3866941" lon="8.0293885"><ele>328.8</ele><time>2026-04-19T10:45:07.946Z</time></trkpt><trkpt lat="45.3867684" lon="8.0293122"><ele>330.40000000000003</ele><time>2026-04-19T10:45:08.944Z</time></trkpt><trkpt lat="45.386837" lon="8.0292281"><ele>332.0</ele><time>2026-04-19T10:45:09.944Z</time></trkpt><trkpt lat="45.3869147" lon="8.0291468"><ele>332.0</ele><time>2026-04-19T10:45:10.945Z</time></trkpt><trkpt lat="45.3869888" lon="8.0290706"><ele>332.0</ele><time>2026-04-19T10:45:11.944Z</time></trkpt><trkpt lat="45.3870973" lon="8.0290404"><ele>332.0</ele><time>2026-04-19T10:45:12.945Z</time></trkpt><trkpt lat="45.3871827" lon="8.0290176"><ele>332.0</ele><time>2026-04-19T10:45:13.945Z</time></trkpt><trkpt lat="45.3872716" lon="8.0290047"><ele>332.0</ele><time>2026-04-19T10:45:14.944Z</time></trkpt><trkpt lat="45.3873341" lon="8.0289749"><ele>332.0</ele><time>2026-04-19T10:45:15.945Z</time></trkpt><trkpt lat="45.3873945" lon="8.0289223"><ele>332.0</ele><time>2026-04-19T10:45:16.944Z</time></trkpt><trkpt lat="45.3874578" lon="8.0288638"><ele>332.0</ele><time>2026-04-19T10:45:17.944Z</time></trkpt><trkpt lat="45.3874951" lon="8.0287814"><ele>332.0</ele><time>2026-04-19T10:45:18.944Z</time></trkpt><trkpt lat="45.387537" lon="8.0287031"><ele>332.0</ele><time>2026-04-19T10:45:19.945Z</time></trkpt><trkpt lat="45.3875715" lon="8.0286027"><ele>332.0</ele><time>2026-04-19T10:45:20.944Z</time></trkpt><trkpt lat="45.3875958" lon="8.0285023"><ele>332.0</ele><time>2026-04-19T10:45:21.945Z</time></trkpt><trkpt lat="45.3876167" lon="8.0283883"><ele>332.0</ele><time>2026-04-19T10:45:22.945Z</time></trkpt><trkpt lat="45.3876155" lon="8.0282717"><ele>332.0</ele><time>2026-04-19T10:45:23.944Z</time></trkpt><trkpt lat="45.3876204" lon="8.0281716"><ele>332.0</ele><time>2026-04-19T10:45:24.945Z</time></trkpt><trkpt lat="45.3875962" lon="8.0280471"><ele>332.0</ele><time>2026-04-19T10:45:25.944Z</time></trkpt><trkpt lat="45.3875402" lon="8.0279248"><ele>332.0</ele><time>2026-04-19T10:45:26.944Z</time></trkpt><trkpt lat="45.3874981" lon="8.0278221"><ele>332.0</ele><time>2026-04-19T10:45:27.945Z</time></trkpt><trkpt lat="45.3874471" lon="8.0276807"><ele>332.0</ele><time>2026-04-19T10:45:28.946Z</time></trkpt><trkpt lat="45.3873709" lon="8.0275397"><ele>332.0</ele><time>2026-04-19T10:45:29.944Z</time></trkpt><trkpt lat="45.3872987" lon="8.0274407"><ele>332.0</ele><time>2026-04-19T10:45:30.944Z</time></trkpt><trkpt lat="45.3872459" lon="8.0273298"><ele>332.0</ele><time>2026-04-19T10:45:31.944Z</time></trkpt><trkpt lat="45.3872166" lon="8.0272011"><ele>332.0</ele><time>2026-04-19T10:45:32.945Z</time></trkpt><trkpt lat="45.3872304" lon="8.0270443"><ele>332.0</ele><time>2026-04-19T10:45:33.944Z</time></trkpt><trkpt lat="45.3872308" lon="8.0268866"><ele>332.0</ele><time>2026-04-19T10:45:34.945Z</time></trkpt><trkpt lat="45.3872396" lon="8.0266862"><ele>332.0</ele><time>2026-04-19T10:45:35.945Z</time></trkpt><trkpt lat="45.3872527" lon="8.0264625"><ele>332.0</ele><time>2026-04-19T10:45:36.945Z</time></trkpt><trkpt lat="45.3872555" lon="8.0262308"><ele>332.33333333333337</ele><time>2026-04-19T10:45:37.946Z</time></trkpt><trkpt lat="45.3872656" lon="8.0260123"><ele>332.6666666666667</ele><time>2026-04-19T10:45:38.945Z</time></trkpt><trkpt lat="45.3872878" lon="8.0257858"><ele>333.0</ele><time>2026-04-19T10:45:39.944Z</time></trkpt><trkpt lat="45.387317" lon="8.0255671"><ele>333.3333333333333</ele><time>2026-04-19T10:45:40.946Z</time></trkpt><trkpt lat="45.3873445" lon="8.0253471"><ele>333.66666666666663</ele><time>2026-04-19T10:45:41.945Z</time></trkpt><trkpt lat="45.3873799" lon="8.0251111"><ele>334.0</ele><time>2026-04-19T10:45:42.945Z</time></trkpt><trkpt lat="45.3874133" lon="8.0249099"><ele>335.75</ele><time>2026-04-19T10:45:43.945Z</time></trkpt><trkpt lat="45.3874455" lon="8.0247227"><ele>337.5</ele><time>2026-04-19T10:45:44.944Z</time></trkpt><trkpt lat="45.3874663" lon="8.0245659"><ele>339.25</ele><time>2026-04-19T10:45:45.945Z</time></trkpt><trkpt lat="45.3874756" lon="8.024409"><ele>341.0</ele><time>2026-04-19T10:45:46.945Z</time></trkpt><trkpt lat="45.3874748" lon="8.0242734"><ele>341.33333333333337</ele><time>2026-04-19T10:45:47.946Z</time></trkpt><trkpt lat="45.3874735" lon="8.0241458"><ele>341.6666666666667</ele><time>2026-04-19T10:45:48.944Z</time></trkpt><trkpt lat="45.3874733" lon="8.0240354"><ele>342.0</ele><time>2026-04-19T10:45:49.944Z</time></trkpt><trkpt lat="45.3874699" lon="8.0239423"><ele>342.3333333333333</ele><time>2026-04-19T10:45:50.945Z</time></trkpt><trkpt lat="45.3874218" lon="8.0238754"><ele>342.66666666666663</ele><time>2026-04-19T10:45:51.945Z</time></trkpt><trkpt lat="45.3873624" lon="8.0237758"><ele>343.0</ele><time>2026-04-19T10:45:53.945Z</time></trkpt><trkpt lat="45.3873309" lon="8.0236958"><ele>343.0</ele><time>2026-04-19T10:45:58.944Z</time></trkpt><trkpt lat="45.387259" lon="8.023574"><ele>343.0</ele><time>2026-04-19T10:48:14.946Z</time></trkpt><trkpt lat="45.3871764" lon="8.0234836"><ele>343.0</ele><time>2026-04-19T10:48:16.944Z</time></trkpt><trkpt lat="45.3871124" lon="8.0234109"><ele>343.0</ele><time>2026-04-19T10:48:18.945Z</time></trkpt><trkpt lat="45.3870289" lon="8.0233255"><ele>343.0</ele><time>2026-04-19T10:48:20.945Z</time></trkpt><trkpt lat="45.3869329" lon="8.0232751"><ele>344.0</ele><time>2026-04-19T10:48:21.945Z</time></trkpt><trkpt lat="45.3868194" lon="8.0232307"><ele>345.0</ele><time>2026-04-19T10:48:23.945Z</time></trkpt><trkpt lat="45.3867426" lon="8.0232112"><ele>346.0</ele><time>2026-04-19T10:48:24.944Z</time></trkpt><trkpt lat="45.3866495" lon="8.0232143"><ele>347.0</ele><time>2026-04-19T10:48:25.945Z</time></trkpt><trkpt lat="45.3865766" lon="8.0231995"><ele>348.0</ele><time>2026-04-19T10:48:26.945Z</time></trkpt><trkpt lat="45.3864971" lon="8.0231964"><ele>349.0</ele><time>2026-04-19T10:48:27.945Z</time></trkpt><trkpt lat="45.3863804" lon="8.0231727"><ele>351.0</ele><time>2026-04-19T10:48:29.944Z</time></trkpt><trkpt lat="45.3862668" lon="8.0231518"><ele>353.0</ele><time>2026-04-19T10:48:31.945Z</time></trkpt><trkpt lat="45.3861636" lon="8.0231752"><ele>355.0</ele><time>2026-04-19T10:48:33.944Z</time></trkpt><trkpt lat="45.3860963" lon="8.0231714"><ele>357.0</ele><time>2026-04-19T10:48:35.944Z</time></trkpt><trkpt lat="45.3859981" lon="8.0231705"><ele>359.0</ele><time>2026-04-19T10:48:37.946Z</time></trkpt><trkpt lat="45.3859151" lon="8.0231881"><ele>359.0</ele><time>2026-04-19T10:48:39.944Z</time></trkpt><trkpt lat="45.3858511" lon="8.0232114"><ele>359.0</ele><time>2026-04-19T10:48:40.945Z</time></trkpt><trkpt lat="45.3857893" lon="8.0232311"><ele>359.0</ele><time>2026-04-19T10:48:41.944Z</time></trkpt><trkpt lat="45.3856781" lon="8.0232454"><ele>359.0</ele><time>2026-04-19T10:48:43.944Z</time></trkpt><trkpt lat="45.3855884" lon="8.0232676"><ele>359.0</ele><time>2026-04-19T10:48:45.945Z</time></trkpt><trkpt lat="45.3855019" lon="8.0233047"><ele>359.0</ele><time>2026-04-19T10:48:47.944Z</time></trkpt><trkpt lat="45.3854101" lon="8.0233065"><ele>359.83333333333337</ele><time>2026-04-19T10:48:49.944Z</time></trkpt><trkpt lat="45.3853409" lon="8.0233106"><ele>360.6666666666667</ele><time>2026-04-19T10:48:51.944Z</time></trkpt><trkpt lat="45.3852537" lon="8.0233471"><ele>361.5</ele><time>2026-04-19T10:48:54.944Z</time></trkpt><trkpt lat="45.3851857" lon="8.0233836"><ele>362.3333333333333</ele><time>2026-04-19T10:48:56.945Z</time></trkpt><trkpt lat="45.3850766" lon="8.0234281"><ele>363.16666666666663</ele><time>2026-04-19T10:48:58.945Z</time></trkpt><trkpt lat="45.3850048" lon="8.0234692"><ele>364.0</ele><time>2026-04-19T10:49:00.945Z</time></trkpt><trkpt lat="45.3849039" lon="8.0235015"><ele>366.0</ele><time>2026-04-19T10:49:02.945Z</time></trkpt><trkpt lat="45.3848115" lon="8.0235062"><ele>368.0</ele><time>2026-04-19T10:49:04.945Z</time></trkpt><trkpt lat="45.3847315" lon="8.0235121"><ele>370.0</ele><time>2026-04-19T10:49:06.944Z</time></trkpt><trkpt lat="45.3846603" lon="8.0234954"><ele>372.0</ele><time>2026-04-19T10:49:09.944Z</time></trkpt><trkpt lat="45.3845791" lon="8.0234597"><ele>374.0</ele><time>2026-04-19T10:49:11.944Z</time></trkpt><trkpt lat="45.3844928" lon="8.0234495"><ele>376.0</ele><time>2026-04-19T10:49:13.944Z</time></trkpt><trkpt lat="45.384422" lon="8.023423"><ele>376.5</ele><time>2026-04-19T10:49:15.946Z</time></trkpt><trkpt lat="45.3843544" lon="8.0233761"><ele>377.0</ele><time>2026-04-19T10:49:16.945Z</time></trkpt><trkpt lat="45.3842464" lon="8.0232983"><ele>377.5</ele><time>2026-04-19T10:49:18.944Z</time></trkpt><trkpt lat="45.3841863" lon="8.0232462"><ele>378.0</ele><time>2026-04-19T10:49:20.945Z</time></trkpt><trkpt lat="45.3841063" lon="8.0231946"><ele>378.5</ele><time>2026-04-19T10:49:22.945Z</time></trkpt><trkpt lat="45.3840359" lon="8.0231624"><ele>379.0</ele><time>2026-04-19T10:49:24.944Z</time></trkpt><trkpt lat="45.3839625" lon="8.0231399"><ele>379.0</ele><time>2026-04-19T10:49:28.945Z</time></trkpt><trkpt lat="45.3839016" lon="8.02308"><ele>379.0</ele><time>2026-04-19T10:49:47.943Z</time></trkpt><trkpt lat="45.3838037" lon="8.023007"><ele>379.0</ele><time>2026-04-19T10:49:50.944Z</time></trkpt><trkpt lat="45.3837232" lon="8.022927"><ele>379.0</ele><time>2026-04-19T10:49:52.944Z</time></trkpt><trkpt lat="45.3835983" lon="8.022827"><ele>379.0</ele><time>2026-04-19T10:49:54.944Z</time></trkpt><trkpt lat="45.3835224" lon="8.0228068"><ele>382.3333333333333</ele><time>2026-04-19T10:49:55.943Z</time></trkpt><trkpt lat="45.3834537" lon="8.0227838"><ele>385.66666666666663</ele><time>2026-04-19T10:49:56.943Z</time></trkpt><trkpt lat="45.3833937" lon="8.0227394"><ele>389.0</ele><time>2026-04-19T10:49:57.944Z</time></trkpt><trkpt lat="45.3833249" lon="8.0226889"><ele>392.3333333333333</ele><time>2026-04-19T10:49:59.944Z</time></trkpt><trkpt lat="45.383235" lon="8.0226552"><ele>395.6666666666667</ele><time>2026-04-19T10:50:01.944Z</time></trkpt><trkpt lat="45.3831661" lon="8.0226433"><ele>399.0</ele><time>2026-04-19T10:50:02.944Z</time></trkpt><trkpt lat="45.383053" lon="8.02267"><ele>401.14285714285717</ele><time>2026-04-19T10:50:05.943Z</time></trkpt><trkpt lat="45.38299" lon="8.0226709"><ele>403.2857142857143</ele><time>2026-04-19T10:50:07.943Z</time></trkpt><trkpt lat="45.3829227" lon="8.0226658"><ele>405.42857142857144</ele><time>2026-04-19T10:51:53.943Z</time></trkpt><trkpt lat="45.3828508" lon="8.0227018"><ele>407.57142857142856</ele><time>2026-04-19T10:51:57.943Z</time></trkpt><trkpt lat="45.382782" lon="8.0226849"><ele>409.7142857142857</ele><time>2026-04-19T10:52:11.944Z</time></trkpt><trkpt lat="45.3827167" lon="8.0227054"><ele>411.8571428571429</ele><time>2026-04-19T10:52:13.944Z</time></trkpt><trkpt lat="45.3826363" lon="8.0227245"><ele>414.0</ele><time>2026-04-19T10:52:15.944Z</time></trkpt><trkpt lat="45.3825609" lon="8.0227354"><ele>414.0</ele><time>2026-04-19T10:52:59.944Z</time></trkpt><trkpt lat="45.3824986" lon="8.0227691"><ele>414.0</ele><time>2026-04-19T10:54:30.944Z</time></trkpt><trkpt lat="45.3824064" lon="8.022786"><ele>414.0</ele><time>2026-04-19T10:54:49.943Z</time></trkpt><trkpt lat="45.3823323" lon="8.0228179"><ele>414.0</ele><time>2026-04-19T10:54:51.943Z</time></trkpt><trkpt lat="45.3822666" lon="8.0228359"><ele>414.0</ele><time>2026-04-19T10:54:55.943Z</time></trkpt><trkpt lat="45.3821986" lon="8.0229098"><ele>414.0</ele><time>2026-04-19T11:00:39.941Z</time></trkpt><trkpt lat="45.382126" lon="8.0229372"><ele>416.14285714285717</ele><time>2026-04-19T11:01:18.941Z</time></trkpt><trkpt lat="45.3820528" lon="8.0229341"><ele>418.2857142857143</ele><time>2026-04-19T11:01:21.941Z</time></trkpt><trkpt lat="45.3819881" lon="8.0229348"><ele>420.42857142857144</ele><time>2026-04-19T11:01:23.941Z</time></trkpt><trkpt lat="45.3819251" lon="8.022943"><ele>422.57142857142856</ele><time>2026-04-19T11:01:25.942Z</time></trkpt><trkpt lat="45.3818645" lon="8.0229813"><ele>424.7142857142857</ele><time>2026-04-19T11:01:29.943Z</time></trkpt><trkpt lat="45.381788" lon="8.0230031"><ele>426.8571428571429</ele><time>2026-04-19T11:01:33.941Z</time></trkpt><trkpt lat="45.3817175" lon="8.0229677"><ele>429.0</ele><time>2026-04-19T11:01:36.942Z</time></trkpt><trkpt lat="45.3817308" lon="8.0228541"><ele>429.0</ele><time>2026-04-19T11:01:40.941Z</time></trkpt><trkpt lat="45.3817367" lon="8.0227616"><ele>429.0</ele><time>2026-04-19T11:01:42.941Z</time></trkpt><trkpt lat="45.3817427" lon="8.0226429"><ele>429.0</ele><time>2026-04-19T11:01:58.943Z</time></trkpt><trkpt lat="45.3817095" lon="8.022546"><ele>429.0</ele><time>2026-04-19T11:02:02.941Z</time></trkpt><trkpt lat="45.3816699" lon="8.0224452"><ele>429.0</ele><time>2026-04-19T11:02:04.941Z</time></trkpt><trkpt lat="45.3816523" lon="8.0223491"><ele>429.0</ele><time>2026-04-19T11:02:07.941Z</time></trkpt><trkpt lat="45.3816327" lon="8.0222614"><ele>429.0</ele><time>2026-04-19T11:03:07.942Z</time></trkpt><trkpt lat="45.3816798" lon="8.0223816"><ele>429.0</ele><time>2026-04-19T11:04:01.94Z</time></trkpt><trkpt lat="45.3817399" lon="8.0225442"><ele>429.0</ele><time>2026-04-19T11:04:03.94Z</time></trkpt><trkpt lat="45.3817602" lon="8.0226492"><ele>429.0</ele><time>2026-04-19T11:04:04.941Z</time></trkpt><trkpt lat="45.3817547" lon="8.0228016"><ele>429.0</ele><time>2026-04-19T11:04:06.94Z</time></trkpt><trkpt lat="45.3817259" lon="8.0228884"><ele>429.0</ele><time>2026-04-19T11:04:08.94Z</time></trkpt><trkpt lat="45.3816623" lon="8.022964"><ele>429.0</ele><time>2026-04-19T11:04:13.94Z</time></trkpt><trkpt lat="45.3815688" lon="8.0230269"><ele>429.0</ele><time>2026-04-19T11:04:15.94Z</time></trkpt><trkpt lat="45.3814898" lon="8.0230763"><ele>429.0</ele><time>2026-04-19T11:04:16.941Z</time></trkpt><trkpt lat="45.3814233" lon="8.0231136"><ele>429.0</ele><time>2026-04-19T11:04:17.941Z</time></trkpt><trkpt lat="45.3813447" lon="8.0231576"><ele>429.0</ele><time>2026-04-19T11:04:18.94Z</time></trkpt><trkpt lat="45.3812667" lon="8.0231996"><ele>429.0</ele><time>2026-04-19T11:04:19.94Z</time></trkpt><trkpt lat="45.3811882" lon="8.0232515"><ele>429.6</ele><time>2026-04-19T11:04:20.941Z</time></trkpt><trkpt lat="45.3810992" lon="8.0233066"><ele>430.2</ele><time>2026-04-19T11:04:21.942Z</time></trkpt><trkpt lat="45.3810355" lon="8.0233564"><ele>430.80000000000007</ele><time>2026-04-19T11:04:22.94Z</time></trkpt><trkpt lat="45.3809421" lon="8.0233784"><ele>431.40000000000003</ele><time>2026-04-19T11:04:24.941Z</time></trkpt><trkpt lat="45.3808267" lon="8.0232792"><ele>432.0</ele><time>2026-04-19T11:04:26.94Z</time></trkpt><trkpt lat="45.3807635" lon="8.023215"><ele>432.0</ele><time>2026-04-19T11:04:27.941Z</time></trkpt><trkpt lat="45.3807033" lon="8.0231299"><ele>432.0</ele><time>2026-04-19T11:04:28.94Z</time></trkpt><trkpt lat="45.3806324" lon="8.0230574"><ele>432.0</ele><time>2026-04-19T11:04:29.94Z</time></trkpt><trkpt lat="45.3805427" lon="8.0229473"><ele>432.0</ele><time>2026-04-19T11:04:31.94Z</time></trkpt><trkpt lat="45.3804953" lon="8.0228841"><ele>432.0</ele><time>2026-04-19T11:04:32.94Z</time></trkpt><trkpt lat="45.380448" lon="8.0227747"><ele>432.0</ele><time>2026-04-19T11:04:33.94Z</time></trkpt><trkpt lat="45.3803942" lon="8.022686"><ele>428.75</ele><time>2026-04-19T11:04:34.941Z</time></trkpt><trkpt lat="45.3803543" lon="8.0225828"><ele>425.5</ele><time>2026-04-19T11:04:35.941Z</time></trkpt><trkpt lat="45.3802906" lon="8.0224276"><ele>422.25</ele><time>2026-04-19T11:04:36.94Z</time></trkpt><trkpt lat="45.3802076" lon="8.0222621"><ele>419.0</ele><time>2026-04-19T11:04:37.942Z</time></trkpt><trkpt lat="45.3801292" lon="8.0220855"><ele>419.0</ele><time>2026-04-19T11:04:38.94Z</time></trkpt><trkpt lat="45.3800472" lon="8.0219288"><ele>419.0</ele><time>2026-04-19T11:04:39.941Z</time></trkpt><trkpt lat="45.3799823" lon="8.0217828"><ele>419.0</ele><time>2026-04-19T11:04:40.94Z</time></trkpt><trkpt lat="45.3799324" lon="8.0216374"><ele>419.0</ele><time>2026-04-19T11:04:41.941Z</time></trkpt><trkpt lat="45.3798956" lon="8.0214828"><ele>418.75</ele><time>2026-04-19T11:04:42.94Z</time></trkpt><trkpt lat="45.3798778" lon="8.0213202"><ele>418.5</ele><time>2026-04-19T11:04:43.94Z</time></trkpt><trkpt lat="45.379863" lon="8.0211374"><ele>418.25</ele><time>2026-04-19T11:04:44.941Z</time></trkpt><trkpt lat="45.3798519" lon="8.0209547"><ele>418.0</ele><time>2026-04-19T11:04:45.94Z</time></trkpt><trkpt lat="45.3798336" lon="8.0207961"><ele>416.2</ele><time>2026-04-19T11:04:46.94Z</time></trkpt><trkpt lat="45.3797954" lon="8.0206784"><ele>414.4</ele><time>2026-04-19T11:04:47.941Z</time></trkpt><trkpt lat="45.3797622" lon="8.0205649"><ele>412.59999999999997</ele><time>2026-04-19T11:04:48.942Z</time></trkpt><trkpt lat="45.37972" lon="8.0204793"><ele>410.79999999999995</ele><time>2026-04-19T11:04:49.941Z</time></trkpt><trkpt lat="45.3796119" lon="8.020494"><ele>409.0</ele><time>2026-04-19T11:04:50.94Z</time></trkpt><trkpt lat="45.3795158" lon="8.0204637"><ele>409.0</ele><time>2026-04-19T11:04:51.941Z</time></trkpt><trkpt lat="45.3794053" lon="8.0204682"><ele>409.0</ele><time>2026-04-19T11:04:52.941Z</time></trkpt><trkpt lat="45.3792962" lon="8.0204619"><ele>409.0</ele><time>2026-04-19T11:04:53.94Z</time></trkpt><trkpt lat="45.3791941" lon="8.0204306"><ele>409.0</ele><time>2026-04-19T11:04:54.94Z</time></trkpt><trkpt lat="45.3791292" lon="8.0203543"><ele>409.0</ele><time>2026-04-19T11:04:55.942Z</time></trkpt><trkpt lat="45.3790786" lon="8.0202029"><ele>409.0</ele><time>2026-04-19T11:04:56.941Z</time></trkpt><trkpt lat="45.3790485" lon="8.0200657"><ele>409.0</ele><time>2026-04-19T11:04:57.941Z</time></trkpt><trkpt lat="45.3790414" lon="8.0199257"><ele>409.0</ele><time>2026-04-19T11:04:58.941Z</time></trkpt><trkpt lat="45.3790614" lon="8.0197751"><ele>409.0</ele><time>2026-04-19T11:04:59.94Z</time></trkpt><trkpt lat="45.3790786" lon="8.0196447"><ele>409.0</ele><time>2026-04-19T11:05:00.941Z</time></trkpt><trkpt lat="45.3791102" lon="8.0195349"><ele>407.4</ele><time>2026-04-19T11:05:01.94Z</time></trkpt><trkpt lat="45.3791825" lon="8.0194944"><ele>405.79999999999995</ele><time>2026-04-19T11:05:02.94Z</time></trkpt><trkpt lat="45.3792575" lon="8.0194373"><ele>404.20000000000005</ele><time>2026-04-19T11:05:03.94Z</time></trkpt><trkpt lat="45.3793319" lon="8.0193846"><ele>402.6</ele><time>2026-04-19T11:05:04.94Z</time></trkpt><trkpt lat="45.3794328" lon="8.01937"><ele>401.0</ele><time>2026-04-19T11:05:05.94Z</time></trkpt><trkpt lat="45.3795971" lon="8.019419"><ele>396.3333333333333</ele><time>2026-04-19T11:05:06.941Z</time></trkpt><trkpt lat="45.3797406" lon="8.0194223"><ele>391.66666666666663</ele><time>2026-04-19T11:05:07.941Z</time></trkpt><trkpt lat="45.3799769" lon="8.0194361"><ele>387.0</ele><time>2026-04-19T11:05:08.94Z</time></trkpt><trkpt lat="45.3801723" lon="8.0194278"><ele>387.0</ele><time>2026-04-19T11:05:09.94Z</time></trkpt><trkpt lat="45.3803308" lon="8.0194446"><ele>387.0</ele><time>2026-04-19T11:05:10.941Z</time></trkpt><trkpt lat="45.3804715" lon="8.0194591"><ele>387.0</ele><time>2026-04-19T11:05:11.94Z</time></trkpt><trkpt lat="45.3806105" lon="8.0195027"><ele>387.0</ele><time>2026-04-19T11:05:12.941Z</time></trkpt><trkpt lat="45.3807647" lon="8.0195356"><ele>380.5</ele><time>2026-04-19T11:05:13.941Z</time></trkpt><trkpt lat="45.3809512" lon="8.019724"><ele>374.0</ele><time>2026-04-19T11:05:14.94Z</time></trkpt><trkpt lat="45.3811894" lon="8.0198709"><ele>375.33333333333337</ele><time>2026-04-19T11:05:15.941Z</time></trkpt><trkpt lat="45.3813651" lon="8.0199716"><ele>376.6666666666667</ele><time>2026-04-19T11:05:16.941Z</time></trkpt><trkpt lat="45.3815346" lon="8.020078"><ele>378.0</ele><time>2026-04-19T11:05:17.94Z</time></trkpt><trkpt lat="45.3817086" lon="8.0201857"><ele>378.0</ele><time>2026-04-19T11:05:18.94Z</time></trkpt><trkpt lat="45.3818688" lon="8.0202913"><ele>378.0</ele><time>2026-04-19T11:05:19.94Z</time></trkpt><trkpt lat="45.3820415" lon="8.0203942"><ele>378.0</ele><time>2026-04-19T11:05:20.94Z</time></trkpt><trkpt lat="45.3821898" lon="8.0204986"><ele>376.25</ele><time>2026-04-19T11:05:21.941Z</time></trkpt><trkpt lat="45.3823393" lon="8.0206116"><ele>374.5</ele><time>2026-04-19T11:05:22.941Z</time></trkpt><trkpt lat="45.3824451" lon="8.0206799"><ele>372.75</ele><time>2026-04-19T11:05:23.941Z</time></trkpt><trkpt lat="45.3825999" lon="8.020631"><ele>371.0</ele><time>2026-04-19T11:05:25.942Z</time></trkpt><trkpt lat="45.382687" lon="8.0205612"><ele>371.0</ele><time>2026-04-19T11:05:26.941Z</time></trkpt><trkpt lat="45.3827608" lon="8.0204767"><ele>371.0</ele><time>2026-04-19T11:05:27.94Z</time></trkpt><trkpt lat="45.3828202" lon="8.0203514"><ele>371.0</ele><time>2026-04-19T11:05:28.941Z</time></trkpt><trkpt lat="45.3828731" lon="8.0201899"><ele>371.0</ele><time>2026-04-19T11:05:29.94Z</time></trkpt><trkpt lat="45.3829396" lon="8.0200489"><ele>371.0</ele><time>2026-04-19T11:05:30.94Z</time></trkpt><trkpt lat="45.382978" lon="8.0199292"><ele>367.5</ele><time>2026-04-19T11:05:31.94Z</time></trkpt><trkpt lat="45.3830243" lon="8.0198063"><ele>364.0</ele><time>2026-04-19T11:05:32.941Z</time></trkpt><trkpt lat="45.3830739" lon="8.0197199"><ele>360.5</ele><time>2026-04-19T11:05:33.94Z</time></trkpt><trkpt lat="45.383159" lon="8.0196384"><ele>357.0</ele><time>2026-04-19T11:05:34.941Z</time></trkpt><trkpt lat="45.3833881" lon="8.01955"><ele>357.0</ele><time>2026-04-19T11:05:35.94Z</time></trkpt><trkpt lat="45.3835075" lon="8.0194589"><ele>357.0</ele><time>2026-04-19T11:05:36.941Z</time></trkpt><trkpt lat="45.3836333" lon="8.0193705"><ele>357.0</ele><time>2026-04-19T11:05:37.94Z</time></trkpt><trkpt lat="45.3837403" lon="8.0192805"><ele>357.0</ele><time>2026-04-19T11:05:38.94Z</time></trkpt><trkpt lat="45.3837691" lon="8.0191665"><ele>357.1666666666667</ele><time>2026-04-19T11:05:39.94Z</time></trkpt><trkpt lat="45.383819" lon="8.0190891"><ele>357.3333333333333</ele><time>2026-04-19T11:05:40.941Z</time></trkpt><trkpt lat="45.383866" lon="8.0189964"><ele>357.5</ele><time>2026-04-19T11:05:42.94Z</time></trkpt><trkpt lat="45.3837942" lon="8.0189669"><ele>357.66666666666663</ele><time>2026-04-19T11:05:46.94Z</time></trkpt><trkpt lat="45.3837234" lon="8.0189905"><ele>357.8333333333333</ele><time>2026-04-19T11:05:50.942Z</time></trkpt><trkpt lat="45.3838161" lon="8.0189825"><ele>358.0</ele><time>2026-04-19T11:08:30.941Z</time></trkpt><trkpt lat="45.3838872" lon="8.018961"><ele>358.0</ele><time>2026-04-19T11:08:32.939Z</time></trkpt><trkpt lat="45.3839101" lon="8.018873"><ele>358.0</ele><time>2026-04-19T11:08:34.941Z</time></trkpt><trkpt lat="45.3838599" lon="8.018777"><ele>358.0</ele><time>2026-04-19T11:08:35.941Z</time></trkpt><trkpt lat="45.3838313" lon="8.0186127"><ele>358.0</ele><time>2026-04-19T11:08:37.94Z</time></trkpt><trkpt lat="45.3838258" lon="8.0184301"><ele>358.0</ele><time>2026-04-19T11:08:39.941Z</time></trkpt><trkpt lat="45.383804" lon="8.0183356"><ele>356.25</ele><time>2026-04-19T11:08:40.941Z</time></trkpt><trkpt lat="45.3836817" lon="8.0182456"><ele>354.5</ele><time>2026-04-19T11:08:41.941Z</time></trkpt><trkpt lat="45.3835991" lon="8.0180921"><ele>352.75</ele><time>2026-04-19T11:08:42.941Z</time></trkpt><trkpt lat="45.38349" lon="8.0179338"><ele>351.0</ele><time>2026-04-19T11:08:43.94Z</time></trkpt><trkpt lat="45.383396" lon="8.0177807"><ele>351.0</ele><time>2026-04-19T11:08:44.942Z</time></trkpt><trkpt lat="45.383303" lon="8.0176378"><ele>351.0</ele><time>2026-04-19T11:08:45.941Z</time></trkpt><trkpt lat="45.3832139" lon="8.0175011"><ele>351.0</ele><time>2026-04-19T11:08:46.94Z</time></trkpt><trkpt lat="45.3831204" lon="8.0173517"><ele>351.0</ele><time>2026-04-19T11:08:47.94Z</time></trkpt><trkpt lat="45.3830296" lon="8.0171888"><ele>350.5</ele><time>2026-04-19T11:08:48.94Z</time></trkpt><trkpt lat="45.3829397" lon="8.0170232"><ele>350.0</ele><time>2026-04-19T11:08:49.94Z</time></trkpt><trkpt lat="45.3828523" lon="8.0168422"><ele>349.5</ele><time>2026-04-19T11:08:50.94Z</time></trkpt><trkpt lat="45.3827809" lon="8.016681"><ele>349.0</ele><time>2026-04-19T11:08:51.941Z</time></trkpt><trkpt lat="45.3827218" lon="8.0165298"><ele>350.5</ele><time>2026-04-19T11:08:52.941Z</time></trkpt><trkpt lat="45.382667" lon="8.0163486"><ele>352.0</ele><time>2026-04-19T11:08:53.941Z</time></trkpt><trkpt lat="45.3826156" lon="8.0161756"><ele>353.5</ele><time>2026-04-19T11:08:54.941Z</time></trkpt><trkpt lat="45.382581" lon="8.0160141"><ele>355.0</ele><time>2026-04-19T11:08:55.941Z</time></trkpt><trkpt lat="45.3825482" lon="8.0158388"><ele>355.5</ele><time>2026-04-19T11:08:56.94Z</time></trkpt><trkpt lat="45.3825258" lon="8.0156606"><ele>356.0</ele><time>2026-04-19T11:08:57.94Z</time></trkpt><trkpt lat="45.3825033" lon="8.0154869"><ele>356.5</ele><time>2026-04-19T11:08:58.94Z</time></trkpt><trkpt lat="45.3824953" lon="8.0153156"><ele>357.0</ele><time>2026-04-19T11:08:59.94Z</time></trkpt><trkpt lat="45.3824962" lon="8.0151694"><ele>357.0</ele><time>2026-04-19T11:09:00.941Z</time></trkpt><trkpt lat="45.3824868" lon="8.0150349"><ele>357.0</ele><time>2026-04-19T11:09:01.941Z</time></trkpt><trkpt lat="45.382468" lon="8.0148902"><ele>357.0</ele><time>2026-04-19T11:09:02.94Z</time></trkpt><trkpt lat="45.3824244" lon="8.01474"><ele>357.0</ele><time>2026-04-19T11:09:03.94Z</time></trkpt><trkpt lat="45.38238" lon="8.0146093"><ele>357.0</ele><time>2026-04-19T11:09:04.942Z</time></trkpt><trkpt lat="45.3823202" lon="8.0144839"><ele>357.20000000000005</ele><time>2026-04-19T11:09:05.941Z</time></trkpt><trkpt lat="45.3822613" lon="8.0143473"><ele>357.4</ele><time>2026-04-19T11:09:06.94Z</time></trkpt><trkpt lat="45.3822009" lon="8.0142108"><ele>357.6</ele><time>2026-04-19T11:09:07.94Z</time></trkpt><trkpt lat="45.3821526" lon="8.0140767"><ele>357.79999999999995</ele><time>2026-04-19T11:09:08.941Z</time></trkpt><trkpt lat="45.3821093" lon="8.0139469"><ele>358.0</ele><time>2026-04-19T11:09:09.94Z</time></trkpt><trkpt lat="45.3820777" lon="8.0138274"><ele>357.0</ele><time>2026-04-19T11:09:10.942Z</time></trkpt><trkpt lat="45.382057" lon="8.0136778"><ele>356.0</ele><time>2026-04-19T11:09:11.941Z</time></trkpt><trkpt lat="45.3820574" lon="8.013539"><ele>355.0</ele><time>2026-04-19T11:09:12.94Z</time></trkpt><trkpt lat="45.3820544" lon="8.0134007"><ele>354.0</ele><time>2026-04-19T11:09:13.941Z</time></trkpt><trkpt lat="45.382046" lon="8.0132391"><ele>353.0</ele><time>2026-04-19T11:09:14.94Z</time></trkpt><trkpt lat="45.3820198" lon="8.0130777"><ele>352.79999999999995</ele><time>2026-04-19T11:09:15.94Z</time></trkpt><trkpt lat="45.3819938" lon="8.0129165"><ele>352.6</ele><time>2026-04-19T11:09:16.94Z</time></trkpt><trkpt lat="45.3819653" lon="8.0127591"><ele>352.4</ele><time>2026-04-19T11:09:17.94Z</time></trkpt><trkpt lat="45.3819408" lon="8.0126115"><ele>352.20000000000005</ele><time>2026-04-19T11:09:18.94Z</time></trkpt><trkpt lat="45.3819045" lon="8.0124804"><ele>352.0</ele><time>2026-04-19T11:09:19.941Z</time></trkpt><trkpt lat="45.3818587" lon="8.0123571"><ele>352.8</ele><time>2026-04-19T11:09:20.941Z</time></trkpt><trkpt lat="45.3817637" lon="8.0122353"><ele>353.6</ele><time>2026-04-19T11:09:21.94Z</time></trkpt><trkpt lat="45.3817002" lon="8.0121257"><ele>354.40000000000003</ele><time>2026-04-19T11:09:22.94Z</time></trkpt><trkpt lat="45.381649" lon="8.0119939"><ele>355.20000000000005</ele><time>2026-04-19T11:09:23.942Z</time></trkpt><trkpt lat="45.3816048" lon="8.0118542"><ele>356.0</ele><time>2026-04-19T11:09:24.94Z</time></trkpt><trkpt lat="45.3815577" lon="8.0116886"><ele>356.5</ele><time>2026-04-19T11:09:25.94Z</time></trkpt><trkpt lat="45.3815116" lon="8.0115251"><ele>357.0</ele><time>2026-04-19T11:09:26.94Z</time></trkpt><trkpt lat="45.3814624" lon="8.0113625"><ele>357.5</ele><time>2026-04-19T11:09:27.94Z</time></trkpt><trkpt lat="45.3814107" lon="8.0112"><ele>358.0</ele><time>2026-04-19T11:09:28.941Z</time></trkpt><trkpt lat="45.3813545" lon="8.0110416"><ele>357.0</ele><time>2026-04-19T11:09:29.941Z</time></trkpt><trkpt lat="45.3812969" lon="8.0108811"><ele>356.0</ele><time>2026-04-19T11:09:30.94Z</time></trkpt><trkpt lat="45.3812417" lon="8.0107167"><ele>355.0</ele><time>2026-04-19T11:09:31.941Z</time></trkpt><trkpt lat="45.3811896" lon="8.0105536"><ele>354.0</ele><time>2026-04-19T11:09:32.94Z</time></trkpt><trkpt lat="45.3811429" lon="8.0104061"><ele>354.0</ele><time>2026-04-19T11:09:33.94Z</time></trkpt><trkpt lat="45.3811039" lon="8.010269"><ele>354.0</ele><time>2026-04-19T11:09:34.941Z</time></trkpt><trkpt lat="45.3810736" lon="8.0101469"><ele>354.0</ele><time>2026-04-19T11:09:35.94Z</time></trkpt><trkpt lat="45.3810487" lon="8.0100386"><ele>354.0</ele><time>2026-04-19T11:09:36.94Z</time></trkpt><trkpt lat="45.3810279" lon="8.0099491"><ele>354.0</ele><time>2026-04-19T11:09:37.941Z</time></trkpt><trkpt lat="45.3810079" lon="8.0098287"><ele>354.0</ele><time>2026-04-19T11:09:39.94Z</time></trkpt><trkpt lat="45.3809956" lon="8.0097382"><ele>353.79999999999995</ele><time>2026-04-19T11:09:42.94Z</time></trkpt><trkpt lat="45.3810079" lon="8.0096188"><ele>353.59999999999997</ele><time>2026-04-19T11:09:53.94Z</time></trkpt><trkpt lat="45.3810453" lon="8.0095416"><ele>353.4</ele><time>2026-04-19T11:09:54.942Z</time></trkpt><trkpt lat="45.381112" lon="8.0094697"><ele>353.2</ele><time>2026-04-19T11:09:55.941Z</time></trkpt><trkpt lat="45.3811968" lon="8.009389"><ele>353.0</ele><time>2026-04-19T11:09:56.94Z</time></trkpt><trkpt lat="45.3813031" lon="8.0092838"><ele>352.6666666666667</ele><time>2026-04-19T11:09:57.942Z</time></trkpt><trkpt lat="45.3814334" lon="8.0091785"><ele>352.3333333333333</ele><time>2026-04-19T11:09:58.94Z</time></trkpt><trkpt lat="45.3815925" lon="8.0090593"><ele>352.0</ele><time>2026-04-19T11:09:59.94Z</time></trkpt><trkpt lat="45.3817859" lon="8.0089737"><ele>352.0</ele><time>2026-04-19T11:10:00.941Z</time></trkpt><trkpt lat="45.3819903" lon="8.0088985"><ele>352.0</ele><time>2026-04-19T11:10:01.941Z</time></trkpt><trkpt lat="45.3822065" lon="8.008835"><ele>352.0</ele><time>2026-04-19T11:10:02.941Z</time></trkpt><trkpt lat="45.3823935" lon="8.0087877"><ele>353.0</ele><time>2026-04-19T11:10:03.94Z</time></trkpt><trkpt lat="45.382555" lon="8.0087427"><ele>354.0</ele><time>2026-04-19T11:10:04.941Z</time></trkpt><trkpt lat="45.3827042" lon="8.0087118"><ele>355.0</ele><time>2026-04-19T11:10:05.94Z</time></trkpt><trkpt lat="45.3828349" lon="8.0086744"><ele>356.0</ele><time>2026-04-19T11:10:06.941Z</time></trkpt><trkpt lat="45.3829455" lon="8.0086475"><ele>356.1666666666667</ele><time>2026-04-19T11:10:07.94Z</time></trkpt><trkpt lat="45.3830361" lon="8.0086246"><ele>356.33333333333337</ele><time>2026-04-19T11:10:08.941Z</time></trkpt><trkpt lat="45.3831266" lon="8.0085988"><ele>356.5</ele><time>2026-04-19T11:10:09.94Z</time></trkpt><trkpt lat="45.3832078" lon="8.008576"><ele>356.6666666666667</ele><time>2026-04-19T11:10:10.94Z</time></trkpt><trkpt lat="45.3832774" lon="8.0085551"><ele>356.8333333333333</ele><time>2026-04-19T11:10:11.94Z</time></trkpt><trkpt lat="45.3833425" lon="8.0085376"><ele>357.0</ele><time>2026-04-19T11:10:12.941Z</time></trkpt><trkpt lat="45.3834322" lon="8.0085149"><ele>357.0</ele><time>2026-04-19T11:10:14.941Z</time></trkpt><trkpt lat="45.38347" lon="8.0084367"><ele>357.0</ele><time>2026-04-19T11:10:20.94Z</time></trkpt><trkpt lat="45.38345" lon="8.008335"><ele>357.0</ele><time>2026-04-19T11:10:23.94Z</time></trkpt><trkpt lat="45.3834453" lon="8.0082444"><ele>357.0</ele><time>2026-04-19T11:14:33.939Z</time></trkpt><trkpt lat="45.3834074" lon="8.0081378"><ele>357.0</ele><time>2026-04-19T11:14:37.94Z</time></trkpt><trkpt lat="45.3833131" lon="8.0080933"><ele>357.0</ele><time>2026-04-19T11:14:39.939Z</time></trkpt><trkpt lat="45.3832507" lon="8.0080769"><ele>358.8</ele><time>2026-04-19T11:14:40.94Z</time></trkpt><trkpt lat="45.383162" lon="8.0080759"><ele>360.6</ele><time>2026-04-19T11:14:41.939Z</time></trkpt><trkpt lat="45.3830587" lon="8.0080642"><ele>362.40000000000003</ele><time>2026-04-19T11:14:42.939Z</time></trkpt><trkpt lat="45.3829589" lon="8.0080379"><ele>364.20000000000005</ele><time>2026-04-19T11:14:43.939Z</time></trkpt><trkpt lat="45.3828692" lon="8.0080373"><ele>366.0</ele><time>2026-04-19T11:14:44.939Z</time></trkpt><trkpt lat="45.3827786" lon="8.0080146"><ele>366.0</ele><time>2026-04-19T11:14:45.939Z</time></trkpt><trkpt lat="45.3826803" lon="8.0079899"><ele>366.0</ele><time>2026-04-19T11:14:46.938Z</time></trkpt><trkpt lat="45.3825799" lon="8.0079694"><ele>366.0</ele><time>2026-04-19T11:14:47.94Z</time></trkpt><trkpt lat="45.3824831" lon="8.0079662"><ele>366.0</ele><time>2026-04-19T11:14:48.94Z</time></trkpt><trkpt lat="45.3823778" lon="8.0079691"><ele>366.0</ele><time>2026-04-19T11:14:49.938Z</time></trkpt><trkpt lat="45.3822628" lon="8.0079773"><ele>364.20000000000005</ele><time>2026-04-19T11:14:50.939Z</time></trkpt><trkpt lat="45.3821514" lon="8.0080012"><ele>362.40000000000003</ele><time>2026-04-19T11:14:51.939Z</time></trkpt><trkpt lat="45.3820441" lon="8.0080198"><ele>360.6</ele><time>2026-04-19T11:14:52.939Z</time></trkpt><trkpt lat="45.3819607" lon="8.0080637"><ele>358.8</ele><time>2026-04-19T11:14:53.939Z</time></trkpt><trkpt lat="45.3818599" lon="8.008135"><ele>357.0</ele><time>2026-04-19T11:14:54.939Z</time></trkpt><trkpt lat="45.3817661" lon="8.0081915"><ele>357.0</ele><time>2026-04-19T11:14:55.939Z</time></trkpt><trkpt lat="45.3816724" lon="8.008242"><ele>357.0</ele><time>2026-04-19T11:14:56.939Z</time></trkpt><trkpt lat="45.3816007" lon="8.0082913"><ele>357.0</ele><time>2026-04-19T11:14:57.939Z</time></trkpt><trkpt lat="45.3814872" lon="8.0082516"><ele>357.0</ele><time>2026-04-19T11:14:59.938Z</time></trkpt><trkpt lat="45.3814394" lon="8.0081108"><ele>357.0</ele><time>2026-04-19T11:15:01.938Z</time></trkpt><trkpt lat="45.3814166" lon="8.008015"><ele>357.0</ele><time>2026-04-19T11:15:02.939Z</time></trkpt><trkpt lat="45.3813938" lon="8.0079083"><ele>357.0</ele><time>2026-04-19T11:15:03.939Z</time></trkpt><trkpt lat="45.3813632" lon="8.0077709"><ele>357.0</ele><time>2026-04-19T11:15:04.94Z</time></trkpt><trkpt lat="45.3813355" lon="8.0076381"><ele>357.0</ele><time>2026-04-19T11:15:05.94Z</time></trkpt><trkpt lat="45.3813207" lon="8.0075052"><ele>357.0</ele><time>2026-04-19T11:15:06.939Z</time></trkpt><trkpt lat="45.3812904" lon="8.0073828"><ele>357.20000000000005</ele><time>2026-04-19T11:15:07.939Z</time></trkpt><trkpt lat="45.3812708" lon="8.0072378"><ele>357.4</ele><time>2026-04-19T11:15:08.94Z</time></trkpt><trkpt lat="45.3812431" lon="8.0071098"><ele>357.6</ele><time>2026-04-19T11:15:09.941Z</time></trkpt><trkpt lat="45.3812282" lon="8.0069962"><ele>357.79999999999995</ele><time>2026-04-19T11:15:10.94Z</time></trkpt><trkpt lat="45.3811879" lon="8.0068896"><ele>358.0</ele><time>2026-04-19T11:15:11.941Z</time></trkpt><trkpt lat="45.3811354" lon="8.0067815"><ele>358.0</ele><time>2026-04-19T11:15:12.939Z</time></trkpt><trkpt lat="45.3810937" lon="8.0066911"><ele>358.0</ele><time>2026-04-19T11:15:13.939Z</time></trkpt><trkpt lat="45.3810567" lon="8.0066085"><ele>358.0</ele><time>2026-04-19T11:15:14.939Z</time></trkpt><trkpt lat="45.3810227" lon="8.0065091"><ele>358.0</ele><time>2026-04-19T11:15:15.939Z</time></trkpt><trkpt lat="45.3809985" lon="8.00639"><ele>358.0</ele><time>2026-04-19T11:15:16.939Z</time></trkpt><trkpt lat="45.3809714" lon="8.0062748"><ele>358.0</ele><time>2026-04-19T11:15:17.939Z</time></trkpt><trkpt lat="45.3809929" lon="8.0061408"><ele>358.59999999999997</ele><time>2026-04-19T11:15:18.939Z</time></trkpt><trkpt lat="45.3809969" lon="8.0060037"><ele>359.2</ele><time>2026-04-19T11:15:19.939Z</time></trkpt><trkpt lat="45.3810147" lon="8.0058445"><ele>359.8</ele><time>2026-04-19T11:15:20.939Z</time></trkpt><trkpt lat="45.3810397" lon="8.0056732"><ele>360.4</ele><time>2026-04-19T11:15:21.94Z</time></trkpt><trkpt lat="45.3810514" lon="8.0055236"><ele>361.0</ele><time>2026-04-19T11:15:22.939Z</time></trkpt><trkpt lat="45.3810472" lon="8.0053942"><ele>361.20000000000005</ele><time>2026-04-19T11:15:23.94Z</time></trkpt><trkpt lat="45.3810282" lon="8.0052662"><ele>361.40000000000003</ele><time>2026-04-19T11:15:24.939Z</time></trkpt><trkpt lat="45.3810154" lon="8.0051283"><ele>361.6</ele><time>2026-04-19T11:15:25.94Z</time></trkpt><trkpt lat="45.3810031" lon="8.0049743"><ele>361.8</ele><time>2026-04-19T11:15:26.939Z</time></trkpt><trkpt lat="45.3809905" lon="8.0048114"><ele>362.0</ele><time>2026-04-19T11:15:27.939Z</time></trkpt><trkpt lat="45.3809833" lon="8.0046441"><ele>362.25</ele><time>2026-04-19T11:15:28.939Z</time></trkpt><trkpt lat="45.3809765" lon="8.0044744"><ele>362.5</ele><time>2026-04-19T11:15:29.939Z</time></trkpt><trkpt lat="45.3809714" lon="8.0042961"><ele>362.75</ele><time>2026-04-19T11:15:30.939Z</time></trkpt><trkpt lat="45.3809644" lon="8.0041162"><ele>363.0</ele><time>2026-04-19T11:15:31.939Z</time></trkpt><trkpt lat="45.3809584" lon="8.0039455"><ele>364.0</ele><time>2026-04-19T11:15:32.939Z</time></trkpt><trkpt lat="45.3809615" lon="8.003777"><ele>365.0</ele><time>2026-04-19T11:15:33.939Z</time></trkpt><trkpt lat="45.380975" lon="8.0036065"><ele>366.0</ele><time>2026-04-19T11:15:34.939Z</time></trkpt><trkpt lat="45.3809799" lon="8.0034407"><ele>367.0</ele><time>2026-04-19T11:15:35.939Z</time></trkpt><trkpt lat="45.3809798" lon="8.0032844"><ele>367.6</ele><time>2026-04-19T11:15:36.94Z</time></trkpt><trkpt lat="45.380972" lon="8.0031517"><ele>368.20000000000005</ele><time>2026-04-19T11:15:37.94Z</time></trkpt><trkpt lat="45.380955" lon="8.0030422"><ele>368.8</ele><time>2026-04-19T11:15:38.939Z</time></trkpt><trkpt lat="45.3808819" lon="8.0029221"><ele>369.4</ele><time>2026-04-19T11:15:40.939Z</time></trkpt><trkpt lat="45.3808174" lon="8.0029218"><ele>370.0</ele><time>2026-04-19T11:15:41.94Z</time></trkpt><trkpt lat="45.3807101" lon="8.0028477"><ele>370.0</ele><time>2026-04-19T11:15:43.94Z</time></trkpt><trkpt lat="45.3806305" lon="8.0026555"><ele>370.0</ele><time>2026-04-19T11:15:45.94Z</time></trkpt><trkpt lat="45.3805901" lon="8.0025434"><ele>370.0</ele><time>2026-04-19T11:15:46.939Z</time></trkpt><trkpt lat="45.3805603" lon="8.0024244"><ele>370.0</ele><time>2026-04-19T11:15:47.94Z</time></trkpt><trkpt lat="45.3805318" lon="8.0023162"><ele>370.0</ele><time>2026-04-19T11:15:48.94Z</time></trkpt><trkpt lat="45.3805041" lon="8.0022049"><ele>369.8333333333333</ele><time>2026-04-19T11:15:49.939Z</time></trkpt><trkpt lat="45.3804806" lon="8.0020962"><ele>369.66666666666663</ele><time>2026-04-19T11:15:50.939Z</time></trkpt><trkpt lat="45.3804585" lon="8.0019845"><ele>369.5</ele><time>2026-04-19T11:15:51.939Z</time></trkpt><trkpt lat="45.3804293" lon="8.0018743"><ele>369.3333333333333</ele><time>2026-04-19T11:15:52.941Z</time></trkpt><trkpt lat="45.3803984" lon="8.0017567"><ele>369.1666666666667</ele><time>2026-04-19T11:15:53.939Z</time></trkpt><trkpt lat="45.3803717" lon="8.0016495"><ele>369.0</ele><time>2026-04-19T11:15:54.94Z</time></trkpt><trkpt lat="45.3803413" lon="8.0015417"><ele>369.5</ele><time>2026-04-19T11:15:55.94Z</time></trkpt><trkpt lat="45.3803175" lon="8.0014347"><ele>370.0</ele><time>2026-04-19T11:15:56.94Z</time></trkpt><trkpt lat="45.3802866" lon="8.0013195"><ele>370.5</ele><time>2026-04-19T11:15:57.94Z</time></trkpt><trkpt lat="45.3802553" lon="8.0012044"><ele>371.0</ele><time>2026-04-19T11:15:58.939Z</time></trkpt><trkpt lat="45.3802193" lon="8.0010917"><ele>371.5</ele><time>2026-04-19T11:15:59.939Z</time></trkpt><trkpt lat="45.3801794" lon="8.0009892"><ele>372.0</ele><time>2026-04-19T11:16:00.941Z</time></trkpt><trkpt lat="45.3801259" lon="8.0008768"><ele>372.0</ele><time>2026-04-19T11:16:01.94Z</time></trkpt><trkpt lat="45.3800909" lon="8.0007744"><ele>372.0</ele><time>2026-04-19T11:16:02.939Z</time></trkpt><trkpt lat="45.3800669" lon="8.0006646"><ele>372.0</ele><time>2026-04-19T11:16:03.939Z</time></trkpt><trkpt lat="45.3800565" lon="8.0005579"><ele>372.0</ele><time>2026-04-19T11:16:04.94Z</time></trkpt><trkpt lat="45.3800526" lon="8.0004313"><ele>372.0</ele><time>2026-04-19T11:16:05.941Z</time></trkpt><trkpt lat="45.3800571" lon="8.0003024"><ele>372.0</ele><time>2026-04-19T11:16:06.939Z</time></trkpt><trkpt lat="45.3800574" lon="8.0001691"><ele>372.0</ele><time>2026-04-19T11:16:07.941Z</time></trkpt><trkpt lat="45.3800635" lon="8.0000262"><ele>372.0</ele><time>2026-04-19T11:16:08.939Z</time></trkpt><trkpt lat="45.3800618" lon="7.9998902"><ele>372.0</ele><time>2026-04-19T11:16:09.939Z</time></trkpt><trkpt lat="45.3800496" lon="7.9997493"><ele>372.0</ele><time>2026-04-19T11:16:10.94Z</time></trkpt><trkpt lat="45.3800296" lon="7.9996076"><ele>372.0</ele><time>2026-04-19T11:16:11.939Z</time></trkpt><trkpt lat="45.3800015" lon="7.9994729"><ele>372.0</ele><time>2026-04-19T11:16:12.94Z</time></trkpt><trkpt lat="45.3799768" lon="7.999322"><ele>372.0</ele><time>2026-04-19T11:16:13.94Z</time></trkpt><trkpt lat="45.3799545" lon="7.9991728"><ele>372.0</ele><time>2026-04-19T11:16:14.94Z</time></trkpt><trkpt lat="45.3799339" lon="7.9990256"><ele>372.0</ele><time>2026-04-19T11:16:15.939Z</time></trkpt><trkpt lat="45.3799141" lon="7.9988953"><ele>372.0</ele><time>2026-04-19T11:16:16.94Z</time></trkpt><trkpt lat="45.3798887" lon="7.9987635"><ele>372.8</ele><time>2026-04-19T11:16:17.94Z</time></trkpt><trkpt lat="45.379866" lon="7.9986282"><ele>373.6</ele><time>2026-04-19T11:16:18.94Z</time></trkpt><trkpt lat="45.3798467" lon="7.9984889"><ele>374.40000000000003</ele><time>2026-04-19T11:16:19.94Z</time></trkpt><trkpt lat="45.3798278" lon="7.9983516"><ele>375.20000000000005</ele><time>2026-04-19T11:16:20.94Z</time></trkpt><trkpt lat="45.3798065" lon="7.9982147"><ele>376.0</ele><time>2026-04-19T11:16:21.939Z</time></trkpt><trkpt lat="45.3797768" lon="7.9980631"><ele>376.8</ele><time>2026-04-19T11:16:22.939Z</time></trkpt><trkpt lat="45.3797621" lon="7.9979147"><ele>377.6</ele><time>2026-04-19T11:16:23.941Z</time></trkpt><trkpt lat="45.3797506" lon="7.9977873"><ele>378.4</ele><time>2026-04-19T11:16:24.939Z</time></trkpt><trkpt lat="45.3797352" lon="7.9976584"><ele>379.2</ele><time>2026-04-19T11:16:25.94Z</time></trkpt><trkpt lat="45.3797223" lon="7.9975363"><ele>380.0</ele><time>2026-04-19T11:16:26.94Z</time></trkpt><trkpt lat="45.3797145" lon="7.9974285"><ele>380.7142857142857</ele><time>2026-04-19T11:16:27.939Z</time></trkpt><trkpt lat="45.3796999" lon="7.997315"><ele>381.42857142857144</ele><time>2026-04-19T11:16:28.94Z</time></trkpt><trkpt lat="45.3796831" lon="7.9972045"><ele>382.1428571428571</ele><time>2026-04-19T11:16:29.939Z</time></trkpt><trkpt lat="45.3796672" lon="7.9970957"><ele>382.8571428571429</ele><time>2026-04-19T11:16:30.939Z</time></trkpt><trkpt lat="45.3796463" lon="7.99701"><ele>383.57142857142856</ele><time>2026-04-19T11:16:31.939Z</time></trkpt><trkpt lat="45.3796242" lon="7.9969178"><ele>384.2857142857143</ele><time>2026-04-19T11:16:32.939Z</time></trkpt><trkpt lat="45.3796306" lon="7.9968269"><ele>385.0</ele><time>2026-04-19T11:16:33.94Z</time></trkpt><trkpt lat="45.3796425" lon="7.9967156"><ele>386.50000000000006</ele><time>2026-04-19T11:16:34.939Z</time></trkpt><trkpt lat="45.3796564" lon="7.9966244"><ele>388.0</ele><time>2026-04-19T11:16:35.94Z</time></trkpt><trkpt lat="45.3796643" lon="7.9965185"><ele>389.5</ele><time>2026-04-19T11:16:36.94Z</time></trkpt><trkpt lat="45.3796534" lon="7.9964085"><ele>391.0</ele><time>2026-04-19T11:16:37.94Z</time></trkpt><trkpt lat="45.3796333" lon="7.9962767"><ele>392.50000000000006</ele><time>2026-04-19T11:16:38.939Z</time></trkpt><trkpt lat="45.3796293" lon="7.9961576"><ele>394.0</ele><time>2026-04-19T11:16:39.939Z</time></trkpt><trkpt lat="45.3796144" lon="7.996055"><ele>394.00000000000006</ele><time>2026-04-19T11:16:40.94Z</time></trkpt><trkpt lat="45.3795937" lon="7.9959405"><ele>394.0</ele><time>2026-04-19T11:16:41.939Z</time></trkpt><trkpt lat="45.3795629" lon="7.9958393"><ele>394.0</ele><time>2026-04-19T11:16:42.941Z</time></trkpt><trkpt lat="45.3795074" lon="7.995763"><ele>394.0</ele><time>2026-04-19T11:16:43.939Z</time></trkpt><trkpt lat="45.3794677" lon="7.9956771"><ele>394.00000000000006</ele><time>2026-04-19T11:16:44.94Z</time></trkpt><trkpt lat="45.3794336" lon="7.9955935"><ele>394.0</ele><time>2026-04-19T11:16:45.94Z</time></trkpt><trkpt lat="45.3793897" lon="7.9955095"><ele>394.33333333333337</ele><time>2026-04-19T11:16:46.939Z</time></trkpt><trkpt lat="45.3794231" lon="7.9953965"><ele>394.6666666666667</ele><time>2026-04-19T11:16:47.939Z</time></trkpt><trkpt lat="45.3794145" lon="7.9953033"><ele>395.0</ele><time>2026-04-19T11:16:48.939Z</time></trkpt><trkpt lat="45.3794616" lon="7.9951793"><ele>395.33333333333337</ele><time>2026-04-19T11:16:49.939Z</time></trkpt><trkpt lat="45.3794758" lon="7.9950762"><ele>395.6666666666667</ele><time>2026-04-19T11:16:50.939Z</time></trkpt><trkpt lat="45.3794747" lon="7.9949631"><ele>396.0</ele><time>2026-04-19T11:16:51.94Z</time></trkpt><trkpt lat="45.3794864" lon="7.9948139"><ele>397.20000000000005</ele><time>2026-04-19T11:16:52.94Z</time></trkpt><trkpt lat="45.3794988" lon="7.9946916"><ele>398.40000000000003</ele><time>2026-04-19T11:16:53.941Z</time></trkpt><trkpt lat="45.3794958" lon="7.9945653"><ele>399.6</ele><time>2026-04-19T11:16:54.94Z</time></trkpt><trkpt lat="45.3794972" lon="7.9944161"><ele>400.8</ele><time>2026-04-19T11:16:55.939Z</time></trkpt><trkpt lat="45.379518" lon="7.9942607"><ele>402.0</ele><time>2026-04-19T11:16:56.94Z</time></trkpt><trkpt lat="45.3795297" lon="7.9941133"><ele>402.6666666666667</ele><time>2026-04-19T11:16:57.939Z</time></trkpt><trkpt lat="45.3795439" lon="7.9939835"><ele>403.33333333333337</ele><time>2026-04-19T11:16:58.939Z</time></trkpt><trkpt lat="45.3795594" lon="7.9938627"><ele>404.0</ele><time>2026-04-19T11:16:59.939Z</time></trkpt><trkpt lat="45.3795365" lon="7.9937544"><ele>404.6666666666667</ele><time>2026-04-19T11:17:00.94Z</time></trkpt><trkpt lat="45.379523" lon="7.9936573"><ele>405.33333333333337</ele><time>2026-04-19T11:17:01.94Z</time></trkpt><trkpt lat="45.3794917" lon="7.9935746"><ele>406.0</ele><time>2026-04-19T11:17:02.939Z</time></trkpt><trkpt lat="45.3794585" lon="7.9934717"><ele>406.25</ele><time>2026-04-19T11:17:03.939Z</time></trkpt><trkpt lat="45.3793967" lon="7.9933106"><ele>406.5</ele><time>2026-04-19T11:17:04.939Z</time></trkpt><trkpt lat="45.3793062" lon="7.9931443"><ele>406.75</ele><time>2026-04-19T11:17:05.941Z</time></trkpt><trkpt lat="45.3792487" lon="7.9929528"><ele>407.0</ele><time>2026-04-19T11:17:06.94Z</time></trkpt><trkpt lat="45.3791783" lon="7.9927642"><ele>407.0</ele><time>2026-04-19T11:17:07.94Z</time></trkpt><trkpt lat="45.3791266" lon="7.9925936"><ele>407.0</ele><time>2026-04-19T11:17:08.939Z</time></trkpt><trkpt lat="45.3790679" lon="7.9924317"><ele>407.0</ele><time>2026-04-19T11:17:09.94Z</time></trkpt><trkpt lat="45.3790141" lon="7.9922596"><ele>407.0</ele><time>2026-04-19T11:17:10.94Z</time></trkpt><trkpt lat="45.3789956" lon="7.9920803"><ele>407.40000000000003</ele><time>2026-04-19T11:17:11.94Z</time></trkpt><trkpt lat="45.3789551" lon="7.9919213"><ele>407.8</ele><time>2026-04-19T11:17:12.941Z</time></trkpt><trkpt lat="45.378921" lon="7.9917641"><ele>408.2</ele><time>2026-04-19T11:17:13.94Z</time></trkpt><trkpt lat="45.378866" lon="7.991656"><ele>408.6</ele><time>2026-04-19T11:17:14.939Z</time></trkpt><trkpt lat="45.3788273" lon="7.9915302"><ele>409.0</ele><time>2026-04-19T11:17:15.939Z</time></trkpt><trkpt lat="45.3787795" lon="7.9914103"><ele>409.4</ele><time>2026-04-19T11:17:16.939Z</time></trkpt><trkpt lat="45.3787252" lon="7.9912797"><ele>409.79999999999995</ele><time>2026-04-19T11:17:17.94Z</time></trkpt><trkpt lat="45.3786786" lon="7.9911749"><ele>410.20000000000005</ele><time>2026-04-19T11:17:18.94Z</time></trkpt><trkpt lat="45.3786297" lon="7.9910457"><ele>410.6</ele><time>2026-04-19T11:17:19.94Z</time></trkpt><trkpt lat="45.378567" lon="7.9909423"><ele>411.0</ele><time>2026-04-19T11:17:20.94Z</time></trkpt><trkpt lat="45.3784995" lon="7.9908449"><ele>409.4</ele><time>2026-04-19T11:17:21.939Z</time></trkpt><trkpt lat="45.3784419" lon="7.9907448"><ele>407.8</ele><time>2026-04-19T11:17:22.94Z</time></trkpt><trkpt lat="45.3783842" lon="7.9906484"><ele>406.2</ele><time>2026-04-19T11:17:23.94Z</time></trkpt><trkpt lat="45.3783105" lon="7.9905581"><ele>404.59999999999997</ele><time>2026-04-19T11:17:24.94Z</time></trkpt><trkpt lat="45.3782369" lon="7.9904662"><ele>403.0</ele><time>2026-04-19T11:17:25.94Z</time></trkpt><trkpt lat="45.3781686" lon="7.9904001"><ele>403.00000000000006</ele><time>2026-04-19T11:17:26.94Z</time></trkpt><trkpt lat="45.3780951" lon="7.9903593"><ele>403.0</ele><time>2026-04-19T11:17:27.94Z</time></trkpt><trkpt lat="45.3780064" lon="7.9903457"><ele>403.0</ele><time>2026-04-19T11:17:28.939Z</time></trkpt><trkpt lat="45.3779243" lon="7.9903495"><ele>403.0</ele><time>2026-04-19T11:17:29.939Z</time></trkpt><trkpt lat="45.3778489" lon="7.9903746"><ele>403.00000000000006</ele><time>2026-04-19T11:17:30.941Z</time></trkpt><trkpt lat="45.3777842" lon="7.9903944"><ele>403.0</ele><time>2026-04-19T11:17:31.939Z</time></trkpt><trkpt lat="45.3777215" lon="7.990416"><ele>403.00000000000006</ele><time>2026-04-19T11:17:32.94Z</time></trkpt><trkpt lat="45.377622" lon="7.9904564"><ele>403.0</ele><time>2026-04-19T11:17:34.939Z</time></trkpt><trkpt lat="45.3775597" lon="7.9904728"><ele>403.0</ele><time>2026-04-19T11:17:37.941Z</time></trkpt><trkpt lat="45.3774769" lon="7.9905115"><ele>403.0</ele><time>2026-04-19T11:18:05.938Z</time></trkpt><trkpt lat="45.3773948" lon="7.9906313"><ele>403.00000000000006</ele><time>2026-04-19T11:18:07.939Z</time></trkpt><trkpt lat="45.3773462" lon="7.9906914"><ele>403.0</ele><time>2026-04-19T11:18:08.94Z</time></trkpt><trkpt lat="45.3772484" lon="7.9907747"><ele>402.59999999999997</ele><time>2026-04-19T11:18:10.939Z</time></trkpt><trkpt lat="45.3771475" lon="7.9908528"><ele>402.2</ele><time>2026-04-19T11:18:12.939Z</time></trkpt><trkpt lat="45.3770887" lon="7.9909033"><ele>401.8</ele><time>2026-04-19T11:18:13.939Z</time></trkpt><trkpt lat="45.3769943" lon="7.9909798"><ele>401.4</ele><time>2026-04-19T11:18:15.939Z</time></trkpt><trkpt lat="45.3768851" lon="7.9910997"><ele>401.0</ele><time>2026-04-19T11:18:17.938Z</time></trkpt><trkpt lat="45.3768311" lon="7.991158"><ele>401.0</ele><time>2026-04-19T11:18:18.938Z</time></trkpt><trkpt lat="45.3767655" lon="7.9912217"><ele>401.0</ele><time>2026-04-19T11:18:19.938Z</time></trkpt><trkpt lat="45.376712" lon="7.9912848"><ele>401.0</ele><time>2026-04-19T11:18:20.939Z</time></trkpt><trkpt lat="45.3766602" lon="7.9913403"><ele>401.0</ele><time>2026-04-19T11:18:21.938Z</time></trkpt><trkpt lat="45.3766127" lon="7.9914066"><ele>401.0</ele><time>2026-04-19T11:18:22.939Z</time></trkpt><trkpt lat="45.3765575" lon="7.991482"><ele>401.0</ele><time>2026-04-19T11:18:23.938Z</time></trkpt><trkpt lat="45.3765051" lon="7.9915689"><ele>401.0</ele><time>2026-04-19T11:18:24.939Z</time></trkpt><trkpt lat="45.376455" lon="7.9916499"><ele>401.8333333333333</ele><time>2026-04-19T11:18:25.939Z</time></trkpt><trkpt lat="45.3764015" lon="7.9917368"><ele>402.66666666666663</ele><time>2026-04-19T11:18:26.939Z</time></trkpt><trkpt lat="45.3763506" lon="7.9918342"><ele>403.5</ele><time>2026-04-19T11:18:27.939Z</time></trkpt><trkpt lat="45.3763018" lon="7.991947"><ele>404.33333333333337</ele><time>2026-04-19T11:18:28.938Z</time></trkpt><trkpt lat="45.3762605" lon="7.9920377"><ele>405.1666666666667</ele><time>2026-04-19T11:18:29.938Z</time></trkpt><trkpt lat="45.3762175" lon="7.9921249"><ele>406.0</ele><time>2026-04-19T11:18:30.939Z</time></trkpt><trkpt lat="45.37618" lon="7.9922184"><ele>404.33333333333337</ele><time>2026-04-19T11:18:31.938Z</time></trkpt><trkpt lat="45.3761231" lon="7.9922978"><ele>402.6666666666667</ele><time>2026-04-19T11:18:32.939Z</time></trkpt><trkpt lat="45.3760834" lon="7.9923911"><ele>401.0</ele><time>2026-04-19T11:18:33.938Z</time></trkpt><trkpt lat="45.3760484" lon="7.9925119"><ele>399.33333333333337</ele><time>2026-04-19T11:18:34.938Z</time></trkpt><trkpt lat="45.3760098" lon="7.9926245"><ele>397.6666666666667</ele><time>2026-04-19T11:18:35.939Z</time></trkpt><trkpt lat="45.3759803" lon="7.992742"><ele>396.0</ele><time>2026-04-19T11:18:36.938Z</time></trkpt><trkpt lat="45.375945" lon="7.9928621"><ele>396.0</ele><time>2026-04-19T11:18:37.939Z</time></trkpt><trkpt lat="45.3759028" lon="7.9929757"><ele>396.0</ele><time>2026-04-19T11:18:38.938Z</time></trkpt><trkpt lat="45.3758684" lon="7.993094"><ele>396.0</ele><time>2026-04-19T11:18:39.939Z</time></trkpt><trkpt lat="45.3758328" lon="7.9932023"><ele>396.0</ele><time>2026-04-19T11:18:40.938Z</time></trkpt><trkpt lat="45.3757809" lon="7.9933079"><ele>396.0</ele><time>2026-04-19T11:18:41.938Z</time></trkpt><trkpt lat="45.3757482" lon="7.9933879"><ele>396.0</ele><time>2026-04-19T11:18:42.939Z</time></trkpt><trkpt lat="45.3756978" lon="7.9934621"><ele>397.1666666666667</ele><time>2026-04-19T11:18:43.938Z</time></trkpt><trkpt lat="45.3756463" lon="7.9935471"><ele>398.33333333333337</ele><time>2026-04-19T11:18:44.94Z</time></trkpt><trkpt lat="45.3756045" lon="7.9936328"><ele>399.5</ele><time>2026-04-19T11:18:45.938Z</time></trkpt><trkpt lat="45.3755555" lon="7.9937152"><ele>400.6666666666667</ele><time>2026-04-19T11:18:46.938Z</time></trkpt><trkpt lat="45.3755201" lon="7.9938113"><ele>401.83333333333337</ele><time>2026-04-19T11:18:47.938Z</time></trkpt><trkpt lat="45.3754934" lon="7.9939106"><ele>403.0</ele><time>2026-04-19T11:18:48.939Z</time></trkpt><trkpt lat="45.3754663" lon="7.9940152"><ele>401.6666666666667</ele><time>2026-04-19T11:18:49.939Z</time></trkpt><trkpt lat="45.375458" lon="7.9941322"><ele>400.33333333333337</ele><time>2026-04-19T11:18:50.938Z</time></trkpt><trkpt lat="45.3754333" lon="7.9942311"><ele>399.0</ele><time>2026-04-19T11:18:51.939Z</time></trkpt><trkpt lat="45.3753648" lon="7.9943426"><ele>397.66666666666663</ele><time>2026-04-19T11:18:52.939Z</time></trkpt><trkpt lat="45.3753273" lon="7.9944548"><ele>396.3333333333333</ele><time>2026-04-19T11:18:53.939Z</time></trkpt><trkpt lat="45.3752675" lon="7.994565"><ele>395.0</ele><time>2026-04-19T11:18:54.938Z</time></trkpt><trkpt lat="45.3752128" lon="7.9946436"><ele>395.0</ele><time>2026-04-19T11:18:55.938Z</time></trkpt><trkpt lat="45.3751587" lon="7.9947583"><ele>395.0</ele><time>2026-04-19T11:18:56.938Z</time></trkpt><trkpt lat="45.3751204" lon="7.9948768"><ele>395.0</ele><time>2026-04-19T11:18:57.939Z</time></trkpt><trkpt lat="45.3750778" lon="7.9949837"><ele>395.0</ele><time>2026-04-19T11:18:58.94Z</time></trkpt><trkpt lat="45.3750416" lon="7.9950942"><ele>395.0</ele><time>2026-04-19T11:18:59.939Z</time></trkpt><trkpt lat="45.3750073" lon="7.9952124"><ele>396.66666666666663</ele><time>2026-04-19T11:19:00.939Z</time></trkpt><trkpt lat="45.3749555" lon="7.9953074"><ele>398.3333333333333</ele><time>2026-04-19T11:19:01.938Z</time></trkpt><trkpt lat="45.3749053" lon="7.9954334"><ele>400.0</ele><time>2026-04-19T11:19:02.938Z</time></trkpt><trkpt lat="45.3748447" lon="7.9955434"><ele>401.66666666666663</ele><time>2026-04-19T11:19:03.938Z</time></trkpt><trkpt lat="45.3748143" lon="7.9956273"><ele>403.3333333333333</ele><time>2026-04-19T11:19:04.938Z</time></trkpt><trkpt lat="45.3747756" lon="7.9957124"><ele>405.0</ele><time>2026-04-19T11:19:05.939Z</time></trkpt><trkpt lat="45.3747692" lon="7.9958691"><ele>405.3333333333333</ele><time>2026-04-19T11:19:07.938Z</time></trkpt><trkpt lat="45.374755" lon="7.9959692"><ele>405.66666666666663</ele><time>2026-04-19T11:19:08.938Z</time></trkpt><trkpt lat="45.3747291" lon="7.9960848"><ele>406.0</ele><time>2026-04-19T11:19:09.938Z</time></trkpt><trkpt lat="45.3747077" lon="7.9961863"><ele>406.3333333333333</ele><time>2026-04-19T11:19:10.939Z</time></trkpt><trkpt lat="45.3746776" lon="7.9962912"><ele>406.66666666666663</ele><time>2026-04-19T11:19:11.939Z</time></trkpt><trkpt lat="45.3746407" lon="7.9963887"><ele>407.0</ele><time>2026-04-19T11:19:12.938Z</time></trkpt><trkpt lat="45.3746036" lon="7.996496"><ele>403.99999999999994</ele><time>2026-04-19T11:19:13.938Z</time></trkpt><trkpt lat="45.3745765" lon="7.9966227"><ele>401.0</ele><time>2026-04-19T11:19:14.939Z</time></trkpt><trkpt lat="45.374557" lon="7.9967221"><ele>398.0</ele><time>2026-04-19T11:19:15.938Z</time></trkpt><trkpt lat="45.3745239" lon="7.9968332"><ele>395.0</ele><time>2026-04-19T11:19:16.938Z</time></trkpt><trkpt lat="45.3744744" lon="7.9969554"><ele>391.99999999999994</ele><time>2026-04-19T11:19:17.938Z</time></trkpt><trkpt lat="45.374437" lon="7.9970778"><ele>389.0</ele><time>2026-04-19T11:19:18.938Z</time></trkpt><trkpt lat="45.3744112" lon="7.9971957"><ele>389.0</ele><time>2026-04-19T11:19:19.94Z</time></trkpt><trkpt lat="45.374329" lon="7.9973071"><ele>389.0</ele><time>2026-04-19T11:19:20.938Z</time></trkpt><trkpt lat="45.3742963" lon="7.9974291"><ele>389.0</ele><time>2026-04-19T11:19:21.938Z</time></trkpt><trkpt lat="45.3742346" lon="7.9975462"><ele>389.0</ele><time>2026-04-19T11:19:22.938Z</time></trkpt><trkpt lat="45.3741856" lon="7.9976776"><ele>389.0</ele><time>2026-04-19T11:19:23.939Z</time></trkpt><trkpt lat="45.3741386" lon="7.997789"><ele>389.0</ele><time>2026-04-19T11:19:24.938Z</time></trkpt><trkpt lat="45.3740879" lon="7.9979115"><ele>389.0</ele><time>2026-04-19T11:19:25.939Z</time></trkpt><trkpt lat="45.3740285" lon="7.9980364"><ele>389.0</ele><time>2026-04-19T11:19:26.938Z</time></trkpt><trkpt lat="45.3739796" lon="7.9981395"><ele>389.0</ele><time>2026-04-19T11:19:27.938Z</time></trkpt><trkpt lat="45.3739287" lon="7.9982726"><ele>389.0</ele><time>2026-04-19T11:19:28.938Z</time></trkpt><trkpt lat="45.3738877" lon="7.9983981"><ele>387.3333333333333</ele><time>2026-04-19T11:19:29.938Z</time></trkpt><trkpt lat="45.3738526" lon="7.9985037"><ele>385.66666666666663</ele><time>2026-04-19T11:19:30.939Z</time></trkpt><trkpt lat="45.373817" lon="7.9986025"><ele>384.0</ele><time>2026-04-19T11:19:31.938Z</time></trkpt><trkpt lat="45.3737769" lon="7.9987256"><ele>382.3333333333333</ele><time>2026-04-19T11:19:32.938Z</time></trkpt><trkpt lat="45.3737378" lon="7.9988475"><ele>380.66666666666663</ele><time>2026-04-19T11:19:33.938Z</time></trkpt><trkpt lat="45.3736956" lon="7.9989525"><ele>379.0</ele><time>2026-04-19T11:19:34.94Z</time></trkpt><trkpt lat="45.3736581" lon="7.9990694"><ele>379.2</ele><time>2026-04-19T11:19:35.939Z</time></trkpt><trkpt lat="45.3736019" lon="7.99919"><ele>379.4</ele><time>2026-04-19T11:19:36.939Z</time></trkpt><trkpt lat="45.3735585" lon="7.9992987"><ele>379.6</ele><time>2026-04-19T11:19:37.939Z</time></trkpt><trkpt lat="45.3735135" lon="7.9994217"><ele>379.8</ele><time>2026-04-19T11:19:38.939Z</time></trkpt><trkpt lat="45.3734736" lon="7.9995594"><ele>380.0</ele><time>2026-04-19T11:19:39.939Z</time></trkpt><trkpt lat="45.3734277" lon="7.9996825"><ele>380.0</ele><time>2026-04-19T11:19:40.939Z</time></trkpt><trkpt lat="45.3733833" lon="7.9997976"><ele>380.0</ele><time>2026-04-19T11:19:41.938Z</time></trkpt><trkpt lat="45.3733305" lon="7.9999037"><ele>380.0</ele><time>2026-04-19T11:19:42.939Z</time></trkpt><trkpt lat="45.3732797" lon="7.999966"><ele>380.0</ele><time>2026-04-19T11:19:43.939Z</time></trkpt><trkpt lat="45.3731947" lon="8.0000547"><ele>380.0</ele><time>2026-04-19T11:19:45.938Z</time></trkpt><trkpt lat="45.3731356" lon="8.0000989"><ele>380.0</ele><time>2026-04-19T11:19:48.938Z</time></trkpt><trkpt lat="45.3731011" lon="8.0001931"><ele>380.0</ele><time>2026-04-19T11:20:05.939Z</time></trkpt><trkpt lat="45.3731409" lon="8.0003515"><ele>380.0</ele><time>2026-04-19T11:20:07.939Z</time></trkpt><trkpt lat="45.3731678" lon="8.0004515"><ele>380.0</ele><time>2026-04-19T11:20:08.938Z</time></trkpt><trkpt lat="45.3731893" lon="8.0005515"><ele>380.0</ele><time>2026-04-19T11:20:09.938Z</time></trkpt><trkpt lat="45.3731791" lon="8.0006467"><ele>380.0</ele><time>2026-04-19T11:20:10.938Z</time></trkpt><trkpt lat="45.3731486" lon="8.0007474"><ele>380.0</ele><time>2026-04-19T11:20:11.938Z</time></trkpt><trkpt lat="45.3730994" lon="8.0008263"><ele>380.0</ele><time>2026-04-19T11:20:12.938Z</time></trkpt><trkpt lat="45.3730457" lon="8.0009307"><ele>380.0</ele><time>2026-04-19T11:20:13.938Z</time></trkpt><trkpt lat="45.3730111" lon="8.0010253"><ele>380.0</ele><time>2026-04-19T11:20:14.939Z</time></trkpt><trkpt lat="45.3729776" lon="8.0011249"><ele>380.0</ele><time>2026-04-19T11:20:15.939Z</time></trkpt><trkpt lat="45.372941" lon="8.0012365"><ele>380.0</ele><time>2026-04-19T11:20:16.939Z</time></trkpt><trkpt lat="45.372904" lon="8.0013256"><ele>380.0</ele><time>2026-04-19T11:20:17.938Z</time></trkpt><trkpt lat="45.3728519" lon="8.0014004"><ele>380.0</ele><time>2026-04-19T11:20:18.938Z</time></trkpt><trkpt lat="45.3727997" lon="8.0014719"><ele>380.0</ele><time>2026-04-19T11:20:19.939Z</time></trkpt><trkpt lat="45.3727463" lon="8.0015433"><ele>380.0</ele><time>2026-04-19T11:20:20.938Z</time></trkpt><trkpt lat="45.372719" lon="8.0016275"><ele>380.0</ele><time>2026-04-19T11:20:21.939Z</time></trkpt><trkpt lat="45.3726806" lon="8.0017152"><ele>380.0</ele><time>2026-04-19T11:20:22.94Z</time></trkpt><trkpt lat="45.3726418" lon="8.0018158"><ele>380.0</ele><time>2026-04-19T11:20:23.938Z</time></trkpt><trkpt lat="45.3726199" lon="8.0019116"><ele>380.0</ele><time>2026-04-19T11:20:24.938Z</time></trkpt><trkpt lat="45.3726054" lon="8.0020071"><ele>378.1666666666667</ele><time>2026-04-19T11:20:25.94Z</time></trkpt><trkpt lat="45.3726152" lon="8.0021032"><ele>376.33333333333337</ele><time>2026-04-19T11:20:26.938Z</time></trkpt><trkpt lat="45.3725743" lon="8.002255"><ele>374.5</ele><time>2026-04-19T11:20:28.939Z</time></trkpt><trkpt lat="45.3724903" lon="8.0023371"><ele>372.6666666666667</ele><time>2026-04-19T11:20:30.938Z</time></trkpt><trkpt lat="45.3724188" lon="8.0023399"><ele>370.8333333333333</ele><time>2026-04-19T11:20:31.938Z</time></trkpt><trkpt lat="45.3723587" lon="8.0023754"><ele>369.0</ele><time>2026-04-19T11:20:32.938Z</time></trkpt><trkpt lat="45.3723041" lon="8.0024256"><ele>369.0</ele><time>2026-04-19T11:20:33.938Z</time></trkpt><trkpt lat="45.3722601" lon="8.0024963"><ele>369.0</ele><time>2026-04-19T11:20:34.938Z</time></trkpt><trkpt lat="45.3722238" lon="8.0025768"><ele>369.0</ele><time>2026-04-19T11:20:35.938Z</time></trkpt><trkpt lat="45.3722008" lon="8.002672"><ele>369.0</ele><time>2026-04-19T11:20:36.938Z</time></trkpt><trkpt lat="45.3721888" lon="8.0027613"><ele>369.0</ele><time>2026-04-19T11:20:37.94Z</time></trkpt><trkpt lat="45.3721587" lon="8.0028552"><ele>369.0</ele><time>2026-04-19T11:20:38.939Z</time></trkpt><trkpt lat="45.3721245" lon="8.0029431"><ele>369.0</ele><time>2026-04-19T11:20:39.938Z</time></trkpt><trkpt lat="45.3720846" lon="8.0030254"><ele>369.1666666666667</ele><time>2026-04-19T11:20:40.939Z</time></trkpt><trkpt lat="45.3720091" lon="8.0031706"><ele>369.3333333333333</ele><time>2026-04-19T11:20:42.939Z</time></trkpt><trkpt lat="45.3719923" lon="8.0032654"><ele>369.5</ele><time>2026-04-19T11:20:43.938Z</time></trkpt><trkpt lat="45.3719694" lon="8.003354"><ele>369.66666666666663</ele><time>2026-04-19T11:20:44.94Z</time></trkpt><trkpt lat="45.371927" lon="8.0034369"><ele>369.8333333333333</ele><time>2026-04-19T11:20:45.939Z</time></trkpt><trkpt lat="45.3718841" lon="8.0035192"><ele>370.0</ele><time>2026-04-19T11:20:46.939Z</time></trkpt><trkpt lat="45.3718159" lon="8.0036136"><ele>368.3333333333333</ele><time>2026-04-19T11:20:47.939Z</time></trkpt><trkpt lat="45.3717607" lon="8.0036874"><ele>366.66666666666663</ele><time>2026-04-19T11:20:48.939Z</time></trkpt><trkpt lat="45.3717046" lon="8.0037681"><ele>365.0</ele><time>2026-04-19T11:20:49.939Z</time></trkpt><trkpt lat="45.3716535" lon="8.0038374"><ele>363.3333333333333</ele><time>2026-04-19T11:20:50.938Z</time></trkpt><trkpt lat="45.3715846" lon="8.0039036"><ele>361.6666666666667</ele><time>2026-04-19T11:20:51.939Z</time></trkpt><trkpt lat="45.3715135" lon="8.0039691"><ele>360.0</ele><time>2026-04-19T11:20:52.939Z</time></trkpt><trkpt lat="45.3714551" lon="8.0040493"><ele>360.0</ele><time>2026-04-19T11:20:53.938Z</time></trkpt><trkpt lat="45.3714" lon="8.0041238"><ele>360.0</ele><time>2026-04-19T11:20:54.939Z</time></trkpt><trkpt lat="45.3713164" lon="8.0042882"><ele>360.0</ele><time>2026-04-19T11:20:56.94Z</time></trkpt><trkpt lat="45.3712618" lon="8.0043733"><ele>360.0</ele><time>2026-04-19T11:20:57.938Z</time></trkpt><trkpt lat="45.3712183" lon="8.0044583"><ele>360.0</ele><time>2026-04-19T11:20:58.939Z</time></trkpt><trkpt lat="45.3711619" lon="8.004581"><ele>360.0</ele><time>2026-04-19T11:20:59.938Z</time></trkpt><trkpt lat="45.3711104" lon="8.0046768"><ele>360.0</ele><time>2026-04-19T11:21:00.939Z</time></trkpt><trkpt lat="45.3710453" lon="8.004774"><ele>360.0</ele><time>2026-04-19T11:21:01.938Z</time></trkpt><trkpt lat="45.3710196" lon="8.0048705"><ele>360.0</ele><time>2026-04-19T11:21:02.938Z</time></trkpt><trkpt lat="45.3709782" lon="8.004939"><ele>360.0</ele><time>2026-04-19T11:21:03.938Z</time></trkpt><trkpt lat="45.3709233" lon="8.0050427"><ele>360.0</ele><time>2026-04-19T11:21:04.938Z</time></trkpt><trkpt lat="45.370886" lon="8.0051313"><ele>358.3333333333333</ele><time>2026-04-19T11:21:05.938Z</time></trkpt><trkpt lat="45.3708414" lon="8.005226"><ele>356.6666666666667</ele><time>2026-04-19T11:21:06.938Z</time></trkpt><trkpt lat="45.3708042" lon="8.0053351"><ele>355.0</ele><time>2026-04-19T11:21:07.939Z</time></trkpt><trkpt lat="45.3707658" lon="8.0054402"><ele>353.33333333333337</ele><time>2026-04-19T11:21:08.938Z</time></trkpt><trkpt lat="45.3707329" lon="8.0055333"><ele>351.6666666666667</ele><time>2026-04-19T11:21:09.938Z</time></trkpt><trkpt lat="45.3707097" lon="8.0056211"><ele>350.0</ele><time>2026-04-19T11:21:10.939Z</time></trkpt><trkpt lat="45.3706996" lon="8.0057272"><ele>349.33333333333337</ele><time>2026-04-19T11:21:11.938Z</time></trkpt><trkpt lat="45.3706909" lon="8.0058305"><ele>348.6666666666667</ele><time>2026-04-19T11:21:12.939Z</time></trkpt><trkpt lat="45.3706712" lon="8.0059211"><ele>348.0</ele><time>2026-04-19T11:21:13.939Z</time></trkpt><trkpt lat="45.3706024" lon="8.0060736"><ele>347.3333333333333</ele><time>2026-04-19T11:21:15.939Z</time></trkpt><trkpt lat="45.3705351" lon="8.0061778"><ele>346.66666666666663</ele><time>2026-04-19T11:21:17.939Z</time></trkpt><trkpt lat="45.370478" lon="8.0062594"><ele>346.0</ele><time>2026-04-19T11:21:18.938Z</time></trkpt><trkpt lat="45.3704263" lon="8.0063516"><ele>347.0</ele><time>2026-04-19T11:21:19.938Z</time></trkpt><trkpt lat="45.3703976" lon="8.0064922"><ele>348.0</ele><time>2026-04-19T11:21:20.938Z</time></trkpt><trkpt lat="45.3703557" lon="8.0066008"><ele>349.0</ele><time>2026-04-19T11:21:21.938Z</time></trkpt><trkpt lat="45.3703149" lon="8.006741"><ele>350.0</ele><time>2026-04-19T11:21:22.938Z</time></trkpt><trkpt lat="45.3702663" lon="8.0068399"><ele>351.0</ele><time>2026-04-19T11:21:23.938Z</time></trkpt><trkpt lat="45.3702326" lon="8.0069458"><ele>351.0</ele><time>2026-04-19T11:21:24.94Z</time></trkpt><trkpt lat="45.370184" lon="8.0070353"><ele>351.0</ele><time>2026-04-19T11:21:25.938Z</time></trkpt><trkpt lat="45.3701341" lon="8.0071204"><ele>351.0</ele><time>2026-04-19T11:21:26.938Z</time></trkpt><trkpt lat="45.3700901" lon="8.0072088"><ele>351.0</ele><time>2026-04-19T11:21:27.939Z</time></trkpt><trkpt lat="45.3700392" lon="8.0072927"><ele>351.0</ele><time>2026-04-19T11:21:28.938Z</time></trkpt><trkpt lat="45.369979" lon="8.0073823"><ele>351.0</ele><time>2026-04-19T11:21:29.938Z</time></trkpt><trkpt lat="45.3698906" lon="8.0075159"><ele>350.1666666666667</ele><time>2026-04-19T11:21:31.938Z</time></trkpt><trkpt lat="45.36984" lon="8.0075794"><ele>349.3333333333333</ele><time>2026-04-19T11:21:32.939Z</time></trkpt><trkpt lat="45.3697674" lon="8.0076281"><ele>348.5</ele><time>2026-04-19T11:21:33.939Z</time></trkpt><trkpt lat="45.3696822" lon="8.0077058"><ele>347.66666666666663</ele><time>2026-04-19T11:21:34.939Z</time></trkpt><trkpt lat="45.3696077" lon="8.0077755"><ele>346.8333333333333</ele><time>2026-04-19T11:21:35.938Z</time></trkpt><trkpt lat="45.3695247" lon="8.0078521"><ele>346.0</ele><time>2026-04-19T11:21:36.938Z</time></trkpt><trkpt lat="45.369445" lon="8.0079406"><ele>345.8</ele><time>2026-04-19T11:21:37.938Z</time></trkpt><trkpt lat="45.3693822" lon="8.008046"><ele>345.6</ele><time>2026-04-19T11:21:38.938Z</time></trkpt><trkpt lat="45.3693119" lon="8.008155"><ele>345.4</ele><time>2026-04-19T11:21:39.938Z</time></trkpt><trkpt lat="45.3692438" lon="8.0082682"><ele>345.2</ele><time>2026-04-19T11:21:40.939Z</time></trkpt><trkpt lat="45.3691698" lon="8.0084005"><ele>345.0</ele><time>2026-04-19T11:21:41.939Z</time></trkpt><trkpt lat="45.3690888" lon="8.0085382"><ele>345.0</ele><time>2026-04-19T11:21:42.938Z</time></trkpt><trkpt lat="45.369018" lon="8.008663"><ele>345.0</ele><time>2026-04-19T11:21:43.938Z</time></trkpt><trkpt lat="45.3689523" lon="8.0087573"><ele>345.0</ele><time>2026-04-19T11:21:44.938Z</time></trkpt><trkpt lat="45.3688851" lon="8.008844"><ele>345.0</ele><time>2026-04-19T11:21:45.938Z</time></trkpt><trkpt lat="45.3688183" lon="8.0089457"><ele>345.0</ele><time>2026-04-19T11:21:46.939Z</time></trkpt><trkpt lat="45.3687532" lon="8.0090351"><ele>345.6666666666667</ele><time>2026-04-19T11:21:47.939Z</time></trkpt><trkpt lat="45.3686625" lon="8.0090925"><ele>346.3333333333333</ele><time>2026-04-19T11:21:48.94Z</time></trkpt><trkpt lat="45.3685865" lon="8.0091539"><ele>347.0</ele><time>2026-04-19T11:21:49.939Z</time></trkpt><trkpt lat="45.3685227" lon="8.0091974"><ele>347.66666666666663</ele><time>2026-04-19T11:21:50.939Z</time></trkpt><trkpt lat="45.3684562" lon="8.0092427"><ele>348.3333333333333</ele><time>2026-04-19T11:21:51.938Z</time></trkpt><trkpt lat="45.3683887" lon="8.00922"><ele>349.0</ele><time>2026-04-19T11:21:53.94Z</time></trkpt><trkpt lat="45.3682979" lon="8.0091531"><ele>349.0</ele><time>2026-04-19T11:22:00.938Z</time></trkpt><trkpt lat="45.3682254" lon="8.0090797"><ele>349.0</ele><time>2026-04-19T11:22:02.938Z</time></trkpt><trkpt lat="45.3681612" lon="8.0090419"><ele>349.0</ele><time>2026-04-19T11:22:03.938Z</time></trkpt><trkpt lat="45.3680906" lon="8.0090315"><ele>349.0</ele><time>2026-04-19T11:22:06.938Z</time></trkpt><trkpt lat="45.3680742" lon="8.0091514"><ele>349.0</ele><time>2026-04-19T11:22:09.938Z</time></trkpt><trkpt lat="45.3680278" lon="8.0092291"><ele>349.0</ele><time>2026-04-19T11:22:22.939Z</time></trkpt><trkpt lat="45.3679854" lon="8.0093057"><ele>349.0</ele><time>2026-04-19T11:22:31.939Z</time></trkpt><trkpt lat="45.3679221" lon="8.0093441"><ele>349.0</ele><time>2026-04-19T11:49:10.932Z</time></trkpt><trkpt lat="45.3678817" lon="8.0094284"><ele>349.0</ele><time>2026-04-19T11:49:13.932Z</time></trkpt><trkpt lat="45.3678446" lon="8.0095875"><ele>349.0</ele><time>2026-04-19T11:49:15.932Z</time></trkpt><trkpt lat="45.367844" lon="8.0097046"><ele>349.0</ele><time>2026-04-19T11:49:16.932Z</time></trkpt><trkpt lat="45.3678294" lon="8.0098585"><ele>347.3333333333333</ele><time>2026-04-19T11:49:17.933Z</time></trkpt><trkpt lat="45.3678249" lon="8.0099926"><ele>345.66666666666663</ele><time>2026-04-19T11:49:18.932Z</time></trkpt><trkpt lat="45.3678222" lon="8.010105"><ele>344.0</ele><time>2026-04-19T11:49:19.932Z</time></trkpt><trkpt lat="45.3678517" lon="8.0102392"><ele>342.3333333333333</ele><time>2026-04-19T11:49:20.933Z</time></trkpt><trkpt lat="45.3678088" lon="8.0103135"><ele>340.6666666666667</ele><time>2026-04-19T11:49:21.934Z</time></trkpt><trkpt lat="45.3677388" lon="8.0104287"><ele>339.0</ele><time>2026-04-19T11:49:22.933Z</time></trkpt><trkpt lat="45.3676944" lon="8.0105178"><ele>339.0</ele><time>2026-04-19T11:49:23.933Z</time></trkpt><trkpt lat="45.3676199" lon="8.0106139"><ele>339.0</ele><time>2026-04-19T11:49:24.934Z</time></trkpt><trkpt lat="45.3675597" lon="8.0106871"><ele>339.0</ele><time>2026-04-19T11:49:25.932Z</time></trkpt><trkpt lat="45.3674554" lon="8.0107557"><ele>339.0</ele><time>2026-04-19T11:49:26.933Z</time></trkpt><trkpt lat="45.3673465" lon="8.0108207"><ele>339.0</ele><time>2026-04-19T11:49:27.932Z</time></trkpt><trkpt lat="45.3672177" lon="8.0108658"><ele>337.6</ele><time>2026-04-19T11:49:28.933Z</time></trkpt><trkpt lat="45.3670955" lon="8.0108942"><ele>336.2</ele><time>2026-04-19T11:49:29.933Z</time></trkpt><trkpt lat="45.3669949" lon="8.0109431"><ele>334.8</ele><time>2026-04-19T11:49:30.932Z</time></trkpt><trkpt lat="45.3669091" lon="8.0110148"><ele>333.40000000000003</ele><time>2026-04-19T11:49:31.932Z</time></trkpt><trkpt lat="45.3668174" lon="8.0110987"><ele>332.0</ele><time>2026-04-19T11:49:32.933Z</time></trkpt><trkpt lat="45.366771" lon="8.0111749"><ele>332.0</ele><time>2026-04-19T11:49:33.933Z</time></trkpt><trkpt lat="45.3667161" lon="8.0112612"><ele>332.0</ele><time>2026-04-19T11:49:34.933Z</time></trkpt><trkpt lat="45.3667192" lon="8.0114314"><ele>332.0</ele><time>2026-04-19T11:49:35.932Z</time></trkpt><trkpt lat="45.3666983" lon="8.0115588"><ele>332.0</ele><time>2026-04-19T11:49:36.933Z</time></trkpt><trkpt lat="45.3666566" lon="8.0116468"><ele>332.0</ele><time>2026-04-19T11:49:37.932Z</time></trkpt><trkpt lat="45.3665392" lon="8.011765"><ele>332.20000000000005</ele><time>2026-04-19T11:49:39.932Z</time></trkpt><trkpt lat="45.3664006" lon="8.011839"><ele>332.4</ele><time>2026-04-19T11:49:40.933Z</time></trkpt><trkpt lat="45.3662952" lon="8.0118652"><ele>332.6</ele><time>2026-04-19T11:49:41.934Z</time></trkpt><trkpt lat="45.3661869" lon="8.0118869"><ele>332.79999999999995</ele><time>2026-04-19T11:49:43.933Z</time></trkpt><trkpt lat="45.3661072" lon="8.0119018"><ele>333.0</ele><time>2026-04-19T11:50:02.932Z</time></trkpt><trkpt lat="45.3659841" lon="8.0120264"><ele>333.0</ele><time>2026-04-19T11:50:05.933Z</time></trkpt><trkpt lat="45.3659355" lon="8.0121082"><ele>333.0</ele><time>2026-04-19T11:50:06.932Z</time></trkpt><trkpt lat="45.365853" lon="8.012167"><ele>333.0</ele><time>2026-04-19T11:50:07.934Z</time></trkpt><trkpt lat="45.3657195" lon="8.0122173"><ele>333.0</ele><time>2026-04-19T11:50:08.933Z</time></trkpt><trkpt lat="45.365602" lon="8.0122492"><ele>333.0</ele><time>2026-04-19T11:50:09.933Z</time></trkpt><trkpt lat="45.3654833" lon="8.0122972"><ele>332.3333333333333</ele><time>2026-04-19T11:50:10.933Z</time></trkpt><trkpt lat="45.3654183" lon="8.0123665"><ele>331.6666666666667</ele><time>2026-04-19T11:50:11.933Z</time></trkpt><trkpt lat="45.3653595" lon="8.0124291"><ele>331.0</ele><time>2026-04-19T11:50:12.932Z</time></trkpt><trkpt lat="45.3652954" lon="8.0125066"><ele>330.33333333333337</ele><time>2026-04-19T11:50:13.934Z</time></trkpt><trkpt lat="45.3652558" lon="8.0125966"><ele>329.6666666666667</ele><time>2026-04-19T11:50:14.933Z</time></trkpt><trkpt lat="45.3652275" lon="8.012707"><ele>329.0</ele><time>2026-04-19T11:50:15.932Z</time></trkpt><trkpt lat="45.3652113" lon="8.0128155"><ele>329.0</ele><time>2026-04-19T11:50:16.933Z</time></trkpt><trkpt lat="45.3651854" lon="8.0129272"><ele>329.0</ele><time>2026-04-19T11:50:17.932Z</time></trkpt><trkpt lat="45.3651285" lon="8.0131287"><ele>329.0</ele><time>2026-04-19T11:50:19.932Z</time></trkpt><trkpt lat="45.3650238" lon="8.0132113"><ele>329.0</ele><time>2026-04-19T11:50:21.932Z</time></trkpt><trkpt lat="45.3649625" lon="8.013255"><ele>329.0</ele><time>2026-04-19T11:50:22.933Z</time></trkpt><trkpt lat="45.3648789" lon="8.0132672"><ele>329.0</ele><time>2026-04-19T11:50:23.933Z</time></trkpt><trkpt lat="45.3647577" lon="8.0132681"><ele>329.0</ele><time>2026-04-19T11:50:25.933Z</time></trkpt><trkpt lat="45.3646737" lon="8.0132999"><ele>329.0</ele><time>2026-04-19T11:50:26.932Z</time></trkpt><trkpt lat="45.3646012" lon="8.0133515"><ele>329.0</ele><time>2026-04-19T11:50:27.932Z</time></trkpt><trkpt lat="45.3645508" lon="8.013459"><ele>329.0</ele><time>2026-04-19T11:50:28.933Z</time></trkpt><trkpt lat="45.3645181" lon="8.0135386"><ele>329.0</ele><time>2026-04-19T11:50:29.932Z</time></trkpt><trkpt lat="45.3644697" lon="8.01361"><ele>327.83333333333337</ele><time>2026-04-19T11:50:30.932Z</time></trkpt><trkpt lat="45.3644158" lon="8.0136818"><ele>326.6666666666667</ele><time>2026-04-19T11:50:31.933Z</time></trkpt><trkpt lat="45.3643515" lon="8.0137376"><ele>325.5</ele><time>2026-04-19T11:50:32.932Z</time></trkpt><trkpt lat="45.3642613" lon="8.0137783"><ele>324.3333333333333</ele><time>2026-04-19T11:50:33.933Z</time></trkpt><trkpt lat="45.364183" lon="8.0138236"><ele>323.16666666666663</ele><time>2026-04-19T11:50:34.932Z</time></trkpt><trkpt lat="45.3641027" lon="8.0138628"><ele>322.0</ele><time>2026-04-19T11:50:35.933Z</time></trkpt><trkpt lat="45.3640294" lon="8.0139094"><ele>322.0</ele><time>2026-04-19T11:50:36.934Z</time></trkpt><trkpt lat="45.3639554" lon="8.0139394"><ele>322.0</ele><time>2026-04-19T11:50:37.932Z</time></trkpt><trkpt lat="45.3638622" lon="8.0139691"><ele>322.0</ele><time>2026-04-19T11:50:38.932Z</time></trkpt><trkpt lat="45.3637662" lon="8.013991"><ele>322.0</ele><time>2026-04-19T11:50:39.933Z</time></trkpt><trkpt lat="45.3636513" lon="8.0140178"><ele>322.0</ele><time>2026-04-19T11:50:40.932Z</time></trkpt><trkpt lat="45.3635486" lon="8.0140449"><ele>323.6</ele><time>2026-04-19T11:50:41.933Z</time></trkpt><trkpt lat="45.3634419" lon="8.0140739"><ele>325.20000000000005</ele><time>2026-04-19T11:50:42.933Z</time></trkpt><trkpt lat="45.3633291" lon="8.0140972"><ele>326.8</ele><time>2026-04-19T11:50:43.932Z</time></trkpt><trkpt lat="45.3632263" lon="8.0141132"><ele>328.4</ele><time>2026-04-19T11:50:44.933Z</time></trkpt><trkpt lat="45.3631202" lon="8.014136"><ele>330.0</ele><time>2026-04-19T11:50:45.932Z</time></trkpt><trkpt lat="45.3629993" lon="8.0141497"><ele>330.75</ele><time>2026-04-19T11:50:46.933Z</time></trkpt><trkpt lat="45.3628784" lon="8.0141545"><ele>331.5</ele><time>2026-04-19T11:50:47.932Z</time></trkpt><trkpt lat="45.3627527" lon="8.0141572"><ele>332.25</ele><time>2026-04-19T11:50:48.933Z</time></trkpt><trkpt lat="45.3626246" lon="8.0141697"><ele>333.0</ele><time>2026-04-19T11:50:49.932Z</time></trkpt><trkpt lat="45.3625126" lon="8.0141903"><ele>330.0</ele><time>2026-04-19T11:50:50.932Z</time></trkpt><trkpt lat="45.3623994" lon="8.014224"><ele>327.0</ele><time>2026-04-19T11:50:51.932Z</time></trkpt><trkpt lat="45.3622847" lon="8.0142498"><ele>324.0</ele><time>2026-04-19T11:50:52.933Z</time></trkpt><trkpt lat="45.3621741" lon="8.014271"><ele>321.0</ele><time>2026-04-19T11:50:53.933Z</time></trkpt><trkpt lat="45.3620697" lon="8.0142832"><ele>318.0</ele><time>2026-04-19T11:50:54.932Z</time></trkpt><trkpt lat="45.3619743" lon="8.0142908"><ele>318.0</ele><time>2026-04-19T11:50:55.932Z</time></trkpt><trkpt lat="45.3618816" lon="8.0143062"><ele>318.0</ele><time>2026-04-19T11:50:56.932Z</time></trkpt><trkpt lat="45.361781" lon="8.0143291"><ele>318.0</ele><time>2026-04-19T11:50:57.934Z</time></trkpt><trkpt lat="45.3616951" lon="8.0143541"><ele>318.0</ele><time>2026-04-19T11:50:58.932Z</time></trkpt><trkpt lat="45.3615933" lon="8.0143719"><ele>318.0</ele><time>2026-04-19T11:50:59.933Z</time></trkpt><trkpt lat="45.361497" lon="8.0144098"><ele>318.0</ele><time>2026-04-19T11:51:00.933Z</time></trkpt><trkpt lat="45.3614035" lon="8.0144608"><ele>318.0</ele><time>2026-04-19T11:51:01.932Z</time></trkpt><trkpt lat="45.3613057" lon="8.0145234"><ele>318.0</ele><time>2026-04-19T11:51:02.933Z</time></trkpt><trkpt lat="45.3612184" lon="8.0145725"><ele>318.0</ele><time>2026-04-19T11:51:03.933Z</time></trkpt><trkpt lat="45.3611336" lon="8.0146237"><ele>318.0</ele><time>2026-04-19T11:51:04.932Z</time></trkpt><trkpt lat="45.3610383" lon="8.0146822"><ele>316.6</ele><time>2026-04-19T11:51:05.933Z</time></trkpt><trkpt lat="45.360961" lon="8.0147599"><ele>315.20000000000005</ele><time>2026-04-19T11:51:06.932Z</time></trkpt><trkpt lat="45.3608911" lon="8.0148308"><ele>313.8</ele><time>2026-04-19T11:51:07.932Z</time></trkpt><trkpt lat="45.3608189" lon="8.0149106"><ele>312.40000000000003</ele><time>2026-04-19T11:51:08.932Z</time></trkpt><trkpt lat="45.3607458" lon="8.0149875"><ele>311.0</ele><time>2026-04-19T11:51:09.934Z</time></trkpt><trkpt lat="45.3606535" lon="8.0150781"><ele>311.0</ele><time>2026-04-19T11:51:10.932Z</time></trkpt><trkpt lat="45.3605688" lon="8.0151624"><ele>311.0</ele><time>2026-04-19T11:51:11.933Z</time></trkpt><trkpt lat="45.3604562" lon="8.015234"><ele>311.0</ele><time>2026-04-19T11:51:12.932Z</time></trkpt><trkpt lat="45.3603489" lon="8.0153076"><ele>311.0</ele><time>2026-04-19T11:51:13.933Z</time></trkpt><trkpt lat="45.3602312" lon="8.0153783"><ele>313.5</ele><time>2026-04-19T11:51:14.932Z</time></trkpt><trkpt lat="45.3601197" lon="8.0154281"><ele>316.0</ele><time>2026-04-19T11:51:15.932Z</time></trkpt><trkpt lat="45.3600111" lon="8.0154433"><ele>318.5</ele><time>2026-04-19T11:51:16.933Z</time></trkpt><trkpt lat="45.3598857" lon="8.0154595"><ele>321.0</ele><time>2026-04-19T11:51:17.932Z</time></trkpt><trkpt lat="45.3597707" lon="8.0154728"><ele>322.20000000000005</ele><time>2026-04-19T11:51:18.933Z</time></trkpt><trkpt lat="45.3596677" lon="8.0154963"><ele>323.40000000000003</ele><time>2026-04-19T11:51:19.933Z</time></trkpt><trkpt lat="45.3595722" lon="8.0155405"><ele>324.6</ele><time>2026-04-19T11:51:20.933Z</time></trkpt><trkpt lat="45.3594741" lon="8.015591"><ele>325.8</ele><time>2026-04-19T11:51:21.932Z</time></trkpt><trkpt lat="45.3593536" lon="8.0156637"><ele>327.0</ele><time>2026-04-19T11:51:22.933Z</time></trkpt><trkpt lat="45.3592458" lon="8.0157209"><ele>327.0</ele><time>2026-04-19T11:51:23.932Z</time></trkpt><trkpt lat="45.3591317" lon="8.0157795"><ele>327.0</ele><time>2026-04-19T11:51:24.932Z</time></trkpt><trkpt lat="45.3590332" lon="8.0158237"><ele>327.0</ele><time>2026-04-19T11:51:25.932Z</time></trkpt><trkpt lat="45.3589419" lon="8.0158741"><ele>327.0</ele><time>2026-04-19T11:51:26.932Z</time></trkpt><trkpt lat="45.3588536" lon="8.0159113"><ele>327.0</ele><time>2026-04-19T11:51:27.932Z</time></trkpt><trkpt lat="45.3587547" lon="8.0159569"><ele>326.40000000000003</ele><time>2026-04-19T11:51:28.933Z</time></trkpt><trkpt lat="45.3586544" lon="8.0160171"><ele>325.8</ele><time>2026-04-19T11:51:29.933Z</time></trkpt><trkpt lat="45.3585755" lon="8.0160765"><ele>325.2</ele><time>2026-04-19T11:51:30.932Z</time></trkpt><trkpt lat="45.3584855" lon="8.0161474"><ele>324.6</ele><time>2026-04-19T11:51:31.933Z</time></trkpt><trkpt lat="45.3583853" lon="8.0162255"><ele>324.0</ele><time>2026-04-19T11:51:32.933Z</time></trkpt><trkpt lat="45.3583062" lon="8.0162815"><ele>324.0</ele><time>2026-04-19T11:51:33.932Z</time></trkpt><trkpt lat="45.3582095" lon="8.0163516"><ele>324.0</ele><time>2026-04-19T11:51:34.932Z</time></trkpt><trkpt lat="45.3581327" lon="8.0164375"><ele>324.0</ele><time>2026-04-19T11:51:35.933Z</time></trkpt><trkpt lat="45.3580344" lon="8.0165399"><ele>324.0</ele><time>2026-04-19T11:51:36.933Z</time></trkpt><trkpt lat="45.3579494" lon="8.0166479"><ele>324.0</ele><time>2026-04-19T11:51:37.933Z</time></trkpt><trkpt lat="45.3578698" lon="8.0167384"><ele>321.2</ele><time>2026-04-19T11:51:38.932Z</time></trkpt><trkpt lat="45.3577615" lon="8.0168004"><ele>318.4</ele><time>2026-04-19T11:51:39.932Z</time></trkpt><trkpt lat="45.3576668" lon="8.0168414"><ele>315.6</ele><time>2026-04-19T11:51:40.933Z</time></trkpt><trkpt lat="45.3575522" lon="8.0168633"><ele>312.8</ele><time>2026-04-19T11:51:41.933Z</time></trkpt><trkpt lat="45.357455" lon="8.0168855"><ele>310.0</ele><time>2026-04-19T11:51:42.933Z</time></trkpt><trkpt lat="45.3573562" lon="8.016914"><ele>310.0</ele><time>2026-04-19T11:51:43.932Z</time></trkpt><trkpt lat="45.3572584" lon="8.0169523"><ele>310.0</ele><time>2026-04-19T11:51:44.932Z</time></trkpt><trkpt lat="45.3571644" lon="8.0169946"><ele>310.0</ele><time>2026-04-19T11:51:45.933Z</time></trkpt><trkpt lat="45.3570604" lon="8.0170263"><ele>310.0</ele><time>2026-04-19T11:51:46.933Z</time></trkpt><trkpt lat="45.3569426" lon="8.0170617"><ele>310.0</ele><time>2026-04-19T11:51:47.932Z</time></trkpt><trkpt lat="45.3568346" lon="8.0170865"><ele>310.25</ele><time>2026-04-19T11:51:48.933Z</time></trkpt><trkpt lat="45.3567183" lon="8.0171225"><ele>310.5</ele><time>2026-04-19T11:51:49.934Z</time></trkpt><trkpt lat="45.3565924" lon="8.0171749"><ele>310.75</ele><time>2026-04-19T11:51:50.932Z</time></trkpt><trkpt lat="45.3564792" lon="8.0172029"><ele>311.0</ele><time>2026-04-19T11:51:51.932Z</time></trkpt><trkpt lat="45.3563548" lon="8.0172388"><ele>311.0</ele><time>2026-04-19T11:51:52.934Z</time></trkpt><trkpt lat="45.3562403" lon="8.0172593"><ele>311.0</ele><time>2026-04-19T11:51:53.933Z</time></trkpt><trkpt lat="45.356121" lon="8.0172738"><ele>311.0</ele><time>2026-04-19T11:51:54.932Z</time></trkpt><trkpt lat="45.3560052" lon="8.0172775"><ele>311.0</ele><time>2026-04-19T11:51:55.932Z</time></trkpt><trkpt lat="45.3558914" lon="8.0172874"><ele>311.0</ele><time>2026-04-19T11:51:56.932Z</time></trkpt><trkpt lat="45.3557861" lon="8.0172868"><ele>311.0</ele><time>2026-04-19T11:51:57.933Z</time></trkpt><trkpt lat="45.3556667" lon="8.0172781"><ele>311.0</ele><time>2026-04-19T11:51:58.932Z</time></trkpt><trkpt lat="45.3555512" lon="8.0172623"><ele>311.0</ele><time>2026-04-19T11:51:59.932Z</time></trkpt><trkpt lat="45.3554405" lon="8.017243"><ele>310.2</ele><time>2026-04-19T11:52:00.933Z</time></trkpt><trkpt lat="45.3553319" lon="8.0172099"><ele>309.40000000000003</ele><time>2026-04-19T11:52:01.932Z</time></trkpt><trkpt lat="45.3552561" lon="8.0171767"><ele>308.6</ele><time>2026-04-19T11:52:02.933Z</time></trkpt><trkpt lat="45.3551712" lon="8.0171452"><ele>307.8</ele><time>2026-04-19T11:52:03.932Z</time></trkpt><trkpt lat="45.3550657" lon="8.0170948"><ele>307.0</ele><time>2026-04-19T11:52:04.933Z</time></trkpt><trkpt lat="45.3549659" lon="8.0170483"><ele>307.0</ele><time>2026-04-19T11:52:05.933Z</time></trkpt><trkpt lat="45.3548907" lon="8.0169832"><ele>307.0</ele><time>2026-04-19T11:52:06.932Z</time></trkpt><trkpt lat="45.3548091" lon="8.0169136"><ele>307.0</ele><time>2026-04-19T11:52:07.933Z</time></trkpt><trkpt lat="45.3547098" lon="8.0168099"><ele>307.0</ele><time>2026-04-19T11:52:08.932Z</time></trkpt><trkpt lat="45.3546403" lon="8.016723"><ele>307.0</ele><time>2026-04-19T11:52:09.933Z</time></trkpt><trkpt lat="45.3545541" lon="8.0166326"><ele>307.2</ele><time>2026-04-19T11:52:10.933Z</time></trkpt><trkpt lat="45.3544817" lon="8.0165517"><ele>307.4</ele><time>2026-04-19T11:52:11.932Z</time></trkpt><trkpt lat="45.3544118" lon="8.0164702"><ele>307.6</ele><time>2026-04-19T11:52:12.934Z</time></trkpt><trkpt lat="45.3543286" lon="8.0163935"><ele>307.8</ele><time>2026-04-19T11:52:13.932Z</time></trkpt><trkpt lat="45.3542566" lon="8.0163192"><ele>308.0</ele><time>2026-04-19T11:52:14.932Z</time></trkpt><trkpt lat="45.3541742" lon="8.0162541"><ele>308.0</ele><time>2026-04-19T11:52:15.932Z</time></trkpt><trkpt lat="45.3540953" lon="8.0161958"><ele>308.0</ele><time>2026-04-19T11:52:16.933Z</time></trkpt><trkpt lat="45.3540056" lon="8.0161607"><ele>308.0</ele><time>2026-04-19T11:52:17.932Z</time></trkpt><trkpt lat="45.3539225" lon="8.0161235"><ele>308.0</ele><time>2026-04-19T11:52:18.933Z</time></trkpt><trkpt lat="45.3538103" lon="8.0160755"><ele>308.0</ele><time>2026-04-19T11:52:19.933Z</time></trkpt><trkpt lat="45.3537089" lon="8.0160467"><ele>305.25</ele><time>2026-04-19T11:52:20.932Z</time></trkpt><trkpt lat="45.3535808" lon="8.0160269"><ele>302.5</ele><time>2026-04-19T11:52:21.933Z</time></trkpt><trkpt lat="45.3534707" lon="8.0160069"><ele>299.75</ele><time>2026-04-19T11:52:22.932Z</time></trkpt><trkpt lat="45.3533459" lon="8.0159711"><ele>297.0</ele><time>2026-04-19T11:52:23.933Z</time></trkpt><trkpt lat="45.3532215" lon="8.015943"><ele>297.0</ele><time>2026-04-19T11:52:24.933Z</time></trkpt><trkpt lat="45.353094" lon="8.0159125"><ele>297.0</ele><time>2026-04-19T11:52:25.931Z</time></trkpt><trkpt lat="45.3529616" lon="8.0158871"><ele>297.0</ele><time>2026-04-19T11:52:26.932Z</time></trkpt><trkpt lat="45.3528341" lon="8.0158621"><ele>297.0</ele><time>2026-04-19T11:52:27.932Z</time></trkpt><trkpt lat="45.3527172" lon="8.0158377"><ele>298.0</ele><time>2026-04-19T11:52:28.931Z</time></trkpt><trkpt lat="45.3526023" lon="8.0158104"><ele>299.0</ele><time>2026-04-19T11:52:29.932Z</time></trkpt><trkpt lat="45.352497" lon="8.0157646"><ele>300.0</ele><time>2026-04-19T11:52:30.931Z</time></trkpt><trkpt lat="45.3523881" lon="8.015701"><ele>301.0</ele><time>2026-04-19T11:52:31.931Z</time></trkpt><trkpt lat="45.3522787" lon="8.015629"><ele>299.25</ele><time>2026-04-19T11:52:32.931Z</time></trkpt><trkpt lat="45.3521644" lon="8.0155727"><ele>297.5</ele><time>2026-04-19T11:52:33.932Z</time></trkpt><trkpt lat="45.3520486" lon="8.0155284"><ele>295.75</ele><time>2026-04-19T11:52:34.931Z</time></trkpt><trkpt lat="45.3519293" lon="8.0154867"><ele>294.0</ele><time>2026-04-19T11:52:35.931Z</time></trkpt><trkpt lat="45.3518197" lon="8.0154572"><ele>294.0</ele><time>2026-04-19T11:52:36.931Z</time></trkpt><trkpt lat="45.3517118" lon="8.0154294"><ele>294.0</ele><time>2026-04-19T11:52:37.933Z</time></trkpt><trkpt lat="45.3515989" lon="8.015406"><ele>294.0</ele><time>2026-04-19T11:52:38.931Z</time></trkpt><trkpt lat="45.3514837" lon="8.0153943"><ele>294.0</ele><time>2026-04-19T11:52:39.931Z</time></trkpt><trkpt lat="45.3513629" lon="8.0153899"><ele>293.0</ele><time>2026-04-19T11:52:40.932Z</time></trkpt><trkpt lat="45.3512395" lon="8.0153992"><ele>292.0</ele><time>2026-04-19T11:52:41.932Z</time></trkpt><trkpt lat="45.351113" lon="8.0154104"><ele>291.0</ele><time>2026-04-19T11:52:42.931Z</time></trkpt><trkpt lat="45.3509827" lon="8.0154226"><ele>290.0</ele><time>2026-04-19T11:52:43.931Z</time></trkpt><trkpt lat="45.3508637" lon="8.0154273"><ele>290.0</ele><time>2026-04-19T11:52:44.931Z</time></trkpt><trkpt lat="45.3507473" lon="8.0154256"><ele>290.0</ele><time>2026-04-19T11:52:45.932Z</time></trkpt><trkpt lat="45.3506353" lon="8.0153957"><ele>290.0</ele><time>2026-04-19T11:52:46.931Z</time></trkpt><trkpt lat="45.350521" lon="8.0153525"><ele>290.0</ele><time>2026-04-19T11:52:47.932Z</time></trkpt><trkpt lat="45.3504164" lon="8.0153151"><ele>289.75</ele><time>2026-04-19T11:52:48.933Z</time></trkpt><trkpt lat="45.3503088" lon="8.0152765"><ele>289.5</ele><time>2026-04-19T11:52:49.931Z</time></trkpt><trkpt lat="45.3502012" lon="8.0152524"><ele>289.25</ele><time>2026-04-19T11:52:50.931Z</time></trkpt><trkpt lat="45.3500878" lon="8.0152435"><ele>289.0</ele><time>2026-04-19T11:52:51.932Z</time></trkpt><trkpt lat="45.3499706" lon="8.0152405"><ele>289.0</ele><time>2026-04-19T11:52:52.931Z</time></trkpt><trkpt lat="45.3498559" lon="8.0152268"><ele>289.0</ele><time>2026-04-19T11:52:53.931Z</time></trkpt><trkpt lat="45.3497437" lon="8.0152167"><ele>289.0</ele><time>2026-04-19T11:52:54.932Z</time></trkpt><trkpt lat="45.3496259" lon="8.0152074"><ele>289.0</ele><time>2026-04-19T11:52:55.932Z</time></trkpt><trkpt lat="45.3495054" lon="8.0151987"><ele>289.25</ele><time>2026-04-19T11:52:56.931Z</time></trkpt><trkpt lat="45.3493874" lon="8.0151944"><ele>289.5</ele><time>2026-04-19T11:52:57.931Z</time></trkpt><trkpt lat="45.3492692" lon="8.0151885"><ele>289.75</ele><time>2026-04-19T11:52:58.931Z</time></trkpt><trkpt lat="45.3491448" lon="8.015185"><ele>290.0</ele><time>2026-04-19T11:52:59.933Z</time></trkpt><trkpt lat="45.3490177" lon="8.0151841"><ele>290.0</ele><time>2026-04-19T11:53:00.931Z</time></trkpt><trkpt lat="45.3488908" lon="8.0151932"><ele>290.0</ele><time>2026-04-19T11:53:01.931Z</time></trkpt><trkpt lat="45.3487563" lon="8.0152134"><ele>290.0</ele><time>2026-04-19T11:53:02.933Z</time></trkpt><trkpt lat="45.3486322" lon="8.0152336"><ele>290.0</ele><time>2026-04-19T11:53:03.932Z</time></trkpt><trkpt lat="45.3485243" lon="8.01527"><ele>290.0</ele><time>2026-04-19T11:53:04.931Z</time></trkpt><trkpt lat="45.3484212" lon="8.015292"><ele>290.0</ele><time>2026-04-19T11:53:05.932Z</time></trkpt><trkpt lat="45.3483321" lon="8.0152942"><ele>290.0</ele><time>2026-04-19T11:53:06.932Z</time></trkpt><trkpt lat="45.3482648" lon="8.0152924"><ele>290.0</ele><time>2026-04-19T11:53:07.932Z</time></trkpt><trkpt lat="45.3481856" lon="8.0152985"><ele>290.0</ele><time>2026-04-19T11:53:09.931Z</time></trkpt><trkpt lat="45.3481943" lon="8.0153909"><ele>290.0</ele><time>2026-04-19T11:53:12.931Z</time></trkpt><trkpt lat="45.3482652" lon="8.0154567"><ele>290.0</ele><time>2026-04-19T11:53:15.931Z</time></trkpt><trkpt lat="45.3483274" lon="8.015491"><ele>290.0</ele><time>2026-04-19T11:53:22.932Z</time></trkpt><trkpt lat="45.3484014" lon="8.0155787"><ele>290.0</ele><time>2026-04-19T11:53:31.931Z</time></trkpt><trkpt lat="45.3484782" lon="8.0156495"><ele>290.0</ele><time>2026-04-19T11:53:32.931Z</time></trkpt><trkpt lat="45.348573" lon="8.01574"><ele>290.0</ele><time>2026-04-19T11:53:33.931Z</time></trkpt><trkpt lat="45.3486899" lon="8.0158362"><ele>287.33333333333337</ele><time>2026-04-19T11:53:34.931Z</time></trkpt><trkpt lat="45.348835" lon="8.015981"><ele>284.6666666666667</ele><time>2026-04-19T11:53:35.931Z</time></trkpt><trkpt lat="45.3489676" lon="8.0161205"><ele>282.0</ele><time>2026-04-19T11:53:36.931Z</time></trkpt><trkpt lat="45.3490862" lon="8.0162429"><ele>282.0</ele><time>2026-04-19T11:53:37.931Z</time></trkpt><trkpt lat="45.3492053" lon="8.0163625"><ele>282.0</ele><time>2026-04-19T11:53:38.933Z</time></trkpt><trkpt lat="45.3493267" lon="8.0164896"><ele>282.0</ele><time>2026-04-19T11:53:39.932Z</time></trkpt><trkpt lat="45.3494428" lon="8.0166067"><ele>282.0</ele><time>2026-04-19T11:53:40.932Z</time></trkpt><trkpt lat="45.3495532" lon="8.0167255"><ele>282.0</ele><time>2026-04-19T11:53:41.933Z</time></trkpt><trkpt lat="45.3496624" lon="8.0168464"><ele>282.0</ele><time>2026-04-19T11:53:42.932Z</time></trkpt><trkpt lat="45.3497739" lon="8.0169686"><ele>282.0</ele><time>2026-04-19T11:53:43.933Z</time></trkpt><trkpt lat="45.3498825" lon="8.0170917"><ele>282.0</ele><time>2026-04-19T11:53:44.932Z</time></trkpt><trkpt lat="45.3499915" lon="8.0172145"><ele>282.0</ele><time>2026-04-19T11:53:45.931Z</time></trkpt><trkpt lat="45.3501042" lon="8.0173376"><ele>282.0</ele><time>2026-04-19T11:53:46.931Z</time></trkpt><trkpt lat="45.3502196" lon="8.0174606"><ele>282.0</ele><time>2026-04-19T11:53:47.932Z</time></trkpt><trkpt lat="45.350339" lon="8.017575"><ele>282.0</ele><time>2026-04-19T11:53:48.931Z</time></trkpt><trkpt lat="45.3504661" lon="8.0176833"><ele>283.0</ele><time>2026-04-19T11:53:49.932Z</time></trkpt><trkpt lat="45.3506014" lon="8.0177899"><ele>284.0</ele><time>2026-04-19T11:53:50.931Z</time></trkpt><trkpt lat="45.3507453" lon="8.0178906"><ele>285.0</ele><time>2026-04-19T11:53:51.931Z</time></trkpt><trkpt lat="45.3508941" lon="8.0180005"><ele>285.0</ele><time>2026-04-19T11:53:52.931Z</time></trkpt><trkpt lat="45.3510314" lon="8.0181045"><ele>285.0</ele><time>2026-04-19T11:53:53.932Z</time></trkpt><trkpt lat="45.3511562" lon="8.0182044"><ele>285.0</ele><time>2026-04-19T11:53:54.932Z</time></trkpt><trkpt lat="45.3512797" lon="8.0183066"><ele>285.0</ele><time>2026-04-19T11:53:55.931Z</time></trkpt><trkpt lat="45.3513675" lon="8.0183898"><ele>285.8333333333333</ele><time>2026-04-19T11:53:56.931Z</time></trkpt><trkpt lat="45.3514372" lon="8.0184487"><ele>286.6666666666667</ele><time>2026-04-19T11:53:57.932Z</time></trkpt><trkpt lat="45.3515098" lon="8.0185177"><ele>287.5</ele><time>2026-04-19T11:53:59.931Z</time></trkpt><trkpt lat="45.3515601" lon="8.0185981"><ele>288.33333333333337</ele><time>2026-04-19T11:54:04.931Z</time></trkpt><trkpt lat="45.3516095" lon="8.0186693"><ele>289.1666666666667</ele><time>2026-04-19T11:54:06.932Z</time></trkpt><trkpt lat="45.3516621" lon="8.0187457"><ele>290.0</ele><time>2026-04-19T11:54:08.932Z</time></trkpt><trkpt lat="45.3517207" lon="8.018823"><ele>290.0</ele><time>2026-04-19T11:54:10.931Z</time></trkpt><trkpt lat="45.3517783" lon="8.0189043"><ele>290.0</ele><time>2026-04-19T11:54:13.932Z</time></trkpt><trkpt lat="45.3518303" lon="8.0189894"><ele>290.0</ele><time>2026-04-19T11:54:16.932Z</time></trkpt><trkpt lat="45.3518837" lon="8.0190709"><ele>290.0</ele><time>2026-04-19T11:54:19.932Z</time></trkpt><trkpt lat="45.3519472" lon="8.0191533"><ele>290.0</ele><time>2026-04-19T11:54:22.931Z</time></trkpt><trkpt lat="45.3520007" lon="8.0192397"><ele>290.0</ele><time>2026-04-19T11:54:24.931Z</time></trkpt><trkpt lat="45.3520461" lon="8.0193332"><ele>291.0</ele><time>2026-04-19T11:54:25.931Z</time></trkpt><trkpt lat="45.3521132" lon="8.0194885"><ele>292.0</ele><time>2026-04-19T11:54:27.931Z</time></trkpt><trkpt lat="45.3521553" lon="8.0196071"><ele>293.0</ele><time>2026-04-19T11:54:29.931Z</time></trkpt><trkpt lat="45.352185" lon="8.0197541"><ele>294.0</ele><time>2026-04-19T11:54:31.933Z</time></trkpt><trkpt lat="45.3522259" lon="8.019944"><ele>294.5</ele><time>2026-04-19T11:54:33.932Z</time></trkpt><trkpt lat="45.352245" lon="8.0200591"><ele>295.0</ele><time>2026-04-19T11:54:34.931Z</time></trkpt><trkpt lat="45.3522635" lon="8.0201726"><ele>295.5</ele><time>2026-04-19T11:54:35.931Z</time></trkpt><trkpt lat="45.3522881" lon="8.0202752"><ele>296.0</ele><time>2026-04-19T11:54:36.931Z</time></trkpt><trkpt lat="45.3523244" lon="8.0203811"><ele>296.5</ele><time>2026-04-19T11:54:37.932Z</time></trkpt><trkpt lat="45.3523643" lon="8.0204911"><ele>297.0</ele><time>2026-04-19T11:54:38.932Z</time></trkpt><trkpt lat="45.352426" lon="8.0205934"><ele>297.0</ele><time>2026-04-19T11:54:39.931Z</time></trkpt><trkpt lat="45.352469" lon="8.0206951"><ele>297.0</ele><time>2026-04-19T11:54:40.931Z</time></trkpt><trkpt lat="45.3525084" lon="8.0208135"><ele>297.0</ele><time>2026-04-19T11:54:41.932Z</time></trkpt><trkpt lat="45.3525427" lon="8.0209458"><ele>297.0</ele><time>2026-04-19T11:54:42.932Z</time></trkpt><trkpt lat="45.3525694" lon="8.0210785"><ele>297.0</ele><time>2026-04-19T11:54:43.931Z</time></trkpt><trkpt lat="45.3525895" lon="8.0211972"><ele>296.6666666666667</ele><time>2026-04-19T11:54:44.932Z</time></trkpt><trkpt lat="45.3526042" lon="8.0213146"><ele>296.3333333333333</ele><time>2026-04-19T11:54:45.931Z</time></trkpt><trkpt lat="45.3526222" lon="8.0214201"><ele>296.0</ele><time>2026-04-19T11:54:46.932Z</time></trkpt><trkpt lat="45.3526601" lon="8.0215232"><ele>295.66666666666663</ele><time>2026-04-19T11:54:47.932Z</time></trkpt><trkpt lat="45.3527199" lon="8.02161"><ele>295.3333333333333</ele><time>2026-04-19T11:54:48.932Z</time></trkpt><trkpt lat="45.3528071" lon="8.0216862"><ele>295.0</ele><time>2026-04-19T11:54:49.933Z</time></trkpt><trkpt lat="45.3529068" lon="8.0217546"><ele>295.0</ele><time>2026-04-19T11:54:50.932Z</time></trkpt><trkpt lat="45.3530046" lon="8.0218305"><ele>295.0</ele><time>2026-04-19T11:54:51.931Z</time></trkpt><trkpt lat="45.3530927" lon="8.0219266"><ele>295.0</ele><time>2026-04-19T11:54:52.931Z</time></trkpt><trkpt lat="45.3531683" lon="8.0220439"><ele>295.0</ele><time>2026-04-19T11:54:53.933Z</time></trkpt><trkpt lat="45.353243" lon="8.022176"><ele>293.5</ele><time>2026-04-19T11:54:54.931Z</time></trkpt><trkpt lat="45.3533218" lon="8.0223062"><ele>292.0</ele><time>2026-04-19T11:54:55.931Z</time></trkpt><trkpt lat="45.3534036" lon="8.0224225"><ele>290.5</ele><time>2026-04-19T11:54:56.931Z</time></trkpt><trkpt lat="45.3534939" lon="8.022527"><ele>289.0</ele><time>2026-04-19T11:54:57.931Z</time></trkpt><trkpt lat="45.3535915" lon="8.0226073"><ele>289.2</ele><time>2026-04-19T11:54:58.933Z</time></trkpt><trkpt lat="45.3536816" lon="8.0226751"><ele>289.4</ele><time>2026-04-19T11:54:59.932Z</time></trkpt><trkpt lat="45.3537666" lon="8.0227401"><ele>289.6</ele><time>2026-04-19T11:55:00.931Z</time></trkpt><trkpt lat="45.3538525" lon="8.0228053"><ele>289.8</ele><time>2026-04-19T11:55:01.932Z</time></trkpt><trkpt lat="45.3539385" lon="8.0228829"><ele>290.0</ele><time>2026-04-19T11:55:02.931Z</time></trkpt><trkpt lat="45.3540178" lon="8.0229622"><ele>290.0</ele><time>2026-04-19T11:55:03.932Z</time></trkpt><trkpt lat="45.354088" lon="8.0230265"><ele>290.0</ele><time>2026-04-19T11:55:04.931Z</time></trkpt><trkpt lat="45.3541545" lon="8.0230409"><ele>290.0</ele><time>2026-04-19T11:55:05.931Z</time></trkpt><trkpt lat="45.3542186" lon="8.0230085"><ele>290.0</ele><time>2026-04-19T11:55:06.931Z</time></trkpt><trkpt lat="45.3542796" lon="8.0229188"><ele>290.0</ele><time>2026-04-19T11:55:07.931Z</time></trkpt><trkpt lat="45.3543331" lon="8.0228162"><ele>290.0</ele><time>2026-04-19T11:55:08.931Z</time></trkpt><trkpt lat="45.3543984" lon="8.0227556"><ele>290.0</ele><time>2026-04-19T11:55:09.932Z</time></trkpt><trkpt lat="45.3544585" lon="8.0227017"><ele>290.0</ele><time>2026-04-19T11:55:10.931Z</time></trkpt><trkpt lat="45.3545355" lon="8.0226692"><ele>290.0</ele><time>2026-04-19T11:55:11.932Z</time></trkpt><trkpt lat="45.3546359" lon="8.0226952"><ele>290.0</ele><time>2026-04-19T11:55:12.932Z</time></trkpt><trkpt lat="45.3547226" lon="8.0227605"><ele>290.0</ele><time>2026-04-19T11:55:13.932Z</time></trkpt><trkpt lat="45.3548166" lon="8.0227871"><ele>290.0</ele><time>2026-04-19T11:55:14.932Z</time></trkpt><trkpt lat="45.3549095" lon="8.0228152"><ele>290.6</ele><time>2026-04-19T11:55:15.932Z</time></trkpt><trkpt lat="45.3549973" lon="8.0228534"><ele>291.2</ele><time>2026-04-19T11:55:16.933Z</time></trkpt><trkpt lat="45.3550946" lon="8.0228953"><ele>291.8</ele><time>2026-04-19T11:55:17.932Z</time></trkpt><trkpt lat="45.3551803" lon="8.0229453"><ele>292.4</ele><time>2026-04-19T11:55:18.931Z</time></trkpt><trkpt lat="45.3552244" lon="8.0230738"><ele>293.0</ele><time>2026-04-19T11:55:19.931Z</time></trkpt><trkpt lat="45.3552749" lon="8.0231778"><ele>293.0</ele><time>2026-04-19T11:55:20.932Z</time></trkpt><trkpt lat="45.3553292" lon="8.0232923"><ele>293.0</ele><time>2026-04-19T11:55:21.931Z</time></trkpt><trkpt lat="45.3553689" lon="8.0234401"><ele>293.0</ele><time>2026-04-19T11:55:22.931Z</time></trkpt><trkpt lat="45.3553832" lon="8.0236254"><ele>293.0</ele><time>2026-04-19T11:55:23.931Z</time></trkpt><trkpt lat="45.3554198" lon="8.0237736"><ele>292.2</ele><time>2026-04-19T11:55:24.931Z</time></trkpt><trkpt lat="45.3554454" lon="8.0239178"><ele>291.4</ele><time>2026-04-19T11:55:25.932Z</time></trkpt><trkpt lat="45.3554734" lon="8.0240576"><ele>290.59999999999997</ele><time>2026-04-19T11:55:26.933Z</time></trkpt><trkpt lat="45.3555082" lon="8.0241743"><ele>289.8</ele><time>2026-04-19T11:55:27.933Z</time></trkpt><trkpt lat="45.3555453" lon="8.0242585"><ele>289.0</ele><time>2026-04-19T11:55:28.931Z</time></trkpt><trkpt lat="45.3556492" lon="8.0243045"><ele>289.0</ele><time>2026-04-19T11:55:30.932Z</time></trkpt><trkpt lat="45.355711" lon="8.0242799"><ele>289.0</ele><time>2026-04-19T11:55:31.932Z</time></trkpt><trkpt lat="45.355774" lon="8.0242508"><ele>289.0</ele><time>2026-04-19T11:55:32.931Z</time></trkpt><trkpt lat="45.3558509" lon="8.0241829"><ele>289.0</ele><time>2026-04-19T11:55:33.932Z</time></trkpt><trkpt lat="45.3559252" lon="8.0241323"><ele>289.0</ele><time>2026-04-19T11:55:34.931Z</time></trkpt><trkpt lat="45.3560021" lon="8.0240887"><ele>289.0</ele><time>2026-04-19T11:55:35.932Z</time></trkpt><trkpt lat="45.3561263" lon="8.0240996"><ele>289.0</ele><time>2026-04-19T11:55:37.931Z</time></trkpt><trkpt lat="45.3562066" lon="8.0241416"><ele>289.0</ele><time>2026-04-19T11:55:39.933Z</time></trkpt><trkpt lat="45.3562643" lon="8.024203"><ele>289.0</ele><time>2026-04-19T11:56:37.931Z</time></trkpt><trkpt lat="45.3563179" lon="8.0243501"><ele>289.0</ele><time>2026-04-19T11:56:40.933Z</time></trkpt><trkpt lat="45.3563476" lon="8.02446"><ele>289.0</ele><time>2026-04-19T11:56:41.931Z</time></trkpt><trkpt lat="45.3563892" lon="8.0245918"><ele>289.2</ele><time>2026-04-19T11:56:42.931Z</time></trkpt><trkpt lat="45.3564313" lon="8.024725"><ele>289.4</ele><time>2026-04-19T11:56:43.932Z</time></trkpt><trkpt lat="45.3564888" lon="8.0248596"><ele>289.6</ele><time>2026-04-19T11:56:44.931Z</time></trkpt><trkpt lat="45.3565221" lon="8.0249567"><ele>289.8</ele><time>2026-04-19T11:56:45.932Z</time></trkpt><trkpt lat="45.3565561" lon="8.0250697"><ele>290.0</ele><time>2026-04-19T11:56:46.931Z</time></trkpt><trkpt lat="45.3565894" lon="8.0252254"><ele>289.6</ele><time>2026-04-19T11:56:47.931Z</time></trkpt><trkpt lat="45.3566147" lon="8.025347"><ele>289.2</ele><time>2026-04-19T11:56:48.931Z</time></trkpt><trkpt lat="45.3566199" lon="8.0255188"><ele>288.8</ele><time>2026-04-19T11:56:49.932Z</time></trkpt><trkpt lat="45.3565985" lon="8.0256538"><ele>288.4</ele><time>2026-04-19T11:56:50.931Z</time></trkpt><trkpt lat="45.3565819" lon="8.0257871"><ele>288.0</ele><time>2026-04-19T11:56:51.932Z</time></trkpt><trkpt lat="45.3565816" lon="8.0259376"><ele>288.0</ele><time>2026-04-19T11:56:52.932Z</time></trkpt><trkpt lat="45.3565914" lon="8.0260784"><ele>288.0</ele><time>2026-04-19T11:56:53.931Z</time></trkpt><trkpt lat="45.356595" lon="8.0262134"><ele>288.0</ele><time>2026-04-19T11:56:54.932Z</time></trkpt><trkpt lat="45.3565993" lon="8.0263485"><ele>288.0</ele><time>2026-04-19T11:56:55.931Z</time></trkpt><trkpt lat="45.3566088" lon="8.0264725"><ele>288.0</ele><time>2026-04-19T11:56:56.932Z</time></trkpt><trkpt lat="45.3566033" lon="8.0266391"><ele>287.6</ele><time>2026-04-19T11:56:57.931Z</time></trkpt><trkpt lat="45.3566054" lon="8.0267929"><ele>287.20000000000005</ele><time>2026-04-19T11:56:58.932Z</time></trkpt><trkpt lat="45.3565878" lon="8.02695"><ele>286.8</ele><time>2026-04-19T11:56:59.931Z</time></trkpt><trkpt lat="45.3565743" lon="8.0270866"><ele>286.40000000000003</ele><time>2026-04-19T11:57:00.931Z</time></trkpt><trkpt lat="45.356566" lon="8.0272077"><ele>286.0</ele><time>2026-04-19T11:57:01.931Z</time></trkpt><trkpt lat="45.3565835" lon="8.0273461"><ele>286.0</ele><time>2026-04-19T11:57:02.931Z</time></trkpt><trkpt lat="45.3566101" lon="8.0274698"><ele>286.0</ele><time>2026-04-19T11:57:03.931Z</time></trkpt><trkpt lat="45.3566544" lon="8.0275994"><ele>286.0</ele><time>2026-04-19T11:57:04.931Z</time></trkpt><trkpt lat="45.3567167" lon="8.0277066"><ele>286.0</ele><time>2026-04-19T11:57:05.931Z</time></trkpt><trkpt lat="45.356774" lon="8.0278138"><ele>286.0</ele><time>2026-04-19T11:57:06.932Z</time></trkpt><trkpt lat="45.3568187" lon="8.0279334"><ele>285.2</ele><time>2026-04-19T11:57:07.932Z</time></trkpt><trkpt lat="45.3568481" lon="8.0280655"><ele>284.40000000000003</ele><time>2026-04-19T11:57:08.933Z</time></trkpt><trkpt lat="45.3568491" lon="8.0282175"><ele>283.6</ele><time>2026-04-19T11:57:09.931Z</time></trkpt><trkpt lat="45.3568337" lon="8.0283748"><ele>282.8</ele><time>2026-04-19T11:57:10.931Z</time></trkpt><trkpt lat="45.3568262" lon="8.028522"><ele>282.0</ele><time>2026-04-19T11:57:11.931Z</time></trkpt><trkpt lat="45.3568359" lon="8.0286628"><ele>281.0</ele><time>2026-04-19T11:57:12.931Z</time></trkpt><trkpt lat="45.3568532" lon="8.0288095"><ele>280.0</ele><time>2026-04-19T11:57:13.932Z</time></trkpt><trkpt lat="45.356875" lon="8.0289506"><ele>279.0</ele><time>2026-04-19T11:57:14.931Z</time></trkpt><trkpt lat="45.3569288" lon="8.0290751"><ele>278.0</ele><time>2026-04-19T11:57:15.932Z</time></trkpt><trkpt lat="45.3569811" lon="8.0292132"><ele>277.0</ele><time>2026-04-19T11:57:16.932Z</time></trkpt><trkpt lat="45.3570643" lon="8.0292989"><ele>276.3333333333333</ele><time>2026-04-19T11:57:17.931Z</time></trkpt><trkpt lat="45.3571238" lon="8.0294109"><ele>275.66666666666663</ele><time>2026-04-19T11:57:18.932Z</time></trkpt><trkpt lat="45.3571949" lon="8.0294882"><ele>275.0</ele><time>2026-04-19T11:57:19.931Z</time></trkpt><trkpt lat="45.3572172" lon="8.0295996"><ele>274.3333333333333</ele><time>2026-04-19T11:57:20.932Z</time></trkpt><trkpt lat="45.3572547" lon="8.0297169"><ele>273.6666666666667</ele><time>2026-04-19T11:57:21.932Z</time></trkpt><trkpt lat="45.3573065" lon="8.0298109"><ele>273.0</ele><time>2026-04-19T11:57:22.932Z</time></trkpt><trkpt lat="45.3573755" lon="8.0298882"><ele>272.8</ele><time>2026-04-19T11:57:23.932Z</time></trkpt><trkpt lat="45.3574543" lon="8.0299498"><ele>272.6</ele><time>2026-04-19T11:57:24.932Z</time></trkpt><trkpt lat="45.3575316" lon="8.0300063"><ele>272.4</ele><time>2026-04-19T11:57:25.932Z</time></trkpt><trkpt lat="45.357622" lon="8.0300832"><ele>272.2</ele><time>2026-04-19T11:57:26.932Z</time></trkpt><trkpt lat="45.3576973" lon="8.0301634"><ele>272.0</ele><time>2026-04-19T11:57:27.931Z</time></trkpt><trkpt lat="45.3577642" lon="8.0302443"><ele>271.25</ele><time>2026-04-19T11:57:28.931Z</time></trkpt><trkpt lat="45.3578172" lon="8.030357"><ele>270.5</ele><time>2026-04-19T11:57:29.932Z</time></trkpt><trkpt lat="45.3578529" lon="8.0305046"><ele>269.75</ele><time>2026-04-19T11:57:30.932Z</time></trkpt><trkpt lat="45.3579091" lon="8.0306787"><ele>269.0</ele><time>2026-04-19T11:57:31.932Z</time></trkpt><trkpt lat="45.3579798" lon="8.0308899"><ele>268.0</ele><time>2026-04-19T11:57:32.933Z</time></trkpt><trkpt lat="45.3580431" lon="8.0311116"><ele>267.0</ele><time>2026-04-19T11:57:33.932Z</time></trkpt><trkpt lat="45.3580823" lon="8.0313234"><ele>266.0</ele><time>2026-04-19T11:57:34.932Z</time></trkpt><trkpt lat="45.3581137" lon="8.0315498"><ele>265.5</ele><time>2026-04-19T11:57:35.931Z</time></trkpt><trkpt lat="45.3581387" lon="8.0317734"><ele>265.0</ele><time>2026-04-19T11:57:36.931Z</time></trkpt><trkpt lat="45.3581571" lon="8.031985"><ele>264.5</ele><time>2026-04-19T11:57:37.933Z</time></trkpt><trkpt lat="45.358174" lon="8.0321831"><ele>264.0</ele><time>2026-04-19T11:57:38.931Z</time></trkpt><trkpt lat="45.3581865" lon="8.0323858"><ele>264.3333333333333</ele><time>2026-04-19T11:57:39.931Z</time></trkpt><trkpt lat="45.3581935" lon="8.0325946"><ele>264.66666666666663</ele><time>2026-04-19T11:57:40.931Z</time></trkpt><trkpt lat="45.3581958" lon="8.0328122"><ele>265.0</ele><time>2026-04-19T11:57:41.932Z</time></trkpt><trkpt lat="45.358202" lon="8.0330255"><ele>265.0</ele><time>2026-04-19T11:57:42.931Z</time></trkpt><trkpt lat="45.3582047" lon="8.0332384"><ele>265.0</ele><time>2026-04-19T11:57:43.932Z</time></trkpt><trkpt lat="45.3582063" lon="8.0334386"><ele>265.0</ele><time>2026-04-19T11:57:44.931Z</time></trkpt><trkpt lat="45.3582048" lon="8.0336359"><ele>265.0</ele><time>2026-04-19T11:57:45.931Z</time></trkpt><trkpt lat="45.3582072" lon="8.0338383"><ele>264.75</ele><time>2026-04-19T11:57:46.932Z</time></trkpt><trkpt lat="45.3582025" lon="8.0340455"><ele>264.5</ele><time>2026-04-19T11:57:47.932Z</time></trkpt><trkpt lat="45.3582034" lon="8.0342346"><ele>264.25</ele><time>2026-04-19T11:57:48.931Z</time></trkpt><trkpt lat="45.3582274" lon="8.0344188"><ele>264.0</ele><time>2026-04-19T11:57:49.931Z</time></trkpt><trkpt lat="45.3582931" lon="8.0346057"><ele>264.0</ele><time>2026-04-19T11:57:50.931Z</time></trkpt><trkpt lat="45.3583678" lon="8.0348122"><ele>264.0</ele><time>2026-04-19T11:57:51.931Z</time></trkpt><trkpt lat="45.3584467" lon="8.0350244"><ele>264.0</ele><time>2026-04-19T11:57:52.932Z</time></trkpt><trkpt lat="45.3585315" lon="8.0352464"><ele>264.0</ele><time>2026-04-19T11:57:53.931Z</time></trkpt><trkpt lat="45.3586052" lon="8.0354271"><ele>264.0</ele><time>2026-04-19T11:57:54.931Z</time></trkpt><trkpt lat="45.3586694" lon="8.0355848"><ele>264.0</ele><time>2026-04-19T11:57:55.931Z</time></trkpt><trkpt lat="45.3587229" lon="8.0357271"><ele>264.0</ele><time>2026-04-19T11:57:56.933Z</time></trkpt><trkpt lat="45.3587667" lon="8.0358426"><ele>263.5</ele><time>2026-04-19T11:57:57.931Z</time></trkpt><trkpt lat="45.3588031" lon="8.0359163"><ele>263.0</ele><time>2026-04-19T11:57:58.931Z</time></trkpt><trkpt lat="45.3590007" lon="8.0357753"><ele>262.5</ele><time>2026-04-19T11:58:05.931Z</time></trkpt><trkpt lat="45.359074" lon="8.03568"><ele>262.0</ele><time>2026-04-19T11:58:08.93Z</time></trkpt><trkpt lat="45.3591603" lon="8.0355555"><ele>262.5</ele><time>2026-04-19T11:58:10.93Z</time></trkpt><trkpt lat="45.3592086" lon="8.0354882"><ele>263.0</ele><time>2026-04-19T11:58:11.931Z</time></trkpt><trkpt lat="45.3592624" lon="8.0354121"><ele>263.5</ele><time>2026-04-19T11:58:12.931Z</time></trkpt><trkpt lat="45.3593219" lon="8.0353251"><ele>264.0</ele><time>2026-04-19T11:58:13.93Z</time></trkpt><trkpt lat="45.3593837" lon="8.035236"><ele>264.5</ele><time>2026-04-19T11:58:14.93Z</time></trkpt><trkpt lat="45.35947" lon="8.035112"><ele>265.0</ele><time>2026-04-19T11:58:15.931Z</time></trkpt><trkpt lat="45.3595796" lon="8.0349497"><ele>265.0</ele><time>2026-04-19T11:58:16.931Z</time></trkpt><trkpt lat="45.3596892" lon="8.034796"><ele>265.0</ele><time>2026-04-19T11:58:17.93Z</time></trkpt><trkpt lat="45.3597967" lon="8.0346795"><ele>265.0</ele><time>2026-04-19T11:58:18.931Z</time></trkpt><trkpt lat="45.3598996" lon="8.0346033"><ele>265.0</ele><time>2026-04-19T11:58:19.93Z</time></trkpt><trkpt lat="45.3600024" lon="8.0345288"><ele>265.25</ele><time>2026-04-19T11:58:20.932Z</time></trkpt><trkpt lat="45.3601036" lon="8.0344551"><ele>265.5</ele><time>2026-04-19T11:58:21.932Z</time></trkpt><trkpt lat="45.3602167" lon="8.0343678"><ele>265.75</ele><time>2026-04-19T11:58:22.931Z</time></trkpt><trkpt lat="45.3603084" lon="8.0342933"><ele>266.0</ele><time>2026-04-19T11:58:23.93Z</time></trkpt><trkpt lat="45.3604076" lon="8.0342122"><ele>266.0</ele><time>2026-04-19T11:58:24.93Z</time></trkpt><trkpt lat="45.3605086" lon="8.0341368"><ele>266.0</ele><time>2026-04-19T11:58:25.93Z</time></trkpt><trkpt lat="45.3606167" lon="8.0340642"><ele>266.0</ele><time>2026-04-19T11:58:26.931Z</time></trkpt><trkpt lat="45.3607238" lon="8.033994"><ele>266.0</ele><time>2026-04-19T11:58:27.93Z</time></trkpt><trkpt lat="45.3608308" lon="8.0339254"><ele>266.1666666666667</ele><time>2026-04-19T11:58:28.93Z</time></trkpt><trkpt lat="45.3609306" lon="8.0338568"><ele>266.33333333333337</ele><time>2026-04-19T11:58:29.931Z</time></trkpt><trkpt lat="45.3610163" lon="8.0337914"><ele>266.5</ele><time>2026-04-19T11:58:30.93Z</time></trkpt><trkpt lat="45.361094" lon="8.0337445"><ele>266.6666666666667</ele><time>2026-04-19T11:58:31.93Z</time></trkpt><trkpt lat="45.3611751" lon="8.0337317"><ele>266.8333333333333</ele><time>2026-04-19T11:58:32.931Z</time></trkpt><trkpt lat="45.3612444" lon="8.0337697"><ele>267.0</ele><time>2026-04-19T11:58:33.93Z</time></trkpt><trkpt lat="45.3613067" lon="8.0338396"><ele>267.2</ele><time>2026-04-19T11:58:34.93Z</time></trkpt><trkpt lat="45.3613691" lon="8.0339088"><ele>267.4</ele><time>2026-04-19T11:58:36.931Z</time></trkpt><trkpt lat="45.3614972" lon="8.033881"><ele>267.6</ele><time>2026-04-19T11:58:46.931Z</time></trkpt><trkpt lat="45.3615857" lon="8.0338607"><ele>267.8</ele><time>2026-04-19T11:58:47.931Z</time></trkpt><trkpt lat="45.3616818" lon="8.0338095"><ele>268.0</ele><time>2026-04-19T11:58:48.93Z</time></trkpt><trkpt lat="45.36178" lon="8.0337341"><ele>268.0</ele><time>2026-04-19T11:58:49.93Z</time></trkpt><trkpt lat="45.3618796" lon="8.0336515"><ele>268.0</ele><time>2026-04-19T11:58:50.931Z</time></trkpt><trkpt lat="45.3619722" lon="8.0335809"><ele>268.0</ele><time>2026-04-19T11:58:51.931Z</time></trkpt><trkpt lat="45.3620648" lon="8.033528"><ele>268.0</ele><time>2026-04-19T11:58:52.93Z</time></trkpt><trkpt lat="45.3621671" lon="8.0334918"><ele>268.0</ele><time>2026-04-19T11:58:53.931Z</time></trkpt><trkpt lat="45.3622608" lon="8.0334603"><ele>268.4</ele><time>2026-04-19T11:58:54.931Z</time></trkpt><trkpt lat="45.3623524" lon="8.0334198"><ele>268.8</ele><time>2026-04-19T11:58:55.931Z</time></trkpt><trkpt lat="45.3624417" lon="8.0333628"><ele>269.2</ele><time>2026-04-19T11:58:56.931Z</time></trkpt><trkpt lat="45.3625294" lon="8.0332904"><ele>269.6</ele><time>2026-04-19T11:58:57.93Z</time></trkpt><trkpt lat="45.3626172" lon="8.0332203"><ele>270.0</ele><time>2026-04-19T11:58:58.931Z</time></trkpt><trkpt lat="45.3627088" lon="8.0331412"><ele>270.2</ele><time>2026-04-19T11:58:59.93Z</time></trkpt><trkpt lat="45.3628012" lon="8.0330622"><ele>270.4</ele><time>2026-04-19T11:59:00.931Z</time></trkpt><trkpt lat="45.3628858" lon="8.0329902"><ele>270.6</ele><time>2026-04-19T11:59:01.93Z</time></trkpt><trkpt lat="45.3629675" lon="8.0329436"><ele>270.8</ele><time>2026-04-19T11:59:02.93Z</time></trkpt><trkpt lat="45.3630523" lon="8.032905"><ele>271.0</ele><time>2026-04-19T11:59:03.93Z</time></trkpt><trkpt lat="45.3631425" lon="8.0328795"><ele>271.6</ele><time>2026-04-19T11:59:04.93Z</time></trkpt><trkpt lat="45.3632329" lon="8.0328852"><ele>272.20000000000005</ele><time>2026-04-19T11:59:05.93Z</time></trkpt><trkpt lat="45.3633383" lon="8.0328864"><ele>272.79999999999995</ele><time>2026-04-19T11:59:06.93Z</time></trkpt><trkpt lat="45.3634465" lon="8.0328973"><ele>273.4</ele><time>2026-04-19T11:59:07.931Z</time></trkpt><trkpt lat="45.3635457" lon="8.0329079"><ele>274.0</ele><time>2026-04-19T11:59:08.931Z</time></trkpt><trkpt lat="45.363637" lon="8.0329205"><ele>274.0</ele><time>2026-04-19T11:59:09.93Z</time></trkpt><trkpt lat="45.3637284" lon="8.032944"><ele>274.0</ele><time>2026-04-19T11:59:10.931Z</time></trkpt><trkpt lat="45.3638044" lon="8.0329777"><ele>274.0</ele><time>2026-04-19T11:59:11.93Z</time></trkpt><trkpt lat="45.3638759" lon="8.0330819"><ele>274.0</ele><time>2026-04-19T11:59:12.931Z</time></trkpt><trkpt lat="45.3639486" lon="8.0331001"><ele>274.0</ele><time>2026-04-19T11:59:13.93Z</time></trkpt><trkpt lat="45.3640588" lon="8.0330989"><ele>274.2</ele><time>2026-04-19T11:59:14.931Z</time></trkpt><trkpt lat="45.3641719" lon="8.0330935"><ele>274.4</ele><time>2026-04-19T11:59:15.93Z</time></trkpt><trkpt lat="45.364264" lon="8.0330791"><ele>274.6</ele><time>2026-04-19T11:59:16.93Z</time></trkpt><trkpt lat="45.3643537" lon="8.0330546"><ele>274.8</ele><time>2026-04-19T11:59:17.931Z</time></trkpt><trkpt lat="45.3644458" lon="8.0330297"><ele>275.0</ele><time>2026-04-19T11:59:18.931Z</time></trkpt><trkpt lat="45.3645458" lon="8.0330048"><ele>275.0</ele><time>2026-04-19T11:59:19.93Z</time></trkpt><trkpt lat="45.3646573" lon="8.0329855"><ele>275.0</ele><time>2026-04-19T11:59:20.93Z</time></trkpt><trkpt lat="45.3647685" lon="8.0329476"><ele>275.0</ele><time>2026-04-19T11:59:21.931Z</time></trkpt><trkpt lat="45.364886" lon="8.0329003"><ele>275.0</ele><time>2026-04-19T11:59:22.93Z</time></trkpt><trkpt lat="45.364994" lon="8.0328577"><ele>275.75</ele><time>2026-04-19T11:59:23.931Z</time></trkpt><trkpt lat="45.3650976" lon="8.0328091"><ele>276.5</ele><time>2026-04-19T11:59:24.931Z</time></trkpt><trkpt lat="45.3652082" lon="8.0327631"><ele>277.25</ele><time>2026-04-19T11:59:25.93Z</time></trkpt><trkpt lat="45.3653176" lon="8.0327125"><ele>278.0</ele><time>2026-04-19T11:59:26.93Z</time></trkpt><trkpt lat="45.365432" lon="8.0326679"><ele>278.25</ele><time>2026-04-19T11:59:27.93Z</time></trkpt><trkpt lat="45.3655481" lon="8.0326167"><ele>278.5</ele><time>2026-04-19T11:59:28.93Z</time></trkpt><trkpt lat="45.3656587" lon="8.0325679"><ele>278.75</ele><time>2026-04-19T11:59:29.931Z</time></trkpt><trkpt lat="45.3657689" lon="8.0325232"><ele>279.0</ele><time>2026-04-19T11:59:30.931Z</time></trkpt><trkpt lat="45.3658756" lon="8.0324849"><ele>278.8</ele><time>2026-04-19T11:59:31.93Z</time></trkpt><trkpt lat="45.3659799" lon="8.0324454"><ele>278.59999999999997</ele><time>2026-04-19T11:59:32.93Z</time></trkpt><trkpt lat="45.3660782" lon="8.0324077"><ele>278.4</ele><time>2026-04-19T11:59:33.93Z</time></trkpt><trkpt lat="45.3661838" lon="8.0323634"><ele>278.2</ele><time>2026-04-19T11:59:34.931Z</time></trkpt><trkpt lat="45.3662955" lon="8.0323293"><ele>278.0</ele><time>2026-04-19T11:59:35.93Z</time></trkpt><trkpt lat="45.3664124" lon="8.0322869"><ele>278.0</ele><time>2026-04-19T11:59:36.93Z</time></trkpt><trkpt lat="45.3665314" lon="8.032243"><ele>278.0</ele><time>2026-04-19T11:59:37.931Z</time></trkpt><trkpt lat="45.3666481" lon="8.0322027"><ele>278.0</ele><time>2026-04-19T11:59:38.93Z</time></trkpt><trkpt lat="45.3667598" lon="8.0321608"><ele>278.0</ele><time>2026-04-19T11:59:39.931Z</time></trkpt><trkpt lat="45.366868" lon="8.0321216"><ele>278.0</ele><time>2026-04-19T11:59:40.931Z</time></trkpt><trkpt lat="45.3669683" lon="8.0320909"><ele>278.0</ele><time>2026-04-19T11:59:41.931Z</time></trkpt><trkpt lat="45.3670734" lon="8.0320619"><ele>278.0</ele><time>2026-04-19T11:59:42.931Z</time></trkpt><trkpt lat="45.3671808" lon="8.0320266"><ele>278.0</ele><time>2026-04-19T11:59:43.93Z</time></trkpt><trkpt lat="45.3672921" lon="8.0319846"><ele>278.0</ele><time>2026-04-19T11:59:44.93Z</time></trkpt><trkpt lat="45.367393" lon="8.0319427"><ele>278.6</ele><time>2026-04-19T11:59:45.93Z</time></trkpt><trkpt lat="45.3674898" lon="8.0318978"><ele>279.20000000000005</ele><time>2026-04-19T11:59:46.93Z</time></trkpt><trkpt lat="45.3675903" lon="8.0318505"><ele>279.8</ele><time>2026-04-19T11:59:47.932Z</time></trkpt><trkpt lat="45.3676736" lon="8.031803"><ele>280.40000000000003</ele><time>2026-04-19T11:59:48.93Z</time></trkpt><trkpt lat="45.3677516" lon="8.0317621"><ele>281.0</ele><time>2026-04-19T11:59:49.93Z</time></trkpt><trkpt lat="45.367818" lon="8.0317331"><ele>281.00000000000006</ele><time>2026-04-19T11:59:50.931Z</time></trkpt><trkpt lat="45.3678838" lon="8.0317021"><ele>281.0</ele><time>2026-04-19T11:59:51.93Z</time></trkpt><trkpt lat="45.36795" lon="8.031673"><ele>281.0</ele><time>2026-04-19T11:59:52.931Z</time></trkpt><trkpt lat="45.3680186" lon="8.0316394"><ele>281.0</ele><time>2026-04-19T11:59:53.93Z</time></trkpt><trkpt lat="45.3680881" lon="8.0316053"><ele>281.0</ele><time>2026-04-19T11:59:54.93Z</time></trkpt><trkpt lat="45.3681579" lon="8.031569"><ele>281.00000000000006</ele><time>2026-04-19T11:59:55.93Z</time></trkpt><trkpt lat="45.3682199" lon="8.0315364"><ele>281.0</ele><time>2026-04-19T11:59:56.93Z</time></trkpt><trkpt lat="45.3683235" lon="8.031462"><ele>281.0</ele><time>2026-04-19T11:59:58.93Z</time></trkpt><trkpt lat="45.3684047" lon="8.0313977"><ele>281.0</ele><time>2026-04-19T12:00:00.931Z</time></trkpt><trkpt lat="45.3684707" lon="8.0313629"><ele>281.0</ele><time>2026-04-19T12:00:02.93Z</time></trkpt><trkpt lat="45.3685364" lon="8.031406"><ele>281.0</ele><time>2026-04-19T12:00:04.93Z</time></trkpt><trkpt lat="45.3686018" lon="8.0315328"><ele>281.0</ele><time>2026-04-19T12:00:06.931Z</time></trkpt><trkpt lat="45.368665" lon="8.0316736"><ele>281.0</ele><time>2026-04-19T12:00:08.93Z</time></trkpt><trkpt lat="45.3687222" lon="8.031795"><ele>281.0</ele><time>2026-04-19T12:00:10.931Z</time></trkpt><trkpt lat="45.3687696" lon="8.0318917"><ele>281.0</ele><time>2026-04-19T12:00:12.931Z</time></trkpt><trkpt lat="45.3688248" lon="8.0319997"><ele>281.0</ele><time>2026-04-19T12:00:15.93Z</time></trkpt><trkpt lat="45.3689082" lon="8.0320105"><ele>281.0</ele><time>2026-04-19T12:00:17.931Z</time></trkpt><trkpt lat="45.3690213" lon="8.0319395"><ele>281.8</ele><time>2026-04-19T12:00:19.93Z</time></trkpt><trkpt lat="45.3690967" lon="8.0318848"><ele>282.6</ele><time>2026-04-19T12:00:20.93Z</time></trkpt><trkpt lat="45.3691897" lon="8.0318219"><ele>283.4</ele><time>2026-04-19T12:00:21.93Z</time></trkpt><trkpt lat="45.369292" lon="8.031753"><ele>284.2</ele><time>2026-04-19T12:00:22.93Z</time></trkpt><trkpt lat="45.3694072" lon="8.0316773"><ele>285.0</ele><time>2026-04-19T12:00:23.93Z</time></trkpt><trkpt lat="45.3695313" lon="8.0315976"><ele>286.0</ele><time>2026-04-19T12:00:24.93Z</time></trkpt><trkpt lat="45.3696664" lon="8.0315049"><ele>287.0</ele><time>2026-04-19T12:00:25.931Z</time></trkpt><trkpt lat="45.3698117" lon="8.0314113"><ele>288.0</ele><time>2026-04-19T12:00:26.931Z</time></trkpt><trkpt lat="45.3699606" lon="8.0313188"><ele>288.6666666666667</ele><time>2026-04-19T12:00:27.93Z</time></trkpt><trkpt lat="45.3701181" lon="8.031211"><ele>289.33333333333337</ele><time>2026-04-19T12:00:28.932Z</time></trkpt><trkpt lat="45.3702772" lon="8.0310894"><ele>290.0</ele><time>2026-04-19T12:00:29.931Z</time></trkpt><trkpt lat="45.3704367" lon="8.0309552"><ele>290.33333333333337</ele><time>2026-04-19T12:00:30.93Z</time></trkpt><trkpt lat="45.3705929" lon="8.0308044"><ele>290.6666666666667</ele><time>2026-04-19T12:00:31.93Z</time></trkpt><trkpt lat="45.3707513" lon="8.0306487"><ele>291.0</ele><time>2026-04-19T12:00:32.93Z</time></trkpt><trkpt lat="45.3709164" lon="8.0304885"><ele>291.0</ele><time>2026-04-19T12:00:33.931Z</time></trkpt><trkpt lat="45.3710836" lon="8.0303253"><ele>291.0</ele><time>2026-04-19T12:00:34.93Z</time></trkpt><trkpt lat="45.3712521" lon="8.03016"><ele>291.0</ele><time>2026-04-19T12:00:35.931Z</time></trkpt><trkpt lat="45.3714175" lon="8.0299939"><ele>292.3333333333333</ele><time>2026-04-19T12:00:36.93Z</time></trkpt><trkpt lat="45.3715769" lon="8.02982"><ele>293.66666666666663</ele><time>2026-04-19T12:00:37.93Z</time></trkpt><trkpt lat="45.3717323" lon="8.0296391"><ele>295.0</ele><time>2026-04-19T12:00:38.931Z</time></trkpt><trkpt lat="45.3718798" lon="8.0294393"><ele>295.0</ele><time>2026-04-19T12:00:39.93Z</time></trkpt><trkpt lat="45.3720264" lon="8.0292296"><ele>295.0</ele><time>2026-04-19T12:00:40.93Z</time></trkpt><trkpt lat="45.372171" lon="8.0290102"><ele>295.0</ele><time>2026-04-19T12:00:41.932Z</time></trkpt><trkpt lat="45.3723124" lon="8.0287869"><ele>295.3333333333333</ele><time>2026-04-19T12:00:42.93Z</time></trkpt><trkpt lat="45.3724537" lon="8.0285621"><ele>295.6666666666667</ele><time>2026-04-19T12:00:43.931Z</time></trkpt><trkpt lat="45.3725938" lon="8.0283464"><ele>296.0</ele><time>2026-04-19T12:00:44.931Z</time></trkpt><trkpt lat="45.3727376" lon="8.0281359"><ele>296.33333333333337</ele><time>2026-04-19T12:00:45.93Z</time></trkpt><trkpt lat="45.3728805" lon="8.0279258"><ele>296.6666666666667</ele><time>2026-04-19T12:00:46.93Z</time></trkpt><trkpt lat="45.3730304" lon="8.0277417"><ele>297.0</ele><time>2026-04-19T12:00:47.93Z</time></trkpt><trkpt lat="45.3731803" lon="8.0275889"><ele>297.6666666666667</ele><time>2026-04-19T12:00:48.931Z</time></trkpt><trkpt lat="45.3733379" lon="8.0274597"><ele>298.33333333333337</ele><time>2026-04-19T12:00:49.93Z</time></trkpt><trkpt lat="45.3734939" lon="8.0273393"><ele>299.0</ele><time>2026-04-19T12:00:50.931Z</time></trkpt><trkpt lat="45.3736561" lon="8.027227"><ele>299.0</ele><time>2026-04-19T12:00:51.93Z</time></trkpt><trkpt lat="45.3738201" lon="8.0271271"><ele>299.0</ele><time>2026-04-19T12:00:52.931Z</time></trkpt><trkpt lat="45.3739751" lon="8.0270304"><ele>299.0</ele><time>2026-04-19T12:00:53.931Z</time></trkpt><trkpt lat="45.3741221" lon="8.0269209"><ele>300.0</ele><time>2026-04-19T12:00:54.93Z</time></trkpt><trkpt lat="45.3742593" lon="8.0267819"><ele>301.0</ele><time>2026-04-19T12:00:55.93Z</time></trkpt><trkpt lat="45.374383" lon="8.0266152"><ele>302.0</ele><time>2026-04-19T12:00:56.93Z</time></trkpt><trkpt lat="45.3744971" lon="8.0264351"><ele>302.33333333333337</ele><time>2026-04-19T12:00:57.93Z</time></trkpt><trkpt lat="45.3745891" lon="8.026238"><ele>302.6666666666667</ele><time>2026-04-19T12:00:58.93Z</time></trkpt><trkpt lat="45.3746577" lon="8.0260138"><ele>303.0</ele><time>2026-04-19T12:00:59.93Z</time></trkpt><trkpt lat="45.3747062" lon="8.0257757"><ele>302.3333333333333</ele><time>2026-04-19T12:01:00.931Z</time></trkpt><trkpt lat="45.3747396" lon="8.0255245"><ele>301.66666666666663</ele><time>2026-04-19T12:01:01.93Z</time></trkpt><trkpt lat="45.3747647" lon="8.0252637"><ele>301.0</ele><time>2026-04-19T12:01:02.931Z</time></trkpt><trkpt lat="45.3747846" lon="8.0249987"><ele>301.3333333333333</ele><time>2026-04-19T12:01:03.93Z</time></trkpt><trkpt lat="45.3748024" lon="8.0247263"><ele>301.6666666666667</ele><time>2026-04-19T12:01:04.93Z</time></trkpt><trkpt lat="45.3748205" lon="8.0244477"><ele>302.0</ele><time>2026-04-19T12:01:05.93Z</time></trkpt><trkpt lat="45.374841" lon="8.0241674"><ele>302.6666666666667</ele><time>2026-04-19T12:01:06.931Z</time></trkpt><trkpt lat="45.3748574" lon="8.0238854"><ele>303.3333333333333</ele><time>2026-04-19T12:01:07.93Z</time></trkpt><trkpt lat="45.3748767" lon="8.0236006"><ele>304.0</ele><time>2026-04-19T12:01:08.931Z</time></trkpt><trkpt lat="45.3748966" lon="8.0233114"><ele>305.0</ele><time>2026-04-19T12:01:09.93Z</time></trkpt><trkpt lat="45.3749193" lon="8.0230206"><ele>306.0</ele><time>2026-04-19T12:01:10.93Z</time></trkpt><trkpt lat="45.3749408" lon="8.0227291"><ele>307.0</ele><time>2026-04-19T12:01:11.93Z</time></trkpt><trkpt lat="45.3749597" lon="8.022439"><ele>307.66666666666663</ele><time>2026-04-19T12:01:12.93Z</time></trkpt><trkpt lat="45.3749811" lon="8.0221496"><ele>308.3333333333333</ele><time>2026-04-19T12:01:13.93Z</time></trkpt><trkpt lat="45.3750016" lon="8.0218636"><ele>309.0</ele><time>2026-04-19T12:01:14.93Z</time></trkpt><trkpt lat="45.3750205" lon="8.0215902"><ele>310.0</ele><time>2026-04-19T12:01:15.93Z</time></trkpt><trkpt lat="45.3750371" lon="8.0213241"><ele>311.0</ele><time>2026-04-19T12:01:16.932Z</time></trkpt><trkpt lat="45.3750484" lon="8.0210558"><ele>312.0</ele><time>2026-04-19T12:01:17.93Z</time></trkpt><trkpt lat="45.3750537" lon="8.0207851"><ele>312.6666666666667</ele><time>2026-04-19T12:01:18.93Z</time></trkpt><trkpt lat="45.3750539" lon="8.0205108"><ele>313.33333333333337</ele><time>2026-04-19T12:01:19.931Z</time></trkpt><trkpt lat="45.3750541" lon="8.0202304"><ele>314.0</ele><time>2026-04-19T12:01:20.93Z</time></trkpt><trkpt lat="45.3750505" lon="8.0199402"><ele>314.6666666666667</ele><time>2026-04-19T12:01:21.931Z</time></trkpt><trkpt lat="45.3750503" lon="8.0196608"><ele>315.3333333333333</ele><time>2026-04-19T12:01:22.931Z</time></trkpt><trkpt lat="45.375056" lon="8.0193926"><ele>316.0</ele><time>2026-04-19T12:01:23.93Z</time></trkpt><trkpt lat="45.3750809" lon="8.0191272"><ele>317.0</ele><time>2026-04-19T12:01:24.931Z</time></trkpt><trkpt lat="45.3751246" lon="8.0188662"><ele>318.0</ele><time>2026-04-19T12:01:25.931Z</time></trkpt><trkpt lat="45.3751872" lon="8.0186133"><ele>319.0</ele><time>2026-04-19T12:01:26.931Z</time></trkpt><trkpt lat="45.3752788" lon="8.0183712"><ele>321.0</ele><time>2026-04-19T12:01:27.93Z</time></trkpt><trkpt lat="45.3753838" lon="8.0181364"><ele>323.0</ele><time>2026-04-19T12:01:28.931Z</time></trkpt><trkpt lat="45.3754916" lon="8.0179006"><ele>325.0</ele><time>2026-04-19T12:01:29.932Z</time></trkpt><trkpt lat="45.3755965" lon="8.0176729"><ele>324.66666666666663</ele><time>2026-04-19T12:01:30.93Z</time></trkpt><trkpt lat="45.3756988" lon="8.0174428"><ele>324.3333333333333</ele><time>2026-04-19T12:01:31.93Z</time></trkpt><trkpt lat="45.3758019" lon="8.0172152"><ele>324.0</ele><time>2026-04-19T12:01:32.93Z</time></trkpt><trkpt lat="45.3759036" lon="8.0169883"><ele>324.0</ele><time>2026-04-19T12:01:33.93Z</time></trkpt><trkpt lat="45.3760137" lon="8.0167607"><ele>324.0</ele><time>2026-04-19T12:01:34.931Z</time></trkpt><trkpt lat="45.3761231" lon="8.016544"><ele>324.0</ele><time>2026-04-19T12:01:35.93Z</time></trkpt><trkpt lat="45.3762387" lon="8.0163295"><ele>325.6666666666667</ele><time>2026-04-19T12:01:36.931Z</time></trkpt><trkpt lat="45.3763592" lon="8.016121"><ele>327.33333333333337</ele><time>2026-04-19T12:01:37.931Z</time></trkpt><trkpt lat="45.3764896" lon="8.0159212"><ele>329.0</ele><time>2026-04-19T12:01:38.931Z</time></trkpt><trkpt lat="45.3766251" lon="8.0157314"><ele>329.0</ele><time>2026-04-19T12:01:39.93Z</time></trkpt><trkpt lat="45.3767623" lon="8.0155411"><ele>329.0</ele><time>2026-04-19T12:01:40.931Z</time></trkpt><trkpt lat="45.3768873" lon="8.0153376"><ele>329.0</ele><time>2026-04-19T12:01:41.93Z</time></trkpt><trkpt lat="45.3769878" lon="8.0151194"><ele>330.33333333333337</ele><time>2026-04-19T12:01:42.93Z</time></trkpt><trkpt lat="45.3770732" lon="8.0148919"><ele>331.6666666666667</ele><time>2026-04-19T12:01:43.93Z</time></trkpt><trkpt lat="45.3771445" lon="8.0146579"><ele>333.0</ele><time>2026-04-19T12:01:44.93Z</time></trkpt><trkpt lat="45.3772165" lon="8.014422"><ele>333.0</ele><time>2026-04-19T12:01:45.93Z</time></trkpt><trkpt lat="45.377301" lon="8.0141873"><ele>333.0</ele><time>2026-04-19T12:01:46.931Z</time></trkpt><trkpt lat="45.3773958" lon="8.0139603"><ele>333.0</ele><time>2026-04-19T12:01:47.931Z</time></trkpt><trkpt lat="45.3775023" lon="8.0137454"><ele>334.3333333333333</ele><time>2026-04-19T12:01:48.93Z</time></trkpt><trkpt lat="45.3776179" lon="8.0135349"><ele>335.66666666666663</ele><time>2026-04-19T12:01:49.931Z</time></trkpt><trkpt lat="45.3777357" lon="8.0133259"><ele>337.0</ele><time>2026-04-19T12:01:50.93Z</time></trkpt><trkpt lat="45.377855" lon="8.0131199"><ele>338.0</ele><time>2026-04-19T12:01:51.93Z</time></trkpt><trkpt lat="45.377975" lon="8.012916"><ele>339.0</ele><time>2026-04-19T12:01:52.93Z</time></trkpt><trkpt lat="45.3780924" lon="8.0127118"><ele>340.0</ele><time>2026-04-19T12:01:53.93Z</time></trkpt><trkpt lat="45.3782111" lon="8.0125057"><ele>341.66666666666663</ele><time>2026-04-19T12:01:54.93Z</time></trkpt><trkpt lat="45.3783347" lon="8.0123025"><ele>343.3333333333333</ele><time>2026-04-19T12:01:55.932Z</time></trkpt><trkpt lat="45.3784728" lon="8.0121167"><ele>345.0</ele><time>2026-04-19T12:01:56.93Z</time></trkpt><trkpt lat="45.3786234" lon="8.0119473"><ele>345.0</ele><time>2026-04-19T12:01:57.931Z</time></trkpt><trkpt lat="45.3787799" lon="8.0117846"><ele>345.0</ele><time>2026-04-19T12:01:58.93Z</time></trkpt><trkpt lat="45.3789421" lon="8.0116253"><ele>345.0</ele><time>2026-04-19T12:01:59.93Z</time></trkpt><trkpt lat="45.3791071" lon="8.0114666"><ele>345.3333333333333</ele><time>2026-04-19T12:02:00.931Z</time></trkpt><trkpt lat="45.3792716" lon="8.0113083"><ele>345.66666666666663</ele><time>2026-04-19T12:02:01.931Z</time></trkpt><trkpt lat="45.3794353" lon="8.0111486"><ele>346.0</ele><time>2026-04-19T12:02:02.931Z</time></trkpt><trkpt lat="45.3796012" lon="8.0109848"><ele>346.66666666666663</ele><time>2026-04-19T12:02:03.931Z</time></trkpt><trkpt lat="45.379766" lon="8.0108205"><ele>347.3333333333333</ele><time>2026-04-19T12:02:04.931Z</time></trkpt><trkpt lat="45.3799292" lon="8.0106587"><ele>348.0</ele><time>2026-04-19T12:02:05.93Z</time></trkpt><trkpt lat="45.3800886" lon="8.0105023"><ele>348.0</ele><time>2026-04-19T12:02:06.931Z</time></trkpt><trkpt lat="45.3802405" lon="8.0103504"><ele>348.0</ele><time>2026-04-19T12:02:07.931Z</time></trkpt><trkpt lat="45.3803796" lon="8.010211"><ele>348.0</ele><time>2026-04-19T12:02:08.93Z</time></trkpt><trkpt lat="45.3805086" lon="8.0100817"><ele>349.6666666666667</ele><time>2026-04-19T12:02:09.93Z</time></trkpt><trkpt lat="45.3806352" lon="8.0099554"><ele>351.33333333333337</ele><time>2026-04-19T12:02:10.93Z</time></trkpt><trkpt lat="45.380759" lon="8.0098287"><ele>353.0</ele><time>2026-04-19T12:02:11.931Z</time></trkpt><trkpt lat="45.3808844" lon="8.0096972"><ele>353.0</ele><time>2026-04-19T12:02:12.93Z</time></trkpt><trkpt lat="45.3810135" lon="8.0095647"><ele>353.0</ele><time>2026-04-19T12:02:13.931Z</time></trkpt><trkpt lat="45.3811488" lon="8.0094336"><ele>353.0</ele><time>2026-04-19T12:02:14.931Z</time></trkpt><trkpt lat="45.3812904" lon="8.0093032"><ele>352.6666666666667</ele><time>2026-04-19T12:02:15.93Z</time></trkpt><trkpt lat="45.3814438" lon="8.0091769"><ele>352.3333333333333</ele><time>2026-04-19T12:02:16.93Z</time></trkpt><trkpt lat="45.3816086" lon="8.0090669"><ele>352.0</ele><time>2026-04-19T12:02:17.93Z</time></trkpt><trkpt lat="45.3817837" lon="8.0089749"><ele>352.0</ele><time>2026-04-19T12:02:18.931Z</time></trkpt><trkpt lat="45.3819669" lon="8.0089077"><ele>352.0</ele><time>2026-04-19T12:02:19.93Z</time></trkpt><trkpt lat="45.3821516" lon="8.0088532"><ele>352.0</ele><time>2026-04-19T12:02:20.93Z</time></trkpt><trkpt lat="45.3823314" lon="8.0088056"><ele>353.3333333333333</ele><time>2026-04-19T12:02:21.931Z</time></trkpt><trkpt lat="45.3825067" lon="8.0087602"><ele>354.6666666666667</ele><time>2026-04-19T12:02:22.93Z</time></trkpt><trkpt lat="45.3826652" lon="8.0087206"><ele>356.0</ele><time>2026-04-19T12:02:23.93Z</time></trkpt><trkpt lat="45.3828077" lon="8.0086866"><ele>356.0</ele><time>2026-04-19T12:02:24.93Z</time></trkpt><trkpt lat="45.3829447" lon="8.0086504"><ele>356.0</ele><time>2026-04-19T12:02:25.931Z</time></trkpt><trkpt lat="45.383074" lon="8.0086199"><ele>356.0</ele><time>2026-04-19T12:02:26.93Z</time></trkpt><trkpt lat="45.3831984" lon="8.0085895"><ele>356.0</ele><time>2026-04-19T12:02:27.93Z</time></trkpt><trkpt lat="45.3833265" lon="8.008562"><ele>356.25</ele><time>2026-04-19T12:02:28.93Z</time></trkpt><trkpt lat="45.3834606" lon="8.0085291"><ele>356.5</ele><time>2026-04-19T12:02:29.931Z</time></trkpt><trkpt lat="45.3835946" lon="8.0084968"><ele>356.75</ele><time>2026-04-19T12:02:30.93Z</time></trkpt><trkpt lat="45.3837359" lon="8.0084646"><ele>357.0</ele><time>2026-04-19T12:02:31.932Z</time></trkpt><trkpt lat="45.3838802" lon="8.0084292"><ele>357.25</ele><time>2026-04-19T12:02:32.931Z</time></trkpt><trkpt lat="45.384026" lon="8.008397"><ele>357.5</ele><time>2026-04-19T12:02:33.931Z</time></trkpt><trkpt lat="45.3841708" lon="8.0083606"><ele>357.75</ele><time>2026-04-19T12:02:34.932Z</time></trkpt><trkpt lat="45.3843051" lon="8.0083303"><ele>358.0</ele><time>2026-04-19T12:02:35.93Z</time></trkpt><trkpt lat="45.3844377" lon="8.0082977"><ele>358.0</ele><time>2026-04-19T12:02:36.93Z</time></trkpt><trkpt lat="45.3845681" lon="8.0082709"><ele>358.0</ele><time>2026-04-19T12:02:37.931Z</time></trkpt><trkpt lat="45.3847001" lon="8.0082401"><ele>358.0</ele><time>2026-04-19T12:02:38.93Z</time></trkpt><trkpt lat="45.3848367" lon="8.0082107"><ele>358.0</ele><time>2026-04-19T12:02:39.93Z</time></trkpt><trkpt lat="45.3849761" lon="8.0081819"><ele>358.5</ele><time>2026-04-19T12:02:40.93Z</time></trkpt><trkpt lat="45.385117" lon="8.0081512"><ele>359.0</ele><time>2026-04-19T12:02:41.93Z</time></trkpt><trkpt lat="45.385257" lon="8.00812"><ele>359.5</ele><time>2026-04-19T12:02:42.93Z</time></trkpt><trkpt lat="45.3853918" lon="8.0080914"><ele>360.0</ele><time>2026-04-19T12:02:43.93Z</time></trkpt><trkpt lat="45.3855161" lon="8.0080629"><ele>360.0</ele><time>2026-04-19T12:02:44.931Z</time></trkpt><trkpt lat="45.3856181" lon="8.008039"><ele>360.0</ele><time>2026-04-19T12:02:45.93Z</time></trkpt><trkpt lat="45.3857079" lon="8.0080139"><ele>360.0</ele><time>2026-04-19T12:02:46.93Z</time></trkpt><trkpt lat="45.3857922" lon="8.0079909"><ele>360.0</ele><time>2026-04-19T12:02:47.93Z</time></trkpt><trkpt lat="45.3858682" lon="8.0079653"><ele>360.0</ele><time>2026-04-19T12:02:48.931Z</time></trkpt><trkpt lat="45.3859366" lon="8.0079446"><ele>360.0</ele><time>2026-04-19T12:02:49.93Z</time></trkpt><trkpt lat="45.3860143" lon="8.0079202"><ele>360.0</ele><time>2026-04-19T12:02:51.93Z</time></trkpt><trkpt lat="45.3860762" lon="8.0079654"><ele>360.0</ele><time>2026-04-19T12:02:54.93Z</time></trkpt><trkpt lat="45.3861228" lon="8.0080339"><ele>360.0</ele><time>2026-04-19T12:02:57.93Z</time></trkpt><trkpt lat="45.3860584" lon="8.0081434"><ele>360.0</ele><time>2026-04-19T12:03:01.93Z</time></trkpt><trkpt lat="45.385996" lon="8.0081697"><ele>360.0</ele><time>2026-04-19T12:03:02.932Z</time></trkpt><trkpt lat="45.3859059" lon="8.008221"><ele>360.0</ele><time>2026-04-19T12:03:04.931Z</time></trkpt><trkpt lat="45.3858678" lon="8.0083454"><ele>359.6</ele><time>2026-04-19T12:03:06.931Z</time></trkpt><trkpt lat="45.3859192" lon="8.0085037"><ele>359.2</ele><time>2026-04-19T12:03:08.93Z</time></trkpt><trkpt lat="45.3859617" lon="8.0085992"><ele>358.79999999999995</ele><time>2026-04-19T12:03:09.931Z</time></trkpt><trkpt lat="45.3860006" lon="8.0087107"><ele>358.4</ele><time>2026-04-19T12:03:10.931Z</time></trkpt><trkpt lat="45.3860409" lon="8.0088303"><ele>358.0</ele><time>2026-04-19T12:03:11.93Z</time></trkpt><trkpt lat="45.3860905" lon="8.0089594"><ele>358.0</ele><time>2026-04-19T12:03:12.931Z</time></trkpt><trkpt lat="45.3861463" lon="8.0090851"><ele>358.0</ele><time>2026-04-19T12:03:13.93Z</time></trkpt><trkpt lat="45.3862093" lon="8.0092093"><ele>358.0</ele><time>2026-04-19T12:03:14.932Z</time></trkpt><trkpt lat="45.3862765" lon="8.0093396"><ele>358.0</ele><time>2026-04-19T12:03:15.93Z</time></trkpt><trkpt lat="45.3863436" lon="8.0094633"><ele>358.0</ele><time>2026-04-19T12:03:16.931Z</time></trkpt><trkpt lat="45.3864097" lon="8.0095758"><ele>359.2</ele><time>2026-04-19T12:03:17.93Z</time></trkpt><trkpt lat="45.3864876" lon="8.0096828"><ele>360.4</ele><time>2026-04-19T12:03:18.93Z</time></trkpt><trkpt lat="45.3865701" lon="8.0097759"><ele>361.59999999999997</ele><time>2026-04-19T12:03:19.931Z</time></trkpt><trkpt lat="45.386661" lon="8.0098704"><ele>362.79999999999995</ele><time>2026-04-19T12:03:20.93Z</time></trkpt><trkpt lat="45.3867522" lon="8.009967"><ele>364.0</ele><time>2026-04-19T12:03:21.931Z</time></trkpt><trkpt lat="45.3868432" lon="8.0100696"><ele>364.2</ele><time>2026-04-19T12:03:22.93Z</time></trkpt><trkpt lat="45.386922" lon="8.0101757"><ele>364.4</ele><time>2026-04-19T12:03:23.93Z</time></trkpt><trkpt lat="45.3869969" lon="8.0102823"><ele>364.6</ele><time>2026-04-19T12:03:24.931Z</time></trkpt><trkpt lat="45.3870746" lon="8.0103984"><ele>364.8</ele><time>2026-04-19T12:03:25.93Z</time></trkpt><trkpt lat="45.3871492" lon="8.0105052"><ele>365.0</ele><time>2026-04-19T12:03:26.93Z</time></trkpt><trkpt lat="45.3872317" lon="8.0106135"><ele>365.4</ele><time>2026-04-19T12:03:27.929Z</time></trkpt><trkpt lat="45.3873122" lon="8.0107149"><ele>365.8</ele><time>2026-04-19T12:03:28.929Z</time></trkpt><trkpt lat="45.3873863" lon="8.0108117"><ele>366.20000000000005</ele><time>2026-04-19T12:03:29.929Z</time></trkpt><trkpt lat="45.3874593" lon="8.0108997"><ele>366.6</ele><time>2026-04-19T12:03:30.929Z</time></trkpt><trkpt lat="45.3875252" lon="8.0109828"><ele>367.0</ele><time>2026-04-19T12:03:31.93Z</time></trkpt><trkpt lat="45.3875881" lon="8.0110657"><ele>367.5</ele><time>2026-04-19T12:03:32.929Z</time></trkpt><trkpt lat="45.387645" lon="8.0111483"><ele>368.0</ele><time>2026-04-19T12:03:33.929Z</time></trkpt><trkpt lat="45.3877068" lon="8.0112239"><ele>368.5</ele><time>2026-04-19T12:03:34.929Z</time></trkpt><trkpt lat="45.3877613" lon="8.0112912"><ele>369.0</ele><time>2026-04-19T12:03:35.929Z</time></trkpt><trkpt lat="45.3878251" lon="8.0113679"><ele>369.5</ele><time>2026-04-19T12:03:37.929Z</time></trkpt><trkpt lat="45.3879169" lon="8.011455"><ele>370.0</ele><time>2026-04-19T12:03:39.929Z</time></trkpt><trkpt lat="45.3880143" lon="8.0115026"><ele>370.8</ele><time>2026-04-19T12:03:41.929Z</time></trkpt><trkpt lat="45.388093" lon="8.0115704"><ele>371.6</ele><time>2026-04-19T12:03:43.929Z</time></trkpt><trkpt lat="45.3881461" lon="8.0116794"><ele>372.4</ele><time>2026-04-19T12:03:45.929Z</time></trkpt><trkpt lat="45.388192" lon="8.0117931"><ele>373.2</ele><time>2026-04-19T12:03:47.929Z</time></trkpt><trkpt lat="45.3882865" lon="8.0118276"><ele>374.0</ele><time>2026-04-19T12:03:49.929Z</time></trkpt><trkpt lat="45.3883718" lon="8.0118252"><ele>375.0</ele><time>2026-04-19T12:03:51.93Z</time></trkpt><trkpt lat="45.388442" lon="8.0119079"><ele>376.0</ele><time>2026-04-19T12:03:53.93Z</time></trkpt><trkpt lat="45.3885059" lon="8.0120242"><ele>377.0</ele><time>2026-04-19T12:03:55.929Z</time></trkpt><trkpt lat="45.3885803" lon="8.0120825"><ele>378.0</ele><time>2026-04-19T12:03:57.93Z</time></trkpt><trkpt lat="45.3886145" lon="8.0121942"><ele>379.0</ele><time>2026-04-19T12:04:01.929Z</time></trkpt><trkpt lat="45.3886706" lon="8.0123151"><ele>379.0</ele><time>2026-04-19T12:04:03.93Z</time></trkpt><trkpt lat="45.3887286" lon="8.0124292"><ele>379.0</ele><time>2026-04-19T12:04:05.93Z</time></trkpt><trkpt lat="45.3887881" lon="8.0124956"><ele>379.0</ele><time>2026-04-19T12:04:07.93Z</time></trkpt><trkpt lat="45.3888365" lon="8.0126189"><ele>379.0</ele><time>2026-04-19T12:04:11.929Z</time></trkpt><trkpt lat="45.388836" lon="8.0127192"><ele>379.0</ele><time>2026-04-19T12:04:13.929Z</time></trkpt><trkpt lat="45.3888532" lon="8.0128205"><ele>379.0</ele><time>2026-04-19T12:04:14.93Z</time></trkpt><trkpt lat="45.3889117" lon="8.0128986"><ele>381.2</ele><time>2026-04-19T12:04:15.93Z</time></trkpt><trkpt lat="45.3889602" lon="8.0129783"><ele>383.4</ele><time>2026-04-19T12:04:16.93Z</time></trkpt><trkpt lat="45.3890327" lon="8.0131074"><ele>385.6</ele><time>2026-04-19T12:04:18.93Z</time></trkpt><trkpt lat="45.389022" lon="8.0132663"><ele>387.8</ele><time>2026-04-19T12:04:20.929Z</time></trkpt><trkpt lat="45.3890195" lon="8.0133808"><ele>390.0</ele><time>2026-04-19T12:04:21.929Z</time></trkpt><trkpt lat="45.389014" lon="8.0134822"><ele>391.2</ele><time>2026-04-19T12:04:22.929Z</time></trkpt><trkpt lat="45.3890438" lon="8.013624"><ele>392.4</ele><time>2026-04-19T12:04:24.929Z</time></trkpt><trkpt lat="45.3890577" lon="8.0137965"><ele>393.6</ele><time>2026-04-19T12:04:26.929Z</time></trkpt><trkpt lat="45.3891156" lon="8.0139322"><ele>394.8</ele><time>2026-04-19T12:04:28.929Z</time></trkpt><trkpt lat="45.38918" lon="8.0140328"><ele>396.0</ele><time>2026-04-19T12:04:30.929Z</time></trkpt><trkpt lat="45.3892353" lon="8.0141304"><ele>397.1666666666667</ele><time>2026-04-19T12:04:32.929Z</time></trkpt><trkpt lat="45.3892991" lon="8.0142082"><ele>398.33333333333337</ele><time>2026-04-19T12:04:35.93Z</time></trkpt><trkpt lat="45.3893457" lon="8.0142692"><ele>399.5</ele><time>2026-04-19T12:04:38.929Z</time></trkpt><trkpt lat="45.3894014" lon="8.014338"><ele>400.6666666666667</ele><time>2026-04-19T12:04:43.93Z</time></trkpt><trkpt lat="45.3894376" lon="8.0144783"><ele>401.83333333333337</ele><time>2026-04-19T12:04:57.93Z</time></trkpt><trkpt lat="45.3894743" lon="8.0146241"><ele>403.0</ele><time>2026-04-19T12:04:59.93Z</time></trkpt><trkpt lat="45.3894925" lon="8.0147431"><ele>403.00000000000006</ele><time>2026-04-19T12:05:24.929Z</time></trkpt><trkpt lat="45.3894955" lon="8.0148419"><ele>403.0</ele><time>2026-04-19T12:05:27.929Z</time></trkpt><trkpt lat="45.3894399" lon="8.0149005"><ele>403.0</ele><time>2026-04-19T12:05:29.929Z</time></trkpt><trkpt lat="45.3893831" lon="8.0149667"><ele>403.0</ele><time>2026-04-19T12:05:31.93Z</time></trkpt><trkpt lat="45.3893349" lon="8.0150539"><ele>403.00000000000006</ele><time>2026-04-19T12:05:33.929Z</time></trkpt><trkpt lat="45.3893256" lon="8.0151543"><ele>403.0</ele><time>2026-04-19T12:05:34.929Z</time></trkpt><trkpt lat="45.3893468" lon="8.0153205"><ele>403.7142857142857</ele><time>2026-04-19T12:05:36.93Z</time></trkpt><trkpt lat="45.3893675" lon="8.0154409"><ele>404.4285714285714</ele><time>2026-04-19T12:05:37.929Z</time></trkpt><trkpt lat="45.3893828" lon="8.0155326"><ele>405.1428571428571</ele><time>2026-04-19T12:05:38.93Z</time></trkpt><trkpt lat="45.3894" lon="8.0156224"><ele>405.8571428571429</ele><time>2026-04-19T12:05:39.929Z</time></trkpt><trkpt lat="45.3894168" lon="8.0157121"><ele>406.57142857142856</ele><time>2026-04-19T12:05:40.929Z</time></trkpt><trkpt lat="45.3894546" lon="8.0157856"><ele>407.2857142857143</ele><time>2026-04-19T12:05:41.929Z</time></trkpt><trkpt lat="45.3895007" lon="8.015876"><ele>408.0</ele><time>2026-04-19T12:05:43.93Z</time></trkpt><trkpt lat="45.3895704" lon="8.0159731"><ele>409.2</ele><time>2026-04-19T12:05:45.93Z</time></trkpt><trkpt lat="45.3896401" lon="8.0160657"><ele>410.4</ele><time>2026-04-19T12:05:47.93Z</time></trkpt><trkpt lat="45.3897173" lon="8.0161437"><ele>411.59999999999997</ele><time>2026-04-19T12:05:49.929Z</time></trkpt><trkpt lat="45.3898054" lon="8.016243"><ele>412.79999999999995</ele><time>2026-04-19T12:05:51.929Z</time></trkpt><trkpt lat="45.3898648" lon="8.0162924"><ele>414.0</ele><time>2026-04-19T12:05:53.929Z</time></trkpt><trkpt lat="45.3899531" lon="8.0163272"><ele>411.3333333333333</ele><time>2026-04-19T12:05:55.93Z</time></trkpt><trkpt lat="45.3900254" lon="8.0163291"><ele>408.66666666666663</ele><time>2026-04-19T12:05:57.93Z</time></trkpt><trkpt lat="45.3901142" lon="8.0163031"><ele>406.0</ele><time>2026-04-19T12:05:59.93Z</time></trkpt><trkpt lat="45.3901947" lon="8.0162714"><ele>403.3333333333333</ele><time>2026-04-19T12:06:01.93Z</time></trkpt><trkpt lat="45.3902522" lon="8.0162212"><ele>400.66666666666663</ele><time>2026-04-19T12:06:03.93Z</time></trkpt><trkpt lat="45.3903574" lon="8.0161708"><ele>398.0</ele><time>2026-04-19T12:06:06.93Z</time></trkpt><trkpt lat="45.3904327" lon="8.0161363"><ele>396.79999999999995</ele><time>2026-04-19T12:06:08.929Z</time></trkpt><trkpt lat="45.3905127" lon="8.0161483"><ele>395.6</ele><time>2026-04-19T12:06:10.929Z</time></trkpt><trkpt lat="45.3905897" lon="8.0161998"><ele>394.4</ele><time>2026-04-19T12:06:12.929Z</time></trkpt><trkpt lat="45.3906439" lon="8.0162459"><ele>393.20000000000005</ele><time>2026-04-19T12:06:13.93Z</time></trkpt><trkpt lat="45.3907396" lon="8.0163135"><ele>392.0</ele><time>2026-04-19T12:06:15.929Z</time></trkpt><trkpt lat="45.3909745" lon="8.0164124"><ele>391.99999999999994</ele><time>2026-04-19T12:06:21.93Z</time></trkpt><trkpt lat="45.3910441" lon="8.0164489"><ele>392.0</ele><time>2026-04-19T12:06:22.929Z</time></trkpt><trkpt lat="45.391118" lon="8.0164771"><ele>392.0</ele><time>2026-04-19T12:06:23.93Z</time></trkpt><trkpt lat="45.3911846" lon="8.0164662"><ele>392.0</ele><time>2026-04-19T12:06:24.93Z</time></trkpt><trkpt lat="45.391253" lon="8.0164406"><ele>391.99999999999994</ele><time>2026-04-19T12:06:25.929Z</time></trkpt><trkpt lat="45.3913519" lon="8.0164233"><ele>392.0</ele><time>2026-04-19T12:06:27.929Z</time></trkpt><trkpt lat="45.3914148" lon="8.0164173"><ele>391.3333333333333</ele><time>2026-04-19T12:06:28.929Z</time></trkpt><trkpt lat="45.391537" lon="8.016404"><ele>390.66666666666663</ele><time>2026-04-19T12:06:30.931Z</time></trkpt><trkpt lat="45.3916478" lon="8.0163886"><ele>390.0</ele><time>2026-04-19T12:06:32.929Z</time></trkpt><trkpt lat="45.391716" lon="8.0163857"><ele>389.33333333333337</ele><time>2026-04-19T12:06:34.929Z</time></trkpt><trkpt lat="45.3917794" lon="8.0163974"><ele>388.6666666666667</ele><time>2026-04-19T12:06:36.929Z</time></trkpt><trkpt lat="45.3918513" lon="8.0163934"><ele>388.0</ele><time>2026-04-19T12:06:38.929Z</time></trkpt><trkpt lat="45.3919444" lon="8.0164128"><ele>388.0</ele><time>2026-04-19T12:06:40.931Z</time></trkpt><trkpt lat="45.3920648" lon="8.0164228"><ele>388.0</ele><time>2026-04-19T12:06:42.93Z</time></trkpt><trkpt lat="45.3921618" lon="8.0164582"><ele>388.0</ele><time>2026-04-19T12:06:44.929Z</time></trkpt><trkpt lat="45.3922657" lon="8.0165132"><ele>388.0</ele><time>2026-04-19T12:06:46.929Z</time></trkpt><trkpt lat="45.3923271" lon="8.0165613"><ele>388.0</ele><time>2026-04-19T12:06:47.929Z</time></trkpt><trkpt lat="45.3924081" lon="8.0166209"><ele>391.00000000000006</ele><time>2026-04-19T12:06:49.931Z</time></trkpt><trkpt lat="45.3924933" lon="8.0166643"><ele>394.0</ele><time>2026-04-19T12:06:51.929Z</time></trkpt><trkpt lat="45.3925551" lon="8.0166814"><ele>397.0</ele><time>2026-04-19T12:06:53.93Z</time></trkpt><trkpt lat="45.3926595" lon="8.0167366"><ele>400.0</ele><time>2026-04-19T12:06:55.929Z</time></trkpt><trkpt lat="45.3927367" lon="8.0167524"><ele>403.00000000000006</ele><time>2026-04-19T12:06:58.929Z</time></trkpt><trkpt lat="45.3928187" lon="8.0168056"><ele>406.0</ele><time>2026-04-19T12:07:00.93Z</time></trkpt><trkpt lat="45.3928867" lon="8.0168186"><ele>406.00000000000006</ele><time>2026-04-19T12:07:03.929Z</time></trkpt><trkpt lat="45.3929715" lon="8.0168044"><ele>406.0</ele><time>2026-04-19T12:09:06.929Z</time></trkpt><trkpt lat="45.392898" lon="8.016845"><ele>406.0</ele><time>2026-04-19T12:09:25.929Z</time></trkpt><trkpt lat="45.3928099" lon="8.0168156"><ele>406.0</ele><time>2026-04-19T12:09:28.928Z</time></trkpt><trkpt lat="45.3927483" lon="8.0167786"><ele>406.00000000000006</ele><time>2026-04-19T12:09:30.928Z</time></trkpt><trkpt lat="45.3926685" lon="8.0167547"><ele>406.0</ele><time>2026-04-19T12:09:32.928Z</time></trkpt><trkpt lat="45.3925659" lon="8.0166967"><ele>406.00000000000006</ele><time>2026-04-19T12:09:34.928Z</time></trkpt><trkpt lat="45.3924622" lon="8.0166553"><ele>406.0</ele><time>2026-04-19T12:09:36.928Z</time></trkpt><trkpt lat="45.392355" lon="8.0165921"><ele>406.0</ele><time>2026-04-19T12:09:38.928Z</time></trkpt><trkpt lat="45.3922903" lon="8.0165268"><ele>406.0</ele><time>2026-04-19T12:09:39.928Z</time></trkpt><trkpt lat="45.3922232" lon="8.0164859"><ele>406.00000000000006</ele><time>2026-04-19T12:09:40.929Z</time></trkpt><trkpt lat="45.3921638" lon="8.0164536"><ele>406.0</ele><time>2026-04-19T12:09:41.929Z</time></trkpt><trkpt lat="45.3920411" lon="8.0164632"><ele>403.00000000000006</ele><time>2026-04-19T12:09:43.929Z</time></trkpt><trkpt lat="45.3919376" lon="8.0164344"><ele>400.0</ele><time>2026-04-19T12:09:45.929Z</time></trkpt><trkpt lat="45.3918734" lon="8.0164249"><ele>397.0</ele><time>2026-04-19T12:09:46.928Z</time></trkpt><trkpt lat="45.3917974" lon="8.0164181"><ele>394.0</ele><time>2026-04-19T12:09:47.929Z</time></trkpt><trkpt lat="45.3916872" lon="8.0164118"><ele>391.00000000000006</ele><time>2026-04-19T12:09:49.929Z</time></trkpt><trkpt lat="45.3916147" lon="8.0164212"><ele>388.0</ele><time>2026-04-19T12:09:50.929Z</time></trkpt><trkpt lat="45.3915204" lon="8.0164376"><ele>388.00000000000006</ele><time>2026-04-19T12:09:51.93Z</time></trkpt><trkpt lat="45.3914167" lon="8.0164594"><ele>388.0</ele><time>2026-04-19T12:09:52.93Z</time></trkpt><trkpt lat="45.3913376" lon="8.0164859"><ele>388.0</ele><time>2026-04-19T12:09:53.93Z</time></trkpt><trkpt lat="45.3912703" lon="8.016507"><ele>388.0</ele><time>2026-04-19T12:09:54.928Z</time></trkpt><trkpt lat="45.3911493" lon="8.0164972"><ele>388.00000000000006</ele><time>2026-04-19T12:09:56.928Z</time></trkpt><trkpt lat="45.3910808" lon="8.0164776"><ele>388.0</ele><time>2026-04-19T12:09:57.929Z</time></trkpt><trkpt lat="45.3909484" lon="8.0164242"><ele>388.79999999999995</ele><time>2026-04-19T12:09:59.929Z</time></trkpt><trkpt lat="45.3908532" lon="8.0163878"><ele>389.6</ele><time>2026-04-19T12:10:01.928Z</time></trkpt><trkpt lat="45.3907278" lon="8.016327"><ele>390.4</ele><time>2026-04-19T12:10:03.928Z</time></trkpt><trkpt lat="45.3906619" lon="8.0162773"><ele>391.20000000000005</ele><time>2026-04-19T12:10:04.929Z</time></trkpt><trkpt lat="45.3905986" lon="8.0162124"><ele>392.0</ele><time>2026-04-19T12:10:05.929Z</time></trkpt><trkpt lat="45.3904962" lon="8.0161815"><ele>393.20000000000005</ele><time>2026-04-19T12:10:07.929Z</time></trkpt><trkpt lat="45.39037" lon="8.0162195"><ele>394.4</ele><time>2026-04-19T12:10:09.929Z</time></trkpt><trkpt lat="45.3902802" lon="8.0163199"><ele>395.6</ele><time>2026-04-19T12:10:11.929Z</time></trkpt><trkpt lat="45.3901854" lon="8.0163889"><ele>396.79999999999995</ele><time>2026-04-19T12:10:13.929Z</time></trkpt><trkpt lat="45.3900963" lon="8.0163737"><ele>398.0</ele><time>2026-04-19T12:10:15.929Z</time></trkpt><trkpt lat="45.3899765" lon="8.0163533"><ele>398.0</ele><time>2026-04-19T12:10:17.929Z</time></trkpt><trkpt lat="45.3899106" lon="8.016329"><ele>398.0</ele><time>2026-04-19T12:10:19.929Z</time></trkpt><trkpt lat="45.3898351" lon="8.0162643"><ele>398.0</ele><time>2026-04-19T12:10:21.928Z</time></trkpt><trkpt lat="45.3897184" lon="8.016132"><ele>398.0</ele><time>2026-04-19T12:10:23.928Z</time></trkpt><trkpt lat="45.3896287" lon="8.0160431"><ele>398.0</ele><time>2026-04-19T12:10:24.928Z</time></trkpt><trkpt lat="45.3895701" lon="8.0159724"><ele>399.4285714285714</ele><time>2026-04-19T12:10:25.928Z</time></trkpt><trkpt lat="45.3895183" lon="8.0159006"><ele>400.85714285714283</ele><time>2026-04-19T12:10:26.928Z</time></trkpt><trkpt lat="45.3894705" lon="8.0158139"><ele>402.2857142857143</ele><time>2026-04-19T12:10:27.93Z</time></trkpt><trkpt lat="45.3894148" lon="8.0157208"><ele>403.71428571428567</ele><time>2026-04-19T12:10:28.928Z</time></trkpt><trkpt lat="45.3894222" lon="8.0156158"><ele>405.14285714285717</ele><time>2026-04-19T12:10:29.929Z</time></trkpt><trkpt lat="45.389411" lon="8.0155133"><ele>406.57142857142856</ele><time>2026-04-19T12:10:30.929Z</time></trkpt><trkpt lat="45.3894094" lon="8.0154236"><ele>408.0</ele><time>2026-04-19T12:10:31.929Z</time></trkpt><trkpt lat="45.3893874" lon="8.0153385"><ele>408.0</ele><time>2026-04-19T12:10:32.928Z</time></trkpt><trkpt lat="45.3893899" lon="8.015195"><ele>408.0</ele><time>2026-04-19T12:10:34.929Z</time></trkpt><trkpt lat="45.3893637" lon="8.0150953"><ele>408.0</ele><time>2026-04-19T12:10:37.929Z</time></trkpt><trkpt lat="45.3893996" lon="8.0150001"><ele>408.0</ele><time>2026-04-19T12:13:21.928Z</time></trkpt><trkpt lat="45.3894513" lon="8.0149232"><ele>408.0</ele><time>2026-04-19T12:13:23.928Z</time></trkpt><trkpt lat="45.3894858" lon="8.0148039"><ele>408.0</ele><time>2026-04-19T12:13:25.928Z</time></trkpt><trkpt lat="45.3894928" lon="8.0146272"><ele>407.0</ele><time>2026-04-19T12:13:27.929Z</time></trkpt><trkpt lat="45.3894448" lon="8.0145118"><ele>406.0</ele><time>2026-04-19T12:13:28.929Z</time></trkpt><trkpt lat="45.3894041" lon="8.0143737"><ele>405.0</ele><time>2026-04-19T12:13:29.929Z</time></trkpt><trkpt lat="45.389331" lon="8.0142922"><ele>404.0</ele><time>2026-04-19T12:13:30.928Z</time></trkpt><trkpt lat="45.3892716" lon="8.0142013"><ele>403.0</ele><time>2026-04-19T12:13:31.928Z</time></trkpt><trkpt lat="45.3892354" lon="8.0141083"><ele>401.59999999999997</ele><time>2026-04-19T12:13:33.928Z</time></trkpt><trkpt lat="45.3891671" lon="8.0140005"><ele>400.2</ele><time>2026-04-19T12:13:35.929Z</time></trkpt><trkpt lat="45.3891099" lon="8.0139384"><ele>398.8</ele><time>2026-04-19T12:13:37.928Z</time></trkpt><trkpt lat="45.3890577" lon="8.0138352"><ele>397.4</ele><time>2026-04-19T12:13:40.928Z</time></trkpt><trkpt lat="45.3890311" lon="8.0137228"><ele>396.0</ele><time>2026-04-19T12:13:43.929Z</time></trkpt><trkpt lat="45.3890193" lon="8.0135565"><ele>396.0</ele><time>2026-04-19T12:13:45.93Z</time></trkpt><trkpt lat="45.3890117" lon="8.0134644"><ele>396.0</ele><time>2026-04-19T12:13:46.929Z</time></trkpt><trkpt lat="45.3890144" lon="8.0133643"><ele>396.0</ele><time>2026-04-19T12:13:47.929Z</time></trkpt><trkpt lat="45.3889975" lon="8.0132517"><ele>396.0</ele><time>2026-04-19T12:13:49.928Z</time></trkpt><trkpt lat="45.3889836" lon="8.0130974"><ele>396.0</ele><time>2026-04-19T12:13:51.929Z</time></trkpt><trkpt lat="45.3889258" lon="8.0129574"><ele>396.0</ele><time>2026-04-19T12:13:53.928Z</time></trkpt><trkpt lat="45.3888764" lon="8.0128551"><ele>394.8333333333333</ele><time>2026-04-19T12:13:55.928Z</time></trkpt><trkpt lat="45.388828" lon="8.0127416"><ele>393.66666666666663</ele><time>2026-04-19T12:13:57.929Z</time></trkpt><trkpt lat="45.3888396" lon="8.0126412"><ele>392.5</ele><time>2026-04-19T12:13:59.929Z</time></trkpt><trkpt lat="45.3888225" lon="8.0125136"><ele>391.3333333333333</ele><time>2026-04-19T12:14:24.928Z</time></trkpt><trkpt lat="45.3887415" lon="8.012455"><ele>390.16666666666663</ele><time>2026-04-19T12:14:27.929Z</time></trkpt><trkpt lat="45.3886893" lon="8.0123771"><ele>389.0</ele><time>2026-04-19T12:14:28.928Z</time></trkpt><trkpt lat="45.3886399" lon="8.0122155"><ele>387.3333333333333</ele><time>2026-04-19T12:14:30.929Z</time></trkpt><trkpt lat="45.3885789" lon="8.0121181"><ele>385.66666666666663</ele><time>2026-04-19T12:14:32.929Z</time></trkpt><trkpt lat="45.3885158" lon="8.012061"><ele>384.0</ele><time>2026-04-19T12:14:34.928Z</time></trkpt><trkpt lat="45.388483" lon="8.0119454"><ele>382.3333333333333</ele><time>2026-04-19T12:14:37.929Z</time></trkpt><trkpt lat="45.3884194" lon="8.0118383"><ele>380.66666666666663</ele><time>2026-04-19T12:14:40.928Z</time></trkpt><trkpt lat="45.3883572" lon="8.0118105"><ele>379.0</ele><time>2026-04-19T12:14:42.928Z</time></trkpt><trkpt lat="45.3882829" lon="8.0118212"><ele>379.0</ele><time>2026-04-19T12:14:46.93Z</time></trkpt><trkpt lat="45.38822" lon="8.0118061"><ele>379.0</ele><time>2026-04-19T12:14:50.927Z</time></trkpt><trkpt lat="45.3881469" lon="8.0118206"><ele>379.0</ele><time>2026-04-19T12:14:54.93Z</time></trkpt><trkpt lat="45.3880856" lon="8.011892"><ele>379.0</ele><time>2026-04-19T12:14:56.93Z</time></trkpt><trkpt lat="45.388013" lon="8.0119636"><ele>379.0</ele><time>2026-04-19T12:14:57.928Z</time></trkpt><trkpt lat="45.387961" lon="8.01202"><ele>379.0</ele><time>2026-04-19T12:14:58.929Z</time></trkpt><trkpt lat="45.3878551" lon="8.0120431"><ele>379.16666666666663</ele><time>2026-04-19T12:15:00.928Z</time></trkpt><trkpt lat="45.3877868" lon="8.0120115"><ele>379.3333333333333</ele><time>2026-04-19T12:15:01.927Z</time></trkpt><trkpt lat="45.3876944" lon="8.0119363"><ele>379.5</ele><time>2026-04-19T12:15:02.928Z</time></trkpt><trkpt lat="45.3876285" lon="8.0118857"><ele>379.6666666666667</ele><time>2026-04-19T12:15:03.929Z</time></trkpt><trkpt lat="45.3875672" lon="8.0118417"><ele>379.83333333333337</ele><time>2026-04-19T12:15:04.928Z</time></trkpt><trkpt lat="45.3875017" lon="8.0117863"><ele>380.0</ele><time>2026-04-19T12:15:06.928Z</time></trkpt><trkpt lat="45.3874339" lon="8.0117089"><ele>379.5</ele><time>2026-04-19T12:15:09.929Z</time></trkpt><trkpt lat="45.3873504" lon="8.0116213"><ele>379.0</ele><time>2026-04-19T12:15:12.928Z</time></trkpt><trkpt lat="45.3872909" lon="8.0115723"><ele>378.5</ele><time>2026-04-19T12:15:14.928Z</time></trkpt><trkpt lat="45.3872202" lon="8.0115214"><ele>378.0</ele><time>2026-04-19T12:15:16.928Z</time></trkpt><trkpt lat="45.3871538" lon="8.011536"><ele>377.5</ele><time>2026-04-19T12:15:18.927Z</time></trkpt><trkpt lat="45.3870806" lon="8.0116153"><ele>377.0</ele><time>2026-04-19T12:15:20.927Z</time></trkpt><trkpt lat="45.3870258" lon="8.0116667"><ele>377.0</ele><time>2026-04-19T12:15:23.928Z</time></trkpt><trkpt lat="45.3869584" lon="8.0117459"><ele>377.0</ele><time>2026-04-19T12:16:22.928Z</time></trkpt><trkpt lat="45.3869032" lon="8.011864"><ele>377.0</ele><time>2026-04-19T12:16:25.928Z</time></trkpt><trkpt lat="45.3869585" lon="8.0117093"><ele>377.0</ele><time>2026-04-19T12:16:33.927Z</time></trkpt><trkpt lat="45.3870224" lon="8.0116134"><ele>377.0</ele><time>2026-04-19T12:16:35.927Z</time></trkpt><trkpt lat="45.3870654" lon="8.011538"><ele>377.4285714285714</ele><time>2026-04-19T12:16:37.927Z</time></trkpt><trkpt lat="45.3871241" lon="8.0114869"><ele>377.85714285714283</ele><time>2026-04-19T12:16:39.927Z</time></trkpt><trkpt lat="45.3872054" lon="8.0114928"><ele>378.2857142857143</ele><time>2026-04-19T12:16:42.929Z</time></trkpt><trkpt lat="45.3872454" lon="8.0115638"><ele>378.71428571428567</ele><time>2026-04-19T12:16:44.927Z</time></trkpt><trkpt lat="45.3873117" lon="8.0116212"><ele>379.14285714285717</ele><time>2026-04-19T12:16:45.929Z</time></trkpt><trkpt lat="45.3873773" lon="8.0116958"><ele>379.57142857142856</ele><time>2026-04-19T12:16:46.927Z</time></trkpt><trkpt lat="45.3874263" lon="8.011756"><ele>380.0</ele><time>2026-04-19T12:16:47.927Z</time></trkpt><trkpt lat="45.3875041" lon="8.0118317"><ele>380.0</ele><time>2026-04-19T12:16:49.927Z</time></trkpt><trkpt lat="45.3876364" lon="8.0119256"><ele>380.0</ele><time>2026-04-19T12:16:51.928Z</time></trkpt><trkpt lat="45.3877062" lon="8.0119838"><ele>380.0</ele><time>2026-04-19T12:16:53.928Z</time></trkpt><trkpt lat="45.3877662" lon="8.0120224"><ele>380.0</ele><time>2026-04-19T12:16:55.928Z</time></trkpt><trkpt lat="45.387848" lon="8.0119666"><ele>380.0</ele><time>2026-04-19T12:16:57.928Z</time></trkpt><trkpt lat="45.3879531" lon="8.0118963"><ele>379.83333333333337</ele><time>2026-04-19T12:16:59.928Z</time></trkpt><trkpt lat="45.388028" lon="8.0118419"><ele>379.6666666666667</ele><time>2026-04-19T12:17:01.927Z</time></trkpt><trkpt lat="45.3880948" lon="8.0117941"><ele>379.5</ele><time>2026-04-19T12:17:03.928Z</time></trkpt><trkpt lat="45.3881511" lon="8.0117223"><ele>379.3333333333333</ele><time>2026-04-19T12:17:18.927Z</time></trkpt><trkpt lat="45.3881101" lon="8.0116379"><ele>379.16666666666663</ele><time>2026-04-19T12:17:21.927Z</time></trkpt><trkpt lat="45.388005" lon="8.0115349"><ele>379.0</ele><time>2026-04-19T12:17:23.928Z</time></trkpt><trkpt lat="45.3879324" lon="8.0114673"><ele>377.5</ele><time>2026-04-19T12:17:24.927Z</time></trkpt><trkpt lat="45.3878443" lon="8.0113947"><ele>376.0</ele><time>2026-04-19T12:17:25.928Z</time></trkpt><trkpt lat="45.3877942" lon="8.0113116"><ele>374.5</ele><time>2026-04-19T12:17:26.928Z</time></trkpt><trkpt lat="45.3877402" lon="8.0112352"><ele>373.0</ele><time>2026-04-19T12:17:27.927Z</time></trkpt><trkpt lat="45.3876761" lon="8.0111797"><ele>371.5</ele><time>2026-04-19T12:17:28.927Z</time></trkpt><trkpt lat="45.3876111" lon="8.0111056"><ele>370.0</ele><time>2026-04-19T12:17:29.927Z</time></trkpt><trkpt lat="45.3875549" lon="8.0110271"><ele>370.0</ele><time>2026-04-19T12:17:30.928Z</time></trkpt><trkpt lat="45.3874905" lon="8.0109476"><ele>370.0</ele><time>2026-04-19T12:17:31.927Z</time></trkpt><trkpt lat="45.3874198" lon="8.01087"><ele>370.0</ele><time>2026-04-19T12:17:32.927Z</time></trkpt><trkpt lat="45.3873503" lon="8.0107819"><ele>370.0</ele><time>2026-04-19T12:17:33.927Z</time></trkpt><trkpt lat="45.3872904" lon="8.010704"><ele>370.0</ele><time>2026-04-19T12:17:34.927Z</time></trkpt><trkpt lat="45.3872289" lon="8.0106216"><ele>370.0</ele><time>2026-04-19T12:17:35.927Z</time></trkpt><trkpt lat="45.3871646" lon="8.0105378"><ele>369.16666666666663</ele><time>2026-04-19T12:17:36.927Z</time></trkpt><trkpt lat="45.3871023" lon="8.0104472"><ele>368.3333333333333</ele><time>2026-04-19T12:17:37.928Z</time></trkpt><trkpt lat="45.387044" lon="8.0103552"><ele>367.5</ele><time>2026-04-19T12:17:38.927Z</time></trkpt><trkpt lat="45.3869828" lon="8.0102719"><ele>366.6666666666667</ele><time>2026-04-19T12:17:39.927Z</time></trkpt><trkpt lat="45.3869155" lon="8.0101799"><ele>365.83333333333337</ele><time>2026-04-19T12:17:40.927Z</time></trkpt><trkpt lat="45.3868471" lon="8.0100881"><ele>365.0</ele><time>2026-04-19T12:17:41.928Z</time></trkpt><trkpt lat="45.3867666" lon="8.0099973"><ele>364.8</ele><time>2026-04-19T12:17:42.928Z</time></trkpt><trkpt lat="45.3866858" lon="8.0099083"><ele>364.6</ele><time>2026-04-19T12:17:43.927Z</time></trkpt><trkpt lat="45.3866061" lon="8.0098211"><ele>364.4</ele><time>2026-04-19T12:17:44.927Z</time></trkpt><trkpt lat="45.3865259" lon="8.009739"><ele>364.2</ele><time>2026-04-19T12:17:45.927Z</time></trkpt><trkpt lat="45.3864493" lon="8.0096401"><ele>364.0</ele><time>2026-04-19T12:17:46.928Z</time></trkpt><trkpt lat="45.3863739" lon="8.0095244"><ele>363.0</ele><time>2026-04-19T12:17:47.928Z</time></trkpt><trkpt lat="45.3862949" lon="8.009388"><ele>362.0</ele><time>2026-04-19T12:17:48.927Z</time></trkpt><trkpt lat="45.3862318" lon="8.0092673"><ele>361.0</ele><time>2026-04-19T12:17:49.928Z</time></trkpt><trkpt lat="45.3861776" lon="8.0091597"><ele>360.0</ele><time>2026-04-19T12:17:50.927Z</time></trkpt><trkpt lat="45.3861268" lon="8.0090587"><ele>359.0</ele><time>2026-04-19T12:17:51.928Z</time></trkpt><trkpt lat="45.3860791" lon="8.0089554"><ele>358.8571428571429</ele><time>2026-04-19T12:17:52.927Z</time></trkpt><trkpt lat="45.3860427" lon="8.0088516"><ele>358.7142857142857</ele><time>2026-04-19T12:17:53.928Z</time></trkpt><trkpt lat="45.3860102" lon="8.0087539"><ele>358.57142857142856</ele><time>2026-04-19T12:17:54.928Z</time></trkpt><trkpt lat="45.385983" lon="8.0086626"><ele>358.42857142857144</ele><time>2026-04-19T12:17:55.928Z</time></trkpt><trkpt lat="45.3859447" lon="8.0085687"><ele>358.2857142857143</ele><time>2026-04-19T12:17:56.927Z</time></trkpt><trkpt lat="45.3859051" lon="8.0084814"><ele>358.14285714285717</ele><time>2026-04-19T12:17:57.928Z</time></trkpt><trkpt lat="45.3858766" lon="8.0083999"><ele>358.0</ele><time>2026-04-19T12:17:58.927Z</time></trkpt><trkpt lat="45.3858824" lon="8.0082642"><ele>358.3333333333333</ele><time>2026-04-19T12:18:00.927Z</time></trkpt><trkpt lat="45.3859593" lon="8.008189"><ele>358.66666666666663</ele><time>2026-04-19T12:18:02.928Z</time></trkpt><trkpt lat="45.3860517" lon="8.0081324"><ele>359.0</ele><time>2026-04-19T12:18:04.929Z</time></trkpt><trkpt lat="45.3861381" lon="8.0080737"><ele>359.3333333333333</ele><time>2026-04-19T12:18:06.928Z</time></trkpt><trkpt lat="45.3862036" lon="8.0080407"><ele>359.6666666666667</ele><time>2026-04-19T12:18:08.928Z</time></trkpt><trkpt lat="45.3862639" lon="8.008005"><ele>360.0</ele><time>2026-04-19T12:18:11.927Z</time></trkpt><trkpt lat="45.3861949" lon="8.0080239"><ele>360.0</ele><time>2026-04-19T12:19:16.927Z</time></trkpt><trkpt lat="45.3861169" lon="8.0080347"><ele>360.0</ele><time>2026-04-19T12:19:19.928Z</time></trkpt><trkpt lat="45.3862252" lon="8.0080352"><ele>360.0</ele><time>2026-04-19T12:19:55.927Z</time></trkpt><trkpt lat="45.386311" lon="8.0080015"><ele>360.0</ele><time>2026-04-19T12:19:56.928Z</time></trkpt><trkpt lat="45.3864178" lon="8.0079781"><ele>360.0</ele><time>2026-04-19T12:19:57.927Z</time></trkpt><trkpt lat="45.3865352" lon="8.0079729"><ele>358.0</ele><time>2026-04-19T12:19:58.928Z</time></trkpt><trkpt lat="45.386686" lon="8.0079878"><ele>356.0</ele><time>2026-04-19T12:19:59.927Z</time></trkpt><trkpt lat="45.386852" lon="8.008011"><ele>354.0</ele><time>2026-04-19T12:20:00.927Z</time></trkpt><trkpt lat="45.3870327" lon="8.0080407"><ele>351.6666666666667</ele><time>2026-04-19T12:20:01.928Z</time></trkpt><trkpt lat="45.3872041" lon="8.008071"><ele>349.33333333333337</ele><time>2026-04-19T12:20:02.929Z</time></trkpt><trkpt lat="45.3873776" lon="8.0080966"><ele>347.0</ele><time>2026-04-19T12:20:03.928Z</time></trkpt><trkpt lat="45.3875562" lon="8.0081318"><ele>347.0</ele><time>2026-04-19T12:20:04.928Z</time></trkpt><trkpt lat="45.3877295" lon="8.0081568"><ele>347.0</ele><time>2026-04-19T12:20:05.927Z</time></trkpt><trkpt lat="45.3879025" lon="8.0081907"><ele>347.0</ele><time>2026-04-19T12:20:06.928Z</time></trkpt><trkpt lat="45.3880667" lon="8.0082203"><ele>345.5</ele><time>2026-04-19T12:20:07.927Z</time></trkpt><trkpt lat="45.3882239" lon="8.0082448"><ele>344.0</ele><time>2026-04-19T12:20:08.928Z</time></trkpt><trkpt lat="45.3883694" lon="8.0082593"><ele>342.5</ele><time>2026-04-19T12:20:09.927Z</time></trkpt><trkpt lat="45.3884983" lon="8.0082643"><ele>341.0</ele><time>2026-04-19T12:20:10.928Z</time></trkpt><trkpt lat="45.3886107" lon="8.0082629"><ele>341.0</ele><time>2026-04-19T12:20:11.927Z</time></trkpt><trkpt lat="45.3887118" lon="8.008232"><ele>341.0</ele><time>2026-04-19T12:20:12.927Z</time></trkpt><trkpt lat="45.3887951" lon="8.0081938"><ele>341.0</ele><time>2026-04-19T12:20:13.927Z</time></trkpt><trkpt lat="45.3888554" lon="8.0081597"><ele>341.0</ele><time>2026-04-19T12:20:14.927Z</time></trkpt><trkpt lat="45.3889467" lon="8.0081275"><ele>341.0</ele><time>2026-04-19T12:20:16.927Z</time></trkpt><trkpt lat="45.3890102" lon="8.0081512"><ele>341.0</ele><time>2026-04-19T12:20:18.926Z</time></trkpt><trkpt lat="45.3891014" lon="8.0082017"><ele>341.6</ele><time>2026-04-19T12:20:21.927Z</time></trkpt><trkpt lat="45.3891626" lon="8.0082584"><ele>342.20000000000005</ele><time>2026-04-19T12:20:22.926Z</time></trkpt><trkpt lat="45.3892333" lon="8.0083205"><ele>342.79999999999995</ele><time>2026-04-19T12:20:23.928Z</time></trkpt><trkpt lat="45.3893157" lon="8.0084028"><ele>343.4</ele><time>2026-04-19T12:20:24.926Z</time></trkpt><trkpt lat="45.3894058" lon="8.0084925"><ele>344.0</ele><time>2026-04-19T12:20:25.926Z</time></trkpt><trkpt lat="45.3895045" lon="8.0086048"><ele>344.25</ele><time>2026-04-19T12:20:26.927Z</time></trkpt><trkpt lat="45.3896114" lon="8.0087195"><ele>344.5</ele><time>2026-04-19T12:20:27.926Z</time></trkpt><trkpt lat="45.3897191" lon="8.008844"><ele>344.75</ele><time>2026-04-19T12:20:28.927Z</time></trkpt><trkpt lat="45.3898214" lon="8.0089737"><ele>345.0</ele><time>2026-04-19T12:20:29.926Z</time></trkpt><trkpt lat="45.3899263" lon="8.0091014"><ele>345.5</ele><time>2026-04-19T12:20:30.926Z</time></trkpt><trkpt lat="45.390034" lon="8.0092315"><ele>346.0</ele><time>2026-04-19T12:20:31.928Z</time></trkpt><trkpt lat="45.3901483" lon="8.009372"><ele>346.5</ele><time>2026-04-19T12:20:32.927Z</time></trkpt><trkpt lat="45.3902601" lon="8.0095136"><ele>347.0</ele><time>2026-04-19T12:20:33.927Z</time></trkpt><trkpt lat="45.3903643" lon="8.0096441"><ele>347.0</ele><time>2026-04-19T12:20:34.927Z</time></trkpt><trkpt lat="45.390474" lon="8.0097742"><ele>347.0</ele><time>2026-04-19T12:20:35.927Z</time></trkpt><trkpt lat="45.3906081" lon="8.0098771"><ele>347.0</ele><time>2026-04-19T12:20:36.926Z</time></trkpt><trkpt lat="45.3907466" lon="8.0099625"><ele>347.0</ele><time>2026-04-19T12:20:37.927Z</time></trkpt><trkpt lat="45.3908917" lon="8.0100383"><ele>347.0</ele><time>2026-04-19T12:20:38.927Z</time></trkpt><trkpt lat="45.3910297" lon="8.0101141"><ele>347.0</ele><time>2026-04-19T12:20:39.928Z</time></trkpt><trkpt lat="45.3911672" lon="8.0101868"><ele>347.0</ele><time>2026-04-19T12:20:40.927Z</time></trkpt><trkpt lat="45.3913017" lon="8.01026"><ele>347.0</ele><time>2026-04-19T12:20:41.926Z</time></trkpt><trkpt lat="45.3914323" lon="8.010336"><ele>346.75</ele><time>2026-04-19T12:20:42.927Z</time></trkpt><trkpt lat="45.3915603" lon="8.0104174"><ele>346.5</ele><time>2026-04-19T12:20:43.927Z</time></trkpt><trkpt lat="45.3916903" lon="8.0105105"><ele>346.25</ele><time>2026-04-19T12:20:44.926Z</time></trkpt><trkpt lat="45.3918219" lon="8.0106121"><ele>346.0</ele><time>2026-04-19T12:20:45.927Z</time></trkpt><trkpt lat="45.3919564" lon="8.0107082"><ele>346.0</ele><time>2026-04-19T12:20:46.927Z</time></trkpt><trkpt lat="45.3920879" lon="8.0107894"><ele>346.0</ele><time>2026-04-19T12:20:47.926Z</time></trkpt><trkpt lat="45.3922145" lon="8.0108567"><ele>346.0</ele><time>2026-04-19T12:20:48.927Z</time></trkpt><trkpt lat="45.392337" lon="8.0109123"><ele>346.0</ele><time>2026-04-19T12:20:49.927Z</time></trkpt><trkpt lat="45.3924583" lon="8.0109452"><ele>346.0</ele><time>2026-04-19T12:20:50.926Z</time></trkpt><trkpt lat="45.392564" lon="8.0109642"><ele>346.0</ele><time>2026-04-19T12:20:51.926Z</time></trkpt><trkpt lat="45.3926578" lon="8.0109811"><ele>346.0</ele><time>2026-04-19T12:20:52.927Z</time></trkpt><trkpt lat="45.3927384" lon="8.0109968"><ele>346.0</ele><time>2026-04-19T12:20:53.926Z</time></trkpt><trkpt lat="45.3928079" lon="8.0110166"><ele>346.0</ele><time>2026-04-19T12:20:54.926Z</time></trkpt><trkpt lat="45.3928798" lon="8.0110437"><ele>346.0</ele><time>2026-04-19T12:21:05.926Z</time></trkpt><trkpt lat="45.392963" lon="8.0110256"><ele>345.20000000000005</ele><time>2026-04-19T12:21:13.928Z</time></trkpt><trkpt lat="45.3930709" lon="8.0109553"><ele>344.40000000000003</ele><time>2026-04-19T12:21:15.927Z</time></trkpt><trkpt lat="45.3931218" lon="8.0108871"><ele>343.6</ele><time>2026-04-19T12:21:16.927Z</time></trkpt><trkpt lat="45.393172" lon="8.0107841"><ele>342.8</ele><time>2026-04-19T12:21:17.927Z</time></trkpt><trkpt lat="45.3932275" lon="8.010678"><ele>342.0</ele><time>2026-04-19T12:21:18.927Z</time></trkpt><trkpt lat="45.3933095" lon="8.0105812"><ele>341.8</ele><time>2026-04-19T12:21:19.928Z</time></trkpt><trkpt lat="45.3934047" lon="8.0104897"><ele>341.6</ele><time>2026-04-19T12:21:20.926Z</time></trkpt><trkpt lat="45.3934977" lon="8.0104046"><ele>341.40000000000003</ele><time>2026-04-19T12:21:21.926Z</time></trkpt><trkpt lat="45.3935886" lon="8.0103232"><ele>341.20000000000005</ele><time>2026-04-19T12:21:22.927Z</time></trkpt><trkpt lat="45.3936796" lon="8.0102538"><ele>341.0</ele><time>2026-04-19T12:21:23.926Z</time></trkpt><trkpt lat="45.3937616" lon="8.0101925"><ele>341.0</ele><time>2026-04-19T12:21:24.927Z</time></trkpt><trkpt lat="45.3938327" lon="8.0101416"><ele>341.0</ele><time>2026-04-19T12:21:25.926Z</time></trkpt><trkpt lat="45.3939339" lon="8.0100692"><ele>341.0</ele><time>2026-04-19T12:21:27.927Z</time></trkpt><trkpt lat="45.3939059" lon="8.009979"><ele>341.0</ele><time>2026-04-19T12:21:50.926Z</time></trkpt><trkpt lat="45.3938691" lon="8.0098914"><ele>341.0</ele><time>2026-04-19T12:21:51.926Z</time></trkpt><trkpt lat="45.3938377" lon="8.009791"><ele>341.0</ele><time>2026-04-19T12:21:52.926Z</time></trkpt><trkpt lat="45.3938045" lon="8.0096634"><ele>340.6</ele><time>2026-04-19T12:21:53.927Z</time></trkpt><trkpt lat="45.3937729" lon="8.0095229"><ele>340.20000000000005</ele><time>2026-04-19T12:21:54.927Z</time></trkpt><trkpt lat="45.3937373" lon="8.0093681"><ele>339.79999999999995</ele><time>2026-04-19T12:21:55.926Z</time></trkpt><trkpt lat="45.3937062" lon="8.0092199"><ele>339.4</ele><time>2026-04-19T12:21:56.927Z</time></trkpt><trkpt lat="45.3936826" lon="8.0090817"><ele>339.0</ele><time>2026-04-19T12:21:57.926Z</time></trkpt><trkpt lat="45.3936598" lon="8.0089632"><ele>339.0</ele><time>2026-04-19T12:21:58.926Z</time></trkpt><trkpt lat="45.3936346" lon="8.0088599"><ele>339.0</ele><time>2026-04-19T12:21:59.928Z</time></trkpt><trkpt lat="45.3935928" lon="8.008778"><ele>339.0</ele><time>2026-04-19T12:22:00.926Z</time></trkpt><trkpt lat="45.3935327" lon="8.0087176"><ele>339.0</ele><time>2026-04-19T12:22:01.926Z</time></trkpt><trkpt lat="45.3934709" lon="8.0086556"><ele>339.0</ele><time>2026-04-19T12:22:02.926Z</time></trkpt><trkpt lat="45.393414" lon="8.0085867"><ele>339.0</ele><time>2026-04-19T12:22:03.927Z</time></trkpt><trkpt lat="45.3933972" lon="8.008456"><ele>337.6</ele><time>2026-04-19T12:22:04.927Z</time></trkpt><trkpt lat="45.3933703" lon="8.0083152"><ele>336.2</ele><time>2026-04-19T12:22:05.926Z</time></trkpt><trkpt lat="45.3933435" lon="8.0081783"><ele>334.8</ele><time>2026-04-19T12:22:06.926Z</time></trkpt><trkpt lat="45.393313" lon="8.0080393"><ele>333.40000000000003</ele><time>2026-04-19T12:22:07.927Z</time></trkpt><trkpt lat="45.3932811" lon="8.0079075"><ele>332.0</ele><time>2026-04-19T12:22:08.927Z</time></trkpt><trkpt lat="45.393248" lon="8.0077833"><ele>332.0</ele><time>2026-04-19T12:22:09.927Z</time></trkpt><trkpt lat="45.3932179" lon="8.007667"><ele>332.0</ele><time>2026-04-19T12:22:10.926Z</time></trkpt><trkpt lat="45.3931911" lon="8.0075612"><ele>332.0</ele><time>2026-04-19T12:22:11.927Z</time></trkpt><trkpt lat="45.3931438" lon="8.0074096"><ele>332.0</ele><time>2026-04-19T12:22:13.926Z</time></trkpt><trkpt lat="45.3931133" lon="8.0073162"><ele>332.0</ele><time>2026-04-19T12:22:15.927Z</time></trkpt><trkpt lat="45.3930839" lon="8.0072312"><ele>332.0</ele><time>2026-04-19T12:22:28.927Z</time></trkpt><trkpt lat="45.3930707" lon="8.0070634"><ele>331.0</ele><time>2026-04-19T12:22:30.926Z</time></trkpt><trkpt lat="45.3931565" lon="8.0069019"><ele>330.0</ele><time>2026-04-19T12:22:31.926Z</time></trkpt><trkpt lat="45.3932334" lon="8.006749"><ele>329.0</ele><time>2026-04-19T12:22:32.926Z</time></trkpt><trkpt lat="45.3932916" lon="8.0065825"><ele>328.0</ele><time>2026-04-19T12:22:33.927Z</time></trkpt><trkpt lat="45.3933563" lon="8.0064257"><ele>327.2</ele><time>2026-04-19T12:22:34.926Z</time></trkpt><trkpt lat="45.3934094" lon="8.0062698"><ele>326.4</ele><time>2026-04-19T12:22:35.925Z</time></trkpt><trkpt lat="45.3934618" lon="8.0061253"><ele>325.59999999999997</ele><time>2026-04-19T12:22:36.926Z</time></trkpt><trkpt lat="45.3935093" lon="8.0059902"><ele>324.79999999999995</ele><time>2026-04-19T12:22:37.926Z</time></trkpt><trkpt lat="45.3935579" lon="8.0058603"><ele>324.0</ele><time>2026-04-19T12:22:38.925Z</time></trkpt><trkpt lat="45.3936034" lon="8.005739"><ele>322.8333333333333</ele><time>2026-04-19T12:22:39.925Z</time></trkpt><trkpt lat="45.3936591" lon="8.0056271"><ele>321.6666666666667</ele><time>2026-04-19T12:22:40.926Z</time></trkpt><trkpt lat="45.3937214" lon="8.0055299"><ele>320.5</ele><time>2026-04-19T12:22:41.926Z</time></trkpt><trkpt lat="45.3937851" lon="8.0054406"><ele>319.33333333333337</ele><time>2026-04-19T12:22:42.925Z</time></trkpt><trkpt lat="45.3938478" lon="8.0053635"><ele>318.1666666666667</ele><time>2026-04-19T12:22:43.926Z</time></trkpt><trkpt lat="45.3939034" lon="8.0052947"><ele>317.0</ele><time>2026-04-19T12:22:44.926Z</time></trkpt><trkpt lat="45.3939707" lon="8.0052067"><ele>316.83333333333337</ele><time>2026-04-19T12:22:46.926Z</time></trkpt><trkpt lat="45.3940423" lon="8.0051229"><ele>316.6666666666667</ele><time>2026-04-19T12:22:49.926Z</time></trkpt><trkpt lat="45.3941005" lon="8.0050558"><ele>316.5</ele><time>2026-04-19T12:22:51.927Z</time></trkpt><trkpt lat="45.3941859" lon="8.0049568"><ele>316.3333333333333</ele><time>2026-04-19T12:22:53.925Z</time></trkpt><trkpt lat="45.3942377" lon="8.0048996"><ele>316.16666666666663</ele><time>2026-04-19T12:22:54.925Z</time></trkpt><trkpt lat="45.3942976" lon="8.0048333"><ele>316.0</ele><time>2026-04-19T12:22:55.925Z</time></trkpt><trkpt lat="45.394364" lon="8.0047611"><ele>315.6</ele><time>2026-04-19T12:22:56.925Z</time></trkpt><trkpt lat="45.3944303" lon="8.0046718"><ele>315.20000000000005</ele><time>2026-04-19T12:22:57.925Z</time></trkpt><trkpt lat="45.394495" lon="8.0045831"><ele>314.79999999999995</ele><time>2026-04-19T12:22:58.925Z</time></trkpt><trkpt lat="45.3945605" lon="8.0044885"><ele>314.4</ele><time>2026-04-19T12:22:59.925Z</time></trkpt><trkpt lat="45.3946322" lon="8.0043899"><ele>314.0</ele><time>2026-04-19T12:23:00.925Z</time></trkpt><trkpt lat="45.3947205" lon="8.0042832"><ele>314.0</ele><time>2026-04-19T12:23:01.926Z</time></trkpt><trkpt lat="45.3948176" lon="8.0041843"><ele>314.0</ele><time>2026-04-19T12:23:02.925Z</time></trkpt><trkpt lat="45.39491" lon="8.0040891"><ele>314.0</ele><time>2026-04-19T12:23:03.926Z</time></trkpt><trkpt lat="45.394997" lon="8.0039871"><ele>314.0</ele><time>2026-04-19T12:23:04.926Z</time></trkpt><trkpt lat="45.3950739" lon="8.0038719"><ele>312.75</ele><time>2026-04-19T12:23:05.925Z</time></trkpt><trkpt lat="45.3951512" lon="8.003749"><ele>311.5</ele><time>2026-04-19T12:23:06.925Z</time></trkpt><trkpt lat="45.3952505" lon="8.0036592"><ele>310.25</ele><time>2026-04-19T12:23:07.926Z</time></trkpt><trkpt lat="45.395343" lon="8.0035842"><ele>309.0</ele><time>2026-04-19T12:23:08.925Z</time></trkpt><trkpt lat="45.3954694" lon="8.0035374"><ele>306.75</ele><time>2026-04-19T12:23:09.925Z</time></trkpt><trkpt lat="45.3955947" lon="8.0035525"><ele>304.5</ele><time>2026-04-19T12:23:10.926Z</time></trkpt><trkpt lat="45.3957155" lon="8.0035751"><ele>302.25</ele><time>2026-04-19T12:23:11.925Z</time></trkpt><trkpt lat="45.3958366" lon="8.0035905"><ele>300.0</ele><time>2026-04-19T12:23:12.925Z</time></trkpt><trkpt lat="45.3959605" lon="8.0036088"><ele>300.0</ele><time>2026-04-19T12:23:13.925Z</time></trkpt><trkpt lat="45.396081" lon="8.0035977"><ele>300.0</ele><time>2026-04-19T12:23:14.925Z</time></trkpt><trkpt lat="45.3961876" lon="8.0035995"><ele>300.0</ele><time>2026-04-19T12:23:15.925Z</time></trkpt><trkpt lat="45.3962751" lon="8.0036442"><ele>300.0</ele><time>2026-04-19T12:23:16.927Z</time></trkpt><trkpt lat="45.3964042" lon="8.0036758"><ele>297.25</ele><time>2026-04-19T12:23:17.925Z</time></trkpt><trkpt lat="45.3965256" lon="8.0037143"><ele>294.5</ele><time>2026-04-19T12:23:18.926Z</time></trkpt><trkpt lat="45.3966381" lon="8.0037471"><ele>291.75</ele><time>2026-04-19T12:23:19.926Z</time></trkpt><trkpt lat="45.3967498" lon="8.0037574"><ele>289.0</ele><time>2026-04-19T12:23:20.926Z</time></trkpt><trkpt lat="45.3968608" lon="8.0037679"><ele>289.0</ele><time>2026-04-19T12:23:21.925Z</time></trkpt><trkpt lat="45.3969704" lon="8.0037612"><ele>289.0</ele><time>2026-04-19T12:23:22.925Z</time></trkpt><trkpt lat="45.39708" lon="8.0037472"><ele>289.0</ele><time>2026-04-19T12:23:23.925Z</time></trkpt><trkpt lat="45.397189" lon="8.0037399"><ele>289.0</ele><time>2026-04-19T12:23:24.925Z</time></trkpt><trkpt lat="45.3972875" lon="8.003733"><ele>289.0</ele><time>2026-04-19T12:23:25.925Z</time></trkpt><trkpt lat="45.3974035" lon="8.0037202"><ele>286.0</ele><time>2026-04-19T12:23:26.925Z</time></trkpt><trkpt lat="45.3975168" lon="8.0037059"><ele>283.0</ele><time>2026-04-19T12:23:27.925Z</time></trkpt><trkpt lat="45.3976441" lon="8.003711"><ele>280.0</ele><time>2026-04-19T12:23:28.925Z</time></trkpt><trkpt lat="45.3977918" lon="8.0037455"><ele>277.0</ele><time>2026-04-19T12:23:29.925Z</time></trkpt><trkpt lat="45.397932" lon="8.0037799"><ele>274.75</ele><time>2026-04-19T12:23:30.925Z</time></trkpt><trkpt lat="45.3980467" lon="8.0038142"><ele>272.5</ele><time>2026-04-19T12:23:31.926Z</time></trkpt><trkpt lat="45.3981646" lon="8.0038513"><ele>270.25</ele><time>2026-04-19T12:23:32.927Z</time></trkpt><trkpt lat="45.398281" lon="8.003882"><ele>268.0</ele><time>2026-04-19T12:23:33.926Z</time></trkpt><trkpt lat="45.3983986" lon="8.0039019"><ele>268.0</ele><time>2026-04-19T12:23:34.926Z</time></trkpt><trkpt lat="45.3985225" lon="8.0039216"><ele>268.0</ele><time>2026-04-19T12:23:35.926Z</time></trkpt><trkpt lat="45.3986439" lon="8.0039227"><ele>268.0</ele><time>2026-04-19T12:23:36.925Z</time></trkpt><trkpt lat="45.3987745" lon="8.0039002"><ele>268.0</ele><time>2026-04-19T12:23:37.926Z</time></trkpt><trkpt lat="45.3989007" lon="8.003875"><ele>266.5</ele><time>2026-04-19T12:23:38.925Z</time></trkpt><trkpt lat="45.3990241" lon="8.003844"><ele>265.0</ele><time>2026-04-19T12:23:39.926Z</time></trkpt><trkpt lat="45.3991426" lon="8.0038203"><ele>263.5</ele><time>2026-04-19T12:23:40.925Z</time></trkpt><trkpt lat="45.3992529" lon="8.0037997"><ele>262.0</ele><time>2026-04-19T12:23:41.925Z</time></trkpt><trkpt lat="45.3993509" lon="8.0037866"><ele>262.0</ele><time>2026-04-19T12:23:42.925Z</time></trkpt><trkpt lat="45.399432" lon="8.0037364"><ele>262.0</ele><time>2026-04-19T12:23:43.925Z</time></trkpt><trkpt lat="45.3994889" lon="8.0036184"><ele>262.0</ele><time>2026-04-19T12:23:44.925Z</time></trkpt><trkpt lat="45.3995325" lon="8.003476"><ele>262.0</ele><time>2026-04-19T12:23:45.926Z</time></trkpt><trkpt lat="45.3995609" lon="8.0033397"><ele>262.0</ele><time>2026-04-19T12:23:46.925Z</time></trkpt><trkpt lat="45.3995917" lon="8.003208"><ele>260.66666666666663</ele><time>2026-04-19T12:23:47.925Z</time></trkpt><trkpt lat="45.3996199" lon="8.003081"><ele>259.3333333333333</ele><time>2026-04-19T12:23:48.925Z</time></trkpt><trkpt lat="45.3996442" lon="8.0029578"><ele>258.0</ele><time>2026-04-19T12:23:49.925Z</time></trkpt><trkpt lat="45.3996616" lon="8.0028431"><ele>256.6666666666667</ele><time>2026-04-19T12:23:50.926Z</time></trkpt><trkpt lat="45.399679" lon="8.002747"><ele>255.33333333333334</ele><time>2026-04-19T12:23:51.926Z</time></trkpt><trkpt lat="45.3996887" lon="8.0026482"><ele>254.0</ele><time>2026-04-19T12:23:52.925Z</time></trkpt><trkpt lat="45.3996995" lon="8.0025492"><ele>253.33333333333334</ele><time>2026-04-19T12:23:53.927Z</time></trkpt><trkpt lat="45.3997134" lon="8.0024548"><ele>252.66666666666669</ele><time>2026-04-19T12:23:54.926Z</time></trkpt><trkpt lat="45.3997331" lon="8.0023058"><ele>252.0</ele><time>2026-04-19T12:23:56.926Z</time></trkpt><trkpt lat="45.3997459" lon="8.0022127"><ele>251.33333333333331</ele><time>2026-04-19T12:23:59.927Z</time></trkpt><trkpt lat="45.3997513" lon="8.002103"><ele>250.66666666666666</ele><time>2026-04-19T12:24:45.926Z</time></trkpt><trkpt lat="45.3997706" lon="8.0019607"><ele>250.0</ele><time>2026-04-19T12:24:47.925Z</time></trkpt><trkpt lat="45.3997798" lon="8.0018702"><ele>249.99999999999997</ele><time>2026-04-19T12:24:48.926Z</time></trkpt><trkpt lat="45.3997878" lon="8.0017608"><ele>250.0</ele><time>2026-04-19T12:24:49.925Z</time></trkpt><trkpt lat="45.3997991" lon="8.0016367"><ele>250.0</ele><time>2026-04-19T12:24:50.926Z</time></trkpt><trkpt lat="45.3998116" lon="8.0015139"><ele>250.0</ele><time>2026-04-19T12:24:51.926Z</time></trkpt><trkpt lat="45.3998223" lon="8.0013961"><ele>249.99999999999997</ele><time>2026-04-19T12:24:52.925Z</time></trkpt><trkpt lat="45.3998315" lon="8.0012766"><ele>250.0</ele><time>2026-04-19T12:24:53.926Z</time></trkpt><trkpt lat="45.3998431" lon="8.0011644"><ele>249.2</ele><time>2026-04-19T12:24:54.926Z</time></trkpt><trkpt lat="45.3998542" lon="8.0010397"><ele>248.4</ele><time>2026-04-19T12:24:55.926Z</time></trkpt><trkpt lat="45.3998663" lon="8.0009091"><ele>247.60000000000002</ele><time>2026-04-19T12:24:56.926Z</time></trkpt><trkpt lat="45.39988" lon="8.0007829"><ele>246.8</ele><time>2026-04-19T12:24:57.925Z</time></trkpt><trkpt lat="45.39989" lon="8.0006382"><ele>246.0</ele><time>2026-04-19T12:24:58.925Z</time></trkpt><trkpt lat="45.399902" lon="8.0004831"><ele>244.25</ele><time>2026-04-19T12:24:59.926Z</time></trkpt><trkpt lat="45.3999126" lon="8.0003366"><ele>242.5</ele><time>2026-04-19T12:25:00.926Z</time></trkpt><trkpt lat="45.3999234" lon="8.0001725"><ele>240.75</ele><time>2026-04-19T12:25:01.926Z</time></trkpt><trkpt lat="45.3999306" lon="8.0000013"><ele>239.0</ele><time>2026-04-19T12:25:02.926Z</time></trkpt><trkpt lat="45.3999349" lon="7.9998308"><ele>239.0</ele><time>2026-04-19T12:25:03.925Z</time></trkpt><trkpt lat="45.3999423" lon="7.999651"><ele>239.0</ele><time>2026-04-19T12:25:04.925Z</time></trkpt><trkpt lat="45.3999554" lon="7.9994771"><ele>239.0</ele><time>2026-04-19T12:25:05.925Z</time></trkpt><trkpt lat="45.3999739" lon="7.9993124"><ele>239.0</ele><time>2026-04-19T12:25:06.925Z</time></trkpt><trkpt lat="45.4000007" lon="7.9991545"><ele>238.39999999999998</ele><time>2026-04-19T12:25:07.925Z</time></trkpt><trkpt lat="45.4000315" lon="7.9990027"><ele>237.79999999999998</ele><time>2026-04-19T12:25:08.926Z</time></trkpt><trkpt lat="45.4000812" lon="7.9988527"><ele>237.20000000000002</ele><time>2026-04-19T12:25:09.926Z</time></trkpt><trkpt lat="45.4001492" lon="7.9987184"><ele>236.60000000000002</ele><time>2026-04-19T12:25:10.926Z</time></trkpt><trkpt lat="45.4002132" lon="7.9986071"><ele>236.0</ele><time>2026-04-19T12:25:11.925Z</time></trkpt><trkpt lat="45.4002778" lon="7.998506"><ele>236.0</ele><time>2026-04-19T12:25:12.927Z</time></trkpt><trkpt lat="45.4003421" lon="7.9984142"><ele>236.00000000000003</ele><time>2026-04-19T12:25:13.926Z</time></trkpt><trkpt lat="45.4003995" lon="7.9982949"><ele>236.00000000000003</ele><time>2026-04-19T12:25:14.926Z</time></trkpt><trkpt lat="45.4004421" lon="7.9981561"><ele>236.0</ele><time>2026-04-19T12:25:15.926Z</time></trkpt><trkpt lat="45.400452" lon="7.998029"><ele>236.0</ele><time>2026-04-19T12:25:16.925Z</time></trkpt><trkpt lat="45.4004787" lon="7.9978923"><ele>235.25</ele><time>2026-04-19T12:25:17.926Z</time></trkpt><trkpt lat="45.4005129" lon="7.9977417"><ele>234.5</ele><time>2026-04-19T12:25:18.925Z</time></trkpt><trkpt lat="45.4005501" lon="7.9975533"><ele>233.75</ele><time>2026-04-19T12:25:19.925Z</time></trkpt><trkpt lat="45.400584" lon="7.9973755"><ele>233.0</ele><time>2026-04-19T12:25:20.925Z</time></trkpt><trkpt lat="45.4006026" lon="7.997219"><ele>233.0</ele><time>2026-04-19T12:25:21.926Z</time></trkpt><trkpt lat="45.400627" lon="7.9970704"><ele>233.0</ele><time>2026-04-19T12:25:22.925Z</time></trkpt><trkpt lat="45.4006428" lon="7.9969355"><ele>233.0</ele><time>2026-04-19T12:25:23.926Z</time></trkpt><trkpt lat="45.4006704" lon="7.9968051"><ele>233.0</ele><time>2026-04-19T12:25:24.926Z</time></trkpt><trkpt lat="45.4007103" lon="7.9966658"><ele>233.0</ele><time>2026-04-19T12:25:25.926Z</time></trkpt><trkpt lat="45.4007672" lon="7.9965352"><ele>233.2</ele><time>2026-04-19T12:25:26.926Z</time></trkpt><trkpt lat="45.4008264" lon="7.9964022"><ele>233.4</ele><time>2026-04-19T12:25:27.927Z</time></trkpt><trkpt lat="45.4008806" lon="7.9962755"><ele>233.59999999999997</ele><time>2026-04-19T12:25:28.925Z</time></trkpt><trkpt lat="45.4009425" lon="7.9961584"><ele>233.79999999999998</ele><time>2026-04-19T12:25:29.926Z</time></trkpt><trkpt lat="45.4010152" lon="7.996056"><ele>234.0</ele><time>2026-04-19T12:25:30.925Z</time></trkpt><trkpt lat="45.4011007" lon="7.9959646"><ele>234.0</ele><time>2026-04-19T12:25:31.925Z</time></trkpt><trkpt lat="45.4011961" lon="7.9958885"><ele>233.99999999999997</ele><time>2026-04-19T12:25:32.925Z</time></trkpt><trkpt lat="45.4012903" lon="7.9958196"><ele>233.99999999999997</ele><time>2026-04-19T12:25:33.927Z</time></trkpt><trkpt lat="45.4013824" lon="7.9957447"><ele>234.0</ele><time>2026-04-19T12:25:34.926Z</time></trkpt><trkpt lat="45.4014718" lon="7.995665"><ele>234.0</ele><time>2026-04-19T12:25:35.925Z</time></trkpt><trkpt lat="45.4015558" lon="7.99557"><ele>233.79999999999998</ele><time>2026-04-19T12:25:36.925Z</time></trkpt><trkpt lat="45.4016251" lon="7.9954586"><ele>233.59999999999997</ele><time>2026-04-19T12:25:37.925Z</time></trkpt><trkpt lat="45.4016925" lon="7.9953323"><ele>233.4</ele><time>2026-04-19T12:25:38.927Z</time></trkpt><trkpt lat="45.4017549" lon="7.9952046"><ele>233.2</ele><time>2026-04-19T12:25:39.925Z</time></trkpt><trkpt lat="45.4018143" lon="7.9950725"><ele>233.0</ele><time>2026-04-19T12:25:40.926Z</time></trkpt><trkpt lat="45.4018736" lon="7.9949438"><ele>232.8</ele><time>2026-04-19T12:25:41.925Z</time></trkpt><trkpt lat="45.4019436" lon="7.9948081"><ele>232.60000000000002</ele><time>2026-04-19T12:25:42.925Z</time></trkpt><trkpt lat="45.4020075" lon="7.9946711"><ele>232.39999999999998</ele><time>2026-04-19T12:25:43.926Z</time></trkpt><trkpt lat="45.4020666" lon="7.9945472"><ele>232.2</ele><time>2026-04-19T12:25:44.926Z</time></trkpt><trkpt lat="45.402127" lon="7.9944359"><ele>232.0</ele><time>2026-04-19T12:25:45.926Z</time></trkpt><trkpt lat="45.4021758" lon="7.9943267"><ele>232.39999999999998</ele><time>2026-04-19T12:25:46.925Z</time></trkpt><trkpt lat="45.4022155" lon="7.9942032"><ele>232.79999999999998</ele><time>2026-04-19T12:25:47.925Z</time></trkpt><trkpt lat="45.4022507" lon="7.9940702"><ele>233.2</ele><time>2026-04-19T12:25:48.925Z</time></trkpt><trkpt lat="45.4022823" lon="7.9939359"><ele>233.6</ele><time>2026-04-19T12:25:49.925Z</time></trkpt><trkpt lat="45.4022906" lon="7.9937939"><ele>234.0</ele><time>2026-04-19T12:25:50.927Z</time></trkpt><trkpt lat="45.4023138" lon="7.9936464"><ele>234.2</ele><time>2026-04-19T12:25:51.925Z</time></trkpt><trkpt lat="45.402334" lon="7.9934936"><ele>234.39999999999998</ele><time>2026-04-19T12:25:52.926Z</time></trkpt><trkpt lat="45.4023469" lon="7.9933322"><ele>234.6</ele><time>2026-04-19T12:25:53.925Z</time></trkpt><trkpt lat="45.4023684" lon="7.9931711"><ele>234.8</ele><time>2026-04-19T12:25:54.927Z</time></trkpt><trkpt lat="45.4023854" lon="7.9930156"><ele>235.0</ele><time>2026-04-19T12:25:55.925Z</time></trkpt><trkpt lat="45.402397" lon="7.992852"><ele>234.75</ele><time>2026-04-19T12:25:56.925Z</time></trkpt><trkpt lat="45.4024063" lon="7.9926834"><ele>234.5</ele><time>2026-04-19T12:25:57.926Z</time></trkpt><trkpt lat="45.4024253" lon="7.9924895"><ele>234.25</ele><time>2026-04-19T12:25:58.926Z</time></trkpt><trkpt lat="45.4024511" lon="7.9923177"><ele>234.0</ele><time>2026-04-19T12:25:59.925Z</time></trkpt><trkpt lat="45.4024839" lon="7.9921554"><ele>234.0</ele><time>2026-04-19T12:26:00.925Z</time></trkpt><trkpt lat="45.4024999" lon="7.9920091"><ele>233.99999999999997</ele><time>2026-04-19T12:26:01.925Z</time></trkpt><trkpt lat="45.4025168" lon="7.9918752"><ele>233.99999999999997</ele><time>2026-04-19T12:26:02.925Z</time></trkpt><trkpt lat="45.4025361" lon="7.9917388"><ele>234.0</ele><time>2026-04-19T12:26:03.925Z</time></trkpt><trkpt lat="45.4025575" lon="7.9916072"><ele>234.0</ele><time>2026-04-19T12:26:04.925Z</time></trkpt><trkpt lat="45.4025756" lon="7.9914889"><ele>233.66666666666666</ele><time>2026-04-19T12:26:05.925Z</time></trkpt><trkpt lat="45.4025952" lon="7.9913647"><ele>233.33333333333331</ele><time>2026-04-19T12:26:06.926Z</time></trkpt><trkpt lat="45.402613" lon="7.9912528"><ele>233.0</ele><time>2026-04-19T12:26:07.926Z</time></trkpt><trkpt lat="45.4026396" lon="7.9911516"><ele>232.66666666666666</ele><time>2026-04-19T12:26:08.926Z</time></trkpt><trkpt lat="45.4026752" lon="7.9910613"><ele>232.33333333333331</ele><time>2026-04-19T12:26:09.925Z</time></trkpt><trkpt lat="45.4027145" lon="7.990987"><ele>232.0</ele><time>2026-04-19T12:26:10.925Z</time></trkpt><trkpt lat="45.4028238" lon="7.9908975"><ele>232.00000000000003</ele><time>2026-04-19T12:26:12.925Z</time></trkpt><trkpt lat="45.4029017" lon="7.990893"><ele>232.0</ele><time>2026-04-19T12:26:13.926Z</time></trkpt><trkpt lat="45.4029773" lon="7.9908887"><ele>232.00000000000003</ele><time>2026-04-19T12:26:14.926Z</time></trkpt><trkpt lat="45.4030472" lon="7.990886"><ele>232.00000000000003</ele><time>2026-04-19T12:26:15.925Z</time></trkpt><trkpt lat="45.4031161" lon="7.9908863"><ele>232.0</ele><time>2026-04-19T12:26:16.925Z</time></trkpt><trkpt lat="45.4031859" lon="7.9908775"><ele>232.00000000000003</ele><time>2026-04-19T12:26:17.926Z</time></trkpt><trkpt lat="45.4032498" lon="7.9908741"><ele>232.00000000000003</ele><time>2026-04-19T12:26:18.925Z</time></trkpt><trkpt lat="45.4033519" lon="7.9908737"><ele>232.8</ele><time>2026-04-19T12:26:20.926Z</time></trkpt><trkpt lat="45.4033914" lon="7.9907906"><ele>233.6</ele><time>2026-04-19T12:26:22.926Z</time></trkpt><trkpt lat="45.4033568" lon="7.9906364"><ele>234.40000000000003</ele><time>2026-04-19T12:26:24.926Z</time></trkpt><trkpt lat="45.4033449" lon="7.990521"><ele>235.20000000000002</ele><time>2026-04-19T12:26:25.927Z</time></trkpt><trkpt lat="45.4033401" lon="7.9903912"><ele>236.0</ele><time>2026-04-19T12:26:26.925Z</time></trkpt><trkpt lat="45.4033395" lon="7.9902394"><ele>236.0</ele><time>2026-04-19T12:26:27.925Z</time></trkpt><trkpt lat="45.4033435" lon="7.9900951"><ele>236.00000000000003</ele><time>2026-04-19T12:26:28.926Z</time></trkpt><trkpt lat="45.4033493" lon="7.9899453"><ele>236.00000000000003</ele><time>2026-04-19T12:26:29.925Z</time></trkpt><trkpt lat="45.403352" lon="7.9897998"><ele>236.0</ele><time>2026-04-19T12:26:30.925Z</time></trkpt><trkpt lat="45.4033535" lon="7.9896663"><ele>236.0</ele><time>2026-04-19T12:26:31.925Z</time></trkpt><trkpt lat="45.4033518" lon="7.9895178"><ele>235.33333333333334</ele><time>2026-04-19T12:26:32.926Z</time></trkpt><trkpt lat="45.4033439" lon="7.9893803"><ele>234.66666666666669</ele><time>2026-04-19T12:26:33.926Z</time></trkpt><trkpt lat="45.403337" lon="7.9892545"><ele>234.0</ele><time>2026-04-19T12:26:34.926Z</time></trkpt><trkpt lat="45.4033252" lon="7.9891268"><ele>233.33333333333331</ele><time>2026-04-19T12:26:35.926Z</time></trkpt><trkpt lat="45.4033093" lon="7.9890078"><ele>232.66666666666666</ele><time>2026-04-19T12:26:36.926Z</time></trkpt><trkpt lat="45.4032929" lon="7.9889068"><ele>232.0</ele><time>2026-04-19T12:26:37.926Z</time></trkpt><trkpt lat="45.4032793" lon="7.988772"><ele>231.83333333333331</ele><time>2026-04-19T12:26:39.925Z</time></trkpt><trkpt lat="45.4033593" lon="7.988668"><ele>231.66666666666666</ele><time>2026-04-19T12:26:41.925Z</time></trkpt><trkpt lat="45.4034258" lon="7.9886331"><ele>231.5</ele><time>2026-04-19T12:26:42.926Z</time></trkpt><trkpt lat="45.4034979" lon="7.988596"><ele>231.33333333333331</ele><time>2026-04-19T12:26:43.926Z</time></trkpt><trkpt lat="45.4035809" lon="7.9885399"><ele>231.16666666666666</ele><time>2026-04-19T12:26:44.925Z</time></trkpt><trkpt lat="45.403672" lon="7.9884861"><ele>231.0</ele><time>2026-04-19T12:26:45.926Z</time></trkpt><trkpt lat="45.4037547" lon="7.9884505"><ele>231.16666666666666</ele><time>2026-04-19T12:26:46.927Z</time></trkpt><trkpt lat="45.4038348" lon="7.9884219"><ele>231.33333333333331</ele><time>2026-04-19T12:26:47.925Z</time></trkpt><trkpt lat="45.4039127" lon="7.9883956"><ele>231.5</ele><time>2026-04-19T12:26:48.926Z</time></trkpt><trkpt lat="45.4039902" lon="7.988373"><ele>231.66666666666666</ele><time>2026-04-19T12:26:49.925Z</time></trkpt><trkpt lat="45.4040724" lon="7.9883482"><ele>231.83333333333331</ele><time>2026-04-19T12:26:50.925Z</time></trkpt><trkpt lat="45.4041552" lon="7.9883225"><ele>232.0</ele><time>2026-04-19T12:26:51.926Z</time></trkpt><trkpt lat="45.4042396" lon="7.9882991"><ele>231.99999999999997</ele><time>2026-04-19T12:26:52.925Z</time></trkpt><trkpt lat="45.4043214" lon="7.9882748"><ele>232.0</ele><time>2026-04-19T12:26:53.925Z</time></trkpt><trkpt lat="45.4044062" lon="7.9882542"><ele>232.0</ele><time>2026-04-19T12:26:54.925Z</time></trkpt><trkpt lat="45.4044915" lon="7.9882324"><ele>232.0</ele><time>2026-04-19T12:26:55.925Z</time></trkpt><trkpt lat="45.4045772" lon="7.9882109"><ele>231.99999999999997</ele><time>2026-04-19T12:26:56.925Z</time></trkpt><trkpt lat="45.4046643" lon="7.9881887"><ele>232.0</ele><time>2026-04-19T12:26:57.925Z</time></trkpt><trkpt lat="45.4047477" lon="7.9881706"><ele>231.66666666666666</ele><time>2026-04-19T12:26:58.926Z</time></trkpt><trkpt lat="45.4048327" lon="7.9881523"><ele>231.33333333333331</ele><time>2026-04-19T12:26:59.925Z</time></trkpt><trkpt lat="45.4049133" lon="7.9881377"><ele>231.0</ele><time>2026-04-19T12:27:00.925Z</time></trkpt><trkpt lat="45.4049929" lon="7.9881219"><ele>230.66666666666669</ele><time>2026-04-19T12:27:01.926Z</time></trkpt><trkpt lat="45.4050723" lon="7.9881087"><ele>230.33333333333334</ele><time>2026-04-19T12:27:02.926Z</time></trkpt><trkpt lat="45.4051445" lon="7.9881022"><ele>230.0</ele><time>2026-04-19T12:27:03.926Z</time></trkpt><trkpt lat="45.4052176" lon="7.9880957"><ele>230.00000000000003</ele><time>2026-04-19T12:27:04.925Z</time></trkpt><trkpt lat="45.4052949" lon="7.9880923"><ele>230.0</ele><time>2026-04-19T12:27:05.925Z</time></trkpt><trkpt lat="45.4053723" lon="7.9880898"><ele>230.0</ele><time>2026-04-19T12:27:06.926Z</time></trkpt><trkpt lat="45.40544" lon="7.9880849"><ele>230.0</ele><time>2026-04-19T12:27:07.927Z</time></trkpt><trkpt lat="45.4055358" lon="7.9880716"><ele>230.00000000000003</ele><time>2026-04-19T12:27:09.925Z</time></trkpt><trkpt lat="45.4056218" lon="7.9880756"><ele>230.0</ele><time>2026-04-19T12:27:12.925Z</time></trkpt><trkpt lat="45.4056988" lon="7.9880553"><ele>230.16666666666669</ele><time>2026-04-19T12:27:15.925Z</time></trkpt><trkpt lat="45.4057679" lon="7.9880288"><ele>230.33333333333334</ele><time>2026-04-19T12:28:58.925Z</time></trkpt><trkpt lat="45.405831" lon="7.9880087"><ele>230.5</ele><time>2026-04-19T12:29:01.924Z</time></trkpt><trkpt lat="45.4059223" lon="7.9879711"><ele>230.66666666666669</ele><time>2026-04-19T12:29:38.924Z</time></trkpt><trkpt lat="45.4059847" lon="7.9879299"><ele>230.83333333333334</ele><time>2026-04-19T12:29:39.924Z</time></trkpt><trkpt lat="45.4060671" lon="7.9878896"><ele>231.0</ele><time>2026-04-19T12:29:40.924Z</time></trkpt><trkpt lat="45.4061472" lon="7.9878475"><ele>231.0</ele><time>2026-04-19T12:29:41.924Z</time></trkpt><trkpt lat="45.4062383" lon="7.9877925"><ele>231.0</ele><time>2026-04-19T12:29:42.926Z</time></trkpt><trkpt lat="45.4063105" lon="7.9877493"><ele>231.0</ele><time>2026-04-19T12:29:43.924Z</time></trkpt><trkpt lat="45.4063833" lon="7.9876931"><ele>231.0</ele><time>2026-04-19T12:29:44.925Z</time></trkpt><trkpt lat="45.4064488" lon="7.9876265"><ele>231.0</ele><time>2026-04-19T12:29:45.924Z</time></trkpt><trkpt lat="45.4065211" lon="7.98756"><ele>231.0</ele><time>2026-04-19T12:29:46.926Z</time></trkpt><trkpt lat="45.4065862" lon="7.9874771"><ele>231.0</ele><time>2026-04-19T12:29:47.926Z</time></trkpt><trkpt lat="45.4066549" lon="7.9873839"><ele>231.00000000000003</ele><time>2026-04-19T12:29:48.924Z</time></trkpt><trkpt lat="45.4067251" lon="7.9872893"><ele>231.00000000000003</ele><time>2026-04-19T12:29:49.925Z</time></trkpt><trkpt lat="45.4068029" lon="7.987187"><ele>231.0</ele><time>2026-04-19T12:29:50.925Z</time></trkpt><trkpt lat="45.4068841" lon="7.9870822"><ele>231.0</ele><time>2026-04-19T12:29:51.924Z</time></trkpt><trkpt lat="45.40697" lon="7.9869857"><ele>231.0</ele><time>2026-04-19T12:29:52.927Z</time></trkpt><trkpt lat="45.4070597" lon="7.9868887"><ele>231.0</ele><time>2026-04-19T12:29:53.924Z</time></trkpt><trkpt lat="45.4071567" lon="7.9867948"><ele>231.0</ele><time>2026-04-19T12:29:54.924Z</time></trkpt><trkpt lat="45.4072551" lon="7.9867045"><ele>231.0</ele><time>2026-04-19T12:29:55.924Z</time></trkpt><trkpt lat="45.4073499" lon="7.9866253"><ele>230.8</ele><time>2026-04-19T12:29:56.925Z</time></trkpt><trkpt lat="45.4074512" lon="7.9865548"><ele>230.60000000000002</ele><time>2026-04-19T12:29:57.925Z</time></trkpt><trkpt lat="45.4075404" lon="7.9865075"><ele>230.4</ele><time>2026-04-19T12:29:58.924Z</time></trkpt><trkpt lat="45.4076348" lon="7.9864597"><ele>230.2</ele><time>2026-04-19T12:29:59.925Z</time></trkpt><trkpt lat="45.4077276" lon="7.9864199"><ele>230.0</ele><time>2026-04-19T12:30:00.925Z</time></trkpt><trkpt lat="45.4078208" lon="7.9863752"><ele>230.00000000000003</ele><time>2026-04-19T12:30:01.925Z</time></trkpt><trkpt lat="45.4079015" lon="7.9863301"><ele>230.0</ele><time>2026-04-19T12:30:02.925Z</time></trkpt><trkpt lat="45.4079612" lon="7.9862946"><ele>230.0</ele><time>2026-04-19T12:30:03.925Z</time></trkpt><trkpt lat="45.4080285" lon="7.9862436"><ele>230.0</ele><time>2026-04-19T12:30:05.924Z</time></trkpt><trkpt lat="45.4081061" lon="7.986186"><ele>230.00000000000003</ele><time>2026-04-19T12:30:14.924Z</time></trkpt><trkpt lat="45.4082061" lon="7.9861052"><ele>230.0</ele><time>2026-04-19T12:30:16.924Z</time></trkpt><trkpt lat="45.4082972" lon="7.9860119"><ele>230.00000000000003</ele><time>2026-04-19T12:30:18.925Z</time></trkpt><trkpt lat="45.4083581" lon="7.9859571"><ele>230.0</ele><time>2026-04-19T12:30:19.924Z</time></trkpt><trkpt lat="45.4084338" lon="7.985906"><ele>230.0</ele><time>2026-04-19T12:30:20.924Z</time></trkpt><trkpt lat="45.4085155" lon="7.9858437"><ele>230.0</ele><time>2026-04-19T12:30:21.925Z</time></trkpt><trkpt lat="45.4085971" lon="7.9857768"><ele>230.00000000000003</ele><time>2026-04-19T12:30:22.925Z</time></trkpt><trkpt lat="45.4086749" lon="7.9857123"><ele>230.0</ele><time>2026-04-19T12:30:23.924Z</time></trkpt><trkpt lat="45.408751" lon="7.9856497"><ele>230.00000000000003</ele><time>2026-04-19T12:30:24.924Z</time></trkpt><trkpt lat="45.4088249" lon="7.985595"><ele>230.0</ele><time>2026-04-19T12:30:25.924Z</time></trkpt><trkpt lat="45.4088927" lon="7.9855527"><ele>230.0</ele><time>2026-04-19T12:30:26.924Z</time></trkpt><trkpt lat="45.4089627" lon="7.985513"><ele>230.0</ele><time>2026-04-19T12:30:27.926Z</time></trkpt><trkpt lat="45.4090394" lon="7.9854766"><ele>230.00000000000003</ele><time>2026-04-19T12:30:28.925Z</time></trkpt><trkpt lat="45.4091174" lon="7.9854466"><ele>230.0</ele><time>2026-04-19T12:30:29.924Z</time></trkpt><trkpt lat="45.4091998" lon="7.9854182"><ele>230.2</ele><time>2026-04-19T12:30:30.925Z</time></trkpt><trkpt lat="45.4092907" lon="7.9854013"><ele>230.4</ele><time>2026-04-19T12:30:31.924Z</time></trkpt><trkpt lat="45.4093874" lon="7.9853719"><ele>230.60000000000002</ele><time>2026-04-19T12:30:32.925Z</time></trkpt><trkpt lat="45.4094875" lon="7.9853377"><ele>230.8</ele><time>2026-04-19T12:30:33.924Z</time></trkpt><trkpt lat="45.4095934" lon="7.9853082"><ele>231.0</ele><time>2026-04-19T12:30:34.924Z</time></trkpt><trkpt lat="45.4096995" lon="7.985268"><ele>231.0</ele><time>2026-04-19T12:30:35.924Z</time></trkpt><trkpt lat="45.4097989" lon="7.9852287"><ele>231.00000000000003</ele><time>2026-04-19T12:30:36.926Z</time></trkpt><trkpt lat="45.4099092" lon="7.9851771"><ele>231.00000000000003</ele><time>2026-04-19T12:30:37.925Z</time></trkpt><trkpt lat="45.4100162" lon="7.9851221"><ele>231.0</ele><time>2026-04-19T12:30:38.926Z</time></trkpt><trkpt lat="45.4101182" lon="7.9850618"><ele>231.0</ele><time>2026-04-19T12:30:39.924Z</time></trkpt><trkpt lat="45.4102086" lon="7.9850053"><ele>231.0</ele><time>2026-04-19T12:30:40.924Z</time></trkpt><trkpt lat="45.4102971" lon="7.9849517"><ele>231.00000000000003</ele><time>2026-04-19T12:30:41.924Z</time></trkpt><trkpt lat="45.4103741" lon="7.9849012"><ele>231.00000000000003</ele><time>2026-04-19T12:30:42.924Z</time></trkpt><trkpt lat="45.410439" lon="7.984857"><ele>231.0</ele><time>2026-04-19T12:30:43.925Z</time></trkpt><trkpt lat="45.4105351" lon="7.9847968"><ele>231.0</ele><time>2026-04-19T12:30:45.925Z</time></trkpt><trkpt lat="45.4106359" lon="7.9847329"><ele>231.0</ele><time>2026-04-19T12:30:47.926Z</time></trkpt><trkpt lat="45.4106969" lon="7.9846854"><ele>231.0</ele><time>2026-04-19T12:30:48.925Z</time></trkpt><trkpt lat="45.4107541" lon="7.9846402"><ele>231.0</ele><time>2026-04-19T12:30:49.925Z</time></trkpt><trkpt lat="45.4108102" lon="7.9845981"><ele>231.0</ele><time>2026-04-19T12:30:50.924Z</time></trkpt><trkpt lat="45.4108698" lon="7.9845441"><ele>231.0</ele><time>2026-04-19T12:30:51.925Z</time></trkpt><trkpt lat="45.4109341" lon="7.9844494"><ele>231.0</ele><time>2026-04-19T12:30:52.925Z</time></trkpt><trkpt lat="45.4109932" lon="7.9843154"><ele>230.75</ele><time>2026-04-19T12:30:53.924Z</time></trkpt><trkpt lat="45.4110614" lon="7.9841425"><ele>230.5</ele><time>2026-04-19T12:30:54.926Z</time></trkpt><trkpt lat="45.411128" lon="7.9839631"><ele>230.25</ele><time>2026-04-19T12:30:55.925Z</time></trkpt><trkpt lat="45.4111775" lon="7.9838211"><ele>230.0</ele><time>2026-04-19T12:30:56.925Z</time></trkpt><trkpt lat="45.4112274" lon="7.9837342"><ele>230.0</ele><time>2026-04-19T12:30:57.925Z</time></trkpt><trkpt lat="45.411323" lon="7.9836521"><ele>230.0</ele><time>2026-04-19T12:30:58.924Z</time></trkpt><trkpt lat="45.4114391" lon="7.9835472"><ele>230.0</ele><time>2026-04-19T12:30:59.925Z</time></trkpt><trkpt lat="45.4115927" lon="7.9834292"><ele>230.0</ele><time>2026-04-19T12:31:00.925Z</time></trkpt><trkpt lat="45.4117428" lon="7.9833129"><ele>230.0</ele><time>2026-04-19T12:31:01.926Z</time></trkpt><trkpt lat="45.4118583" lon="7.9832233"><ele>230.0</ele><time>2026-04-19T12:31:02.924Z</time></trkpt><trkpt lat="45.4119633" lon="7.9831442"><ele>230.0</ele><time>2026-04-19T12:31:03.925Z</time></trkpt><trkpt lat="45.4120468" lon="7.9831001"><ele>230.0</ele><time>2026-04-19T12:31:04.926Z</time></trkpt><trkpt lat="45.4121372" lon="7.983097"><ele>230.0</ele><time>2026-04-19T12:31:05.924Z</time></trkpt><trkpt lat="45.4122292" lon="7.9831242"><ele>230.0</ele><time>2026-04-19T12:31:06.924Z</time></trkpt><trkpt lat="45.4123271" lon="7.9831856"><ele>230.0</ele><time>2026-04-19T12:31:07.924Z</time></trkpt><trkpt lat="45.4123993" lon="7.9832462"><ele>230.0</ele><time>2026-04-19T12:31:08.924Z</time></trkpt><trkpt lat="45.4124783" lon="7.9832876"><ele>230.0</ele><time>2026-04-19T12:31:09.925Z</time></trkpt><trkpt lat="45.4125673" lon="7.9833114"><ele>230.0</ele><time>2026-04-19T12:31:10.925Z</time></trkpt><trkpt lat="45.4126668" lon="7.9833184"><ele>230.0</ele><time>2026-04-19T12:31:11.924Z</time></trkpt><trkpt lat="45.4127711" lon="7.9833084"><ele>230.0</ele><time>2026-04-19T12:31:12.925Z</time></trkpt><trkpt lat="45.4128827" lon="7.9832964"><ele>230.0</ele><time>2026-04-19T12:31:13.924Z</time></trkpt><trkpt lat="45.4129906" lon="7.9832829"><ele>230.0</ele><time>2026-04-19T12:31:14.924Z</time></trkpt><trkpt lat="45.4131124" lon="7.9832533"><ele>230.0</ele><time>2026-04-19T12:31:15.924Z</time></trkpt><trkpt lat="45.4132518" lon="7.9832346"><ele>229.75</ele><time>2026-04-19T12:31:16.925Z</time></trkpt><trkpt lat="45.4133829" lon="7.9832289"><ele>229.5</ele><time>2026-04-19T12:31:17.924Z</time></trkpt><trkpt lat="45.4135036" lon="7.9832273"><ele>229.25</ele><time>2026-04-19T12:31:18.925Z</time></trkpt><trkpt lat="45.4136186" lon="7.983225"><ele>229.0</ele><time>2026-04-19T12:31:19.924Z</time></trkpt><trkpt lat="45.4137288" lon="7.9832261"><ele>229.0</ele><time>2026-04-19T12:31:20.925Z</time></trkpt><trkpt lat="45.4138502" lon="7.9832112"><ele>229.0</ele><time>2026-04-19T12:31:21.924Z</time></trkpt><trkpt lat="45.4139833" lon="7.9831753"><ele>229.0</ele><time>2026-04-19T12:31:22.924Z</time></trkpt><trkpt lat="45.414107" lon="7.9831314"><ele>229.0</ele><time>2026-04-19T12:31:23.924Z</time></trkpt><trkpt lat="45.4142369" lon="7.9830848"><ele>229.0</ele><time>2026-04-19T12:31:24.924Z</time></trkpt><trkpt lat="45.4143757" lon="7.9830261"><ele>229.0</ele><time>2026-04-19T12:31:25.924Z</time></trkpt><trkpt lat="45.4144927" lon="7.9829655"><ele>229.0</ele><time>2026-04-19T12:31:26.925Z</time></trkpt><trkpt lat="45.4145905" lon="7.9829168"><ele>229.0</ele><time>2026-04-19T12:31:27.924Z</time></trkpt><trkpt lat="45.4146662" lon="7.9828778"><ele>228.99999999999997</ele><time>2026-04-19T12:31:28.925Z</time></trkpt><trkpt lat="45.4147287" lon="7.9828514"><ele>229.0</ele><time>2026-04-19T12:31:29.924Z</time></trkpt><trkpt lat="45.4148109" lon="7.9828754"><ele>229.0</ele><time>2026-04-19T12:31:31.924Z</time></trkpt><trkpt lat="45.4148632" lon="7.982997"><ele>229.0</ele><time>2026-04-19T12:31:33.924Z</time></trkpt><trkpt lat="45.4148855" lon="7.9830952"><ele>228.99999999999997</ele><time>2026-04-19T12:31:34.924Z</time></trkpt><trkpt lat="45.414919" lon="7.9832145"><ele>229.0</ele><time>2026-04-19T12:31:35.924Z</time></trkpt><trkpt lat="45.4149706" lon="7.9833302"><ele>229.2</ele><time>2026-04-19T12:31:36.924Z</time></trkpt><trkpt lat="45.4150347" lon="7.9834455"><ele>229.39999999999998</ele><time>2026-04-19T12:31:37.926Z</time></trkpt><trkpt lat="45.415105" lon="7.9835626"><ele>229.6</ele><time>2026-04-19T12:31:38.925Z</time></trkpt><trkpt lat="45.4151767" lon="7.9836799"><ele>229.8</ele><time>2026-04-19T12:31:39.925Z</time></trkpt><trkpt lat="45.4152378" lon="7.9838014"><ele>230.0</ele><time>2026-04-19T12:31:40.924Z</time></trkpt><trkpt lat="45.4152832" lon="7.9839279"><ele>230.0</ele><time>2026-04-19T12:31:41.925Z</time></trkpt><trkpt lat="45.4153121" lon="7.9840621"><ele>230.0</ele><time>2026-04-19T12:31:42.925Z</time></trkpt><trkpt lat="45.415323" lon="7.9842087"><ele>230.0</ele><time>2026-04-19T12:31:43.924Z</time></trkpt><trkpt lat="45.4153174" lon="7.9843632"><ele>230.0</ele><time>2026-04-19T12:31:44.925Z</time></trkpt><trkpt lat="45.4153065" lon="7.9845206"><ele>230.0</ele><time>2026-04-19T12:31:45.924Z</time></trkpt><trkpt lat="45.4152949" lon="7.9846827"><ele>230.0</ele><time>2026-04-19T12:31:46.924Z</time></trkpt><trkpt lat="45.415281" lon="7.9848461"><ele>230.0</ele><time>2026-04-19T12:31:47.925Z</time></trkpt><trkpt lat="45.415266" lon="7.9850132"><ele>230.0</ele><time>2026-04-19T12:31:48.924Z</time></trkpt><trkpt lat="45.4152502" lon="7.9851825"><ele>230.0</ele><time>2026-04-19T12:31:49.925Z</time></trkpt><trkpt lat="45.4152382" lon="7.9853512"><ele>230.25</ele><time>2026-04-19T12:31:50.924Z</time></trkpt><trkpt lat="45.4152266" lon="7.9855235"><ele>230.5</ele><time>2026-04-19T12:31:51.925Z</time></trkpt><trkpt lat="45.4152212" lon="7.9856921"><ele>230.75</ele><time>2026-04-19T12:31:52.924Z</time></trkpt><trkpt lat="45.4152315" lon="7.9858472"><ele>231.0</ele><time>2026-04-19T12:31:53.925Z</time></trkpt><trkpt lat="45.4152424" lon="7.9859989"><ele>231.0</ele><time>2026-04-19T12:31:54.924Z</time></trkpt><trkpt lat="45.4153123" lon="7.986136"><ele>231.0</ele><time>2026-04-19T12:31:55.925Z</time></trkpt><trkpt lat="45.4153929" lon="7.986252"><ele>231.0</ele><time>2026-04-19T12:31:56.924Z</time></trkpt><trkpt lat="45.4154878" lon="7.9863419"><ele>231.0</ele><time>2026-04-19T12:31:57.924Z</time></trkpt><trkpt lat="45.4155897" lon="7.9864178"><ele>231.5</ele><time>2026-04-19T12:31:58.924Z</time></trkpt><trkpt lat="45.4157011" lon="7.9864775"><ele>232.0</ele><time>2026-04-19T12:31:59.925Z</time></trkpt><trkpt lat="45.4158088" lon="7.9865327"><ele>232.5</ele><time>2026-04-19T12:32:00.924Z</time></trkpt><trkpt lat="45.4159155" lon="7.9865878"><ele>233.0</ele><time>2026-04-19T12:32:01.924Z</time></trkpt><trkpt lat="45.4160248" lon="7.986642"><ele>232.8</ele><time>2026-04-19T12:32:02.924Z</time></trkpt><trkpt lat="45.416134" lon="7.9867034"><ele>232.60000000000002</ele><time>2026-04-19T12:32:03.924Z</time></trkpt><trkpt lat="45.4162254" lon="7.9867899"><ele>232.39999999999998</ele><time>2026-04-19T12:32:04.924Z</time></trkpt><trkpt lat="45.4162998" lon="7.9869051"><ele>232.2</ele><time>2026-04-19T12:32:05.925Z</time></trkpt><trkpt lat="45.4163459" lon="7.98704"><ele>232.0</ele><time>2026-04-19T12:32:06.924Z</time></trkpt><trkpt lat="45.4163725" lon="7.9871972"><ele>231.75</ele><time>2026-04-19T12:32:07.924Z</time></trkpt><trkpt lat="45.4163806" lon="7.9873737"><ele>231.5</ele><time>2026-04-19T12:32:08.923Z</time></trkpt><trkpt lat="45.4163828" lon="7.9875707"><ele>231.25</ele><time>2026-04-19T12:32:09.923Z</time></trkpt><trkpt lat="45.4163831" lon="7.9877764"><ele>231.0</ele><time>2026-04-19T12:32:10.923Z</time></trkpt><trkpt lat="45.4163827" lon="7.9879786"><ele>231.0</ele><time>2026-04-19T12:32:11.924Z</time></trkpt><trkpt lat="45.41638" lon="7.9881662"><ele>231.0</ele><time>2026-04-19T12:32:12.925Z</time></trkpt><trkpt lat="45.4163789" lon="7.9883516"><ele>231.0</ele><time>2026-04-19T12:32:13.923Z</time></trkpt><trkpt lat="45.4163782" lon="7.9885294"><ele>231.0</ele><time>2026-04-19T12:32:14.924Z</time></trkpt><trkpt lat="45.416379" lon="7.9887073"><ele>231.25</ele><time>2026-04-19T12:32:15.923Z</time></trkpt><trkpt lat="45.4163781" lon="7.9888874"><ele>231.5</ele><time>2026-04-19T12:32:16.923Z</time></trkpt><trkpt lat="45.4163791" lon="7.9890772"><ele>231.75</ele><time>2026-04-19T12:32:17.923Z</time></trkpt><trkpt lat="45.4163811" lon="7.9892751"><ele>232.0</ele><time>2026-04-19T12:32:18.924Z</time></trkpt><trkpt lat="45.4163833" lon="7.9894765"><ele>232.75</ele><time>2026-04-19T12:32:19.923Z</time></trkpt><trkpt lat="45.4163827" lon="7.9896802"><ele>233.5</ele><time>2026-04-19T12:32:20.924Z</time></trkpt><trkpt lat="45.4163806" lon="7.9898817"><ele>234.25</ele><time>2026-04-19T12:32:21.924Z</time></trkpt><trkpt lat="45.4163754" lon="7.9900718"><ele>235.0</ele><time>2026-04-19T12:32:22.924Z</time></trkpt><trkpt lat="45.4163677" lon="7.9902531"><ele>235.0</ele><time>2026-04-19T12:32:23.923Z</time></trkpt><trkpt lat="45.4163594" lon="7.9904367"><ele>235.0</ele><time>2026-04-19T12:32:24.923Z</time></trkpt><trkpt lat="45.4163345" lon="7.9906202"><ele>235.0</ele><time>2026-04-19T12:32:25.924Z</time></trkpt><trkpt lat="45.4163038" lon="7.9908089"><ele>235.0</ele><time>2026-04-19T12:32:26.924Z</time></trkpt><trkpt lat="45.4162807" lon="7.9910014"><ele>236.0</ele><time>2026-04-19T12:32:27.923Z</time></trkpt><trkpt lat="45.416267" lon="7.9912018"><ele>237.0</ele><time>2026-04-19T12:32:28.923Z</time></trkpt><trkpt lat="45.416266" lon="7.9914209"><ele>238.0</ele><time>2026-04-19T12:32:29.923Z</time></trkpt><trkpt lat="45.4162723" lon="7.9916155"><ele>239.0</ele><time>2026-04-19T12:32:30.923Z</time></trkpt><trkpt lat="45.4162813" lon="7.9917902"><ele>239.50000000000003</ele><time>2026-04-19T12:32:31.923Z</time></trkpt><trkpt lat="45.4162864" lon="7.9919405"><ele>240.0</ele><time>2026-04-19T12:32:32.924Z</time></trkpt><trkpt lat="45.4162784" lon="7.9920524"><ele>240.5</ele><time>2026-04-19T12:32:33.924Z</time></trkpt><trkpt lat="45.416243" lon="7.9921331"><ele>241.0</ele><time>2026-04-19T12:32:34.924Z</time></trkpt><trkpt lat="45.4161808" lon="7.9921823"><ele>241.50000000000003</ele><time>2026-04-19T12:32:35.924Z</time></trkpt><trkpt lat="45.4161132" lon="7.9922229"><ele>242.0</ele><time>2026-04-19T12:32:36.924Z</time></trkpt><trkpt lat="45.4160611" lon="7.9923305"><ele>242.00000000000003</ele><time>2026-04-19T12:32:38.923Z</time></trkpt><trkpt lat="45.4161036" lon="7.9924301"><ele>242.0</ele><time>2026-04-19T12:32:40.924Z</time></trkpt><trkpt lat="45.4162315" lon="7.99248"><ele>242.0</ele><time>2026-04-19T12:32:42.924Z</time></trkpt><trkpt lat="45.4163053" lon="7.9925064"><ele>242.0</ele><time>2026-04-19T12:32:43.923Z</time></trkpt><trkpt lat="45.4163841" lon="7.9925339"><ele>242.00000000000003</ele><time>2026-04-19T12:32:44.923Z</time></trkpt><trkpt lat="45.4164589" lon="7.9925574"><ele>242.0</ele><time>2026-04-19T12:32:45.924Z</time></trkpt><trkpt lat="45.4165263" lon="7.9925923"><ele>241.83333333333334</ele><time>2026-04-19T12:32:46.923Z</time></trkpt><trkpt lat="45.4166152" lon="7.9926892"><ele>241.66666666666669</ele><time>2026-04-19T12:32:48.924Z</time></trkpt><trkpt lat="45.4166718" lon="7.9927873"><ele>241.5</ele><time>2026-04-19T12:32:50.923Z</time></trkpt><trkpt lat="45.4167475" lon="7.9928861"><ele>241.33333333333331</ele><time>2026-04-19T12:32:52.923Z</time></trkpt><trkpt lat="45.4168012" lon="7.9929343"><ele>241.16666666666666</ele><time>2026-04-19T12:32:53.923Z</time></trkpt><trkpt lat="45.4168646" lon="7.9929774"><ele>241.0</ele><time>2026-04-19T12:32:54.923Z</time></trkpt><trkpt lat="45.4169345" lon="7.993012"><ele>241.0</ele><time>2026-04-19T12:32:55.923Z</time></trkpt><trkpt lat="45.4170004" lon="7.9930385"><ele>241.00000000000003</ele><time>2026-04-19T12:32:56.925Z</time></trkpt><trkpt lat="45.4170621" lon="7.993064"><ele>241.00000000000003</ele><time>2026-04-19T12:32:57.923Z</time></trkpt><trkpt lat="45.4171768" lon="7.9931098"><ele>241.0</ele><time>2026-04-19T12:32:59.924Z</time></trkpt><trkpt lat="45.4172746" lon="7.9931563"><ele>241.0</ele><time>2026-04-19T12:33:01.923Z</time></trkpt><trkpt lat="45.4173248" lon="7.9932912"><ele>240.66666666666666</ele><time>2026-04-19T12:33:03.923Z</time></trkpt><trkpt lat="45.4173035" lon="7.9933819"><ele>240.33333333333331</ele><time>2026-04-19T12:33:04.924Z</time></trkpt><trkpt lat="45.4172879" lon="7.9934753"><ele>240.0</ele><time>2026-04-19T12:33:05.924Z</time></trkpt><trkpt lat="45.4172743" lon="7.9935839"><ele>239.66666666666669</ele><time>2026-04-19T12:33:06.923Z</time></trkpt><trkpt lat="45.4172464" lon="7.9937098"><ele>239.33333333333334</ele><time>2026-04-19T12:33:07.923Z</time></trkpt><trkpt lat="45.4172185" lon="7.9938405"><ele>239.0</ele><time>2026-04-19T12:33:08.923Z</time></trkpt><trkpt lat="45.4171866" lon="7.9939753"><ele>239.39999999999998</ele><time>2026-04-19T12:33:09.925Z</time></trkpt><trkpt lat="45.4171467" lon="7.9940936"><ele>239.79999999999998</ele><time>2026-04-19T12:33:10.923Z</time></trkpt><trkpt lat="45.4171044" lon="7.994216"><ele>240.20000000000002</ele><time>2026-04-19T12:33:11.924Z</time></trkpt><trkpt lat="45.4170744" lon="7.994338"><ele>240.60000000000002</ele><time>2026-04-19T12:33:12.923Z</time></trkpt><trkpt lat="45.4170251" lon="7.9944537"><ele>241.0</ele><time>2026-04-19T12:33:13.923Z</time></trkpt><trkpt lat="45.4169677" lon="7.9945632"><ele>241.20000000000002</ele><time>2026-04-19T12:33:14.924Z</time></trkpt><trkpt lat="45.4169215" lon="7.9946838"><ele>241.40000000000003</ele><time>2026-04-19T12:33:15.923Z</time></trkpt><trkpt lat="45.4168785" lon="7.9948159"><ele>241.6</ele><time>2026-04-19T12:33:16.923Z</time></trkpt><trkpt lat="45.4168359" lon="7.9949477"><ele>241.8</ele><time>2026-04-19T12:33:17.924Z</time></trkpt><trkpt lat="45.4168056" lon="7.9950881"><ele>242.0</ele><time>2026-04-19T12:33:18.924Z</time></trkpt><trkpt lat="45.4167834" lon="7.995231"><ele>242.2</ele><time>2026-04-19T12:33:19.923Z</time></trkpt><trkpt lat="45.4167635" lon="7.9953721"><ele>242.39999999999998</ele><time>2026-04-19T12:33:20.923Z</time></trkpt><trkpt lat="45.4167452" lon="7.9955157"><ele>242.60000000000002</ele><time>2026-04-19T12:33:21.924Z</time></trkpt><trkpt lat="45.4167288" lon="7.9956517"><ele>242.8</ele><time>2026-04-19T12:33:22.924Z</time></trkpt><trkpt lat="45.4167169" lon="7.9957638"><ele>243.0</ele><time>2026-04-19T12:33:23.923Z</time></trkpt><trkpt lat="45.4167131" lon="7.9958727"><ele>243.0</ele><time>2026-04-19T12:33:24.923Z</time></trkpt><trkpt lat="45.4167006" lon="7.9959744"><ele>243.0</ele><time>2026-04-19T12:33:25.924Z</time></trkpt><trkpt lat="45.4166506" lon="7.9961364"><ele>243.0</ele><time>2026-04-19T12:33:27.924Z</time></trkpt><trkpt lat="45.4166058" lon="7.9962241"><ele>243.0</ele><time>2026-04-19T12:33:28.923Z</time></trkpt><trkpt lat="45.4165636" lon="7.9963193"><ele>243.0</ele><time>2026-04-19T12:33:29.924Z</time></trkpt><trkpt lat="45.4164942" lon="7.9964304"><ele>243.0</ele><time>2026-04-19T12:33:30.924Z</time></trkpt><trkpt lat="45.4164333" lon="7.9965473"><ele>243.0</ele><time>2026-04-19T12:33:31.925Z</time></trkpt><trkpt lat="45.4163839" lon="7.9966558"><ele>243.0</ele><time>2026-04-19T12:33:32.923Z</time></trkpt><trkpt lat="45.4163296" lon="7.9967608"><ele>243.0</ele><time>2026-04-19T12:33:33.924Z</time></trkpt><trkpt lat="45.4162615" lon="7.9968654"><ele>243.0</ele><time>2026-04-19T12:33:34.923Z</time></trkpt><trkpt lat="45.4161928" lon="7.9969496"><ele>243.66666666666666</ele><time>2026-04-19T12:33:35.923Z</time></trkpt><trkpt lat="45.4161394" lon="7.9970259"><ele>244.33333333333331</ele><time>2026-04-19T12:33:36.924Z</time></trkpt><trkpt lat="45.4160992" lon="7.9971273"><ele>245.0</ele><time>2026-04-19T12:33:37.923Z</time></trkpt><trkpt lat="45.4160737" lon="7.9972559"><ele>245.66666666666666</ele><time>2026-04-19T12:33:38.924Z</time></trkpt><trkpt lat="45.4160488" lon="7.9973829"><ele>246.33333333333331</ele><time>2026-04-19T12:33:39.924Z</time></trkpt><trkpt lat="45.4160104" lon="7.9975153"><ele>247.0</ele><time>2026-04-19T12:33:40.925Z</time></trkpt><trkpt lat="45.4159734" lon="7.9976475"><ele>247.39999999999998</ele><time>2026-04-19T12:33:41.924Z</time></trkpt><trkpt lat="45.4159435" lon="7.9977892"><ele>247.79999999999998</ele><time>2026-04-19T12:33:42.924Z</time></trkpt><trkpt lat="45.4159067" lon="7.9979345"><ele>248.2</ele><time>2026-04-19T12:33:43.923Z</time></trkpt><trkpt lat="45.4158678" lon="7.9980622"><ele>248.6</ele><time>2026-04-19T12:33:44.924Z</time></trkpt><trkpt lat="45.4158173" lon="7.9981786"><ele>249.0</ele><time>2026-04-19T12:33:45.923Z</time></trkpt><trkpt lat="45.4157543" lon="7.9982855"><ele>248.79999999999998</ele><time>2026-04-19T12:33:46.923Z</time></trkpt><trkpt lat="45.4156927" lon="7.9983804"><ele>248.59999999999997</ele><time>2026-04-19T12:33:47.924Z</time></trkpt><trkpt lat="45.4156263" lon="7.9984782"><ele>248.4</ele><time>2026-04-19T12:33:48.924Z</time></trkpt><trkpt lat="45.4155551" lon="7.9985828"><ele>248.2</ele><time>2026-04-19T12:33:49.923Z</time></trkpt><trkpt lat="45.4154849" lon="7.9986838"><ele>248.0</ele><time>2026-04-19T12:33:50.924Z</time></trkpt><trkpt lat="45.4154103" lon="7.9987859"><ele>248.8</ele><time>2026-04-19T12:33:51.923Z</time></trkpt><trkpt lat="45.4153306" lon="7.9988893"><ele>249.60000000000002</ele><time>2026-04-19T12:33:52.923Z</time></trkpt><trkpt lat="45.4152487" lon="7.9989956"><ele>250.39999999999998</ele><time>2026-04-19T12:33:53.923Z</time></trkpt><trkpt lat="45.4151648" lon="7.9991043"><ele>251.2</ele><time>2026-04-19T12:33:54.924Z</time></trkpt><trkpt lat="45.4150783" lon="7.9992158"><ele>252.0</ele><time>2026-04-19T12:33:55.923Z</time></trkpt><trkpt lat="45.41499" lon="7.9993285"><ele>252.0</ele><time>2026-04-19T12:33:56.923Z</time></trkpt><trkpt lat="45.4148991" lon="7.9994375"><ele>252.0</ele><time>2026-04-19T12:33:57.924Z</time></trkpt><trkpt lat="45.4148123" lon="7.9995424"><ele>252.0</ele><time>2026-04-19T12:33:58.924Z</time></trkpt><trkpt lat="45.4147292" lon="7.999657"><ele>252.0</ele><time>2026-04-19T12:33:59.923Z</time></trkpt><trkpt lat="45.4146523" lon="7.9997732"><ele>252.8</ele><time>2026-04-19T12:34:00.923Z</time></trkpt><trkpt lat="45.414585" lon="7.9998812"><ele>253.6</ele><time>2026-04-19T12:34:01.923Z</time></trkpt><trkpt lat="45.4145282" lon="7.9999905"><ele>254.40000000000003</ele><time>2026-04-19T12:34:02.923Z</time></trkpt><trkpt lat="45.4144937" lon="8.0001179"><ele>255.20000000000002</ele><time>2026-04-19T12:34:03.923Z</time></trkpt><trkpt lat="45.4144872" lon="8.0002628"><ele>256.0</ele><time>2026-04-19T12:34:04.924Z</time></trkpt><trkpt lat="45.4144957" lon="8.0004185"><ele>256.0</ele><time>2026-04-19T12:34:05.924Z</time></trkpt><trkpt lat="45.414512" lon="8.0005863"><ele>256.0</ele><time>2026-04-19T12:34:06.923Z</time></trkpt><trkpt lat="45.4145307" lon="8.0007516"><ele>256.0</ele><time>2026-04-19T12:34:07.923Z</time></trkpt><trkpt lat="45.4145557" lon="8.0009192"><ele>256.0</ele><time>2026-04-19T12:34:08.924Z</time></trkpt><trkpt lat="45.4145751" lon="8.0010711"><ele>256.16666666666663</ele><time>2026-04-19T12:34:09.924Z</time></trkpt><trkpt lat="45.4145879" lon="8.0012033"><ele>256.3333333333333</ele><time>2026-04-19T12:34:10.924Z</time></trkpt><trkpt lat="45.4146004" lon="8.0013193"><ele>256.5</ele><time>2026-04-19T12:34:11.923Z</time></trkpt><trkpt lat="45.4146123" lon="8.0014079"><ele>256.6666666666667</ele><time>2026-04-19T12:34:12.923Z</time></trkpt><trkpt lat="45.4145881" lon="8.0015656"><ele>256.83333333333337</ele><time>2026-04-19T12:34:14.924Z</time></trkpt><trkpt lat="45.4145388" lon="8.0016299"><ele>257.0</ele><time>2026-04-19T12:34:15.923Z</time></trkpt><trkpt lat="45.4144729" lon="8.0016617"><ele>257.6666666666667</ele><time>2026-04-19T12:34:16.924Z</time></trkpt><trkpt lat="45.4143888" lon="8.0016881"><ele>258.33333333333337</ele><time>2026-04-19T12:34:17.923Z</time></trkpt><trkpt lat="45.414319" lon="8.0017256"><ele>259.0</ele><time>2026-04-19T12:34:18.924Z</time></trkpt><trkpt lat="45.4142677" lon="8.0017975"><ele>259.6666666666667</ele><time>2026-04-19T12:34:19.923Z</time></trkpt><trkpt lat="45.4142479" lon="8.0019779"><ele>260.3333333333333</ele><time>2026-04-19T12:34:21.923Z</time></trkpt><trkpt lat="45.4142447" lon="8.0020741"><ele>261.0</ele><time>2026-04-19T12:34:22.923Z</time></trkpt><trkpt lat="45.4142398" lon="8.0021882"><ele>261.0</ele><time>2026-04-19T12:34:23.923Z</time></trkpt><trkpt lat="45.4142243" lon="8.0023109"><ele>261.0</ele><time>2026-04-19T12:34:24.923Z</time></trkpt><trkpt lat="45.4142116" lon="8.0024538"><ele>261.0</ele><time>2026-04-19T12:34:25.924Z</time></trkpt><trkpt lat="45.4141996" lon="8.0026106"><ele>261.0</ele><time>2026-04-19T12:34:26.923Z</time></trkpt><trkpt lat="45.4141867" lon="8.0027734"><ele>261.0</ele><time>2026-04-19T12:34:27.923Z</time></trkpt><trkpt lat="45.4141762" lon="8.0029371"><ele>261.5</ele><time>2026-04-19T12:34:28.924Z</time></trkpt><trkpt lat="45.4141628" lon="8.0031015"><ele>262.0</ele><time>2026-04-19T12:34:29.923Z</time></trkpt><trkpt lat="45.4141487" lon="8.0032662"><ele>262.5</ele><time>2026-04-19T12:34:30.923Z</time></trkpt><trkpt lat="45.414134" lon="8.0034378"><ele>263.0</ele><time>2026-04-19T12:34:31.925Z</time></trkpt><trkpt lat="45.4141205" lon="8.0036061"><ele>263.5</ele><time>2026-04-19T12:34:32.924Z</time></trkpt><trkpt lat="45.4141086" lon="8.0037874"><ele>264.0</ele><time>2026-04-19T12:34:33.923Z</time></trkpt><trkpt lat="45.4141043" lon="8.0039743"><ele>264.5</ele><time>2026-04-19T12:34:34.923Z</time></trkpt><trkpt lat="45.4141031" lon="8.0041592"><ele>265.0</ele><time>2026-04-19T12:34:35.924Z</time></trkpt><trkpt lat="45.414098" lon="8.0043386"><ele>265.5</ele><time>2026-04-19T12:34:36.924Z</time></trkpt><trkpt lat="45.4140908" lon="8.0045141"><ele>266.0</ele><time>2026-04-19T12:34:37.923Z</time></trkpt><trkpt lat="45.4140886" lon="8.0046903"><ele>266.5</ele><time>2026-04-19T12:34:38.924Z</time></trkpt><trkpt lat="45.4140847" lon="8.0048532"><ele>267.0</ele><time>2026-04-19T12:34:39.924Z</time></trkpt><trkpt lat="45.4140787" lon="8.0050192"><ele>267.0</ele><time>2026-04-19T12:34:40.924Z</time></trkpt><trkpt lat="45.4140672" lon="8.0051836"><ele>267.0</ele><time>2026-04-19T12:34:41.925Z</time></trkpt><trkpt lat="45.4140566" lon="8.005345"><ele>267.0</ele><time>2026-04-19T12:34:42.923Z</time></trkpt><trkpt lat="45.4140471" lon="8.0055059"><ele>267.0</ele><time>2026-04-19T12:34:43.923Z</time></trkpt><trkpt lat="45.4140333" lon="8.0056667"><ele>267.0</ele><time>2026-04-19T12:34:44.923Z</time></trkpt><trkpt lat="45.4140241" lon="8.0058014"><ele>267.0</ele><time>2026-04-19T12:34:45.924Z</time></trkpt><trkpt lat="45.4140137" lon="8.0059151"><ele>267.0</ele><time>2026-04-19T12:34:46.924Z</time></trkpt><trkpt lat="45.4139925" lon="8.0060727"><ele>267.0</ele><time>2026-04-19T12:34:48.923Z</time></trkpt><trkpt lat="45.4139821" lon="8.0061723"><ele>267.0</ele><time>2026-04-19T12:34:50.923Z</time></trkpt><trkpt lat="45.4140266" lon="8.0062432"><ele>267.0</ele><time>2026-04-19T12:34:52.924Z</time></trkpt><trkpt lat="45.4141103" lon="8.0062023"><ele>267.0</ele><time>2026-04-19T12:34:54.923Z</time></trkpt><trkpt lat="45.4141597" lon="8.0061377"><ele>267.0</ele><time>2026-04-19T12:34:55.923Z</time></trkpt><trkpt lat="45.4142227" lon="8.006062"><ele>267.0</ele><time>2026-04-19T12:34:56.924Z</time></trkpt><trkpt lat="45.4142987" lon="8.0059827"><ele>267.0</ele><time>2026-04-19T12:34:57.925Z</time></trkpt><trkpt lat="45.4143827" lon="8.0058973"><ele>267.0</ele><time>2026-04-19T12:34:58.923Z</time></trkpt><trkpt lat="45.4144694" lon="8.0058092"><ele>267.0</ele><time>2026-04-19T12:34:59.923Z</time></trkpt><trkpt lat="45.4145619" lon="8.0057143"><ele>267.0</ele><time>2026-04-19T12:35:00.924Z</time></trkpt><trkpt lat="45.4146525" lon="8.0056247"><ele>267.0</ele><time>2026-04-19T12:35:01.924Z</time></trkpt><trkpt lat="45.4147429" lon="8.0055352"><ele>267.0</ele><time>2026-04-19T12:35:02.923Z</time></trkpt><trkpt lat="45.414835" lon="8.0054431"><ele>267.0</ele><time>2026-04-19T12:35:03.923Z</time></trkpt><trkpt lat="45.4149286" lon="8.0053464"><ele>267.5</ele><time>2026-04-19T12:35:04.924Z</time></trkpt><trkpt lat="45.4150295" lon="8.0052535"><ele>268.0</ele><time>2026-04-19T12:35:05.924Z</time></trkpt><trkpt lat="45.4151326" lon="8.005154"><ele>268.5</ele><time>2026-04-19T12:35:06.924Z</time></trkpt><trkpt lat="45.4152371" lon="8.0050448"><ele>269.0</ele><time>2026-04-19T12:35:07.923Z</time></trkpt><trkpt lat="45.4153427" lon="8.0049391"><ele>269.0</ele><time>2026-04-19T12:35:08.923Z</time></trkpt><trkpt lat="45.4154492" lon="8.0048313"><ele>269.0</ele><time>2026-04-19T12:35:09.924Z</time></trkpt><trkpt lat="45.4155575" lon="8.0047226"><ele>269.0</ele><time>2026-04-19T12:35:10.923Z</time></trkpt><trkpt lat="45.4156645" lon="8.00462"><ele>269.0</ele><time>2026-04-19T12:35:11.923Z</time></trkpt><trkpt lat="45.4157657" lon="8.0045235"><ele>268.0</ele><time>2026-04-19T12:35:12.923Z</time></trkpt><trkpt lat="45.4158714" lon="8.0044246"><ele>267.0</ele><time>2026-04-19T12:35:13.924Z</time></trkpt><trkpt lat="45.4159776" lon="8.0043252"><ele>266.0</ele><time>2026-04-19T12:35:14.923Z</time></trkpt><trkpt lat="45.4160842" lon="8.0042143"><ele>265.0</ele><time>2026-04-19T12:35:15.923Z</time></trkpt><trkpt lat="45.4161915" lon="8.0040917"><ele>265.0</ele><time>2026-04-19T12:35:16.923Z</time></trkpt><trkpt lat="45.4163044" lon="8.0039701"><ele>265.0</ele><time>2026-04-19T12:35:17.923Z</time></trkpt><trkpt lat="45.4164347" lon="8.003845"><ele>265.0</ele><time>2026-04-19T12:35:18.923Z</time></trkpt><trkpt lat="45.4165616" lon="8.0037224"><ele>263.0</ele><time>2026-04-19T12:35:19.923Z</time></trkpt><trkpt lat="45.4166878" lon="8.0035929"><ele>261.0</ele><time>2026-04-19T12:35:20.924Z</time></trkpt><trkpt lat="45.4168083" lon="8.0034754"><ele>259.0</ele><time>2026-04-19T12:35:21.923Z</time></trkpt><trkpt lat="45.4169293" lon="8.0033557"><ele>257.0</ele><time>2026-04-19T12:35:22.924Z</time></trkpt><trkpt lat="45.4170509" lon="8.003234"><ele>255.5</ele><time>2026-04-19T12:35:23.923Z</time></trkpt><trkpt lat="45.4171684" lon="8.0031192"><ele>254.0</ele><time>2026-04-19T12:35:24.925Z</time></trkpt><trkpt lat="45.4172874" lon="8.0030036"><ele>252.5</ele><time>2026-04-19T12:35:25.923Z</time></trkpt><trkpt lat="45.4174062" lon="8.002883"><ele>251.0</ele><time>2026-04-19T12:35:26.924Z</time></trkpt><trkpt lat="45.4175255" lon="8.0027621"><ele>251.0</ele><time>2026-04-19T12:35:27.923Z</time></trkpt><trkpt lat="45.4176481" lon="8.0026509"><ele>251.0</ele><time>2026-04-19T12:35:28.923Z</time></trkpt><trkpt lat="45.417777" lon="8.0025489"><ele>251.0</ele><time>2026-04-19T12:35:29.923Z</time></trkpt><trkpt lat="45.4179115" lon="8.0024517"><ele>251.0</ele><time>2026-04-19T12:35:30.924Z</time></trkpt><trkpt lat="45.4180492" lon="8.002363"><ele>248.66666666666669</ele><time>2026-04-19T12:35:31.924Z</time></trkpt><trkpt lat="45.4181888" lon="8.0022786"><ele>246.33333333333331</ele><time>2026-04-19T12:35:32.925Z</time></trkpt><trkpt lat="45.4183376" lon="8.0022032"><ele>244.0</ele><time>2026-04-19T12:35:33.923Z</time></trkpt><trkpt lat="45.4184952" lon="8.0021468"><ele>244.0</ele><time>2026-04-19T12:35:34.923Z</time></trkpt><trkpt lat="45.418659" lon="8.0021133"><ele>244.0</ele><time>2026-04-19T12:35:35.923Z</time></trkpt><trkpt lat="45.4188272" lon="8.0020887"><ele>244.0</ele><time>2026-04-19T12:35:36.923Z</time></trkpt><trkpt lat="45.4189914" lon="8.0020631"><ele>243.0</ele><time>2026-04-19T12:35:37.924Z</time></trkpt><trkpt lat="45.4191463" lon="8.0020409"><ele>242.0</ele><time>2026-04-19T12:35:38.923Z</time></trkpt><trkpt lat="45.4193028" lon="8.0020192"><ele>241.0</ele><time>2026-04-19T12:35:39.923Z</time></trkpt><trkpt lat="45.4194596" lon="8.0019985"><ele>241.0</ele><time>2026-04-19T12:35:40.924Z</time></trkpt><trkpt lat="45.419618" lon="8.0019714"><ele>241.0</ele><time>2026-04-19T12:35:41.924Z</time></trkpt><trkpt lat="45.4197783" lon="8.0019531"><ele>241.0</ele><time>2026-04-19T12:35:42.923Z</time></trkpt><trkpt lat="45.4199387" lon="8.0019326"><ele>240.75</ele><time>2026-04-19T12:35:43.924Z</time></trkpt><trkpt lat="45.4200967" lon="8.001914"><ele>240.5</ele><time>2026-04-19T12:35:44.924Z</time></trkpt><trkpt lat="45.4202417" lon="8.0018931"><ele>240.25</ele><time>2026-04-19T12:35:45.924Z</time></trkpt><trkpt lat="45.4203825" lon="8.0018726"><ele>240.0</ele><time>2026-04-19T12:35:46.923Z</time></trkpt><trkpt lat="45.4205119" lon="8.0018586"><ele>240.0</ele><time>2026-04-19T12:35:47.924Z</time></trkpt><trkpt lat="45.4206376" lon="8.0018457"><ele>240.0</ele><time>2026-04-19T12:35:48.923Z</time></trkpt><trkpt lat="45.4207625" lon="8.0018296"><ele>240.0</ele><time>2026-04-19T12:35:49.923Z</time></trkpt><trkpt lat="45.420881" lon="8.0018019"><ele>240.0</ele><time>2026-04-19T12:35:50.924Z</time></trkpt><trkpt lat="45.4209975" lon="8.0017427"><ele>240.25</ele><time>2026-04-19T12:35:51.924Z</time></trkpt><trkpt lat="45.421111" lon="8.0016627"><ele>240.5</ele><time>2026-04-19T12:35:52.924Z</time></trkpt><trkpt lat="45.4212312" lon="8.0015855"><ele>240.75</ele><time>2026-04-19T12:35:53.923Z</time></trkpt><trkpt lat="45.4213535" lon="8.0015069"><ele>241.0</ele><time>2026-04-19T12:35:54.924Z</time></trkpt><trkpt lat="45.4214735" lon="8.0014205"><ele>240.0</ele><time>2026-04-19T12:35:55.923Z</time></trkpt><trkpt lat="45.4215819" lon="8.0013302"><ele>239.0</ele><time>2026-04-19T12:35:56.924Z</time></trkpt><trkpt lat="45.4216834" lon="8.0012372"><ele>238.0</ele><time>2026-04-19T12:35:57.923Z</time></trkpt><trkpt lat="45.4217769" lon="8.0011421"><ele>237.0</ele><time>2026-04-19T12:35:58.923Z</time></trkpt><trkpt lat="45.4218668" lon="8.0010439"><ele>237.0</ele><time>2026-04-19T12:35:59.924Z</time></trkpt><trkpt lat="45.4219551" lon="8.0009451"><ele>237.0</ele><time>2026-04-19T12:36:00.924Z</time></trkpt><trkpt lat="45.4220396" lon="8.0008525"><ele>237.0</ele><time>2026-04-19T12:36:01.923Z</time></trkpt><trkpt lat="45.4221226" lon="8.0007569"><ele>237.0</ele><time>2026-04-19T12:36:02.924Z</time></trkpt><trkpt lat="45.4222074" lon="8.0006629"><ele>237.0</ele><time>2026-04-19T12:36:03.923Z</time></trkpt><trkpt lat="45.4222948" lon="8.0005821"><ele>236.66666666666666</ele><time>2026-04-19T12:36:04.924Z</time></trkpt><trkpt lat="45.4223875" lon="8.0005338"><ele>236.33333333333331</ele><time>2026-04-19T12:36:05.924Z</time></trkpt><trkpt lat="45.4224817" lon="8.0005103"><ele>236.0</ele><time>2026-04-19T12:36:06.923Z</time></trkpt><trkpt lat="45.4225689" lon="8.0004865"><ele>235.66666666666666</ele><time>2026-04-19T12:36:07.923Z</time></trkpt><trkpt lat="45.4226454" lon="8.0004528"><ele>235.33333333333331</ele><time>2026-04-19T12:36:08.923Z</time></trkpt><trkpt lat="45.4227081" lon="8.0004237"><ele>235.0</ele><time>2026-04-19T12:36:09.924Z</time></trkpt><trkpt lat="45.4228144" lon="8.0003673"><ele>234.99999999999997</ele><time>2026-04-19T12:36:11.923Z</time></trkpt><trkpt lat="45.4229082" lon="8.0003752"><ele>235.0</ele><time>2026-04-19T12:36:13.923Z</time></trkpt><trkpt lat="45.4229259" lon="8.0005031"><ele>235.0</ele><time>2026-04-19T12:36:15.923Z</time></trkpt><trkpt lat="45.4229091" lon="8.0005989"><ele>235.0</ele><time>2026-04-19T12:36:16.923Z</time></trkpt><trkpt lat="45.422875" lon="8.0007038"><ele>234.99999999999997</ele><time>2026-04-19T12:36:17.924Z</time></trkpt><trkpt lat="45.4228408" lon="8.0008175"><ele>235.0</ele><time>2026-04-19T12:36:18.923Z</time></trkpt><trkpt lat="45.4228048" lon="8.0009445"><ele>235.0</ele><time>2026-04-19T12:36:19.924Z</time></trkpt><trkpt lat="45.4227752" lon="8.0010794"><ele>235.0</ele><time>2026-04-19T12:36:20.923Z</time></trkpt><trkpt lat="45.4227452" lon="8.0012246"><ele>235.0</ele><time>2026-04-19T12:36:21.923Z</time></trkpt><trkpt lat="45.4227091" lon="8.0013783"><ele>235.0</ele><time>2026-04-19T12:36:22.924Z</time></trkpt><trkpt lat="45.4226722" lon="8.0015497"><ele>235.0</ele><time>2026-04-19T12:36:23.923Z</time></trkpt><trkpt lat="45.4226329" lon="8.0017276"><ele>234.5</ele><time>2026-04-19T12:36:24.923Z</time></trkpt><trkpt lat="45.4225904" lon="8.001916"><ele>234.0</ele><time>2026-04-19T12:36:25.924Z</time></trkpt><trkpt lat="45.4225469" lon="8.0021109"><ele>233.5</ele><time>2026-04-19T12:36:26.924Z</time></trkpt><trkpt lat="45.4225027" lon="8.0023028"><ele>233.0</ele><time>2026-04-19T12:36:27.923Z</time></trkpt><trkpt lat="45.4224606" lon="8.0024908"><ele>233.25</ele><time>2026-04-19T12:36:28.924Z</time></trkpt><trkpt lat="45.4224184" lon="8.002666"><ele>233.5</ele><time>2026-04-19T12:36:29.923Z</time></trkpt><trkpt lat="45.4223772" lon="8.0028305"><ele>233.75</ele><time>2026-04-19T12:36:30.923Z</time></trkpt><trkpt lat="45.4223445" lon="8.0029823"><ele>234.0</ele><time>2026-04-19T12:36:31.923Z</time></trkpt><trkpt lat="45.4223148" lon="8.0031211"><ele>234.0</ele><time>2026-04-19T12:36:32.924Z</time></trkpt><trkpt lat="45.422295" lon="8.003249"><ele>233.99999999999997</ele><time>2026-04-19T12:36:33.925Z</time></trkpt><trkpt lat="45.4222982" lon="8.003376"><ele>233.99999999999997</ele><time>2026-04-19T12:36:34.923Z</time></trkpt><trkpt lat="45.4223257" lon="8.0035137"><ele>234.0</ele><time>2026-04-19T12:36:35.923Z</time></trkpt><trkpt lat="45.4223986" lon="8.0036411"><ele>234.0</ele><time>2026-04-19T12:36:36.924Z</time></trkpt><trkpt lat="45.4224657" lon="8.0037485"><ele>233.79999999999998</ele><time>2026-04-19T12:36:37.924Z</time></trkpt><trkpt lat="45.422542" lon="8.0038329"><ele>233.59999999999997</ele><time>2026-04-19T12:36:38.923Z</time></trkpt><trkpt lat="45.4226185" lon="8.0039319"><ele>233.4</ele><time>2026-04-19T12:36:39.924Z</time></trkpt><trkpt lat="45.4226824" lon="8.0040487"><ele>233.2</ele><time>2026-04-19T12:36:40.924Z</time></trkpt><trkpt lat="45.4227346" lon="8.0041808"><ele>233.0</ele><time>2026-04-19T12:36:41.923Z</time></trkpt><trkpt lat="45.4227838" lon="8.0043176"><ele>232.83333333333334</ele><time>2026-04-19T12:36:42.924Z</time></trkpt><trkpt lat="45.4228277" lon="8.0044441"><ele>232.66666666666669</ele><time>2026-04-19T12:36:43.923Z</time></trkpt><trkpt lat="45.4228721" lon="8.0045756"><ele>232.5</ele><time>2026-04-19T12:36:44.923Z</time></trkpt><trkpt lat="45.4229077" lon="8.0046874"><ele>232.33333333333331</ele><time>2026-04-19T12:36:45.924Z</time></trkpt><trkpt lat="45.4229374" lon="8.0047766"><ele>232.16666666666666</ele><time>2026-04-19T12:36:46.923Z</time></trkpt><trkpt lat="45.422967" lon="8.0048583"><ele>232.0</ele><time>2026-04-19T12:36:48.923Z</time></trkpt><trkpt lat="45.4230312" lon="8.0050819"><ele>232.33333333333331</ele><time>2026-04-19T12:37:12.924Z</time></trkpt><trkpt lat="45.4230671" lon="8.0052573"><ele>232.66666666666666</ele><time>2026-04-19T12:37:14.924Z</time></trkpt><trkpt lat="45.4230835" lon="8.0053499"><ele>233.0</ele><time>2026-04-19T12:37:15.924Z</time></trkpt><trkpt lat="45.4230979" lon="8.0054534"><ele>233.33333333333331</ele><time>2026-04-19T12:37:16.923Z</time></trkpt><trkpt lat="45.4231124" lon="8.0055594"><ele>233.66666666666666</ele><time>2026-04-19T12:37:17.923Z</time></trkpt><trkpt lat="45.4231258" lon="8.0056686"><ele>234.0</ele><time>2026-04-19T12:37:18.922Z</time></trkpt><trkpt lat="45.4231408" lon="8.0057909"><ele>234.0</ele><time>2026-04-19T12:37:19.922Z</time></trkpt><trkpt lat="45.4231625" lon="8.0059294"><ele>233.99999999999997</ele><time>2026-04-19T12:37:20.922Z</time></trkpt><trkpt lat="45.4231831" lon="8.0060807"><ele>233.99999999999997</ele><time>2026-04-19T12:37:21.923Z</time></trkpt><trkpt lat="45.4232085" lon="8.0062368"><ele>234.0</ele><time>2026-04-19T12:37:22.923Z</time></trkpt><trkpt lat="45.423238" lon="8.0064106"><ele>234.0</ele><time>2026-04-19T12:37:23.922Z</time></trkpt><trkpt lat="45.4232707" lon="8.0065895"><ele>233.5</ele><time>2026-04-19T12:37:24.923Z</time></trkpt><trkpt lat="45.4233168" lon="8.0067698"><ele>233.0</ele><time>2026-04-19T12:37:25.923Z</time></trkpt><trkpt lat="45.4233647" lon="8.0069513"><ele>232.5</ele><time>2026-04-19T12:37:26.922Z</time></trkpt><trkpt lat="45.423409" lon="8.0071334"><ele>232.0</ele><time>2026-04-19T12:37:27.922Z</time></trkpt><trkpt lat="45.4234427" lon="8.007324"><ele>232.25</ele><time>2026-04-19T12:37:28.923Z</time></trkpt><trkpt lat="45.42346" lon="8.0075217"><ele>232.5</ele><time>2026-04-19T12:37:29.922Z</time></trkpt><trkpt lat="45.4234685" lon="8.007722"><ele>232.75</ele><time>2026-04-19T12:37:30.922Z</time></trkpt><trkpt lat="45.4234716" lon="8.007929"><ele>233.0</ele><time>2026-04-19T12:37:31.923Z</time></trkpt><trkpt lat="45.4234721" lon="8.0081452"><ele>233.0</ele><time>2026-04-19T12:37:32.922Z</time></trkpt><trkpt lat="45.4234727" lon="8.0083599"><ele>233.0</ele><time>2026-04-19T12:37:33.922Z</time></trkpt><trkpt lat="45.4234728" lon="8.0085652"><ele>233.0</ele><time>2026-04-19T12:37:34.922Z</time></trkpt><trkpt lat="45.4234727" lon="8.0087666"><ele>233.0</ele><time>2026-04-19T12:37:35.922Z</time></trkpt><trkpt lat="45.423475" lon="8.0089532"><ele>233.0</ele><time>2026-04-19T12:37:36.923Z</time></trkpt><trkpt lat="45.4234737" lon="8.0091347"><ele>233.0</ele><time>2026-04-19T12:37:37.922Z</time></trkpt><trkpt lat="45.4234795" lon="8.0093159"><ele>233.0</ele><time>2026-04-19T12:37:38.923Z</time></trkpt><trkpt lat="45.4234975" lon="8.0094883"><ele>233.0</ele><time>2026-04-19T12:37:39.922Z</time></trkpt><trkpt lat="45.423528" lon="8.0096271"><ele>233.0</ele><time>2026-04-19T12:37:40.922Z</time></trkpt><trkpt lat="45.4235607" lon="8.0097534"><ele>233.0</ele><time>2026-04-19T12:37:41.922Z</time></trkpt><trkpt lat="45.4235886" lon="8.0098675"><ele>233.0</ele><time>2026-04-19T12:37:42.923Z</time></trkpt><trkpt lat="45.4236145" lon="8.0099604"><ele>233.0</ele><time>2026-04-19T12:37:43.922Z</time></trkpt><trkpt lat="45.4236987" lon="8.0100698"><ele>233.0</ele><time>2026-04-19T12:37:45.922Z</time></trkpt><trkpt lat="45.4238331" lon="8.0100465"><ele>233.33333333333334</ele><time>2026-04-19T12:37:47.922Z</time></trkpt><trkpt lat="45.4239054" lon="8.009989"><ele>233.66666666666669</ele><time>2026-04-19T12:37:48.923Z</time></trkpt><trkpt lat="45.4239818" lon="8.0099159"><ele>234.0</ele><time>2026-04-19T12:37:49.923Z</time></trkpt><trkpt lat="45.4240494" lon="8.0098199"><ele>234.33333333333331</ele><time>2026-04-19T12:37:50.922Z</time></trkpt><trkpt lat="45.424114" lon="8.0097293"><ele>234.66666666666666</ele><time>2026-04-19T12:37:51.922Z</time></trkpt><trkpt lat="45.4241616" lon="8.0096593"><ele>235.0</ele><time>2026-04-19T12:37:52.924Z</time></trkpt><trkpt lat="45.4242448" lon="8.0096021"><ele>234.99999999999997</ele><time>2026-04-19T12:37:54.922Z</time></trkpt><trkpt lat="45.424302" lon="8.0096647"><ele>235.0</ele><time>2026-04-19T12:37:56.922Z</time></trkpt><trkpt lat="45.4243223" lon="8.0097994"><ele>235.0</ele><time>2026-04-19T12:37:58.923Z</time></trkpt><trkpt lat="45.4243377" lon="8.0099038"><ele>235.0</ele><time>2026-04-19T12:37:59.922Z</time></trkpt><trkpt lat="45.4243535" lon="8.0100292"><ele>234.99999999999997</ele><time>2026-04-19T12:38:00.922Z</time></trkpt><trkpt lat="45.4243666" lon="8.0101693"><ele>235.0</ele><time>2026-04-19T12:38:01.923Z</time></trkpt><trkpt lat="45.4243776" lon="8.0103094"><ele>234.6</ele><time>2026-04-19T12:38:02.923Z</time></trkpt><trkpt lat="45.4243879" lon="8.0104529"><ele>234.2</ele><time>2026-04-19T12:38:03.922Z</time></trkpt><trkpt lat="45.4244001" lon="8.0106063"><ele>233.8</ele><time>2026-04-19T12:38:04.923Z</time></trkpt><trkpt lat="45.4244174" lon="8.0107593"><ele>233.4</ele><time>2026-04-19T12:38:05.923Z</time></trkpt><trkpt lat="45.4244303" lon="8.010927"><ele>233.0</ele><time>2026-04-19T12:38:06.922Z</time></trkpt><trkpt lat="45.4244445" lon="8.0110966"><ele>232.8</ele><time>2026-04-19T12:38:07.923Z</time></trkpt><trkpt lat="45.4244587" lon="8.0112538"><ele>232.60000000000002</ele><time>2026-04-19T12:38:08.923Z</time></trkpt><trkpt lat="45.424473" lon="8.0114033"><ele>232.39999999999998</ele><time>2026-04-19T12:38:09.924Z</time></trkpt><trkpt lat="45.4244839" lon="8.0115353"><ele>232.2</ele><time>2026-04-19T12:38:10.922Z</time></trkpt><trkpt lat="45.4244945" lon="8.0116587"><ele>232.0</ele><time>2026-04-19T12:38:11.922Z</time></trkpt><trkpt lat="45.4245048" lon="8.0117688"><ele>231.99999999999997</ele><time>2026-04-19T12:38:12.923Z</time></trkpt><trkpt lat="45.4245148" lon="8.011858"><ele>232.0</ele><time>2026-04-19T12:38:13.923Z</time></trkpt><trkpt lat="45.4245785" lon="8.0119356"><ele>232.0</ele><time>2026-04-19T12:38:15.922Z</time></trkpt><trkpt lat="45.424704" lon="8.0119136"><ele>232.0</ele><time>2026-04-19T12:38:17.923Z</time></trkpt><trkpt lat="45.4247771" lon="8.0118993"><ele>231.99999999999997</ele><time>2026-04-19T12:38:18.923Z</time></trkpt><trkpt lat="45.4248567" lon="8.0118839"><ele>232.0</ele><time>2026-04-19T12:38:19.922Z</time></trkpt><trkpt lat="45.4249417" lon="8.0118612"><ele>232.0</ele><time>2026-04-19T12:38:20.922Z</time></trkpt><trkpt lat="45.4250345" lon="8.0118317"><ele>232.0</ele><time>2026-04-19T12:38:21.923Z</time></trkpt><trkpt lat="45.4251386" lon="8.0117963"><ele>232.0</ele><time>2026-04-19T12:38:22.923Z</time></trkpt><trkpt lat="45.4252389" lon="8.0117615"><ele>232.0</ele><time>2026-04-19T12:38:23.923Z</time></trkpt><trkpt lat="45.4253456" lon="8.0117182"><ele>232.0</ele><time>2026-04-19T12:38:24.922Z</time></trkpt><trkpt lat="45.4254556" lon="8.0116762"><ele>232.0</ele><time>2026-04-19T12:38:25.924Z</time></trkpt><trkpt lat="45.425571" lon="8.0116353"><ele>232.0</ele><time>2026-04-19T12:38:26.922Z</time></trkpt><trkpt lat="45.4256916" lon="8.0115926"><ele>232.0</ele><time>2026-04-19T12:38:27.923Z</time></trkpt><trkpt lat="45.4258129" lon="8.0115469"><ele>232.0</ele><time>2026-04-19T12:38:28.922Z</time></trkpt><trkpt lat="45.4259408" lon="8.0115054"><ele>232.0</ele><time>2026-04-19T12:38:29.922Z</time></trkpt><trkpt lat="45.4260701" lon="8.0114695"><ele>232.0</ele><time>2026-04-19T12:38:30.922Z</time></trkpt><trkpt lat="45.4262014" lon="8.0114317"><ele>232.0</ele><time>2026-04-19T12:38:31.922Z</time></trkpt><trkpt lat="45.4263327" lon="8.0113982"><ele>232.0</ele><time>2026-04-19T12:38:32.924Z</time></trkpt><trkpt lat="45.4264761" lon="8.0113675"><ele>232.25</ele><time>2026-04-19T12:38:33.923Z</time></trkpt><trkpt lat="45.426596" lon="8.0113467"><ele>232.5</ele><time>2026-04-19T12:38:34.922Z</time></trkpt><trkpt lat="45.4267066" lon="8.0113259"><ele>232.75</ele><time>2026-04-19T12:38:35.922Z</time></trkpt><trkpt lat="45.4268123" lon="8.0113067"><ele>233.0</ele><time>2026-04-19T12:38:36.923Z</time></trkpt><trkpt lat="45.4269223" lon="8.0112876"><ele>233.0</ele><time>2026-04-19T12:38:37.922Z</time></trkpt><trkpt lat="45.4270171" lon="8.0112765"><ele>233.0</ele><time>2026-04-19T12:38:38.922Z</time></trkpt><trkpt lat="45.4271055" lon="8.0112707"><ele>233.0</ele><time>2026-04-19T12:38:39.923Z</time></trkpt><trkpt lat="45.4271806" lon="8.011264"><ele>233.0</ele><time>2026-04-19T12:38:40.922Z</time></trkpt><trkpt lat="45.4272959" lon="8.0112638"><ele>233.0</ele><time>2026-04-19T12:38:42.922Z</time></trkpt><trkpt lat="45.4273923" lon="8.0112535"><ele>233.00000000000003</ele><time>2026-04-19T12:38:44.923Z</time></trkpt><trkpt lat="45.4274662" lon="8.0112363"><ele>233.0</ele><time>2026-04-19T12:38:46.922Z</time></trkpt><trkpt lat="45.4275085" lon="8.0111553"><ele>233.0</ele><time>2026-04-19T12:38:48.922Z</time></trkpt><trkpt lat="45.4275069" lon="8.0109958"><ele>233.0</ele><time>2026-04-19T12:38:50.923Z</time></trkpt><trkpt lat="45.4275007" lon="8.0108718"><ele>233.00000000000003</ele><time>2026-04-19T12:38:51.922Z</time></trkpt><trkpt lat="45.4274953" lon="8.010751"><ele>233.0</ele><time>2026-04-19T12:38:52.922Z</time></trkpt><trkpt lat="45.4274907" lon="8.0106218"><ele>232.8</ele><time>2026-04-19T12:38:53.922Z</time></trkpt><trkpt lat="45.427483" lon="8.010486"><ele>232.60000000000002</ele><time>2026-04-19T12:38:54.922Z</time></trkpt><trkpt lat="45.4274762" lon="8.0103397"><ele>232.39999999999998</ele><time>2026-04-19T12:38:55.922Z</time></trkpt><trkpt lat="45.4274696" lon="8.0101891"><ele>232.2</ele><time>2026-04-19T12:38:56.922Z</time></trkpt><trkpt lat="45.4274636" lon="8.0100263"><ele>232.0</ele><time>2026-04-19T12:38:57.922Z</time></trkpt><trkpt lat="45.4274569" lon="8.0098625"><ele>231.99999999999997</ele><time>2026-04-19T12:38:58.923Z</time></trkpt><trkpt lat="45.4274484" lon="8.0097195"><ele>232.0</ele><time>2026-04-19T12:38:59.922Z</time></trkpt><trkpt lat="45.4274407" lon="8.0095847"><ele>232.0</ele><time>2026-04-19T12:39:00.922Z</time></trkpt><trkpt lat="45.4274341" lon="8.0094615"><ele>232.0</ele><time>2026-04-19T12:39:01.922Z</time></trkpt><trkpt lat="45.4274294" lon="8.0093546"><ele>231.99999999999997</ele><time>2026-04-19T12:39:02.922Z</time></trkpt><trkpt lat="45.4274245" lon="8.0092645"><ele>232.0</ele><time>2026-04-19T12:39:03.922Z</time></trkpt><trkpt lat="45.4274305" lon="8.0091622"><ele>232.0</ele><time>2026-04-19T12:39:05.922Z</time></trkpt><trkpt lat="45.4274919" lon="8.009114"><ele>232.0</ele><time>2026-04-19T12:39:07.923Z</time></trkpt><trkpt lat="45.4276266" lon="8.0091524"><ele>232.0</ele><time>2026-04-19T12:39:09.923Z</time></trkpt><trkpt lat="45.4277203" lon="8.0091761"><ele>232.0</ele><time>2026-04-19T12:39:10.923Z</time></trkpt><trkpt lat="45.4278159" lon="8.0091977"><ele>232.0</ele><time>2026-04-19T12:39:11.922Z</time></trkpt><trkpt lat="45.4279069" lon="8.0092315"><ele>232.39999999999998</ele><time>2026-04-19T12:39:12.922Z</time></trkpt><trkpt lat="45.4279896" lon="8.0092767"><ele>232.79999999999998</ele><time>2026-04-19T12:39:13.923Z</time></trkpt><trkpt lat="45.4280653" lon="8.0093182"><ele>233.2</ele><time>2026-04-19T12:39:14.922Z</time></trkpt><trkpt lat="45.4281325" lon="8.0093512"><ele>233.6</ele><time>2026-04-19T12:39:15.922Z</time></trkpt><trkpt lat="45.4282427" lon="8.0094024"><ele>234.0</ele><time>2026-04-19T12:39:17.923Z</time></trkpt><trkpt lat="45.4283343" lon="8.009448"><ele>234.0</ele><time>2026-04-19T12:39:19.923Z</time></trkpt><trkpt lat="45.4284008" lon="8.0094886"><ele>233.99999999999997</ele><time>2026-04-19T12:39:21.922Z</time></trkpt><trkpt lat="45.4284702" lon="8.0095847"><ele>233.99999999999997</ele><time>2026-04-19T12:39:37.923Z</time></trkpt><trkpt lat="45.4285526" lon="8.0096187"><ele>234.0</ele><time>2026-04-19T12:40:44.922Z</time></trkpt><trkpt lat="45.428634" lon="8.0096657"><ele>234.0</ele><time>2026-04-19T12:40:45.923Z</time></trkpt><trkpt lat="45.4287468" lon="8.0097224"><ele>233.75</ele><time>2026-04-19T12:40:46.923Z</time></trkpt><trkpt lat="45.4288914" lon="8.0097942"><ele>233.5</ele><time>2026-04-19T12:40:47.923Z</time></trkpt><trkpt lat="45.4290335" lon="8.0098554"><ele>233.25</ele><time>2026-04-19T12:40:48.923Z</time></trkpt><trkpt lat="45.4291631" lon="8.0098987"><ele>233.0</ele><time>2026-04-19T12:40:49.922Z</time></trkpt><trkpt lat="45.4292801" lon="8.0099189"><ele>233.0</ele><time>2026-04-19T12:40:50.924Z</time></trkpt><trkpt lat="45.4293912" lon="8.0099409"><ele>233.0</ele><time>2026-04-19T12:40:51.922Z</time></trkpt><trkpt lat="45.429501" lon="8.0099585"><ele>233.0</ele><time>2026-04-19T12:40:52.923Z</time></trkpt><trkpt lat="45.4296135" lon="8.0099733"><ele>233.0</ele><time>2026-04-19T12:40:53.923Z</time></trkpt><trkpt lat="45.4297374" lon="8.0099749"><ele>232.25</ele><time>2026-04-19T12:40:54.923Z</time></trkpt><trkpt lat="45.4298609" lon="8.0099651"><ele>231.5</ele><time>2026-04-19T12:40:55.923Z</time></trkpt><trkpt lat="45.4299801" lon="8.0099625"><ele>230.75</ele><time>2026-04-19T12:40:56.922Z</time></trkpt><trkpt lat="45.430097" lon="8.0099485"><ele>230.0</ele><time>2026-04-19T12:40:57.923Z</time></trkpt><trkpt lat="45.4302194" lon="8.0099175"><ele>230.0</ele><time>2026-04-19T12:40:58.923Z</time></trkpt><trkpt lat="45.4303345" lon="8.0098606"><ele>230.0</ele><time>2026-04-19T12:40:59.923Z</time></trkpt><trkpt lat="45.4304426" lon="8.0097784"><ele>230.0</ele><time>2026-04-19T12:41:00.923Z</time></trkpt><trkpt lat="45.430545" lon="8.009676"><ele>230.0</ele><time>2026-04-19T12:41:01.923Z</time></trkpt><trkpt lat="45.4306322" lon="8.009569"><ele>230.4</ele><time>2026-04-19T12:41:02.923Z</time></trkpt><trkpt lat="45.430704" lon="8.0094692"><ele>230.8</ele><time>2026-04-19T12:41:03.922Z</time></trkpt><trkpt lat="45.4307603" lon="8.0093875"><ele>231.2</ele><time>2026-04-19T12:41:04.922Z</time></trkpt><trkpt lat="45.4308147" lon="8.0093252"><ele>231.6</ele><time>2026-04-19T12:41:05.923Z</time></trkpt><trkpt lat="45.4309075" lon="8.0092607"><ele>232.0</ele><time>2026-04-19T12:41:07.923Z</time></trkpt><trkpt lat="45.4311174" lon="8.0093449"><ele>231.99999999999997</ele><time>2026-04-19T12:41:14.923Z</time></trkpt><trkpt lat="45.4311579" lon="8.0094308"><ele>232.0</ele><time>2026-04-19T12:41:19.922Z</time></trkpt><trkpt lat="45.4311862" lon="8.0095225"><ele>232.0</ele><time>2026-04-19T12:41:23.922Z</time></trkpt><trkpt lat="45.4312268" lon="8.0096267"><ele>232.0</ele><time>2026-04-19T12:41:26.924Z</time></trkpt><trkpt lat="45.4313105" lon="8.0097017"><ele>231.99999999999997</ele><time>2026-04-19T12:41:28.923Z</time></trkpt><trkpt lat="45.4313943" lon="8.0097985"><ele>232.0</ele><time>2026-04-19T12:41:30.922Z</time></trkpt><trkpt lat="45.4314761" lon="8.0099309"><ele>231.99999999999997</ele><time>2026-04-19T12:41:32.922Z</time></trkpt><trkpt lat="45.4315213" lon="8.0100242"><ele>232.0</ele><time>2026-04-19T12:41:33.924Z</time></trkpt><trkpt lat="45.4315671" lon="8.0101049"><ele>232.0</ele><time>2026-04-19T12:41:34.922Z</time></trkpt><trkpt lat="45.4316081" lon="8.010173"><ele>232.0</ele><time>2026-04-19T12:41:35.924Z</time></trkpt><trkpt lat="45.4316746" lon="8.0102938"><ele>231.99999999999997</ele><time>2026-04-19T12:41:37.922Z</time></trkpt><trkpt lat="45.4317599" lon="8.0103922"><ele>232.0</ele><time>2026-04-19T12:41:39.923Z</time></trkpt><trkpt lat="45.4318215" lon="8.0104126"><ele>232.0</ele><time>2026-04-19T12:41:40.922Z</time></trkpt><trkpt lat="45.4318985" lon="8.010401"><ele>232.0</ele><time>2026-04-19T12:41:41.923Z</time></trkpt><trkpt lat="45.4319851" lon="8.0103779"><ele>232.0</ele><time>2026-04-19T12:41:42.923Z</time></trkpt><trkpt lat="45.4320825" lon="8.010344"><ele>232.0</ele><time>2026-04-19T12:41:43.922Z</time></trkpt><trkpt lat="45.4321836" lon="8.0103142"><ele>232.0</ele><time>2026-04-19T12:41:44.923Z</time></trkpt><trkpt lat="45.4322783" lon="8.0102874"><ele>232.33333333333331</ele><time>2026-04-19T12:41:45.924Z</time></trkpt><trkpt lat="45.4323665" lon="8.0102657"><ele>232.66666666666666</ele><time>2026-04-19T12:41:46.922Z</time></trkpt><trkpt lat="45.4324497" lon="8.0102453"><ele>233.0</ele><time>2026-04-19T12:41:47.923Z</time></trkpt><trkpt lat="45.4325352" lon="8.0102251"><ele>233.33333333333331</ele><time>2026-04-19T12:41:48.922Z</time></trkpt><trkpt lat="45.4326235" lon="8.0102035"><ele>233.66666666666666</ele><time>2026-04-19T12:41:49.923Z</time></trkpt><trkpt lat="45.4327154" lon="8.0101817"><ele>234.0</ele><time>2026-04-19T12:41:50.922Z</time></trkpt><trkpt lat="45.4328092" lon="8.0101577"><ele>234.0</ele><time>2026-04-19T12:41:51.922Z</time></trkpt><trkpt lat="45.4329068" lon="8.0101334"><ele>233.99999999999997</ele><time>2026-04-19T12:41:52.922Z</time></trkpt><trkpt lat="45.4330113" lon="8.0101049"><ele>233.99999999999997</ele><time>2026-04-19T12:41:53.922Z</time></trkpt><trkpt lat="45.4331173" lon="8.0100796"><ele>234.0</ele><time>2026-04-19T12:41:54.922Z</time></trkpt><trkpt lat="45.4332225" lon="8.0100681"><ele>234.0</ele><time>2026-04-19T12:41:55.922Z</time></trkpt><trkpt lat="45.4333265" lon="8.0100908"><ele>233.25</ele><time>2026-04-19T12:41:56.922Z</time></trkpt><trkpt lat="45.4334242" lon="8.0101514"><ele>232.5</ele><time>2026-04-19T12:41:57.922Z</time></trkpt><trkpt lat="45.4335234" lon="8.0102359"><ele>231.75</ele><time>2026-04-19T12:41:58.922Z</time></trkpt><trkpt lat="45.4336223" lon="8.0103155"><ele>231.0</ele><time>2026-04-19T12:41:59.923Z</time></trkpt><trkpt lat="45.4337292" lon="8.0103926"><ele>230.75</ele><time>2026-04-19T12:42:00.923Z</time></trkpt><trkpt lat="45.4338396" lon="8.0104706"><ele>230.5</ele><time>2026-04-19T12:42:01.922Z</time></trkpt><trkpt lat="45.4339447" lon="8.0105397"><ele>230.25</ele><time>2026-04-19T12:42:02.922Z</time></trkpt><trkpt lat="45.434057" lon="8.0106177"><ele>230.0</ele><time>2026-04-19T12:42:03.923Z</time></trkpt><trkpt lat="45.4341732" lon="8.0106912"><ele>230.0</ele><time>2026-04-19T12:42:04.922Z</time></trkpt><trkpt lat="45.4342905" lon="8.0107729"><ele>230.0</ele><time>2026-04-19T12:42:05.924Z</time></trkpt><trkpt lat="45.4344058" lon="8.0108606"><ele>230.0</ele><time>2026-04-19T12:42:06.923Z</time></trkpt><trkpt lat="45.4345105" lon="8.0109586"><ele>230.0</ele><time>2026-04-19T12:42:07.922Z</time></trkpt><trkpt lat="45.4346149" lon="8.0110528"><ele>230.5</ele><time>2026-04-19T12:42:08.923Z</time></trkpt><trkpt lat="45.4347184" lon="8.0111532"><ele>231.0</ele><time>2026-04-19T12:42:09.922Z</time></trkpt><trkpt lat="45.434823" lon="8.0112575"><ele>231.5</ele><time>2026-04-19T12:42:10.922Z</time></trkpt><trkpt lat="45.4349315" lon="8.0113541"><ele>232.0</ele><time>2026-04-19T12:42:11.922Z</time></trkpt><trkpt lat="45.4350468" lon="8.0114396"><ele>232.0</ele><time>2026-04-19T12:42:12.923Z</time></trkpt><trkpt lat="45.4351565" lon="8.0115111"><ele>232.0</ele><time>2026-04-19T12:42:13.922Z</time></trkpt><trkpt lat="45.4352728" lon="8.0115796"><ele>232.0</ele><time>2026-04-19T12:42:14.923Z</time></trkpt><trkpt lat="45.4353906" lon="8.0116455"><ele>232.0</ele><time>2026-04-19T12:42:15.922Z</time></trkpt><trkpt lat="45.4355114" lon="8.011707"><ele>232.0</ele><time>2026-04-19T12:42:16.923Z</time></trkpt><trkpt lat="45.4356354" lon="8.0117565"><ele>232.0</ele><time>2026-04-19T12:42:17.922Z</time></trkpt><trkpt lat="45.4357649" lon="8.0118023"><ele>232.0</ele><time>2026-04-19T12:42:18.922Z</time></trkpt><trkpt lat="45.4358817" lon="8.0118463"><ele>232.0</ele><time>2026-04-19T12:42:19.922Z</time></trkpt><trkpt lat="45.4359914" lon="8.0118859"><ele>232.0</ele><time>2026-04-19T12:42:20.922Z</time></trkpt><trkpt lat="45.4360997" lon="8.0119264"><ele>232.0</ele><time>2026-04-19T12:42:21.922Z</time></trkpt><trkpt lat="45.4362069" lon="8.0119732"><ele>232.0</ele><time>2026-04-19T12:42:22.922Z</time></trkpt><trkpt lat="45.4363086" lon="8.0120188"><ele>232.0</ele><time>2026-04-19T12:42:23.923Z</time></trkpt><trkpt lat="45.4364065" lon="8.0120617"><ele>232.0</ele><time>2026-04-19T12:42:24.923Z</time></trkpt><trkpt lat="45.4365127" lon="8.0121018"><ele>232.0</ele><time>2026-04-19T12:42:25.921Z</time></trkpt><trkpt lat="45.4366257" lon="8.0121173"><ele>232.0</ele><time>2026-04-19T12:42:26.921Z</time></trkpt><trkpt lat="45.4367406" lon="8.0121036"><ele>232.0</ele><time>2026-04-19T12:42:27.921Z</time></trkpt><trkpt lat="45.4368454" lon="8.0120757"><ele>232.0</ele><time>2026-04-19T12:42:28.921Z</time></trkpt><trkpt lat="45.436954" lon="8.0120469"><ele>232.0</ele><time>2026-04-19T12:42:29.921Z</time></trkpt><trkpt lat="45.4370639" lon="8.0120108"><ele>232.0</ele><time>2026-04-19T12:42:30.922Z</time></trkpt><trkpt lat="45.4371679" lon="8.0119745"><ele>232.0</ele><time>2026-04-19T12:42:31.922Z</time></trkpt><trkpt lat="45.4372714" lon="8.0119403"><ele>232.0</ele><time>2026-04-19T12:42:32.922Z</time></trkpt><trkpt lat="45.4373642" lon="8.0119119"><ele>232.0</ele><time>2026-04-19T12:42:33.921Z</time></trkpt><trkpt lat="45.4374533" lon="8.0118845"><ele>232.0</ele><time>2026-04-19T12:42:34.922Z</time></trkpt><trkpt lat="45.437547" lon="8.0118552"><ele>232.0</ele><time>2026-04-19T12:42:35.921Z</time></trkpt><trkpt lat="45.4376437" lon="8.011826"><ele>232.0</ele><time>2026-04-19T12:42:36.922Z</time></trkpt><trkpt lat="45.4377387" lon="8.011801"><ele>232.0</ele><time>2026-04-19T12:42:37.922Z</time></trkpt><trkpt lat="45.4378343" lon="8.0117778"><ele>232.0</ele><time>2026-04-19T12:42:38.922Z</time></trkpt><trkpt lat="45.4379323" lon="8.0117559"><ele>232.0</ele><time>2026-04-19T12:42:39.921Z</time></trkpt><trkpt lat="45.4380347" lon="8.011733"><ele>232.0</ele><time>2026-04-19T12:42:40.921Z</time></trkpt><trkpt lat="45.4381433" lon="8.0117071"><ele>232.0</ele><time>2026-04-19T12:42:41.922Z</time></trkpt><trkpt lat="45.43826" lon="8.011683"><ele>232.0</ele><time>2026-04-19T12:42:42.921Z</time></trkpt><trkpt lat="45.4383795" lon="8.0116553"><ele>232.0</ele><time>2026-04-19T12:42:43.923Z</time></trkpt><trkpt lat="45.4384974" lon="8.011626"><ele>231.8</ele><time>2026-04-19T12:42:44.921Z</time></trkpt><trkpt lat="45.4386052" lon="8.0115955"><ele>231.6</ele><time>2026-04-19T12:42:45.922Z</time></trkpt><trkpt lat="45.4387031" lon="8.0115714"><ele>231.40000000000003</ele><time>2026-04-19T12:42:46.922Z</time></trkpt><trkpt lat="45.4387884" lon="8.0115537"><ele>231.20000000000002</ele><time>2026-04-19T12:42:47.922Z</time></trkpt><trkpt lat="45.4388597" lon="8.0115382"><ele>231.0</ele><time>2026-04-19T12:42:48.922Z</time></trkpt><trkpt lat="45.4389462" lon="8.0115505"><ele>231.20000000000002</ele><time>2026-04-19T12:42:50.921Z</time></trkpt><trkpt lat="45.4389429" lon="8.011653"><ele>231.40000000000003</ele><time>2026-04-19T12:42:52.921Z</time></trkpt><trkpt lat="45.4388972" lon="8.0117351"><ele>231.6</ele><time>2026-04-19T12:42:53.922Z</time></trkpt><trkpt lat="45.4388336" lon="8.0118478"><ele>231.8</ele><time>2026-04-19T12:42:54.921Z</time></trkpt><trkpt lat="45.4387633" lon="8.011984"><ele>232.0</ele><time>2026-04-19T12:42:55.921Z</time></trkpt><trkpt lat="45.4386865" lon="8.0121371"><ele>232.0</ele><time>2026-04-19T12:42:56.922Z</time></trkpt><trkpt lat="45.4385982" lon="8.0123104"><ele>232.0</ele><time>2026-04-19T12:42:57.921Z</time></trkpt><trkpt lat="45.4385027" lon="8.0125021"><ele>232.0</ele><time>2026-04-19T12:42:58.922Z</time></trkpt><trkpt lat="45.438403" lon="8.0127052"><ele>232.33333333333331</ele><time>2026-04-19T12:42:59.922Z</time></trkpt><trkpt lat="45.4383002" lon="8.0129079"><ele>232.66666666666669</ele><time>2026-04-19T12:43:00.922Z</time></trkpt><trkpt lat="45.4382005" lon="8.0131042"><ele>233.0</ele><time>2026-04-19T12:43:01.922Z</time></trkpt><trkpt lat="45.438099" lon="8.013299"><ele>233.0</ele><time>2026-04-19T12:43:02.923Z</time></trkpt><trkpt lat="45.4380005" lon="8.0135006"><ele>233.0</ele><time>2026-04-19T12:43:03.922Z</time></trkpt><trkpt lat="45.437892" lon="8.0137115"><ele>233.0</ele><time>2026-04-19T12:43:04.922Z</time></trkpt><trkpt lat="45.4377854" lon="8.0139252"><ele>233.0</ele><time>2026-04-19T12:43:05.921Z</time></trkpt><trkpt lat="45.4376858" lon="8.0141238"><ele>233.0</ele><time>2026-04-19T12:43:06.922Z</time></trkpt><trkpt lat="45.4375841" lon="8.0143273"><ele>233.0</ele><time>2026-04-19T12:43:07.921Z</time></trkpt><trkpt lat="45.4374824" lon="8.0145297"><ele>233.33333333333334</ele><time>2026-04-19T12:43:08.921Z</time></trkpt><trkpt lat="45.4373803" lon="8.0147339"><ele>233.66666666666669</ele><time>2026-04-19T12:43:09.922Z</time></trkpt><trkpt lat="45.4372758" lon="8.0149444"><ele>234.0</ele><time>2026-04-19T12:43:10.922Z</time></trkpt><trkpt lat="45.4371692" lon="8.0151572"><ele>233.33333333333331</ele><time>2026-04-19T12:43:11.922Z</time></trkpt><trkpt lat="45.4370597" lon="8.0153707"><ele>232.66666666666666</ele><time>2026-04-19T12:43:12.923Z</time></trkpt><trkpt lat="45.4369507" lon="8.0155886"><ele>232.0</ele><time>2026-04-19T12:43:13.922Z</time></trkpt><trkpt lat="45.4368406" lon="8.0158098"><ele>232.33333333333331</ele><time>2026-04-19T12:43:14.921Z</time></trkpt><trkpt lat="45.4367294" lon="8.0160338"><ele>232.66666666666669</ele><time>2026-04-19T12:43:15.921Z</time></trkpt><trkpt lat="45.4366145" lon="8.0162604"><ele>233.0</ele><time>2026-04-19T12:43:16.923Z</time></trkpt><trkpt lat="45.4364994" lon="8.0164913"><ele>233.0</ele><time>2026-04-19T12:43:17.922Z</time></trkpt><trkpt lat="45.4363819" lon="8.016726"><ele>233.0</ele><time>2026-04-19T12:43:18.922Z</time></trkpt><trkpt lat="45.436262" lon="8.0169642"><ele>233.0</ele><time>2026-04-19T12:43:19.921Z</time></trkpt><trkpt lat="45.4361408" lon="8.0172024"><ele>233.0</ele><time>2026-04-19T12:43:20.921Z</time></trkpt><trkpt lat="45.4360194" lon="8.0174449"><ele>233.0</ele><time>2026-04-19T12:43:21.921Z</time></trkpt><trkpt lat="45.4358969" lon="8.0176889"><ele>233.0</ele><time>2026-04-19T12:43:22.922Z</time></trkpt><trkpt lat="45.4357753" lon="8.0179347"><ele>233.0</ele><time>2026-04-19T12:43:23.921Z</time></trkpt><trkpt lat="45.4356536" lon="8.0181758"><ele>233.0</ele><time>2026-04-19T12:43:24.922Z</time></trkpt><trkpt lat="45.4355322" lon="8.0184188"><ele>233.0</ele><time>2026-04-19T12:43:25.922Z</time></trkpt><trkpt lat="45.4354098" lon="8.0186623"><ele>233.0</ele><time>2026-04-19T12:43:26.921Z</time></trkpt><trkpt lat="45.4352888" lon="8.0189056"><ele>233.0</ele><time>2026-04-19T12:43:27.921Z</time></trkpt><trkpt lat="45.435167" lon="8.0191469"><ele>233.0</ele><time>2026-04-19T12:43:28.921Z</time></trkpt><trkpt lat="45.4350441" lon="8.019389"><ele>233.33333333333334</ele><time>2026-04-19T12:43:29.921Z</time></trkpt><trkpt lat="45.4349214" lon="8.0196338"><ele>233.66666666666669</ele><time>2026-04-19T12:43:30.922Z</time></trkpt><trkpt lat="45.4347987" lon="8.0198827"><ele>234.0</ele><time>2026-04-19T12:43:31.922Z</time></trkpt><trkpt lat="45.4346758" lon="8.0201328"><ele>233.33333333333331</ele><time>2026-04-19T12:43:32.922Z</time></trkpt><trkpt lat="45.4345539" lon="8.0203826"><ele>232.66666666666666</ele><time>2026-04-19T12:43:33.922Z</time></trkpt><trkpt lat="45.4344297" lon="8.0206322"><ele>232.0</ele><time>2026-04-19T12:43:34.921Z</time></trkpt><trkpt lat="45.4343056" lon="8.0208828"><ele>232.0</ele><time>2026-04-19T12:43:35.922Z</time></trkpt><trkpt lat="45.4341817" lon="8.0211346"><ele>232.0</ele><time>2026-04-19T12:43:36.922Z</time></trkpt><trkpt lat="45.4340536" lon="8.0213816"><ele>232.0</ele><time>2026-04-19T12:43:37.921Z</time></trkpt><trkpt lat="45.4339256" lon="8.0216317"><ele>232.0</ele><time>2026-04-19T12:43:38.922Z</time></trkpt><trkpt lat="45.4337984" lon="8.0218862"><ele>232.0</ele><time>2026-04-19T12:43:39.921Z</time></trkpt><trkpt lat="45.4336693" lon="8.0221439"><ele>232.0</ele><time>2026-04-19T12:43:40.922Z</time></trkpt><trkpt lat="45.4335368" lon="8.0224075"><ele>233.0</ele><time>2026-04-19T12:43:41.922Z</time></trkpt><trkpt lat="45.4334026" lon="8.0226745"><ele>234.0</ele><time>2026-04-19T12:43:42.921Z</time></trkpt><trkpt lat="45.4332659" lon="8.0229494"><ele>234.0</ele><time>2026-04-19T12:43:43.921Z</time></trkpt><trkpt lat="45.4331266" lon="8.0232246"><ele>234.0</ele><time>2026-04-19T12:43:44.921Z</time></trkpt><trkpt lat="45.4329885" lon="8.0235031"><ele>233.5</ele><time>2026-04-19T12:43:45.922Z</time></trkpt><trkpt lat="45.4328507" lon="8.0237828"><ele>233.0</ele><time>2026-04-19T12:43:46.921Z</time></trkpt><trkpt lat="45.4327113" lon="8.0240593"><ele>233.0</ele><time>2026-04-19T12:43:47.921Z</time></trkpt><trkpt lat="45.4325739" lon="8.0243282"><ele>233.0</ele><time>2026-04-19T12:43:48.921Z</time></trkpt><trkpt lat="45.4324378" lon="8.0245904"><ele>233.0</ele><time>2026-04-19T12:43:49.922Z</time></trkpt><trkpt lat="45.4322925" lon="8.0248424"><ele>233.0</ele><time>2026-04-19T12:43:50.922Z</time></trkpt><trkpt lat="45.4321398" lon="8.0250811"><ele>233.66666666666669</ele><time>2026-04-19T12:43:51.921Z</time></trkpt><trkpt lat="45.4319816" lon="8.025303"><ele>234.33333333333331</ele><time>2026-04-19T12:43:52.921Z</time></trkpt><trkpt lat="45.4318262" lon="8.0255193"><ele>235.0</ele><time>2026-04-19T12:43:53.921Z</time></trkpt><trkpt lat="45.4316719" lon="8.0257198"><ele>235.66666666666666</ele><time>2026-04-19T12:43:54.922Z</time></trkpt><trkpt lat="45.4315224" lon="8.0259157"><ele>236.33333333333331</ele><time>2026-04-19T12:43:55.921Z</time></trkpt><trkpt lat="45.431374" lon="8.0261079"><ele>237.0</ele><time>2026-04-19T12:43:56.922Z</time></trkpt><trkpt lat="45.4312377" lon="8.0262984"><ele>236.0</ele><time>2026-04-19T12:43:57.922Z</time></trkpt><trkpt lat="45.4311303" lon="8.0264798"><ele>235.0</ele><time>2026-04-19T12:43:58.922Z</time></trkpt><trkpt lat="45.4310397" lon="8.0266577"><ele>234.0</ele><time>2026-04-19T12:43:59.922Z</time></trkpt><trkpt lat="45.430968" lon="8.0268341"><ele>234.0</ele><time>2026-04-19T12:44:00.921Z</time></trkpt><trkpt lat="45.4309132" lon="8.0269996"><ele>233.99999999999997</ele><time>2026-04-19T12:44:01.921Z</time></trkpt><trkpt lat="45.4308714" lon="8.0271577"><ele>233.99999999999997</ele><time>2026-04-19T12:44:02.921Z</time></trkpt><trkpt lat="45.4308498" lon="8.027299"><ele>234.0</ele><time>2026-04-19T12:44:03.923Z</time></trkpt><trkpt lat="45.4308331" lon="8.0274304"><ele>234.0</ele><time>2026-04-19T12:44:04.921Z</time></trkpt><trkpt lat="45.4308169" lon="8.0275464"><ele>234.5</ele><time>2026-04-19T12:44:05.922Z</time></trkpt><trkpt lat="45.430807" lon="8.0276505"><ele>235.0</ele><time>2026-04-19T12:44:06.921Z</time></trkpt><trkpt lat="45.4307975" lon="8.0277571"><ele>235.5</ele><time>2026-04-19T12:44:07.921Z</time></trkpt><trkpt lat="45.4307976" lon="8.0278537"><ele>236.0</ele><time>2026-04-19T12:44:08.922Z</time></trkpt><trkpt lat="45.4308106" lon="8.0280155"><ele>236.5</ele><time>2026-04-19T12:44:10.922Z</time></trkpt><trkpt lat="45.4308197" lon="8.0281539"><ele>237.0</ele><time>2026-04-19T12:44:12.922Z</time></trkpt><trkpt lat="45.4308296" lon="8.0282427"><ele>236.85714285714283</ele><time>2026-04-19T12:44:14.921Z</time></trkpt><trkpt lat="45.4308561" lon="8.0283281"><ele>236.71428571428572</ele><time>2026-04-19T12:44:52.922Z</time></trkpt><trkpt lat="45.4308778" lon="8.0284363"><ele>236.57142857142856</ele><time>2026-04-19T12:44:55.921Z</time></trkpt><trkpt lat="45.4308778" lon="8.0285316"><ele>236.42857142857142</ele><time>2026-04-19T12:44:58.922Z</time></trkpt><trkpt lat="45.4308116" lon="8.0285635"><ele>236.28571428571428</ele><time>2026-04-19T12:45:05.922Z</time></trkpt><trkpt lat="45.4307481" lon="8.028569"><ele>236.14285714285714</ele><time>2026-04-19T12:45:10.921Z</time></trkpt><trkpt lat="45.4306731" lon="8.0285443"><ele>236.0</ele><time>2026-04-19T12:45:13.921Z</time></trkpt><trkpt lat="45.4306242" lon="8.0286034"><ele>236.0</ele><time>2026-04-19T12:48:09.922Z</time></trkpt><trkpt lat="45.4305556" lon="8.0286075"><ele>236.0</ele><time>2026-04-19T12:48:26.922Z</time></trkpt><trkpt lat="45.4304897" lon="8.0286012"><ele>236.0</ele><time>2026-04-19T12:58:29.921Z</time></trkpt><trkpt lat="45.4305669" lon="8.0286498"><ele>236.0</ele><time>2026-04-19T13:04:31.918Z</time></trkpt><trkpt lat="45.4306206" lon="8.0285895"><ele>236.0</ele><time>2026-04-19T13:14:27.917Z</time></trkpt><trkpt lat="45.4306458" lon="8.0285026"><ele>236.0</ele><time>2026-04-19T13:14:34.918Z</time></trkpt><trkpt lat="45.4307287" lon="8.0285183"><ele>236.0</ele><time>2026-04-19T13:18:00.917Z</time></trkpt><trkpt lat="45.4308004" lon="8.0285688"><ele>236.00000000000003</ele><time>2026-04-19T13:18:03.814Z</time></trkpt><trkpt lat="45.4308698" lon="8.0285853"><ele>236.0</ele><time>2026-04-19T13:18:05.917Z</time></trkpt><trkpt lat="45.4309159" lon="8.028514"><ele>236.0</ele><time>2026-04-19T13:20:06.917Z</time></trkpt><trkpt lat="45.4309318" lon="8.0283552"><ele>236.0</ele><time>2026-04-19T13:20:08.918Z</time></trkpt><trkpt lat="45.4309151" lon="8.0282333"><ele>236.00000000000003</ele><time>2026-04-19T13:20:09.916Z</time></trkpt><trkpt lat="45.430888" lon="8.0280879"><ele>236.0</ele><time>2026-04-19T13:20:10.917Z</time></trkpt><trkpt lat="45.4308799" lon="8.0279318"><ele>236.25</ele><time>2026-04-19T13:20:11.916Z</time></trkpt><trkpt lat="45.4308752" lon="8.0277555"><ele>236.5</ele><time>2026-04-19T13:20:12.916Z</time></trkpt><trkpt lat="45.4308853" lon="8.0275634"><ele>236.75</ele><time>2026-04-19T13:20:13.917Z</time></trkpt><trkpt lat="45.430908" lon="8.0273546"><ele>237.0</ele><time>2026-04-19T13:20:14.916Z</time></trkpt><trkpt lat="45.4309449" lon="8.0271528"><ele>236.25</ele><time>2026-04-19T13:20:15.916Z</time></trkpt><trkpt lat="45.4309962" lon="8.026958"><ele>235.5</ele><time>2026-04-19T13:20:16.916Z</time></trkpt><trkpt lat="45.4310617" lon="8.0267707"><ele>234.75</ele><time>2026-04-19T13:20:17.918Z</time></trkpt><trkpt lat="45.431143" lon="8.0265885"><ele>234.0</ele><time>2026-04-19T13:20:18.916Z</time></trkpt><trkpt lat="45.4312398" lon="8.0264179"><ele>235.0</ele><time>2026-04-19T13:20:19.917Z</time></trkpt><trkpt lat="45.4313446" lon="8.0262552"><ele>236.0</ele><time>2026-04-19T13:20:20.917Z</time></trkpt><trkpt lat="45.4314614" lon="8.0260947"><ele>237.0</ele><time>2026-04-19T13:20:21.917Z</time></trkpt><trkpt lat="45.4315755" lon="8.0259446"><ele>236.33333333333331</ele><time>2026-04-19T13:20:22.917Z</time></trkpt><trkpt lat="45.4316868" lon="8.0257975"><ele>235.66666666666666</ele><time>2026-04-19T13:20:23.916Z</time></trkpt><trkpt lat="45.4318017" lon="8.0256467"><ele>235.0</ele><time>2026-04-19T13:20:24.917Z</time></trkpt><trkpt lat="45.4319168" lon="8.0254985"><ele>235.0</ele><time>2026-04-19T13:20:25.916Z</time></trkpt><trkpt lat="45.4320307" lon="8.0253479"><ele>235.0</ele><time>2026-04-19T13:20:26.917Z</time></trkpt><trkpt lat="45.4321353" lon="8.0252026"><ele>235.0</ele><time>2026-04-19T13:20:27.916Z</time></trkpt><trkpt lat="45.4322275" lon="8.0250654"><ele>235.0</ele><time>2026-04-19T13:20:28.916Z</time></trkpt><trkpt lat="45.4323129" lon="8.0249306"><ele>234.5</ele><time>2026-04-19T13:20:29.917Z</time></trkpt><trkpt lat="45.4324021" lon="8.0247874"><ele>234.0</ele><time>2026-04-19T13:20:30.917Z</time></trkpt><trkpt lat="45.4324889" lon="8.0246305"><ele>233.5</ele><time>2026-04-19T13:20:31.917Z</time></trkpt><trkpt lat="45.4325749" lon="8.0244668"><ele>233.0</ele><time>2026-04-19T13:20:32.916Z</time></trkpt><trkpt lat="45.4326629" lon="8.0242967"><ele>233.0</ele><time>2026-04-19T13:20:33.916Z</time></trkpt><trkpt lat="45.4327508" lon="8.0241178"><ele>233.0</ele><time>2026-04-19T13:20:34.916Z</time></trkpt><trkpt lat="45.4328387" lon="8.0239338"><ele>233.0</ele><time>2026-04-19T13:20:35.916Z</time></trkpt><trkpt lat="45.4329256" lon="8.0237527"><ele>233.33333333333334</ele><time>2026-04-19T13:20:36.917Z</time></trkpt><trkpt lat="45.4330148" lon="8.023573"><ele>233.66666666666669</ele><time>2026-04-19T13:20:37.916Z</time></trkpt><trkpt lat="45.4331031" lon="8.0233826"><ele>234.0</ele><time>2026-04-19T13:20:38.916Z</time></trkpt><trkpt lat="45.4331942" lon="8.0231896"><ele>234.0</ele><time>2026-04-19T13:20:39.917Z</time></trkpt><trkpt lat="45.4332882" lon="8.022992"><ele>234.0</ele><time>2026-04-19T13:20:40.916Z</time></trkpt><trkpt lat="45.433383" lon="8.0228009"><ele>234.0</ele><time>2026-04-19T13:20:41.917Z</time></trkpt><trkpt lat="45.4334791" lon="8.0226132"><ele>233.33333333333331</ele><time>2026-04-19T13:20:42.916Z</time></trkpt><trkpt lat="45.4335713" lon="8.0224237"><ele>232.66666666666666</ele><time>2026-04-19T13:20:43.917Z</time></trkpt><trkpt lat="45.4336615" lon="8.0222493"><ele>232.0</ele><time>2026-04-19T13:20:44.917Z</time></trkpt><trkpt lat="45.4337457" lon="8.0220819"><ele>232.0</ele><time>2026-04-19T13:20:45.917Z</time></trkpt><trkpt lat="45.4338237" lon="8.0219217"><ele>232.0</ele><time>2026-04-19T13:20:46.917Z</time></trkpt><trkpt lat="45.4338976" lon="8.0217743"><ele>232.0</ele><time>2026-04-19T13:20:47.917Z</time></trkpt><trkpt lat="45.4339636" lon="8.0216433"><ele>232.0</ele><time>2026-04-19T13:20:48.916Z</time></trkpt><trkpt lat="45.4340203" lon="8.0215312"><ele>231.99999999999997</ele><time>2026-04-19T13:20:49.917Z</time></trkpt><trkpt lat="45.4340657" lon="8.0214322"><ele>232.0</ele><time>2026-04-19T13:20:50.917Z</time></trkpt><trkpt lat="45.4341081" lon="8.0213484"><ele>232.0</ele><time>2026-04-19T13:20:51.918Z</time></trkpt><trkpt lat="45.4341393" lon="8.0212701"><ele>232.0</ele><time>2026-04-19T13:20:52.916Z</time></trkpt><trkpt lat="45.4341323" lon="8.0211281"><ele>231.99999999999997</ele><time>2026-04-19T13:20:54.918Z</time></trkpt><trkpt lat="45.4341062" lon="8.021009"><ele>232.0</ele><time>2026-04-19T13:20:56.916Z</time></trkpt><trkpt lat="45.4340614" lon="8.020816"><ele>231.99999999999997</ele><time>2026-04-19T13:23:57.915Z</time></trkpt><trkpt lat="45.4340344" lon="8.0207241"><ele>232.0</ele><time>2026-04-19T13:23:58.915Z</time></trkpt><trkpt lat="45.4340026" lon="8.0206193"><ele>232.0</ele><time>2026-04-19T13:23:59.915Z</time></trkpt><trkpt lat="45.4339623" lon="8.0205007"><ele>232.0</ele><time>2026-04-19T13:24:00.915Z</time></trkpt><trkpt lat="45.4339198" lon="8.0203787"><ele>231.99999999999997</ele><time>2026-04-19T13:24:01.915Z</time></trkpt><trkpt lat="45.4338795" lon="8.0202506"><ele>232.0</ele><time>2026-04-19T13:24:02.915Z</time></trkpt><trkpt lat="45.4338396" lon="8.020126"><ele>232.0</ele><time>2026-04-19T13:24:03.917Z</time></trkpt><trkpt lat="45.4338035" lon="8.0199891"><ele>232.0</ele><time>2026-04-19T13:24:04.917Z</time></trkpt><trkpt lat="45.4337702" lon="8.0198618"><ele>232.0</ele><time>2026-04-19T13:24:05.915Z</time></trkpt><trkpt lat="45.4337402" lon="8.0197168"><ele>232.0</ele><time>2026-04-19T13:24:06.9Z</time></trkpt><trkpt lat="45.4337213" lon="8.0196011"><ele>232.0</ele><time>2026-04-19T13:24:07.896Z</time></trkpt><trkpt lat="45.4337045" lon="8.0194761"><ele>232.0</ele><time>2026-04-19T13:24:08.895Z</time></trkpt><trkpt lat="45.4337018" lon="8.0193393"><ele>232.0</ele><time>2026-04-19T13:24:09.894Z</time></trkpt><trkpt lat="45.4337028" lon="8.0191939"><ele>232.0</ele><time>2026-04-19T13:24:10.896Z</time></trkpt><trkpt lat="45.4337118" lon="8.0190722"><ele>232.0</ele><time>2026-04-19T13:24:11.915Z</time></trkpt><trkpt lat="45.433729" lon="8.0189488"><ele>232.0</ele><time>2026-04-19T13:24:12.917Z</time></trkpt><trkpt lat="45.4337519" lon="8.0188114"><ele>232.25</ele><time>2026-04-19T13:24:13.915Z</time></trkpt><trkpt lat="45.4337834" lon="8.0186561"><ele>232.5</ele><time>2026-04-19T13:24:14.916Z</time></trkpt><trkpt lat="45.4338129" lon="8.0184893"><ele>232.75</ele><time>2026-04-19T13:24:15.915Z</time></trkpt><trkpt lat="45.4338405" lon="8.018318"><ele>233.0</ele><time>2026-04-19T13:24:16.916Z</time></trkpt><trkpt lat="45.4338682" lon="8.0181497"><ele>233.0</ele><time>2026-04-19T13:24:17.915Z</time></trkpt><trkpt lat="45.4338965" lon="8.0179889"><ele>233.0</ele><time>2026-04-19T13:24:18.916Z</time></trkpt><trkpt lat="45.4339268" lon="8.0178176"><ele>233.0</ele><time>2026-04-19T13:24:19.915Z</time></trkpt><trkpt lat="45.4339557" lon="8.0176306"><ele>233.0</ele><time>2026-04-19T13:24:20.916Z</time></trkpt><trkpt lat="45.4339901" lon="8.0174187"><ele>232.66666666666669</ele><time>2026-04-19T13:24:21.916Z</time></trkpt><trkpt lat="45.4340322" lon="8.0172156"><ele>232.33333333333331</ele><time>2026-04-19T13:24:22.916Z</time></trkpt><trkpt lat="45.4340832" lon="8.0169944"><ele>232.0</ele><time>2026-04-19T13:24:23.917Z</time></trkpt><trkpt lat="45.4341228" lon="8.0167571"><ele>231.66666666666666</ele><time>2026-04-19T13:24:24.915Z</time></trkpt><trkpt lat="45.4341685" lon="8.0164972"><ele>231.33333333333331</ele><time>2026-04-19T13:24:25.916Z</time></trkpt><trkpt lat="45.4342101" lon="8.0162706"><ele>231.0</ele><time>2026-04-19T13:24:26.916Z</time></trkpt><trkpt lat="45.4342554" lon="8.016056"><ele>231.0</ele><time>2026-04-19T13:24:27.916Z</time></trkpt><trkpt lat="45.4342886" lon="8.0158554"><ele>231.0</ele><time>2026-04-19T13:24:28.915Z</time></trkpt><trkpt lat="45.4343208" lon="8.0156747"><ele>231.0</ele><time>2026-04-19T13:24:29.915Z</time></trkpt><trkpt lat="45.4343447" lon="8.0155094"><ele>231.0</ele><time>2026-04-19T13:24:30.916Z</time></trkpt><trkpt lat="45.4343499" lon="8.0153545"><ele>231.20000000000002</ele><time>2026-04-19T13:24:31.915Z</time></trkpt><trkpt lat="45.4343413" lon="8.0152155"><ele>231.40000000000003</ele><time>2026-04-19T13:24:32.916Z</time></trkpt><trkpt lat="45.4343016" lon="8.0150834"><ele>231.6</ele><time>2026-04-19T13:24:33.916Z</time></trkpt><trkpt lat="45.4342293" lon="8.0149599"><ele>231.8</ele><time>2026-04-19T13:24:34.916Z</time></trkpt><trkpt lat="45.4341556" lon="8.0148404"><ele>232.0</ele><time>2026-04-19T13:24:35.915Z</time></trkpt><trkpt lat="45.4340828" lon="8.0147082"><ele>232.0</ele><time>2026-04-19T13:24:36.915Z</time></trkpt><trkpt lat="45.4340133" lon="8.0145784"><ele>232.0</ele><time>2026-04-19T13:24:37.916Z</time></trkpt><trkpt lat="45.4339444" lon="8.0144459"><ele>232.0</ele><time>2026-04-19T13:24:38.916Z</time></trkpt><trkpt lat="45.4338677" lon="8.0143038"><ele>232.0</ele><time>2026-04-19T13:24:39.916Z</time></trkpt><trkpt lat="45.4337913" lon="8.0141528"><ele>231.66666666666666</ele><time>2026-04-19T13:24:40.917Z</time></trkpt><trkpt lat="45.4337027" lon="8.0139771"><ele>231.33333333333331</ele><time>2026-04-19T13:24:41.916Z</time></trkpt><trkpt lat="45.4336109" lon="8.0138079"><ele>231.0</ele><time>2026-04-19T13:24:42.915Z</time></trkpt><trkpt lat="45.4335161" lon="8.0136235"><ele>231.0</ele><time>2026-04-19T13:24:43.915Z</time></trkpt><trkpt lat="45.433417" lon="8.0134465"><ele>231.0</ele><time>2026-04-19T13:24:44.915Z</time></trkpt><trkpt lat="45.433315" lon="8.0132735"><ele>231.0</ele><time>2026-04-19T13:24:45.916Z</time></trkpt><trkpt lat="45.4332311" lon="8.0131202"><ele>231.25</ele><time>2026-04-19T13:24:46.915Z</time></trkpt><trkpt lat="45.4331362" lon="8.0129521"><ele>231.5</ele><time>2026-04-19T13:24:47.915Z</time></trkpt><trkpt lat="45.4330527" lon="8.0127984"><ele>231.75</ele><time>2026-04-19T13:24:48.915Z</time></trkpt><trkpt lat="45.4329672" lon="8.0126396"><ele>232.0</ele><time>2026-04-19T13:24:49.915Z</time></trkpt><trkpt lat="45.4328798" lon="8.0124777"><ele>232.0</ele><time>2026-04-19T13:24:50.916Z</time></trkpt><trkpt lat="45.4327911" lon="8.0123274"><ele>232.0</ele><time>2026-04-19T13:24:51.917Z</time></trkpt><trkpt lat="45.4327058" lon="8.0121859"><ele>232.0</ele><time>2026-04-19T13:24:52.916Z</time></trkpt><trkpt lat="45.4326295" lon="8.0120421"><ele>232.0</ele><time>2026-04-19T13:24:53.915Z</time></trkpt><trkpt lat="45.4325506" lon="8.011888"><ele>232.0</ele><time>2026-04-19T13:24:54.916Z</time></trkpt><trkpt lat="45.4324719" lon="8.0117369"><ele>232.0</ele><time>2026-04-19T13:24:55.915Z</time></trkpt><trkpt lat="45.4323924" lon="8.0115934"><ele>232.0</ele><time>2026-04-19T13:24:56.915Z</time></trkpt><trkpt lat="45.4323167" lon="8.0114438"><ele>232.0</ele><time>2026-04-19T13:24:57.915Z</time></trkpt><trkpt lat="45.432239" lon="8.0113064"><ele>232.0</ele><time>2026-04-19T13:24:58.915Z</time></trkpt><trkpt lat="45.432161" lon="8.011163"><ele>232.0</ele><time>2026-04-19T13:24:59.916Z</time></trkpt><trkpt lat="45.4320815" lon="8.0110164"><ele>232.0</ele><time>2026-04-19T13:25:00.916Z</time></trkpt><trkpt lat="45.4320077" lon="8.0108777"><ele>232.0</ele><time>2026-04-19T13:25:01.916Z</time></trkpt><trkpt lat="45.4319361" lon="8.010744"><ele>232.0</ele><time>2026-04-19T13:25:02.915Z</time></trkpt><trkpt lat="45.4318586" lon="8.0106087"><ele>232.0</ele><time>2026-04-19T13:25:03.916Z</time></trkpt><trkpt lat="45.4317869" lon="8.0104788"><ele>232.0</ele><time>2026-04-19T13:25:04.916Z</time></trkpt><trkpt lat="45.4317074" lon="8.0103435"><ele>232.0</ele><time>2026-04-19T13:25:05.916Z</time></trkpt><trkpt lat="45.4316306" lon="8.010205"><ele>232.0</ele><time>2026-04-19T13:25:06.916Z</time></trkpt><trkpt lat="45.4315537" lon="8.0100595"><ele>232.0</ele><time>2026-04-19T13:25:07.916Z</time></trkpt><trkpt lat="45.4314819" lon="8.0099309"><ele>232.0</ele><time>2026-04-19T13:25:08.915Z</time></trkpt><trkpt lat="45.4314127" lon="8.0098113"><ele>232.0</ele><time>2026-04-19T13:25:09.915Z</time></trkpt><trkpt lat="45.4313194" lon="8.0097144"><ele>232.0</ele><time>2026-04-19T13:25:10.916Z</time></trkpt><trkpt lat="45.4312378" lon="8.0096069"><ele>232.0</ele><time>2026-04-19T13:25:11.915Z</time></trkpt><trkpt lat="45.4311724" lon="8.0094805"><ele>232.0</ele><time>2026-04-19T13:25:12.916Z</time></trkpt><trkpt lat="45.4311226" lon="8.0093696"><ele>232.0</ele><time>2026-04-19T13:25:13.916Z</time></trkpt><trkpt lat="45.4310639" lon="8.0093033"><ele>232.0</ele><time>2026-04-19T13:25:14.915Z</time></trkpt><trkpt lat="45.4309957" lon="8.0092748"><ele>232.0</ele><time>2026-04-19T13:25:15.915Z</time></trkpt><trkpt lat="45.4309108" lon="8.0092684"><ele>232.0</ele><time>2026-04-19T13:25:16.916Z</time></trkpt><trkpt lat="45.4308235" lon="8.0093124"><ele>232.0</ele><time>2026-04-19T13:25:17.915Z</time></trkpt><trkpt lat="45.4307178" lon="8.0094974"><ele>232.0</ele><time>2026-04-19T13:25:18.916Z</time></trkpt><trkpt lat="45.4306229" lon="8.0096253"><ele>232.0</ele><time>2026-04-19T13:25:19.915Z</time></trkpt><trkpt lat="45.4305231" lon="8.0097306"><ele>232.0</ele><time>2026-04-19T13:25:20.916Z</time></trkpt><trkpt lat="45.4304073" lon="8.0098191"><ele>232.0</ele><time>2026-04-19T13:25:21.915Z</time></trkpt><trkpt lat="45.4302829" lon="8.0098946"><ele>232.0</ele><time>2026-04-19T13:25:22.916Z</time></trkpt><trkpt lat="45.4301498" lon="8.0099483"><ele>232.25</ele><time>2026-04-19T13:25:23.915Z</time></trkpt><trkpt lat="45.4300165" lon="8.0099617"><ele>232.5</ele><time>2026-04-19T13:25:24.915Z</time></trkpt><trkpt lat="45.4298894" lon="8.0099685"><ele>232.75</ele><time>2026-04-19T13:25:25.916Z</time></trkpt><trkpt lat="45.4297634" lon="8.0099735"><ele>233.0</ele><time>2026-04-19T13:25:26.916Z</time></trkpt><trkpt lat="45.4296361" lon="8.0099642"><ele>233.0</ele><time>2026-04-19T13:25:27.915Z</time></trkpt><trkpt lat="45.4295082" lon="8.0099554"><ele>233.0</ele><time>2026-04-19T13:25:28.915Z</time></trkpt><trkpt lat="45.4293722" lon="8.0099283"><ele>233.0</ele><time>2026-04-19T13:25:29.915Z</time></trkpt><trkpt lat="45.429239" lon="8.0099054"><ele>233.0</ele><time>2026-04-19T13:25:30.915Z</time></trkpt><trkpt lat="45.4291164" lon="8.0098789"><ele>233.0</ele><time>2026-04-19T13:25:31.917Z</time></trkpt><trkpt lat="45.4289947" lon="8.0098426"><ele>233.0</ele><time>2026-04-19T13:25:32.915Z</time></trkpt><trkpt lat="45.4288721" lon="8.009795"><ele>233.0</ele><time>2026-04-19T13:25:33.915Z</time></trkpt><trkpt lat="45.4287594" lon="8.0097441"><ele>233.0</ele><time>2026-04-19T13:25:34.915Z</time></trkpt><trkpt lat="45.4286453" lon="8.0096827"><ele>233.25</ele><time>2026-04-19T13:25:35.915Z</time></trkpt><trkpt lat="45.4285326" lon="8.0096032"><ele>233.5</ele><time>2026-04-19T13:25:36.915Z</time></trkpt><trkpt lat="45.4284174" lon="8.009521"><ele>233.75</ele><time>2026-04-19T13:25:37.916Z</time></trkpt><trkpt lat="45.4282985" lon="8.0094424"><ele>234.0</ele><time>2026-04-19T13:25:38.915Z</time></trkpt><trkpt lat="45.4281797" lon="8.0093604"><ele>234.0</ele><time>2026-04-19T13:25:39.915Z</time></trkpt><trkpt lat="45.4280463" lon="8.0093005"><ele>234.0</ele><time>2026-04-19T13:25:40.915Z</time></trkpt><trkpt lat="45.4279208" lon="8.0092378"><ele>234.0</ele><time>2026-04-19T13:25:41.915Z</time></trkpt><trkpt lat="45.4277982" lon="8.009182"><ele>234.0</ele><time>2026-04-19T13:25:42.916Z</time></trkpt><trkpt lat="45.427662" lon="8.0091536"><ele>233.75</ele><time>2026-04-19T13:25:43.915Z</time></trkpt><trkpt lat="45.4275276" lon="8.0091301"><ele>233.5</ele><time>2026-04-19T13:25:44.915Z</time></trkpt><trkpt lat="45.4274004" lon="8.0091119"><ele>233.25</ele><time>2026-04-19T13:25:45.915Z</time></trkpt><trkpt lat="45.4272769" lon="8.0090955"><ele>233.0</ele><time>2026-04-19T13:25:46.916Z</time></trkpt><trkpt lat="45.4271549" lon="8.0090774"><ele>233.25</ele><time>2026-04-19T13:25:47.915Z</time></trkpt><trkpt lat="45.427031" lon="8.0090712"><ele>233.5</ele><time>2026-04-19T13:25:48.916Z</time></trkpt><trkpt lat="45.4268987" lon="8.0090435"><ele>233.75</ele><time>2026-04-19T13:25:49.915Z</time></trkpt><trkpt lat="45.4267767" lon="8.0090179"><ele>234.0</ele><time>2026-04-19T13:25:50.916Z</time></trkpt><trkpt lat="45.4266721" lon="8.0089913"><ele>234.0</ele><time>2026-04-19T13:25:51.915Z</time></trkpt><trkpt lat="45.4265828" lon="8.0089635"><ele>234.0</ele><time>2026-04-19T13:25:52.915Z</time></trkpt><trkpt lat="45.4264995" lon="8.0089443"><ele>234.0</ele><time>2026-04-19T13:25:53.917Z</time></trkpt><trkpt lat="45.4264303" lon="8.008928"><ele>234.0</ele><time>2026-04-19T13:25:54.915Z</time></trkpt><trkpt lat="45.4263656" lon="8.0089135"><ele>234.0</ele><time>2026-04-19T13:25:55.915Z</time></trkpt><trkpt lat="45.4262556" lon="8.0089204"><ele>234.0</ele><time>2026-04-19T13:25:57.915Z</time></trkpt><trkpt lat="45.4261766" lon="8.0089451"><ele>234.0</ele><time>2026-04-19T13:25:59.915Z</time></trkpt><trkpt lat="45.4261039" lon="8.0089701"><ele>234.0</ele><time>2026-04-19T13:26:01.915Z</time></trkpt><trkpt lat="45.4260393" lon="8.0090056"><ele>234.0</ele><time>2026-04-19T13:26:03.916Z</time></trkpt><trkpt lat="45.4259475" lon="8.0090486"><ele>234.0</ele><time>2026-04-19T13:26:06.916Z</time></trkpt><trkpt lat="45.4258693" lon="8.009089"><ele>234.0</ele><time>2026-04-19T13:26:08.915Z</time></trkpt><trkpt lat="45.4257903" lon="8.0091279"><ele>234.0</ele><time>2026-04-19T13:26:10.915Z</time></trkpt><trkpt lat="45.4256803" lon="8.0091887"><ele>233.6</ele><time>2026-04-19T13:26:12.916Z</time></trkpt><trkpt lat="45.4256066" lon="8.0092179"><ele>233.2</ele><time>2026-04-19T13:26:13.916Z</time></trkpt><trkpt lat="45.4255191" lon="8.0092468"><ele>232.79999999999998</ele><time>2026-04-19T13:26:14.916Z</time></trkpt><trkpt lat="45.4254175" lon="8.0092774"><ele>232.39999999999998</ele><time>2026-04-19T13:26:15.916Z</time></trkpt><trkpt lat="45.4252976" lon="8.0093027"><ele>232.0</ele><time>2026-04-19T13:26:16.915Z</time></trkpt><trkpt lat="45.4251613" lon="8.0093359"><ele>231.66666666666666</ele><time>2026-04-19T13:26:17.915Z</time></trkpt><trkpt lat="45.4250148" lon="8.0093748"><ele>231.33333333333331</ele><time>2026-04-19T13:26:18.915Z</time></trkpt><trkpt lat="45.4248561" lon="8.0094173"><ele>231.0</ele><time>2026-04-19T13:26:19.915Z</time></trkpt><trkpt lat="45.4247031" lon="8.0094573"><ele>232.0</ele><time>2026-04-19T13:26:20.915Z</time></trkpt><trkpt lat="45.4245621" lon="8.009496"><ele>233.0</ele><time>2026-04-19T13:26:21.915Z</time></trkpt><trkpt lat="45.4244253" lon="8.0095311"><ele>234.0</ele><time>2026-04-19T13:26:22.915Z</time></trkpt><trkpt lat="45.4243194" lon="8.0095741"><ele>235.0</ele><time>2026-04-19T13:26:23.915Z</time></trkpt><trkpt lat="45.424217" lon="8.0096493"><ele>235.0</ele><time>2026-04-19T13:26:24.917Z</time></trkpt><trkpt lat="45.4241084" lon="8.0097615"><ele>235.0</ele><time>2026-04-19T13:26:25.915Z</time></trkpt><trkpt lat="45.4239957" lon="8.0099031"><ele>235.0</ele><time>2026-04-19T13:26:26.916Z</time></trkpt><trkpt lat="45.4238881" lon="8.0100168"><ele>235.0</ele><time>2026-04-19T13:26:27.916Z</time></trkpt><trkpt lat="45.4237887" lon="8.0100787"><ele>235.2</ele><time>2026-04-19T13:26:28.916Z</time></trkpt><trkpt lat="45.4237122" lon="8.0100966"><ele>235.4</ele><time>2026-04-19T13:26:29.916Z</time></trkpt><trkpt lat="45.4236132" lon="8.0100196"><ele>235.60000000000002</ele><time>2026-04-19T13:26:31.915Z</time></trkpt><trkpt lat="45.4235746" lon="8.009871"><ele>235.8</ele><time>2026-04-19T13:26:32.915Z</time></trkpt><trkpt lat="45.4235444" lon="8.0097315"><ele>236.0</ele><time>2026-04-19T13:26:33.917Z</time></trkpt><trkpt lat="45.4235201" lon="8.0095975"><ele>235.50000000000003</ele><time>2026-04-19T13:26:34.915Z</time></trkpt><trkpt lat="45.4235025" lon="8.0094796"><ele>235.0</ele><time>2026-04-19T13:26:35.915Z</time></trkpt><trkpt lat="45.4234919" lon="8.0093747"><ele>234.5</ele><time>2026-04-19T13:26:36.915Z</time></trkpt><trkpt lat="45.4234867" lon="8.0092819"><ele>234.0</ele><time>2026-04-19T13:26:37.916Z</time></trkpt><trkpt lat="45.4234918" lon="8.0091293"><ele>233.50000000000003</ele><time>2026-04-19T13:26:39.915Z</time></trkpt><trkpt lat="45.4235021" lon="8.0089984"><ele>233.0</ele><time>2026-04-19T13:26:41.916Z</time></trkpt><trkpt lat="45.4235062" lon="8.0088634"><ele>233.00000000000003</ele><time>2026-04-19T13:26:43.914Z</time></trkpt><trkpt lat="45.4235135" lon="8.008757"><ele>233.0</ele><time>2026-04-19T13:26:45.915Z</time></trkpt><trkpt lat="45.4235158" lon="8.0086483"><ele>233.0</ele><time>2026-04-19T13:26:47.915Z</time></trkpt><trkpt lat="45.4235155" lon="8.0085295"><ele>233.0</ele><time>2026-04-19T13:26:49.916Z</time></trkpt><trkpt lat="45.4235082" lon="8.0083698"><ele>233.00000000000003</ele><time>2026-04-19T13:26:51.914Z</time></trkpt><trkpt lat="45.4235051" lon="8.0082602"><ele>233.0</ele><time>2026-04-19T13:26:52.914Z</time></trkpt><trkpt lat="45.4235065" lon="8.0081249"><ele>233.0</ele><time>2026-04-19T13:26:53.914Z</time></trkpt><trkpt lat="45.4235033" lon="8.0079822"><ele>233.0</ele><time>2026-04-19T13:26:54.914Z</time></trkpt><trkpt lat="45.4235027" lon="8.0078136"><ele>233.0</ele><time>2026-04-19T13:26:55.914Z</time></trkpt><trkpt lat="45.4235026" lon="8.0076387"><ele>233.0</ele><time>2026-04-19T13:26:56.915Z</time></trkpt><trkpt lat="45.4234865" lon="8.0074481"><ele>232.66666666666669</ele><time>2026-04-19T13:26:57.914Z</time></trkpt><trkpt lat="45.4234601" lon="8.0072403"><ele>232.33333333333331</ele><time>2026-04-19T13:26:58.914Z</time></trkpt><trkpt lat="45.4234072" lon="8.0070085"><ele>232.0</ele><time>2026-04-19T13:26:59.914Z</time></trkpt><trkpt lat="45.4233477" lon="8.0067578"><ele>232.66666666666666</ele><time>2026-04-19T13:27:00.914Z</time></trkpt><trkpt lat="45.4232914" lon="8.0065218"><ele>233.33333333333331</ele><time>2026-04-19T13:27:01.915Z</time></trkpt><trkpt lat="45.4232463" lon="8.0062785"><ele>234.0</ele><time>2026-04-19T13:27:02.915Z</time></trkpt><trkpt lat="45.4232084" lon="8.0060274"><ele>234.0</ele><time>2026-04-19T13:27:03.915Z</time></trkpt><trkpt lat="45.4231701" lon="8.0057762"><ele>234.0</ele><time>2026-04-19T13:27:04.914Z</time></trkpt><trkpt lat="45.4231296" lon="8.0055371"><ele>234.0</ele><time>2026-04-19T13:27:05.914Z</time></trkpt><trkpt lat="45.4230883" lon="8.0053106"><ele>234.0</ele><time>2026-04-19T13:27:06.915Z</time></trkpt><trkpt lat="45.4230399" lon="8.0050829"><ele>234.0</ele><time>2026-04-19T13:27:07.914Z</time></trkpt><trkpt lat="45.4229831" lon="8.0048648"><ele>234.0</ele><time>2026-04-19T13:27:08.915Z</time></trkpt><trkpt lat="45.4229255" lon="8.0046636"><ele>233.75</ele><time>2026-04-19T13:27:09.915Z</time></trkpt><trkpt lat="45.4228678" lon="8.0044779"><ele>233.5</ele><time>2026-04-19T13:27:10.916Z</time></trkpt><trkpt lat="45.4228111" lon="8.0043095"><ele>233.25</ele><time>2026-04-19T13:27:11.915Z</time></trkpt><trkpt lat="45.4227557" lon="8.0041571"><ele>233.0</ele><time>2026-04-19T13:27:12.915Z</time></trkpt><trkpt lat="45.4226949" lon="8.0040227"><ele>233.00000000000003</ele><time>2026-04-19T13:27:13.915Z</time></trkpt><trkpt lat="45.4226322" lon="8.003911"><ele>233.0</ele><time>2026-04-19T13:27:14.915Z</time></trkpt><trkpt lat="45.4225683" lon="8.0038181"><ele>233.0</ele><time>2026-04-19T13:27:15.914Z</time></trkpt><trkpt lat="45.4225115" lon="8.0037417"><ele>233.0</ele><time>2026-04-19T13:27:16.915Z</time></trkpt><trkpt lat="45.4224579" lon="8.0036744"><ele>233.00000000000003</ele><time>2026-04-19T13:27:17.914Z</time></trkpt><trkpt lat="45.4224054" lon="8.0036042"><ele>233.0</ele><time>2026-04-19T13:27:18.914Z</time></trkpt><trkpt lat="45.4223605" lon="8.0035309"><ele>233.0</ele><time>2026-04-19T13:27:19.914Z</time></trkpt><trkpt lat="45.4223034" lon="8.0033869"><ele>233.0</ele><time>2026-04-19T13:27:21.915Z</time></trkpt><trkpt lat="45.4222924" lon="8.0032241"><ele>233.0</ele><time>2026-04-19T13:27:23.914Z</time></trkpt><trkpt lat="45.4223413" lon="8.0030537"><ele>233.0</ele><time>2026-04-19T13:27:25.915Z</time></trkpt><trkpt lat="45.4223739" lon="8.0029606"><ele>233.0</ele><time>2026-04-19T13:27:26.914Z</time></trkpt><trkpt lat="45.4224168" lon="8.0028033"><ele>233.0</ele><time>2026-04-19T13:27:28.915Z</time></trkpt><trkpt lat="45.4224392" lon="8.0027166"><ele>233.0</ele><time>2026-04-19T13:27:29.914Z</time></trkpt><trkpt lat="45.422462" lon="8.0026274"><ele>233.0</ele><time>2026-04-19T13:27:30.914Z</time></trkpt><trkpt lat="45.4224815" lon="8.002535"><ele>233.0</ele><time>2026-04-19T13:27:31.915Z</time></trkpt><trkpt lat="45.4225039" lon="8.0024404"><ele>233.0</ele><time>2026-04-19T13:27:32.914Z</time></trkpt><trkpt lat="45.4225231" lon="8.0023392"><ele>233.0</ele><time>2026-04-19T13:27:33.915Z</time></trkpt><trkpt lat="45.4225483" lon="8.0022247"><ele>233.0</ele><time>2026-04-19T13:27:34.914Z</time></trkpt><trkpt lat="45.4225747" lon="8.0020907"><ele>233.0</ele><time>2026-04-19T13:27:35.915Z</time></trkpt><trkpt lat="45.4226078" lon="8.0019517"><ele>233.0</ele><time>2026-04-19T13:27:36.915Z</time></trkpt><trkpt lat="45.4226386" lon="8.0018079"><ele>233.0</ele><time>2026-04-19T13:27:37.914Z</time></trkpt><trkpt lat="45.4226731" lon="8.0016564"><ele>233.0</ele><time>2026-04-19T13:27:38.916Z</time></trkpt><trkpt lat="45.4227066" lon="8.0014986"><ele>233.0</ele><time>2026-04-19T13:27:39.915Z</time></trkpt><trkpt lat="45.4227418" lon="8.0013425"><ele>233.4</ele><time>2026-04-19T13:27:40.915Z</time></trkpt><trkpt lat="45.4227752" lon="8.0011826"><ele>233.8</ele><time>2026-04-19T13:27:41.915Z</time></trkpt><trkpt lat="45.422809" lon="8.0010361"><ele>234.2</ele><time>2026-04-19T13:27:42.916Z</time></trkpt><trkpt lat="45.4228443" lon="8.0009104"><ele>234.6</ele><time>2026-04-19T13:27:43.915Z</time></trkpt><trkpt lat="45.4228732" lon="8.0007897"><ele>235.0</ele><time>2026-04-19T13:27:44.914Z</time></trkpt><trkpt lat="45.4228982" lon="8.0006748"><ele>234.99999999999997</ele><time>2026-04-19T13:27:45.914Z</time></trkpt><trkpt lat="45.422926" lon="8.0005716"><ele>235.0</ele><time>2026-04-19T13:27:46.915Z</time></trkpt><trkpt lat="45.4229485" lon="8.0004828"><ele>235.0</ele><time>2026-04-19T13:27:47.914Z</time></trkpt><trkpt lat="45.422938" lon="8.0003489"><ele>235.0</ele><time>2026-04-19T13:27:49.914Z</time></trkpt><trkpt lat="45.4228557" lon="8.0003142"><ele>234.99999999999997</ele><time>2026-04-19T13:27:51.914Z</time></trkpt><trkpt lat="45.4227889" lon="8.000343"><ele>235.0</ele><time>2026-04-19T13:27:52.915Z</time></trkpt><trkpt lat="45.4227116" lon="8.0003805"><ele>234.99999999999997</ele><time>2026-04-19T13:27:53.914Z</time></trkpt><trkpt lat="45.4226436" lon="8.0004177"><ele>235.0</ele><time>2026-04-19T13:27:54.914Z</time></trkpt><trkpt lat="45.4225795" lon="8.0004476"><ele>235.0</ele><time>2026-04-19T13:27:55.915Z</time></trkpt><trkpt lat="45.4225095" lon="8.0004715"><ele>235.0</ele><time>2026-04-19T13:27:56.915Z</time></trkpt><trkpt lat="45.4224414" lon="8.0004925"><ele>234.99999999999997</ele><time>2026-04-19T13:27:57.914Z</time></trkpt><trkpt lat="45.4223387" lon="8.000539"><ele>235.0</ele><time>2026-04-19T13:27:59.914Z</time></trkpt><trkpt lat="45.4222529" lon="8.0006056"><ele>235.0</ele><time>2026-04-19T13:28:01.914Z</time></trkpt><trkpt lat="45.4221648" lon="8.0006921"><ele>235.0</ele><time>2026-04-19T13:28:03.914Z</time></trkpt><trkpt lat="45.4220971" lon="8.0007728"><ele>235.0</ele><time>2026-04-19T13:28:05.915Z</time></trkpt><trkpt lat="45.4220245" lon="8.0008542"><ele>235.0</ele><time>2026-04-19T13:28:07.915Z</time></trkpt><trkpt lat="45.421948" lon="8.0009277"><ele>235.0</ele><time>2026-04-19T13:28:09.915Z</time></trkpt><trkpt lat="45.4218668" lon="8.0010155"><ele>235.4</ele><time>2026-04-19T13:28:11.914Z</time></trkpt><trkpt lat="45.4217724" lon="8.001102"><ele>235.8</ele><time>2026-04-19T13:28:13.914Z</time></trkpt><trkpt lat="45.4217187" lon="8.0011559"><ele>236.2</ele><time>2026-04-19T13:28:14.915Z</time></trkpt><trkpt lat="45.421628" lon="8.0012517"><ele>236.6</ele><time>2026-04-19T13:28:16.915Z</time></trkpt><trkpt lat="45.4215339" lon="8.0013358"><ele>237.0</ele><time>2026-04-19T13:28:18.914Z</time></trkpt><trkpt lat="45.4214245" lon="8.0014274"><ele>237.0</ele><time>2026-04-19T13:28:20.914Z</time></trkpt><trkpt lat="45.4213653" lon="8.0014742"><ele>237.0</ele><time>2026-04-19T13:28:21.914Z</time></trkpt><trkpt lat="45.4213004" lon="8.0015197"><ele>237.0</ele><time>2026-04-19T13:28:22.915Z</time></trkpt><trkpt lat="45.4212395" lon="8.0015689"><ele>237.0</ele><time>2026-04-19T13:28:23.914Z</time></trkpt><trkpt lat="45.4211813" lon="8.0016084"><ele>237.0</ele><time>2026-04-19T13:28:24.916Z</time></trkpt><trkpt lat="45.4210847" lon="8.0016733"><ele>237.0</ele><time>2026-04-19T13:28:26.914Z</time></trkpt><trkpt lat="45.4210414" lon="8.0017775"><ele>237.33333333333334</ele><time>2026-04-19T13:28:28.914Z</time></trkpt><trkpt lat="45.4210547" lon="8.0019203"><ele>237.66666666666669</ele><time>2026-04-19T13:28:30.914Z</time></trkpt><trkpt lat="45.4210599" lon="8.0020099"><ele>238.0</ele><time>2026-04-19T13:28:31.915Z</time></trkpt><trkpt lat="45.4210632" lon="8.0021168"><ele>238.33333333333334</ele><time>2026-04-19T13:28:32.914Z</time></trkpt><trkpt lat="45.4210631" lon="8.0022325"><ele>238.66666666666669</ele><time>2026-04-19T13:28:33.915Z</time></trkpt><trkpt lat="45.4210675" lon="8.0023608"><ele>239.0</ele><time>2026-04-19T13:28:34.914Z</time></trkpt><trkpt lat="45.421066" lon="8.0025019"><ele>239.0</ele><time>2026-04-19T13:28:35.914Z</time></trkpt><trkpt lat="45.4210547" lon="8.0026489"><ele>239.0</ele><time>2026-04-19T13:28:36.915Z</time></trkpt><trkpt lat="45.4210316" lon="8.0028084"><ele>239.0</ele><time>2026-04-19T13:28:37.914Z</time></trkpt><trkpt lat="45.4210062" lon="8.0029871"><ele>239.0</ele><time>2026-04-19T13:28:38.915Z</time></trkpt><trkpt lat="45.4209757" lon="8.0031824"><ele>238.75</ele><time>2026-04-19T13:28:39.915Z</time></trkpt><trkpt lat="45.4209397" lon="8.003371"><ele>238.5</ele><time>2026-04-19T13:28:40.915Z</time></trkpt><trkpt lat="45.4209025" lon="8.0035442"><ele>238.25</ele><time>2026-04-19T13:28:41.915Z</time></trkpt><trkpt lat="45.4208518" lon="8.0036962"><ele>238.0</ele><time>2026-04-19T13:28:42.915Z</time></trkpt><trkpt lat="45.4207844" lon="8.0038331"><ele>238.0</ele><time>2026-04-19T13:28:43.915Z</time></trkpt><trkpt lat="45.4206972" lon="8.0039537"><ele>238.0</ele><time>2026-04-19T13:28:44.915Z</time></trkpt><trkpt lat="45.4205829" lon="8.0040567"><ele>238.0</ele><time>2026-04-19T13:28:45.914Z</time></trkpt><trkpt lat="45.4204657" lon="8.0041419"><ele>238.0</ele><time>2026-04-19T13:28:46.914Z</time></trkpt><trkpt lat="45.4203529" lon="8.0042207"><ele>238.0</ele><time>2026-04-19T13:28:47.914Z</time></trkpt><trkpt lat="45.4202501" lon="8.0043272"><ele>238.0</ele><time>2026-04-19T13:28:48.914Z</time></trkpt><trkpt lat="45.4201574" lon="8.0044583"><ele>238.0</ele><time>2026-04-19T13:28:49.916Z</time></trkpt><trkpt lat="45.4200727" lon="8.0046089"><ele>238.0</ele><time>2026-04-19T13:28:50.914Z</time></trkpt><trkpt lat="45.4199904" lon="8.0047697"><ele>238.0</ele><time>2026-04-19T13:28:51.915Z</time></trkpt><trkpt lat="45.4199121" lon="8.0049378"><ele>238.0</ele><time>2026-04-19T13:28:52.914Z</time></trkpt><trkpt lat="45.4198324" lon="8.0051046"><ele>238.0</ele><time>2026-04-19T13:28:53.914Z</time></trkpt><trkpt lat="45.4197616" lon="8.0052643"><ele>238.0</ele><time>2026-04-19T13:28:54.915Z</time></trkpt><trkpt lat="45.4196913" lon="8.0054233"><ele>238.5</ele><time>2026-04-19T13:28:55.914Z</time></trkpt><trkpt lat="45.4196206" lon="8.0055824"><ele>239.0</ele><time>2026-04-19T13:28:56.916Z</time></trkpt><trkpt lat="45.4195465" lon="8.0057436"><ele>239.5</ele><time>2026-04-19T13:28:57.914Z</time></trkpt><trkpt lat="45.4194704" lon="8.005904"><ele>240.0</ele><time>2026-04-19T13:28:58.915Z</time></trkpt><trkpt lat="45.4193979" lon="8.0060678"><ele>240.0</ele><time>2026-04-19T13:28:59.915Z</time></trkpt><trkpt lat="45.419319" lon="8.0062366"><ele>240.0</ele><time>2026-04-19T13:29:00.916Z</time></trkpt><trkpt lat="45.4192427" lon="8.0063936"><ele>240.0</ele><time>2026-04-19T13:29:01.915Z</time></trkpt><trkpt lat="45.419171" lon="8.0065468"><ele>240.0</ele><time>2026-04-19T13:29:02.915Z</time></trkpt><trkpt lat="45.4191018" lon="8.0066893"><ele>240.25</ele><time>2026-04-19T13:29:03.914Z</time></trkpt><trkpt lat="45.419038" lon="8.0068234"><ele>240.5</ele><time>2026-04-19T13:29:04.916Z</time></trkpt><trkpt lat="45.418974" lon="8.0069607"><ele>240.75</ele><time>2026-04-19T13:29:05.914Z</time></trkpt><trkpt lat="45.4189139" lon="8.0070975"><ele>241.0</ele><time>2026-04-19T13:29:06.914Z</time></trkpt><trkpt lat="45.4188534" lon="8.0072369"><ele>241.5</ele><time>2026-04-19T13:29:07.915Z</time></trkpt><trkpt lat="45.418795" lon="8.007381"><ele>242.0</ele><time>2026-04-19T13:29:08.915Z</time></trkpt><trkpt lat="45.4187371" lon="8.0075293"><ele>242.5</ele><time>2026-04-19T13:29:09.914Z</time></trkpt><trkpt lat="45.4186722" lon="8.0076809"><ele>243.0</ele><time>2026-04-19T13:29:10.915Z</time></trkpt><trkpt lat="45.4186069" lon="8.0078386"><ele>243.5</ele><time>2026-04-19T13:29:11.915Z</time></trkpt><trkpt lat="45.418542" lon="8.0080012"><ele>244.0</ele><time>2026-04-19T13:29:12.915Z</time></trkpt><trkpt lat="45.4184813" lon="8.0081759"><ele>244.5</ele><time>2026-04-19T13:29:13.914Z</time></trkpt><trkpt lat="45.4184226" lon="8.0083464"><ele>245.0</ele><time>2026-04-19T13:29:14.914Z</time></trkpt><trkpt lat="45.418364" lon="8.0085119"><ele>245.25</ele><time>2026-04-19T13:29:15.915Z</time></trkpt><trkpt lat="45.418304" lon="8.0086761"><ele>245.5</ele><time>2026-04-19T13:29:16.914Z</time></trkpt><trkpt lat="45.4182427" lon="8.0088347"><ele>245.75</ele><time>2026-04-19T13:29:17.914Z</time></trkpt><trkpt lat="45.4181809" lon="8.0089874"><ele>246.0</ele><time>2026-04-19T13:29:18.914Z</time></trkpt><trkpt lat="45.4181171" lon="8.0091324"><ele>245.75</ele><time>2026-04-19T13:29:19.916Z</time></trkpt><trkpt lat="45.4180548" lon="8.0092761"><ele>245.5</ele><time>2026-04-19T13:29:20.914Z</time></trkpt><trkpt lat="45.4179931" lon="8.0094055"><ele>245.25</ele><time>2026-04-19T13:29:21.916Z</time></trkpt><trkpt lat="45.4179314" lon="8.0095391"><ele>245.0</ele><time>2026-04-19T13:29:22.915Z</time></trkpt><trkpt lat="45.4178703" lon="8.0096793"><ele>246.75</ele><time>2026-04-19T13:29:23.914Z</time></trkpt><trkpt lat="45.4178044" lon="8.0098185"><ele>248.5</ele><time>2026-04-19T13:29:24.914Z</time></trkpt><trkpt lat="45.4177312" lon="8.0099576"><ele>250.25</ele><time>2026-04-19T13:29:25.915Z</time></trkpt><trkpt lat="45.4176533" lon="8.0101045"><ele>252.0</ele><time>2026-04-19T13:29:26.914Z</time></trkpt><trkpt lat="45.4175727" lon="8.0102582"><ele>252.0</ele><time>2026-04-19T13:29:27.915Z</time></trkpt><trkpt lat="45.4174896" lon="8.0104224"><ele>252.0</ele><time>2026-04-19T13:29:28.914Z</time></trkpt><trkpt lat="45.4174054" lon="8.0105898"><ele>252.0</ele><time>2026-04-19T13:29:29.915Z</time></trkpt><trkpt lat="45.4173191" lon="8.0107557"><ele>252.0</ele><time>2026-04-19T13:29:30.915Z</time></trkpt><trkpt lat="45.417235" lon="8.0109099"><ele>253.0</ele><time>2026-04-19T13:29:31.916Z</time></trkpt><trkpt lat="45.4171522" lon="8.011066"><ele>254.0</ele><time>2026-04-19T13:29:32.915Z</time></trkpt><trkpt lat="45.4170693" lon="8.0112246"><ele>255.0</ele><time>2026-04-19T13:29:33.916Z</time></trkpt><trkpt lat="45.4169825" lon="8.0113881"><ele>256.0</ele><time>2026-04-19T13:29:34.914Z</time></trkpt><trkpt lat="45.416892" lon="8.011553"><ele>255.0</ele><time>2026-04-19T13:29:35.915Z</time></trkpt><trkpt lat="45.4168004" lon="8.0117195"><ele>254.0</ele><time>2026-04-19T13:29:36.916Z</time></trkpt><trkpt lat="45.416708" lon="8.0118898"><ele>253.0</ele><time>2026-04-19T13:29:37.915Z</time></trkpt><trkpt lat="45.4166122" lon="8.0120597"><ele>253.0</ele><time>2026-04-19T13:29:38.914Z</time></trkpt><trkpt lat="45.4165159" lon="8.0122285"><ele>253.0</ele><time>2026-04-19T13:29:39.915Z</time></trkpt><trkpt lat="45.416419" lon="8.0123958"><ele>253.0</ele><time>2026-04-19T13:29:40.915Z</time></trkpt><trkpt lat="45.4163203" lon="8.01256"><ele>254.66666666666666</ele><time>2026-04-19T13:29:41.914Z</time></trkpt><trkpt lat="45.4162143" lon="8.0127221"><ele>256.3333333333333</ele><time>2026-04-19T13:29:42.915Z</time></trkpt><trkpt lat="45.4161075" lon="8.0128842"><ele>258.0</ele><time>2026-04-19T13:29:43.915Z</time></trkpt><trkpt lat="45.4160131" lon="8.0130618"><ele>258.0</ele><time>2026-04-19T13:29:44.914Z</time></trkpt><trkpt lat="45.4159316" lon="8.0132461"><ele>258.0</ele><time>2026-04-19T13:29:45.916Z</time></trkpt><trkpt lat="45.4158576" lon="8.0134124"><ele>258.0</ele><time>2026-04-19T13:29:46.915Z</time></trkpt><trkpt lat="45.4157833" lon="8.0135663"><ele>258.0</ele><time>2026-04-19T13:29:47.915Z</time></trkpt><trkpt lat="45.4157084" lon="8.0137232"><ele>258.0</ele><time>2026-04-19T13:29:48.915Z</time></trkpt><trkpt lat="45.4156354" lon="8.0138846"><ele>258.0</ele><time>2026-04-19T13:29:49.915Z</time></trkpt><trkpt lat="45.4155624" lon="8.0140489"><ele>258.0</ele><time>2026-04-19T13:29:50.914Z</time></trkpt><trkpt lat="45.415487" lon="8.0142182"><ele>258.0</ele><time>2026-04-19T13:29:51.914Z</time></trkpt><trkpt lat="45.4154118" lon="8.0143965"><ele>259.5</ele><time>2026-04-19T13:29:52.914Z</time></trkpt><trkpt lat="45.415336" lon="8.0145828"><ele>261.0</ele><time>2026-04-19T13:29:53.914Z</time></trkpt><trkpt lat="45.4152615" lon="8.0147709"><ele>262.5</ele><time>2026-04-19T13:29:54.914Z</time></trkpt><trkpt lat="45.4151889" lon="8.0149472"><ele>264.0</ele><time>2026-04-19T13:29:55.915Z</time></trkpt><trkpt lat="45.4151171" lon="8.0151004"><ele>264.0</ele><time>2026-04-19T13:29:56.914Z</time></trkpt><trkpt lat="45.4150465" lon="8.0152354"><ele>264.0</ele><time>2026-04-19T13:29:57.914Z</time></trkpt><trkpt lat="45.4149789" lon="8.015354"><ele>264.0</ele><time>2026-04-19T13:29:58.914Z</time></trkpt><trkpt lat="45.4149179" lon="8.0154675"><ele>264.0</ele><time>2026-04-19T13:29:59.914Z</time></trkpt><trkpt lat="45.4148546" lon="8.0155666"><ele>264.0</ele><time>2026-04-19T13:30:00.915Z</time></trkpt><trkpt lat="45.4147874" lon="8.0156578"><ele>264.0</ele><time>2026-04-19T13:30:01.914Z</time></trkpt><trkpt lat="45.4147125" lon="8.0157348"><ele>264.0</ele><time>2026-04-19T13:30:02.914Z</time></trkpt><trkpt lat="45.4146462" lon="8.0158106"><ele>264.0</ele><time>2026-04-19T13:30:03.914Z</time></trkpt><trkpt lat="45.4145863" lon="8.0158427"><ele>264.0</ele><time>2026-04-19T13:30:04.915Z</time></trkpt><trkpt lat="45.4145302" lon="8.0158841"><ele>264.0</ele><time>2026-04-19T13:30:05.915Z</time></trkpt><trkpt lat="45.4144375" lon="8.0159304"><ele>264.0</ele><time>2026-04-19T13:30:07.915Z</time></trkpt><trkpt lat="45.4143464" lon="8.0159802"><ele>263.8</ele><time>2026-04-19T13:30:09.915Z</time></trkpt><trkpt lat="45.4142453" lon="8.0160249"><ele>263.59999999999997</ele><time>2026-04-19T13:30:11.915Z</time></trkpt><trkpt lat="45.4141401" lon="8.0160718"><ele>263.4</ele><time>2026-04-19T13:30:13.914Z</time></trkpt><trkpt lat="45.4140314" lon="8.0161169"><ele>263.2</ele><time>2026-04-19T13:30:15.914Z</time></trkpt><trkpt lat="45.4139326" lon="8.0161911"><ele>263.0</ele><time>2026-04-19T13:30:17.914Z</time></trkpt><trkpt lat="45.4138478" lon="8.0162707"><ele>264.2</ele><time>2026-04-19T13:30:19.916Z</time></trkpt><trkpt lat="45.4137734" lon="8.0163543"><ele>265.4</ele><time>2026-04-19T13:30:21.914Z</time></trkpt><trkpt lat="45.4136957" lon="8.0164436"><ele>266.59999999999997</ele><time>2026-04-19T13:30:23.914Z</time></trkpt><trkpt lat="45.4135958" lon="8.0165439"><ele>267.8</ele><time>2026-04-19T13:30:25.914Z</time></trkpt><trkpt lat="45.4135378" lon="8.0166068"><ele>269.0</ele><time>2026-04-19T13:30:26.914Z</time></trkpt><trkpt lat="45.4134885" lon="8.0166696"><ele>269.0</ele><time>2026-04-19T13:30:27.915Z</time></trkpt><trkpt lat="45.4134347" lon="8.0167309"><ele>269.0</ele><time>2026-04-19T13:30:28.915Z</time></trkpt><trkpt lat="45.4133902" lon="8.0167953"><ele>269.0</ele><time>2026-04-19T13:30:29.915Z</time></trkpt><trkpt lat="45.4133073" lon="8.0169253"><ele>269.0</ele><time>2026-04-19T13:30:31.915Z</time></trkpt><trkpt lat="45.4132592" lon="8.0169957"><ele>269.0</ele><time>2026-04-19T13:30:32.915Z</time></trkpt><trkpt lat="45.4132119" lon="8.0170623"><ele>269.0</ele><time>2026-04-19T13:30:33.915Z</time></trkpt><trkpt lat="45.4131566" lon="8.0171279"><ele>269.0</ele><time>2026-04-19T13:30:34.914Z</time></trkpt><trkpt lat="45.4131135" lon="8.0171948"><ele>269.0</ele><time>2026-04-19T13:30:35.915Z</time></trkpt><trkpt lat="45.4130678" lon="8.0172667"><ele>269.0</ele><time>2026-04-19T13:30:36.914Z</time></trkpt><trkpt lat="45.4130207" lon="8.0173424"><ele>269.0</ele><time>2026-04-19T13:30:37.914Z</time></trkpt><trkpt lat="45.4129711" lon="8.0174174"><ele>269.0</ele><time>2026-04-19T13:30:38.914Z</time></trkpt><trkpt lat="45.4129196" lon="8.0174881"><ele>269.0</ele><time>2026-04-19T13:30:39.914Z</time></trkpt><trkpt lat="45.4128652" lon="8.0175527"><ele>269.0</ele><time>2026-04-19T13:30:40.914Z</time></trkpt><trkpt lat="45.4128075" lon="8.0176135"><ele>269.14285714285717</ele><time>2026-04-19T13:30:41.914Z</time></trkpt><trkpt lat="45.4127506" lon="8.0176806"><ele>269.28571428571433</ele><time>2026-04-19T13:30:42.915Z</time></trkpt><trkpt lat="45.4126789" lon="8.0177344"><ele>269.42857142857144</ele><time>2026-04-19T13:30:43.915Z</time></trkpt><trkpt lat="45.4126112" lon="8.0177692"><ele>269.57142857142856</ele><time>2026-04-19T13:30:44.914Z</time></trkpt><trkpt lat="45.4125445" lon="8.0178021"><ele>269.71428571428567</ele><time>2026-04-19T13:30:45.914Z</time></trkpt><trkpt lat="45.4124791" lon="8.0178337"><ele>269.85714285714283</ele><time>2026-04-19T13:30:46.914Z</time></trkpt><trkpt lat="45.4124032" lon="8.017854"><ele>270.0</ele><time>2026-04-19T13:30:47.916Z</time></trkpt><trkpt lat="45.4123204" lon="8.0178792"><ele>270.0</ele><time>2026-04-19T13:30:48.914Z</time></trkpt><trkpt lat="45.4122282" lon="8.017897"><ele>270.0</ele><time>2026-04-19T13:30:49.914Z</time></trkpt><trkpt lat="45.4121288" lon="8.017912"><ele>270.0</ele><time>2026-04-19T13:30:50.914Z</time></trkpt><trkpt lat="45.4120192" lon="8.0179241"><ele>270.0</ele><time>2026-04-19T13:30:51.916Z</time></trkpt><trkpt lat="45.4118983" lon="8.0179397"><ele>270.0</ele><time>2026-04-19T13:30:52.915Z</time></trkpt><trkpt lat="45.4117739" lon="8.0179608"><ele>273.0</ele><time>2026-04-19T13:30:53.916Z</time></trkpt><trkpt lat="45.4116493" lon="8.0179836"><ele>276.0</ele><time>2026-04-19T13:30:54.915Z</time></trkpt><trkpt lat="45.4115311" lon="8.0180349"><ele>279.0</ele><time>2026-04-19T13:30:55.915Z</time></trkpt><trkpt lat="45.411414" lon="8.0180876"><ele>282.0</ele><time>2026-04-19T13:30:56.914Z</time></trkpt><trkpt lat="45.4112924" lon="8.0181429"><ele>284.0</ele><time>2026-04-19T13:30:57.914Z</time></trkpt><trkpt lat="45.4111785" lon="8.0182242"><ele>286.0</ele><time>2026-04-19T13:30:58.914Z</time></trkpt><trkpt lat="45.4110687" lon="8.0183071"><ele>288.0</ele><time>2026-04-19T13:30:59.915Z</time></trkpt><trkpt lat="45.4109596" lon="8.0183895"><ele>290.0</ele><time>2026-04-19T13:31:00.914Z</time></trkpt><trkpt lat="45.4108517" lon="8.0184215"><ele>285.8</ele><time>2026-04-19T13:31:01.914Z</time></trkpt><trkpt lat="45.4107506" lon="8.0184642"><ele>281.6</ele><time>2026-04-19T13:31:02.914Z</time></trkpt><trkpt lat="45.4106456" lon="8.0185074"><ele>277.4</ele><time>2026-04-19T13:31:03.914Z</time></trkpt><trkpt lat="45.4105487" lon="8.0185502"><ele>273.2</ele><time>2026-04-19T13:31:04.914Z</time></trkpt><trkpt lat="45.4104595" lon="8.0185892"><ele>269.0</ele><time>2026-04-19T13:31:05.914Z</time></trkpt><trkpt lat="45.4103717" lon="8.0186324"><ele>268.8</ele><time>2026-04-19T13:31:06.915Z</time></trkpt><trkpt lat="45.410279" lon="8.0186657"><ele>268.59999999999997</ele><time>2026-04-19T13:31:07.914Z</time></trkpt><trkpt lat="45.4101707" lon="8.01867"><ele>268.4</ele><time>2026-04-19T13:31:08.914Z</time></trkpt><trkpt lat="45.4100758" lon="8.018625"><ele>268.2</ele><time>2026-04-19T13:31:09.914Z</time></trkpt><trkpt lat="45.4099757" lon="8.0185718"><ele>268.0</ele><time>2026-04-19T13:31:10.916Z</time></trkpt><trkpt lat="45.4098774" lon="8.0185048"><ele>268.0</ele><time>2026-04-19T13:31:11.914Z</time></trkpt><trkpt lat="45.4097856" lon="8.0184425"><ele>268.0</ele><time>2026-04-19T13:31:12.914Z</time></trkpt><trkpt lat="45.4096985" lon="8.0183622"><ele>268.0</ele><time>2026-04-19T13:31:13.915Z</time></trkpt><trkpt lat="45.4096059" lon="8.0182905"><ele>268.0</ele><time>2026-04-19T13:31:14.914Z</time></trkpt><trkpt lat="45.4095129" lon="8.0182155"><ele>268.0</ele><time>2026-04-19T13:31:15.914Z</time></trkpt><trkpt lat="45.4094222" lon="8.0181401"><ele>268.6</ele><time>2026-04-19T13:31:16.914Z</time></trkpt><trkpt lat="45.4093189" lon="8.018077"><ele>269.20000000000005</ele><time>2026-04-19T13:31:17.915Z</time></trkpt><trkpt lat="45.4092177" lon="8.0180175"><ele>269.8</ele><time>2026-04-19T13:31:18.914Z</time></trkpt><trkpt lat="45.4091215" lon="8.0179929"><ele>270.40000000000003</ele><time>2026-04-19T13:31:19.915Z</time></trkpt><trkpt lat="45.4090205" lon="8.0179337"><ele>271.0</ele><time>2026-04-19T13:31:20.915Z</time></trkpt><trkpt lat="45.4089015" lon="8.0178962"><ele>268.5</ele><time>2026-04-19T13:31:21.915Z</time></trkpt><trkpt lat="45.4087757" lon="8.0178602"><ele>266.0</ele><time>2026-04-19T13:31:22.914Z</time></trkpt><trkpt lat="45.4086439" lon="8.0178241"><ele>263.5</ele><time>2026-04-19T13:31:23.914Z</time></trkpt><trkpt lat="45.4085084" lon="8.0177951"><ele>261.0</ele><time>2026-04-19T13:31:24.916Z</time></trkpt><trkpt lat="45.4083761" lon="8.0177729"><ele>261.0</ele><time>2026-04-19T13:31:25.914Z</time></trkpt><trkpt lat="45.4082467" lon="8.0177614"><ele>261.0</ele><time>2026-04-19T13:31:26.915Z</time></trkpt><trkpt lat="45.4081162" lon="8.0177382"><ele>261.0</ele><time>2026-04-19T13:31:27.914Z</time></trkpt><trkpt lat="45.4079789" lon="8.0177269"><ele>261.0</ele><time>2026-04-19T13:31:28.915Z</time></trkpt><trkpt lat="45.4078483" lon="8.0177338"><ele>260.75</ele><time>2026-04-19T13:31:29.914Z</time></trkpt><trkpt lat="45.4077405" lon="8.0177464"><ele>260.5</ele><time>2026-04-19T13:31:30.915Z</time></trkpt><trkpt lat="45.4076199" lon="8.0177693"><ele>260.25</ele><time>2026-04-19T13:31:31.915Z</time></trkpt><trkpt lat="45.4074889" lon="8.0178036"><ele>260.0</ele><time>2026-04-19T13:31:32.916Z</time></trkpt><trkpt lat="45.4073736" lon="8.0178801"><ele>260.0</ele><time>2026-04-19T13:31:33.914Z</time></trkpt><trkpt lat="45.407301" lon="8.0180137"><ele>260.0</ele><time>2026-04-19T13:31:34.914Z</time></trkpt><trkpt lat="45.4071962" lon="8.018111"><ele>260.0</ele><time>2026-04-19T13:31:35.914Z</time></trkpt><trkpt lat="45.4070788" lon="8.0182047"><ele>260.0</ele><time>2026-04-19T13:31:36.915Z</time></trkpt><trkpt lat="45.406977" lon="8.0183075"><ele>259.75</ele><time>2026-04-19T13:31:37.914Z</time></trkpt><trkpt lat="45.4068733" lon="8.0184008"><ele>259.5</ele><time>2026-04-19T13:31:38.914Z</time></trkpt><trkpt lat="45.4067713" lon="8.0185124"><ele>259.25</ele><time>2026-04-19T13:31:39.915Z</time></trkpt><trkpt lat="45.4066623" lon="8.0186352"><ele>259.0</ele><time>2026-04-19T13:31:40.914Z</time></trkpt><trkpt lat="45.4065793" lon="8.0187571"><ele>259.0</ele><time>2026-04-19T13:31:41.915Z</time></trkpt><trkpt lat="45.4064898" lon="8.0188851"><ele>259.0</ele><time>2026-04-19T13:31:42.914Z</time></trkpt><trkpt lat="45.4063971" lon="8.019012"><ele>259.0</ele><time>2026-04-19T13:31:43.915Z</time></trkpt><trkpt lat="45.406301" lon="8.0191556"><ele>259.0</ele><time>2026-04-19T13:31:44.914Z</time></trkpt><trkpt lat="45.4062021" lon="8.0192861"><ele>259.0</ele><time>2026-04-19T13:31:45.914Z</time></trkpt><trkpt lat="45.406102" lon="8.0194177"><ele>259.0</ele><time>2026-04-19T13:31:46.915Z</time></trkpt><trkpt lat="45.4059981" lon="8.0195363"><ele>259.0</ele><time>2026-04-19T13:31:47.915Z</time></trkpt><trkpt lat="45.4059027" lon="8.0196484"><ele>259.0</ele><time>2026-04-19T13:31:48.914Z</time></trkpt><trkpt lat="45.4058004" lon="8.0197661"><ele>259.0</ele><time>2026-04-19T13:31:49.915Z</time></trkpt><trkpt lat="45.4057086" lon="8.0198742"><ele>259.0</ele><time>2026-04-19T13:31:50.915Z</time></trkpt><trkpt lat="45.405609" lon="8.0199809"><ele>259.0</ele><time>2026-04-19T13:31:51.914Z</time></trkpt><trkpt lat="45.4055068" lon="8.0200787"><ele>259.0</ele><time>2026-04-19T13:31:52.914Z</time></trkpt><trkpt lat="45.4054054" lon="8.0201791"><ele>257.25</ele><time>2026-04-19T13:31:53.914Z</time></trkpt><trkpt lat="45.4052806" lon="8.0202785"><ele>255.5</ele><time>2026-04-19T13:31:54.913Z</time></trkpt><trkpt lat="45.4051628" lon="8.0203693"><ele>253.75</ele><time>2026-04-19T13:31:55.913Z</time></trkpt><trkpt lat="45.4050381" lon="8.0204559"><ele>252.0</ele><time>2026-04-19T13:31:56.914Z</time></trkpt><trkpt lat="45.4049029" lon="8.0205388"><ele>252.0</ele><time>2026-04-19T13:31:57.913Z</time></trkpt><trkpt lat="45.4047725" lon="8.0206212"><ele>252.0</ele><time>2026-04-19T13:31:58.915Z</time></trkpt><trkpt lat="45.4046425" lon="8.0206789"><ele>252.0</ele><time>2026-04-19T13:31:59.914Z</time></trkpt><trkpt lat="45.4045145" lon="8.0207491"><ele>252.0</ele><time>2026-04-19T13:32:00.913Z</time></trkpt><trkpt lat="45.4043943" lon="8.0208274"><ele>251.25</ele><time>2026-04-19T13:32:01.913Z</time></trkpt><trkpt lat="45.4042762" lon="8.0209147"><ele>250.5</ele><time>2026-04-19T13:32:02.913Z</time></trkpt><trkpt lat="45.4041659" lon="8.0210015"><ele>249.75</ele><time>2026-04-19T13:32:03.913Z</time></trkpt><trkpt lat="45.4040522" lon="8.0210922"><ele>249.0</ele><time>2026-04-19T13:32:04.914Z</time></trkpt><trkpt lat="45.4039359" lon="8.0211863"><ele>251.25</ele><time>2026-04-19T13:32:05.914Z</time></trkpt><trkpt lat="45.4038181" lon="8.0212789"><ele>253.5</ele><time>2026-04-19T13:32:06.914Z</time></trkpt><trkpt lat="45.4037003" lon="8.0213734"><ele>255.75</ele><time>2026-04-19T13:32:07.913Z</time></trkpt><trkpt lat="45.4035804" lon="8.0214629"><ele>258.0</ele><time>2026-04-19T13:32:08.914Z</time></trkpt><trkpt lat="45.4034579" lon="8.0215496"><ele>258.0</ele><time>2026-04-19T13:32:09.914Z</time></trkpt><trkpt lat="45.4033366" lon="8.021605"><ele>258.0</ele><time>2026-04-19T13:32:10.913Z</time></trkpt><trkpt lat="45.4032222" lon="8.0216443"><ele>258.0</ele><time>2026-04-19T13:32:11.913Z</time></trkpt><trkpt lat="45.4031076" lon="8.0216801"><ele>258.0</ele><time>2026-04-19T13:32:12.913Z</time></trkpt><trkpt lat="45.4029855" lon="8.021717"><ele>255.5</ele><time>2026-04-19T13:32:13.914Z</time></trkpt><trkpt lat="45.4028576" lon="8.0217521"><ele>253.0</ele><time>2026-04-19T13:32:14.913Z</time></trkpt><trkpt lat="45.4027312" lon="8.0217827"><ele>250.5</ele><time>2026-04-19T13:32:15.913Z</time></trkpt><trkpt lat="45.4026134" lon="8.0218221"><ele>248.0</ele><time>2026-04-19T13:32:16.914Z</time></trkpt><trkpt lat="45.4024979" lon="8.021856"><ele>248.0</ele><time>2026-04-19T13:32:17.913Z</time></trkpt><trkpt lat="45.4023909" lon="8.0218947"><ele>248.0</ele><time>2026-04-19T13:32:18.913Z</time></trkpt><trkpt lat="45.4022916" lon="8.0219329"><ele>248.0</ele><time>2026-04-19T13:32:19.913Z</time></trkpt><trkpt lat="45.4021854" lon="8.0219756"><ele>248.0</ele><time>2026-04-19T13:32:20.913Z</time></trkpt><trkpt lat="45.4020776" lon="8.0220286"><ele>248.0</ele><time>2026-04-19T13:32:21.914Z</time></trkpt><trkpt lat="45.4019732" lon="8.0220929"><ele>249.5</ele><time>2026-04-19T13:32:22.913Z</time></trkpt><trkpt lat="45.40187" lon="8.0221647"><ele>251.0</ele><time>2026-04-19T13:32:23.914Z</time></trkpt><trkpt lat="45.4017707" lon="8.0222402"><ele>252.5</ele><time>2026-04-19T13:32:24.913Z</time></trkpt><trkpt lat="45.4016706" lon="8.0223223"><ele>254.0</ele><time>2026-04-19T13:32:25.913Z</time></trkpt><trkpt lat="45.401567" lon="8.0224077"><ele>252.6</ele><time>2026-04-19T13:32:26.914Z</time></trkpt><trkpt lat="45.4014633" lon="8.0224872"><ele>251.2</ele><time>2026-04-19T13:32:27.914Z</time></trkpt><trkpt lat="45.4013625" lon="8.0225633"><ele>249.79999999999998</ele><time>2026-04-19T13:32:28.914Z</time></trkpt><trkpt lat="45.4012665" lon="8.0226296"><ele>248.39999999999998</ele><time>2026-04-19T13:32:29.913Z</time></trkpt><trkpt lat="45.4011698" lon="8.022706"><ele>247.0</ele><time>2026-04-19T13:32:30.914Z</time></trkpt><trkpt lat="45.4010787" lon="8.0227952"><ele>247.0</ele><time>2026-04-19T13:32:31.913Z</time></trkpt><trkpt lat="45.4009913" lon="8.0228948"><ele>247.0</ele><time>2026-04-19T13:32:32.913Z</time></trkpt><trkpt lat="45.4009053" lon="8.0229842"><ele>247.0</ele><time>2026-04-19T13:32:33.914Z</time></trkpt><trkpt lat="45.4008117" lon="8.0230549"><ele>247.0</ele><time>2026-04-19T13:32:34.913Z</time></trkpt><trkpt lat="45.4007151" lon="8.023101"><ele>247.0</ele><time>2026-04-19T13:32:35.914Z</time></trkpt><trkpt lat="45.4006223" lon="8.0231443"><ele>247.0</ele><time>2026-04-19T13:32:36.913Z</time></trkpt><trkpt lat="45.400527" lon="8.0231899"><ele>247.0</ele><time>2026-04-19T13:32:37.914Z</time></trkpt><trkpt lat="45.4004332" lon="8.0232328"><ele>247.0</ele><time>2026-04-19T13:32:38.913Z</time></trkpt><trkpt lat="45.4003403" lon="8.0232662"><ele>247.0</ele><time>2026-04-19T13:32:39.913Z</time></trkpt><trkpt lat="45.4002485" lon="8.0233006"><ele>247.0</ele><time>2026-04-19T13:32:40.915Z</time></trkpt><trkpt lat="45.4001599" lon="8.0233401"><ele>246.6</ele><time>2026-04-19T13:32:41.913Z</time></trkpt><trkpt lat="45.4000691" lon="8.023385"><ele>246.2</ele><time>2026-04-19T13:32:42.914Z</time></trkpt><trkpt lat="45.3999844" lon="8.0234283"><ele>245.8</ele><time>2026-04-19T13:32:43.915Z</time></trkpt><trkpt lat="45.3998961" lon="8.0234719"><ele>245.4</ele><time>2026-04-19T13:32:44.913Z</time></trkpt><trkpt lat="45.3998093" lon="8.0235186"><ele>245.0</ele><time>2026-04-19T13:32:45.913Z</time></trkpt><trkpt lat="45.3997271" lon="8.0235737"><ele>248.33333333333334</ele><time>2026-04-19T13:32:46.914Z</time></trkpt><trkpt lat="45.3996446" lon="8.0236327"><ele>251.66666666666669</ele><time>2026-04-19T13:32:47.914Z</time></trkpt><trkpt lat="45.3995672" lon="8.0236983"><ele>255.0</ele><time>2026-04-19T13:32:48.914Z</time></trkpt><trkpt lat="45.3994914" lon="8.0237696"><ele>258.3333333333333</ele><time>2026-04-19T13:32:49.913Z</time></trkpt><trkpt lat="45.3994223" lon="8.0238476"><ele>261.66666666666663</ele><time>2026-04-19T13:32:50.913Z</time></trkpt><trkpt lat="45.3993555" lon="8.0239249"><ele>265.0</ele><time>2026-04-19T13:32:51.914Z</time></trkpt><trkpt lat="45.3992978" lon="8.0239971"><ele>265.0</ele><time>2026-04-19T13:32:52.914Z</time></trkpt><trkpt lat="45.3992472" lon="8.0240626"><ele>265.0</ele><time>2026-04-19T13:32:53.913Z</time></trkpt><trkpt lat="45.3991645" lon="8.0241746"><ele>265.0</ele><time>2026-04-19T13:32:55.914Z</time></trkpt><trkpt lat="45.3990734" lon="8.0242885"><ele>265.0</ele><time>2026-04-19T13:32:57.914Z</time></trkpt><trkpt lat="45.3989819" lon="8.0244082"><ele>265.0</ele><time>2026-04-19T13:32:59.913Z</time></trkpt><trkpt lat="45.3988908" lon="8.0245209"><ele>264.8333333333333</ele><time>2026-04-19T13:33:01.913Z</time></trkpt><trkpt lat="45.3988003" lon="8.0246404"><ele>264.66666666666663</ele><time>2026-04-19T13:33:03.913Z</time></trkpt><trkpt lat="45.3987478" lon="8.024707"><ele>264.5</ele><time>2026-04-19T13:33:04.913Z</time></trkpt><trkpt lat="45.3986948" lon="8.0247731"><ele>264.3333333333333</ele><time>2026-04-19T13:33:05.913Z</time></trkpt><trkpt lat="45.3986423" lon="8.0248394"><ele>264.1666666666667</ele><time>2026-04-19T13:33:06.913Z</time></trkpt><trkpt lat="45.3985841" lon="8.0249093"><ele>264.0</ele><time>2026-04-19T13:33:07.914Z</time></trkpt><trkpt lat="45.3985233" lon="8.0249855"><ele>261.6666666666667</ele><time>2026-04-19T13:33:08.914Z</time></trkpt><trkpt lat="45.3984604" lon="8.0250651"><ele>259.3333333333333</ele><time>2026-04-19T13:33:09.913Z</time></trkpt><trkpt lat="45.3983986" lon="8.0251443"><ele>257.0</ele><time>2026-04-19T13:33:10.913Z</time></trkpt><trkpt lat="45.3983445" lon="8.0252175"><ele>254.66666666666666</ele><time>2026-04-19T13:33:11.913Z</time></trkpt><trkpt lat="45.3982945" lon="8.0252838"><ele>252.33333333333331</ele><time>2026-04-19T13:33:12.913Z</time></trkpt><trkpt lat="45.3982412" lon="8.0253492"><ele>250.0</ele><time>2026-04-19T13:33:13.913Z</time></trkpt><trkpt lat="45.3981856" lon="8.025417"><ele>249.99999999999997</ele><time>2026-04-19T13:33:14.914Z</time></trkpt><trkpt lat="45.3981274" lon="8.0254847"><ele>250.0</ele><time>2026-04-19T13:33:15.913Z</time></trkpt><trkpt lat="45.3980689" lon="8.0255562"><ele>250.0</ele><time>2026-04-19T13:33:16.914Z</time></trkpt><trkpt lat="45.3980057" lon="8.0256269"><ele>250.0</ele><time>2026-04-19T13:33:17.913Z</time></trkpt><trkpt lat="45.3979323" lon="8.0256993"><ele>249.99999999999997</ele><time>2026-04-19T13:33:18.913Z</time></trkpt><trkpt lat="45.3978599" lon="8.0257785"><ele>250.0</ele><time>2026-04-19T13:33:19.914Z</time></trkpt><trkpt lat="45.3977811" lon="8.0258685"><ele>251.0</ele><time>2026-04-19T13:33:20.914Z</time></trkpt><trkpt lat="45.3976982" lon="8.0259654"><ele>252.0</ele><time>2026-04-19T13:33:21.914Z</time></trkpt><trkpt lat="45.3976176" lon="8.0260898"><ele>253.0</ele><time>2026-04-19T13:33:22.914Z</time></trkpt><trkpt lat="45.397548" lon="8.026254"><ele>254.0</ele><time>2026-04-19T13:33:23.913Z</time></trkpt><trkpt lat="45.3974894" lon="8.0264454"><ele>254.0</ele><time>2026-04-19T13:33:24.914Z</time></trkpt><trkpt lat="45.3974427" lon="8.0266256"><ele>254.0</ele><time>2026-04-19T13:33:25.913Z</time></trkpt><trkpt lat="45.3973956" lon="8.026804"><ele>254.0</ele><time>2026-04-19T13:33:26.914Z</time></trkpt><trkpt lat="45.3973532" lon="8.0269388"><ele>254.0</ele><time>2026-04-19T13:33:27.913Z</time></trkpt><trkpt lat="45.3973073" lon="8.027078"><ele>254.66666666666669</ele><time>2026-04-19T13:33:28.914Z</time></trkpt><trkpt lat="45.3972665" lon="8.0271999"><ele>255.33333333333334</ele><time>2026-04-19T13:33:29.914Z</time></trkpt><trkpt lat="45.397227" lon="8.0273167"><ele>256.0</ele><time>2026-04-19T13:33:30.913Z</time></trkpt><trkpt lat="45.3971884" lon="8.0274299"><ele>256.6666666666667</ele><time>2026-04-19T13:33:31.913Z</time></trkpt><trkpt lat="45.3971541" lon="8.0275347"><ele>257.3333333333333</ele><time>2026-04-19T13:33:32.913Z</time></trkpt><trkpt lat="45.3971174" lon="8.0276345"><ele>258.0</ele><time>2026-04-19T13:33:33.913Z</time></trkpt><trkpt lat="45.3970847" lon="8.0277273"><ele>257.99999999999994</ele><time>2026-04-19T13:33:34.914Z</time></trkpt><trkpt lat="45.3970575" lon="8.0278101"><ele>258.0</ele><time>2026-04-19T13:33:35.914Z</time></trkpt><trkpt lat="45.3970283" lon="8.0279031"><ele>258.0</ele><time>2026-04-19T13:33:36.914Z</time></trkpt><trkpt lat="45.3970016" lon="8.0279854"><ele>258.0</ele><time>2026-04-19T13:33:37.913Z</time></trkpt><trkpt lat="45.3969731" lon="8.0280753"><ele>258.0</ele><time>2026-04-19T13:33:38.913Z</time></trkpt><trkpt lat="45.3969469" lon="8.02817"><ele>257.99999999999994</ele><time>2026-04-19T13:33:39.913Z</time></trkpt><trkpt lat="45.3969196" lon="8.0282717"><ele>258.0</ele><time>2026-04-19T13:33:40.914Z</time></trkpt><trkpt lat="45.396888" lon="8.0283829"><ele>256.2</ele><time>2026-04-19T13:33:41.913Z</time></trkpt><trkpt lat="45.3968505" lon="8.0285013"><ele>254.4</ele><time>2026-04-19T13:33:42.913Z</time></trkpt><trkpt lat="45.3968111" lon="8.0286291"><ele>252.59999999999997</ele><time>2026-04-19T13:33:43.913Z</time></trkpt><trkpt lat="45.3967709" lon="8.0287695"><ele>250.79999999999998</ele><time>2026-04-19T13:33:44.914Z</time></trkpt><trkpt lat="45.3967341" lon="8.0289333"><ele>249.0</ele><time>2026-04-19T13:33:45.915Z</time></trkpt><trkpt lat="45.3966988" lon="8.029109"><ele>247.33333333333331</ele><time>2026-04-19T13:33:46.914Z</time></trkpt><trkpt lat="45.3966701" lon="8.0293191"><ele>245.66666666666666</ele><time>2026-04-19T13:33:47.913Z</time></trkpt><trkpt lat="45.3966332" lon="8.0295427"><ele>244.0</ele><time>2026-04-19T13:33:48.914Z</time></trkpt><trkpt lat="45.3965913" lon="8.02975"><ele>244.0</ele><time>2026-04-19T13:33:49.913Z</time></trkpt><trkpt lat="45.3965535" lon="8.0299532"><ele>244.0</ele><time>2026-04-19T13:33:50.915Z</time></trkpt><trkpt lat="45.3965209" lon="8.0301662"><ele>244.0</ele><time>2026-04-19T13:33:51.913Z</time></trkpt><trkpt lat="45.3964862" lon="8.0303734"><ele>242.75</ele><time>2026-04-19T13:33:52.913Z</time></trkpt><trkpt lat="45.3964523" lon="8.0305709"><ele>241.5</ele><time>2026-04-19T13:33:53.914Z</time></trkpt><trkpt lat="45.3964178" lon="8.0307657"><ele>240.25</ele><time>2026-04-19T13:33:54.914Z</time></trkpt><trkpt lat="45.3963816" lon="8.0309618"><ele>239.0</ele><time>2026-04-19T13:33:55.913Z</time></trkpt><trkpt lat="45.3963403" lon="8.0311629"><ele>242.66666666666669</ele><time>2026-04-19T13:33:56.913Z</time></trkpt><trkpt lat="45.3963011" lon="8.0313751"><ele>246.33333333333331</ele><time>2026-04-19T13:33:57.913Z</time></trkpt><trkpt lat="45.3962647" lon="8.0315903"><ele>250.0</ele><time>2026-04-19T13:33:58.914Z</time></trkpt><trkpt lat="45.3962343" lon="8.031804"><ele>250.0</ele><time>2026-04-19T13:33:59.914Z</time></trkpt><trkpt lat="45.3962082" lon="8.0320137"><ele>250.0</ele><time>2026-04-19T13:34:00.913Z</time></trkpt><trkpt lat="45.3961775" lon="8.0322238"><ele>250.0</ele><time>2026-04-19T13:34:01.913Z</time></trkpt><trkpt lat="45.3961466" lon="8.0324289"><ele>250.0</ele><time>2026-04-19T13:34:02.914Z</time></trkpt><trkpt lat="45.3961051" lon="8.0326305"><ele>249.5</ele><time>2026-04-19T13:34:03.914Z</time></trkpt><trkpt lat="45.3960645" lon="8.0328337"><ele>249.0</ele><time>2026-04-19T13:34:04.913Z</time></trkpt><trkpt lat="45.3960261" lon="8.0330391"><ele>248.5</ele><time>2026-04-19T13:34:05.915Z</time></trkpt><trkpt lat="45.3959869" lon="8.0332436"><ele>248.0</ele><time>2026-04-19T13:34:06.913Z</time></trkpt><trkpt lat="45.3959479" lon="8.0334504"><ele>247.25</ele><time>2026-04-19T13:34:07.913Z</time></trkpt><trkpt lat="45.3959086" lon="8.0336579"><ele>246.5</ele><time>2026-04-19T13:34:08.914Z</time></trkpt><trkpt lat="45.3958673" lon="8.0338626"><ele>245.75</ele><time>2026-04-19T13:34:09.913Z</time></trkpt><trkpt lat="45.3958301" lon="8.034062"><ele>245.0</ele><time>2026-04-19T13:34:10.914Z</time></trkpt><trkpt lat="45.3957949" lon="8.0342432"><ele>245.0</ele><time>2026-04-19T13:34:11.913Z</time></trkpt><trkpt lat="45.395756" lon="8.0344023"><ele>245.0</ele><time>2026-04-19T13:34:12.914Z</time></trkpt><trkpt lat="45.3957167" lon="8.0345455"><ele>245.0</ele><time>2026-04-19T13:34:13.913Z</time></trkpt><trkpt lat="45.3956802" lon="8.0346826"><ele>245.0</ele><time>2026-04-19T13:34:14.914Z</time></trkpt><trkpt lat="45.3956484" lon="8.0348232"><ele>245.0</ele><time>2026-04-19T13:34:15.914Z</time></trkpt><trkpt lat="45.3956156" lon="8.0349685"><ele>244.4</ele><time>2026-04-19T13:34:16.913Z</time></trkpt><trkpt lat="45.3955816" lon="8.0351168"><ele>243.8</ele><time>2026-04-19T13:34:17.913Z</time></trkpt><trkpt lat="45.3955488" lon="8.0352677"><ele>243.2</ele><time>2026-04-19T13:34:18.913Z</time></trkpt><trkpt lat="45.3955165" lon="8.0354213"><ele>242.6</ele><time>2026-04-19T13:34:19.914Z</time></trkpt><trkpt lat="45.3954825" lon="8.0355778"><ele>242.0</ele><time>2026-04-19T13:34:20.914Z</time></trkpt><trkpt lat="45.3954493" lon="8.0357364"><ele>244.5</ele><time>2026-04-19T13:34:21.913Z</time></trkpt><trkpt lat="45.395418" lon="8.0358951"><ele>247.0</ele><time>2026-04-19T13:34:22.914Z</time></trkpt><trkpt lat="45.3953875" lon="8.0360515"><ele>249.5</ele><time>2026-04-19T13:34:23.913Z</time></trkpt><trkpt lat="45.3953574" lon="8.0362077"><ele>252.0</ele><time>2026-04-19T13:34:24.913Z</time></trkpt><trkpt lat="45.3953212" lon="8.036369"><ele>252.0</ele><time>2026-04-19T13:34:25.914Z</time></trkpt><trkpt lat="45.3952861" lon="8.0365351"><ele>252.0</ele><time>2026-04-19T13:34:26.913Z</time></trkpt><trkpt lat="45.3952501" lon="8.0367084"><ele>252.0</ele><time>2026-04-19T13:34:27.914Z</time></trkpt><trkpt lat="45.3952145" lon="8.0368841"><ele>252.0</ele><time>2026-04-19T13:34:28.914Z</time></trkpt><trkpt lat="45.3951782" lon="8.037066"><ele>250.75</ele><time>2026-04-19T13:34:29.913Z</time></trkpt><trkpt lat="45.3951456" lon="8.0372504"><ele>249.5</ele><time>2026-04-19T13:34:30.913Z</time></trkpt><trkpt lat="45.3951117" lon="8.0374382"><ele>248.25</ele><time>2026-04-19T13:34:31.914Z</time></trkpt><trkpt lat="45.3950772" lon="8.0376275"><ele>247.0</ele><time>2026-04-19T13:34:32.914Z</time></trkpt><trkpt lat="45.3950433" lon="8.0378228"><ele>246.5</ele><time>2026-04-19T13:34:33.914Z</time></trkpt><trkpt lat="45.3950023" lon="8.0380289"><ele>246.0</ele><time>2026-04-19T13:34:34.913Z</time></trkpt><trkpt lat="45.3949606" lon="8.0382303"><ele>245.5</ele><time>2026-04-19T13:34:35.914Z</time></trkpt><trkpt lat="45.3949197" lon="8.0384311"><ele>245.0</ele><time>2026-04-19T13:34:36.914Z</time></trkpt><trkpt lat="45.3948805" lon="8.0386269"><ele>245.0</ele><time>2026-04-19T13:34:37.914Z</time></trkpt><trkpt lat="45.3948412" lon="8.0388143"><ele>245.0</ele><time>2026-04-19T13:34:38.913Z</time></trkpt><trkpt lat="45.3948001" lon="8.0390059"><ele>245.0</ele><time>2026-04-19T13:34:39.914Z</time></trkpt><trkpt lat="45.3947581" lon="8.0391993"><ele>245.0</ele><time>2026-04-19T13:34:40.914Z</time></trkpt><trkpt lat="45.3947148" lon="8.0393908"><ele>245.66666666666669</ele><time>2026-04-19T13:34:41.914Z</time></trkpt><trkpt lat="45.3946659" lon="8.0395934"><ele>246.33333333333331</ele><time>2026-04-19T13:34:42.913Z</time></trkpt><trkpt lat="45.3946278" lon="8.0398164"><ele>247.0</ele><time>2026-04-19T13:34:43.914Z</time></trkpt><trkpt lat="45.3946033" lon="8.0400557"><ele>247.33333333333331</ele><time>2026-04-19T13:34:44.914Z</time></trkpt><trkpt lat="45.3945755" lon="8.0403082"><ele>247.66666666666669</ele><time>2026-04-19T13:34:45.914Z</time></trkpt><trkpt lat="45.3945543" lon="8.0405274"><ele>248.0</ele><time>2026-04-19T13:34:46.914Z</time></trkpt><trkpt lat="45.3945409" lon="8.0407367"><ele>248.5</ele><time>2026-04-19T13:34:47.914Z</time></trkpt><trkpt lat="45.3945284" lon="8.0409215"><ele>249.0</ele><time>2026-04-19T13:34:48.913Z</time></trkpt><trkpt lat="45.3945231" lon="8.0410887"><ele>249.5</ele><time>2026-04-19T13:34:49.913Z</time></trkpt><trkpt lat="45.3945439" lon="8.0412651"><ele>250.0</ele><time>2026-04-19T13:34:50.913Z</time></trkpt><trkpt lat="45.3945892" lon="8.0414251"><ele>250.0</ele><time>2026-04-19T13:34:51.914Z</time></trkpt><trkpt lat="45.3946453" lon="8.0415885"><ele>250.0</ele><time>2026-04-19T13:34:52.914Z</time></trkpt><trkpt lat="45.3947021" lon="8.0417764"><ele>250.0</ele><time>2026-04-19T13:34:53.914Z</time></trkpt><trkpt lat="45.3947683" lon="8.0419584"><ele>250.0</ele><time>2026-04-19T13:34:54.914Z</time></trkpt><trkpt lat="45.3948314" lon="8.0421389"><ele>250.0</ele><time>2026-04-19T13:34:55.913Z</time></trkpt><trkpt lat="45.3948955" lon="8.0423237"><ele>250.0</ele><time>2026-04-19T13:34:56.914Z</time></trkpt><trkpt lat="45.3949592" lon="8.0424973"><ele>250.0</ele><time>2026-04-19T13:34:57.915Z</time></trkpt><trkpt lat="45.3950279" lon="8.0426776"><ele>250.0</ele><time>2026-04-19T13:34:58.913Z</time></trkpt><trkpt lat="45.3950945" lon="8.0428563"><ele>250.0</ele><time>2026-04-19T13:34:59.914Z</time></trkpt><trkpt lat="45.3951628" lon="8.0430275"><ele>250.0</ele><time>2026-04-19T13:35:00.913Z</time></trkpt><trkpt lat="45.3952319" lon="8.0432035"><ele>250.0</ele><time>2026-04-19T13:35:01.913Z</time></trkpt><trkpt lat="45.3953028" lon="8.0433711"><ele>250.0</ele><time>2026-04-19T13:35:02.914Z</time></trkpt><trkpt lat="45.3953783" lon="8.0435303"><ele>250.2</ele><time>2026-04-19T13:35:03.914Z</time></trkpt><trkpt lat="45.395462" lon="8.0436569"><ele>250.4</ele><time>2026-04-19T13:35:04.913Z</time></trkpt><trkpt lat="45.3955292" lon="8.0437836"><ele>250.60000000000002</ele><time>2026-04-19T13:35:05.914Z</time></trkpt><trkpt lat="45.3955695" lon="8.0439156"><ele>250.8</ele><time>2026-04-19T13:35:06.913Z</time></trkpt><trkpt lat="45.3955886" lon="8.0440483"><ele>251.0</ele><time>2026-04-19T13:35:07.913Z</time></trkpt><trkpt lat="45.3955956" lon="8.0441592"><ele>252.20000000000002</ele><time>2026-04-19T13:35:08.913Z</time></trkpt><trkpt lat="45.3956272" lon="8.0443164"><ele>253.40000000000003</ele><time>2026-04-19T13:35:10.915Z</time></trkpt><trkpt lat="45.3956572" lon="8.0444271"><ele>254.6</ele><time>2026-04-19T13:35:12.914Z</time></trkpt><trkpt lat="45.3956819" lon="8.0445333"><ele>255.8</ele><time>2026-04-19T13:35:15.913Z</time></trkpt><trkpt lat="45.3956112" lon="8.0445916"><ele>257.0</ele><time>2026-04-19T13:35:22.913Z</time></trkpt><trkpt lat="45.3955114" lon="8.0445526"><ele>256.4</ele><time>2026-04-19T13:35:24.913Z</time></trkpt><trkpt lat="45.3954428" lon="8.0445344"><ele>255.79999999999998</ele><time>2026-04-19T13:35:25.914Z</time></trkpt><trkpt lat="45.3953561" lon="8.0445151"><ele>255.2</ele><time>2026-04-19T13:35:26.913Z</time></trkpt><trkpt lat="45.3952488" lon="8.0444887"><ele>254.6</ele><time>2026-04-19T13:35:27.914Z</time></trkpt><trkpt lat="45.3951268" lon="8.044455"><ele>254.0</ele><time>2026-04-19T13:35:28.913Z</time></trkpt><trkpt lat="45.3949842" lon="8.0444144"><ele>254.0</ele><time>2026-04-19T13:35:29.914Z</time></trkpt><trkpt lat="45.3948194" lon="8.0443743"><ele>254.0</ele><time>2026-04-19T13:35:30.914Z</time></trkpt><trkpt lat="45.3946514" lon="8.044339"><ele>254.0</ele><time>2026-04-19T13:35:31.914Z</time></trkpt><trkpt lat="45.3944796" lon="8.0442912"><ele>254.25</ele><time>2026-04-19T13:35:32.913Z</time></trkpt><trkpt lat="45.3943503" lon="8.0442543"><ele>254.5</ele><time>2026-04-19T13:35:33.914Z</time></trkpt><trkpt lat="45.3942111" lon="8.0442212"><ele>254.75</ele><time>2026-04-19T13:35:34.915Z</time></trkpt><trkpt lat="45.3940795" lon="8.044188"><ele>255.0</ele><time>2026-04-19T13:35:35.913Z</time></trkpt><trkpt lat="45.3939584" lon="8.0441571"><ele>257.25</ele><time>2026-04-19T13:35:36.914Z</time></trkpt><trkpt lat="45.3938315" lon="8.0441293"><ele>259.5</ele><time>2026-04-19T13:35:37.913Z</time></trkpt><trkpt lat="45.3937002" lon="8.0441049"><ele>261.75</ele><time>2026-04-19T13:35:38.913Z</time></trkpt><trkpt lat="45.3935717" lon="8.0440827"><ele>264.0</ele><time>2026-04-19T13:35:39.914Z</time></trkpt><trkpt lat="45.3934506" lon="8.0440593"><ele>264.0</ele><time>2026-04-19T13:35:40.914Z</time></trkpt><trkpt lat="45.3933298" lon="8.0440387"><ele>264.0</ele><time>2026-04-19T13:35:41.914Z</time></trkpt><trkpt lat="45.3932149" lon="8.0440167"><ele>264.0</ele><time>2026-04-19T13:35:42.914Z</time></trkpt><trkpt lat="45.3931041" lon="8.0440057"><ele>264.0</ele><time>2026-04-19T13:35:43.914Z</time></trkpt><trkpt lat="45.3930236" lon="8.0440259"><ele>264.0</ele><time>2026-04-19T13:35:45.913Z</time></trkpt><trkpt lat="45.3929305" lon="8.0441341"><ele>268.2</ele><time>2026-04-19T13:35:47.914Z</time></trkpt><trkpt lat="45.3929076" lon="8.0442668"><ele>272.4</ele><time>2026-04-19T13:35:48.914Z</time></trkpt><trkpt lat="45.3928991" lon="8.0443876"><ele>276.6</ele><time>2026-04-19T13:35:49.914Z</time></trkpt><trkpt lat="45.3928878" lon="8.0445391"><ele>280.8</ele><time>2026-04-19T13:35:50.913Z</time></trkpt><trkpt lat="45.3928703" lon="8.0446784"><ele>285.0</ele><time>2026-04-19T13:35:51.914Z</time></trkpt><trkpt lat="45.3928377" lon="8.0448172"><ele>285.0</ele><time>2026-04-19T13:35:52.913Z</time></trkpt><trkpt lat="45.3928029" lon="8.044945"><ele>285.0</ele><time>2026-04-19T13:35:53.913Z</time></trkpt><trkpt lat="45.3927514" lon="8.0450421"><ele>285.0</ele><time>2026-04-19T13:35:54.914Z</time></trkpt><trkpt lat="45.3926582" lon="8.045164"><ele>285.0</ele><time>2026-04-19T13:35:55.914Z</time></trkpt><trkpt lat="45.3925808" lon="8.0452802"><ele>285.0</ele><time>2026-04-19T13:35:56.914Z</time></trkpt><trkpt lat="45.3925065" lon="8.045391"><ele>283.8</ele><time>2026-04-19T13:35:57.913Z</time></trkpt><trkpt lat="45.3923971" lon="8.0454771"><ele>282.6</ele><time>2026-04-19T13:35:58.913Z</time></trkpt><trkpt lat="45.3923248" lon="8.0455787"><ele>281.4</ele><time>2026-04-19T13:35:59.914Z</time></trkpt><trkpt lat="45.3922583" lon="8.0456939"><ele>280.2</ele><time>2026-04-19T13:36:00.914Z</time></trkpt><trkpt lat="45.3921961" lon="8.0458119"><ele>279.0</ele><time>2026-04-19T13:36:01.914Z</time></trkpt><trkpt lat="45.3921349" lon="8.0459234"><ele>281.5</ele><time>2026-04-19T13:36:02.913Z</time></trkpt><trkpt lat="45.3920644" lon="8.0460046"><ele>284.0</ele><time>2026-04-19T13:36:03.913Z</time></trkpt><trkpt lat="45.3920007" lon="8.0461"><ele>286.5</ele><time>2026-04-19T13:36:04.913Z</time></trkpt><trkpt lat="45.3919342" lon="8.0461927"><ele>289.0</ele><time>2026-04-19T13:36:05.913Z</time></trkpt><trkpt lat="45.3918871" lon="8.0462871"><ele>291.5</ele><time>2026-04-19T13:36:06.913Z</time></trkpt><trkpt lat="45.391841" lon="8.0463735"><ele>294.0</ele><time>2026-04-19T13:36:07.913Z</time></trkpt><trkpt lat="45.3917842" lon="8.0464453"><ele>294.0</ele><time>2026-04-19T13:36:08.914Z</time></trkpt><trkpt lat="45.3917094" lon="8.0464876"><ele>294.0</ele><time>2026-04-19T13:36:09.913Z</time></trkpt><trkpt lat="45.3916267" lon="8.0465385"><ele>294.0</ele><time>2026-04-19T13:36:10.914Z</time></trkpt><trkpt lat="45.3915427" lon="8.0465744"><ele>294.0</ele><time>2026-04-19T13:36:11.913Z</time></trkpt><trkpt lat="45.3914536" lon="8.0466056"><ele>294.0</ele><time>2026-04-19T13:36:12.913Z</time></trkpt><trkpt lat="45.3913337" lon="8.0465998"><ele>295.4</ele><time>2026-04-19T13:36:13.913Z</time></trkpt><trkpt lat="45.3912301" lon="8.0466198"><ele>296.79999999999995</ele><time>2026-04-19T13:36:14.913Z</time></trkpt><trkpt lat="45.3911445" lon="8.0466624"><ele>298.20000000000005</ele><time>2026-04-19T13:36:15.914Z</time></trkpt><trkpt lat="45.391079" lon="8.0466976"><ele>299.6</ele><time>2026-04-19T13:36:16.913Z</time></trkpt><trkpt lat="45.3909797" lon="8.0467928"><ele>301.0</ele><time>2026-04-19T13:36:18.914Z</time></trkpt><trkpt lat="45.3909359" lon="8.0469508"><ele>301.0</ele><time>2026-04-19T13:36:20.914Z</time></trkpt><trkpt lat="45.3909191" lon="8.047095"><ele>301.0</ele><time>2026-04-19T13:36:22.914Z</time></trkpt><trkpt lat="45.390901" lon="8.0472454"><ele>301.0</ele><time>2026-04-19T13:36:24.913Z</time></trkpt><trkpt lat="45.3908977" lon="8.0474016"><ele>301.0</ele><time>2026-04-19T13:36:26.913Z</time></trkpt><trkpt lat="45.3908807" lon="8.0475082"><ele>301.0</ele><time>2026-04-19T13:36:27.915Z</time></trkpt><trkpt lat="45.3908655" lon="8.0476004"><ele>301.2</ele><time>2026-04-19T13:36:28.913Z</time></trkpt><trkpt lat="45.3908294" lon="8.0477638"><ele>301.40000000000003</ele><time>2026-04-19T13:36:30.913Z</time></trkpt><trkpt lat="45.3908249" lon="8.047919"><ele>301.6</ele><time>2026-04-19T13:36:32.913Z</time></trkpt><trkpt lat="45.3908236" lon="8.0480586"><ele>301.8</ele><time>2026-04-19T13:36:34.915Z</time></trkpt><trkpt lat="45.3907908" lon="8.0481674"><ele>302.0</ele><time>2026-04-19T13:36:36.915Z</time></trkpt><trkpt lat="45.3907263" lon="8.0482066"><ele>302.0</ele><time>2026-04-19T13:36:39.913Z</time></trkpt><trkpt lat="45.3905343" lon="8.0481969"><ele>302.0</ele><time>2026-04-19T13:38:06.913Z</time></trkpt><trkpt lat="45.3904004" lon="8.048068"><ele>302.0</ele><time>2026-04-19T13:38:07.914Z</time></trkpt><trkpt lat="45.390334" lon="8.0480073"><ele>302.0</ele><time>2026-04-19T13:38:08.913Z</time></trkpt><trkpt lat="45.390246" lon="8.0479372"><ele>304.25</ele><time>2026-04-19T13:38:09.912Z</time></trkpt><trkpt lat="45.3901509" lon="8.0478814"><ele>306.5</ele><time>2026-04-19T13:38:10.913Z</time></trkpt><trkpt lat="45.3900257" lon="8.0478276"><ele>308.75</ele><time>2026-04-19T13:38:11.913Z</time></trkpt><trkpt lat="45.3899049" lon="8.0477826"><ele>311.0</ele><time>2026-04-19T13:38:12.912Z</time></trkpt><trkpt lat="45.3897813" lon="8.0477409"><ele>311.8</ele><time>2026-04-19T13:38:13.913Z</time></trkpt><trkpt lat="45.3896738" lon="8.0477124"><ele>312.6</ele><time>2026-04-19T13:38:14.914Z</time></trkpt><trkpt lat="45.3895692" lon="8.0476786"><ele>313.4</ele><time>2026-04-19T13:38:15.912Z</time></trkpt><trkpt lat="45.3894731" lon="8.0476417"><ele>314.2</ele><time>2026-04-19T13:38:16.914Z</time></trkpt><trkpt lat="45.3893907" lon="8.047595"><ele>315.0</ele><time>2026-04-19T13:38:17.912Z</time></trkpt><trkpt lat="45.38932" lon="8.0475427"><ele>315.0</ele><time>2026-04-19T13:38:18.913Z</time></trkpt><trkpt lat="45.3892591" lon="8.0474636"><ele>315.0</ele><time>2026-04-19T13:38:19.913Z</time></trkpt><trkpt lat="45.3892101" lon="8.0473614"><ele>315.0</ele><time>2026-04-19T13:38:20.913Z</time></trkpt><trkpt lat="45.3891543" lon="8.047268"><ele>315.0</ele><time>2026-04-19T13:38:21.913Z</time></trkpt><trkpt lat="45.3891006" lon="8.0471266"><ele>315.0</ele><time>2026-04-19T13:38:22.913Z</time></trkpt><trkpt lat="45.3890461" lon="8.0470005"><ele>314.8333333333333</ele><time>2026-04-19T13:38:23.912Z</time></trkpt><trkpt lat="45.3889721" lon="8.0468839"><ele>314.6666666666667</ele><time>2026-04-19T13:38:24.913Z</time></trkpt><trkpt lat="45.3888988" lon="8.046785"><ele>314.5</ele><time>2026-04-19T13:38:25.912Z</time></trkpt><trkpt lat="45.3888362" lon="8.0467063"><ele>314.33333333333337</ele><time>2026-04-19T13:38:26.912Z</time></trkpt><trkpt lat="45.388751" lon="8.0467309"><ele>314.1666666666667</ele><time>2026-04-19T13:38:27.912Z</time></trkpt><trkpt lat="45.3886846" lon="8.0467136"><ele>314.0</ele><time>2026-04-19T13:38:28.912Z</time></trkpt><trkpt lat="45.3886252" lon="8.0467669"><ele>315.6666666666667</ele><time>2026-04-19T13:38:29.912Z</time></trkpt><trkpt lat="45.3885524" lon="8.0468453"><ele>317.33333333333337</ele><time>2026-04-19T13:38:30.913Z</time></trkpt><trkpt lat="45.3884826" lon="8.0469475"><ele>319.0</ele><time>2026-04-19T13:38:31.912Z</time></trkpt><trkpt lat="45.388409" lon="8.0470363"><ele>320.6666666666667</ele><time>2026-04-19T13:38:32.912Z</time></trkpt><trkpt lat="45.3883466" lon="8.0471096"><ele>322.3333333333333</ele><time>2026-04-19T13:38:33.912Z</time></trkpt><trkpt lat="45.3882833" lon="8.0471669"><ele>324.0</ele><time>2026-04-19T13:38:34.912Z</time></trkpt><trkpt lat="45.3882332" lon="8.0472227"><ele>324.0</ele><time>2026-04-19T13:38:35.913Z</time></trkpt><trkpt lat="45.3881951" lon="8.0472954"><ele>324.0</ele><time>2026-04-19T13:38:36.913Z</time></trkpt><trkpt lat="45.388158" lon="8.0473765"><ele>324.0</ele><time>2026-04-19T13:38:37.912Z</time></trkpt><trkpt lat="45.3881367" lon="8.0474796"><ele>324.0</ele><time>2026-04-19T13:38:38.913Z</time></trkpt><trkpt lat="45.3881253" lon="8.0475747"><ele>324.0</ele><time>2026-04-19T13:38:39.912Z</time></trkpt><trkpt lat="45.388095" lon="8.0476778"><ele>324.0</ele><time>2026-04-19T13:38:40.913Z</time></trkpt><trkpt lat="45.3880298" lon="8.0477409"><ele>324.0</ele><time>2026-04-19T13:38:41.912Z</time></trkpt><trkpt lat="45.3879678" lon="8.0478126"><ele>325.8333333333333</ele><time>2026-04-19T13:38:42.912Z</time></trkpt><trkpt lat="45.3879032" lon="8.047866"><ele>327.6666666666667</ele><time>2026-04-19T13:38:43.913Z</time></trkpt><trkpt lat="45.3878428" lon="8.0479085"><ele>329.5</ele><time>2026-04-19T13:38:44.912Z</time></trkpt><trkpt lat="45.3877813" lon="8.0479541"><ele>331.33333333333337</ele><time>2026-04-19T13:38:45.912Z</time></trkpt><trkpt lat="45.3877079" lon="8.0479525"><ele>333.1666666666667</ele><time>2026-04-19T13:38:46.913Z</time></trkpt><trkpt lat="45.3876284" lon="8.0479751"><ele>335.0</ele><time>2026-04-19T13:38:47.912Z</time></trkpt><trkpt lat="45.3875458" lon="8.0479975"><ele>335.0</ele><time>2026-04-19T13:38:48.913Z</time></trkpt><trkpt lat="45.3874708" lon="8.0480465"><ele>335.0</ele><time>2026-04-19T13:38:49.913Z</time></trkpt><trkpt lat="45.3873945" lon="8.0480921"><ele>335.0</ele><time>2026-04-19T13:38:50.913Z</time></trkpt><trkpt lat="45.3873378" lon="8.0481465"><ele>335.0</ele><time>2026-04-19T13:38:51.913Z</time></trkpt><trkpt lat="45.3872626" lon="8.048194"><ele>335.0</ele><time>2026-04-19T13:38:52.913Z</time></trkpt><trkpt lat="45.3871926" lon="8.0482338"><ele>335.0</ele><time>2026-04-19T13:38:53.913Z</time></trkpt><trkpt lat="45.3871097" lon="8.0482536"><ele>334.4</ele><time>2026-04-19T13:38:54.913Z</time></trkpt><trkpt lat="45.3870199" lon="8.0482455"><ele>333.8</ele><time>2026-04-19T13:38:55.912Z</time></trkpt><trkpt lat="45.3869281" lon="8.0482652"><ele>333.20000000000005</ele><time>2026-04-19T13:38:56.913Z</time></trkpt><trkpt lat="45.3868324" lon="8.0483023"><ele>332.6</ele><time>2026-04-19T13:38:57.912Z</time></trkpt><trkpt lat="45.3867624" lon="8.0483604"><ele>332.0</ele><time>2026-04-19T13:38:58.914Z</time></trkpt><trkpt lat="45.3866715" lon="8.0484044"><ele>332.0</ele><time>2026-04-19T13:38:59.912Z</time></trkpt><trkpt lat="45.3865742" lon="8.0484612"><ele>332.0</ele><time>2026-04-19T13:39:00.912Z</time></trkpt><trkpt lat="45.3864778" lon="8.0485246"><ele>332.0</ele><time>2026-04-19T13:39:01.914Z</time></trkpt><trkpt lat="45.3863989" lon="8.0485891"><ele>332.0</ele><time>2026-04-19T13:39:02.912Z</time></trkpt><trkpt lat="45.3863319" lon="8.0486532"><ele>332.0</ele><time>2026-04-19T13:39:03.913Z</time></trkpt><trkpt lat="45.3862148" lon="8.0486862"><ele>330.6</ele><time>2026-04-19T13:39:04.913Z</time></trkpt><trkpt lat="45.3861215" lon="8.0487185"><ele>329.20000000000005</ele><time>2026-04-19T13:39:05.913Z</time></trkpt><trkpt lat="45.386017" lon="8.0487494"><ele>327.8</ele><time>2026-04-19T13:39:06.914Z</time></trkpt><trkpt lat="45.3859291" lon="8.0487897"><ele>326.4</ele><time>2026-04-19T13:39:07.912Z</time></trkpt><trkpt lat="45.3858467" lon="8.0488473"><ele>325.0</ele><time>2026-04-19T13:39:08.913Z</time></trkpt><trkpt lat="45.3857784" lon="8.0489134"><ele>325.0</ele><time>2026-04-19T13:39:09.912Z</time></trkpt><trkpt lat="45.3857126" lon="8.0489783"><ele>325.0</ele><time>2026-04-19T13:39:10.912Z</time></trkpt><trkpt lat="45.3856505" lon="8.049064"><ele>325.0</ele><time>2026-04-19T13:39:11.912Z</time></trkpt><trkpt lat="45.3855832" lon="8.0491541"><ele>325.0</ele><time>2026-04-19T13:39:12.913Z</time></trkpt><trkpt lat="45.3855084" lon="8.0492386"><ele>325.0</ele><time>2026-04-19T13:39:13.912Z</time></trkpt><trkpt lat="45.3854308" lon="8.0493243"><ele>323.0</ele><time>2026-04-19T13:39:14.912Z</time></trkpt><trkpt lat="45.3853466" lon="8.0493977"><ele>321.0</ele><time>2026-04-19T13:39:15.913Z</time></trkpt><trkpt lat="45.3852667" lon="8.0494706"><ele>319.0</ele><time>2026-04-19T13:39:16.912Z</time></trkpt><trkpt lat="45.3852022" lon="8.0495852"><ele>317.0</ele><time>2026-04-19T13:39:17.913Z</time></trkpt><trkpt lat="45.3851416" lon="8.0497217"><ele>315.0</ele><time>2026-04-19T13:39:18.914Z</time></trkpt><trkpt lat="45.3850804" lon="8.0498944"><ele>314.25</ele><time>2026-04-19T13:39:19.912Z</time></trkpt><trkpt lat="45.3850308" lon="8.0500567"><ele>313.5</ele><time>2026-04-19T13:39:20.913Z</time></trkpt><trkpt lat="45.3849734" lon="8.0502044"><ele>312.75</ele><time>2026-04-19T13:39:21.913Z</time></trkpt><trkpt lat="45.3849183" lon="8.0503616"><ele>312.0</ele><time>2026-04-19T13:39:22.914Z</time></trkpt><trkpt lat="45.3848576" lon="8.0505377"><ele>312.0</ele><time>2026-04-19T13:39:23.912Z</time></trkpt><trkpt lat="45.3848062" lon="8.0507013"><ele>312.0</ele><time>2026-04-19T13:39:24.913Z</time></trkpt><trkpt lat="45.3847529" lon="8.0508831"><ele>312.0</ele><time>2026-04-19T13:39:25.912Z</time></trkpt><trkpt lat="45.3846982" lon="8.0510783"><ele>312.0</ele><time>2026-04-19T13:39:26.912Z</time></trkpt><trkpt lat="45.3846475" lon="8.0512628"><ele>310.6666666666667</ele><time>2026-04-19T13:39:27.913Z</time></trkpt><trkpt lat="45.3845832" lon="8.0514542"><ele>309.33333333333337</ele><time>2026-04-19T13:39:28.913Z</time></trkpt><trkpt lat="45.3845207" lon="8.0516535"><ele>308.0</ele><time>2026-04-19T13:39:29.913Z</time></trkpt><trkpt lat="45.3844656" lon="8.0518613"><ele>306.6666666666667</ele><time>2026-04-19T13:39:30.912Z</time></trkpt><trkpt lat="45.3844177" lon="8.052075"><ele>305.3333333333333</ele><time>2026-04-19T13:39:31.912Z</time></trkpt><trkpt lat="45.3843657" lon="8.0522986"><ele>304.0</ele><time>2026-04-19T13:39:32.914Z</time></trkpt><trkpt lat="45.3843144" lon="8.0525206"><ele>304.0</ele><time>2026-04-19T13:39:33.912Z</time></trkpt><trkpt lat="45.3842539" lon="8.0527638"><ele>304.0</ele><time>2026-04-19T13:39:34.912Z</time></trkpt><trkpt lat="45.3841952" lon="8.053004"><ele>304.0</ele><time>2026-04-19T13:39:35.912Z</time></trkpt><trkpt lat="45.3841369" lon="8.0532342"><ele>304.0</ele><time>2026-04-19T13:39:36.913Z</time></trkpt><trkpt lat="45.3840875" lon="8.0534382"><ele>304.0</ele><time>2026-04-19T13:39:37.913Z</time></trkpt><trkpt lat="45.3840487" lon="8.0536068"><ele>304.0</ele><time>2026-04-19T13:39:38.913Z</time></trkpt><trkpt lat="45.3840103" lon="8.0537635"><ele>304.0</ele><time>2026-04-19T13:39:39.912Z</time></trkpt><trkpt lat="45.3839877" lon="8.0539001"><ele>304.0</ele><time>2026-04-19T13:39:40.914Z</time></trkpt><trkpt lat="45.3839624" lon="8.0540218"><ele>304.0</ele><time>2026-04-19T13:39:41.912Z</time></trkpt><trkpt lat="45.3839366" lon="8.054121"><ele>304.0</ele><time>2026-04-19T13:39:42.913Z</time></trkpt><trkpt lat="45.3839183" lon="8.0542527"><ele>304.0</ele><time>2026-04-19T13:39:44.913Z</time></trkpt><trkpt lat="45.3839699" lon="8.0543195"><ele>304.0</ele><time>2026-04-19T13:39:46.913Z</time></trkpt><trkpt lat="45.3840894" lon="8.0543452"><ele>304.0</ele><time>2026-04-19T13:39:48.912Z</time></trkpt><trkpt lat="45.3841812" lon="8.0543711"><ele>303.75</ele><time>2026-04-19T13:39:49.912Z</time></trkpt><trkpt lat="45.3842944" lon="8.0544047"><ele>303.5</ele><time>2026-04-19T13:39:50.912Z</time></trkpt><trkpt lat="45.384435" lon="8.0544475"><ele>303.25</ele><time>2026-04-19T13:39:51.912Z</time></trkpt><trkpt lat="45.3845853" lon="8.054493"><ele>303.0</ele><time>2026-04-19T13:39:52.913Z</time></trkpt><trkpt lat="45.3847166" lon="8.0545371"><ele>304.2</ele><time>2026-04-19T13:39:53.912Z</time></trkpt><trkpt lat="45.3848415" lon="8.0545768"><ele>305.4</ele><time>2026-04-19T13:39:54.913Z</time></trkpt><trkpt lat="45.3849533" lon="8.0546065"><ele>306.59999999999997</ele><time>2026-04-19T13:39:55.913Z</time></trkpt><trkpt lat="45.38505" lon="8.0546371"><ele>307.8</ele><time>2026-04-19T13:39:56.912Z</time></trkpt><trkpt lat="45.3851372" lon="8.0546658"><ele>309.0</ele><time>2026-04-19T13:39:57.912Z</time></trkpt><trkpt lat="45.3852114" lon="8.0546934"><ele>309.0</ele><time>2026-04-19T13:39:58.913Z</time></trkpt><trkpt lat="45.3852789" lon="8.0547221"><ele>309.0</ele><time>2026-04-19T13:39:59.912Z</time></trkpt><trkpt lat="45.3853707" lon="8.0547669"><ele>309.0</ele><time>2026-04-19T13:40:01.912Z</time></trkpt><trkpt lat="45.3854295" lon="8.0548466"><ele>309.0</ele><time>2026-04-19T13:40:04.913Z</time></trkpt><trkpt lat="45.3853944" lon="8.0549258"><ele>309.0</ele><time>2026-04-19T13:40:54.912Z</time></trkpt><trkpt lat="45.3853404" lon="8.0550715"><ele>309.0</ele><time>2026-04-19T13:40:56.912Z</time></trkpt><trkpt lat="45.3853008" lon="8.0551692"><ele>306.8</ele><time>2026-04-19T13:40:57.912Z</time></trkpt><trkpt lat="45.385255" lon="8.0552873"><ele>304.59999999999997</ele><time>2026-04-19T13:40:58.912Z</time></trkpt><trkpt lat="45.3852059" lon="8.0554233"><ele>302.4</ele><time>2026-04-19T13:40:59.913Z</time></trkpt><trkpt lat="45.3851555" lon="8.0555605"><ele>300.2</ele><time>2026-04-19T13:41:00.912Z</time></trkpt><trkpt lat="45.3851054" lon="8.0557121"><ele>298.0</ele><time>2026-04-19T13:41:01.912Z</time></trkpt><trkpt lat="45.3850545" lon="8.0558628"><ele>297.0</ele><time>2026-04-19T13:41:02.912Z</time></trkpt><trkpt lat="45.3849945" lon="8.0560181"><ele>296.0</ele><time>2026-04-19T13:41:03.913Z</time></trkpt><trkpt lat="45.3849331" lon="8.0561725"><ele>295.0</ele><time>2026-04-19T13:41:04.913Z</time></trkpt><trkpt lat="45.3848686" lon="8.0563262"><ele>294.0</ele><time>2026-04-19T13:41:05.912Z</time></trkpt><trkpt lat="45.3848059" lon="8.0564809"><ele>293.75</ele><time>2026-04-19T13:41:06.913Z</time></trkpt><trkpt lat="45.3847453" lon="8.056641"><ele>293.5</ele><time>2026-04-19T13:41:07.914Z</time></trkpt><trkpt lat="45.3846871" lon="8.0568043"><ele>293.25</ele><time>2026-04-19T13:41:08.913Z</time></trkpt><trkpt lat="45.3846272" lon="8.0569714"><ele>293.0</ele><time>2026-04-19T13:41:09.914Z</time></trkpt><trkpt lat="45.3845622" lon="8.0571347"><ele>292.5</ele><time>2026-04-19T13:41:10.913Z</time></trkpt><trkpt lat="45.3844979" lon="8.057302"><ele>292.0</ele><time>2026-04-19T13:41:11.912Z</time></trkpt><trkpt lat="45.3844367" lon="8.0574656"><ele>291.5</ele><time>2026-04-19T13:41:12.912Z</time></trkpt><trkpt lat="45.3843796" lon="8.0576125"><ele>291.0</ele><time>2026-04-19T13:41:13.912Z</time></trkpt><trkpt lat="45.384326" lon="8.0577541"><ele>291.0</ele><time>2026-04-19T13:41:14.913Z</time></trkpt><trkpt lat="45.3842807" lon="8.0578829"><ele>291.0</ele><time>2026-04-19T13:41:15.912Z</time></trkpt><trkpt lat="45.384233" lon="8.0579911"><ele>291.0</ele><time>2026-04-19T13:41:16.912Z</time></trkpt><trkpt lat="45.3841761" lon="8.0580701"><ele>291.0</ele><time>2026-04-19T13:41:17.912Z</time></trkpt><trkpt lat="45.3841167" lon="8.0581627"><ele>291.0</ele><time>2026-04-19T13:41:18.913Z</time></trkpt><trkpt lat="45.3840615" lon="8.0582501"><ele>291.0</ele><time>2026-04-19T13:41:19.913Z</time></trkpt><trkpt lat="45.3840133" lon="8.0583202"><ele>290.8</ele><time>2026-04-19T13:41:20.912Z</time></trkpt><trkpt lat="45.3839944" lon="8.0584405"><ele>290.6</ele><time>2026-04-19T13:41:22.912Z</time></trkpt><trkpt lat="45.3840695" lon="8.0585314"><ele>290.4</ele><time>2026-04-19T13:41:24.913Z</time></trkpt><trkpt lat="45.3841477" lon="8.0585828"><ele>290.2</ele><time>2026-04-19T13:41:25.912Z</time></trkpt><trkpt lat="45.3842383" lon="8.0586323"><ele>290.0</ele><time>2026-04-19T13:41:26.912Z</time></trkpt><trkpt lat="45.384341" lon="8.0587019"><ele>290.0</ele><time>2026-04-19T13:41:27.912Z</time></trkpt><trkpt lat="45.3844441" lon="8.0587692"><ele>290.0</ele><time>2026-04-19T13:41:28.914Z</time></trkpt><trkpt lat="45.384536" lon="8.0588337"><ele>290.0</ele><time>2026-04-19T13:41:29.913Z</time></trkpt><trkpt lat="45.3846278" lon="8.0588876"><ele>290.0</ele><time>2026-04-19T13:41:30.912Z</time></trkpt><trkpt lat="45.3847013" lon="8.0589275"><ele>290.0</ele><time>2026-04-19T13:41:31.913Z</time></trkpt><trkpt lat="45.3847748" lon="8.0590171"><ele>290.2</ele><time>2026-04-19T13:41:33.913Z</time></trkpt><trkpt lat="45.3847886" lon="8.0591449"><ele>290.4</ele><time>2026-04-19T13:41:35.912Z</time></trkpt><trkpt lat="45.3847725" lon="8.0592602"><ele>290.6</ele><time>2026-04-19T13:41:36.912Z</time></trkpt><trkpt lat="45.3847542" lon="8.0594013"><ele>290.8</ele><time>2026-04-19T13:41:37.912Z</time></trkpt><trkpt lat="45.384752" lon="8.0595397"><ele>291.0</ele><time>2026-04-19T13:41:38.913Z</time></trkpt><trkpt lat="45.3847209" lon="8.0597106"><ele>291.0</ele><time>2026-04-19T13:41:39.912Z</time></trkpt><trkpt lat="45.3847024" lon="8.0598587"><ele>291.0</ele><time>2026-04-19T13:41:40.912Z</time></trkpt><trkpt lat="45.3846853" lon="8.06"><ele>291.0</ele><time>2026-04-19T13:41:41.913Z</time></trkpt><trkpt lat="45.3846768" lon="8.0601313"><ele>291.0</ele><time>2026-04-19T13:41:42.913Z</time></trkpt><trkpt lat="45.3846735" lon="8.0602266"><ele>291.0</ele><time>2026-04-19T13:41:43.912Z</time></trkpt><trkpt lat="45.3847191" lon="8.060382"><ele>291.0</ele><time>2026-04-19T13:41:45.912Z</time></trkpt><trkpt lat="45.3847389" lon="8.0604849"><ele>291.0</ele><time>2026-04-19T13:41:46.912Z</time></trkpt><trkpt lat="45.3847468" lon="8.0606097"><ele>291.0</ele><time>2026-04-19T13:41:47.913Z</time></trkpt><trkpt lat="45.3847407" lon="8.0607362"><ele>291.0</ele><time>2026-04-19T13:41:48.913Z</time></trkpt><trkpt lat="45.384713" lon="8.0608469"><ele>291.0</ele><time>2026-04-19T13:41:49.912Z</time></trkpt><trkpt lat="45.3846668" lon="8.0609524"><ele>291.0</ele><time>2026-04-19T13:41:50.912Z</time></trkpt><trkpt lat="45.3846099" lon="8.0610651"><ele>289.75</ele><time>2026-04-19T13:41:51.912Z</time></trkpt><trkpt lat="45.3845655" lon="8.0612074"><ele>288.5</ele><time>2026-04-19T13:41:52.912Z</time></trkpt><trkpt lat="45.3845305" lon="8.0613654"><ele>287.25</ele><time>2026-04-19T13:41:53.912Z</time></trkpt><trkpt lat="45.3844947" lon="8.0615289"><ele>286.0</ele><time>2026-04-19T13:41:54.912Z</time></trkpt><trkpt lat="45.3844608" lon="8.0617078"><ele>285.5</ele><time>2026-04-19T13:41:55.912Z</time></trkpt><trkpt lat="45.3844286" lon="8.0618811"><ele>285.0</ele><time>2026-04-19T13:41:56.912Z</time></trkpt><trkpt lat="45.384395" lon="8.0620494"><ele>284.5</ele><time>2026-04-19T13:41:57.912Z</time></trkpt><trkpt lat="45.3843716" lon="8.0622067"><ele>284.0</ele><time>2026-04-19T13:41:58.913Z</time></trkpt><trkpt lat="45.3843488" lon="8.0623659"><ele>284.33333333333337</ele><time>2026-04-19T13:41:59.913Z</time></trkpt><trkpt lat="45.3843363" lon="8.0625029"><ele>284.6666666666667</ele><time>2026-04-19T13:42:00.912Z</time></trkpt><trkpt lat="45.3843135" lon="8.0626416"><ele>285.0</ele><time>2026-04-19T13:42:01.912Z</time></trkpt><trkpt lat="45.384291" lon="8.0627571"><ele>285.3333333333333</ele><time>2026-04-19T13:42:02.912Z</time></trkpt><trkpt lat="45.3842505" lon="8.0628502"><ele>285.66666666666663</ele><time>2026-04-19T13:42:03.913Z</time></trkpt><trkpt lat="45.3841907" lon="8.0629315"><ele>286.0</ele><time>2026-04-19T13:42:04.912Z</time></trkpt><trkpt lat="45.3841091" lon="8.0630161"><ele>286.0</ele><time>2026-04-19T13:42:05.912Z</time></trkpt><trkpt lat="45.3840243" lon="8.0631003"><ele>286.0</ele><time>2026-04-19T13:42:06.913Z</time></trkpt><trkpt lat="45.3839238" lon="8.0632011"><ele>286.0</ele><time>2026-04-19T13:42:07.912Z</time></trkpt><trkpt lat="45.3838171" lon="8.0633154"><ele>286.0</ele><time>2026-04-19T13:42:08.913Z</time></trkpt><trkpt lat="45.3837066" lon="8.0634431"><ele>285.25</ele><time>2026-04-19T13:42:09.913Z</time></trkpt><trkpt lat="45.383593" lon="8.0635725"><ele>284.5</ele><time>2026-04-19T13:42:10.914Z</time></trkpt><trkpt lat="45.3834752" lon="8.0637049"><ele>283.75</ele><time>2026-04-19T13:42:11.912Z</time></trkpt><trkpt lat="45.3833611" lon="8.0638332"><ele>283.0</ele><time>2026-04-19T13:42:12.912Z</time></trkpt><trkpt lat="45.3832436" lon="8.0639607"><ele>283.0</ele><time>2026-04-19T13:42:13.912Z</time></trkpt><trkpt lat="45.3831317" lon="8.0640804"><ele>283.0</ele><time>2026-04-19T13:42:14.913Z</time></trkpt><trkpt lat="45.383019" lon="8.0641869"><ele>283.0</ele><time>2026-04-19T13:42:15.912Z</time></trkpt><trkpt lat="45.3829158" lon="8.0642714"><ele>283.0</ele><time>2026-04-19T13:42:16.912Z</time></trkpt><trkpt lat="45.382812" lon="8.0643681"><ele>283.0</ele><time>2026-04-19T13:42:17.913Z</time></trkpt><trkpt lat="45.382711" lon="8.0644683"><ele>283.0</ele><time>2026-04-19T13:42:18.912Z</time></trkpt><trkpt lat="45.3826084" lon="8.0645747"><ele>283.0</ele><time>2026-04-19T13:42:19.914Z</time></trkpt><trkpt lat="45.3825055" lon="8.0646831"><ele>283.0</ele><time>2026-04-19T13:42:20.912Z</time></trkpt><trkpt lat="45.382403" lon="8.0647913"><ele>283.0</ele><time>2026-04-19T13:42:21.913Z</time></trkpt><trkpt lat="45.3822961" lon="8.0648944"><ele>283.0</ele><time>2026-04-19T13:42:22.913Z</time></trkpt><trkpt lat="45.3821905" lon="8.0649975"><ele>283.0</ele><time>2026-04-19T13:42:23.913Z</time></trkpt><trkpt lat="45.3820904" lon="8.065104"><ele>283.0</ele><time>2026-04-19T13:42:24.913Z</time></trkpt><trkpt lat="45.3819886" lon="8.0652143"><ele>282.25</ele><time>2026-04-19T13:42:25.912Z</time></trkpt><trkpt lat="45.3818869" lon="8.0653285"><ele>281.5</ele><time>2026-04-19T13:42:26.913Z</time></trkpt><trkpt lat="45.381781" lon="8.0654374"><ele>280.75</ele><time>2026-04-19T13:42:27.913Z</time></trkpt><trkpt lat="45.3816765" lon="8.0655495"><ele>280.0</ele><time>2026-04-19T13:42:28.912Z</time></trkpt><trkpt lat="45.3815815" lon="8.06566"><ele>280.0</ele><time>2026-04-19T13:42:29.914Z</time></trkpt><trkpt lat="45.3814908" lon="8.0657549"><ele>280.0</ele><time>2026-04-19T13:42:30.912Z</time></trkpt><trkpt lat="45.3814054" lon="8.0658422"><ele>280.0</ele><time>2026-04-19T13:42:31.913Z</time></trkpt><trkpt lat="45.3813361" lon="8.0659214"><ele>280.0</ele><time>2026-04-19T13:42:32.914Z</time></trkpt><trkpt lat="45.3812865" lon="8.0659915"><ele>280.0</ele><time>2026-04-19T13:42:33.912Z</time></trkpt><trkpt lat="45.3812528" lon="8.0660805"><ele>280.0</ele><time>2026-04-19T13:42:34.912Z</time></trkpt><trkpt lat="45.3812265" lon="8.0662057"><ele>279.0</ele><time>2026-04-19T13:42:35.912Z</time></trkpt><trkpt lat="45.3811965" lon="8.0663705"><ele>278.0</ele><time>2026-04-19T13:42:36.912Z</time></trkpt><trkpt lat="45.3811587" lon="8.0665543"><ele>277.0</ele><time>2026-04-19T13:42:37.913Z</time></trkpt><trkpt lat="45.3811259" lon="8.0667178"><ele>276.0</ele><time>2026-04-19T13:42:38.911Z</time></trkpt><trkpt lat="45.3810972" lon="8.0668535"><ele>276.0</ele><time>2026-04-19T13:42:39.912Z</time></trkpt><trkpt lat="45.3810747" lon="8.0669523"><ele>276.0</ele><time>2026-04-19T13:42:40.911Z</time></trkpt><trkpt lat="45.3810775" lon="8.0671162"><ele>276.0</ele><time>2026-04-19T13:42:42.911Z</time></trkpt><trkpt lat="45.3811996" lon="8.0672404"><ele>276.0</ele><time>2026-04-19T13:42:44.912Z</time></trkpt><trkpt lat="45.3812927" lon="8.067303"><ele>276.0</ele><time>2026-04-19T13:42:45.911Z</time></trkpt><trkpt lat="45.3813923" lon="8.0673539"><ele>276.0</ele><time>2026-04-19T13:42:46.912Z</time></trkpt><trkpt lat="45.3815134" lon="8.0674112"><ele>276.0</ele><time>2026-04-19T13:42:47.911Z</time></trkpt><trkpt lat="45.3816367" lon="8.0674735"><ele>276.0</ele><time>2026-04-19T13:42:48.912Z</time></trkpt><trkpt lat="45.3817602" lon="8.0675126"><ele>276.0</ele><time>2026-04-19T13:42:49.911Z</time></trkpt><trkpt lat="45.3818771" lon="8.0675314"><ele>276.0</ele><time>2026-04-19T13:42:50.911Z</time></trkpt><trkpt lat="45.3819827" lon="8.0675662"><ele>276.0</ele><time>2026-04-19T13:42:51.911Z</time></trkpt><trkpt lat="45.3820915" lon="8.0676217"><ele>276.0</ele><time>2026-04-19T13:42:52.911Z</time></trkpt><trkpt lat="45.3821851" lon="8.0676851"><ele>276.0</ele><time>2026-04-19T13:42:53.911Z</time></trkpt><trkpt lat="45.3822761" lon="8.0677698"><ele>276.0</ele><time>2026-04-19T13:42:54.911Z</time></trkpt><trkpt lat="45.3823576" lon="8.0678827"><ele>276.0</ele><time>2026-04-19T13:42:55.912Z</time></trkpt><trkpt lat="45.3824356" lon="8.0680207"><ele>276.0</ele><time>2026-04-19T13:42:56.911Z</time></trkpt><trkpt lat="45.3824977" lon="8.068163"><ele>276.0</ele><time>2026-04-19T13:42:57.912Z</time></trkpt><trkpt lat="45.3825596" lon="8.0682861"><ele>276.0</ele><time>2026-04-19T13:42:58.912Z</time></trkpt><trkpt lat="45.382615" lon="8.0683911"><ele>276.0</ele><time>2026-04-19T13:42:59.912Z</time></trkpt><trkpt lat="45.382654" lon="8.0684659"><ele>275.8333333333333</ele><time>2026-04-19T13:43:00.911Z</time></trkpt><trkpt lat="45.3826869" lon="8.0685638"><ele>275.6666666666667</ele><time>2026-04-19T13:43:06.912Z</time></trkpt><trkpt lat="45.3826555" lon="8.0686798"><ele>275.5</ele><time>2026-04-19T13:43:08.912Z</time></trkpt><trkpt lat="45.3825873" lon="8.0687351"><ele>275.33333333333337</ele><time>2026-04-19T13:43:09.912Z</time></trkpt><trkpt lat="45.3825149" lon="8.0687723"><ele>275.1666666666667</ele><time>2026-04-19T13:43:10.911Z</time></trkpt><trkpt lat="45.3824227" lon="8.0688213"><ele>275.0</ele><time>2026-04-19T13:43:11.911Z</time></trkpt><trkpt lat="45.3823227" lon="8.0688917"><ele>275.0</ele><time>2026-04-19T13:43:12.912Z</time></trkpt><trkpt lat="45.3822193" lon="8.0689713"><ele>275.0</ele><time>2026-04-19T13:43:13.912Z</time></trkpt><trkpt lat="45.3821192" lon="8.069055"><ele>275.0</ele><time>2026-04-19T13:43:14.911Z</time></trkpt><trkpt lat="45.3820157" lon="8.0691327"><ele>275.0</ele><time>2026-04-19T13:43:15.912Z</time></trkpt><trkpt lat="45.3819146" lon="8.0692072"><ele>274.75</ele><time>2026-04-19T13:43:16.912Z</time></trkpt><trkpt lat="45.3818095" lon="8.0692863"><ele>274.5</ele><time>2026-04-19T13:43:17.911Z</time></trkpt><trkpt lat="45.3817093" lon="8.0693592"><ele>274.25</ele><time>2026-04-19T13:43:18.912Z</time></trkpt><trkpt lat="45.3816083" lon="8.0694415"><ele>274.0</ele><time>2026-04-19T13:43:19.912Z</time></trkpt><trkpt lat="45.3815034" lon="8.0695136"><ele>274.0</ele><time>2026-04-19T13:43:20.912Z</time></trkpt><trkpt lat="45.3813994" lon="8.069593"><ele>274.0</ele><time>2026-04-19T13:43:21.912Z</time></trkpt><trkpt lat="45.3812955" lon="8.0696695"><ele>274.0</ele><time>2026-04-19T13:43:22.911Z</time></trkpt><trkpt lat="45.381197" lon="8.0697392"><ele>274.0</ele><time>2026-04-19T13:43:23.913Z</time></trkpt><trkpt lat="45.3811076" lon="8.069802"><ele>274.0</ele><time>2026-04-19T13:43:24.911Z</time></trkpt><trkpt lat="45.3810213" lon="8.06986"><ele>273.8</ele><time>2026-04-19T13:43:25.911Z</time></trkpt><trkpt lat="45.3809308" lon="8.0699064"><ele>273.59999999999997</ele><time>2026-04-19T13:43:26.911Z</time></trkpt><trkpt lat="45.3808316" lon="8.0699392"><ele>273.4</ele><time>2026-04-19T13:43:27.912Z</time></trkpt><trkpt lat="45.3807262" lon="8.0699621"><ele>273.2</ele><time>2026-04-19T13:43:28.911Z</time></trkpt><trkpt lat="45.3806175" lon="8.0699736"><ele>273.0</ele><time>2026-04-19T13:43:29.912Z</time></trkpt><trkpt lat="45.3805272" lon="8.0699788"><ele>273.2</ele><time>2026-04-19T13:43:30.912Z</time></trkpt><trkpt lat="45.3804551" lon="8.0699857"><ele>273.4</ele><time>2026-04-19T13:43:31.911Z</time></trkpt><trkpt lat="45.3803708" lon="8.0700527"><ele>273.59999999999997</ele><time>2026-04-19T13:43:33.912Z</time></trkpt><trkpt lat="45.3803263" lon="8.0702354"><ele>273.8</ele><time>2026-04-19T13:43:35.911Z</time></trkpt><trkpt lat="45.380304" lon="8.0703555"><ele>274.0</ele><time>2026-04-19T13:43:36.912Z</time></trkpt><trkpt lat="45.3802907" lon="8.070481"><ele>274.0</ele><time>2026-04-19T13:43:37.911Z</time></trkpt><trkpt lat="45.380288" lon="8.0706041"><ele>274.0</ele><time>2026-04-19T13:43:38.911Z</time></trkpt><trkpt lat="45.3802769" lon="8.0707539"><ele>274.0</ele><time>2026-04-19T13:43:39.911Z</time></trkpt><trkpt lat="45.3802413" lon="8.070917"><ele>274.0</ele><time>2026-04-19T13:43:40.912Z</time></trkpt><trkpt lat="45.3802033" lon="8.0710725"><ele>274.0</ele><time>2026-04-19T13:43:41.912Z</time></trkpt><trkpt lat="45.3801636" lon="8.071229"><ele>273.59999999999997</ele><time>2026-04-19T13:43:42.911Z</time></trkpt><trkpt lat="45.3801249" lon="8.0713767"><ele>273.2</ele><time>2026-04-19T13:43:43.912Z</time></trkpt><trkpt lat="45.380091" lon="8.071514"><ele>272.79999999999995</ele><time>2026-04-19T13:43:44.911Z</time></trkpt><trkpt lat="45.3800544" lon="8.071655"><ele>272.4</ele><time>2026-04-19T13:43:45.913Z</time></trkpt><trkpt lat="45.3800202" lon="8.071807"><ele>272.0</ele><time>2026-04-19T13:43:46.912Z</time></trkpt><trkpt lat="45.3799865" lon="8.071964"><ele>271.0</ele><time>2026-04-19T13:43:47.911Z</time></trkpt><trkpt lat="45.3799524" lon="8.0721286"><ele>270.0</ele><time>2026-04-19T13:43:48.912Z</time></trkpt><trkpt lat="45.3799183" lon="8.0722956"><ele>269.0</ele><time>2026-04-19T13:43:49.911Z</time></trkpt><trkpt lat="45.379885" lon="8.0724607"><ele>268.0</ele><time>2026-04-19T13:43:50.912Z</time></trkpt><trkpt lat="45.3798509" lon="8.0726284"><ele>267.75</ele><time>2026-04-19T13:43:51.911Z</time></trkpt><trkpt lat="45.3798109" lon="8.072797"><ele>267.5</ele><time>2026-04-19T13:43:52.911Z</time></trkpt><trkpt lat="45.3797716" lon="8.0729685"><ele>267.25</ele><time>2026-04-19T13:43:53.911Z</time></trkpt><trkpt lat="45.3797317" lon="8.0731429"><ele>267.0</ele><time>2026-04-19T13:43:54.913Z</time></trkpt><trkpt lat="45.3796931" lon="8.0733212"><ele>267.0</ele><time>2026-04-19T13:43:55.911Z</time></trkpt><trkpt lat="45.3796535" lon="8.0735014"><ele>267.0</ele><time>2026-04-19T13:43:56.913Z</time></trkpt><trkpt lat="45.379614" lon="8.0736837"><ele>267.0</ele><time>2026-04-19T13:43:57.911Z</time></trkpt><trkpt lat="45.3795768" lon="8.0738615"><ele>267.0</ele><time>2026-04-19T13:43:58.912Z</time></trkpt><trkpt lat="45.3795419" lon="8.0740241"><ele>266.8</ele><time>2026-04-19T13:43:59.911Z</time></trkpt><trkpt lat="45.3795097" lon="8.0741665"><ele>266.6</ele><time>2026-04-19T13:44:00.913Z</time></trkpt><trkpt lat="45.3794851" lon="8.0742764"><ele>266.40000000000003</ele><time>2026-04-19T13:44:01.911Z</time></trkpt><trkpt lat="45.3794768" lon="8.0744051"><ele>266.2</ele><time>2026-04-19T13:44:03.912Z</time></trkpt><trkpt lat="45.3795774" lon="8.0745175"><ele>266.0</ele><time>2026-04-19T13:44:05.911Z</time></trkpt><trkpt lat="45.3796606" lon="8.0745835"><ele>266.0</ele><time>2026-04-19T13:44:06.911Z</time></trkpt><trkpt lat="45.3797493" lon="8.0746593"><ele>266.0</ele><time>2026-04-19T13:44:07.912Z</time></trkpt><trkpt lat="45.3798391" lon="8.074748"><ele>266.0</ele><time>2026-04-19T13:44:08.911Z</time></trkpt><trkpt lat="45.3799324" lon="8.0748473"><ele>266.0</ele><time>2026-04-19T13:44:09.912Z</time></trkpt><trkpt lat="45.3800336" lon="8.0749515"><ele>266.0</ele><time>2026-04-19T13:44:10.911Z</time></trkpt><trkpt lat="45.3801353" lon="8.0750488"><ele>266.0</ele><time>2026-04-19T13:44:11.911Z</time></trkpt><trkpt lat="45.380235" lon="8.0751348"><ele>266.0</ele><time>2026-04-19T13:44:12.911Z</time></trkpt><trkpt lat="45.3803389" lon="8.0752076"><ele>266.0</ele><time>2026-04-19T13:44:13.912Z</time></trkpt><trkpt lat="45.3804412" lon="8.0752849"><ele>266.2</ele><time>2026-04-19T13:44:14.912Z</time></trkpt><trkpt lat="45.3805373" lon="8.0753799"><ele>266.40000000000003</ele><time>2026-04-19T13:44:15.911Z</time></trkpt><trkpt lat="45.3806306" lon="8.0754804"><ele>266.6</ele><time>2026-04-19T13:44:16.912Z</time></trkpt><trkpt lat="45.3807153" lon="8.0755618"><ele>266.8</ele><time>2026-04-19T13:44:17.911Z</time></trkpt><trkpt lat="45.3807832" lon="8.0756202"><ele>267.0</ele><time>2026-04-19T13:44:18.912Z</time></trkpt><trkpt lat="45.3808665" lon="8.0757215"><ele>266.8</ele><time>2026-04-19T13:44:20.912Z</time></trkpt><trkpt lat="45.3808677" lon="8.0758548"><ele>266.6</ele><time>2026-04-19T13:44:22.911Z</time></trkpt><trkpt lat="45.3808296" lon="8.0759426"><ele>266.40000000000003</ele><time>2026-04-19T13:44:23.911Z</time></trkpt><trkpt lat="45.3807739" lon="8.0760456"><ele>266.2</ele><time>2026-04-19T13:44:24.911Z</time></trkpt><trkpt lat="45.3807107" lon="8.0761654"><ele>266.0</ele><time>2026-04-19T13:44:25.911Z</time></trkpt><trkpt lat="45.3806414" lon="8.0763045"><ele>266.0</ele><time>2026-04-19T13:44:26.911Z</time></trkpt><trkpt lat="45.380564" lon="8.0764616"><ele>266.0</ele><time>2026-04-19T13:44:27.911Z</time></trkpt><trkpt lat="45.3804731" lon="8.0766251"><ele>266.0</ele><time>2026-04-19T13:44:28.911Z</time></trkpt><trkpt lat="45.3803825" lon="8.0767901"><ele>266.0</ele><time>2026-04-19T13:44:29.912Z</time></trkpt><trkpt lat="45.3803065" lon="8.076959"><ele>265.75</ele><time>2026-04-19T13:44:30.911Z</time></trkpt><trkpt lat="45.3802516" lon="8.077129"><ele>265.5</ele><time>2026-04-19T13:44:31.912Z</time></trkpt><trkpt lat="45.3801943" lon="8.0772965"><ele>265.25</ele><time>2026-04-19T13:44:32.912Z</time></trkpt><trkpt lat="45.3801213" lon="8.0774567"><ele>265.0</ele><time>2026-04-19T13:44:33.912Z</time></trkpt><trkpt lat="45.3800427" lon="8.0776063"><ele>264.5</ele><time>2026-04-19T13:44:34.912Z</time></trkpt><trkpt lat="45.3799549" lon="8.0777594"><ele>264.0</ele><time>2026-04-19T13:44:35.912Z</time></trkpt><trkpt lat="45.3798476" lon="8.0779198"><ele>263.5</ele><time>2026-04-19T13:44:36.911Z</time></trkpt><trkpt lat="45.3797557" lon="8.0780828"><ele>263.0</ele><time>2026-04-19T13:44:37.913Z</time></trkpt><trkpt lat="45.3796575" lon="8.0782527"><ele>262.5</ele><time>2026-04-19T13:44:38.912Z</time></trkpt><trkpt lat="45.3795728" lon="8.0784184"><ele>262.0</ele><time>2026-04-19T13:44:39.911Z</time></trkpt><trkpt lat="45.3795013" lon="8.0785668"><ele>261.5</ele><time>2026-04-19T13:44:40.911Z</time></trkpt><trkpt lat="45.3794146" lon="8.0787367"><ele>261.0</ele><time>2026-04-19T13:44:41.913Z</time></trkpt><trkpt lat="45.3793238" lon="8.0788981"><ele>261.0</ele><time>2026-04-19T13:44:42.911Z</time></trkpt><trkpt lat="45.379239" lon="8.0790564"><ele>261.0</ele><time>2026-04-19T13:44:43.911Z</time></trkpt><trkpt lat="45.3791528" lon="8.0792116"><ele>261.0</ele><time>2026-04-19T13:44:44.912Z</time></trkpt><trkpt lat="45.3790664" lon="8.0793752"><ele>261.0</ele><time>2026-04-19T13:44:45.911Z</time></trkpt><trkpt lat="45.3789785" lon="8.0795465"><ele>261.0</ele><time>2026-04-19T13:44:46.913Z</time></trkpt><trkpt lat="45.3788849" lon="8.0797225"><ele>261.0</ele><time>2026-04-19T13:44:47.912Z</time></trkpt><trkpt lat="45.3788034" lon="8.0798895"><ele>261.0</ele><time>2026-04-19T13:44:48.912Z</time></trkpt><trkpt lat="45.3787259" lon="8.0800575"><ele>261.0</ele><time>2026-04-19T13:44:49.911Z</time></trkpt><trkpt lat="45.3786568" lon="8.0802183"><ele>260.5</ele><time>2026-04-19T13:44:50.911Z</time></trkpt><trkpt lat="45.3785744" lon="8.0803749"><ele>260.0</ele><time>2026-04-19T13:44:51.911Z</time></trkpt><trkpt lat="45.3785129" lon="8.0805148"><ele>259.5</ele><time>2026-04-19T13:44:52.911Z</time></trkpt><trkpt lat="45.3784528" lon="8.080646"><ele>259.0</ele><time>2026-04-19T13:44:53.911Z</time></trkpt><trkpt lat="45.3783936" lon="8.0807716"><ele>258.8</ele><time>2026-04-19T13:44:54.911Z</time></trkpt><trkpt lat="45.3783456" lon="8.0809072"><ele>258.59999999999997</ele><time>2026-04-19T13:44:55.912Z</time></trkpt><trkpt lat="45.3782997" lon="8.0810565"><ele>258.4</ele><time>2026-04-19T13:44:56.911Z</time></trkpt><trkpt lat="45.3782607" lon="8.0812"><ele>258.2</ele><time>2026-04-19T13:44:57.911Z</time></trkpt><trkpt lat="45.3782217" lon="8.0813494"><ele>258.0</ele><time>2026-04-19T13:44:58.911Z</time></trkpt><trkpt lat="45.3781683" lon="8.0815225"><ele>257.5</ele><time>2026-04-19T13:44:59.911Z</time></trkpt><trkpt lat="45.3781264" lon="8.081694"><ele>257.0</ele><time>2026-04-19T13:45:00.912Z</time></trkpt><trkpt lat="45.3780763" lon="8.0818751"><ele>256.5</ele><time>2026-04-19T13:45:01.911Z</time></trkpt><trkpt lat="45.3780227" lon="8.0820559"><ele>256.0</ele><time>2026-04-19T13:45:02.912Z</time></trkpt><trkpt lat="45.3779678" lon="8.082245"><ele>255.25</ele><time>2026-04-19T13:45:03.911Z</time></trkpt><trkpt lat="45.3779118" lon="8.0824347"><ele>254.5</ele><time>2026-04-19T13:45:04.912Z</time></trkpt><trkpt lat="45.3778602" lon="8.0826257"><ele>253.75</ele><time>2026-04-19T13:45:05.911Z</time></trkpt><trkpt lat="45.3778089" lon="8.0828148"><ele>253.0</ele><time>2026-04-19T13:45:06.913Z</time></trkpt><trkpt lat="45.377756" lon="8.0830068"><ele>253.0</ele><time>2026-04-19T13:45:07.912Z</time></trkpt><trkpt lat="45.3777091" lon="8.0831949"><ele>253.0</ele><time>2026-04-19T13:45:08.912Z</time></trkpt><trkpt lat="45.3776649" lon="8.0833725"><ele>253.0</ele><time>2026-04-19T13:45:09.911Z</time></trkpt><trkpt lat="45.3776118" lon="8.0835497"><ele>253.0</ele><time>2026-04-19T13:45:10.912Z</time></trkpt><trkpt lat="45.3775602" lon="8.0837234"><ele>253.0</ele><time>2026-04-19T13:45:11.911Z</time></trkpt><trkpt lat="45.3775128" lon="8.0838973"><ele>253.0</ele><time>2026-04-19T13:45:12.912Z</time></trkpt><trkpt lat="45.3774698" lon="8.0840678"><ele>253.0</ele><time>2026-04-19T13:45:13.911Z</time></trkpt><trkpt lat="45.3774281" lon="8.0842412"><ele>253.0</ele><time>2026-04-19T13:45:14.913Z</time></trkpt><trkpt lat="45.377384" lon="8.0844236"><ele>252.5</ele><time>2026-04-19T13:45:15.912Z</time></trkpt><trkpt lat="45.3773342" lon="8.0846088"><ele>252.0</ele><time>2026-04-19T13:45:16.911Z</time></trkpt><trkpt lat="45.3772819" lon="8.0847956"><ele>251.5</ele><time>2026-04-19T13:45:17.913Z</time></trkpt><trkpt lat="45.3772289" lon="8.0849812"><ele>251.0</ele><time>2026-04-19T13:45:18.912Z</time></trkpt><trkpt lat="45.3771725" lon="8.0851657"><ele>250.75</ele><time>2026-04-19T13:45:19.911Z</time></trkpt><trkpt lat="45.377118" lon="8.0853525"><ele>250.5</ele><time>2026-04-19T13:45:20.912Z</time></trkpt><trkpt lat="45.3770654" lon="8.0855424"><ele>250.25</ele><time>2026-04-19T13:45:21.912Z</time></trkpt><trkpt lat="45.3770175" lon="8.0857352"><ele>250.0</ele><time>2026-04-19T13:45:22.911Z</time></trkpt><trkpt lat="45.3769724" lon="8.0859278"><ele>249.75</ele><time>2026-04-19T13:45:23.912Z</time></trkpt><trkpt lat="45.3769257" lon="8.0861136"><ele>249.5</ele><time>2026-04-19T13:45:24.912Z</time></trkpt><trkpt lat="45.3768844" lon="8.0862917"><ele>249.25</ele><time>2026-04-19T13:45:25.911Z</time></trkpt><trkpt lat="45.3768492" lon="8.086463"><ele>249.0</ele><time>2026-04-19T13:45:26.911Z</time></trkpt><trkpt lat="45.3768137" lon="8.0866304"><ele>248.75</ele><time>2026-04-19T13:45:27.912Z</time></trkpt><trkpt lat="45.3767769" lon="8.086799"><ele>248.5</ele><time>2026-04-19T13:45:28.912Z</time></trkpt><trkpt lat="45.3767405" lon="8.0869755"><ele>248.25</ele><time>2026-04-19T13:45:29.912Z</time></trkpt><trkpt lat="45.3767043" lon="8.0871551"><ele>248.0</ele><time>2026-04-19T13:45:30.911Z</time></trkpt><trkpt lat="45.3766675" lon="8.0873382"><ele>248.25</ele><time>2026-04-19T13:45:31.911Z</time></trkpt><trkpt lat="45.3766261" lon="8.087521"><ele>248.5</ele><time>2026-04-19T13:45:32.912Z</time></trkpt><trkpt lat="45.3765858" lon="8.0877079"><ele>248.75</ele><time>2026-04-19T13:45:33.912Z</time></trkpt><trkpt lat="45.376548" lon="8.0878998"><ele>249.0</ele><time>2026-04-19T13:45:34.912Z</time></trkpt><trkpt lat="45.3765083" lon="8.0880949"><ele>248.5</ele><time>2026-04-19T13:45:35.912Z</time></trkpt><trkpt lat="45.3764672" lon="8.0882874"><ele>248.0</ele><time>2026-04-19T13:45:36.911Z</time></trkpt><trkpt lat="45.3764273" lon="8.0884784"><ele>247.5</ele><time>2026-04-19T13:45:37.911Z</time></trkpt><trkpt lat="45.3763881" lon="8.0886637"><ele>247.0</ele><time>2026-04-19T13:45:38.912Z</time></trkpt><trkpt lat="45.3763532" lon="8.0888199"><ele>246.8</ele><time>2026-04-19T13:45:39.911Z</time></trkpt><trkpt lat="45.3763254" lon="8.0889358"><ele>246.6</ele><time>2026-04-19T13:45:40.911Z</time></trkpt><trkpt lat="45.3762996" lon="8.0890806"><ele>246.40000000000003</ele><time>2026-04-19T13:45:42.911Z</time></trkpt><trkpt lat="45.3763763" lon="8.0892082"><ele>246.20000000000002</ele><time>2026-04-19T13:45:44.911Z</time></trkpt><trkpt lat="45.3764473" lon="8.0892476"><ele>246.0</ele><time>2026-04-19T13:45:45.913Z</time></trkpt><trkpt lat="45.3765284" lon="8.08928"><ele>245.75</ele><time>2026-04-19T13:45:46.911Z</time></trkpt><trkpt lat="45.3766182" lon="8.0893274"><ele>245.5</ele><time>2026-04-19T13:45:47.911Z</time></trkpt><trkpt lat="45.3767214" lon="8.0893909"><ele>245.25</ele><time>2026-04-19T13:45:48.912Z</time></trkpt><trkpt lat="45.3768332" lon="8.0894492"><ele>245.0</ele><time>2026-04-19T13:45:49.911Z</time></trkpt><trkpt lat="45.3769646" lon="8.0895186"><ele>245.0</ele><time>2026-04-19T13:45:50.913Z</time></trkpt><trkpt lat="45.377101" lon="8.089599"><ele>245.0</ele><time>2026-04-19T13:45:51.911Z</time></trkpt><trkpt lat="45.3772377" lon="8.0896813"><ele>245.0</ele><time>2026-04-19T13:45:52.911Z</time></trkpt><trkpt lat="45.3773783" lon="8.08976"><ele>245.0</ele><time>2026-04-19T13:45:53.912Z</time></trkpt><trkpt lat="45.3775117" lon="8.089841"><ele>245.0</ele><time>2026-04-19T13:45:54.911Z</time></trkpt><trkpt lat="45.3776419" lon="8.0899207"><ele>245.0</ele><time>2026-04-19T13:45:55.911Z</time></trkpt><trkpt lat="45.3777912" lon="8.0900121"><ele>245.0</ele><time>2026-04-19T13:45:56.912Z</time></trkpt><trkpt lat="45.3779292" lon="8.090096"><ele>245.0</ele><time>2026-04-19T13:45:57.911Z</time></trkpt><trkpt lat="45.3780754" lon="8.0901805"><ele>245.0</ele><time>2026-04-19T13:45:58.912Z</time></trkpt><trkpt lat="45.3782199" lon="8.090261"><ele>245.0</ele><time>2026-04-19T13:45:59.911Z</time></trkpt><trkpt lat="45.378367" lon="8.0903431"><ele>245.0</ele><time>2026-04-19T13:46:00.911Z</time></trkpt><trkpt lat="45.3785089" lon="8.0904294"><ele>245.0</ele><time>2026-04-19T13:46:01.911Z</time></trkpt><trkpt lat="45.3786398" lon="8.0905214"><ele>245.0</ele><time>2026-04-19T13:46:02.912Z</time></trkpt><trkpt lat="45.3787643" lon="8.0906155"><ele>245.0</ele><time>2026-04-19T13:46:03.911Z</time></trkpt><trkpt lat="45.3789" lon="8.0907076"><ele>243.66666666666669</ele><time>2026-04-19T13:46:04.912Z</time></trkpt><trkpt lat="45.379041" lon="8.0908021"><ele>242.33333333333331</ele><time>2026-04-19T13:46:05.912Z</time></trkpt><trkpt lat="45.3791775" lon="8.0908893"><ele>241.0</ele><time>2026-04-19T13:46:06.911Z</time></trkpt><trkpt lat="45.3793183" lon="8.0909891"><ele>241.0</ele><time>2026-04-19T13:46:07.911Z</time></trkpt><trkpt lat="45.3794547" lon="8.0910788"><ele>241.0</ele><time>2026-04-19T13:46:08.911Z</time></trkpt><trkpt lat="45.3795741" lon="8.0911544"><ele>241.0</ele><time>2026-04-19T13:46:09.912Z</time></trkpt><trkpt lat="45.3796774" lon="8.0912227"><ele>241.0</ele><time>2026-04-19T13:46:10.912Z</time></trkpt><trkpt lat="45.379765" lon="8.0912796"><ele>241.60000000000002</ele><time>2026-04-19T13:46:11.912Z</time></trkpt><trkpt lat="45.3798354" lon="8.0913256"><ele>242.20000000000002</ele><time>2026-04-19T13:46:12.911Z</time></trkpt><trkpt lat="45.3799256" lon="8.0914303"><ele>242.79999999999998</ele><time>2026-04-19T13:46:14.912Z</time></trkpt><trkpt lat="45.3799391" lon="8.0915925"><ele>243.39999999999998</ele><time>2026-04-19T13:46:16.912Z</time></trkpt><trkpt lat="45.3799131" lon="8.0916863"><ele>244.0</ele><time>2026-04-19T13:46:17.912Z</time></trkpt><trkpt lat="45.3798771" lon="8.091799"><ele>244.25</ele><time>2026-04-19T13:46:18.912Z</time></trkpt><trkpt lat="45.3798247" lon="8.0919274"><ele>244.5</ele><time>2026-04-19T13:46:19.911Z</time></trkpt><trkpt lat="45.3797761" lon="8.0920697"><ele>244.75</ele><time>2026-04-19T13:46:20.911Z</time></trkpt><trkpt lat="45.3797246" lon="8.0922317"><ele>245.0</ele><time>2026-04-19T13:46:21.911Z</time></trkpt><trkpt lat="45.3796652" lon="8.0924073"><ele>242.5</ele><time>2026-04-19T13:46:22.912Z</time></trkpt><trkpt lat="45.3796105" lon="8.0925819"><ele>240.0</ele><time>2026-04-19T13:46:23.911Z</time></trkpt><trkpt lat="45.3795474" lon="8.0927824"><ele>237.5</ele><time>2026-04-19T13:46:24.912Z</time></trkpt><trkpt lat="45.379482" lon="8.0929846"><ele>235.0</ele><time>2026-04-19T13:46:25.912Z</time></trkpt><trkpt lat="45.3794175" lon="8.0931939"><ele>237.0</ele><time>2026-04-19T13:46:26.911Z</time></trkpt><trkpt lat="45.3793537" lon="8.093394"><ele>239.0</ele><time>2026-04-19T13:46:27.912Z</time></trkpt><trkpt lat="45.3792877" lon="8.0936026"><ele>241.0</ele><time>2026-04-19T13:46:28.911Z</time></trkpt><trkpt lat="45.3792197" lon="8.0938219"><ele>241.0</ele><time>2026-04-19T13:46:29.911Z</time></trkpt><trkpt lat="45.3791506" lon="8.0940384"><ele>241.0</ele><time>2026-04-19T13:46:30.911Z</time></trkpt><trkpt lat="45.3790817" lon="8.0942535"><ele>241.0</ele><time>2026-04-19T13:46:31.911Z</time></trkpt><trkpt lat="45.3790132" lon="8.0944699"><ele>241.33333333333331</ele><time>2026-04-19T13:46:32.911Z</time></trkpt><trkpt lat="45.3789453" lon="8.0946847"><ele>241.66666666666669</ele><time>2026-04-19T13:46:33.913Z</time></trkpt><trkpt lat="45.3788801" lon="8.0948867"><ele>242.0</ele><time>2026-04-19T13:46:34.911Z</time></trkpt><trkpt lat="45.378813" lon="8.0951026"><ele>242.0</ele><time>2026-04-19T13:46:35.912Z</time></trkpt><trkpt lat="45.3787417" lon="8.0953358"><ele>242.0</ele><time>2026-04-19T13:46:36.912Z</time></trkpt><trkpt lat="45.3786701" lon="8.0955632"><ele>242.0</ele><time>2026-04-19T13:46:37.912Z</time></trkpt><trkpt lat="45.3785971" lon="8.0958115"><ele>241.33333333333334</ele><time>2026-04-19T13:46:38.911Z</time></trkpt><trkpt lat="45.3785198" lon="8.0960627"><ele>240.66666666666669</ele><time>2026-04-19T13:46:39.911Z</time></trkpt><trkpt lat="45.3784337" lon="8.0963285"><ele>240.0</ele><time>2026-04-19T13:46:40.911Z</time></trkpt><trkpt lat="45.3783512" lon="8.0965984"><ele>239.0</ele><time>2026-04-19T13:46:41.912Z</time></trkpt><trkpt lat="45.3782676" lon="8.0968697"><ele>238.0</ele><time>2026-04-19T13:46:42.913Z</time></trkpt><trkpt lat="45.3781862" lon="8.0971384"><ele>237.0</ele><time>2026-04-19T13:46:43.912Z</time></trkpt><trkpt lat="45.3781058" lon="8.0974008"><ele>237.0</ele><time>2026-04-19T13:46:44.912Z</time></trkpt><trkpt lat="45.3780244" lon="8.0976614"><ele>237.0</ele><time>2026-04-19T13:46:45.911Z</time></trkpt><trkpt lat="45.3779443" lon="8.0979257"><ele>237.0</ele><time>2026-04-19T13:46:46.913Z</time></trkpt><trkpt lat="45.377862" lon="8.0981908"><ele>237.33333333333331</ele><time>2026-04-19T13:46:47.911Z</time></trkpt><trkpt lat="45.3777795" lon="8.0984575"><ele>237.66666666666666</ele><time>2026-04-19T13:46:48.911Z</time></trkpt><trkpt lat="45.3776969" lon="8.0987302"><ele>238.0</ele><time>2026-04-19T13:46:49.912Z</time></trkpt><trkpt lat="45.3776141" lon="8.0990013"><ele>238.33333333333331</ele><time>2026-04-19T13:46:50.911Z</time></trkpt><trkpt lat="45.3775302" lon="8.0992681"><ele>238.66666666666669</ele><time>2026-04-19T13:46:51.912Z</time></trkpt><trkpt lat="45.3774493" lon="8.0995339"><ele>239.0</ele><time>2026-04-19T13:46:52.912Z</time></trkpt><trkpt lat="45.3773673" lon="8.0998029"><ele>238.66666666666669</ele><time>2026-04-19T13:46:53.911Z</time></trkpt><trkpt lat="45.3772852" lon="8.1000744"><ele>238.33333333333331</ele><time>2026-04-19T13:46:54.911Z</time></trkpt><trkpt lat="45.3771983" lon="8.1003466"><ele>238.0</ele><time>2026-04-19T13:46:55.911Z</time></trkpt><trkpt lat="45.377114" lon="8.1006216"><ele>236.33333333333331</ele><time>2026-04-19T13:46:56.911Z</time></trkpt><trkpt lat="45.3770292" lon="8.1009004"><ele>234.66666666666669</ele><time>2026-04-19T13:46:57.912Z</time></trkpt><trkpt lat="45.3769394" lon="8.1011777"><ele>233.0</ele><time>2026-04-19T13:46:58.912Z</time></trkpt><trkpt lat="45.3768518" lon="8.1014626"><ele>232.66666666666669</ele><time>2026-04-19T13:46:59.911Z</time></trkpt><trkpt lat="45.3767634" lon="8.1017491"><ele>232.33333333333331</ele><time>2026-04-19T13:47:00.912Z</time></trkpt><trkpt lat="45.3766703" lon="8.1020414"><ele>232.0</ele><time>2026-04-19T13:47:01.912Z</time></trkpt><trkpt lat="45.3765796" lon="8.1023333"><ele>231.66666666666666</ele><time>2026-04-19T13:47:02.912Z</time></trkpt><trkpt lat="45.3764907" lon="8.1026256"><ele>231.33333333333331</ele><time>2026-04-19T13:47:03.911Z</time></trkpt><trkpt lat="45.3764008" lon="8.1029162"><ele>231.0</ele><time>2026-04-19T13:47:04.911Z</time></trkpt><trkpt lat="45.3763095" lon="8.1032077"><ele>230.0</ele><time>2026-04-19T13:47:05.911Z</time></trkpt><trkpt lat="45.3762177" lon="8.1035007"><ele>229.0</ele><time>2026-04-19T13:47:06.911Z</time></trkpt><trkpt lat="45.3761255" lon="8.1037968"><ele>229.0</ele><time>2026-04-19T13:47:07.911Z</time></trkpt><trkpt lat="45.3760341" lon="8.1040946"><ele>229.0</ele><time>2026-04-19T13:47:08.912Z</time></trkpt><trkpt lat="45.3759431" lon="8.1043931"><ele>229.0</ele><time>2026-04-19T13:47:09.911Z</time></trkpt><trkpt lat="45.3758516" lon="8.1046919"><ele>229.0</ele><time>2026-04-19T13:47:10.911Z</time></trkpt><trkpt lat="45.375758" lon="8.1049915"><ele>229.33333333333331</ele><time>2026-04-19T13:47:11.913Z</time></trkpt><trkpt lat="45.3756658" lon="8.1052845"><ele>229.66666666666669</ele><time>2026-04-19T13:47:12.912Z</time></trkpt><trkpt lat="45.3755826" lon="8.1055525"><ele>230.0</ele><time>2026-04-19T13:47:13.911Z</time></trkpt><trkpt lat="45.3755071" lon="8.1057947"><ele>228.66666666666669</ele><time>2026-04-19T13:47:14.911Z</time></trkpt><trkpt lat="45.3754401" lon="8.1060234"><ele>227.33333333333331</ele><time>2026-04-19T13:47:15.912Z</time></trkpt><trkpt lat="45.3753745" lon="8.1062355"><ele>226.0</ele><time>2026-04-19T13:47:16.911Z</time></trkpt><trkpt lat="45.3753115" lon="8.1064361"><ele>226.25</ele><time>2026-04-19T13:47:17.911Z</time></trkpt><trkpt lat="45.3752497" lon="8.106635"><ele>226.5</ele><time>2026-04-19T13:47:18.911Z</time></trkpt><trkpt lat="45.3751907" lon="8.1068301"><ele>226.75</ele><time>2026-04-19T13:47:19.911Z</time></trkpt><trkpt lat="45.3751362" lon="8.1070142"><ele>227.0</ele><time>2026-04-19T13:47:20.912Z</time></trkpt><trkpt lat="45.3750862" lon="8.1072033"><ele>227.0</ele><time>2026-04-19T13:47:21.912Z</time></trkpt><trkpt lat="45.375029" lon="8.1073857"><ele>227.0</ele><time>2026-04-19T13:47:22.911Z</time></trkpt><trkpt lat="45.374972" lon="8.1075626"><ele>227.0</ele><time>2026-04-19T13:47:23.911Z</time></trkpt><trkpt lat="45.3749142" lon="8.1077406"><ele>227.0</ele><time>2026-04-19T13:47:24.912Z</time></trkpt><trkpt lat="45.3748565" lon="8.1079226"><ele>226.75</ele><time>2026-04-19T13:47:25.912Z</time></trkpt><trkpt lat="45.3747985" lon="8.1081048"><ele>226.5</ele><time>2026-04-19T13:47:26.912Z</time></trkpt><trkpt lat="45.3747425" lon="8.108287"><ele>226.25</ele><time>2026-04-19T13:47:27.911Z</time></trkpt><trkpt lat="45.3746838" lon="8.1084735"><ele>226.0</ele><time>2026-04-19T13:47:28.912Z</time></trkpt><trkpt lat="45.3746219" lon="8.1086571"><ele>225.5</ele><time>2026-04-19T13:47:29.912Z</time></trkpt><trkpt lat="45.3745647" lon="8.1088432"><ele>225.0</ele><time>2026-04-19T13:47:30.912Z</time></trkpt><trkpt lat="45.3745074" lon="8.1090339"><ele>224.5</ele><time>2026-04-19T13:47:31.912Z</time></trkpt><trkpt lat="45.3744468" lon="8.1092237"><ele>224.0</ele><time>2026-04-19T13:47:32.912Z</time></trkpt><trkpt lat="45.3743886" lon="8.1094163"><ele>223.66666666666669</ele><time>2026-04-19T13:47:33.911Z</time></trkpt><trkpt lat="45.3743298" lon="8.1096123"><ele>223.33333333333331</ele><time>2026-04-19T13:47:34.912Z</time></trkpt><trkpt lat="45.3742701" lon="8.10981"><ele>223.0</ele><time>2026-04-19T13:47:35.911Z</time></trkpt><trkpt lat="45.3742088" lon="8.1100068"><ele>223.0</ele><time>2026-04-19T13:47:36.911Z</time></trkpt><trkpt lat="45.3741466" lon="8.110205"><ele>223.0</ele><time>2026-04-19T13:47:37.911Z</time></trkpt><trkpt lat="45.3740844" lon="8.110405"><ele>223.0</ele><time>2026-04-19T13:47:38.912Z</time></trkpt><trkpt lat="45.3740236" lon="8.1106024"><ele>222.75</ele><time>2026-04-19T13:47:39.911Z</time></trkpt><trkpt lat="45.3739636" lon="8.1107978"><ele>222.5</ele><time>2026-04-19T13:47:40.911Z</time></trkpt><trkpt lat="45.3739025" lon="8.1109915"><ele>222.25</ele><time>2026-04-19T13:47:41.911Z</time></trkpt><trkpt lat="45.3738417" lon="8.1111849"><ele>222.0</ele><time>2026-04-19T13:47:42.911Z</time></trkpt><trkpt lat="45.3737812" lon="8.1113821"><ele>221.75</ele><time>2026-04-19T13:47:43.911Z</time></trkpt><trkpt lat="45.373725" lon="8.1115623"><ele>221.5</ele><time>2026-04-19T13:47:44.912Z</time></trkpt><trkpt lat="45.3736713" lon="8.1117324"><ele>221.25</ele><time>2026-04-19T13:47:45.911Z</time></trkpt><trkpt lat="45.3736173" lon="8.1119049"><ele>221.0</ele><time>2026-04-19T13:47:46.911Z</time></trkpt><trkpt lat="45.3735635" lon="8.1120709"><ele>220.75</ele><time>2026-04-19T13:47:47.913Z</time></trkpt><trkpt lat="45.3735137" lon="8.1122374"><ele>220.5</ele><time>2026-04-19T13:47:48.911Z</time></trkpt><trkpt lat="45.3734659" lon="8.1123952"><ele>220.25</ele><time>2026-04-19T13:47:49.911Z</time></trkpt><trkpt lat="45.3734134" lon="8.1125569"><ele>220.0</ele><time>2026-04-19T13:47:50.911Z</time></trkpt><trkpt lat="45.3733641" lon="8.1127142"><ele>219.75</ele><time>2026-04-19T13:47:51.911Z</time></trkpt><trkpt lat="45.373317" lon="8.1128709"><ele>219.5</ele><time>2026-04-19T13:47:52.912Z</time></trkpt><trkpt lat="45.3732738" lon="8.1130137"><ele>219.25</ele><time>2026-04-19T13:47:53.911Z</time></trkpt><trkpt lat="45.3732268" lon="8.1131634"><ele>219.0</ele><time>2026-04-19T13:47:54.911Z</time></trkpt><trkpt lat="45.3731772" lon="8.1133139"><ele>218.75</ele><time>2026-04-19T13:47:55.912Z</time></trkpt><trkpt lat="45.3731269" lon="8.1134677"><ele>218.5</ele><time>2026-04-19T13:47:56.911Z</time></trkpt><trkpt lat="45.3730764" lon="8.113626"><ele>218.25</ele><time>2026-04-19T13:47:57.911Z</time></trkpt><trkpt lat="45.3730346" lon="8.1137718"><ele>218.0</ele><time>2026-04-19T13:47:58.911Z</time></trkpt><trkpt lat="45.3729889" lon="8.113927"><ele>217.83333333333334</ele><time>2026-04-19T13:47:59.91Z</time></trkpt><trkpt lat="45.3729468" lon="8.1140653"><ele>217.66666666666669</ele><time>2026-04-19T13:48:00.912Z</time></trkpt><trkpt lat="45.3729099" lon="8.1141899"><ele>217.5</ele><time>2026-04-19T13:48:01.911Z</time></trkpt><trkpt lat="45.3728759" lon="8.1143017"><ele>217.33333333333331</ele><time>2026-04-19T13:48:02.912Z</time></trkpt><trkpt lat="45.3728436" lon="8.1143964"><ele>217.16666666666666</ele><time>2026-04-19T13:48:03.91Z</time></trkpt><trkpt lat="45.3728078" lon="8.1144838"><ele>217.0</ele><time>2026-04-19T13:48:04.91Z</time></trkpt><trkpt lat="45.37278" lon="8.1145759"><ele>217.0</ele><time>2026-04-19T13:48:05.912Z</time></trkpt><trkpt lat="45.3727467" lon="8.1146761"><ele>217.0</ele><time>2026-04-19T13:48:06.911Z</time></trkpt><trkpt lat="45.3727185" lon="8.1147722"><ele>217.0</ele><time>2026-04-19T13:48:07.91Z</time></trkpt><trkpt lat="45.3726737" lon="8.1149139"><ele>217.0</ele><time>2026-04-19T13:48:09.91Z</time></trkpt><trkpt lat="45.3726435" lon="8.1150313"><ele>217.0</ele><time>2026-04-19T13:48:31.91Z</time></trkpt><trkpt lat="45.3726886" lon="8.1151676"><ele>217.16666666666666</ele><time>2026-04-19T13:48:33.91Z</time></trkpt><trkpt lat="45.3727426" lon="8.1152356"><ele>217.33333333333331</ele><time>2026-04-19T13:48:34.91Z</time></trkpt><trkpt lat="45.3727951" lon="8.1152994"><ele>217.5</ele><time>2026-04-19T13:48:35.91Z</time></trkpt><trkpt lat="45.372847" lon="8.1153682"><ele>217.66666666666669</ele><time>2026-04-19T13:48:36.911Z</time></trkpt><trkpt lat="45.3729069" lon="8.1154432"><ele>217.83333333333334</ele><time>2026-04-19T13:48:37.91Z</time></trkpt><trkpt lat="45.3729756" lon="8.1155408"><ele>218.0</ele><time>2026-04-19T13:48:38.911Z</time></trkpt><trkpt lat="45.3730475" lon="8.1156352"><ele>218.25</ele><time>2026-04-19T13:48:39.91Z</time></trkpt><trkpt lat="45.3731303" lon="8.1157461"><ele>218.5</ele><time>2026-04-19T13:48:40.91Z</time></trkpt><trkpt lat="45.3732156" lon="8.1158545"><ele>218.75</ele><time>2026-04-19T13:48:41.911Z</time></trkpt><trkpt lat="45.3733016" lon="8.1159698"><ele>219.0</ele><time>2026-04-19T13:48:42.911Z</time></trkpt><trkpt lat="45.373384" lon="8.1160854"><ele>219.0</ele><time>2026-04-19T13:48:43.91Z</time></trkpt><trkpt lat="45.3734661" lon="8.116199"><ele>218.99999999999997</ele><time>2026-04-19T13:48:44.91Z</time></trkpt><trkpt lat="45.3735403" lon="8.1162989"><ele>218.99999999999997</ele><time>2026-04-19T13:48:45.91Z</time></trkpt><trkpt lat="45.3736075" lon="8.1163823"><ele>219.0</ele><time>2026-04-19T13:48:46.912Z</time></trkpt><trkpt lat="45.3736704" lon="8.1164481"><ele>219.0</ele><time>2026-04-19T13:48:47.91Z</time></trkpt><trkpt lat="45.3737393" lon="8.1165178"><ele>218.79999999999998</ele><time>2026-04-19T13:48:48.911Z</time></trkpt><trkpt lat="45.3738099" lon="8.116599"><ele>218.59999999999997</ele><time>2026-04-19T13:48:49.91Z</time></trkpt><trkpt lat="45.3738788" lon="8.1166997"><ele>218.4</ele><time>2026-04-19T13:48:50.912Z</time></trkpt><trkpt lat="45.3739527" lon="8.1168222"><ele>218.2</ele><time>2026-04-19T13:48:51.91Z</time></trkpt><trkpt lat="45.3740324" lon="8.11694"><ele>218.0</ele><time>2026-04-19T13:48:52.91Z</time></trkpt><trkpt lat="45.374125" lon="8.1170649"><ele>218.5</ele><time>2026-04-19T13:48:53.91Z</time></trkpt><trkpt lat="45.3742234" lon="8.1171978"><ele>219.0</ele><time>2026-04-19T13:48:54.91Z</time></trkpt><trkpt lat="45.374325" lon="8.1173337"><ele>219.5</ele><time>2026-04-19T13:48:55.911Z</time></trkpt><trkpt lat="45.3744244" lon="8.1174672"><ele>220.0</ele><time>2026-04-19T13:48:56.91Z</time></trkpt><trkpt lat="45.3745226" lon="8.1175973"><ele>220.0</ele><time>2026-04-19T13:48:57.91Z</time></trkpt><trkpt lat="45.3746212" lon="8.1177277"><ele>220.0</ele><time>2026-04-19T13:48:58.911Z</time></trkpt><trkpt lat="45.3747232" lon="8.1178629"><ele>220.0</ele><time>2026-04-19T13:48:59.91Z</time></trkpt><trkpt lat="45.3748277" lon="8.1180042"><ele>220.0</ele><time>2026-04-19T13:49:00.91Z</time></trkpt><trkpt lat="45.3749317" lon="8.1181452"><ele>220.0</ele><time>2026-04-19T13:49:01.91Z</time></trkpt><trkpt lat="45.3750367" lon="8.1182842"><ele>220.0</ele><time>2026-04-19T13:49:02.911Z</time></trkpt><trkpt lat="45.3751396" lon="8.1184167"><ele>220.0</ele><time>2026-04-19T13:49:03.911Z</time></trkpt><trkpt lat="45.3752436" lon="8.118539"><ele>220.0</ele><time>2026-04-19T13:49:04.91Z</time></trkpt><trkpt lat="45.3753455" lon="8.1186373"><ele>220.0</ele><time>2026-04-19T13:49:05.91Z</time></trkpt><trkpt lat="45.3754546" lon="8.1187105"><ele>220.0</ele><time>2026-04-19T13:49:06.91Z</time></trkpt><trkpt lat="45.3755596" lon="8.1187777"><ele>220.0</ele><time>2026-04-19T13:49:07.912Z</time></trkpt><trkpt lat="45.3756721" lon="8.1188315"><ele>220.0</ele><time>2026-04-19T13:49:08.91Z</time></trkpt><trkpt lat="45.3757804" lon="8.1188893"><ele>220.0</ele><time>2026-04-19T13:49:09.911Z</time></trkpt><trkpt lat="45.3758868" lon="8.1189505"><ele>220.0</ele><time>2026-04-19T13:49:10.911Z</time></trkpt><trkpt lat="45.3759904" lon="8.1190102"><ele>220.0</ele><time>2026-04-19T13:49:11.912Z</time></trkpt><trkpt lat="45.3760937" lon="8.1190882"><ele>220.0</ele><time>2026-04-19T13:49:12.911Z</time></trkpt><trkpt lat="45.3761988" lon="8.1191777"><ele>220.0</ele><time>2026-04-19T13:49:13.91Z</time></trkpt><trkpt lat="45.3763011" lon="8.1192695"><ele>220.0</ele><time>2026-04-19T13:49:14.911Z</time></trkpt><trkpt lat="45.3764054" lon="8.1193609"><ele>220.0</ele><time>2026-04-19T13:49:15.91Z</time></trkpt><trkpt lat="45.3765074" lon="8.1194593"><ele>220.0</ele><time>2026-04-19T13:49:16.91Z</time></trkpt><trkpt lat="45.3766066" lon="8.1195617"><ele>220.0</ele><time>2026-04-19T13:49:17.91Z</time></trkpt><trkpt lat="45.3767138" lon="8.1196734"><ele>220.0</ele><time>2026-04-19T13:49:18.91Z</time></trkpt><trkpt lat="45.3768244" lon="8.1197764"><ele>220.0</ele><time>2026-04-19T13:49:19.91Z</time></trkpt><trkpt lat="45.3769294" lon="8.1198633"><ele>220.0</ele><time>2026-04-19T13:49:20.911Z</time></trkpt><trkpt lat="45.3770371" lon="8.1199597"><ele>220.0</ele><time>2026-04-19T13:49:21.911Z</time></trkpt><trkpt lat="45.3771437" lon="8.120058"><ele>220.0</ele><time>2026-04-19T13:49:22.912Z</time></trkpt><trkpt lat="45.3772593" lon="8.1201503"><ele>220.0</ele><time>2026-04-19T13:49:23.91Z</time></trkpt><trkpt lat="45.377383" lon="8.1202366"><ele>220.0</ele><time>2026-04-19T13:49:24.911Z</time></trkpt><trkpt lat="45.3775066" lon="8.1203303"><ele>220.0</ele><time>2026-04-19T13:49:25.911Z</time></trkpt><trkpt lat="45.3776279" lon="8.1204289"><ele>220.0</ele><time>2026-04-19T13:49:26.911Z</time></trkpt><trkpt lat="45.3777489" lon="8.1205341"><ele>220.0</ele><time>2026-04-19T13:49:27.91Z</time></trkpt><trkpt lat="45.3778679" lon="8.1206428"><ele>220.0</ele><time>2026-04-19T13:49:28.91Z</time></trkpt><trkpt lat="45.3779861" lon="8.1207519"><ele>220.25</ele><time>2026-04-19T13:49:29.91Z</time></trkpt><trkpt lat="45.378099" lon="8.1208559"><ele>220.5</ele><time>2026-04-19T13:49:30.911Z</time></trkpt><trkpt lat="45.3782126" lon="8.1209552"><ele>220.75</ele><time>2026-04-19T13:49:31.91Z</time></trkpt><trkpt lat="45.3783248" lon="8.1210446"><ele>221.0</ele><time>2026-04-19T13:49:32.911Z</time></trkpt><trkpt lat="45.3784353" lon="8.1211428"><ele>221.0</ele><time>2026-04-19T13:49:33.911Z</time></trkpt><trkpt lat="45.3785422" lon="8.1212391"><ele>221.0</ele><time>2026-04-19T13:49:34.91Z</time></trkpt><trkpt lat="45.3786492" lon="8.1213367"><ele>221.0</ele><time>2026-04-19T13:49:35.91Z</time></trkpt><trkpt lat="45.3787593" lon="8.1214244"><ele>221.0</ele><time>2026-04-19T13:49:36.911Z</time></trkpt><trkpt lat="45.3788714" lon="8.1215133"><ele>221.25</ele><time>2026-04-19T13:49:37.91Z</time></trkpt><trkpt lat="45.3789884" lon="8.1216113"><ele>221.5</ele><time>2026-04-19T13:49:38.91Z</time></trkpt><trkpt lat="45.3791035" lon="8.1217161"><ele>221.75</ele><time>2026-04-19T13:49:39.912Z</time></trkpt><trkpt lat="45.3792246" lon="8.1218251"><ele>222.0</ele><time>2026-04-19T13:49:40.911Z</time></trkpt><trkpt lat="45.3793471" lon="8.1219449"><ele>222.0</ele><time>2026-04-19T13:49:41.91Z</time></trkpt><trkpt lat="45.3794636" lon="8.1220756"><ele>222.0</ele><time>2026-04-19T13:49:42.911Z</time></trkpt><trkpt lat="45.3795757" lon="8.122222"><ele>222.0</ele><time>2026-04-19T13:49:43.91Z</time></trkpt><trkpt lat="45.3796722" lon="8.1223799"><ele>222.0</ele><time>2026-04-19T13:49:44.91Z</time></trkpt><trkpt lat="45.3797644" lon="8.1225554"><ele>221.33333333333331</ele><time>2026-04-19T13:49:45.91Z</time></trkpt><trkpt lat="45.3798464" lon="8.1227507"><ele>220.66666666666666</ele><time>2026-04-19T13:49:46.91Z</time></trkpt><trkpt lat="45.379922" lon="8.1229573"><ele>220.0</ele><time>2026-04-19T13:49:47.91Z</time></trkpt><trkpt lat="45.3800002" lon="8.1231604"><ele>220.5</ele><time>2026-04-19T13:49:48.911Z</time></trkpt><trkpt lat="45.3800772" lon="8.12335"><ele>221.0</ele><time>2026-04-19T13:49:49.91Z</time></trkpt><trkpt lat="45.3801533" lon="8.1235242"><ele>221.5</ele><time>2026-04-19T13:49:50.911Z</time></trkpt><trkpt lat="45.3802244" lon="8.1236878"><ele>222.0</ele><time>2026-04-19T13:49:51.911Z</time></trkpt><trkpt lat="45.3802934" lon="8.1238519"><ele>222.0</ele><time>2026-04-19T13:49:52.911Z</time></trkpt><trkpt lat="45.3803636" lon="8.1240181"><ele>222.0</ele><time>2026-04-19T13:49:53.91Z</time></trkpt><trkpt lat="45.3804413" lon="8.1241857"><ele>222.0</ele><time>2026-04-19T13:49:54.91Z</time></trkpt><trkpt lat="45.3805207" lon="8.1243609"><ele>222.0</ele><time>2026-04-19T13:49:55.911Z</time></trkpt><trkpt lat="45.3806022" lon="8.1245399"><ele>221.5</ele><time>2026-04-19T13:49:56.912Z</time></trkpt><trkpt lat="45.3806881" lon="8.1247211"><ele>221.0</ele><time>2026-04-19T13:49:57.91Z</time></trkpt><trkpt lat="45.3807728" lon="8.1249013"><ele>220.5</ele><time>2026-04-19T13:49:58.911Z</time></trkpt><trkpt lat="45.3808436" lon="8.125068"><ele>220.0</ele><time>2026-04-19T13:49:59.91Z</time></trkpt><trkpt lat="45.3809197" lon="8.125234"><ele>220.0</ele><time>2026-04-19T13:50:00.91Z</time></trkpt><trkpt lat="45.3810083" lon="8.1253963"><ele>220.0</ele><time>2026-04-19T13:50:01.911Z</time></trkpt><trkpt lat="45.3811229" lon="8.1255247"><ele>220.0</ele><time>2026-04-19T13:50:02.91Z</time></trkpt><trkpt lat="45.3812487" lon="8.1256222"><ele>220.0</ele><time>2026-04-19T13:50:03.91Z</time></trkpt><trkpt lat="45.3813844" lon="8.1257082"><ele>220.0</ele><time>2026-04-19T13:50:04.912Z</time></trkpt><trkpt lat="45.3815252" lon="8.1257902"><ele>220.0</ele><time>2026-04-19T13:50:05.91Z</time></trkpt><trkpt lat="45.3816623" lon="8.1258713"><ele>220.0</ele><time>2026-04-19T13:50:06.911Z</time></trkpt><trkpt lat="45.3817972" lon="8.1259479"><ele>220.0</ele><time>2026-04-19T13:50:07.912Z</time></trkpt><trkpt lat="45.3819293" lon="8.1260272"><ele>220.0</ele><time>2026-04-19T13:50:08.91Z</time></trkpt><trkpt lat="45.3820681" lon="8.1261078"><ele>220.0</ele><time>2026-04-19T13:50:09.912Z</time></trkpt><trkpt lat="45.3822102" lon="8.1261912"><ele>220.0</ele><time>2026-04-19T13:50:10.91Z</time></trkpt><trkpt lat="45.3823614" lon="8.1262752"><ele>219.66666666666666</ele><time>2026-04-19T13:50:11.911Z</time></trkpt><trkpt lat="45.382519" lon="8.1263643"><ele>219.33333333333331</ele><time>2026-04-19T13:50:12.91Z</time></trkpt><trkpt lat="45.3826745" lon="8.126458"><ele>219.0</ele><time>2026-04-19T13:50:13.912Z</time></trkpt><trkpt lat="45.3828341" lon="8.1265523"><ele>219.0</ele><time>2026-04-19T13:50:14.91Z</time></trkpt><trkpt lat="45.3829964" lon="8.1266486"><ele>219.0</ele><time>2026-04-19T13:50:15.911Z</time></trkpt><trkpt lat="45.3831594" lon="8.1267474"><ele>219.0</ele><time>2026-04-19T13:50:16.911Z</time></trkpt><trkpt lat="45.3833264" lon="8.1268449"><ele>219.0</ele><time>2026-04-19T13:50:17.91Z</time></trkpt><trkpt lat="45.383495" lon="8.1269433"><ele>219.0</ele><time>2026-04-19T13:50:18.911Z</time></trkpt><trkpt lat="45.3836634" lon="8.1270412"><ele>219.0</ele><time>2026-04-19T13:50:19.912Z</time></trkpt><trkpt lat="45.3838288" lon="8.1271386"><ele>219.0</ele><time>2026-04-19T13:50:20.911Z</time></trkpt><trkpt lat="45.3839951" lon="8.1272372"><ele>219.0</ele><time>2026-04-19T13:50:21.911Z</time></trkpt><trkpt lat="45.384157" lon="8.1273298"><ele>219.0</ele><time>2026-04-19T13:50:22.91Z</time></trkpt><trkpt lat="45.3843143" lon="8.1274183"><ele>219.33333333333331</ele><time>2026-04-19T13:50:23.911Z</time></trkpt><trkpt lat="45.3844732" lon="8.1275138"><ele>219.66666666666666</ele><time>2026-04-19T13:50:24.91Z</time></trkpt><trkpt lat="45.3846384" lon="8.1276216"><ele>220.0</ele><time>2026-04-19T13:50:25.91Z</time></trkpt><trkpt lat="45.384805" lon="8.1277312"><ele>220.0</ele><time>2026-04-19T13:50:26.91Z</time></trkpt><trkpt lat="45.3849739" lon="8.127839"><ele>220.0</ele><time>2026-04-19T13:50:27.91Z</time></trkpt><trkpt lat="45.3851496" lon="8.1279494"><ele>220.0</ele><time>2026-04-19T13:50:28.91Z</time></trkpt><trkpt lat="45.3853328" lon="8.1280523"><ele>220.0</ele><time>2026-04-19T13:50:29.911Z</time></trkpt><trkpt lat="45.3855203" lon="8.1281552"><ele>220.0</ele><time>2026-04-19T13:50:30.91Z</time></trkpt><trkpt lat="45.3856982" lon="8.1282531"><ele>220.0</ele><time>2026-04-19T13:50:31.91Z</time></trkpt><trkpt lat="45.3858862" lon="8.1283543"><ele>220.0</ele><time>2026-04-19T13:50:32.911Z</time></trkpt><trkpt lat="45.3860745" lon="8.1284585"><ele>220.0</ele><time>2026-04-19T13:50:33.911Z</time></trkpt><trkpt lat="45.3862615" lon="8.1285692"><ele>220.0</ele><time>2026-04-19T13:50:34.911Z</time></trkpt><trkpt lat="45.38645" lon="8.1286821"><ele>220.33333333333331</ele><time>2026-04-19T13:50:35.911Z</time></trkpt><trkpt lat="45.3866412" lon="8.128795"><ele>220.66666666666669</ele><time>2026-04-19T13:50:36.91Z</time></trkpt><trkpt lat="45.3868307" lon="8.1289038"><ele>221.0</ele><time>2026-04-19T13:50:37.91Z</time></trkpt><trkpt lat="45.3870052" lon="8.1290078"><ele>221.0</ele><time>2026-04-19T13:50:38.91Z</time></trkpt><trkpt lat="45.387167" lon="8.1291081"><ele>221.0</ele><time>2026-04-19T13:50:39.912Z</time></trkpt><trkpt lat="45.3873309" lon="8.1292094"><ele>221.0</ele><time>2026-04-19T13:50:40.91Z</time></trkpt><trkpt lat="45.3875015" lon="8.1293079"><ele>221.33333333333334</ele><time>2026-04-19T13:50:41.911Z</time></trkpt><trkpt lat="45.3876565" lon="8.129395"><ele>221.66666666666669</ele><time>2026-04-19T13:50:42.91Z</time></trkpt><trkpt lat="45.3878003" lon="8.1294813"><ele>222.0</ele><time>2026-04-19T13:50:43.911Z</time></trkpt><trkpt lat="45.3879341" lon="8.1295616"><ele>222.0</ele><time>2026-04-19T13:50:44.911Z</time></trkpt><trkpt lat="45.3880558" lon="8.1296337"><ele>222.0</ele><time>2026-04-19T13:50:45.91Z</time></trkpt><trkpt lat="45.3881646" lon="8.1297027"><ele>222.0</ele><time>2026-04-19T13:50:46.91Z</time></trkpt><trkpt lat="45.3882592" lon="8.1297641"><ele>222.0</ele><time>2026-04-19T13:50:47.912Z</time></trkpt><trkpt lat="45.388344" lon="8.1298198"><ele>222.0</ele><time>2026-04-19T13:50:48.911Z</time></trkpt><trkpt lat="45.3884331" lon="8.1298725"><ele>221.66666666666666</ele><time>2026-04-19T13:50:49.91Z</time></trkpt><trkpt lat="45.3885219" lon="8.1299172"><ele>221.33333333333331</ele><time>2026-04-19T13:50:50.91Z</time></trkpt><trkpt lat="45.3885954" lon="8.1299546"><ele>221.0</ele><time>2026-04-19T13:50:51.911Z</time></trkpt><trkpt lat="45.3886574" lon="8.1299828"><ele>220.66666666666666</ele><time>2026-04-19T13:50:52.911Z</time></trkpt><trkpt lat="45.3887342" lon="8.1300341"><ele>220.33333333333331</ele><time>2026-04-19T13:50:54.91Z</time></trkpt><trkpt lat="45.3888068" lon="8.1301257"><ele>220.0</ele><time>2026-04-19T13:50:57.911Z</time></trkpt><trkpt lat="45.3887879" lon="8.1302482"><ele>220.0</ele><time>2026-04-19T13:50:59.911Z</time></trkpt><trkpt lat="45.3887384" lon="8.1303161"><ele>220.0</ele><time>2026-04-19T13:51:00.911Z</time></trkpt><trkpt lat="45.3886885" lon="8.1303942"><ele>220.0</ele><time>2026-04-19T13:51:01.911Z</time></trkpt><trkpt lat="45.3886244" lon="8.1304939"><ele>220.0</ele><time>2026-04-19T13:51:02.91Z</time></trkpt><trkpt lat="45.3885533" lon="8.1306038"><ele>220.0</ele><time>2026-04-19T13:51:03.91Z</time></trkpt><trkpt lat="45.3884755" lon="8.1307289"><ele>220.0</ele><time>2026-04-19T13:51:04.91Z</time></trkpt><trkpt lat="45.3883953" lon="8.1308633"><ele>220.0</ele><time>2026-04-19T13:51:05.91Z</time></trkpt><trkpt lat="45.3883081" lon="8.1310078"><ele>220.0</ele><time>2026-04-19T13:51:06.91Z</time></trkpt><trkpt lat="45.3882202" lon="8.1311543"><ele>220.0</ele><time>2026-04-19T13:51:07.91Z</time></trkpt><trkpt lat="45.3881276" lon="8.1313094"><ele>220.0</ele><time>2026-04-19T13:51:08.91Z</time></trkpt><trkpt lat="45.3880316" lon="8.1314653"><ele>220.0</ele><time>2026-04-19T13:51:09.91Z</time></trkpt><trkpt lat="45.3879343" lon="8.1316244"><ele>220.0</ele><time>2026-04-19T13:51:10.911Z</time></trkpt><trkpt lat="45.3878378" lon="8.1317865"><ele>220.0</ele><time>2026-04-19T13:51:11.91Z</time></trkpt><trkpt lat="45.3877414" lon="8.1319457"><ele>219.5</ele><time>2026-04-19T13:51:12.91Z</time></trkpt><trkpt lat="45.3876481" lon="8.1321013"><ele>219.0</ele><time>2026-04-19T13:51:13.91Z</time></trkpt><trkpt lat="45.3875581" lon="8.1322555"><ele>218.5</ele><time>2026-04-19T13:51:14.91Z</time></trkpt><trkpt lat="45.3874678" lon="8.1324084"><ele>218.0</ele><time>2026-04-19T13:51:15.91Z</time></trkpt><trkpt lat="45.3873746" lon="8.1325613"><ele>217.5</ele><time>2026-04-19T13:51:16.911Z</time></trkpt><trkpt lat="45.3872807" lon="8.1327112"><ele>217.0</ele><time>2026-04-19T13:51:17.91Z</time></trkpt><trkpt lat="45.3871943" lon="8.1328517"><ele>216.5</ele><time>2026-04-19T13:51:18.911Z</time></trkpt><trkpt lat="45.387112" lon="8.1329962"><ele>216.0</ele><time>2026-04-19T13:51:19.91Z</time></trkpt><trkpt lat="45.3870259" lon="8.1331422"><ele>215.75</ele><time>2026-04-19T13:51:20.91Z</time></trkpt><trkpt lat="45.3869374" lon="8.1332852"><ele>215.5</ele><time>2026-04-19T13:51:21.911Z</time></trkpt><trkpt lat="45.3868509" lon="8.1334246"><ele>215.25</ele><time>2026-04-19T13:51:22.91Z</time></trkpt><trkpt lat="45.3867661" lon="8.1335646"><ele>215.0</ele><time>2026-04-19T13:51:23.911Z</time></trkpt><trkpt lat="45.3866836" lon="8.1337049"><ele>215.0</ele><time>2026-04-19T13:51:24.911Z</time></trkpt><trkpt lat="45.3866034" lon="8.1338387"><ele>215.0</ele><time>2026-04-19T13:51:25.91Z</time></trkpt><trkpt lat="45.3865254" lon="8.1339656"><ele>215.0</ele><time>2026-04-19T13:51:26.91Z</time></trkpt><trkpt lat="45.3864542" lon="8.1340865"><ele>215.0</ele><time>2026-04-19T13:51:27.91Z</time></trkpt><trkpt lat="45.3863864" lon="8.1341997"><ele>214.50000000000003</ele><time>2026-04-19T13:51:28.911Z</time></trkpt><trkpt lat="45.386322" lon="8.1343037"><ele>214.0</ele><time>2026-04-19T13:51:29.91Z</time></trkpt><trkpt lat="45.3862629" lon="8.1343984"><ele>213.5</ele><time>2026-04-19T13:51:30.911Z</time></trkpt><trkpt lat="45.3862038" lon="8.1344845"><ele>213.0</ele><time>2026-04-19T13:51:31.91Z</time></trkpt><trkpt lat="45.3861384" lon="8.134553"><ele>212.50000000000003</ele><time>2026-04-19T13:51:32.91Z</time></trkpt><trkpt lat="45.3860578" lon="8.1346131"><ele>212.0</ele><time>2026-04-19T13:51:33.91Z</time></trkpt><trkpt lat="45.3859677" lon="8.1346633"><ele>212.0</ele><time>2026-04-19T13:51:34.91Z</time></trkpt><trkpt lat="45.3858857" lon="8.1347228"><ele>212.0</ele><time>2026-04-19T13:51:35.91Z</time></trkpt><trkpt lat="45.3858181" lon="8.1348159"><ele>212.0</ele><time>2026-04-19T13:51:36.911Z</time></trkpt><trkpt lat="45.385775" lon="8.1349394"><ele>212.0</ele><time>2026-04-19T13:51:37.911Z</time></trkpt><trkpt lat="45.3857571" lon="8.1350778"><ele>212.0</ele><time>2026-04-19T13:51:38.911Z</time></trkpt><trkpt lat="45.3857387" lon="8.1352209"><ele>212.0</ele><time>2026-04-19T13:51:39.911Z</time></trkpt><trkpt lat="45.3856949" lon="8.1353528"><ele>212.0</ele><time>2026-04-19T13:51:40.91Z</time></trkpt><trkpt lat="45.385637" lon="8.1354795"><ele>212.0</ele><time>2026-04-19T13:51:41.911Z</time></trkpt><trkpt lat="45.3855671" lon="8.1356031"><ele>212.0</ele><time>2026-04-19T13:51:42.911Z</time></trkpt><trkpt lat="45.3854825" lon="8.1357396"><ele>212.0</ele><time>2026-04-19T13:51:43.91Z</time></trkpt><trkpt lat="45.3853838" lon="8.1359035"><ele>211.66666666666669</ele><time>2026-04-19T13:51:44.91Z</time></trkpt><trkpt lat="45.3852742" lon="8.1360997"><ele>211.33333333333331</ele><time>2026-04-19T13:51:45.911Z</time></trkpt><trkpt lat="45.3851514" lon="8.1363141"><ele>211.0</ele><time>2026-04-19T13:51:46.912Z</time></trkpt><trkpt lat="45.3850228" lon="8.1365333"><ele>211.0</ele><time>2026-04-19T13:51:47.91Z</time></trkpt><trkpt lat="45.3848819" lon="8.1367715"><ele>211.0</ele><time>2026-04-19T13:51:48.91Z</time></trkpt><trkpt lat="45.3847393" lon="8.1370128"><ele>211.0</ele><time>2026-04-19T13:51:49.91Z</time></trkpt><trkpt lat="45.3845896" lon="8.1372589"><ele>210.5</ele><time>2026-04-19T13:51:50.91Z</time></trkpt><trkpt lat="45.3844343" lon="8.137517"><ele>210.0</ele><time>2026-04-19T13:51:51.91Z</time></trkpt><trkpt lat="45.3842719" lon="8.1377841"><ele>210.0</ele><time>2026-04-19T13:51:52.911Z</time></trkpt><trkpt lat="45.3841025" lon="8.1380591"><ele>210.0</ele><time>2026-04-19T13:51:53.91Z</time></trkpt><trkpt lat="45.3839309" lon="8.1383436"><ele>210.0</ele><time>2026-04-19T13:51:54.91Z</time></trkpt><trkpt lat="45.3837584" lon="8.1386337"><ele>210.0</ele><time>2026-04-19T13:51:55.91Z</time></trkpt><trkpt lat="45.3835829" lon="8.1389257"><ele>209.0</ele><time>2026-04-19T13:51:56.911Z</time></trkpt><trkpt lat="45.3834063" lon="8.1392188"><ele>208.0</ele><time>2026-04-19T13:51:57.91Z</time></trkpt><trkpt lat="45.3832366" lon="8.1394962"><ele>208.0</ele><time>2026-04-19T13:51:58.911Z</time></trkpt><trkpt lat="45.3830721" lon="8.1397576"><ele>208.0</ele><time>2026-04-19T13:51:59.911Z</time></trkpt><trkpt lat="45.3829046" lon="8.1400206"><ele>208.0</ele><time>2026-04-19T13:52:00.911Z</time></trkpt><trkpt lat="45.3827382" lon="8.1402854"><ele>208.0</ele><time>2026-04-19T13:52:01.912Z</time></trkpt><trkpt lat="45.3825749" lon="8.1405556"><ele>208.5</ele><time>2026-04-19T13:52:02.91Z</time></trkpt><trkpt lat="45.3824136" lon="8.1408286"><ele>209.0</ele><time>2026-04-19T13:52:03.91Z</time></trkpt><trkpt lat="45.3822508" lon="8.1411004"><ele>208.5</ele><time>2026-04-19T13:52:04.91Z</time></trkpt><trkpt lat="45.3820862" lon="8.1413736"><ele>208.0</ele><time>2026-04-19T13:52:05.91Z</time></trkpt><trkpt lat="45.3819214" lon="8.1416454"><ele>207.5</ele><time>2026-04-19T13:52:06.911Z</time></trkpt><trkpt lat="45.3817538" lon="8.1419181"><ele>207.0</ele><time>2026-04-19T13:52:07.91Z</time></trkpt><trkpt lat="45.3815879" lon="8.1421915"><ele>206.5</ele><time>2026-04-19T13:52:08.911Z</time></trkpt><trkpt lat="45.3814233" lon="8.1424658"><ele>206.0</ele><time>2026-04-19T13:52:09.911Z</time></trkpt><trkpt lat="45.3812636" lon="8.1427373"><ele>206.0</ele><time>2026-04-19T13:52:10.911Z</time></trkpt><trkpt lat="45.381112" lon="8.142986"><ele>206.0</ele><time>2026-04-19T13:52:11.911Z</time></trkpt><trkpt lat="45.3809592" lon="8.1432418"><ele>206.0</ele><time>2026-04-19T13:52:12.911Z</time></trkpt><trkpt lat="45.3808086" lon="8.1434956"><ele>206.0</ele><time>2026-04-19T13:52:13.91Z</time></trkpt><trkpt lat="45.3806644" lon="8.1437375"><ele>206.0</ele><time>2026-04-19T13:52:14.912Z</time></trkpt><trkpt lat="45.3805288" lon="8.1439629"><ele>206.0</ele><time>2026-04-19T13:52:15.911Z</time></trkpt><trkpt lat="45.3803984" lon="8.1441751"><ele>206.0</ele><time>2026-04-19T13:52:16.911Z</time></trkpt><trkpt lat="45.3802774" lon="8.144375"><ele>205.33333333333334</ele><time>2026-04-19T13:52:17.91Z</time></trkpt><trkpt lat="45.3801639" lon="8.1445654"><ele>204.66666666666669</ele><time>2026-04-19T13:52:18.91Z</time></trkpt><trkpt lat="45.3800577" lon="8.1447456"><ele>204.0</ele><time>2026-04-19T13:52:19.91Z</time></trkpt><trkpt lat="45.3799575" lon="8.1449127"><ele>203.75</ele><time>2026-04-19T13:52:20.91Z</time></trkpt><trkpt lat="45.3798693" lon="8.1450659"><ele>203.5</ele><time>2026-04-19T13:52:21.911Z</time></trkpt><trkpt lat="45.3797879" lon="8.1451957"><ele>203.25</ele><time>2026-04-19T13:52:22.91Z</time></trkpt><trkpt lat="45.3797048" lon="8.1452994"><ele>203.0</ele><time>2026-04-19T13:52:23.911Z</time></trkpt><trkpt lat="45.379615" lon="8.1453706"><ele>202.4</ele><time>2026-04-19T13:52:24.91Z</time></trkpt><trkpt lat="45.3795109" lon="8.1453991"><ele>201.8</ele><time>2026-04-19T13:52:25.91Z</time></trkpt><trkpt lat="45.3794055" lon="8.1454301"><ele>201.2</ele><time>2026-04-19T13:52:26.91Z</time></trkpt><trkpt lat="45.3793019" lon="8.1454964"><ele>200.6</ele><time>2026-04-19T13:52:27.911Z</time></trkpt><trkpt lat="45.3792139" lon="8.1455966"><ele>200.0</ele><time>2026-04-19T13:52:28.911Z</time></trkpt><trkpt lat="45.3791663" lon="8.1457432"><ele>200.0</ele><time>2026-04-19T13:52:29.91Z</time></trkpt><trkpt lat="45.3791514" lon="8.1458999"><ele>200.0</ele><time>2026-04-19T13:52:30.911Z</time></trkpt><trkpt lat="45.3791439" lon="8.1460672"><ele>200.0</ele><time>2026-04-19T13:52:31.911Z</time></trkpt><trkpt lat="45.3791095" lon="8.1462337"><ele>200.0</ele><time>2026-04-19T13:52:32.91Z</time></trkpt><trkpt lat="45.3790473" lon="8.1464017"><ele>200.25</ele><time>2026-04-19T13:52:33.91Z</time></trkpt><trkpt lat="45.3789663" lon="8.1465652"><ele>200.5</ele><time>2026-04-19T13:52:34.91Z</time></trkpt><trkpt lat="45.3788759" lon="8.1467183"><ele>200.75</ele><time>2026-04-19T13:52:35.91Z</time></trkpt><trkpt lat="45.378777" lon="8.1468731"><ele>201.0</ele><time>2026-04-19T13:52:36.91Z</time></trkpt><trkpt lat="45.3786744" lon="8.1470292"><ele>201.33333333333331</ele><time>2026-04-19T13:52:37.91Z</time></trkpt><trkpt lat="45.3785744" lon="8.1471928"><ele>201.66666666666666</ele><time>2026-04-19T13:52:38.911Z</time></trkpt><trkpt lat="45.3784738" lon="8.1473568"><ele>202.0</ele><time>2026-04-19T13:52:39.91Z</time></trkpt><trkpt lat="45.3783684" lon="8.147521"><ele>201.0</ele><time>2026-04-19T13:52:40.91Z</time></trkpt><trkpt lat="45.3782626" lon="8.1476904"><ele>200.0</ele><time>2026-04-19T13:52:41.91Z</time></trkpt><trkpt lat="45.3781576" lon="8.1478661"><ele>199.0</ele><time>2026-04-19T13:52:42.911Z</time></trkpt><trkpt lat="45.3780501" lon="8.1480475"><ele>198.33333333333331</ele><time>2026-04-19T13:52:43.91Z</time></trkpt><trkpt lat="45.3779442" lon="8.1482234"><ele>197.66666666666669</ele><time>2026-04-19T13:52:44.911Z</time></trkpt><trkpt lat="45.377836" lon="8.1483976"><ele>197.0</ele><time>2026-04-19T13:52:45.91Z</time></trkpt><trkpt lat="45.3777256" lon="8.1485751"><ele>197.0</ele><time>2026-04-19T13:52:46.91Z</time></trkpt><trkpt lat="45.3776123" lon="8.1487663"><ele>197.0</ele><time>2026-04-19T13:52:47.91Z</time></trkpt><trkpt lat="45.377495" lon="8.1489615"><ele>197.0</ele><time>2026-04-19T13:52:48.91Z</time></trkpt><trkpt lat="45.3773768" lon="8.1491578"><ele>197.0</ele><time>2026-04-19T13:52:49.911Z</time></trkpt><trkpt lat="45.3772601" lon="8.1493519"><ele>197.0</ele><time>2026-04-19T13:52:50.91Z</time></trkpt><trkpt lat="45.3771507" lon="8.1495317"><ele>197.0</ele><time>2026-04-19T13:52:51.91Z</time></trkpt><trkpt lat="45.3770451" lon="8.1497023"><ele>197.0</ele><time>2026-04-19T13:52:52.911Z</time></trkpt><trkpt lat="45.376947" lon="8.1498632"><ele>197.0</ele><time>2026-04-19T13:52:53.91Z</time></trkpt><trkpt lat="45.3768518" lon="8.1500154"><ele>197.0</ele><time>2026-04-19T13:52:54.91Z</time></trkpt><trkpt lat="45.3767654" lon="8.1501629"><ele>197.0</ele><time>2026-04-19T13:52:55.91Z</time></trkpt><trkpt lat="45.3766846" lon="8.1503001"><ele>197.2</ele><time>2026-04-19T13:52:56.91Z</time></trkpt><trkpt lat="45.376614" lon="8.1504276"><ele>197.39999999999998</ele><time>2026-04-19T13:52:57.91Z</time></trkpt><trkpt lat="45.3765507" lon="8.150541"><ele>197.60000000000002</ele><time>2026-04-19T13:52:58.911Z</time></trkpt><trkpt lat="45.3764935" lon="8.1506503"><ele>197.8</ele><time>2026-04-19T13:52:59.911Z</time></trkpt><trkpt lat="45.3764414" lon="8.1507494"><ele>198.0</ele><time>2026-04-19T13:53:00.91Z</time></trkpt><trkpt lat="45.3763888" lon="8.1508402"><ele>197.8</ele><time>2026-04-19T13:53:01.91Z</time></trkpt><trkpt lat="45.3763277" lon="8.1509291"><ele>197.60000000000002</ele><time>2026-04-19T13:53:02.91Z</time></trkpt><trkpt lat="45.3762505" lon="8.1510012"><ele>197.39999999999998</ele><time>2026-04-19T13:53:03.911Z</time></trkpt><trkpt lat="45.376163" lon="8.1510306"><ele>197.2</ele><time>2026-04-19T13:53:04.91Z</time></trkpt><trkpt lat="45.3760673" lon="8.1510484"><ele>197.0</ele><time>2026-04-19T13:53:05.91Z</time></trkpt><trkpt lat="45.3759631" lon="8.1510696"><ele>197.0</ele><time>2026-04-19T13:53:06.91Z</time></trkpt><trkpt lat="45.3758549" lon="8.1510905"><ele>197.0</ele><time>2026-04-19T13:53:07.909Z</time></trkpt><trkpt lat="45.3757318" lon="8.1510899"><ele>197.0</ele><time>2026-04-19T13:53:08.909Z</time></trkpt><trkpt lat="45.3756026" lon="8.151082"><ele>197.0</ele><time>2026-04-19T13:53:09.909Z</time></trkpt><trkpt lat="45.3754754" lon="8.1510702"><ele>196.75</ele><time>2026-04-19T13:53:10.91Z</time></trkpt><trkpt lat="45.3753418" lon="8.151056"><ele>196.5</ele><time>2026-04-19T13:53:11.91Z</time></trkpt><trkpt lat="45.3752013" lon="8.1510394"><ele>196.25</ele><time>2026-04-19T13:53:12.91Z</time></trkpt><trkpt lat="45.3750676" lon="8.1510224"><ele>196.0</ele><time>2026-04-19T13:53:13.909Z</time></trkpt><trkpt lat="45.3749395" lon="8.1510052"><ele>196.0</ele><time>2026-04-19T13:53:14.911Z</time></trkpt><trkpt lat="45.3748073" lon="8.1509934"><ele>196.0</ele><time>2026-04-19T13:53:15.909Z</time></trkpt><trkpt lat="45.374682" lon="8.1509813"><ele>196.0</ele><time>2026-04-19T13:53:16.909Z</time></trkpt><trkpt lat="45.3745665" lon="8.1509694"><ele>196.0</ele><time>2026-04-19T13:53:17.91Z</time></trkpt><trkpt lat="45.3744599" lon="8.1509587"><ele>196.20000000000002</ele><time>2026-04-19T13:53:18.91Z</time></trkpt><trkpt lat="45.3743582" lon="8.1509655"><ele>196.4</ele><time>2026-04-19T13:53:19.909Z</time></trkpt><trkpt lat="45.3742693" lon="8.1509954"><ele>196.6</ele><time>2026-04-19T13:53:20.91Z</time></trkpt><trkpt lat="45.3741744" lon="8.1510273"><ele>196.8</ele><time>2026-04-19T13:53:21.909Z</time></trkpt><trkpt lat="45.3740757" lon="8.1510357"><ele>197.0</ele><time>2026-04-19T13:53:22.91Z</time></trkpt><trkpt lat="45.3739744" lon="8.1510304"><ele>197.0</ele><time>2026-04-19T13:53:23.909Z</time></trkpt><trkpt lat="45.37387" lon="8.1510254"><ele>197.0</ele><time>2026-04-19T13:53:24.91Z</time></trkpt><trkpt lat="45.3737602" lon="8.1510153"><ele>197.0</ele><time>2026-04-19T13:53:25.909Z</time></trkpt><trkpt lat="45.3736517" lon="8.1510045"><ele>197.0</ele><time>2026-04-19T13:53:26.911Z</time></trkpt><trkpt lat="45.3735532" lon="8.1509903"><ele>197.0</ele><time>2026-04-19T13:53:27.909Z</time></trkpt><trkpt lat="45.3734603" lon="8.1509816"><ele>196.83333333333334</ele><time>2026-04-19T13:53:28.909Z</time></trkpt><trkpt lat="45.3733712" lon="8.1509809"><ele>196.66666666666669</ele><time>2026-04-19T13:53:29.909Z</time></trkpt><trkpt lat="45.3732874" lon="8.1509779"><ele>196.5</ele><time>2026-04-19T13:53:30.909Z</time></trkpt><trkpt lat="45.3732108" lon="8.1509694"><ele>196.33333333333331</ele><time>2026-04-19T13:53:31.91Z</time></trkpt><trkpt lat="45.3731365" lon="8.1509651"><ele>196.16666666666666</ele><time>2026-04-19T13:53:32.909Z</time></trkpt><trkpt lat="45.3730672" lon="8.150962"><ele>196.0</ele><time>2026-04-19T13:53:33.909Z</time></trkpt><trkpt lat="45.3730002" lon="8.150958"><ele>195.8</ele><time>2026-04-19T13:53:34.91Z</time></trkpt><trkpt lat="45.3729364" lon="8.1509481"><ele>195.60000000000002</ele><time>2026-04-19T13:53:35.909Z</time></trkpt><trkpt lat="45.372817" lon="8.1509382"><ele>195.4</ele><time>2026-04-19T13:53:37.911Z</time></trkpt><trkpt lat="45.3727039" lon="8.1509265"><ele>195.2</ele><time>2026-04-19T13:53:39.91Z</time></trkpt><trkpt lat="45.372604" lon="8.1509045"><ele>195.0</ele><time>2026-04-19T13:53:41.909Z</time></trkpt><trkpt lat="45.3725275" lon="8.1508802"><ele>195.0</ele><time>2026-04-19T13:53:43.909Z</time></trkpt><trkpt lat="45.3724569" lon="8.1509206"><ele>195.0</ele><time>2026-04-19T13:53:46.91Z</time></trkpt><trkpt lat="45.3725053" lon="8.1509804"><ele>195.0</ele><time>2026-04-19T13:57:16.909Z</time></trkpt><trkpt lat="45.3725521" lon="8.1510754"><ele>195.0</ele><time>2026-04-19T13:58:07.91Z</time></trkpt><trkpt lat="45.3724846" lon="8.1510529"><ele>195.0</ele><time>2026-04-19T14:01:21.909Z</time></trkpt><trkpt lat="45.3725493" lon="8.1510302"><ele>195.0</ele><time>2026-04-19T14:02:42.909Z</time></trkpt><trkpt lat="45.3724823" lon="8.1510237"><ele>195.0</ele><time>2026-04-19T14:05:06.51Z</time></trkpt><trkpt lat="45.3724196" lon="8.1510126"><ele>195.0</ele><time>2026-04-19T14:05:08.909Z</time></trkpt><trkpt lat="45.3724687" lon="8.151109"><ele>195.0</ele><time>2026-04-19T14:06:53.907Z</time></trkpt><trkpt lat="45.3725158" lon="8.1510491"><ele>195.0</ele><time>2026-04-19T14:15:21.908Z</time></trkpt><trkpt lat="45.3725599" lon="8.1511196"><ele>195.0</ele><time>2026-04-19T14:16:44.906Z</time></trkpt><trkpt lat="45.372503" lon="8.1510695"><ele>195.0</ele><time>2026-04-19T14:16:58.905Z</time></trkpt><trkpt lat="45.3724889" lon="8.1511646"><ele>195.0</ele><time>2026-04-19T14:17:15.905Z</time></trkpt><trkpt lat="45.372552" lon="8.1511923"><ele>195.0</ele><time>2026-04-19T14:18:15.905Z</time></trkpt><trkpt lat="45.3725274" lon="8.1510992"><ele>195.0</ele><time>2026-04-19T14:20:02.905Z</time></trkpt><trkpt lat="45.3725945" lon="8.1510781"><ele>195.0</ele><time>2026-04-19T14:21:42.905Z</time></trkpt><trkpt lat="45.3726556" lon="8.1510485"><ele>195.0</ele><time>2026-04-19T14:21:43.905Z</time></trkpt><trkpt lat="45.3727142" lon="8.151014"><ele>195.0</ele><time>2026-04-19T14:21:44.905Z</time></trkpt><trkpt lat="45.3727758" lon="8.1509851"><ele>195.0</ele><time>2026-04-19T14:21:45.905Z</time></trkpt><trkpt lat="45.372864" lon="8.1509669"><ele>195.0</ele><time>2026-04-19T14:21:46.905Z</time></trkpt><trkpt lat="45.3729448" lon="8.1509659"><ele>195.0</ele><time>2026-04-19T14:21:47.905Z</time></trkpt><trkpt lat="45.3730449" lon="8.1509753"><ele>195.25</ele><time>2026-04-19T14:21:48.907Z</time></trkpt><trkpt lat="45.373142" lon="8.1509859"><ele>195.5</ele><time>2026-04-19T14:21:49.906Z</time></trkpt><trkpt lat="45.3732799" lon="8.1510045"><ele>195.75</ele><time>2026-04-19T14:21:50.906Z</time></trkpt><trkpt lat="45.3734062" lon="8.1510157"><ele>196.0</ele><time>2026-04-19T14:21:51.907Z</time></trkpt><trkpt lat="45.3735375" lon="8.1510317"><ele>196.0</ele><time>2026-04-19T14:21:52.905Z</time></trkpt><trkpt lat="45.3736559" lon="8.151041"><ele>196.0</ele><time>2026-04-19T14:21:53.905Z</time></trkpt><trkpt lat="45.3737686" lon="8.1510494"><ele>196.0</ele><time>2026-04-19T14:21:54.905Z</time></trkpt><trkpt lat="45.3738758" lon="8.1510562"><ele>196.0</ele><time>2026-04-19T14:21:55.906Z</time></trkpt><trkpt lat="45.3739833" lon="8.1510647"><ele>196.0</ele><time>2026-04-19T14:21:56.906Z</time></trkpt><trkpt lat="45.3740836" lon="8.1510609"><ele>196.20000000000002</ele><time>2026-04-19T14:21:57.906Z</time></trkpt><trkpt lat="45.3741734" lon="8.1510415"><ele>196.4</ele><time>2026-04-19T14:21:58.906Z</time></trkpt><trkpt lat="45.3742655" lon="8.151019"><ele>196.6</ele><time>2026-04-19T14:21:59.905Z</time></trkpt><trkpt lat="45.3743768" lon="8.1510047"><ele>196.8</ele><time>2026-04-19T14:22:00.905Z</time></trkpt><trkpt lat="45.374497" lon="8.1510113"><ele>197.0</ele><time>2026-04-19T14:22:01.905Z</time></trkpt><trkpt lat="45.3746268" lon="8.1510224"><ele>196.75</ele><time>2026-04-19T14:22:02.906Z</time></trkpt><trkpt lat="45.3747614" lon="8.1510344"><ele>196.5</ele><time>2026-04-19T14:22:03.905Z</time></trkpt><trkpt lat="45.3749013" lon="8.1510501"><ele>196.25</ele><time>2026-04-19T14:22:04.905Z</time></trkpt><trkpt lat="45.3750345" lon="8.1510652"><ele>196.0</ele><time>2026-04-19T14:22:05.905Z</time></trkpt><trkpt lat="45.3751552" lon="8.1510824"><ele>196.0</ele><time>2026-04-19T14:22:06.907Z</time></trkpt><trkpt lat="45.3752639" lon="8.1510929"><ele>196.0</ele><time>2026-04-19T14:22:07.907Z</time></trkpt><trkpt lat="45.3753636" lon="8.1511048"><ele>196.0</ele><time>2026-04-19T14:22:08.906Z</time></trkpt><trkpt lat="45.375468" lon="8.1511156"><ele>196.0</ele><time>2026-04-19T14:22:09.906Z</time></trkpt><trkpt lat="45.3755677" lon="8.151124"><ele>196.0</ele><time>2026-04-19T14:22:10.907Z</time></trkpt><trkpt lat="45.3756587" lon="8.151137"><ele>196.16666666666666</ele><time>2026-04-19T14:22:11.907Z</time></trkpt><trkpt lat="45.3757369" lon="8.151148"><ele>196.33333333333331</ele><time>2026-04-19T14:22:12.905Z</time></trkpt><trkpt lat="45.3758011" lon="8.1511697"><ele>196.5</ele><time>2026-04-19T14:22:13.907Z</time></trkpt><trkpt lat="45.3758657" lon="8.1512141"><ele>196.66666666666669</ele><time>2026-04-19T14:22:14.906Z</time></trkpt><trkpt lat="45.3759188" lon="8.1512997"><ele>196.83333333333334</ele><time>2026-04-19T14:22:15.907Z</time></trkpt><trkpt lat="45.3759648" lon="8.1514044"><ele>197.0</ele><time>2026-04-19T14:22:16.906Z</time></trkpt><trkpt lat="45.3760151" lon="8.1515207"><ele>196.75</ele><time>2026-04-19T14:22:17.907Z</time></trkpt><trkpt lat="45.3760642" lon="8.1516519"><ele>196.5</ele><time>2026-04-19T14:22:18.906Z</time></trkpt><trkpt lat="45.376089" lon="8.1517967"><ele>196.25</ele><time>2026-04-19T14:22:19.906Z</time></trkpt><trkpt lat="45.3760791" lon="8.1519592"><ele>196.0</ele><time>2026-04-19T14:22:20.905Z</time></trkpt><trkpt lat="45.3760489" lon="8.1521431"><ele>196.0</ele><time>2026-04-19T14:22:21.905Z</time></trkpt><trkpt lat="45.3760072" lon="8.1523566"><ele>196.0</ele><time>2026-04-19T14:22:22.906Z</time></trkpt><trkpt lat="45.3759676" lon="8.1525918"><ele>196.0</ele><time>2026-04-19T14:22:23.906Z</time></trkpt><trkpt lat="45.3759277" lon="8.1528399"><ele>196.0</ele><time>2026-04-19T14:22:24.905Z</time></trkpt><trkpt lat="45.3758891" lon="8.1531217"><ele>196.0</ele><time>2026-04-19T14:22:25.905Z</time></trkpt><trkpt lat="45.3758485" lon="8.1534314"><ele>196.0</ele><time>2026-04-19T14:22:26.906Z</time></trkpt><trkpt lat="45.3758023" lon="8.1537716"><ele>197.5</ele><time>2026-04-19T14:22:27.905Z</time></trkpt><trkpt lat="45.3757537" lon="8.1541384"><ele>199.0</ele><time>2026-04-19T14:22:28.906Z</time></trkpt><trkpt lat="45.3757004" lon="8.1545304"><ele>198.0</ele><time>2026-04-19T14:22:29.906Z</time></trkpt><trkpt lat="45.375632" lon="8.1549371"><ele>197.0</ele><time>2026-04-19T14:22:30.905Z</time></trkpt><trkpt lat="45.3755577" lon="8.1553581"><ele>195.0</ele><time>2026-04-19T14:22:31.905Z</time></trkpt><trkpt lat="45.3754853" lon="8.1557949"><ele>193.0</ele><time>2026-04-19T14:22:32.905Z</time></trkpt><trkpt lat="45.3754078" lon="8.15624"><ele>193.0</ele><time>2026-04-19T14:22:33.906Z</time></trkpt><trkpt lat="45.3753194" lon="8.1566913"><ele>193.0</ele><time>2026-04-19T14:22:34.906Z</time></trkpt><trkpt lat="45.3752278" lon="8.1571317"><ele>192.5</ele><time>2026-04-19T14:22:35.906Z</time></trkpt><trkpt lat="45.3751408" lon="8.1575361"><ele>192.0</ele><time>2026-04-19T14:22:36.906Z</time></trkpt><trkpt lat="45.3750572" lon="8.1579257"><ele>190.0</ele><time>2026-04-19T14:22:37.905Z</time></trkpt><trkpt lat="45.3749749" lon="8.1583082"><ele>188.0</ele><time>2026-04-19T14:22:38.906Z</time></trkpt><trkpt lat="45.3748935" lon="8.1586827"><ele>188.0</ele><time>2026-04-19T14:22:39.906Z</time></trkpt><trkpt lat="45.3748147" lon="8.1590504"><ele>188.0</ele><time>2026-04-19T14:22:40.905Z</time></trkpt><trkpt lat="45.3747381" lon="8.159399"><ele>187.5</ele><time>2026-04-19T14:22:41.905Z</time></trkpt><trkpt lat="45.3746681" lon="8.1597355"><ele>187.0</ele><time>2026-04-19T14:22:42.905Z</time></trkpt><trkpt lat="45.3745978" lon="8.1600653"><ele>187.0</ele><time>2026-04-19T14:22:43.904Z</time></trkpt><trkpt lat="45.3745265" lon="8.1603833"><ele>187.0</ele><time>2026-04-19T14:22:44.905Z</time></trkpt><trkpt lat="45.3744574" lon="8.1607052"><ele>188.0</ele><time>2026-04-19T14:22:45.906Z</time></trkpt><trkpt lat="45.3743872" lon="8.1610322"><ele>189.0</ele><time>2026-04-19T14:22:46.905Z</time></trkpt><trkpt lat="45.3743148" lon="8.1613666"><ele>189.0</ele><time>2026-04-19T14:22:47.904Z</time></trkpt><trkpt lat="45.3742467" lon="8.1616889"><ele>189.0</ele><time>2026-04-19T14:22:48.904Z</time></trkpt><trkpt lat="45.3741796" lon="8.1620051"><ele>189.0</ele><time>2026-04-19T14:22:49.905Z</time></trkpt><trkpt lat="45.374116" lon="8.1623097"><ele>189.0</ele><time>2026-04-19T14:22:50.904Z</time></trkpt><trkpt lat="45.3740524" lon="8.1625988"><ele>189.0</ele><time>2026-04-19T14:22:51.904Z</time></trkpt><trkpt lat="45.373995" lon="8.1628706"><ele>189.33333333333334</ele><time>2026-04-19T14:22:52.904Z</time></trkpt><trkpt lat="45.3739441" lon="8.1631338"><ele>189.66666666666669</ele><time>2026-04-19T14:22:53.905Z</time></trkpt><trkpt lat="45.3738948" lon="8.1633746"><ele>190.0</ele><time>2026-04-19T14:22:54.904Z</time></trkpt><trkpt lat="45.3738481" lon="8.1635875"><ele>190.0</ele><time>2026-04-19T14:22:55.904Z</time></trkpt><trkpt lat="45.3738077" lon="8.1637866"><ele>190.0</ele><time>2026-04-19T14:22:56.904Z</time></trkpt><trkpt lat="45.3737738" lon="8.1639678"><ele>190.0</ele><time>2026-04-19T14:22:57.905Z</time></trkpt><trkpt lat="45.373752" lon="8.1641123"><ele>190.0</ele><time>2026-04-19T14:22:58.906Z</time></trkpt><trkpt lat="45.3737425" lon="8.1642398"><ele>189.83333333333334</ele><time>2026-04-19T14:22:59.904Z</time></trkpt><trkpt lat="45.3737508" lon="8.1643401"><ele>189.66666666666669</ele><time>2026-04-19T14:23:00.904Z</time></trkpt><trkpt lat="45.3737622" lon="8.1644359"><ele>189.5</ele><time>2026-04-19T14:23:01.905Z</time></trkpt><trkpt lat="45.3737578" lon="8.1645767"><ele>189.33333333333334</ele><time>2026-04-19T14:23:03.904Z</time></trkpt><trkpt lat="45.3737455" lon="8.1646969"><ele>189.16666666666666</ele><time>2026-04-19T14:23:05.905Z</time></trkpt><trkpt lat="45.3737752" lon="8.1647989"><ele>189.0</ele><time>2026-04-19T14:23:07.904Z</time></trkpt><trkpt lat="45.3737847" lon="8.1647086"><ele>189.0</ele><time>2026-04-19T14:37:00.904Z</time></trkpt><trkpt lat="45.3738468" lon="8.1647828"><ele>189.0</ele><time>2026-04-19T14:41:11.903Z</time></trkpt><trkpt lat="45.3738032" lon="8.1646959"><ele>189.0</ele><time>2026-04-19T14:43:23.902Z</time></trkpt><trkpt lat="45.3738112" lon="8.1647857"><ele>189.0</ele><time>2026-04-19T14:43:42.902Z</time></trkpt><trkpt lat="45.3737821" lon="8.1646941"><ele>189.0</ele><time>2026-04-19T14:44:08.902Z</time></trkpt><trkpt lat="45.3738288" lon="8.16477"><ele>189.0</ele><time>2026-04-19T14:44:13.903Z</time></trkpt><trkpt lat="45.3739003" lon="8.1648095"><ele>189.0</ele><time>2026-04-19T14:44:19.902Z</time></trkpt><trkpt lat="45.3739676" lon="8.1648022"><ele>190.0</ele><time>2026-04-19T14:44:28.902Z</time></trkpt><trkpt lat="45.3738911" lon="8.1647745"><ele>190.0</ele><time>2026-04-19T14:46:32.901Z</time></trkpt><trkpt lat="45.3738345" lon="8.1647343"><ele>189.0</ele><time>2026-04-19T14:46:36.901Z</time></trkpt><trkpt lat="45.3737944" lon="8.1646633"><ele>189.0</ele><time>2026-04-19T14:46:44.902Z</time></trkpt></trkseg></trk></gpx>